<?xml version="1.0" encoding="UTF-8" standalone="no" ?>
<gpx xmlns="http://www.topografix.com/GPX/1/1" xmlns:xsi="http://www.w3.org/2001/XMLSchema-instance" xsi:schemaLocation="http://www.topografix.com/GPX/1/1 http://www.topografix.com/GPX/1/1/gpx.xsd" version="1.1" creator="VisuGPX - https://www.visugpx.com">
  <metadata>
    <name>2021-09-07_073500</name>
  </metadata>
  <trk>
    <name><![CDATA[2021-09-07_073500]]></name>
    <extensions>
      <line xmlns="http://www.topografix.com/GPX/gpx_style/0/2">
        <width>5</width>
      </line>
    </extensions>
    <trkseg>
      <trkpt lat="43.76265" lon="6.44534">
        <ele>777.5</ele>
        <time>2021-09-07T05:35:01.000Z</time>
      </trkpt>
      <trkpt lat="43.76265" lon="6.44534">
        <ele>777.3</ele>
        <time>2021-09-07T05:35:02.000Z</time>
      </trkpt>
      <trkpt lat="43.76265" lon="6.44534">
        <ele>776.7</ele>
        <time>2021-09-07T05:35:07.000Z</time>
      </trkpt>
      <trkpt lat="43.76263" lon="6.44538">
        <ele>776.7</ele>
        <time>2021-09-07T05:35:10.000Z</time>
      </trkpt>
      <trkpt lat="43.76263" lon="6.44538">
        <ele>777.8</ele>
        <time>2021-09-07T05:35:11.000Z</time>
      </trkpt>
      <trkpt lat="43.76263" lon="6.44538">
        <ele>776.4</ele>
        <time>2021-09-07T05:35:15.000Z</time>
      </trkpt>
      <trkpt lat="43.76263" lon="6.44538">
        <ele>776.3</ele>
        <time>2021-09-07T05:35:18.000Z</time>
      </trkpt>
      <trkpt lat="43.76264" lon="6.44538">
        <ele>776.5</ele>
        <time>2021-09-07T05:35:23.000Z</time>
      </trkpt>
      <trkpt lat="43.76264" lon="6.44537">
        <ele>776.7</ele>
        <time>2021-09-07T05:35:28.000Z</time>
      </trkpt>
      <trkpt lat="43.76264" lon="6.44537">
        <ele>776.5</ele>
        <time>2021-09-07T05:35:33.000Z</time>
      </trkpt>
      <trkpt lat="43.76264" lon="6.44537">
        <ele>776.6</ele>
        <time>2021-09-07T05:35:38.000Z</time>
      </trkpt>
      <trkpt lat="43.76264" lon="6.44537">
        <ele>776.8</ele>
        <time>2021-09-07T05:35:43.000Z</time>
      </trkpt>
      <trkpt lat="43.76265" lon="6.44537">
        <ele>776.6</ele>
        <time>2021-09-07T05:35:45.000Z</time>
      </trkpt>
      <trkpt lat="43.76265" lon="6.44537">
        <ele>776.6</ele>
        <time>2021-09-07T05:35:45.000Z</time>
      </trkpt>
      <trkpt lat="43.76265" lon="6.44537">
        <ele>776.2</ele>
        <time>2021-09-07T05:35:47.000Z</time>
      </trkpt>
      <trkpt lat="43.76265" lon="6.44537">
        <ele>777.3</ele>
        <time>2021-09-07T05:35:52.000Z</time>
      </trkpt>
      <trkpt lat="43.76266" lon="6.44537">
        <ele>775.3</ele>
        <time>2021-09-07T05:35:57.000Z</time>
      </trkpt>
      <trkpt lat="43.76266" lon="6.44536">
        <ele>777.1</ele>
        <time>2021-09-07T05:35:58.000Z</time>
      </trkpt>
      <trkpt lat="43.76266" lon="6.44536">
        <ele>777.5</ele>
        <time>2021-09-07T05:35:59.000Z</time>
      </trkpt>
      <trkpt lat="43.76266" lon="6.44537">
        <ele>777</ele>
        <time>2021-09-07T05:36:04.000Z</time>
      </trkpt>
      <trkpt lat="43.76266" lon="6.44537">
        <ele>777</ele>
        <time>2021-09-07T05:36:09.000Z</time>
      </trkpt>
      <trkpt lat="43.76266" lon="6.44537">
        <ele>776.8</ele>
        <time>2021-09-07T05:36:14.000Z</time>
      </trkpt>
      <trkpt lat="43.76266" lon="6.44537">
        <ele>776.7</ele>
        <time>2021-09-07T05:36:19.000Z</time>
      </trkpt>
      <trkpt lat="43.76266" lon="6.44538">
        <ele>776.6</ele>
        <time>2021-09-07T05:36:24.000Z</time>
      </trkpt>
      <trkpt lat="43.76266" lon="6.44538">
        <ele>776.5</ele>
        <time>2021-09-07T05:36:29.000Z</time>
      </trkpt>
      <trkpt lat="43.76266" lon="6.44538">
        <ele>776.5</ele>
        <time>2021-09-07T05:36:32.000Z</time>
      </trkpt>
      <trkpt lat="43.76266" lon="6.44538">
        <ele>776.5</ele>
        <time>2021-09-07T05:36:33.000Z</time>
      </trkpt>
      <trkpt lat="43.76265" lon="6.44539">
        <ele>776.6</ele>
        <time>2021-09-07T05:36:35.000Z</time>
      </trkpt>
      <trkpt lat="43.76265" lon="6.44539">
        <ele>776.6</ele>
        <time>2021-09-07T05:36:36.000Z</time>
      </trkpt>
      <trkpt lat="43.76265" lon="6.44539">
        <ele>776.6</ele>
        <time>2021-09-07T05:36:37.000Z</time>
      </trkpt>
      <trkpt lat="43.76265" lon="6.44539">
        <ele>776.3</ele>
        <time>2021-09-07T05:36:38.000Z</time>
      </trkpt>
      <trkpt lat="43.76265" lon="6.4454">
        <ele>776.5</ele>
        <time>2021-09-07T05:36:43.000Z</time>
      </trkpt>
      <trkpt lat="43.76265" lon="6.4454">
        <ele>776.2</ele>
        <time>2021-09-07T05:36:45.000Z</time>
      </trkpt>
      <trkpt lat="43.76265" lon="6.4454">
        <ele>776.4</ele>
        <time>2021-09-07T05:36:52.000Z</time>
      </trkpt>
      <trkpt lat="43.76265" lon="6.44541">
        <ele>776.2</ele>
        <time>2021-09-07T05:36:57.000Z</time>
      </trkpt>
      <trkpt lat="43.76265" lon="6.44541">
        <ele>776.3</ele>
        <time>2021-09-07T05:37:02.000Z</time>
      </trkpt>
      <trkpt lat="43.76265" lon="6.44542">
        <ele>776.2</ele>
        <time>2021-09-07T05:37:07.000Z</time>
      </trkpt>
      <trkpt lat="43.76265" lon="6.44542">
        <ele>778</ele>
        <time>2021-09-07T05:37:12.000Z</time>
      </trkpt>
      <trkpt lat="43.76265" lon="6.44542">
        <ele>775.6</ele>
        <time>2021-09-07T05:37:17.000Z</time>
      </trkpt>
      <trkpt lat="43.76265" lon="6.44542">
        <ele>775.4</ele>
        <time>2021-09-07T05:37:22.000Z</time>
      </trkpt>
      <trkpt lat="43.76266" lon="6.44542">
        <ele>776.4</ele>
        <time>2021-09-07T05:37:27.000Z</time>
      </trkpt>
      <trkpt lat="43.76266" lon="6.44542">
        <ele>776.7</ele>
        <time>2021-09-07T05:37:32.000Z</time>
      </trkpt>
      <trkpt lat="43.76266" lon="6.44542">
        <ele>776.5</ele>
        <time>2021-09-07T05:37:37.000Z</time>
      </trkpt>
      <trkpt lat="43.76266" lon="6.44542">
        <ele>776.6</ele>
        <time>2021-09-07T05:37:39.000Z</time>
      </trkpt>
      <trkpt lat="43.76266" lon="6.44542">
        <ele>776.6</ele>
        <time>2021-09-07T05:37:43.000Z</time>
      </trkpt>
      <trkpt lat="43.76266" lon="6.44542">
        <ele>776.4</ele>
        <time>2021-09-07T05:37:48.000Z</time>
      </trkpt>
      <trkpt lat="43.76266" lon="6.44542">
        <ele>776.5</ele>
        <time>2021-09-07T05:37:49.000Z</time>
      </trkpt>
      <trkpt lat="43.76266" lon="6.44542">
        <ele>776.5</ele>
        <time>2021-09-07T05:37:52.000Z</time>
      </trkpt>
      <trkpt lat="43.76266" lon="6.44542">
        <ele>776.5</ele>
        <time>2021-09-07T05:37:53.000Z</time>
      </trkpt>
      <trkpt lat="43.76266" lon="6.44542">
        <ele>776.5</ele>
        <time>2021-09-07T05:37:56.000Z</time>
      </trkpt>
      <trkpt lat="43.76267" lon="6.44542">
        <ele>777.1</ele>
        <time>2021-09-07T05:37:59.000Z</time>
      </trkpt>
      <trkpt lat="43.76267" lon="6.44542">
        <ele>776.6</ele>
        <time>2021-09-07T05:38:00.000Z</time>
      </trkpt>
      <trkpt lat="43.76267" lon="6.44542">
        <ele>775.3</ele>
        <time>2021-09-07T05:38:03.000Z</time>
      </trkpt>
      <trkpt lat="43.76267" lon="6.44542">
        <ele>777</ele>
        <time>2021-09-07T05:38:05.000Z</time>
      </trkpt>
      <trkpt lat="43.76267" lon="6.44542">
        <ele>776.8</ele>
        <time>2021-09-07T05:38:06.000Z</time>
      </trkpt>
      <trkpt lat="43.76267" lon="6.44542">
        <ele>776.5</ele>
        <time>2021-09-07T05:38:13.000Z</time>
      </trkpt>
      <trkpt lat="43.76268" lon="6.44542">
        <ele>777</ele>
        <time>2021-09-07T05:38:13.000Z</time>
      </trkpt>
      <trkpt lat="43.76268" lon="6.44541">
        <ele>776.7</ele>
        <time>2021-09-07T05:38:18.000Z</time>
      </trkpt>
      <trkpt lat="43.76269" lon="6.44541">
        <ele>777</ele>
        <time>2021-09-07T05:38:22.000Z</time>
      </trkpt>
      <trkpt lat="43.76269" lon="6.4454">
        <ele>776.7</ele>
        <time>2021-09-07T05:38:24.000Z</time>
      </trkpt>
      <trkpt lat="43.76269" lon="6.4454">
        <ele>777</ele>
        <time>2021-09-07T05:38:29.000Z</time>
      </trkpt>
      <trkpt lat="43.76269" lon="6.4454">
        <ele>776.4</ele>
        <time>2021-09-07T05:38:34.000Z</time>
      </trkpt>
      <trkpt lat="43.76269" lon="6.4454">
        <ele>776.4</ele>
        <time>2021-09-07T05:38:39.000Z</time>
      </trkpt>
      <trkpt lat="43.76269" lon="6.4454">
        <ele>776.2</ele>
        <time>2021-09-07T05:38:44.000Z</time>
      </trkpt>
      <trkpt lat="43.76269" lon="6.4454">
        <ele>776.2</ele>
        <time>2021-09-07T05:38:49.000Z</time>
      </trkpt>
      <trkpt lat="43.76269" lon="6.4454">
        <ele>776.1</ele>
        <time>2021-09-07T05:38:54.000Z</time>
      </trkpt>
      <trkpt lat="43.76269" lon="6.4454">
        <ele>776.5</ele>
        <time>2021-09-07T05:38:55.000Z</time>
      </trkpt>
      <trkpt lat="43.76269" lon="6.44539">
        <ele>775.6</ele>
        <time>2021-09-07T05:39:00.000Z</time>
      </trkpt>
      <trkpt lat="43.76269" lon="6.44539">
        <ele>774.1</ele>
        <time>2021-09-07T05:39:01.000Z</time>
      </trkpt>
      <trkpt lat="43.7627" lon="6.44539">
        <ele>775.9</ele>
        <time>2021-09-07T05:39:03.000Z</time>
      </trkpt>
      <trkpt lat="43.7627" lon="6.44538">
        <ele>776.5</ele>
        <time>2021-09-07T05:39:06.000Z</time>
      </trkpt>
      <trkpt lat="43.7627" lon="6.44538">
        <ele>776.3</ele>
        <time>2021-09-07T05:39:11.000Z</time>
      </trkpt>
      <trkpt lat="43.7627" lon="6.44538">
        <ele>777.2</ele>
        <time>2021-09-07T05:39:16.000Z</time>
      </trkpt>
      <trkpt lat="43.7627" lon="6.44538">
        <ele>777.1</ele>
        <time>2021-09-07T05:39:21.000Z</time>
      </trkpt>
      <trkpt lat="43.76271" lon="6.44538">
        <ele>777.3</ele>
        <time>2021-09-07T05:39:26.000Z</time>
      </trkpt>
      <trkpt lat="43.76271" lon="6.44538">
        <ele>776.8</ele>
        <time>2021-09-07T05:39:31.000Z</time>
      </trkpt>
      <trkpt lat="43.76271" lon="6.44538">
        <ele>776.8</ele>
        <time>2021-09-07T05:39:32.000Z</time>
      </trkpt>
      <trkpt lat="43.76271" lon="6.44538">
        <ele>777.1</ele>
        <time>2021-09-07T05:39:33.000Z</time>
      </trkpt>
      <trkpt lat="43.76271" lon="6.44538">
        <ele>777.1</ele>
        <time>2021-09-07T05:39:34.000Z</time>
      </trkpt>
      <trkpt lat="43.76271" lon="6.44538">
        <ele>777.2</ele>
        <time>2021-09-07T05:39:35.000Z</time>
      </trkpt>
      <trkpt lat="43.76271" lon="6.44538">
        <ele>777.1</ele>
        <time>2021-09-07T05:39:36.000Z</time>
      </trkpt>
      <trkpt lat="43.76271" lon="6.44539">
        <ele>777.3</ele>
        <time>2021-09-07T05:39:38.000Z</time>
      </trkpt>
      <trkpt lat="43.76271" lon="6.44538">
        <ele>777.2</ele>
        <time>2021-09-07T05:39:43.000Z</time>
      </trkpt>
      <trkpt lat="43.76271" lon="6.44538">
        <ele>777</ele>
        <time>2021-09-07T05:39:47.000Z</time>
      </trkpt>
      <trkpt lat="43.76271" lon="6.44537">
        <ele>777.1</ele>
        <time>2021-09-07T05:39:50.000Z</time>
      </trkpt>
      <trkpt lat="43.76271" lon="6.44538">
        <ele>777.4</ele>
        <time>2021-09-07T05:39:51.000Z</time>
      </trkpt>
      <trkpt lat="43.76271" lon="6.44537">
        <ele>777.1</ele>
        <time>2021-09-07T05:39:51.000Z</time>
      </trkpt>
      <trkpt lat="43.76271" lon="6.44537">
        <ele>777.1</ele>
        <time>2021-09-07T05:39:56.000Z</time>
      </trkpt>
      <trkpt lat="43.76271" lon="6.44537">
        <ele>777.2</ele>
        <time>2021-09-07T05:40:01.000Z</time>
      </trkpt>
      <trkpt lat="43.7627" lon="6.44537">
        <ele>777.2</ele>
        <time>2021-09-07T05:40:06.000Z</time>
      </trkpt>
      <trkpt lat="43.76271" lon="6.44536">
        <ele>776.7</ele>
        <time>2021-09-07T05:40:10.000Z</time>
      </trkpt>
      <trkpt lat="43.7627" lon="6.44537">
        <ele>776.7</ele>
        <time>2021-09-07T05:40:11.000Z</time>
      </trkpt>
      <trkpt lat="43.76271" lon="6.44536">
        <ele>777</ele>
        <time>2021-09-07T05:40:11.000Z</time>
      </trkpt>
      <trkpt lat="43.7627" lon="6.44536">
        <ele>776.1</ele>
        <time>2021-09-07T05:40:16.000Z</time>
      </trkpt>
      <trkpt lat="43.7627" lon="6.44536">
        <ele>776.6</ele>
        <time>2021-09-07T05:40:21.000Z</time>
      </trkpt>
      <trkpt lat="43.7627" lon="6.44536">
        <ele>777</ele>
        <time>2021-09-07T05:40:25.000Z</time>
      </trkpt>
      <trkpt lat="43.76268" lon="6.44534">
        <ele>776.8</ele>
        <time>2021-09-07T05:40:31.000Z</time>
      </trkpt>
      <trkpt lat="43.76268" lon="6.44532">
        <ele>777</ele>
        <time>2021-09-07T05:40:31.000Z</time>
      </trkpt>
      <trkpt lat="43.76268" lon="6.44532">
        <ele>776.9</ele>
        <time>2021-09-07T05:40:32.000Z</time>
      </trkpt>
      <trkpt lat="43.76268" lon="6.44532">
        <ele>776.6</ele>
        <time>2021-09-07T05:40:37.000Z</time>
      </trkpt>
      <trkpt lat="43.76268" lon="6.44531">
        <ele>776.7</ele>
        <time>2021-09-07T05:40:41.000Z</time>
      </trkpt>
      <trkpt lat="43.76268" lon="6.44531">
        <ele>776.7</ele>
        <time>2021-09-07T05:40:42.000Z</time>
      </trkpt>
      <trkpt lat="43.76268" lon="6.44531">
        <ele>776.8</ele>
        <time>2021-09-07T05:40:47.000Z</time>
      </trkpt>
      <trkpt lat="43.76268" lon="6.44531">
        <ele>776.6</ele>
        <time>2021-09-07T05:40:52.000Z</time>
      </trkpt>
      <trkpt lat="43.76267" lon="6.44531">
        <ele>776.7</ele>
        <time>2021-09-07T05:40:57.000Z</time>
      </trkpt>
      <trkpt lat="43.76267" lon="6.44531">
        <ele>776.9</ele>
        <time>2021-09-07T05:40:58.000Z</time>
      </trkpt>
      <trkpt lat="43.76267" lon="6.44532">
        <ele>776.9</ele>
        <time>2021-09-07T05:40:59.000Z</time>
      </trkpt>
      <trkpt lat="43.76267" lon="6.44532">
        <ele>776.6</ele>
        <time>2021-09-07T05:41:01.000Z</time>
      </trkpt>
      <trkpt lat="43.76267" lon="6.44532">
        <ele>776.9</ele>
        <time>2021-09-07T05:41:03.000Z</time>
      </trkpt>
      <trkpt lat="43.76267" lon="6.44533">
        <ele>776.9</ele>
        <time>2021-09-07T05:41:08.000Z</time>
      </trkpt>
      <trkpt lat="43.76267" lon="6.44533">
        <ele>776.9</ele>
        <time>2021-09-07T05:41:09.000Z</time>
      </trkpt>
      <trkpt lat="43.76267" lon="6.44534">
        <ele>776.9</ele>
        <time>2021-09-07T05:41:14.000Z</time>
      </trkpt>
      <trkpt lat="43.76266" lon="6.44534">
        <ele>776.8</ele>
        <time>2021-09-07T05:41:19.000Z</time>
      </trkpt>
      <trkpt lat="43.76266" lon="6.44534">
        <ele>776.9</ele>
        <time>2021-09-07T05:41:20.000Z</time>
      </trkpt>
      <trkpt lat="43.76266" lon="6.44535">
        <ele>777.2</ele>
        <time>2021-09-07T05:41:21.000Z</time>
      </trkpt>
      <trkpt lat="43.76266" lon="6.44535">
        <ele>777.1</ele>
        <time>2021-09-07T05:41:22.000Z</time>
      </trkpt>
      <trkpt lat="43.76266" lon="6.44535">
        <ele>776.9</ele>
        <time>2021-09-07T05:41:27.000Z</time>
      </trkpt>
      <trkpt lat="43.76266" lon="6.44535">
        <ele>776.9</ele>
        <time>2021-09-07T05:41:32.000Z</time>
      </trkpt>
      <trkpt lat="43.76267" lon="6.44535">
        <ele>777</ele>
        <time>2021-09-07T05:41:37.000Z</time>
      </trkpt>
      <trkpt lat="43.76267" lon="6.44535">
        <ele>776.9</ele>
        <time>2021-09-07T05:41:42.000Z</time>
      </trkpt>
      <trkpt lat="43.76267" lon="6.44535">
        <ele>776.9</ele>
        <time>2021-09-07T05:41:47.000Z</time>
      </trkpt>
      <trkpt lat="43.76267" lon="6.44535">
        <ele>777.1</ele>
        <time>2021-09-07T05:41:52.000Z</time>
      </trkpt>
      <trkpt lat="43.76267" lon="6.44535">
        <ele>777.1</ele>
        <time>2021-09-07T05:41:57.000Z</time>
      </trkpt>
      <trkpt lat="43.76267" lon="6.44535">
        <ele>777.1</ele>
        <time>2021-09-07T05:42:02.000Z</time>
      </trkpt>
      <trkpt lat="43.76267" lon="6.44535">
        <ele>777.3</ele>
        <time>2021-09-07T05:42:08.000Z</time>
      </trkpt>
      <trkpt lat="43.76267" lon="6.44535">
        <ele>777.4</ele>
        <time>2021-09-07T05:42:13.000Z</time>
      </trkpt>
      <trkpt lat="43.76267" lon="6.44535">
        <ele>777.4</ele>
        <time>2021-09-07T05:42:18.000Z</time>
      </trkpt>
      <trkpt lat="43.76268" lon="6.44535">
        <ele>777.3</ele>
        <time>2021-09-07T05:42:23.000Z</time>
      </trkpt>
      <trkpt lat="43.76268" lon="6.44535">
        <ele>777.2</ele>
        <time>2021-09-07T05:42:28.000Z</time>
      </trkpt>
      <trkpt lat="43.76268" lon="6.44534">
        <ele>777.3</ele>
        <time>2021-09-07T05:42:33.000Z</time>
      </trkpt>
      <trkpt lat="43.76268" lon="6.44535">
        <ele>777.4</ele>
        <time>2021-09-07T05:42:38.000Z</time>
      </trkpt>
      <trkpt lat="43.76268" lon="6.44535">
        <ele>777.6</ele>
        <time>2021-09-07T05:42:43.000Z</time>
      </trkpt>
      <trkpt lat="43.76268" lon="6.44535">
        <ele>777.3</ele>
        <time>2021-09-07T05:42:48.000Z</time>
      </trkpt>
      <trkpt lat="43.76268" lon="6.44535">
        <ele>777.4</ele>
        <time>2021-09-07T05:42:53.000Z</time>
      </trkpt>
      <trkpt lat="43.76268" lon="6.44535">
        <ele>777.5</ele>
        <time>2021-09-07T05:42:58.000Z</time>
      </trkpt>
      <trkpt lat="43.76268" lon="6.44535">
        <ele>777.5</ele>
        <time>2021-09-07T05:43:02.000Z</time>
      </trkpt>
      <trkpt lat="43.76268" lon="6.44535">
        <ele>777.6</ele>
        <time>2021-09-07T05:43:03.000Z</time>
      </trkpt>
      <trkpt lat="43.76268" lon="6.44535">
        <ele>777.4</ele>
        <time>2021-09-07T05:43:09.000Z</time>
      </trkpt>
      <trkpt lat="43.76268" lon="6.44536">
        <ele>777.4</ele>
        <time>2021-09-07T05:43:14.000Z</time>
      </trkpt>
      <trkpt lat="43.76269" lon="6.44536">
        <ele>777.3</ele>
        <time>2021-09-07T05:43:19.000Z</time>
      </trkpt>
      <trkpt lat="43.76268" lon="6.44536">
        <ele>777.2</ele>
        <time>2021-09-07T05:43:24.000Z</time>
      </trkpt>
      <trkpt lat="43.76269" lon="6.44536">
        <ele>777.4</ele>
        <time>2021-09-07T05:43:26.000Z</time>
      </trkpt>
      <trkpt lat="43.76269" lon="6.44536">
        <ele>777.3</ele>
        <time>2021-09-07T05:43:29.000Z</time>
      </trkpt>
      <trkpt lat="43.76268" lon="6.44536">
        <ele>777.2</ele>
        <time>2021-09-07T05:43:34.000Z</time>
      </trkpt>
      <trkpt lat="43.76268" lon="6.44536">
        <ele>777.4</ele>
        <time>2021-09-07T05:43:39.000Z</time>
      </trkpt>
      <trkpt lat="43.76268" lon="6.44536">
        <ele>777.1</ele>
        <time>2021-09-07T05:43:44.000Z</time>
      </trkpt>
      <trkpt lat="43.76268" lon="6.44536">
        <ele>776.8</ele>
        <time>2021-09-07T05:43:49.000Z</time>
      </trkpt>
      <trkpt lat="43.76268" lon="6.44536">
        <ele>777.2</ele>
        <time>2021-09-07T05:43:50.000Z</time>
      </trkpt>
      <trkpt lat="43.76268" lon="6.44535">
        <ele>777.1</ele>
        <time>2021-09-07T05:43:53.000Z</time>
      </trkpt>
      <trkpt lat="43.76268" lon="6.44535">
        <ele>777</ele>
        <time>2021-09-07T05:43:58.000Z</time>
      </trkpt>
      <trkpt lat="43.76268" lon="6.44535">
        <ele>777.1</ele>
        <time>2021-09-07T05:44:03.000Z</time>
      </trkpt>
      <trkpt lat="43.76268" lon="6.44535">
        <ele>777.1</ele>
        <time>2021-09-07T05:44:05.000Z</time>
      </trkpt>
      <trkpt lat="43.76268" lon="6.44535">
        <ele>777.2</ele>
        <time>2021-09-07T05:44:06.000Z</time>
      </trkpt>
      <trkpt lat="43.76269" lon="6.44535">
        <ele>777</ele>
        <time>2021-09-07T05:44:11.000Z</time>
      </trkpt>
      <trkpt lat="43.76277" lon="6.44532">
        <ele>777.4</ele>
        <time>2021-09-07T05:44:16.000Z</time>
      </trkpt>
      <trkpt lat="43.76289" lon="6.44525">
        <ele>779.6</ele>
        <time>2021-09-07T05:44:21.000Z</time>
      </trkpt>
      <trkpt lat="43.76297" lon="6.44513">
        <ele>782</ele>
        <time>2021-09-07T05:44:26.000Z</time>
      </trkpt>
      <trkpt lat="43.76301" lon="6.44507">
        <ele>782.7</ele>
        <time>2021-09-07T05:44:31.000Z</time>
      </trkpt>
      <trkpt lat="43.76309" lon="6.44502">
        <ele>783</ele>
        <time>2021-09-07T05:44:36.000Z</time>
      </trkpt>
      <trkpt lat="43.76315" lon="6.44498">
        <ele>783.1</ele>
        <time>2021-09-07T05:44:41.000Z</time>
      </trkpt>
      <trkpt lat="43.76324" lon="6.44494">
        <ele>783</ele>
        <time>2021-09-07T05:44:46.000Z</time>
      </trkpt>
      <trkpt lat="43.7633" lon="6.44492">
        <ele>782.9</ele>
        <time>2021-09-07T05:44:49.000Z</time>
      </trkpt>
      <trkpt lat="43.76334" lon="6.44491">
        <ele>783</ele>
        <time>2021-09-07T05:44:51.000Z</time>
      </trkpt>
      <trkpt lat="43.76329" lon="6.44493">
        <ele>783</ele>
        <time>2021-09-07T05:44:51.000Z</time>
      </trkpt>
      <trkpt lat="43.76332" lon="6.44492">
        <ele>783</ele>
        <time>2021-09-07T05:44:52.000Z</time>
      </trkpt>
      <trkpt lat="43.76334" lon="6.44491">
        <ele>783.2</ele>
        <time>2021-09-07T05:44:54.000Z</time>
      </trkpt>
      <trkpt lat="43.76341" lon="6.4449">
        <ele>783.7</ele>
        <time>2021-09-07T05:44:54.000Z</time>
      </trkpt>
      <trkpt lat="43.76343" lon="6.44489">
        <ele>783.7</ele>
        <time>2021-09-07T05:44:55.000Z</time>
      </trkpt>
      <trkpt lat="43.76346" lon="6.44488">
        <ele>783.9</ele>
        <time>2021-09-07T05:44:56.000Z</time>
      </trkpt>
      <trkpt lat="43.76349" lon="6.44488">
        <ele>784</ele>
        <time>2021-09-07T05:44:57.000Z</time>
      </trkpt>
      <trkpt lat="43.76342" lon="6.44489">
        <ele>783.8</ele>
        <time>2021-09-07T05:44:57.000Z</time>
      </trkpt>
      <trkpt lat="43.76345" lon="6.44489">
        <ele>783.8</ele>
        <time>2021-09-07T05:44:58.000Z</time>
      </trkpt>
      <trkpt lat="43.76354" lon="6.44487">
        <ele>783.8</ele>
        <time>2021-09-07T05:44:59.000Z</time>
      </trkpt>
      <trkpt lat="43.76348" lon="6.44488">
        <ele>784</ele>
        <time>2021-09-07T05:44:59.000Z</time>
      </trkpt>
      <trkpt lat="43.76357" lon="6.44486">
        <ele>783.9</ele>
        <time>2021-09-07T05:45:00.000Z</time>
      </trkpt>
      <trkpt lat="43.76351" lon="6.44487">
        <ele>783.8</ele>
        <time>2021-09-07T05:45:00.000Z</time>
      </trkpt>
      <trkpt lat="43.76362" lon="6.44485">
        <ele>784.3</ele>
        <time>2021-09-07T05:45:02.000Z</time>
      </trkpt>
      <trkpt lat="43.76355" lon="6.44487">
        <ele>783.9</ele>
        <time>2021-09-07T05:45:02.000Z</time>
      </trkpt>
      <trkpt lat="43.76359" lon="6.44486">
        <ele>784.1</ele>
        <time>2021-09-07T05:45:03.000Z</time>
      </trkpt>
      <trkpt lat="43.76364" lon="6.44484">
        <ele>784.3</ele>
        <time>2021-09-07T05:45:05.000Z</time>
      </trkpt>
      <trkpt lat="43.76375" lon="6.44481">
        <ele>784.5</ele>
        <time>2021-09-07T05:45:07.000Z</time>
      </trkpt>
      <trkpt lat="43.76376" lon="6.44481">
        <ele>784.5</ele>
        <time>2021-09-07T05:45:10.000Z</time>
      </trkpt>
      <trkpt lat="43.76383" lon="6.44481">
        <ele>784.9</ele>
        <time>2021-09-07T05:45:10.000Z</time>
      </trkpt>
      <trkpt lat="43.76384" lon="6.4448">
        <ele>784.9</ele>
        <time>2021-09-07T05:45:13.000Z</time>
      </trkpt>
      <trkpt lat="43.76391" lon="6.44478">
        <ele>784.8</ele>
        <time>2021-09-07T05:45:13.000Z</time>
      </trkpt>
      <trkpt lat="43.76397" lon="6.44476">
        <ele>785</ele>
        <time>2021-09-07T05:45:15.000Z</time>
      </trkpt>
      <trkpt lat="43.76393" lon="6.44477">
        <ele>785</ele>
        <time>2021-09-07T05:45:16.000Z</time>
      </trkpt>
      <trkpt lat="43.764" lon="6.44475">
        <ele>784.9</ele>
        <time>2021-09-07T05:45:16.000Z</time>
      </trkpt>
      <trkpt lat="43.76405" lon="6.44473">
        <ele>784.7</ele>
        <time>2021-09-07T05:45:19.000Z</time>
      </trkpt>
      <trkpt lat="43.76407" lon="6.44473">
        <ele>784.9</ele>
        <time>2021-09-07T05:45:20.000Z</time>
      </trkpt>
      <trkpt lat="43.76404" lon="6.44474">
        <ele>784.7</ele>
        <time>2021-09-07T05:45:21.000Z</time>
      </trkpt>
      <trkpt lat="43.76411" lon="6.44471">
        <ele>784.8</ele>
        <time>2021-09-07T05:45:22.000Z</time>
      </trkpt>
      <trkpt lat="43.76407" lon="6.44473">
        <ele>784.8</ele>
        <time>2021-09-07T05:45:22.000Z</time>
      </trkpt>
      <trkpt lat="43.76413" lon="6.44471">
        <ele>784.8</ele>
        <time>2021-09-07T05:45:23.000Z</time>
      </trkpt>
      <trkpt lat="43.76409" lon="6.44472">
        <ele>784.7</ele>
        <time>2021-09-07T05:45:23.000Z</time>
      </trkpt>
      <trkpt lat="43.76415" lon="6.44471">
        <ele>784.6</ele>
        <time>2021-09-07T05:45:24.000Z</time>
      </trkpt>
      <trkpt lat="43.76417" lon="6.4447">
        <ele>784.7</ele>
        <time>2021-09-07T05:45:25.000Z</time>
      </trkpt>
      <trkpt lat="43.76412" lon="6.44471">
        <ele>784.8</ele>
        <time>2021-09-07T05:45:25.000Z</time>
      </trkpt>
      <trkpt lat="43.76414" lon="6.44471">
        <ele>784.8</ele>
        <time>2021-09-07T05:45:26.000Z</time>
      </trkpt>
      <trkpt lat="43.76416" lon="6.44471">
        <ele>784.6</ele>
        <time>2021-09-07T05:45:27.000Z</time>
      </trkpt>
      <trkpt lat="43.76418" lon="6.4447">
        <ele>784.7</ele>
        <time>2021-09-07T05:45:28.000Z</time>
      </trkpt>
      <trkpt lat="43.76423" lon="6.44469">
        <ele>784.8</ele>
        <time>2021-09-07T05:45:28.000Z</time>
      </trkpt>
      <trkpt lat="43.76426" lon="6.44468">
        <ele>784.5</ele>
        <time>2021-09-07T05:45:29.000Z</time>
      </trkpt>
      <trkpt lat="43.76428" lon="6.44467">
        <ele>784.7</ele>
        <time>2021-09-07T05:45:30.000Z</time>
      </trkpt>
      <trkpt lat="43.76431" lon="6.44466">
        <ele>784.7</ele>
        <time>2021-09-07T05:45:31.000Z</time>
      </trkpt>
      <trkpt lat="43.76425" lon="6.44468">
        <ele>784.6</ele>
        <time>2021-09-07T05:45:31.000Z</time>
      </trkpt>
      <trkpt lat="43.76427" lon="6.44467">
        <ele>784.5</ele>
        <time>2021-09-07T05:45:32.000Z</time>
      </trkpt>
      <trkpt lat="43.76437" lon="6.44463">
        <ele>784.8</ele>
        <time>2021-09-07T05:45:33.000Z</time>
      </trkpt>
      <trkpt lat="43.7643" lon="6.44466">
        <ele>784.7</ele>
        <time>2021-09-07T05:45:33.000Z</time>
      </trkpt>
      <trkpt lat="43.76434" lon="6.44465">
        <ele>784.6</ele>
        <time>2021-09-07T05:45:34.000Z</time>
      </trkpt>
      <trkpt lat="43.76439" lon="6.44462">
        <ele>784.8</ele>
        <time>2021-09-07T05:45:36.000Z</time>
      </trkpt>
      <trkpt lat="43.76456" lon="6.44454">
        <ele>783.5</ele>
        <time>2021-09-07T05:45:39.000Z</time>
      </trkpt>
      <trkpt lat="43.76459" lon="6.44453">
        <ele>783.5</ele>
        <time>2021-09-07T05:45:40.000Z</time>
      </trkpt>
      <trkpt lat="43.76462" lon="6.44451">
        <ele>783.3</ele>
        <time>2021-09-07T05:45:41.000Z</time>
      </trkpt>
      <trkpt lat="43.76455" lon="6.44455">
        <ele>783.6</ele>
        <time>2021-09-07T05:45:41.000Z</time>
      </trkpt>
      <trkpt lat="43.76458" lon="6.44453">
        <ele>783.5</ele>
        <time>2021-09-07T05:45:42.000Z</time>
      </trkpt>
      <trkpt lat="43.76472" lon="6.44445">
        <ele>783.3</ele>
        <time>2021-09-07T05:45:44.000Z</time>
      </trkpt>
      <trkpt lat="43.76474" lon="6.44443">
        <ele>783.2</ele>
        <time>2021-09-07T05:45:45.000Z</time>
      </trkpt>
      <trkpt lat="43.76477" lon="6.4444">
        <ele>783</ele>
        <time>2021-09-07T05:45:46.000Z</time>
      </trkpt>
      <trkpt lat="43.76474" lon="6.44444">
        <ele>783.2</ele>
        <time>2021-09-07T05:45:47.000Z</time>
      </trkpt>
      <trkpt lat="43.76488" lon="6.44428">
        <ele>782.5</ele>
        <time>2021-09-07T05:45:51.000Z</time>
      </trkpt>
      <trkpt lat="43.76484" lon="6.44432">
        <ele>782.7</ele>
        <time>2021-09-07T05:45:52.000Z</time>
      </trkpt>
      <trkpt lat="43.7649" lon="6.44426">
        <ele>782.5</ele>
        <time>2021-09-07T05:45:52.000Z</time>
      </trkpt>
      <trkpt lat="43.76501" lon="6.44416">
        <ele>782.5</ele>
        <time>2021-09-07T05:45:56.000Z</time>
      </trkpt>
      <trkpt lat="43.76496" lon="6.4442">
        <ele>781.8</ele>
        <time>2021-09-07T05:45:57.000Z</time>
      </trkpt>
      <trkpt lat="43.76503" lon="6.44415">
        <ele>782</ele>
        <time>2021-09-07T05:45:59.000Z</time>
      </trkpt>
      <trkpt lat="43.76515" lon="6.44405">
        <ele>781.2</ele>
        <time>2021-09-07T05:46:00.000Z</time>
      </trkpt>
      <trkpt lat="43.7652" lon="6.44401">
        <ele>780.4</ele>
        <time>2021-09-07T05:46:01.000Z</time>
      </trkpt>
      <trkpt lat="43.76528" lon="6.44393">
        <ele>779.8</ele>
        <time>2021-09-07T05:46:03.000Z</time>
      </trkpt>
      <trkpt lat="43.76518" lon="6.44403">
        <ele>780.8</ele>
        <time>2021-09-07T05:46:03.000Z</time>
      </trkpt>
      <trkpt lat="43.76523" lon="6.44398">
        <ele>780</ele>
        <time>2021-09-07T05:46:04.000Z</time>
      </trkpt>
      <trkpt lat="43.76537" lon="6.44382">
        <ele>777.6</ele>
        <time>2021-09-07T05:46:05.000Z</time>
      </trkpt>
      <trkpt lat="43.7653" lon="6.44391">
        <ele>779.5</ele>
        <time>2021-09-07T05:46:06.000Z</time>
      </trkpt>
      <trkpt lat="43.76549" lon="6.44366">
        <ele>777.4</ele>
        <time>2021-09-07T05:46:07.000Z</time>
      </trkpt>
      <trkpt lat="43.76541" lon="6.44377">
        <ele>777.8</ele>
        <time>2021-09-07T05:46:08.000Z</time>
      </trkpt>
      <trkpt lat="43.76554" lon="6.4436">
        <ele>777.1</ele>
        <time>2021-09-07T05:46:08.000Z</time>
      </trkpt>
      <trkpt lat="43.76554" lon="6.4436">
        <ele>777.1</ele>
        <time>2021-09-07T05:46:08.000Z</time>
      </trkpt>
      <trkpt lat="43.76576" lon="6.44314">
        <ele>772.9</ele>
        <time>2021-09-07T05:46:13.000Z</time>
      </trkpt>
      <trkpt lat="43.76594" lon="6.44271">
        <ele>769.6</ele>
        <time>2021-09-07T05:46:18.000Z</time>
      </trkpt>
      <trkpt lat="43.76608" lon="6.44246">
        <ele>767.2</ele>
        <time>2021-09-07T05:46:23.000Z</time>
      </trkpt>
      <trkpt lat="43.76611" lon="6.44273">
        <ele>766.2</ele>
        <time>2021-09-07T05:46:28.000Z</time>
      </trkpt>
      <trkpt lat="43.766" lon="6.44316">
        <ele>762.7</ele>
        <time>2021-09-07T05:46:33.000Z</time>
      </trkpt>
      <trkpt lat="43.76596" lon="6.44361">
        <ele>760.2</ele>
        <time>2021-09-07T05:46:38.000Z</time>
      </trkpt>
      <trkpt lat="43.76595" lon="6.44413">
        <ele>755.4</ele>
        <time>2021-09-07T05:46:43.000Z</time>
      </trkpt>
      <trkpt lat="43.76592" lon="6.44465">
        <ele>751.9</ele>
        <time>2021-09-07T05:46:48.000Z</time>
      </trkpt>
      <trkpt lat="43.76576" lon="6.44519">
        <ele>746.7</ele>
        <time>2021-09-07T05:46:53.000Z</time>
      </trkpt>
      <trkpt lat="43.76552" lon="6.4456">
        <ele>742.8</ele>
        <time>2021-09-07T05:46:58.000Z</time>
      </trkpt>
      <trkpt lat="43.76536" lon="6.44606">
        <ele>738.9</ele>
        <time>2021-09-07T05:47:03.000Z</time>
      </trkpt>
      <trkpt lat="43.76523" lon="6.4465">
        <ele>734.4</ele>
        <time>2021-09-07T05:47:08.000Z</time>
      </trkpt>
      <trkpt lat="43.76499" lon="6.44674">
        <ele>730.8</ele>
        <time>2021-09-07T05:47:13.000Z</time>
      </trkpt>
      <trkpt lat="43.76473" lon="6.44694">
        <ele>727</ele>
        <time>2021-09-07T05:47:18.000Z</time>
      </trkpt>
      <trkpt lat="43.76447" lon="6.44728">
        <ele>723.8</ele>
        <time>2021-09-07T05:47:23.000Z</time>
      </trkpt>
      <trkpt lat="43.76419" lon="6.44757">
        <ele>719.7</ele>
        <time>2021-09-07T05:47:28.000Z</time>
      </trkpt>
      <trkpt lat="43.76393" lon="6.44785">
        <ele>715.4</ele>
        <time>2021-09-07T05:47:33.000Z</time>
      </trkpt>
      <trkpt lat="43.76372" lon="6.44816">
        <ele>712.4</ele>
        <time>2021-09-07T05:47:38.000Z</time>
      </trkpt>
      <trkpt lat="43.76351" lon="6.44841">
        <ele>709.3</ele>
        <time>2021-09-07T05:47:43.000Z</time>
      </trkpt>
      <trkpt lat="43.7633" lon="6.44852">
        <ele>707.6</ele>
        <time>2021-09-07T05:47:48.000Z</time>
      </trkpt>
      <trkpt lat="43.7632" lon="6.4487">
        <ele>707</ele>
        <time>2021-09-07T05:47:53.000Z</time>
      </trkpt>
      <trkpt lat="43.76323" lon="6.44897">
        <ele>707.8</ele>
        <time>2021-09-07T05:47:58.000Z</time>
      </trkpt>
      <trkpt lat="43.76333" lon="6.44934">
        <ele>705.8</ele>
        <time>2021-09-07T05:48:03.000Z</time>
      </trkpt>
      <trkpt lat="43.76341" lon="6.44977">
        <ele>706</ele>
        <time>2021-09-07T05:48:08.000Z</time>
      </trkpt>
      <trkpt lat="43.76343" lon="6.45002">
        <ele>707.1</ele>
        <time>2021-09-07T05:48:13.000Z</time>
      </trkpt>
      <trkpt lat="43.76337" lon="6.45028">
        <ele>708.9</ele>
        <time>2021-09-07T05:48:18.000Z</time>
      </trkpt>
      <trkpt lat="43.76324" lon="6.45052">
        <ele>710.6</ele>
        <time>2021-09-07T05:48:23.000Z</time>
      </trkpt>
      <trkpt lat="43.7631" lon="6.45074">
        <ele>710.8</ele>
        <time>2021-09-07T05:48:28.000Z</time>
      </trkpt>
      <trkpt lat="43.76301" lon="6.45092">
        <ele>711.5</ele>
        <time>2021-09-07T05:48:33.000Z</time>
      </trkpt>
      <trkpt lat="43.76294" lon="6.45111">
        <ele>712.2</ele>
        <time>2021-09-07T05:48:38.000Z</time>
      </trkpt>
      <trkpt lat="43.76291" lon="6.45127">
        <ele>712.7</ele>
        <time>2021-09-07T05:48:43.000Z</time>
      </trkpt>
      <trkpt lat="43.76296" lon="6.45139">
        <ele>713.4</ele>
        <time>2021-09-07T05:48:48.000Z</time>
      </trkpt>
      <trkpt lat="43.76307" lon="6.45131">
        <ele>713.7</ele>
        <time>2021-09-07T05:48:53.000Z</time>
      </trkpt>
      <trkpt lat="43.76318" lon="6.45115">
        <ele>713.7</ele>
        <time>2021-09-07T05:48:58.000Z</time>
      </trkpt>
      <trkpt lat="43.76333" lon="6.45096">
        <ele>713.6</ele>
        <time>2021-09-07T05:49:03.000Z</time>
      </trkpt>
      <trkpt lat="43.76346" lon="6.4508">
        <ele>713.4</ele>
        <time>2021-09-07T05:49:08.000Z</time>
      </trkpt>
      <trkpt lat="43.7636" lon="6.45065">
        <ele>713.4</ele>
        <time>2021-09-07T05:49:13.000Z</time>
      </trkpt>
      <trkpt lat="43.76377" lon="6.4505">
        <ele>713.6</ele>
        <time>2021-09-07T05:49:18.000Z</time>
      </trkpt>
      <trkpt lat="43.76388" lon="6.45042">
        <ele>713.2</ele>
        <time>2021-09-07T05:49:23.000Z</time>
      </trkpt>
      <trkpt lat="43.76395" lon="6.45038">
        <ele>713.2</ele>
        <time>2021-09-07T05:49:23.000Z</time>
      </trkpt>
      <trkpt lat="43.76399" lon="6.45036">
        <ele>713</ele>
        <time>2021-09-07T05:49:24.000Z</time>
      </trkpt>
      <trkpt lat="43.76397" lon="6.45037">
        <ele>713.1</ele>
        <time>2021-09-07T05:49:25.000Z</time>
      </trkpt>
      <trkpt lat="43.76403" lon="6.45033">
        <ele>713.1</ele>
        <time>2021-09-07T05:49:26.000Z</time>
      </trkpt>
      <trkpt lat="43.76416" lon="6.45026">
        <ele>713.2</ele>
        <time>2021-09-07T05:49:28.000Z</time>
      </trkpt>
      <trkpt lat="43.76418" lon="6.45025">
        <ele>713.2</ele>
        <time>2021-09-07T05:49:30.000Z</time>
      </trkpt>
      <trkpt lat="43.76424" lon="6.45022">
        <ele>713.1</ele>
        <time>2021-09-07T05:49:30.000Z</time>
      </trkpt>
      <trkpt lat="43.76428" lon="6.4502">
        <ele>713.1</ele>
        <time>2021-09-07T05:49:31.000Z</time>
      </trkpt>
      <trkpt lat="43.76433" lon="6.45017">
        <ele>713</ele>
        <time>2021-09-07T05:49:32.000Z</time>
      </trkpt>
      <trkpt lat="43.76426" lon="6.45021">
        <ele>713.3</ele>
        <time>2021-09-07T05:49:32.000Z</time>
      </trkpt>
      <trkpt lat="43.76429" lon="6.45019">
        <ele>713</ele>
        <time>2021-09-07T05:49:33.000Z</time>
      </trkpt>
      <trkpt lat="43.76437" lon="6.45015">
        <ele>713.1</ele>
        <time>2021-09-07T05:49:33.000Z</time>
      </trkpt>
      <trkpt lat="43.76454" lon="6.45007">
        <ele>712.9</ele>
        <time>2021-09-07T05:49:39.000Z</time>
      </trkpt>
      <trkpt lat="43.76489" lon="6.44985">
        <ele>712.3</ele>
        <time>2021-09-07T05:49:44.000Z</time>
      </trkpt>
      <trkpt lat="43.76512" lon="6.44964">
        <ele>712</ele>
        <time>2021-09-07T05:49:49.000Z</time>
      </trkpt>
      <trkpt lat="43.76536" lon="6.44944">
        <ele>712</ele>
        <time>2021-09-07T05:49:54.000Z</time>
      </trkpt>
      <trkpt lat="43.76557" lon="6.44929">
        <ele>712.3</ele>
        <time>2021-09-07T05:49:59.000Z</time>
      </trkpt>
      <trkpt lat="43.76574" lon="6.44916">
        <ele>712.2</ele>
        <time>2021-09-07T05:50:04.000Z</time>
      </trkpt>
      <trkpt lat="43.76593" lon="6.44905">
        <ele>712.3</ele>
        <time>2021-09-07T05:50:09.000Z</time>
      </trkpt>
      <trkpt lat="43.76602" lon="6.4491">
        <ele>711.9</ele>
        <time>2021-09-07T05:50:11.000Z</time>
      </trkpt>
      <trkpt lat="43.76604" lon="6.44908">
        <ele>712.1</ele>
        <time>2021-09-07T05:50:13.000Z</time>
      </trkpt>
      <trkpt lat="43.76608" lon="6.44902">
        <ele>711.9</ele>
        <time>2021-09-07T05:50:13.000Z</time>
      </trkpt>
      <trkpt lat="43.76611" lon="6.44899">
        <ele>712</ele>
        <time>2021-09-07T05:50:15.000Z</time>
      </trkpt>
      <trkpt lat="43.7663" lon="6.44879">
        <ele>711.8</ele>
        <time>2021-09-07T05:50:20.000Z</time>
      </trkpt>
      <trkpt lat="43.76634" lon="6.44876">
        <ele>711.5</ele>
        <time>2021-09-07T05:50:21.000Z</time>
      </trkpt>
      <trkpt lat="43.76647" lon="6.44866">
        <ele>711.1</ele>
        <time>2021-09-07T05:50:23.000Z</time>
      </trkpt>
      <trkpt lat="43.76651" lon="6.44863">
        <ele>711.7</ele>
        <time>2021-09-07T05:50:24.000Z</time>
      </trkpt>
      <trkpt lat="43.76655" lon="6.4486">
        <ele>711.6</ele>
        <time>2021-09-07T05:50:25.000Z</time>
      </trkpt>
      <trkpt lat="43.7665" lon="6.44864">
        <ele>711.5</ele>
        <time>2021-09-07T05:50:25.000Z</time>
      </trkpt>
      <trkpt lat="43.76654" lon="6.44861">
        <ele>711.7</ele>
        <time>2021-09-07T05:50:26.000Z</time>
      </trkpt>
      <trkpt lat="43.76659" lon="6.44857">
        <ele>711.5</ele>
        <time>2021-09-07T05:50:26.000Z</time>
      </trkpt>
      <trkpt lat="43.76667" lon="6.44851">
        <ele>711.7</ele>
        <time>2021-09-07T05:50:28.000Z</time>
      </trkpt>
      <trkpt lat="43.76671" lon="6.44848">
        <ele>711.6</ele>
        <time>2021-09-07T05:50:29.000Z</time>
      </trkpt>
      <trkpt lat="43.76692" lon="6.44833">
        <ele>711.2</ele>
        <time>2021-09-07T05:50:34.000Z</time>
      </trkpt>
      <trkpt lat="43.76713" lon="6.44817">
        <ele>711.3</ele>
        <time>2021-09-07T05:50:39.000Z</time>
      </trkpt>
      <trkpt lat="43.76734" lon="6.44803">
        <ele>710.8</ele>
        <time>2021-09-07T05:50:44.000Z</time>
      </trkpt>
      <trkpt lat="43.76757" lon="6.44789">
        <ele>710.2</ele>
        <time>2021-09-07T05:50:49.000Z</time>
      </trkpt>
      <trkpt lat="43.76784" lon="6.44783">
        <ele>710.6</ele>
        <time>2021-09-07T05:50:54.000Z</time>
      </trkpt>
      <trkpt lat="43.76816" lon="6.44783">
        <ele>708.6</ele>
        <time>2021-09-07T05:50:59.000Z</time>
      </trkpt>
      <trkpt lat="43.76853" lon="6.44784">
        <ele>708</ele>
        <time>2021-09-07T05:51:04.000Z</time>
      </trkpt>
      <trkpt lat="43.76891" lon="6.44789">
        <ele>706.7</ele>
        <time>2021-09-07T05:51:09.000Z</time>
      </trkpt>
      <trkpt lat="43.76927" lon="6.44806">
        <ele>705.6</ele>
        <time>2021-09-07T05:51:14.000Z</time>
      </trkpt>
      <trkpt lat="43.76963" lon="6.44826">
        <ele>704.8</ele>
        <time>2021-09-07T05:51:19.000Z</time>
      </trkpt>
      <trkpt lat="43.77" lon="6.44852">
        <ele>702.6</ele>
        <time>2021-09-07T05:51:24.000Z</time>
      </trkpt>
      <trkpt lat="43.77035" lon="6.44882">
        <ele>702.7</ele>
        <time>2021-09-07T05:51:29.000Z</time>
      </trkpt>
      <trkpt lat="43.77071" lon="6.44892">
        <ele>700.6</ele>
        <time>2021-09-07T05:51:34.000Z</time>
      </trkpt>
      <trkpt lat="43.77114" lon="6.44888">
        <ele>699.7</ele>
        <time>2021-09-07T05:51:39.000Z</time>
      </trkpt>
      <trkpt lat="43.77156" lon="6.4489">
        <ele>697.6</ele>
        <time>2021-09-07T05:51:44.000Z</time>
      </trkpt>
      <trkpt lat="43.77198" lon="6.44899">
        <ele>696.6</ele>
        <time>2021-09-07T05:51:49.000Z</time>
      </trkpt>
      <trkpt lat="43.77217" lon="6.44939">
        <ele>696.1</ele>
        <time>2021-09-07T05:51:54.000Z</time>
      </trkpt>
      <trkpt lat="43.7724" lon="6.44953">
        <ele>693.8</ele>
        <time>2021-09-07T05:51:59.000Z</time>
      </trkpt>
      <trkpt lat="43.77258" lon="6.44901">
        <ele>693.1</ele>
        <time>2021-09-07T05:52:04.000Z</time>
      </trkpt>
      <trkpt lat="43.77278" lon="6.44851">
        <ele>691.2</ele>
        <time>2021-09-07T05:52:09.000Z</time>
      </trkpt>
      <trkpt lat="43.77318" lon="6.44825">
        <ele>690.1</ele>
        <time>2021-09-07T05:52:14.000Z</time>
      </trkpt>
      <trkpt lat="43.77348" lon="6.44785">
        <ele>688.1</ele>
        <time>2021-09-07T05:52:19.000Z</time>
      </trkpt>
      <trkpt lat="43.77376" lon="6.44739">
        <ele>686.4</ele>
        <time>2021-09-07T05:52:24.000Z</time>
      </trkpt>
      <trkpt lat="43.77413" lon="6.44751">
        <ele>686.8</ele>
        <time>2021-09-07T05:52:29.000Z</time>
      </trkpt>
      <trkpt lat="43.77446" lon="6.44763">
        <ele>687.4</ele>
        <time>2021-09-07T05:52:34.000Z</time>
      </trkpt>
      <trkpt lat="43.77472" lon="6.44773">
        <ele>688</ele>
        <time>2021-09-07T05:52:39.000Z</time>
      </trkpt>
      <trkpt lat="43.77496" lon="6.44784">
        <ele>688.1</ele>
        <time>2021-09-07T05:52:44.000Z</time>
      </trkpt>
      <trkpt lat="43.77517" lon="6.44796">
        <ele>688.4</ele>
        <time>2021-09-07T05:52:49.000Z</time>
      </trkpt>
      <trkpt lat="43.77542" lon="6.44808">
        <ele>689</ele>
        <time>2021-09-07T05:52:54.000Z</time>
      </trkpt>
      <trkpt lat="43.77563" lon="6.44824">
        <ele>688.7</ele>
        <time>2021-09-07T05:52:59.000Z</time>
      </trkpt>
      <trkpt lat="43.77587" lon="6.44844">
        <ele>689.3</ele>
        <time>2021-09-07T05:53:04.000Z</time>
      </trkpt>
      <trkpt lat="43.77612" lon="6.44857">
        <ele>690.2</ele>
        <time>2021-09-07T05:53:09.000Z</time>
      </trkpt>
      <trkpt lat="43.77636" lon="6.44866">
        <ele>690.3</ele>
        <time>2021-09-07T05:53:14.000Z</time>
      </trkpt>
      <trkpt lat="43.77662" lon="6.44847">
        <ele>690.8</ele>
        <time>2021-09-07T05:53:19.000Z</time>
      </trkpt>
      <trkpt lat="43.77656" lon="6.44816">
        <ele>691.4</ele>
        <time>2021-09-07T05:53:24.000Z</time>
      </trkpt>
      <trkpt lat="43.77643" lon="6.4479">
        <ele>692.1</ele>
        <time>2021-09-07T05:53:29.000Z</time>
      </trkpt>
      <trkpt lat="43.77638" lon="6.44763">
        <ele>693.1</ele>
        <time>2021-09-07T05:53:34.000Z</time>
      </trkpt>
      <trkpt lat="43.77635" lon="6.44731">
        <ele>694.2</ele>
        <time>2021-09-07T05:53:39.000Z</time>
      </trkpt>
      <trkpt lat="43.77632" lon="6.44703">
        <ele>694.7</ele>
        <time>2021-09-07T05:53:44.000Z</time>
      </trkpt>
      <trkpt lat="43.77629" lon="6.44677">
        <ele>695.6</ele>
        <time>2021-09-07T05:53:49.000Z</time>
      </trkpt>
      <trkpt lat="43.77629" lon="6.44665">
        <ele>696.1</ele>
        <time>2021-09-07T05:53:51.000Z</time>
      </trkpt>
      <trkpt lat="43.7763" lon="6.44661">
        <ele>696</ele>
        <time>2021-09-07T05:53:53.000Z</time>
      </trkpt>
      <trkpt lat="43.77631" lon="6.44653">
        <ele>695.9</ele>
        <time>2021-09-07T05:53:53.000Z</time>
      </trkpt>
      <trkpt lat="43.77632" lon="6.44649">
        <ele>696.2</ele>
        <time>2021-09-07T05:53:55.000Z</time>
      </trkpt>
      <trkpt lat="43.77637" lon="6.44638">
        <ele>696.7</ele>
        <time>2021-09-07T05:53:56.000Z</time>
      </trkpt>
      <trkpt lat="43.7764" lon="6.44634">
        <ele>697</ele>
        <time>2021-09-07T05:53:58.000Z</time>
      </trkpt>
      <trkpt lat="43.77648" lon="6.44621">
        <ele>697.5</ele>
        <time>2021-09-07T05:54:00.000Z</time>
      </trkpt>
      <trkpt lat="43.77651" lon="6.44618">
        <ele>697.7</ele>
        <time>2021-09-07T05:54:01.000Z</time>
      </trkpt>
      <trkpt lat="43.77654" lon="6.44614">
        <ele>697.7</ele>
        <time>2021-09-07T05:54:02.000Z</time>
      </trkpt>
      <trkpt lat="43.7765" lon="6.44619">
        <ele>697.6</ele>
        <time>2021-09-07T05:54:02.000Z</time>
      </trkpt>
      <trkpt lat="43.77653" lon="6.44615">
        <ele>697.7</ele>
        <time>2021-09-07T05:54:03.000Z</time>
      </trkpt>
      <trkpt lat="43.77656" lon="6.44612">
        <ele>697.7</ele>
        <time>2021-09-07T05:54:04.000Z</time>
      </trkpt>
      <trkpt lat="43.77667" lon="6.44601">
        <ele>698.5</ele>
        <time>2021-09-07T05:54:06.000Z</time>
      </trkpt>
      <trkpt lat="43.7767" lon="6.44598">
        <ele>698.9</ele>
        <time>2021-09-07T05:54:07.000Z</time>
      </trkpt>
      <trkpt lat="43.77668" lon="6.446">
        <ele>698.7</ele>
        <time>2021-09-07T05:54:08.000Z</time>
      </trkpt>
      <trkpt lat="43.77673" lon="6.44595">
        <ele>698.6</ele>
        <time>2021-09-07T05:54:08.000Z</time>
      </trkpt>
      <trkpt lat="43.77683" lon="6.44587">
        <ele>699.1</ele>
        <time>2021-09-07T05:54:11.000Z</time>
      </trkpt>
      <trkpt lat="43.77686" lon="6.44584">
        <ele>699.4</ele>
        <time>2021-09-07T05:54:12.000Z</time>
      </trkpt>
      <trkpt lat="43.77685" lon="6.44585">
        <ele>699.3</ele>
        <time>2021-09-07T05:54:13.000Z</time>
      </trkpt>
      <trkpt lat="43.77689" lon="6.44581">
        <ele>699.2</ele>
        <time>2021-09-07T05:54:13.000Z</time>
      </trkpt>
      <trkpt lat="43.77695" lon="6.44575">
        <ele>699.6</ele>
        <time>2021-09-07T05:54:15.000Z</time>
      </trkpt>
      <trkpt lat="43.77699" lon="6.44572">
        <ele>700</ele>
        <time>2021-09-07T05:54:16.000Z</time>
      </trkpt>
      <trkpt lat="43.77697" lon="6.44573">
        <ele>699.8</ele>
        <time>2021-09-07T05:54:17.000Z</time>
      </trkpt>
      <trkpt lat="43.77701" lon="6.44569">
        <ele>700.1</ele>
        <time>2021-09-07T05:54:18.000Z</time>
      </trkpt>
      <trkpt lat="43.77708" lon="6.44562">
        <ele>700.2</ele>
        <time>2021-09-07T05:54:19.000Z</time>
      </trkpt>
      <trkpt lat="43.77711" lon="6.44559">
        <ele>700.4</ele>
        <time>2021-09-07T05:54:20.000Z</time>
      </trkpt>
      <trkpt lat="43.77714" lon="6.44556">
        <ele>700.3</ele>
        <time>2021-09-07T05:54:21.000Z</time>
      </trkpt>
      <trkpt lat="43.77709" lon="6.44561">
        <ele>700.4</ele>
        <time>2021-09-07T05:54:21.000Z</time>
      </trkpt>
      <trkpt lat="43.77713" lon="6.44557">
        <ele>700.4</ele>
        <time>2021-09-07T05:54:22.000Z</time>
      </trkpt>
      <trkpt lat="43.77716" lon="6.44553">
        <ele>700.4</ele>
        <time>2021-09-07T05:54:23.000Z</time>
      </trkpt>
      <trkpt lat="43.7772" lon="6.44549">
        <ele>701.3</ele>
        <time>2021-09-07T05:54:23.000Z</time>
      </trkpt>
      <trkpt lat="43.77723" lon="6.44547">
        <ele>701.2</ele>
        <time>2021-09-07T05:54:24.000Z</time>
      </trkpt>
      <trkpt lat="43.77722" lon="6.44548">
        <ele>701.3</ele>
        <time>2021-09-07T05:54:25.000Z</time>
      </trkpt>
      <trkpt lat="43.77726" lon="6.44544">
        <ele>701.3</ele>
        <time>2021-09-07T05:54:26.000Z</time>
      </trkpt>
      <trkpt lat="43.77741" lon="6.44531">
        <ele>701.9</ele>
        <time>2021-09-07T05:54:31.000Z</time>
      </trkpt>
      <trkpt lat="43.77741" lon="6.44531">
        <ele>701.9</ele>
        <time>2021-09-07T05:54:31.000Z</time>
      </trkpt>
      <trkpt lat="43.77744" lon="6.44528">
        <ele>702.3</ele>
        <time>2021-09-07T05:54:32.000Z</time>
      </trkpt>
      <trkpt lat="43.77747" lon="6.44525">
        <ele>702.5</ele>
        <time>2021-09-07T05:54:33.000Z</time>
      </trkpt>
      <trkpt lat="43.77757" lon="6.44516">
        <ele>703.1</ele>
        <time>2021-09-07T05:54:35.000Z</time>
      </trkpt>
      <trkpt lat="43.7776" lon="6.44513">
        <ele>703.6</ele>
        <time>2021-09-07T05:54:36.000Z</time>
      </trkpt>
      <trkpt lat="43.77759" lon="6.44514">
        <ele>703.6</ele>
        <time>2021-09-07T05:54:37.000Z</time>
      </trkpt>
      <trkpt lat="43.77763" lon="6.4451">
        <ele>703.2</ele>
        <time>2021-09-07T05:54:37.000Z</time>
      </trkpt>
      <trkpt lat="43.77774" lon="6.44501">
        <ele>703.4</ele>
        <time>2021-09-07T05:54:42.000Z</time>
      </trkpt>
      <trkpt lat="43.77777" lon="6.44499">
        <ele>703.7</ele>
        <time>2021-09-07T05:54:42.000Z</time>
      </trkpt>
      <trkpt lat="43.77778" lon="6.44499">
        <ele>704</ele>
        <time>2021-09-07T05:54:44.000Z</time>
      </trkpt>
      <trkpt lat="43.77783" lon="6.44496">
        <ele>704.2</ele>
        <time>2021-09-07T05:54:44.000Z</time>
      </trkpt>
      <trkpt lat="43.77786" lon="6.44494">
        <ele>704.4</ele>
        <time>2021-09-07T05:54:45.000Z</time>
      </trkpt>
      <trkpt lat="43.77785" lon="6.44495">
        <ele>704.4</ele>
        <time>2021-09-07T05:54:46.000Z</time>
      </trkpt>
      <trkpt lat="43.77788" lon="6.44493">
        <ele>704.4</ele>
        <time>2021-09-07T05:54:47.000Z</time>
      </trkpt>
      <trkpt lat="43.77802" lon="6.44486">
        <ele>705.6</ele>
        <time>2021-09-07T05:54:50.000Z</time>
      </trkpt>
      <trkpt lat="43.77805" lon="6.44486">
        <ele>705.4</ele>
        <time>2021-09-07T05:54:52.000Z</time>
      </trkpt>
      <trkpt lat="43.77823" lon="6.44479">
        <ele>706.2</ele>
        <time>2021-09-07T05:54:55.000Z</time>
      </trkpt>
      <trkpt lat="43.77826" lon="6.44477">
        <ele>706.6</ele>
        <time>2021-09-07T05:54:57.000Z</time>
      </trkpt>
      <trkpt lat="43.77832" lon="6.44476">
        <ele>706.8</ele>
        <time>2021-09-07T05:54:57.000Z</time>
      </trkpt>
      <trkpt lat="43.77836" lon="6.44475">
        <ele>707</ele>
        <time>2021-09-07T05:54:58.000Z</time>
      </trkpt>
      <trkpt lat="43.77835" lon="6.44475">
        <ele>706.9</ele>
        <time>2021-09-07T05:54:59.000Z</time>
      </trkpt>
      <trkpt lat="43.77841" lon="6.44474">
        <ele>706.8</ele>
        <time>2021-09-07T05:55:00.000Z</time>
      </trkpt>
      <trkpt lat="43.77861" lon="6.44469">
        <ele>707.7</ele>
        <time>2021-09-07T05:55:04.000Z</time>
      </trkpt>
      <trkpt lat="43.77865" lon="6.44469">
        <ele>707.8</ele>
        <time>2021-09-07T05:55:05.000Z</time>
      </trkpt>
      <trkpt lat="43.7786" lon="6.4447">
        <ele>707.7</ele>
        <time>2021-09-07T05:55:05.000Z</time>
      </trkpt>
      <trkpt lat="43.77864" lon="6.44469">
        <ele>707.8</ele>
        <time>2021-09-07T05:55:06.000Z</time>
      </trkpt>
      <trkpt lat="43.77868" lon="6.44468">
        <ele>707.8</ele>
        <time>2021-09-07T05:55:07.000Z</time>
      </trkpt>
      <trkpt lat="43.77872" lon="6.44468">
        <ele>708</ele>
        <time>2021-09-07T05:55:07.000Z</time>
      </trkpt>
      <trkpt lat="43.77875" lon="6.44467">
        <ele>708</ele>
        <time>2021-09-07T05:55:09.000Z</time>
      </trkpt>
      <trkpt lat="43.77883" lon="6.44463">
        <ele>708.5</ele>
        <time>2021-09-07T05:55:10.000Z</time>
      </trkpt>
      <trkpt lat="43.77886" lon="6.44462">
        <ele>708.7</ele>
        <time>2021-09-07T05:55:12.000Z</time>
      </trkpt>
      <trkpt lat="43.77894" lon="6.44458">
        <ele>709.3</ele>
        <time>2021-09-07T05:55:13.000Z</time>
      </trkpt>
      <trkpt lat="43.77897" lon="6.44456">
        <ele>709.3</ele>
        <time>2021-09-07T05:55:15.000Z</time>
      </trkpt>
      <trkpt lat="43.77901" lon="6.44455">
        <ele>709.3</ele>
        <time>2021-09-07T05:55:15.000Z</time>
      </trkpt>
      <trkpt lat="43.77904" lon="6.44453">
        <ele>709.4</ele>
        <time>2021-09-07T05:55:17.000Z</time>
      </trkpt>
      <trkpt lat="43.77912" lon="6.44451">
        <ele>709.6</ele>
        <time>2021-09-07T05:55:18.000Z</time>
      </trkpt>
      <trkpt lat="43.77913" lon="6.44451">
        <ele>709.6</ele>
        <time>2021-09-07T05:55:20.000Z</time>
      </trkpt>
      <trkpt lat="43.7792" lon="6.44452">
        <ele>710.3</ele>
        <time>2021-09-07T05:55:20.000Z</time>
      </trkpt>
      <trkpt lat="43.77924" lon="6.44454">
        <ele>710.5</ele>
        <time>2021-09-07T05:55:21.000Z</time>
      </trkpt>
      <trkpt lat="43.77927" lon="6.44458">
        <ele>710.7</ele>
        <time>2021-09-07T05:55:22.000Z</time>
      </trkpt>
      <trkpt lat="43.77921" lon="6.44453">
        <ele>710.4</ele>
        <time>2021-09-07T05:55:22.000Z</time>
      </trkpt>
      <trkpt lat="43.77927" lon="6.44457">
        <ele>710.6</ele>
        <time>2021-09-07T05:55:23.000Z</time>
      </trkpt>
      <trkpt lat="43.7793" lon="6.44462">
        <ele>710.8</ele>
        <time>2021-09-07T05:55:24.000Z</time>
      </trkpt>
      <trkpt lat="43.77932" lon="6.44469">
        <ele>710.9</ele>
        <time>2021-09-07T05:55:24.000Z</time>
      </trkpt>
      <trkpt lat="43.77932" lon="6.44474">
        <ele>711.2</ele>
        <time>2021-09-07T05:55:25.000Z</time>
      </trkpt>
      <trkpt lat="43.77932" lon="6.44472">
        <ele>711.1</ele>
        <time>2021-09-07T05:55:26.000Z</time>
      </trkpt>
      <trkpt lat="43.77933" lon="6.44479">
        <ele>711.5</ele>
        <time>2021-09-07T05:55:27.000Z</time>
      </trkpt>
      <trkpt lat="43.77933" lon="6.44485">
        <ele>711.5</ele>
        <time>2021-09-07T05:55:27.000Z</time>
      </trkpt>
      <trkpt lat="43.77933" lon="6.44491">
        <ele>711.8</ele>
        <time>2021-09-07T05:55:29.000Z</time>
      </trkpt>
      <trkpt lat="43.77935" lon="6.44511">
        <ele>712.2</ele>
        <time>2021-09-07T05:55:32.000Z</time>
      </trkpt>
      <trkpt lat="43.77935" lon="6.44513">
        <ele>711.9</ele>
        <time>2021-09-07T05:55:34.000Z</time>
      </trkpt>
      <trkpt lat="43.77947" lon="6.44529">
        <ele>713</ele>
        <time>2021-09-07T05:55:37.000Z</time>
      </trkpt>
      <trkpt lat="43.77951" lon="6.4453">
        <ele>713.2</ele>
        <time>2021-09-07T05:55:38.000Z</time>
      </trkpt>
      <trkpt lat="43.77955" lon="6.44532">
        <ele>713.2</ele>
        <time>2021-09-07T05:55:39.000Z</time>
      </trkpt>
      <trkpt lat="43.77949" lon="6.4453">
        <ele>713.1</ele>
        <time>2021-09-07T05:55:39.000Z</time>
      </trkpt>
      <trkpt lat="43.77959" lon="6.44533">
        <ele>713.5</ele>
        <time>2021-09-07T05:55:40.000Z</time>
      </trkpt>
      <trkpt lat="43.77954" lon="6.44531">
        <ele>713.2</ele>
        <time>2021-09-07T05:55:40.000Z</time>
      </trkpt>
      <trkpt lat="43.77958" lon="6.44532">
        <ele>713.4</ele>
        <time>2021-09-07T05:55:41.000Z</time>
      </trkpt>
      <trkpt lat="43.77961" lon="6.44534">
        <ele>713.7</ele>
        <time>2021-09-07T05:55:42.000Z</time>
      </trkpt>
      <trkpt lat="43.77968" lon="6.44536">
        <ele>714</ele>
        <time>2021-09-07T05:55:43.000Z</time>
      </trkpt>
      <trkpt lat="43.77971" lon="6.44536">
        <ele>714.1</ele>
        <time>2021-09-07T05:55:45.000Z</time>
      </trkpt>
      <trkpt lat="43.77983" lon="6.44534">
        <ele>714.7</ele>
        <time>2021-09-07T05:55:48.000Z</time>
      </trkpt>
      <trkpt lat="43.77986" lon="6.44531">
        <ele>714.7</ele>
        <time>2021-09-07T05:55:49.000Z</time>
      </trkpt>
      <trkpt lat="43.77985" lon="6.44532">
        <ele>714.7</ele>
        <time>2021-09-07T05:55:50.000Z</time>
      </trkpt>
      <trkpt lat="43.77989" lon="6.44528">
        <ele>715.1</ele>
        <time>2021-09-07T05:55:51.000Z</time>
      </trkpt>
      <trkpt lat="43.77992" lon="6.44524">
        <ele>715.6</ele>
        <time>2021-09-07T05:55:51.000Z</time>
      </trkpt>
      <trkpt lat="43.77995" lon="6.44521">
        <ele>715.5</ele>
        <time>2021-09-07T05:55:52.000Z</time>
      </trkpt>
      <trkpt lat="43.77997" lon="6.44517">
        <ele>715.8</ele>
        <time>2021-09-07T05:55:53.000Z</time>
      </trkpt>
      <trkpt lat="43.77993" lon="6.44522">
        <ele>715.5</ele>
        <time>2021-09-07T05:55:53.000Z</time>
      </trkpt>
      <trkpt lat="43.78001" lon="6.44512">
        <ele>715.8</ele>
        <time>2021-09-07T05:55:54.000Z</time>
      </trkpt>
      <trkpt lat="43.77996" lon="6.44519">
        <ele>715.6</ele>
        <time>2021-09-07T05:55:54.000Z</time>
      </trkpt>
      <trkpt lat="43.78" lon="6.44514">
        <ele>715.8</ele>
        <time>2021-09-07T05:55:55.000Z</time>
      </trkpt>
      <trkpt lat="43.78003" lon="6.44508">
        <ele>715.8</ele>
        <time>2021-09-07T05:55:56.000Z</time>
      </trkpt>
      <trkpt lat="43.78006" lon="6.44503">
        <ele>715.9</ele>
        <time>2021-09-07T05:55:56.000Z</time>
      </trkpt>
      <trkpt lat="43.78009" lon="6.44499">
        <ele>716.4</ele>
        <time>2021-09-07T05:55:57.000Z</time>
      </trkpt>
      <trkpt lat="43.78008" lon="6.44501">
        <ele>716.1</ele>
        <time>2021-09-07T05:55:58.000Z</time>
      </trkpt>
      <trkpt lat="43.78009" lon="6.44498">
        <ele>716.5</ele>
        <time>2021-09-07T05:55:59.000Z</time>
      </trkpt>
      <trkpt lat="43.7802" lon="6.44482">
        <ele>717</ele>
        <time>2021-09-07T05:56:01.000Z</time>
      </trkpt>
      <trkpt lat="43.78021" lon="6.44479">
        <ele>717.3</ele>
        <time>2021-09-07T05:56:03.000Z</time>
      </trkpt>
      <trkpt lat="43.78025" lon="6.44474">
        <ele>717.4</ele>
        <time>2021-09-07T05:56:03.000Z</time>
      </trkpt>
      <trkpt lat="43.78027" lon="6.4447">
        <ele>717.6</ele>
        <time>2021-09-07T05:56:04.000Z</time>
      </trkpt>
      <trkpt lat="43.78026" lon="6.44472">
        <ele>717.5</ele>
        <time>2021-09-07T05:56:05.000Z</time>
      </trkpt>
      <trkpt lat="43.78028" lon="6.44469">
        <ele>717.7</ele>
        <time>2021-09-07T05:56:06.000Z</time>
      </trkpt>
      <trkpt lat="43.78033" lon="6.44462">
        <ele>717.8</ele>
        <time>2021-09-07T05:56:06.000Z</time>
      </trkpt>
      <trkpt lat="43.78037" lon="6.44458">
        <ele>717.9</ele>
        <time>2021-09-07T05:56:07.000Z</time>
      </trkpt>
      <trkpt lat="43.78047" lon="6.44449">
        <ele>718.4</ele>
        <time>2021-09-07T05:56:12.000Z</time>
      </trkpt>
      <trkpt lat="43.78053" lon="6.44446">
        <ele>718.7</ele>
        <time>2021-09-07T05:56:12.000Z</time>
      </trkpt>
      <trkpt lat="43.78056" lon="6.44446">
        <ele>718.8</ele>
        <time>2021-09-07T05:56:14.000Z</time>
      </trkpt>
      <trkpt lat="43.78064" lon="6.44446">
        <ele>719.4</ele>
        <time>2021-09-07T05:56:15.000Z</time>
      </trkpt>
      <trkpt lat="43.78066" lon="6.44445">
        <ele>719.5</ele>
        <time>2021-09-07T05:56:17.000Z</time>
      </trkpt>
      <trkpt lat="43.7808" lon="6.4445">
        <ele>720.7</ele>
        <time>2021-09-07T05:56:21.000Z</time>
      </trkpt>
      <trkpt lat="43.78082" lon="6.44452">
        <ele>720.6</ele>
        <time>2021-09-07T05:56:22.000Z</time>
      </trkpt>
      <trkpt lat="43.78079" lon="6.44449">
        <ele>720.6</ele>
        <time>2021-09-07T05:56:22.000Z</time>
      </trkpt>
      <trkpt lat="43.78082" lon="6.44451">
        <ele>720.6</ele>
        <time>2021-09-07T05:56:23.000Z</time>
      </trkpt>
      <trkpt lat="43.78084" lon="6.44454">
        <ele>720.8</ele>
        <time>2021-09-07T05:56:24.000Z</time>
      </trkpt>
      <trkpt lat="43.78093" lon="6.4446">
        <ele>721.3</ele>
        <time>2021-09-07T05:56:26.000Z</time>
      </trkpt>
      <trkpt lat="43.78096" lon="6.44462">
        <ele>721.5</ele>
        <time>2021-09-07T05:56:27.000Z</time>
      </trkpt>
      <trkpt lat="43.78104" lon="6.44467">
        <ele>722.5</ele>
        <time>2021-09-07T05:56:30.000Z</time>
      </trkpt>
      <trkpt lat="43.78107" lon="6.44469">
        <ele>722.5</ele>
        <time>2021-09-07T05:56:31.000Z</time>
      </trkpt>
      <trkpt lat="43.7811" lon="6.44471">
        <ele>722.8</ele>
        <time>2021-09-07T05:56:32.000Z</time>
      </trkpt>
      <trkpt lat="43.78106" lon="6.44468">
        <ele>722.5</ele>
        <time>2021-09-07T05:56:32.000Z</time>
      </trkpt>
      <trkpt lat="43.78109" lon="6.4447">
        <ele>722.7</ele>
        <time>2021-09-07T05:56:33.000Z</time>
      </trkpt>
      <trkpt lat="43.78113" lon="6.44473">
        <ele>722.9</ele>
        <time>2021-09-07T05:56:33.000Z</time>
      </trkpt>
      <trkpt lat="43.78122" lon="6.4448">
        <ele>722.9</ele>
        <time>2021-09-07T05:56:36.000Z</time>
      </trkpt>
      <trkpt lat="43.78123" lon="6.44481">
        <ele>723</ele>
        <time>2021-09-07T05:56:38.000Z</time>
      </trkpt>
      <trkpt lat="43.78135" lon="6.44489">
        <ele>723.5</ele>
        <time>2021-09-07T05:56:41.000Z</time>
      </trkpt>
      <trkpt lat="43.78138" lon="6.4449">
        <ele>723.6</ele>
        <time>2021-09-07T05:56:42.000Z</time>
      </trkpt>
      <trkpt lat="43.78137" lon="6.4449">
        <ele>723.5</ele>
        <time>2021-09-07T05:56:43.000Z</time>
      </trkpt>
      <trkpt lat="43.7814" lon="6.44492">
        <ele>723.7</ele>
        <time>2021-09-07T05:56:43.000Z</time>
      </trkpt>
      <trkpt lat="43.78149" lon="6.44497">
        <ele>723.8</ele>
        <time>2021-09-07T05:56:46.000Z</time>
      </trkpt>
      <trkpt lat="43.78152" lon="6.44499">
        <ele>724</ele>
        <time>2021-09-07T05:56:47.000Z</time>
      </trkpt>
      <trkpt lat="43.7815" lon="6.44498">
        <ele>724</ele>
        <time>2021-09-07T05:56:48.000Z</time>
      </trkpt>
      <trkpt lat="43.78155" lon="6.44501">
        <ele>724.2</ele>
        <time>2021-09-07T05:56:48.000Z</time>
      </trkpt>
      <trkpt lat="43.78165" lon="6.44505">
        <ele>724.3</ele>
        <time>2021-09-07T05:56:53.000Z</time>
      </trkpt>
      <trkpt lat="43.78169" lon="6.44507">
        <ele>724.3</ele>
        <time>2021-09-07T05:56:53.000Z</time>
      </trkpt>
      <trkpt lat="43.78173" lon="6.44508">
        <ele>724.3</ele>
        <time>2021-09-07T05:56:54.000Z</time>
      </trkpt>
      <trkpt lat="43.78172" lon="6.44508">
        <ele>724.3</ele>
        <time>2021-09-07T05:56:55.000Z</time>
      </trkpt>
      <trkpt lat="43.78175" lon="6.44509">
        <ele>724.3</ele>
        <time>2021-09-07T05:56:56.000Z</time>
      </trkpt>
      <trkpt lat="43.78179" lon="6.44511">
        <ele>724.2</ele>
        <time>2021-09-07T05:56:56.000Z</time>
      </trkpt>
      <trkpt lat="43.78182" lon="6.44512">
        <ele>724.1</ele>
        <time>2021-09-07T05:56:58.000Z</time>
      </trkpt>
      <trkpt lat="43.78186" lon="6.44514">
        <ele>723.9</ele>
        <time>2021-09-07T05:56:58.000Z</time>
      </trkpt>
      <trkpt lat="43.7819" lon="6.44516">
        <ele>724.5</ele>
        <time>2021-09-07T05:56:59.000Z</time>
      </trkpt>
      <trkpt lat="43.78189" lon="6.44515">
        <ele>724.3</ele>
        <time>2021-09-07T05:57:00.000Z</time>
      </trkpt>
      <trkpt lat="43.78193" lon="6.44517">
        <ele>724.2</ele>
        <time>2021-09-07T05:57:01.000Z</time>
      </trkpt>
      <trkpt lat="43.78205" lon="6.44522">
        <ele>723.8</ele>
        <time>2021-09-07T05:57:03.000Z</time>
      </trkpt>
      <trkpt lat="43.78208" lon="6.44524">
        <ele>723.9</ele>
        <time>2021-09-07T05:57:05.000Z</time>
      </trkpt>
      <trkpt lat="43.78212" lon="6.44526">
        <ele>724</ele>
        <time>2021-09-07T05:57:05.000Z</time>
      </trkpt>
      <trkpt lat="43.78214" lon="6.44527">
        <ele>723.9</ele>
        <time>2021-09-07T05:57:07.000Z</time>
      </trkpt>
      <trkpt lat="43.78222" lon="6.44531">
        <ele>724.2</ele>
        <time>2021-09-07T05:57:08.000Z</time>
      </trkpt>
      <trkpt lat="43.78225" lon="6.44531">
        <ele>724.1</ele>
        <time>2021-09-07T05:57:10.000Z</time>
      </trkpt>
      <trkpt lat="43.78235" lon="6.44534">
        <ele>723.4</ele>
        <time>2021-09-07T05:57:12.000Z</time>
      </trkpt>
      <trkpt lat="43.78239" lon="6.44535">
        <ele>723.3</ele>
        <time>2021-09-07T05:57:13.000Z</time>
      </trkpt>
      <trkpt lat="43.78242" lon="6.44536">
        <ele>723.2</ele>
        <time>2021-09-07T05:57:14.000Z</time>
      </trkpt>
      <trkpt lat="43.78245" lon="6.44537">
        <ele>723.1</ele>
        <time>2021-09-07T05:57:16.000Z</time>
      </trkpt>
      <trkpt lat="43.78255" lon="6.4454">
        <ele>723</ele>
        <time>2021-09-07T05:57:18.000Z</time>
      </trkpt>
      <trkpt lat="43.78259" lon="6.44541">
        <ele>723.1</ele>
        <time>2021-09-07T05:57:19.000Z</time>
      </trkpt>
      <trkpt lat="43.78262" lon="6.44542">
        <ele>722.7</ele>
        <time>2021-09-07T05:57:20.000Z</time>
      </trkpt>
      <trkpt lat="43.78257" lon="6.44541">
        <ele>723.1</ele>
        <time>2021-09-07T05:57:20.000Z</time>
      </trkpt>
      <trkpt lat="43.78261" lon="6.44542">
        <ele>722.9</ele>
        <time>2021-09-07T05:57:21.000Z</time>
      </trkpt>
      <trkpt lat="43.78266" lon="6.44543">
        <ele>722.4</ele>
        <time>2021-09-07T05:57:22.000Z</time>
      </trkpt>
      <trkpt lat="43.78271" lon="6.44543">
        <ele>723</ele>
        <time>2021-09-07T05:57:22.000Z</time>
      </trkpt>
      <trkpt lat="43.78278" lon="6.44543">
        <ele>722.9</ele>
        <time>2021-09-07T05:57:23.000Z</time>
      </trkpt>
      <trkpt lat="43.78274" lon="6.44543">
        <ele>723</ele>
        <time>2021-09-07T05:57:24.000Z</time>
      </trkpt>
      <trkpt lat="43.78283" lon="6.44543">
        <ele>722.7</ele>
        <time>2021-09-07T05:57:24.000Z</time>
      </trkpt>
      <trkpt lat="43.78308" lon="6.44543">
        <ele>722</ele>
        <time>2021-09-07T05:57:29.000Z</time>
      </trkpt>
      <trkpt lat="43.78337" lon="6.44549">
        <ele>721.3</ele>
        <time>2021-09-07T05:57:34.000Z</time>
      </trkpt>
      <trkpt lat="43.78365" lon="6.44559">
        <ele>720.7</ele>
        <time>2021-09-07T05:57:39.000Z</time>
      </trkpt>
      <trkpt lat="43.78392" lon="6.44568">
        <ele>719.8</ele>
        <time>2021-09-07T05:57:44.000Z</time>
      </trkpt>
      <trkpt lat="43.78417" lon="6.44574">
        <ele>719.9</ele>
        <time>2021-09-07T05:57:49.000Z</time>
      </trkpt>
      <trkpt lat="43.78444" lon="6.44578">
        <ele>719.6</ele>
        <time>2021-09-07T05:57:54.000Z</time>
      </trkpt>
      <trkpt lat="43.78472" lon="6.4458">
        <ele>719.2</ele>
        <time>2021-09-07T05:57:59.000Z</time>
      </trkpt>
      <trkpt lat="43.78501" lon="6.44581">
        <ele>719.9</ele>
        <time>2021-09-07T05:58:04.000Z</time>
      </trkpt>
      <trkpt lat="43.78525" lon="6.44578">
        <ele>720.3</ele>
        <time>2021-09-07T05:58:09.000Z</time>
      </trkpt>
      <trkpt lat="43.78546" lon="6.44561">
        <ele>720.3</ele>
        <time>2021-09-07T05:58:14.000Z</time>
      </trkpt>
      <trkpt lat="43.78561" lon="6.44529">
        <ele>720.2</ele>
        <time>2021-09-07T05:58:19.000Z</time>
      </trkpt>
      <trkpt lat="43.78565" lon="6.445">
        <ele>720.5</ele>
        <time>2021-09-07T05:58:24.000Z</time>
      </trkpt>
      <trkpt lat="43.78567" lon="6.44481">
        <ele>720.7</ele>
        <time>2021-09-07T05:58:29.000Z</time>
      </trkpt>
      <trkpt lat="43.78567" lon="6.44462">
        <ele>720.5</ele>
        <time>2021-09-07T05:58:34.000Z</time>
      </trkpt>
      <trkpt lat="43.78568" lon="6.44441">
        <ele>720.8</ele>
        <time>2021-09-07T05:58:39.000Z</time>
      </trkpt>
      <trkpt lat="43.78569" lon="6.44413">
        <ele>720.2</ele>
        <time>2021-09-07T05:58:44.000Z</time>
      </trkpt>
      <trkpt lat="43.78574" lon="6.44379">
        <ele>719.3</ele>
        <time>2021-09-07T05:58:49.000Z</time>
      </trkpt>
      <trkpt lat="43.78587" lon="6.44361">
        <ele>719</ele>
        <time>2021-09-07T05:58:54.000Z</time>
      </trkpt>
      <trkpt lat="43.78591" lon="6.44357">
        <ele>719.2</ele>
        <time>2021-09-07T05:58:54.000Z</time>
      </trkpt>
      <trkpt lat="43.78596" lon="6.44355">
        <ele>719.3</ele>
        <time>2021-09-07T05:58:55.000Z</time>
      </trkpt>
      <trkpt lat="43.78594" lon="6.44356">
        <ele>719.2</ele>
        <time>2021-09-07T05:58:56.000Z</time>
      </trkpt>
      <trkpt lat="43.78599" lon="6.44353">
        <ele>719.3</ele>
        <time>2021-09-07T05:58:57.000Z</time>
      </trkpt>
      <trkpt lat="43.78618" lon="6.44349">
        <ele>718.7</ele>
        <time>2021-09-07T05:59:00.000Z</time>
      </trkpt>
      <trkpt lat="43.78625" lon="6.44349">
        <ele>718.6</ele>
        <time>2021-09-07T05:59:01.000Z</time>
      </trkpt>
      <trkpt lat="43.78622" lon="6.44349">
        <ele>718.6</ele>
        <time>2021-09-07T05:59:02.000Z</time>
      </trkpt>
      <trkpt lat="43.7863" lon="6.44348">
        <ele>718.2</ele>
        <time>2021-09-07T05:59:02.000Z</time>
      </trkpt>
      <trkpt lat="43.78657" lon="6.44347">
        <ele>717.4</ele>
        <time>2021-09-07T05:59:07.000Z</time>
      </trkpt>
      <trkpt lat="43.78693" lon="6.44344">
        <ele>715.7</ele>
        <time>2021-09-07T05:59:12.000Z</time>
      </trkpt>
      <trkpt lat="43.78736" lon="6.44339">
        <ele>713.9</ele>
        <time>2021-09-07T05:59:17.000Z</time>
      </trkpt>
      <trkpt lat="43.7878" lon="6.44333">
        <ele>712.4</ele>
        <time>2021-09-07T05:59:22.000Z</time>
      </trkpt>
      <trkpt lat="43.78826" lon="6.44332">
        <ele>710.2</ele>
        <time>2021-09-07T05:59:27.000Z</time>
      </trkpt>
      <trkpt lat="43.78867" lon="6.44358">
        <ele>708.4</ele>
        <time>2021-09-07T05:59:32.000Z</time>
      </trkpt>
      <trkpt lat="43.78905" lon="6.44402">
        <ele>706.9</ele>
        <time>2021-09-07T05:59:37.000Z</time>
      </trkpt>
      <trkpt lat="43.78951" lon="6.44409">
        <ele>705.2</ele>
        <time>2021-09-07T05:59:42.000Z</time>
      </trkpt>
      <trkpt lat="43.79006" lon="6.4441">
        <ele>703.1</ele>
        <time>2021-09-07T05:59:47.000Z</time>
      </trkpt>
      <trkpt lat="43.79049" lon="6.44368">
        <ele>700</ele>
        <time>2021-09-07T05:59:52.000Z</time>
      </trkpt>
      <trkpt lat="43.79087" lon="6.44318">
        <ele>697.7</ele>
        <time>2021-09-07T05:59:57.000Z</time>
      </trkpt>
      <trkpt lat="43.79125" lon="6.44282">
        <ele>695.2</ele>
        <time>2021-09-07T06:00:02.000Z</time>
      </trkpt>
      <trkpt lat="43.79175" lon="6.44285">
        <ele>692.9</ele>
        <time>2021-09-07T06:00:07.000Z</time>
      </trkpt>
      <trkpt lat="43.79227" lon="6.44293">
        <ele>690.7</ele>
        <time>2021-09-07T06:00:12.000Z</time>
      </trkpt>
      <trkpt lat="43.7928" lon="6.44303">
        <ele>689.1</ele>
        <time>2021-09-07T06:00:17.000Z</time>
      </trkpt>
      <trkpt lat="43.79329" lon="6.44266">
        <ele>686.3</ele>
        <time>2021-09-07T06:00:22.000Z</time>
      </trkpt>
      <trkpt lat="43.7938" lon="6.44253">
        <ele>684.7</ele>
        <time>2021-09-07T06:00:27.000Z</time>
      </trkpt>
      <trkpt lat="43.79427" lon="6.44268">
        <ele>682.6</ele>
        <time>2021-09-07T06:00:32.000Z</time>
      </trkpt>
      <trkpt lat="43.79472" lon="6.44296">
        <ele>680.2</ele>
        <time>2021-09-07T06:00:37.000Z</time>
      </trkpt>
      <trkpt lat="43.79522" lon="6.44308">
        <ele>677.6</ele>
        <time>2021-09-07T06:00:42.000Z</time>
      </trkpt>
      <trkpt lat="43.79571" lon="6.4433">
        <ele>675.1</ele>
        <time>2021-09-07T06:00:47.000Z</time>
      </trkpt>
      <trkpt lat="43.79586" lon="6.44378">
        <ele>673.6</ele>
        <time>2021-09-07T06:00:52.000Z</time>
      </trkpt>
      <trkpt lat="43.79591" lon="6.44443">
        <ele>672.1</ele>
        <time>2021-09-07T06:00:57.000Z</time>
      </trkpt>
      <trkpt lat="43.79623" lon="6.44482">
        <ele>672.8</ele>
        <time>2021-09-07T06:01:02.000Z</time>
      </trkpt>
      <trkpt lat="43.79665" lon="6.44456">
        <ele>671.6</ele>
        <time>2021-09-07T06:01:07.000Z</time>
      </trkpt>
      <trkpt lat="43.797" lon="6.44407">
        <ele>670.6</ele>
        <time>2021-09-07T06:01:12.000Z</time>
      </trkpt>
      <trkpt lat="43.79736" lon="6.44363">
        <ele>668.7</ele>
        <time>2021-09-07T06:01:17.000Z</time>
      </trkpt>
      <trkpt lat="43.79774" lon="6.44337">
        <ele>667.3</ele>
        <time>2021-09-07T06:01:22.000Z</time>
      </trkpt>
      <trkpt lat="43.79803" lon="6.44296">
        <ele>665.9</ele>
        <time>2021-09-07T06:01:27.000Z</time>
      </trkpt>
      <trkpt lat="43.79804" lon="6.44241">
        <ele>665</ele>
        <time>2021-09-07T06:01:32.000Z</time>
      </trkpt>
      <trkpt lat="43.79792" lon="6.44185">
        <ele>663.6</ele>
        <time>2021-09-07T06:01:37.000Z</time>
      </trkpt>
      <trkpt lat="43.7983" lon="6.44152">
        <ele>661.8</ele>
        <time>2021-09-07T06:01:42.000Z</time>
      </trkpt>
      <trkpt lat="43.79876" lon="6.44147">
        <ele>661.4</ele>
        <time>2021-09-07T06:01:47.000Z</time>
      </trkpt>
      <trkpt lat="43.79918" lon="6.44138">
        <ele>660.2</ele>
        <time>2021-09-07T06:01:52.000Z</time>
      </trkpt>
      <trkpt lat="43.79955" lon="6.44115">
        <ele>659.1</ele>
        <time>2021-09-07T06:01:57.000Z</time>
      </trkpt>
      <trkpt lat="43.79995" lon="6.44118">
        <ele>658.6</ele>
        <time>2021-09-07T06:02:02.000Z</time>
      </trkpt>
      <trkpt lat="43.80022" lon="6.44076">
        <ele>657.5</ele>
        <time>2021-09-07T06:02:07.000Z</time>
      </trkpt>
      <trkpt lat="43.80033" lon="6.44017">
        <ele>655.7</ele>
        <time>2021-09-07T06:02:12.000Z</time>
      </trkpt>
      <trkpt lat="43.80072" lon="6.43985">
        <ele>654.6</ele>
        <time>2021-09-07T06:02:17.000Z</time>
      </trkpt>
      <trkpt lat="43.80119" lon="6.43981">
        <ele>653.8</ele>
        <time>2021-09-07T06:02:22.000Z</time>
      </trkpt>
      <trkpt lat="43.80165" lon="6.43984">
        <ele>653.5</ele>
        <time>2021-09-07T06:02:27.000Z</time>
      </trkpt>
      <trkpt lat="43.80203" lon="6.43962">
        <ele>653.4</ele>
        <time>2021-09-07T06:02:32.000Z</time>
      </trkpt>
      <trkpt lat="43.80232" lon="6.43933">
        <ele>652.7</ele>
        <time>2021-09-07T06:02:37.000Z</time>
      </trkpt>
      <trkpt lat="43.80259" lon="6.43911">
        <ele>652.9</ele>
        <time>2021-09-07T06:02:42.000Z</time>
      </trkpt>
      <trkpt lat="43.80291" lon="6.43907">
        <ele>652.1</ele>
        <time>2021-09-07T06:02:47.000Z</time>
      </trkpt>
      <trkpt lat="43.80329" lon="6.43938">
        <ele>651.6</ele>
        <time>2021-09-07T06:02:52.000Z</time>
      </trkpt>
      <trkpt lat="43.80363" lon="6.43982">
        <ele>649.9</ele>
        <time>2021-09-07T06:02:57.000Z</time>
      </trkpt>
      <trkpt lat="43.80381" lon="6.44033">
        <ele>649.1</ele>
        <time>2021-09-07T06:03:02.000Z</time>
      </trkpt>
      <trkpt lat="43.80377" lon="6.44086">
        <ele>649.1</ele>
        <time>2021-09-07T06:03:07.000Z</time>
      </trkpt>
      <trkpt lat="43.80382" lon="6.44134">
        <ele>648.2</ele>
        <time>2021-09-07T06:03:12.000Z</time>
      </trkpt>
      <trkpt lat="43.80389" lon="6.44181">
        <ele>648.5</ele>
        <time>2021-09-07T06:03:17.000Z</time>
      </trkpt>
      <trkpt lat="43.80402" lon="6.4422">
        <ele>648</ele>
        <time>2021-09-07T06:03:22.000Z</time>
      </trkpt>
      <trkpt lat="43.80431" lon="6.44226">
        <ele>648.4</ele>
        <time>2021-09-07T06:03:27.000Z</time>
      </trkpt>
      <trkpt lat="43.80463" lon="6.44217">
        <ele>649</ele>
        <time>2021-09-07T06:03:32.000Z</time>
      </trkpt>
      <trkpt lat="43.80492" lon="6.4421">
        <ele>649.1</ele>
        <time>2021-09-07T06:03:37.000Z</time>
      </trkpt>
      <trkpt lat="43.80518" lon="6.44191">
        <ele>649.5</ele>
        <time>2021-09-07T06:03:42.000Z</time>
      </trkpt>
      <trkpt lat="43.80541" lon="6.4417">
        <ele>649.4</ele>
        <time>2021-09-07T06:03:47.000Z</time>
      </trkpt>
      <trkpt lat="43.80559" lon="6.44138">
        <ele>649.6</ele>
        <time>2021-09-07T06:03:52.000Z</time>
      </trkpt>
      <trkpt lat="43.80563" lon="6.44089">
        <ele>649.4</ele>
        <time>2021-09-07T06:03:57.000Z</time>
      </trkpt>
      <trkpt lat="43.80566" lon="6.44053">
        <ele>649.3</ele>
        <time>2021-09-07T06:04:02.000Z</time>
      </trkpt>
      <trkpt lat="43.80571" lon="6.44022">
        <ele>649</ele>
        <time>2021-09-07T06:04:07.000Z</time>
      </trkpt>
      <trkpt lat="43.80569" lon="6.44002">
        <ele>648.8</ele>
        <time>2021-09-07T06:04:12.000Z</time>
      </trkpt>
      <trkpt lat="43.80548" lon="6.4401">
        <ele>648.1</ele>
        <time>2021-09-07T06:04:17.000Z</time>
      </trkpt>
      <trkpt lat="43.80525" lon="6.44033">
        <ele>647.7</ele>
        <time>2021-09-07T06:04:22.000Z</time>
      </trkpt>
      <trkpt lat="43.80508" lon="6.44064">
        <ele>647.9</ele>
        <time>2021-09-07T06:04:27.000Z</time>
      </trkpt>
      <trkpt lat="43.80482" lon="6.4409">
        <ele>648</ele>
        <time>2021-09-07T06:04:32.000Z</time>
      </trkpt>
      <trkpt lat="43.80453" lon="6.441">
        <ele>647.6</ele>
        <time>2021-09-07T06:04:37.000Z</time>
      </trkpt>
      <trkpt lat="43.80432" lon="6.44062">
        <ele>647.8</ele>
        <time>2021-09-07T06:04:42.000Z</time>
      </trkpt>
      <trkpt lat="43.80433" lon="6.4402">
        <ele>647.9</ele>
        <time>2021-09-07T06:04:47.000Z</time>
      </trkpt>
      <trkpt lat="43.80437" lon="6.4398">
        <ele>647.9</ele>
        <time>2021-09-07T06:04:52.000Z</time>
      </trkpt>
      <trkpt lat="43.80439" lon="6.43939">
        <ele>647.7</ele>
        <time>2021-09-07T06:04:57.000Z</time>
      </trkpt>
      <trkpt lat="43.80436" lon="6.439">
        <ele>647.9</ele>
        <time>2021-09-07T06:05:02.000Z</time>
      </trkpt>
      <trkpt lat="43.80427" lon="6.4386">
        <ele>647.9</ele>
        <time>2021-09-07T06:05:07.000Z</time>
      </trkpt>
      <trkpt lat="43.80398" lon="6.43836">
        <ele>648</ele>
        <time>2021-09-07T06:05:12.000Z</time>
      </trkpt>
      <trkpt lat="43.80366" lon="6.43822">
        <ele>647.7</ele>
        <time>2021-09-07T06:05:17.000Z</time>
      </trkpt>
      <trkpt lat="43.80339" lon="6.43798">
        <ele>647.6</ele>
        <time>2021-09-07T06:05:22.000Z</time>
      </trkpt>
      <trkpt lat="43.80309" lon="6.43783">
        <ele>647.2</ele>
        <time>2021-09-07T06:05:27.000Z</time>
      </trkpt>
      <trkpt lat="43.80277" lon="6.43773">
        <ele>647.3</ele>
        <time>2021-09-07T06:05:32.000Z</time>
      </trkpt>
      <trkpt lat="43.80244" lon="6.43774">
        <ele>647.4</ele>
        <time>2021-09-07T06:05:37.000Z</time>
      </trkpt>
      <trkpt lat="43.80215" lon="6.43784">
        <ele>647.4</ele>
        <time>2021-09-07T06:05:42.000Z</time>
      </trkpt>
      <trkpt lat="43.80184" lon="6.4379">
        <ele>647</ele>
        <time>2021-09-07T06:05:47.000Z</time>
      </trkpt>
      <trkpt lat="43.80154" lon="6.43791">
        <ele>647.3</ele>
        <time>2021-09-07T06:05:52.000Z</time>
      </trkpt>
      <trkpt lat="43.80118" lon="6.43795">
        <ele>647.2</ele>
        <time>2021-09-07T06:05:57.000Z</time>
      </trkpt>
      <trkpt lat="43.80083" lon="6.4381">
        <ele>647.6</ele>
        <time>2021-09-07T06:06:02.000Z</time>
      </trkpt>
      <trkpt lat="43.80053" lon="6.43828">
        <ele>647.2</ele>
        <time>2021-09-07T06:06:07.000Z</time>
      </trkpt>
      <trkpt lat="43.80024" lon="6.43841">
        <ele>647.4</ele>
        <time>2021-09-07T06:06:12.000Z</time>
      </trkpt>
      <trkpt lat="43.79996" lon="6.43832">
        <ele>647.1</ele>
        <time>2021-09-07T06:06:17.000Z</time>
      </trkpt>
      <trkpt lat="43.7997" lon="6.43803">
        <ele>646.6</ele>
        <time>2021-09-07T06:06:22.000Z</time>
      </trkpt>
      <trkpt lat="43.79939" lon="6.43785">
        <ele>646.7</ele>
        <time>2021-09-07T06:06:27.000Z</time>
      </trkpt>
      <trkpt lat="43.79905" lon="6.43794">
        <ele>647</ele>
        <time>2021-09-07T06:06:32.000Z</time>
      </trkpt>
      <trkpt lat="43.79871" lon="6.43806">
        <ele>646.5</ele>
        <time>2021-09-07T06:06:37.000Z</time>
      </trkpt>
      <trkpt lat="43.79838" lon="6.43817">
        <ele>647</ele>
        <time>2021-09-07T06:06:42.000Z</time>
      </trkpt>
      <trkpt lat="43.79806" lon="6.43825">
        <ele>647</ele>
        <time>2021-09-07T06:06:47.000Z</time>
      </trkpt>
      <trkpt lat="43.79773" lon="6.43832">
        <ele>646.4</ele>
        <time>2021-09-07T06:06:52.000Z</time>
      </trkpt>
      <trkpt lat="43.79741" lon="6.43839">
        <ele>646.5</ele>
        <time>2021-09-07T06:06:57.000Z</time>
      </trkpt>
      <trkpt lat="43.79707" lon="6.43843">
        <ele>646.6</ele>
        <time>2021-09-07T06:07:02.000Z</time>
      </trkpt>
      <trkpt lat="43.79675" lon="6.43838">
        <ele>645.8</ele>
        <time>2021-09-07T06:07:07.000Z</time>
      </trkpt>
      <trkpt lat="43.79648" lon="6.43815">
        <ele>645.5</ele>
        <time>2021-09-07T06:07:12.000Z</time>
      </trkpt>
      <trkpt lat="43.79624" lon="6.43791">
        <ele>644.9</ele>
        <time>2021-09-07T06:07:17.000Z</time>
      </trkpt>
      <trkpt lat="43.7961" lon="6.43751">
        <ele>644.3</ele>
        <time>2021-09-07T06:07:22.000Z</time>
      </trkpt>
      <trkpt lat="43.79599" lon="6.43708">
        <ele>643.8</ele>
        <time>2021-09-07T06:07:27.000Z</time>
      </trkpt>
      <trkpt lat="43.79583" lon="6.43663">
        <ele>643</ele>
        <time>2021-09-07T06:07:32.000Z</time>
      </trkpt>
      <trkpt lat="43.79561" lon="6.43629">
        <ele>642.7</ele>
        <time>2021-09-07T06:07:37.000Z</time>
      </trkpt>
      <trkpt lat="43.79534" lon="6.43598">
        <ele>642.5</ele>
        <time>2021-09-07T06:07:42.000Z</time>
      </trkpt>
      <trkpt lat="43.79502" lon="6.43572">
        <ele>641.9</ele>
        <time>2021-09-07T06:07:47.000Z</time>
      </trkpt>
      <trkpt lat="43.79474" lon="6.43542">
        <ele>641.1</ele>
        <time>2021-09-07T06:07:52.000Z</time>
      </trkpt>
      <trkpt lat="43.79447" lon="6.43509">
        <ele>640.3</ele>
        <time>2021-09-07T06:07:57.000Z</time>
      </trkpt>
      <trkpt lat="43.79422" lon="6.43474">
        <ele>639.6</ele>
        <time>2021-09-07T06:08:02.000Z</time>
      </trkpt>
      <trkpt lat="43.79399" lon="6.43434">
        <ele>639</ele>
        <time>2021-09-07T06:08:07.000Z</time>
      </trkpt>
      <trkpt lat="43.79386" lon="6.43387">
        <ele>639</ele>
        <time>2021-09-07T06:08:12.000Z</time>
      </trkpt>
      <trkpt lat="43.79359" lon="6.43364">
        <ele>638.3</ele>
        <time>2021-09-07T06:08:17.000Z</time>
      </trkpt>
      <trkpt lat="43.79322" lon="6.43371">
        <ele>638</ele>
        <time>2021-09-07T06:08:22.000Z</time>
      </trkpt>
      <trkpt lat="43.79291" lon="6.43348">
        <ele>637.7</ele>
        <time>2021-09-07T06:08:27.000Z</time>
      </trkpt>
      <trkpt lat="43.7926" lon="6.43323">
        <ele>636.4</ele>
        <time>2021-09-07T06:08:32.000Z</time>
      </trkpt>
      <trkpt lat="43.79245" lon="6.43278">
        <ele>635.2</ele>
        <time>2021-09-07T06:08:37.000Z</time>
      </trkpt>
      <trkpt lat="43.79218" lon="6.43241">
        <ele>634.8</ele>
        <time>2021-09-07T06:08:42.000Z</time>
      </trkpt>
      <trkpt lat="43.79226" lon="6.43185">
        <ele>634.2</ele>
        <time>2021-09-07T06:08:47.000Z</time>
      </trkpt>
      <trkpt lat="43.79253" lon="6.43145">
        <ele>634.2</ele>
        <time>2021-09-07T06:08:52.000Z</time>
      </trkpt>
      <trkpt lat="43.79267" lon="6.43102">
        <ele>634</ele>
        <time>2021-09-07T06:08:57.000Z</time>
      </trkpt>
      <trkpt lat="43.79248" lon="6.43059">
        <ele>633.8</ele>
        <time>2021-09-07T06:09:02.000Z</time>
      </trkpt>
      <trkpt lat="43.79232" lon="6.43016">
        <ele>633.7</ele>
        <time>2021-09-07T06:09:07.000Z</time>
      </trkpt>
      <trkpt lat="43.79213" lon="6.42978">
        <ele>633.5</ele>
        <time>2021-09-07T06:09:12.000Z</time>
      </trkpt>
      <trkpt lat="43.79191" lon="6.42944">
        <ele>633.6</ele>
        <time>2021-09-07T06:09:17.000Z</time>
      </trkpt>
      <trkpt lat="43.79165" lon="6.42917">
        <ele>633.7</ele>
        <time>2021-09-07T06:09:22.000Z</time>
      </trkpt>
      <trkpt lat="43.79153" lon="6.42876">
        <ele>633.8</ele>
        <time>2021-09-07T06:09:27.000Z</time>
      </trkpt>
      <trkpt lat="43.79161" lon="6.42826">
        <ele>633.8</ele>
        <time>2021-09-07T06:09:32.000Z</time>
      </trkpt>
      <trkpt lat="43.79167" lon="6.42784">
        <ele>633.6</ele>
        <time>2021-09-07T06:09:37.000Z</time>
      </trkpt>
      <trkpt lat="43.79157" lon="6.4274">
        <ele>634</ele>
        <time>2021-09-07T06:09:42.000Z</time>
      </trkpt>
      <trkpt lat="43.79141" lon="6.42696">
        <ele>633.8</ele>
        <time>2021-09-07T06:09:47.000Z</time>
      </trkpt>
      <trkpt lat="43.79138" lon="6.42647">
        <ele>634</ele>
        <time>2021-09-07T06:09:52.000Z</time>
      </trkpt>
      <trkpt lat="43.79126" lon="6.42603">
        <ele>634.3</ele>
        <time>2021-09-07T06:09:57.000Z</time>
      </trkpt>
      <trkpt lat="43.79119" lon="6.42557">
        <ele>634.2</ele>
        <time>2021-09-07T06:10:02.000Z</time>
      </trkpt>
      <trkpt lat="43.79107" lon="6.42515">
        <ele>634.8</ele>
        <time>2021-09-07T06:10:07.000Z</time>
      </trkpt>
      <trkpt lat="43.79095" lon="6.42475">
        <ele>635.3</ele>
        <time>2021-09-07T06:10:12.000Z</time>
      </trkpt>
      <trkpt lat="43.79089" lon="6.42429">
        <ele>636.2</ele>
        <time>2021-09-07T06:10:17.000Z</time>
      </trkpt>
      <trkpt lat="43.79096" lon="6.42386">
        <ele>637.2</ele>
        <time>2021-09-07T06:10:22.000Z</time>
      </trkpt>
      <trkpt lat="43.79122" lon="6.42352">
        <ele>637.9</ele>
        <time>2021-09-07T06:10:27.000Z</time>
      </trkpt>
      <trkpt lat="43.79149" lon="6.42325">
        <ele>638.6</ele>
        <time>2021-09-07T06:10:32.000Z</time>
      </trkpt>
      <trkpt lat="43.79165" lon="6.42298">
        <ele>639.7</ele>
        <time>2021-09-07T06:10:37.000Z</time>
      </trkpt>
      <trkpt lat="43.7918" lon="6.42284">
        <ele>640.8</ele>
        <time>2021-09-07T06:10:42.000Z</time>
      </trkpt>
      <trkpt lat="43.79189" lon="6.42274">
        <ele>641.7</ele>
        <time>2021-09-07T06:10:46.000Z</time>
      </trkpt>
      <trkpt lat="43.79188" lon="6.42275">
        <ele>641.4</ele>
        <time>2021-09-07T06:10:48.000Z</time>
      </trkpt>
      <trkpt lat="43.79191" lon="6.42272">
        <ele>641.8</ele>
        <time>2021-09-07T06:10:49.000Z</time>
      </trkpt>
      <trkpt lat="43.79197" lon="6.42265">
        <ele>642.2</ele>
        <time>2021-09-07T06:10:49.000Z</time>
      </trkpt>
      <trkpt lat="43.79198" lon="6.42263">
        <ele>642.3</ele>
        <time>2021-09-07T06:10:52.000Z</time>
      </trkpt>
      <trkpt lat="43.79203" lon="6.42254">
        <ele>642.3</ele>
        <time>2021-09-07T06:10:52.000Z</time>
      </trkpt>
      <trkpt lat="43.79207" lon="6.42246">
        <ele>642.8</ele>
        <time>2021-09-07T06:10:54.000Z</time>
      </trkpt>
      <trkpt lat="43.79209" lon="6.42241">
        <ele>643.2</ele>
        <time>2021-09-07T06:10:55.000Z</time>
      </trkpt>
      <trkpt lat="43.79204" lon="6.42253">
        <ele>642.5</ele>
        <time>2021-09-07T06:10:55.000Z</time>
      </trkpt>
      <trkpt lat="43.79213" lon="6.42233">
        <ele>643.5</ele>
        <time>2021-09-07T06:10:57.000Z</time>
      </trkpt>
      <trkpt lat="43.79208" lon="6.42243">
        <ele>643.1</ele>
        <time>2021-09-07T06:10:57.000Z</time>
      </trkpt>
      <trkpt lat="43.79211" lon="6.42239">
        <ele>643.3</ele>
        <time>2021-09-07T06:10:58.000Z</time>
      </trkpt>
      <trkpt lat="43.79217" lon="6.42224">
        <ele>644.1</ele>
        <time>2021-09-07T06:10:59.000Z</time>
      </trkpt>
      <trkpt lat="43.79219" lon="6.4222">
        <ele>644.6</ele>
        <time>2021-09-07T06:11:00.000Z</time>
      </trkpt>
      <trkpt lat="43.79214" lon="6.4223">
        <ele>643.8</ele>
        <time>2021-09-07T06:11:00.000Z</time>
      </trkpt>
      <trkpt lat="43.79222" lon="6.42216">
        <ele>645</ele>
        <time>2021-09-07T06:11:01.000Z</time>
      </trkpt>
      <trkpt lat="43.79218" lon="6.42222">
        <ele>644.4</ele>
        <time>2021-09-07T06:11:02.000Z</time>
      </trkpt>
      <trkpt lat="43.79226" lon="6.42211">
        <ele>645.3</ele>
        <time>2021-09-07T06:11:03.000Z</time>
      </trkpt>
      <trkpt lat="43.7923" lon="6.42209">
        <ele>645.4</ele>
        <time>2021-09-07T06:11:04.000Z</time>
      </trkpt>
      <trkpt lat="43.79233" lon="6.42208">
        <ele>646</ele>
        <time>2021-09-07T06:11:05.000Z</time>
      </trkpt>
      <trkpt lat="43.79228" lon="6.4221">
        <ele>645.4</ele>
        <time>2021-09-07T06:11:06.000Z</time>
      </trkpt>
      <trkpt lat="43.79239" lon="6.42206">
        <ele>646.4</ele>
        <time>2021-09-07T06:11:07.000Z</time>
      </trkpt>
      <trkpt lat="43.79231" lon="6.42208">
        <ele>645.7</ele>
        <time>2021-09-07T06:11:07.000Z</time>
      </trkpt>
      <trkpt lat="43.79242" lon="6.42205">
        <ele>646.7</ele>
        <time>2021-09-07T06:11:08.000Z</time>
      </trkpt>
      <trkpt lat="43.79236" lon="6.42207">
        <ele>646.1</ele>
        <time>2021-09-07T06:11:08.000Z</time>
      </trkpt>
      <trkpt lat="43.79248" lon="6.422">
        <ele>647.3</ele>
        <time>2021-09-07T06:11:10.000Z</time>
      </trkpt>
      <trkpt lat="43.7924" lon="6.42206">
        <ele>646.6</ele>
        <time>2021-09-07T06:11:10.000Z</time>
      </trkpt>
      <trkpt lat="43.79245" lon="6.42203">
        <ele>647</ele>
        <time>2021-09-07T06:11:11.000Z</time>
      </trkpt>
      <trkpt lat="43.79251" lon="6.42197">
        <ele>647.5</ele>
        <time>2021-09-07T06:11:11.000Z</time>
      </trkpt>
      <trkpt lat="43.79257" lon="6.42187">
        <ele>647.9</ele>
        <time>2021-09-07T06:11:14.000Z</time>
      </trkpt>
      <trkpt lat="43.79255" lon="6.42188">
        <ele>647.6</ele>
        <time>2021-09-07T06:11:16.000Z</time>
      </trkpt>
      <trkpt lat="43.79257" lon="6.42186">
        <ele>648</ele>
        <time>2021-09-07T06:11:17.000Z</time>
      </trkpt>
      <trkpt lat="43.79265" lon="6.42179">
        <ele>648.3</ele>
        <time>2021-09-07T06:11:17.000Z</time>
      </trkpt>
      <trkpt lat="43.79269" lon="6.42173">
        <ele>648.4</ele>
        <time>2021-09-07T06:11:19.000Z</time>
      </trkpt>
      <trkpt lat="43.79267" lon="6.42176">
        <ele>648.3</ele>
        <time>2021-09-07T06:11:20.000Z</time>
      </trkpt>
      <trkpt lat="43.79271" lon="6.42172">
        <ele>648.7</ele>
        <time>2021-09-07T06:11:22.000Z</time>
      </trkpt>
      <trkpt lat="43.79275" lon="6.42168">
        <ele>648.8</ele>
        <time>2021-09-07T06:11:22.000Z</time>
      </trkpt>
      <trkpt lat="43.79277" lon="6.42166">
        <ele>648.9</ele>
        <time>2021-09-07T06:11:23.000Z</time>
      </trkpt>
      <trkpt lat="43.79278" lon="6.42164">
        <ele>649.2</ele>
        <time>2021-09-07T06:11:24.000Z</time>
      </trkpt>
      <trkpt lat="43.79279" lon="6.42163">
        <ele>649.3</ele>
        <time>2021-09-07T06:11:25.000Z</time>
      </trkpt>
      <trkpt lat="43.79276" lon="6.42166">
        <ele>648.8</ele>
        <time>2021-09-07T06:11:25.000Z</time>
      </trkpt>
      <trkpt lat="43.79278" lon="6.42165">
        <ele>649</ele>
        <time>2021-09-07T06:11:26.000Z</time>
      </trkpt>
      <trkpt lat="43.79283" lon="6.42159">
        <ele>649.7</ele>
        <time>2021-09-07T06:11:27.000Z</time>
      </trkpt>
      <trkpt lat="43.79285" lon="6.42157">
        <ele>649.9</ele>
        <time>2021-09-07T06:11:30.000Z</time>
      </trkpt>
      <trkpt lat="43.79294" lon="6.42151">
        <ele>650.6</ele>
        <time>2021-09-07T06:11:31.000Z</time>
      </trkpt>
      <trkpt lat="43.79297" lon="6.42148">
        <ele>650.9</ele>
        <time>2021-09-07T06:11:32.000Z</time>
      </trkpt>
      <trkpt lat="43.793" lon="6.42144">
        <ele>651</ele>
        <time>2021-09-07T06:11:33.000Z</time>
      </trkpt>
      <trkpt lat="43.79296" lon="6.42149">
        <ele>650.7</ele>
        <time>2021-09-07T06:11:34.000Z</time>
      </trkpt>
      <trkpt lat="43.79305" lon="6.42137">
        <ele>651.2</ele>
        <time>2021-09-07T06:11:35.000Z</time>
      </trkpt>
      <trkpt lat="43.79299" lon="6.42146">
        <ele>650.9</ele>
        <time>2021-09-07T06:11:35.000Z</time>
      </trkpt>
      <trkpt lat="43.79307" lon="6.42133">
        <ele>651.3</ele>
        <time>2021-09-07T06:11:36.000Z</time>
      </trkpt>
      <trkpt lat="43.79303" lon="6.42141">
        <ele>651.2</ele>
        <time>2021-09-07T06:11:36.000Z</time>
      </trkpt>
      <trkpt lat="43.79309" lon="6.42129">
        <ele>651.4</ele>
        <time>2021-09-07T06:11:37.000Z</time>
      </trkpt>
      <trkpt lat="43.79307" lon="6.42134">
        <ele>651.3</ele>
        <time>2021-09-07T06:11:38.000Z</time>
      </trkpt>
      <trkpt lat="43.79309" lon="6.42122">
        <ele>651.5</ele>
        <time>2021-09-07T06:11:38.000Z</time>
      </trkpt>
      <trkpt lat="43.7931" lon="6.42111">
        <ele>651.8</ele>
        <time>2021-09-07T06:11:40.000Z</time>
      </trkpt>
      <trkpt lat="43.7931" lon="6.42117">
        <ele>651.5</ele>
        <time>2021-09-07T06:11:41.000Z</time>
      </trkpt>
      <trkpt lat="43.79312" lon="6.42107">
        <ele>652</ele>
        <time>2021-09-07T06:11:41.000Z</time>
      </trkpt>
      <trkpt lat="43.7932" lon="6.42089">
        <ele>652.8</ele>
        <time>2021-09-07T06:11:45.000Z</time>
      </trkpt>
      <trkpt lat="43.79318" lon="6.42093">
        <ele>652.5</ele>
        <time>2021-09-07T06:11:46.000Z</time>
      </trkpt>
      <trkpt lat="43.79323" lon="6.42081">
        <ele>653.1</ele>
        <time>2021-09-07T06:11:47.000Z</time>
      </trkpt>
      <trkpt lat="43.79325" lon="6.42077">
        <ele>653.6</ele>
        <time>2021-09-07T06:11:48.000Z</time>
      </trkpt>
      <trkpt lat="43.7932" lon="6.42088">
        <ele>652.8</ele>
        <time>2021-09-07T06:11:48.000Z</time>
      </trkpt>
      <trkpt lat="43.79327" lon="6.42073">
        <ele>653.5</ele>
        <time>2021-09-07T06:11:49.000Z</time>
      </trkpt>
      <trkpt lat="43.79325" lon="6.42078">
        <ele>653.4</ele>
        <time>2021-09-07T06:11:50.000Z</time>
      </trkpt>
      <trkpt lat="43.79329" lon="6.4207">
        <ele>653.3</ele>
        <time>2021-09-07T06:11:50.000Z</time>
      </trkpt>
      <trkpt lat="43.79333" lon="6.42063">
        <ele>653.8</ele>
        <time>2021-09-07T06:11:52.000Z</time>
      </trkpt>
      <trkpt lat="43.79335" lon="6.42059">
        <ele>654</ele>
        <time>2021-09-07T06:11:53.000Z</time>
      </trkpt>
      <trkpt lat="43.7933" lon="6.42068">
        <ele>653.5</ele>
        <time>2021-09-07T06:11:53.000Z</time>
      </trkpt>
      <trkpt lat="43.79337" lon="6.42055">
        <ele>654.4</ele>
        <time>2021-09-07T06:11:54.000Z</time>
      </trkpt>
      <trkpt lat="43.79335" lon="6.4206">
        <ele>653.9</ele>
        <time>2021-09-07T06:11:55.000Z</time>
      </trkpt>
      <trkpt lat="43.7934" lon="6.42047">
        <ele>654.6</ele>
        <time>2021-09-07T06:11:56.000Z</time>
      </trkpt>
      <trkpt lat="43.79341" lon="6.42043">
        <ele>654.8</ele>
        <time>2021-09-07T06:11:57.000Z</time>
      </trkpt>
      <trkpt lat="43.79343" lon="6.42039">
        <ele>654.9</ele>
        <time>2021-09-07T06:11:58.000Z</time>
      </trkpt>
      <trkpt lat="43.79341" lon="6.42046">
        <ele>654.7</ele>
        <time>2021-09-07T06:11:59.000Z</time>
      </trkpt>
      <trkpt lat="43.79345" lon="6.42036">
        <ele>655.2</ele>
        <time>2021-09-07T06:11:59.000Z</time>
      </trkpt>
      <trkpt lat="43.79347" lon="6.42035">
        <ele>655.4</ele>
        <time>2021-09-07T06:12:00.000Z</time>
      </trkpt>
      <trkpt lat="43.79356" lon="6.42029">
        <ele>655.3</ele>
        <time>2021-09-07T06:12:03.000Z</time>
      </trkpt>
      <trkpt lat="43.79358" lon="6.42027">
        <ele>655.6</ele>
        <time>2021-09-07T06:12:04.000Z</time>
      </trkpt>
      <trkpt lat="43.7936" lon="6.42026">
        <ele>656</ele>
        <time>2021-09-07T06:12:05.000Z</time>
      </trkpt>
      <trkpt lat="43.79364" lon="6.42021">
        <ele>656.2</ele>
        <time>2021-09-07T06:12:07.000Z</time>
      </trkpt>
      <trkpt lat="43.79362" lon="6.42024">
        <ele>656.2</ele>
        <time>2021-09-07T06:12:08.000Z</time>
      </trkpt>
      <trkpt lat="43.79365" lon="6.42017">
        <ele>656.4</ele>
        <time>2021-09-07T06:12:08.000Z</time>
      </trkpt>
      <trkpt lat="43.79367" lon="6.42013">
        <ele>656.7</ele>
        <time>2021-09-07T06:12:09.000Z</time>
      </trkpt>
      <trkpt lat="43.79369" lon="6.42006">
        <ele>656.8</ele>
        <time>2021-09-07T06:12:11.000Z</time>
      </trkpt>
      <trkpt lat="43.79368" lon="6.4201">
        <ele>656.7</ele>
        <time>2021-09-07T06:12:12.000Z</time>
      </trkpt>
      <trkpt lat="43.79371" lon="6.42002">
        <ele>657</ele>
        <time>2021-09-07T06:12:12.000Z</time>
      </trkpt>
      <trkpt lat="43.79372" lon="6.41993">
        <ele>657.3</ele>
        <time>2021-09-07T06:12:14.000Z</time>
      </trkpt>
      <trkpt lat="43.79373" lon="6.4199">
        <ele>657.5</ele>
        <time>2021-09-07T06:12:17.000Z</time>
      </trkpt>
      <trkpt lat="43.79376" lon="6.41981">
        <ele>658</ele>
        <time>2021-09-07T06:12:18.000Z</time>
      </trkpt>
      <trkpt lat="43.79377" lon="6.41977">
        <ele>658.3</ele>
        <time>2021-09-07T06:12:19.000Z</time>
      </trkpt>
      <trkpt lat="43.79378" lon="6.41973">
        <ele>658.2</ele>
        <time>2021-09-07T06:12:20.000Z</time>
      </trkpt>
      <trkpt lat="43.79379" lon="6.4197">
        <ele>658.6</ele>
        <time>2021-09-07T06:12:21.000Z</time>
      </trkpt>
      <trkpt lat="43.79377" lon="6.41979">
        <ele>658.2</ele>
        <time>2021-09-07T06:12:21.000Z</time>
      </trkpt>
      <trkpt lat="43.79377" lon="6.41975">
        <ele>658.3</ele>
        <time>2021-09-07T06:12:22.000Z</time>
      </trkpt>
      <trkpt lat="43.79385" lon="6.4196">
        <ele>659.1</ele>
        <time>2021-09-07T06:12:24.000Z</time>
      </trkpt>
      <trkpt lat="43.79385" lon="6.41956">
        <ele>659.2</ele>
        <time>2021-09-07T06:12:25.000Z</time>
      </trkpt>
      <trkpt lat="43.79388" lon="6.41948">
        <ele>659.5</ele>
        <time>2021-09-07T06:12:27.000Z</time>
      </trkpt>
      <trkpt lat="43.79385" lon="6.41958">
        <ele>659</ele>
        <time>2021-09-07T06:12:27.000Z</time>
      </trkpt>
      <trkpt lat="43.79386" lon="6.41953">
        <ele>659.4</ele>
        <time>2021-09-07T06:12:28.000Z</time>
      </trkpt>
      <trkpt lat="43.7939" lon="6.41946">
        <ele>659.6</ele>
        <time>2021-09-07T06:12:30.000Z</time>
      </trkpt>
      <trkpt lat="43.79394" lon="6.41939">
        <ele>660</ele>
        <time>2021-09-07T06:12:30.000Z</time>
      </trkpt>
      <trkpt lat="43.79396" lon="6.41935">
        <ele>660</ele>
        <time>2021-09-07T06:12:31.000Z</time>
      </trkpt>
      <trkpt lat="43.79397" lon="6.4193">
        <ele>660.2</ele>
        <time>2021-09-07T06:12:32.000Z</time>
      </trkpt>
      <trkpt lat="43.79399" lon="6.41926">
        <ele>660.3</ele>
        <time>2021-09-07T06:12:33.000Z</time>
      </trkpt>
      <trkpt lat="43.79395" lon="6.41937">
        <ele>660.1</ele>
        <time>2021-09-07T06:12:33.000Z</time>
      </trkpt>
      <trkpt lat="43.79397" lon="6.41931">
        <ele>660.1</ele>
        <time>2021-09-07T06:12:34.000Z</time>
      </trkpt>
      <trkpt lat="43.79403" lon="6.4192">
        <ele>660.6</ele>
        <time>2021-09-07T06:12:35.000Z</time>
      </trkpt>
      <trkpt lat="43.79405" lon="6.41916">
        <ele>660.8</ele>
        <time>2021-09-07T06:12:36.000Z</time>
      </trkpt>
      <trkpt lat="43.79407" lon="6.41912">
        <ele>660.8</ele>
        <time>2021-09-07T06:12:37.000Z</time>
      </trkpt>
      <trkpt lat="43.79404" lon="6.41918">
        <ele>660.7</ele>
        <time>2021-09-07T06:12:38.000Z</time>
      </trkpt>
      <trkpt lat="43.7941" lon="6.41902">
        <ele>661.4</ele>
        <time>2021-09-07T06:12:40.000Z</time>
      </trkpt>
      <trkpt lat="43.79411" lon="6.41898">
        <ele>661.6</ele>
        <time>2021-09-07T06:12:41.000Z</time>
      </trkpt>
      <trkpt lat="43.7941" lon="6.419">
        <ele>661.6</ele>
        <time>2021-09-07T06:12:43.000Z</time>
      </trkpt>
      <trkpt lat="43.79412" lon="6.41895">
        <ele>661.6</ele>
        <time>2021-09-07T06:12:44.000Z</time>
      </trkpt>
      <trkpt lat="43.79415" lon="6.41882">
        <ele>662.9</ele>
        <time>2021-09-07T06:12:45.000Z</time>
      </trkpt>
      <trkpt lat="43.79417" lon="6.41878">
        <ele>662.8</ele>
        <time>2021-09-07T06:12:46.000Z</time>
      </trkpt>
      <trkpt lat="43.79418" lon="6.41868">
        <ele>663.2</ele>
        <time>2021-09-07T06:12:48.000Z</time>
      </trkpt>
      <trkpt lat="43.79416" lon="6.41881">
        <ele>662.9</ele>
        <time>2021-09-07T06:12:48.000Z</time>
      </trkpt>
      <trkpt lat="43.79417" lon="6.41874">
        <ele>662.7</ele>
        <time>2021-09-07T06:12:49.000Z</time>
      </trkpt>
      <trkpt lat="43.79422" lon="6.41861">
        <ele>663.5</ele>
        <time>2021-09-07T06:12:50.000Z</time>
      </trkpt>
      <trkpt lat="43.79419" lon="6.41865">
        <ele>663.4</ele>
        <time>2021-09-07T06:12:51.000Z</time>
      </trkpt>
      <trkpt lat="43.79424" lon="6.41859">
        <ele>663.7</ele>
        <time>2021-09-07T06:12:51.000Z</time>
      </trkpt>
      <trkpt lat="43.79426" lon="6.41856">
        <ele>663.9</ele>
        <time>2021-09-07T06:12:52.000Z</time>
      </trkpt>
      <trkpt lat="43.79427" lon="6.41852">
        <ele>664.2</ele>
        <time>2021-09-07T06:12:53.000Z</time>
      </trkpt>
      <trkpt lat="43.79428" lon="6.41847">
        <ele>664.5</ele>
        <time>2021-09-07T06:12:54.000Z</time>
      </trkpt>
      <trkpt lat="43.79429" lon="6.41844">
        <ele>664.5</ele>
        <time>2021-09-07T06:12:55.000Z</time>
      </trkpt>
      <trkpt lat="43.79433" lon="6.41839">
        <ele>664.9</ele>
        <time>2021-09-07T06:12:57.000Z</time>
      </trkpt>
      <trkpt lat="43.79436" lon="6.41838">
        <ele>665</ele>
        <time>2021-09-07T06:12:58.000Z</time>
      </trkpt>
      <trkpt lat="43.79438" lon="6.41836">
        <ele>665.6</ele>
        <time>2021-09-07T06:12:59.000Z</time>
      </trkpt>
      <trkpt lat="43.7944" lon="6.41833">
        <ele>665.8</ele>
        <time>2021-09-07T06:13:00.000Z</time>
      </trkpt>
      <trkpt lat="43.79435" lon="6.41838">
        <ele>664.9</ele>
        <time>2021-09-07T06:13:00.000Z</time>
      </trkpt>
      <trkpt lat="43.79438" lon="6.41836">
        <ele>665.4</ele>
        <time>2021-09-07T06:13:01.000Z</time>
      </trkpt>
      <trkpt lat="43.79439" lon="6.41834">
        <ele>665.8</ele>
        <time>2021-09-07T06:13:02.000Z</time>
      </trkpt>
      <trkpt lat="43.79441" lon="6.4183">
        <ele>665.8</ele>
        <time>2021-09-07T06:13:03.000Z</time>
      </trkpt>
      <trkpt lat="43.79444" lon="6.41824">
        <ele>665.9</ele>
        <time>2021-09-07T06:13:03.000Z</time>
      </trkpt>
      <trkpt lat="43.79446" lon="6.41824">
        <ele>665.9</ele>
        <time>2021-09-07T06:13:06.000Z</time>
      </trkpt>
      <trkpt lat="43.79451" lon="6.41824">
        <ele>666.3</ele>
        <time>2021-09-07T06:13:06.000Z</time>
      </trkpt>
      <trkpt lat="43.79456" lon="6.4182">
        <ele>666.7</ele>
        <time>2021-09-07T06:13:08.000Z</time>
      </trkpt>
      <trkpt lat="43.79453" lon="6.41823">
        <ele>666.5</ele>
        <time>2021-09-07T06:13:09.000Z</time>
      </trkpt>
      <trkpt lat="43.79457" lon="6.41817">
        <ele>666.9</ele>
        <time>2021-09-07T06:13:09.000Z</time>
      </trkpt>
      <trkpt lat="43.79459" lon="6.41813">
        <ele>667.1</ele>
        <time>2021-09-07T06:13:10.000Z</time>
      </trkpt>
      <trkpt lat="43.79463" lon="6.41805">
        <ele>667.1</ele>
        <time>2021-09-07T06:13:12.000Z</time>
      </trkpt>
      <trkpt lat="43.79459" lon="6.41811">
        <ele>667.1</ele>
        <time>2021-09-07T06:13:13.000Z</time>
      </trkpt>
      <trkpt lat="43.79465" lon="6.41801">
        <ele>667.2</ele>
        <time>2021-09-07T06:13:13.000Z</time>
      </trkpt>
      <trkpt lat="43.79469" lon="6.41792">
        <ele>667.6</ele>
        <time>2021-09-07T06:13:16.000Z</time>
      </trkpt>
      <trkpt lat="43.79471" lon="6.4179">
        <ele>667.7</ele>
        <time>2021-09-07T06:13:17.000Z</time>
      </trkpt>
      <trkpt lat="43.79468" lon="6.41793">
        <ele>667.5</ele>
        <time>2021-09-07T06:13:18.000Z</time>
      </trkpt>
      <trkpt lat="43.79476" lon="6.41778">
        <ele>668.5</ele>
        <time>2021-09-07T06:13:23.000Z</time>
      </trkpt>
      <trkpt lat="43.79481" lon="6.41768">
        <ele>668.8</ele>
        <time>2021-09-07T06:13:24.000Z</time>
      </trkpt>
      <trkpt lat="43.79482" lon="6.41765">
        <ele>669.2</ele>
        <time>2021-09-07T06:13:25.000Z</time>
      </trkpt>
      <trkpt lat="43.79484" lon="6.41762">
        <ele>669.2</ele>
        <time>2021-09-07T06:13:26.000Z</time>
      </trkpt>
      <trkpt lat="43.79485" lon="6.41759">
        <ele>669.4</ele>
        <time>2021-09-07T06:13:27.000Z</time>
      </trkpt>
      <trkpt lat="43.79481" lon="6.41766">
        <ele>669.1</ele>
        <time>2021-09-07T06:13:27.000Z</time>
      </trkpt>
      <trkpt lat="43.79483" lon="6.41763">
        <ele>669.3</ele>
        <time>2021-09-07T06:13:28.000Z</time>
      </trkpt>
      <trkpt lat="43.79488" lon="6.41752">
        <ele>669.8</ele>
        <time>2021-09-07T06:13:29.000Z</time>
      </trkpt>
      <trkpt lat="43.79489" lon="6.41748">
        <ele>670.1</ele>
        <time>2021-09-07T06:13:30.000Z</time>
      </trkpt>
      <trkpt lat="43.79489" lon="6.41745">
        <ele>670.1</ele>
        <time>2021-09-07T06:13:31.000Z</time>
      </trkpt>
      <trkpt lat="43.79489" lon="6.4175">
        <ele>670</ele>
        <time>2021-09-07T06:13:32.000Z</time>
      </trkpt>
      <trkpt lat="43.79489" lon="6.41747">
        <ele>670.1</ele>
        <time>2021-09-07T06:13:33.000Z</time>
      </trkpt>
      <trkpt lat="43.7949" lon="6.41742">
        <ele>670.2</ele>
        <time>2021-09-07T06:13:34.000Z</time>
      </trkpt>
      <trkpt lat="43.79497" lon="6.41732">
        <ele>670.9</ele>
        <time>2021-09-07T06:13:36.000Z</time>
      </trkpt>
      <trkpt lat="43.79498" lon="6.4173">
        <ele>671</ele>
        <time>2021-09-07T06:13:39.000Z</time>
      </trkpt>
      <trkpt lat="43.79505" lon="6.41721">
        <ele>671</ele>
        <time>2021-09-07T06:13:40.000Z</time>
      </trkpt>
      <trkpt lat="43.79507" lon="6.41718">
        <ele>671.1</ele>
        <time>2021-09-07T06:13:41.000Z</time>
      </trkpt>
      <trkpt lat="43.79512" lon="6.41712">
        <ele>671.3</ele>
        <time>2021-09-07T06:13:43.000Z</time>
      </trkpt>
      <trkpt lat="43.79506" lon="6.41719">
        <ele>671.2</ele>
        <time>2021-09-07T06:13:43.000Z</time>
      </trkpt>
      <trkpt lat="43.79509" lon="6.41715">
        <ele>671.2</ele>
        <time>2021-09-07T06:13:44.000Z</time>
      </trkpt>
      <trkpt lat="43.79514" lon="6.41709">
        <ele>671.5</ele>
        <time>2021-09-07T06:13:44.000Z</time>
      </trkpt>
      <trkpt lat="43.79516" lon="6.41706">
        <ele>671.5</ele>
        <time>2021-09-07T06:13:45.000Z</time>
      </trkpt>
      <trkpt lat="43.79518" lon="6.41703">
        <ele>671.8</ele>
        <time>2021-09-07T06:13:46.000Z</time>
      </trkpt>
      <trkpt lat="43.79522" lon="6.417">
        <ele>672.3</ele>
        <time>2021-09-07T06:13:48.000Z</time>
      </trkpt>
      <trkpt lat="43.79517" lon="6.41705">
        <ele>671.5</ele>
        <time>2021-09-07T06:13:48.000Z</time>
      </trkpt>
      <trkpt lat="43.79523" lon="6.41698">
        <ele>672.4</ele>
        <time>2021-09-07T06:13:49.000Z</time>
      </trkpt>
      <trkpt lat="43.79519" lon="6.41702">
        <ele>672</ele>
        <time>2021-09-07T06:13:49.000Z</time>
      </trkpt>
      <trkpt lat="43.79525" lon="6.41696">
        <ele>672.3</ele>
        <time>2021-09-07T06:13:50.000Z</time>
      </trkpt>
      <trkpt lat="43.79523" lon="6.41698">
        <ele>672.4</ele>
        <time>2021-09-07T06:13:51.000Z</time>
      </trkpt>
      <trkpt lat="43.7953" lon="6.41687">
        <ele>672.8</ele>
        <time>2021-09-07T06:13:53.000Z</time>
      </trkpt>
      <trkpt lat="43.79532" lon="6.41684">
        <ele>673</ele>
        <time>2021-09-07T06:13:54.000Z</time>
      </trkpt>
      <trkpt lat="43.79534" lon="6.41681">
        <ele>673.1</ele>
        <time>2021-09-07T06:13:55.000Z</time>
      </trkpt>
      <trkpt lat="43.79532" lon="6.41685">
        <ele>673.1</ele>
        <time>2021-09-07T06:13:56.000Z</time>
      </trkpt>
      <trkpt lat="43.79545" lon="6.41666">
        <ele>673.9</ele>
        <time>2021-09-07T06:14:00.000Z</time>
      </trkpt>
      <trkpt lat="43.79543" lon="6.41669">
        <ele>673.8</ele>
        <time>2021-09-07T06:14:01.000Z</time>
      </trkpt>
      <trkpt lat="43.79547" lon="6.41664">
        <ele>673.9</ele>
        <time>2021-09-07T06:14:01.000Z</time>
      </trkpt>
      <trkpt lat="43.79552" lon="6.41656">
        <ele>674.7</ele>
        <time>2021-09-07T06:14:04.000Z</time>
      </trkpt>
      <trkpt lat="43.79547" lon="6.41664">
        <ele>674</ele>
        <time>2021-09-07T06:14:04.000Z</time>
      </trkpt>
      <trkpt lat="43.79549" lon="6.41661">
        <ele>674.2</ele>
        <time>2021-09-07T06:14:05.000Z</time>
      </trkpt>
      <trkpt lat="43.79549" lon="6.41661">
        <ele>674.2</ele>
        <time>2021-09-07T06:14:05.000Z</time>
      </trkpt>
      <trkpt lat="43.79555" lon="6.41649">
        <ele>674.7</ele>
        <time>2021-09-07T06:14:06.000Z</time>
      </trkpt>
      <trkpt lat="43.79553" lon="6.41654">
        <ele>674.7</ele>
        <time>2021-09-07T06:14:07.000Z</time>
      </trkpt>
      <trkpt lat="43.79554" lon="6.4165">
        <ele>674.7</ele>
        <time>2021-09-07T06:14:08.000Z</time>
      </trkpt>
      <trkpt lat="43.79556" lon="6.41645">
        <ele>674.9</ele>
        <time>2021-09-07T06:14:09.000Z</time>
      </trkpt>
      <trkpt lat="43.79559" lon="6.41639">
        <ele>675.4</ele>
        <time>2021-09-07T06:14:09.000Z</time>
      </trkpt>
      <trkpt lat="43.79561" lon="6.41637">
        <ele>675.5</ele>
        <time>2021-09-07T06:14:10.000Z</time>
      </trkpt>
      <trkpt lat="43.79563" lon="6.41634">
        <ele>675.6</ele>
        <time>2021-09-07T06:14:11.000Z</time>
      </trkpt>
      <trkpt lat="43.7956" lon="6.41638">
        <ele>675.5</ele>
        <time>2021-09-07T06:14:12.000Z</time>
      </trkpt>
      <trkpt lat="43.79568" lon="6.41626">
        <ele>676.1</ele>
        <time>2021-09-07T06:14:14.000Z</time>
      </trkpt>
      <trkpt lat="43.79568" lon="6.41626">
        <ele>676.2</ele>
        <time>2021-09-07T06:14:17.000Z</time>
      </trkpt>
      <trkpt lat="43.79573" lon="6.41619">
        <ele>676.9</ele>
        <time>2021-09-07T06:14:17.000Z</time>
      </trkpt>
      <trkpt lat="43.79575" lon="6.41617">
        <ele>677</ele>
        <time>2021-09-07T06:14:20.000Z</time>
      </trkpt>
      <trkpt lat="43.79579" lon="6.4161">
        <ele>677.2</ele>
        <time>2021-09-07T06:14:20.000Z</time>
      </trkpt>
      <trkpt lat="43.79581" lon="6.41607">
        <ele>677.5</ele>
        <time>2021-09-07T06:14:21.000Z</time>
      </trkpt>
      <trkpt lat="43.79582" lon="6.41604">
        <ele>677.8</ele>
        <time>2021-09-07T06:14:22.000Z</time>
      </trkpt>
      <trkpt lat="43.7958" lon="6.41608">
        <ele>677.4</ele>
        <time>2021-09-07T06:14:23.000Z</time>
      </trkpt>
      <trkpt lat="43.79586" lon="6.41599">
        <ele>678.2</ele>
        <time>2021-09-07T06:14:24.000Z</time>
      </trkpt>
      <trkpt lat="43.79582" lon="6.41605">
        <ele>677.7</ele>
        <time>2021-09-07T06:14:24.000Z</time>
      </trkpt>
      <trkpt lat="43.79588" lon="6.41596">
        <ele>678.3</ele>
        <time>2021-09-07T06:14:25.000Z</time>
      </trkpt>
      <trkpt lat="43.79583" lon="6.41603">
        <ele>677.8</ele>
        <time>2021-09-07T06:14:25.000Z</time>
      </trkpt>
      <trkpt lat="43.79589" lon="6.41592">
        <ele>678.3</ele>
        <time>2021-09-07T06:14:26.000Z</time>
      </trkpt>
      <trkpt lat="43.7959" lon="6.41588">
        <ele>678.2</ele>
        <time>2021-09-07T06:14:27.000Z</time>
      </trkpt>
      <trkpt lat="43.79587" lon="6.41597">
        <ele>678.2</ele>
        <time>2021-09-07T06:14:27.000Z</time>
      </trkpt>
      <trkpt lat="43.79591" lon="6.41584">
        <ele>678.2</ele>
        <time>2021-09-07T06:14:28.000Z</time>
      </trkpt>
      <trkpt lat="43.79588" lon="6.41593">
        <ele>678.3</ele>
        <time>2021-09-07T06:14:28.000Z</time>
      </trkpt>
      <trkpt lat="43.7959" lon="6.4159">
        <ele>678.2</ele>
        <time>2021-09-07T06:14:29.000Z</time>
      </trkpt>
      <trkpt lat="43.79595" lon="6.41571">
        <ele>678.8</ele>
        <time>2021-09-07T06:14:32.000Z</time>
      </trkpt>
      <trkpt lat="43.79597" lon="6.41568">
        <ele>679.1</ele>
        <time>2021-09-07T06:14:33.000Z</time>
      </trkpt>
      <trkpt lat="43.79598" lon="6.41564">
        <ele>679.4</ele>
        <time>2021-09-07T06:14:34.000Z</time>
      </trkpt>
      <trkpt lat="43.79595" lon="6.4157">
        <ele>678.8</ele>
        <time>2021-09-07T06:14:35.000Z</time>
      </trkpt>
      <trkpt lat="43.79601" lon="6.41556">
        <ele>679.9</ele>
        <time>2021-09-07T06:14:36.000Z</time>
      </trkpt>
      <trkpt lat="43.79597" lon="6.41566">
        <ele>679.3</ele>
        <time>2021-09-07T06:14:36.000Z</time>
      </trkpt>
      <trkpt lat="43.79603" lon="6.41552">
        <ele>680.3</ele>
        <time>2021-09-07T06:14:37.000Z</time>
      </trkpt>
      <trkpt lat="43.79599" lon="6.4156">
        <ele>679.6</ele>
        <time>2021-09-07T06:14:37.000Z</time>
      </trkpt>
      <trkpt lat="43.79607" lon="6.41549">
        <ele>680.6</ele>
        <time>2021-09-07T06:14:38.000Z</time>
      </trkpt>
      <trkpt lat="43.7961" lon="6.41547">
        <ele>680.9</ele>
        <time>2021-09-07T06:14:39.000Z</time>
      </trkpt>
      <trkpt lat="43.79602" lon="6.41554">
        <ele>680</ele>
        <time>2021-09-07T06:14:39.000Z</time>
      </trkpt>
      <trkpt lat="43.79606" lon="6.41549">
        <ele>680.6</ele>
        <time>2021-09-07T06:14:40.000Z</time>
      </trkpt>
      <trkpt lat="43.79617" lon="6.41536">
        <ele>681.4</ele>
        <time>2021-09-07T06:14:42.000Z</time>
      </trkpt>
      <trkpt lat="43.79618" lon="6.41532">
        <ele>681.7</ele>
        <time>2021-09-07T06:14:43.000Z</time>
      </trkpt>
      <trkpt lat="43.79617" lon="6.41534">
        <ele>681.4</ele>
        <time>2021-09-07T06:14:45.000Z</time>
      </trkpt>
      <trkpt lat="43.79619" lon="6.41528">
        <ele>682</ele>
        <time>2021-09-07T06:14:46.000Z</time>
      </trkpt>
      <trkpt lat="43.79619" lon="6.41517">
        <ele>682.2</ele>
        <time>2021-09-07T06:14:47.000Z</time>
      </trkpt>
      <trkpt lat="43.79619" lon="6.41513">
        <ele>682.4</ele>
        <time>2021-09-07T06:14:48.000Z</time>
      </trkpt>
      <trkpt lat="43.79619" lon="6.41515">
        <ele>682.3</ele>
        <time>2021-09-07T06:14:50.000Z</time>
      </trkpt>
      <trkpt lat="43.79619" lon="6.41511">
        <ele>682.6</ele>
        <time>2021-09-07T06:14:51.000Z</time>
      </trkpt>
      <trkpt lat="43.79618" lon="6.41502">
        <ele>682.8</ele>
        <time>2021-09-07T06:14:51.000Z</time>
      </trkpt>
      <trkpt lat="43.79621" lon="6.41493">
        <ele>683.2</ele>
        <time>2021-09-07T06:14:53.000Z</time>
      </trkpt>
      <trkpt lat="43.79622" lon="6.41489">
        <ele>683.5</ele>
        <time>2021-09-07T06:14:54.000Z</time>
      </trkpt>
      <trkpt lat="43.79619" lon="6.41498">
        <ele>682.9</ele>
        <time>2021-09-07T06:14:54.000Z</time>
      </trkpt>
      <trkpt lat="43.79622" lon="6.41491">
        <ele>683.3</ele>
        <time>2021-09-07T06:14:56.000Z</time>
      </trkpt>
      <trkpt lat="43.79624" lon="6.41486">
        <ele>683.8</ele>
        <time>2021-09-07T06:14:57.000Z</time>
      </trkpt>
      <trkpt lat="43.79632" lon="6.41479">
        <ele>684.8</ele>
        <time>2021-09-07T06:14:58.000Z</time>
      </trkpt>
      <trkpt lat="43.79638" lon="6.41476">
        <ele>685</ele>
        <time>2021-09-07T06:15:00.000Z</time>
      </trkpt>
      <trkpt lat="43.79641" lon="6.41474">
        <ele>685.3</ele>
        <time>2021-09-07T06:15:01.000Z</time>
      </trkpt>
      <trkpt lat="43.79634" lon="6.41478">
        <ele>685</ele>
        <time>2021-09-07T06:15:01.000Z</time>
      </trkpt>
      <trkpt lat="43.79643" lon="6.41472">
        <ele>685.4</ele>
        <time>2021-09-07T06:15:02.000Z</time>
      </trkpt>
      <trkpt lat="43.7964" lon="6.41475">
        <ele>685.2</ele>
        <time>2021-09-07T06:15:03.000Z</time>
      </trkpt>
      <trkpt lat="43.79649" lon="6.41468">
        <ele>685.9</ele>
        <time>2021-09-07T06:15:04.000Z</time>
      </trkpt>
      <trkpt lat="43.79651" lon="6.41466">
        <ele>686.2</ele>
        <time>2021-09-07T06:15:07.000Z</time>
      </trkpt>
      <trkpt lat="43.79661" lon="6.41453">
        <ele>686.9</ele>
        <time>2021-09-07T06:15:09.000Z</time>
      </trkpt>
      <trkpt lat="43.79664" lon="6.41445">
        <ele>687.4</ele>
        <time>2021-09-07T06:15:11.000Z</time>
      </trkpt>
      <trkpt lat="43.79665" lon="6.4144">
        <ele>687.5</ele>
        <time>2021-09-07T06:15:12.000Z</time>
      </trkpt>
      <trkpt lat="43.79663" lon="6.4145">
        <ele>687</ele>
        <time>2021-09-07T06:15:12.000Z</time>
      </trkpt>
      <trkpt lat="43.79664" lon="6.41442">
        <ele>687.4</ele>
        <time>2021-09-07T06:15:14.000Z</time>
      </trkpt>
      <trkpt lat="43.79666" lon="6.41436">
        <ele>687.4</ele>
        <time>2021-09-07T06:15:15.000Z</time>
      </trkpt>
      <trkpt lat="43.7967" lon="6.41422">
        <ele>688.3</ele>
        <time>2021-09-07T06:15:16.000Z</time>
      </trkpt>
      <trkpt lat="43.79672" lon="6.41419">
        <ele>688.7</ele>
        <time>2021-09-07T06:15:19.000Z</time>
      </trkpt>
      <trkpt lat="43.79675" lon="6.4141">
        <ele>689.2</ele>
        <time>2021-09-07T06:15:19.000Z</time>
      </trkpt>
      <trkpt lat="43.79677" lon="6.41406">
        <ele>689.3</ele>
        <time>2021-09-07T06:15:20.000Z</time>
      </trkpt>
      <trkpt lat="43.79679" lon="6.414">
        <ele>689.5</ele>
        <time>2021-09-07T06:15:22.000Z</time>
      </trkpt>
      <trkpt lat="43.7968" lon="6.41396">
        <ele>689.6</ele>
        <time>2021-09-07T06:15:23.000Z</time>
      </trkpt>
      <trkpt lat="43.7968" lon="6.41393">
        <ele>690</ele>
        <time>2021-09-07T06:15:24.000Z</time>
      </trkpt>
      <trkpt lat="43.79681" lon="6.41389">
        <ele>690.2</ele>
        <time>2021-09-07T06:15:25.000Z</time>
      </trkpt>
      <trkpt lat="43.7968" lon="6.41399">
        <ele>689.5</ele>
        <time>2021-09-07T06:15:25.000Z</time>
      </trkpt>
      <trkpt lat="43.7968" lon="6.41395">
        <ele>689.8</ele>
        <time>2021-09-07T06:15:26.000Z</time>
      </trkpt>
      <trkpt lat="43.79681" lon="6.41374">
        <ele>690.7</ele>
        <time>2021-09-07T06:15:29.000Z</time>
      </trkpt>
      <trkpt lat="43.79681" lon="6.41375">
        <ele>690.7</ele>
        <time>2021-09-07T06:15:31.000Z</time>
      </trkpt>
      <trkpt lat="43.79681" lon="6.41372">
        <ele>690.7</ele>
        <time>2021-09-07T06:15:32.000Z</time>
      </trkpt>
      <trkpt lat="43.79682" lon="6.41361">
        <ele>690.7</ele>
        <time>2021-09-07T06:15:32.000Z</time>
      </trkpt>
      <trkpt lat="43.79683" lon="6.41351">
        <ele>691.5</ele>
        <time>2021-09-07T06:15:34.000Z</time>
      </trkpt>
      <trkpt lat="43.79683" lon="6.41348">
        <ele>691.8</ele>
        <time>2021-09-07T06:15:35.000Z</time>
      </trkpt>
      <trkpt lat="43.79682" lon="6.41358">
        <ele>691</ele>
        <time>2021-09-07T06:15:35.000Z</time>
      </trkpt>
      <trkpt lat="43.79683" lon="6.41345">
        <ele>692.3</ele>
        <time>2021-09-07T06:15:36.000Z</time>
      </trkpt>
      <trkpt lat="43.79683" lon="6.41349">
        <ele>691.7</ele>
        <time>2021-09-07T06:15:37.000Z</time>
      </trkpt>
      <trkpt lat="43.79689" lon="6.41333">
        <ele>692.5</ele>
        <time>2021-09-07T06:15:40.000Z</time>
      </trkpt>
      <trkpt lat="43.79695" lon="6.4133">
        <ele>693.1</ele>
        <time>2021-09-07T06:15:42.000Z</time>
      </trkpt>
      <trkpt lat="43.79688" lon="6.41333">
        <ele>692.4</ele>
        <time>2021-09-07T06:15:42.000Z</time>
      </trkpt>
      <trkpt lat="43.79692" lon="6.41332">
        <ele>692.9</ele>
        <time>2021-09-07T06:15:43.000Z</time>
      </trkpt>
      <trkpt lat="43.79697" lon="6.41327">
        <ele>693</ele>
        <time>2021-09-07T06:15:45.000Z</time>
      </trkpt>
      <trkpt lat="43.797" lon="6.4132">
        <ele>693.6</ele>
        <time>2021-09-07T06:15:45.000Z</time>
      </trkpt>
      <trkpt lat="43.79702" lon="6.41317">
        <ele>693.6</ele>
        <time>2021-09-07T06:15:46.000Z</time>
      </trkpt>
      <trkpt lat="43.79706" lon="6.41308">
        <ele>694.6</ele>
        <time>2021-09-07T06:15:49.000Z</time>
      </trkpt>
      <trkpt lat="43.7971" lon="6.41301">
        <ele>695.3</ele>
        <time>2021-09-07T06:15:51.000Z</time>
      </trkpt>
      <trkpt lat="43.79705" lon="6.41309">
        <ele>694.4</ele>
        <time>2021-09-07T06:15:51.000Z</time>
      </trkpt>
      <trkpt lat="43.79708" lon="6.41304">
        <ele>695.2</ele>
        <time>2021-09-07T06:15:52.000Z</time>
      </trkpt>
      <trkpt lat="43.79712" lon="6.41299">
        <ele>695.4</ele>
        <time>2021-09-07T06:15:52.000Z</time>
      </trkpt>
      <trkpt lat="43.79716" lon="6.41293">
        <ele>695.9</ele>
        <time>2021-09-07T06:15:54.000Z</time>
      </trkpt>
      <trkpt lat="43.79718" lon="6.41289">
        <ele>695.9</ele>
        <time>2021-09-07T06:15:55.000Z</time>
      </trkpt>
      <trkpt lat="43.7972" lon="6.41286">
        <ele>696</ele>
        <time>2021-09-07T06:15:56.000Z</time>
      </trkpt>
      <trkpt lat="43.79723" lon="6.41282">
        <ele>696.4</ele>
        <time>2021-09-07T06:15:57.000Z</time>
      </trkpt>
      <trkpt lat="43.79717" lon="6.41291">
        <ele>696</ele>
        <time>2021-09-07T06:15:57.000Z</time>
      </trkpt>
      <trkpt lat="43.79725" lon="6.41279">
        <ele>696.4</ele>
        <time>2021-09-07T06:15:58.000Z</time>
      </trkpt>
      <trkpt lat="43.7972" lon="6.41287">
        <ele>695.9</ele>
        <time>2021-09-07T06:15:58.000Z</time>
      </trkpt>
      <trkpt lat="43.79726" lon="6.41276">
        <ele>696.5</ele>
        <time>2021-09-07T06:15:59.000Z</time>
      </trkpt>
      <trkpt lat="43.79722" lon="6.41283">
        <ele>696.2</ele>
        <time>2021-09-07T06:15:59.000Z</time>
      </trkpt>
      <trkpt lat="43.79724" lon="6.41279">
        <ele>696.4</ele>
        <time>2021-09-07T06:16:00.000Z</time>
      </trkpt>
      <trkpt lat="43.79727" lon="6.41264">
        <ele>696.8</ele>
        <time>2021-09-07T06:16:02.000Z</time>
      </trkpt>
      <trkpt lat="43.79727" lon="6.41262">
        <ele>697</ele>
        <time>2021-09-07T06:16:05.000Z</time>
      </trkpt>
      <trkpt lat="43.79724" lon="6.41254">
        <ele>697</ele>
        <time>2021-09-07T06:16:05.000Z</time>
      </trkpt>
      <trkpt lat="43.79724" lon="6.41254">
        <ele>697</ele>
        <time>2021-09-07T06:16:05.000Z</time>
      </trkpt>
      <trkpt lat="43.79722" lon="6.41251">
        <ele>697.1</ele>
        <time>2021-09-07T06:16:06.000Z</time>
      </trkpt>
      <trkpt lat="43.79712" lon="6.41237">
        <ele>697.2</ele>
        <time>2021-09-07T06:16:10.000Z</time>
      </trkpt>
      <trkpt lat="43.79709" lon="6.41235">
        <ele>697.1</ele>
        <time>2021-09-07T06:16:11.000Z</time>
      </trkpt>
      <trkpt lat="43.79716" lon="6.41242">
        <ele>697.4</ele>
        <time>2021-09-07T06:16:11.000Z</time>
      </trkpt>
      <trkpt lat="43.79707" lon="6.41232">
        <ele>696.9</ele>
        <time>2021-09-07T06:16:12.000Z</time>
      </trkpt>
      <trkpt lat="43.79711" lon="6.41236">
        <ele>697.1</ele>
        <time>2021-09-07T06:16:13.000Z</time>
      </trkpt>
      <trkpt lat="43.79708" lon="6.41233">
        <ele>696.9</ele>
        <time>2021-09-07T06:16:14.000Z</time>
      </trkpt>
      <trkpt lat="43.79705" lon="6.4123">
        <ele>696.9</ele>
        <time>2021-09-07T06:16:15.000Z</time>
      </trkpt>
      <trkpt lat="43.79699" lon="6.41224">
        <ele>697.3</ele>
        <time>2021-09-07T06:16:15.000Z</time>
      </trkpt>
      <trkpt lat="43.79696" lon="6.41221">
        <ele>697.5</ele>
        <time>2021-09-07T06:16:16.000Z</time>
      </trkpt>
      <trkpt lat="43.79694" lon="6.41219">
        <ele>697.7</ele>
        <time>2021-09-07T06:16:17.000Z</time>
      </trkpt>
      <trkpt lat="43.79698" lon="6.41223">
        <ele>697.4</ele>
        <time>2021-09-07T06:16:18.000Z</time>
      </trkpt>
      <trkpt lat="43.79682" lon="6.41203">
        <ele>698.7</ele>
        <time>2021-09-07T06:16:22.000Z</time>
      </trkpt>
      <trkpt lat="43.7968" lon="6.41199">
        <ele>698.6</ele>
        <time>2021-09-07T06:16:23.000Z</time>
      </trkpt>
      <trkpt lat="43.79686" lon="6.41209">
        <ele>698.3</ele>
        <time>2021-09-07T06:16:23.000Z</time>
      </trkpt>
      <trkpt lat="43.79681" lon="6.412">
        <ele>698.6</ele>
        <time>2021-09-07T06:16:25.000Z</time>
      </trkpt>
      <trkpt lat="43.79678" lon="6.41196">
        <ele>698.8</ele>
        <time>2021-09-07T06:16:26.000Z</time>
      </trkpt>
      <trkpt lat="43.79675" lon="6.41188">
        <ele>699.3</ele>
        <time>2021-09-07T06:16:26.000Z</time>
      </trkpt>
      <trkpt lat="43.79674" lon="6.41185">
        <ele>699.5</ele>
        <time>2021-09-07T06:16:27.000Z</time>
      </trkpt>
      <trkpt lat="43.79671" lon="6.41167">
        <ele>700.6</ele>
        <time>2021-09-07T06:16:32.000Z</time>
      </trkpt>
      <trkpt lat="43.79664" lon="6.41147">
        <ele>701.1</ele>
        <time>2021-09-07T06:16:37.000Z</time>
      </trkpt>
      <trkpt lat="43.79655" lon="6.41132">
        <ele>701.7</ele>
        <time>2021-09-07T06:16:42.000Z</time>
      </trkpt>
      <trkpt lat="43.79643" lon="6.41119">
        <ele>702.7</ele>
        <time>2021-09-07T06:16:47.000Z</time>
      </trkpt>
      <trkpt lat="43.79636" lon="6.41104">
        <ele>703.6</ele>
        <time>2021-09-07T06:16:52.000Z</time>
      </trkpt>
      <trkpt lat="43.79634" lon="6.41086">
        <ele>704.4</ele>
        <time>2021-09-07T06:16:57.000Z</time>
      </trkpt>
      <trkpt lat="43.79635" lon="6.41069">
        <ele>705.1</ele>
        <time>2021-09-07T06:17:02.000Z</time>
      </trkpt>
      <trkpt lat="43.79634" lon="6.41052">
        <ele>705.9</ele>
        <time>2021-09-07T06:17:07.000Z</time>
      </trkpt>
      <trkpt lat="43.79629" lon="6.41035">
        <ele>706.8</ele>
        <time>2021-09-07T06:17:12.000Z</time>
      </trkpt>
      <trkpt lat="43.79626" lon="6.41015">
        <ele>708</ele>
        <time>2021-09-07T06:17:17.000Z</time>
      </trkpt>
      <trkpt lat="43.7963" lon="6.40999">
        <ele>708.8</ele>
        <time>2021-09-07T06:17:22.000Z</time>
      </trkpt>
      <trkpt lat="43.79631" lon="6.40988">
        <ele>709.4</ele>
        <time>2021-09-07T06:17:27.000Z</time>
      </trkpt>
      <trkpt lat="43.79624" lon="6.40974">
        <ele>710</ele>
        <time>2021-09-07T06:17:32.000Z</time>
      </trkpt>
      <trkpt lat="43.79612" lon="6.40964">
        <ele>710</ele>
        <time>2021-09-07T06:17:37.000Z</time>
      </trkpt>
      <trkpt lat="43.796" lon="6.4095">
        <ele>710.8</ele>
        <time>2021-09-07T06:17:42.000Z</time>
      </trkpt>
      <trkpt lat="43.79599" lon="6.40928">
        <ele>711.9</ele>
        <time>2021-09-07T06:17:47.000Z</time>
      </trkpt>
      <trkpt lat="43.79602" lon="6.40907">
        <ele>712.3</ele>
        <time>2021-09-07T06:17:52.000Z</time>
      </trkpt>
      <trkpt lat="43.79605" lon="6.4089">
        <ele>713.2</ele>
        <time>2021-09-07T06:17:57.000Z</time>
      </trkpt>
      <trkpt lat="43.79608" lon="6.40873">
        <ele>714.2</ele>
        <time>2021-09-07T06:18:02.000Z</time>
      </trkpt>
      <trkpt lat="43.79615" lon="6.40853">
        <ele>715.2</ele>
        <time>2021-09-07T06:18:07.000Z</time>
      </trkpt>
      <trkpt lat="43.79621" lon="6.40837">
        <ele>715.6</ele>
        <time>2021-09-07T06:18:12.000Z</time>
      </trkpt>
      <trkpt lat="43.79626" lon="6.4082">
        <ele>716.6</ele>
        <time>2021-09-07T06:18:17.000Z</time>
      </trkpt>
      <trkpt lat="43.7962" lon="6.40807">
        <ele>716.7</ele>
        <time>2021-09-07T06:18:22.000Z</time>
      </trkpt>
      <trkpt lat="43.79616" lon="6.40802">
        <ele>716.9</ele>
        <time>2021-09-07T06:18:25.000Z</time>
      </trkpt>
      <trkpt lat="43.79614" lon="6.408">
        <ele>717.2</ele>
        <time>2021-09-07T06:18:26.000Z</time>
      </trkpt>
      <trkpt lat="43.79611" lon="6.40798">
        <ele>717.3</ele>
        <time>2021-09-07T06:18:27.000Z</time>
      </trkpt>
      <trkpt lat="43.79617" lon="6.40803">
        <ele>717</ele>
        <time>2021-09-07T06:18:27.000Z</time>
      </trkpt>
      <trkpt lat="43.79615" lon="6.40801">
        <ele>717</ele>
        <time>2021-09-07T06:18:28.000Z</time>
      </trkpt>
      <trkpt lat="43.79605" lon="6.40794">
        <ele>717.4</ele>
        <time>2021-09-07T06:18:29.000Z</time>
      </trkpt>
      <trkpt lat="43.79604" lon="6.40793">
        <ele>717.7</ele>
        <time>2021-09-07T06:18:32.000Z</time>
      </trkpt>
      <trkpt lat="43.79598" lon="6.40787">
        <ele>718.1</ele>
        <time>2021-09-07T06:18:32.000Z</time>
      </trkpt>
      <trkpt lat="43.79596" lon="6.40785">
        <ele>718.2</ele>
        <time>2021-09-07T06:18:33.000Z</time>
      </trkpt>
      <trkpt lat="43.79594" lon="6.40783">
        <ele>718.2</ele>
        <time>2021-09-07T06:18:34.000Z</time>
      </trkpt>
      <trkpt lat="43.79597" lon="6.40785">
        <ele>718.2</ele>
        <time>2021-09-07T06:18:35.000Z</time>
      </trkpt>
      <trkpt lat="43.79595" lon="6.40784">
        <ele>718.2</ele>
        <time>2021-09-07T06:18:36.000Z</time>
      </trkpt>
      <trkpt lat="43.79593" lon="6.40782">
        <ele>718.3</ele>
        <time>2021-09-07T06:18:37.000Z</time>
      </trkpt>
      <trkpt lat="43.79588" lon="6.40779">
        <ele>718.4</ele>
        <time>2021-09-07T06:18:37.000Z</time>
      </trkpt>
      <trkpt lat="43.79585" lon="6.40777">
        <ele>718.7</ele>
        <time>2021-09-07T06:18:38.000Z</time>
      </trkpt>
      <trkpt lat="43.79578" lon="6.4077">
        <ele>719.1</ele>
        <time>2021-09-07T06:18:41.000Z</time>
      </trkpt>
      <trkpt lat="43.79576" lon="6.40769">
        <ele>719.5</ele>
        <time>2021-09-07T06:18:42.000Z</time>
      </trkpt>
      <trkpt lat="43.79573" lon="6.40768">
        <ele>719.5</ele>
        <time>2021-09-07T06:18:43.000Z</time>
      </trkpt>
      <trkpt lat="43.79577" lon="6.40769">
        <ele>719.2</ele>
        <time>2021-09-07T06:18:44.000Z</time>
      </trkpt>
      <trkpt lat="43.79568" lon="6.40764">
        <ele>720</ele>
        <time>2021-09-07T06:18:45.000Z</time>
      </trkpt>
      <trkpt lat="43.79563" lon="6.40762">
        <ele>720</ele>
        <time>2021-09-07T06:18:47.000Z</time>
      </trkpt>
      <trkpt lat="43.79566" lon="6.40763">
        <ele>720</ele>
        <time>2021-09-07T06:18:48.000Z</time>
      </trkpt>
      <trkpt lat="43.79561" lon="6.40761">
        <ele>720.2</ele>
        <time>2021-09-07T06:18:50.000Z</time>
      </trkpt>
      <trkpt lat="43.79557" lon="6.40756">
        <ele>720.3</ele>
        <time>2021-09-07T06:18:50.000Z</time>
      </trkpt>
      <trkpt lat="43.79552" lon="6.40754">
        <ele>720.7</ele>
        <time>2021-09-07T06:18:52.000Z</time>
      </trkpt>
      <trkpt lat="43.79549" lon="6.40753">
        <ele>720.7</ele>
        <time>2021-09-07T06:18:53.000Z</time>
      </trkpt>
      <trkpt lat="43.79555" lon="6.40755">
        <ele>720.5</ele>
        <time>2021-09-07T06:18:53.000Z</time>
      </trkpt>
      <trkpt lat="43.7955" lon="6.40753">
        <ele>720.7</ele>
        <time>2021-09-07T06:18:55.000Z</time>
      </trkpt>
      <trkpt lat="43.79546" lon="6.40752">
        <ele>720.7</ele>
        <time>2021-09-07T06:18:56.000Z</time>
      </trkpt>
      <trkpt lat="43.79537" lon="6.4075">
        <ele>720.9</ele>
        <time>2021-09-07T06:18:57.000Z</time>
      </trkpt>
      <trkpt lat="43.79535" lon="6.40748">
        <ele>721.2</ele>
        <time>2021-09-07T06:18:58.000Z</time>
      </trkpt>
      <trkpt lat="43.7953" lon="6.40747">
        <ele>721.5</ele>
        <time>2021-09-07T06:19:00.000Z</time>
      </trkpt>
      <trkpt lat="43.79536" lon="6.40749">
        <ele>721.1</ele>
        <time>2021-09-07T06:19:00.000Z</time>
      </trkpt>
      <trkpt lat="43.79528" lon="6.40747">
        <ele>721.5</ele>
        <time>2021-09-07T06:19:01.000Z</time>
      </trkpt>
      <trkpt lat="43.79533" lon="6.40747">
        <ele>721.2</ele>
        <time>2021-09-07T06:19:01.000Z</time>
      </trkpt>
      <trkpt lat="43.79526" lon="6.40747">
        <ele>721.6</ele>
        <time>2021-09-07T06:19:02.000Z</time>
      </trkpt>
      <trkpt lat="43.79529" lon="6.40747">
        <ele>721.5</ele>
        <time>2021-09-07T06:19:03.000Z</time>
      </trkpt>
      <trkpt lat="43.79522" lon="6.40747">
        <ele>722.1</ele>
        <time>2021-09-07T06:19:04.000Z</time>
      </trkpt>
      <trkpt lat="43.79527" lon="6.40747">
        <ele>721.5</ele>
        <time>2021-09-07T06:19:04.000Z</time>
      </trkpt>
      <trkpt lat="43.7952" lon="6.40745">
        <ele>722.2</ele>
        <time>2021-09-07T06:19:05.000Z</time>
      </trkpt>
      <trkpt lat="43.79525" lon="6.40747">
        <ele>721.7</ele>
        <time>2021-09-07T06:19:05.000Z</time>
      </trkpt>
      <trkpt lat="43.79517" lon="6.40744">
        <ele>722.3</ele>
        <time>2021-09-07T06:19:06.000Z</time>
      </trkpt>
      <trkpt lat="43.79514" lon="6.40744">
        <ele>722.5</ele>
        <time>2021-09-07T06:19:07.000Z</time>
      </trkpt>
      <trkpt lat="43.79521" lon="6.40746">
        <ele>722.2</ele>
        <time>2021-09-07T06:19:07.000Z</time>
      </trkpt>
      <trkpt lat="43.79519" lon="6.40745">
        <ele>722.3</ele>
        <time>2021-09-07T06:19:08.000Z</time>
      </trkpt>
      <trkpt lat="43.79516" lon="6.40744">
        <ele>722.3</ele>
        <time>2021-09-07T06:19:09.000Z</time>
      </trkpt>
      <trkpt lat="43.79512" lon="6.40744">
        <ele>722.8</ele>
        <time>2021-09-07T06:19:10.000Z</time>
      </trkpt>
      <trkpt lat="43.79505" lon="6.40743">
        <ele>723.5</ele>
        <time>2021-09-07T06:19:10.000Z</time>
      </trkpt>
      <trkpt lat="43.79492" lon="6.40743">
        <ele>724.5</ele>
        <time>2021-09-07T06:19:15.000Z</time>
      </trkpt>
      <trkpt lat="43.79495" lon="6.40742">
        <ele>724.7</ele>
        <time>2021-09-07T06:19:16.000Z</time>
      </trkpt>
      <trkpt lat="43.79489" lon="6.40743">
        <ele>724.7</ele>
        <time>2021-09-07T06:19:16.000Z</time>
      </trkpt>
      <trkpt lat="43.79476" lon="6.40737">
        <ele>725.7</ele>
        <time>2021-09-07T06:19:21.000Z</time>
      </trkpt>
      <trkpt lat="43.79462" lon="6.40734">
        <ele>726.3</ele>
        <time>2021-09-07T06:19:26.000Z</time>
      </trkpt>
      <trkpt lat="43.79447" lon="6.40738">
        <ele>726.9</ele>
        <time>2021-09-07T06:19:31.000Z</time>
      </trkpt>
      <trkpt lat="43.79435" lon="6.40745">
        <ele>727.7</ele>
        <time>2021-09-07T06:19:36.000Z</time>
      </trkpt>
      <trkpt lat="43.79424" lon="6.40758">
        <ele>728.2</ele>
        <time>2021-09-07T06:19:41.000Z</time>
      </trkpt>
      <trkpt lat="43.79412" lon="6.40773">
        <ele>729.2</ele>
        <time>2021-09-07T06:19:46.000Z</time>
      </trkpt>
      <trkpt lat="43.79401" lon="6.40781">
        <ele>729.5</ele>
        <time>2021-09-07T06:19:51.000Z</time>
      </trkpt>
      <trkpt lat="43.79388" lon="6.40778">
        <ele>730.3</ele>
        <time>2021-09-07T06:19:56.000Z</time>
      </trkpt>
      <trkpt lat="43.79376" lon="6.40769">
        <ele>731.1</ele>
        <time>2021-09-07T06:20:01.000Z</time>
      </trkpt>
      <trkpt lat="43.79366" lon="6.4076">
        <ele>732.1</ele>
        <time>2021-09-07T06:20:06.000Z</time>
      </trkpt>
      <trkpt lat="43.79353" lon="6.40752">
        <ele>733</ele>
        <time>2021-09-07T06:20:11.000Z</time>
      </trkpt>
      <trkpt lat="43.79342" lon="6.40739">
        <ele>733.8</ele>
        <time>2021-09-07T06:20:16.000Z</time>
      </trkpt>
      <trkpt lat="43.79332" lon="6.40728">
        <ele>734.6</ele>
        <time>2021-09-07T06:20:21.000Z</time>
      </trkpt>
      <trkpt lat="43.79328" lon="6.40726">
        <ele>734.6</ele>
        <time>2021-09-07T06:20:26.000Z</time>
      </trkpt>
      <trkpt lat="43.79328" lon="6.40726">
        <ele>734.9</ele>
        <time>2021-09-07T06:20:28.000Z</time>
      </trkpt>
      <trkpt lat="43.79324" lon="6.40712">
        <ele>735.4</ele>
        <time>2021-09-07T06:20:33.000Z</time>
      </trkpt>
      <trkpt lat="43.79324" lon="6.40709">
        <ele>735.7</ele>
        <time>2021-09-07T06:20:34.000Z</time>
      </trkpt>
      <trkpt lat="43.79325" lon="6.40715">
        <ele>735.3</ele>
        <time>2021-09-07T06:20:35.000Z</time>
      </trkpt>
      <trkpt lat="43.79323" lon="6.40703">
        <ele>736.1</ele>
        <time>2021-09-07T06:20:36.000Z</time>
      </trkpt>
      <trkpt lat="43.79323" lon="6.40701">
        <ele>736.3</ele>
        <time>2021-09-07T06:20:37.000Z</time>
      </trkpt>
      <trkpt lat="43.79324" lon="6.40695">
        <ele>736.6</ele>
        <time>2021-09-07T06:20:39.000Z</time>
      </trkpt>
      <trkpt lat="43.79324" lon="6.40694">
        <ele>736.8</ele>
        <time>2021-09-07T06:20:42.000Z</time>
      </trkpt>
      <trkpt lat="43.79325" lon="6.40693">
        <ele>736.9</ele>
        <time>2021-09-07T06:20:44.000Z</time>
      </trkpt>
      <trkpt lat="43.79326" lon="6.40691">
        <ele>738.7</ele>
        <time>2021-09-07T06:20:48.000Z</time>
      </trkpt>
      <trkpt lat="43.79324" lon="6.40693">
        <ele>738.4</ele>
        <time>2021-09-07T06:20:49.000Z</time>
      </trkpt>
      <trkpt lat="43.79331" lon="6.40686">
        <ele>739.1</ele>
        <time>2021-09-07T06:20:49.000Z</time>
      </trkpt>
      <trkpt lat="43.79334" lon="6.4068">
        <ele>739.4</ele>
        <time>2021-09-07T06:20:50.000Z</time>
      </trkpt>
      <trkpt lat="43.79341" lon="6.4067">
        <ele>739.6</ele>
        <time>2021-09-07T06:20:51.000Z</time>
      </trkpt>
      <trkpt lat="43.79346" lon="6.40661">
        <ele>739.8</ele>
        <time>2021-09-07T06:20:53.000Z</time>
      </trkpt>
      <trkpt lat="43.79344" lon="6.40665">
        <ele>739.8</ele>
        <time>2021-09-07T06:20:54.000Z</time>
      </trkpt>
      <trkpt lat="43.79347" lon="6.40659">
        <ele>739.5</ele>
        <time>2021-09-07T06:20:54.000Z</time>
      </trkpt>
      <trkpt lat="43.79352" lon="6.40646">
        <ele>739.3</ele>
        <time>2021-09-07T06:20:59.000Z</time>
      </trkpt>
      <trkpt lat="43.79355" lon="6.40644">
        <ele>739.6</ele>
        <time>2021-09-07T06:21:00.000Z</time>
      </trkpt>
      <trkpt lat="43.79357" lon="6.40642">
        <ele>739.7</ele>
        <time>2021-09-07T06:21:01.000Z</time>
      </trkpt>
      <trkpt lat="43.7935" lon="6.40648">
        <ele>739.2</ele>
        <time>2021-09-07T06:21:01.000Z</time>
      </trkpt>
      <trkpt lat="43.79354" lon="6.40645">
        <ele>739.4</ele>
        <time>2021-09-07T06:21:02.000Z</time>
      </trkpt>
      <trkpt lat="43.79363" lon="6.40631">
        <ele>739.8</ele>
        <time>2021-09-07T06:21:04.000Z</time>
      </trkpt>
      <trkpt lat="43.79365" lon="6.40627">
        <ele>740.1</ele>
        <time>2021-09-07T06:21:05.000Z</time>
      </trkpt>
      <trkpt lat="43.79367" lon="6.40623">
        <ele>740.3</ele>
        <time>2021-09-07T06:21:06.000Z</time>
      </trkpt>
      <trkpt lat="43.79368" lon="6.40621">
        <ele>740.3</ele>
        <time>2021-09-07T06:21:07.000Z</time>
      </trkpt>
      <trkpt lat="43.79364" lon="6.40629">
        <ele>739.9</ele>
        <time>2021-09-07T06:21:07.000Z</time>
      </trkpt>
      <trkpt lat="43.79366" lon="6.40625">
        <ele>740.2</ele>
        <time>2021-09-07T06:21:08.000Z</time>
      </trkpt>
      <trkpt lat="43.7937" lon="6.40615">
        <ele>740.4</ele>
        <time>2021-09-07T06:21:09.000Z</time>
      </trkpt>
      <trkpt lat="43.79372" lon="6.40612">
        <ele>740.8</ele>
        <time>2021-09-07T06:21:10.000Z</time>
      </trkpt>
      <trkpt lat="43.79373" lon="6.40609">
        <ele>740.8</ele>
        <time>2021-09-07T06:21:11.000Z</time>
      </trkpt>
      <trkpt lat="43.79371" lon="6.40614">
        <ele>740.7</ele>
        <time>2021-09-07T06:21:12.000Z</time>
      </trkpt>
      <trkpt lat="43.79375" lon="6.40602">
        <ele>741.2</ele>
        <time>2021-09-07T06:21:13.000Z</time>
      </trkpt>
      <trkpt lat="43.79378" lon="6.40596">
        <ele>741.7</ele>
        <time>2021-09-07T06:21:15.000Z</time>
      </trkpt>
      <trkpt lat="43.79375" lon="6.40601">
        <ele>741.3</ele>
        <time>2021-09-07T06:21:16.000Z</time>
      </trkpt>
      <trkpt lat="43.79379" lon="6.40593">
        <ele>741.9</ele>
        <time>2021-09-07T06:21:18.000Z</time>
      </trkpt>
      <trkpt lat="43.79381" lon="6.40589">
        <ele>741.9</ele>
        <time>2021-09-07T06:21:18.000Z</time>
      </trkpt>
      <trkpt lat="43.79382" lon="6.40586">
        <ele>742.1</ele>
        <time>2021-09-07T06:21:19.000Z</time>
      </trkpt>
      <trkpt lat="43.79385" lon="6.40576">
        <ele>742.6</ele>
        <time>2021-09-07T06:21:22.000Z</time>
      </trkpt>
      <trkpt lat="43.79386" lon="6.40573">
        <ele>742.6</ele>
        <time>2021-09-07T06:21:23.000Z</time>
      </trkpt>
      <trkpt lat="43.79385" lon="6.40575">
        <ele>742.7</ele>
        <time>2021-09-07T06:21:24.000Z</time>
      </trkpt>
      <trkpt lat="43.79386" lon="6.40569">
        <ele>742.7</ele>
        <time>2021-09-07T06:21:24.000Z</time>
      </trkpt>
      <trkpt lat="43.79384" lon="6.40552">
        <ele>743.2</ele>
        <time>2021-09-07T06:21:29.000Z</time>
      </trkpt>
      <trkpt lat="43.79386" lon="6.40539">
        <ele>743.7</ele>
        <time>2021-09-07T06:21:33.000Z</time>
      </trkpt>
      <trkpt lat="43.79386" lon="6.4054">
        <ele>743.6</ele>
        <time>2021-09-07T06:21:34.000Z</time>
      </trkpt>
      <trkpt lat="43.79386" lon="6.40536">
        <ele>743.9</ele>
        <time>2021-09-07T06:21:34.000Z</time>
      </trkpt>
      <trkpt lat="43.79386" lon="6.4053">
        <ele>744.3</ele>
        <time>2021-09-07T06:21:36.000Z</time>
      </trkpt>
      <trkpt lat="43.79386" lon="6.40527">
        <ele>744.5</ele>
        <time>2021-09-07T06:21:37.000Z</time>
      </trkpt>
      <trkpt lat="43.79386" lon="6.40528">
        <ele>744.4</ele>
        <time>2021-09-07T06:21:38.000Z</time>
      </trkpt>
      <trkpt lat="43.79386" lon="6.40525">
        <ele>744.5</ele>
        <time>2021-09-07T06:21:39.000Z</time>
      </trkpt>
      <trkpt lat="43.79387" lon="6.40512">
        <ele>744.8</ele>
        <time>2021-09-07T06:21:41.000Z</time>
      </trkpt>
      <trkpt lat="43.79388" lon="6.40509">
        <ele>745</ele>
        <time>2021-09-07T06:21:42.000Z</time>
      </trkpt>
      <trkpt lat="43.7939" lon="6.40501">
        <ele>745.1</ele>
        <time>2021-09-07T06:21:44.000Z</time>
      </trkpt>
      <trkpt lat="43.7939" lon="6.40497">
        <ele>745.2</ele>
        <time>2021-09-07T06:21:45.000Z</time>
      </trkpt>
      <trkpt lat="43.79391" lon="6.40494">
        <ele>745.5</ele>
        <time>2021-09-07T06:21:46.000Z</time>
      </trkpt>
      <trkpt lat="43.79391" lon="6.4049">
        <ele>745.5</ele>
        <time>2021-09-07T06:21:47.000Z</time>
      </trkpt>
      <trkpt lat="43.79393" lon="6.40482">
        <ele>745.9</ele>
        <time>2021-09-07T06:21:49.000Z</time>
      </trkpt>
      <trkpt lat="43.79393" lon="6.40479">
        <ele>746.3</ele>
        <time>2021-09-07T06:21:51.000Z</time>
      </trkpt>
      <trkpt lat="43.79394" lon="6.40469">
        <ele>746.5</ele>
        <time>2021-09-07T06:21:52.000Z</time>
      </trkpt>
      <trkpt lat="43.79393" lon="6.40465">
        <ele>746.7</ele>
        <time>2021-09-07T06:21:53.000Z</time>
      </trkpt>
      <trkpt lat="43.79393" lon="6.40462">
        <ele>747</ele>
        <time>2021-09-07T06:21:54.000Z</time>
      </trkpt>
      <trkpt lat="43.79392" lon="6.40459">
        <ele>747</ele>
        <time>2021-09-07T06:21:56.000Z</time>
      </trkpt>
      <trkpt lat="43.79382" lon="6.40438">
        <ele>748.5</ele>
        <time>2021-09-07T06:22:01.000Z</time>
      </trkpt>
      <trkpt lat="43.79383" lon="6.4044">
        <ele>748.4</ele>
        <time>2021-09-07T06:22:02.000Z</time>
      </trkpt>
      <trkpt lat="43.79381" lon="6.40435">
        <ele>748.2</ele>
        <time>2021-09-07T06:22:02.000Z</time>
      </trkpt>
      <trkpt lat="43.79379" lon="6.40431">
        <ele>748.2</ele>
        <time>2021-09-07T06:22:03.000Z</time>
      </trkpt>
      <trkpt lat="43.79377" lon="6.40427">
        <ele>748.7</ele>
        <time>2021-09-07T06:22:04.000Z</time>
      </trkpt>
      <trkpt lat="43.79378" lon="6.40428">
        <ele>748.4</ele>
        <time>2021-09-07T06:22:05.000Z</time>
      </trkpt>
      <trkpt lat="43.79376" lon="6.40424">
        <ele>748.8</ele>
        <time>2021-09-07T06:22:05.000Z</time>
      </trkpt>
      <trkpt lat="43.79374" lon="6.40417">
        <ele>749.1</ele>
        <time>2021-09-07T06:22:07.000Z</time>
      </trkpt>
      <trkpt lat="43.79372" lon="6.40414">
        <ele>749.1</ele>
        <time>2021-09-07T06:22:08.000Z</time>
      </trkpt>
      <trkpt lat="43.79367" lon="6.40401">
        <ele>749.9</ele>
        <time>2021-09-07T06:22:13.000Z</time>
      </trkpt>
      <trkpt lat="43.79364" lon="6.4039">
        <ele>750.5</ele>
        <time>2021-09-07T06:22:15.000Z</time>
      </trkpt>
      <trkpt lat="43.79363" lon="6.40386">
        <ele>750.5</ele>
        <time>2021-09-07T06:22:16.000Z</time>
      </trkpt>
      <trkpt lat="43.79363" lon="6.40388">
        <ele>750.5</ele>
        <time>2021-09-07T06:22:17.000Z</time>
      </trkpt>
      <trkpt lat="43.79363" lon="6.40382">
        <ele>750.8</ele>
        <time>2021-09-07T06:22:17.000Z</time>
      </trkpt>
      <trkpt lat="43.79363" lon="6.40368">
        <ele>751.3</ele>
        <time>2021-09-07T06:22:21.000Z</time>
      </trkpt>
      <trkpt lat="43.79365" lon="6.40366">
        <ele>751.3</ele>
        <time>2021-09-07T06:22:22.000Z</time>
      </trkpt>
      <trkpt lat="43.79363" lon="6.4037">
        <ele>751.3</ele>
        <time>2021-09-07T06:22:22.000Z</time>
      </trkpt>
      <trkpt lat="43.79367" lon="6.40364">
        <ele>751.2</ele>
        <time>2021-09-07T06:22:23.000Z</time>
      </trkpt>
      <trkpt lat="43.79364" lon="6.40367">
        <ele>751.3</ele>
        <time>2021-09-07T06:22:23.000Z</time>
      </trkpt>
      <trkpt lat="43.79366" lon="6.40365">
        <ele>751.3</ele>
        <time>2021-09-07T06:22:24.000Z</time>
      </trkpt>
      <trkpt lat="43.79369" lon="6.40362">
        <ele>751.4</ele>
        <time>2021-09-07T06:22:24.000Z</time>
      </trkpt>
      <trkpt lat="43.79376" lon="6.40349">
        <ele>752.3</ele>
        <time>2021-09-07T06:22:28.000Z</time>
      </trkpt>
      <trkpt lat="43.79375" lon="6.4035">
        <ele>752.1</ele>
        <time>2021-09-07T06:22:29.000Z</time>
      </trkpt>
      <trkpt lat="43.79378" lon="6.40346">
        <ele>752.5</ele>
        <time>2021-09-07T06:22:29.000Z</time>
      </trkpt>
      <trkpt lat="43.79379" lon="6.40343">
        <ele>752.5</ele>
        <time>2021-09-07T06:22:30.000Z</time>
      </trkpt>
      <trkpt lat="43.79381" lon="6.40341">
        <ele>752.7</ele>
        <time>2021-09-07T06:22:31.000Z</time>
      </trkpt>
      <trkpt lat="43.79382" lon="6.40339">
        <ele>752.8</ele>
        <time>2021-09-07T06:22:32.000Z</time>
      </trkpt>
      <trkpt lat="43.79383" lon="6.40336">
        <ele>753</ele>
        <time>2021-09-07T06:22:33.000Z</time>
      </trkpt>
      <trkpt lat="43.79385" lon="6.40334">
        <ele>753.2</ele>
        <time>2021-09-07T06:22:34.000Z</time>
      </trkpt>
      <trkpt lat="43.79383" lon="6.40337">
        <ele>752.9</ele>
        <time>2021-09-07T06:22:34.000Z</time>
      </trkpt>
      <trkpt lat="43.79387" lon="6.40331">
        <ele>753.4</ele>
        <time>2021-09-07T06:22:35.000Z</time>
      </trkpt>
      <trkpt lat="43.79384" lon="6.40335">
        <ele>753</ele>
        <time>2021-09-07T06:22:35.000Z</time>
      </trkpt>
      <trkpt lat="43.79386" lon="6.40332">
        <ele>753.3</ele>
        <time>2021-09-07T06:22:36.000Z</time>
      </trkpt>
      <trkpt lat="43.79388" lon="6.40329">
        <ele>753.5</ele>
        <time>2021-09-07T06:22:37.000Z</time>
      </trkpt>
      <trkpt lat="43.7939" lon="6.40325">
        <ele>753.9</ele>
        <time>2021-09-07T06:22:37.000Z</time>
      </trkpt>
      <trkpt lat="43.79392" lon="6.40322">
        <ele>753.9</ele>
        <time>2021-09-07T06:22:39.000Z</time>
      </trkpt>
      <trkpt lat="43.79394" lon="6.4032">
        <ele>753.8</ele>
        <time>2021-09-07T06:22:39.000Z</time>
      </trkpt>
      <trkpt lat="43.79395" lon="6.40317">
        <ele>754.2</ele>
        <time>2021-09-07T06:22:40.000Z</time>
      </trkpt>
      <trkpt lat="43.79395" lon="6.40317">
        <ele>754.1</ele>
        <time>2021-09-07T06:22:41.000Z</time>
      </trkpt>
      <trkpt lat="43.79397" lon="6.40315">
        <ele>754.3</ele>
        <time>2021-09-07T06:22:42.000Z</time>
      </trkpt>
      <trkpt lat="43.79405" lon="6.40304">
        <ele>755.1</ele>
        <time>2021-09-07T06:22:45.000Z</time>
      </trkpt>
      <trkpt lat="43.79407" lon="6.40301">
        <ele>755.3</ele>
        <time>2021-09-07T06:22:46.000Z</time>
      </trkpt>
      <trkpt lat="43.79408" lon="6.40299">
        <ele>755.6</ele>
        <time>2021-09-07T06:22:47.000Z</time>
      </trkpt>
      <trkpt lat="43.79406" lon="6.40303">
        <ele>755.2</ele>
        <time>2021-09-07T06:22:47.000Z</time>
      </trkpt>
      <trkpt lat="43.79408" lon="6.40299">
        <ele>755.5</ele>
        <time>2021-09-07T06:22:48.000Z</time>
      </trkpt>
      <trkpt lat="43.7941" lon="6.40297">
        <ele>755.7</ele>
        <time>2021-09-07T06:22:48.000Z</time>
      </trkpt>
      <trkpt lat="43.79412" lon="6.40287">
        <ele>755.7</ele>
        <time>2021-09-07T06:22:51.000Z</time>
      </trkpt>
      <trkpt lat="43.79413" lon="6.40284">
        <ele>756.2</ele>
        <time>2021-09-07T06:22:52.000Z</time>
      </trkpt>
      <trkpt lat="43.79413" lon="6.40285">
        <ele>756</ele>
        <time>2021-09-07T06:22:53.000Z</time>
      </trkpt>
      <trkpt lat="43.79415" lon="6.40281">
        <ele>756.3</ele>
        <time>2021-09-07T06:22:53.000Z</time>
      </trkpt>
      <trkpt lat="43.79416" lon="6.40277">
        <ele>756.2</ele>
        <time>2021-09-07T06:22:54.000Z</time>
      </trkpt>
      <trkpt lat="43.79417" lon="6.40275">
        <ele>756.3</ele>
        <time>2021-09-07T06:22:56.000Z</time>
      </trkpt>
      <trkpt lat="43.79419" lon="6.40267">
        <ele>756.5</ele>
        <time>2021-09-07T06:22:57.000Z</time>
      </trkpt>
      <trkpt lat="43.7942" lon="6.40263">
        <ele>756.7</ele>
        <time>2021-09-07T06:22:58.000Z</time>
      </trkpt>
      <trkpt lat="43.79421" lon="6.40246">
        <ele>757.6</ele>
        <time>2021-09-07T06:23:04.000Z</time>
      </trkpt>
      <trkpt lat="43.79421" lon="6.40239">
        <ele>757.8</ele>
        <time>2021-09-07T06:23:05.000Z</time>
      </trkpt>
      <trkpt lat="43.79421" lon="6.40235">
        <ele>757.6</ele>
        <time>2021-09-07T06:23:06.000Z</time>
      </trkpt>
      <trkpt lat="43.7942" lon="6.40231">
        <ele>757.8</ele>
        <time>2021-09-07T06:23:07.000Z</time>
      </trkpt>
      <trkpt lat="43.79421" lon="6.40237">
        <ele>757.6</ele>
        <time>2021-09-07T06:23:07.000Z</time>
      </trkpt>
      <trkpt lat="43.7942" lon="6.40232">
        <ele>757.7</ele>
        <time>2021-09-07T06:23:08.000Z</time>
      </trkpt>
      <trkpt lat="43.7942" lon="6.40228">
        <ele>757.9</ele>
        <time>2021-09-07T06:23:09.000Z</time>
      </trkpt>
      <trkpt lat="43.7942" lon="6.40224">
        <ele>758.2</ele>
        <time>2021-09-07T06:23:09.000Z</time>
      </trkpt>
      <trkpt lat="43.7942" lon="6.40222">
        <ele>758.3</ele>
        <time>2021-09-07T06:23:11.000Z</time>
      </trkpt>
      <trkpt lat="43.7942" lon="6.40217">
        <ele>758.6</ele>
        <time>2021-09-07T06:23:11.000Z</time>
      </trkpt>
      <trkpt lat="43.79419" lon="6.40217">
        <ele>758.7</ele>
        <time>2021-09-07T06:23:13.000Z</time>
      </trkpt>
      <trkpt lat="43.79419" lon="6.4021">
        <ele>759.1</ele>
        <time>2021-09-07T06:23:13.000Z</time>
      </trkpt>
      <trkpt lat="43.79419" lon="6.40208">
        <ele>759.1</ele>
        <time>2021-09-07T06:23:15.000Z</time>
      </trkpt>
      <trkpt lat="43.79419" lon="6.40204">
        <ele>759.3</ele>
        <time>2021-09-07T06:23:15.000Z</time>
      </trkpt>
      <trkpt lat="43.79419" lon="6.40201">
        <ele>759.5</ele>
        <time>2021-09-07T06:23:16.000Z</time>
      </trkpt>
      <trkpt lat="43.79419" lon="6.40198">
        <ele>759.4</ele>
        <time>2021-09-07T06:23:17.000Z</time>
      </trkpt>
      <trkpt lat="43.7942" lon="6.40195">
        <ele>759.5</ele>
        <time>2021-09-07T06:23:18.000Z</time>
      </trkpt>
      <trkpt lat="43.79422" lon="6.40192">
        <ele>759.9</ele>
        <time>2021-09-07T06:23:19.000Z</time>
      </trkpt>
      <trkpt lat="43.79423" lon="6.40189">
        <ele>760</ele>
        <time>2021-09-07T06:23:21.000Z</time>
      </trkpt>
      <trkpt lat="43.79425" lon="6.40186">
        <ele>759.9</ele>
        <time>2021-09-07T06:23:21.000Z</time>
      </trkpt>
      <trkpt lat="43.79428" lon="6.40183">
        <ele>760.3</ele>
        <time>2021-09-07T06:23:22.000Z</time>
      </trkpt>
      <trkpt lat="43.79427" lon="6.40185">
        <ele>760.1</ele>
        <time>2021-09-07T06:23:23.000Z</time>
      </trkpt>
      <trkpt lat="43.79429" lon="6.4018">
        <ele>760.4</ele>
        <time>2021-09-07T06:23:24.000Z</time>
      </trkpt>
      <trkpt lat="43.79433" lon="6.40173">
        <ele>760.7</ele>
        <time>2021-09-07T06:23:25.000Z</time>
      </trkpt>
      <trkpt lat="43.79434" lon="6.40171">
        <ele>760.6</ele>
        <time>2021-09-07T06:23:27.000Z</time>
      </trkpt>
      <trkpt lat="43.79439" lon="6.40164">
        <ele>761</ele>
        <time>2021-09-07T06:23:28.000Z</time>
      </trkpt>
      <trkpt lat="43.79441" lon="6.40161">
        <ele>761</ele>
        <time>2021-09-07T06:23:30.000Z</time>
      </trkpt>
      <trkpt lat="43.79443" lon="6.40157">
        <ele>761.1</ele>
        <time>2021-09-07T06:23:30.000Z</time>
      </trkpt>
      <trkpt lat="43.79445" lon="6.40155">
        <ele>761.1</ele>
        <time>2021-09-07T06:23:32.000Z</time>
      </trkpt>
      <trkpt lat="43.79451" lon="6.40145">
        <ele>761.9</ele>
        <time>2021-09-07T06:23:34.000Z</time>
      </trkpt>
      <trkpt lat="43.79453" lon="6.40142">
        <ele>762</ele>
        <time>2021-09-07T06:23:35.000Z</time>
      </trkpt>
      <trkpt lat="43.79455" lon="6.4014">
        <ele>762.2</ele>
        <time>2021-09-07T06:23:36.000Z</time>
      </trkpt>
      <trkpt lat="43.79452" lon="6.40143">
        <ele>762</ele>
        <time>2021-09-07T06:23:36.000Z</time>
      </trkpt>
      <trkpt lat="43.79454" lon="6.40141">
        <ele>762.1</ele>
        <time>2021-09-07T06:23:37.000Z</time>
      </trkpt>
      <trkpt lat="43.79456" lon="6.40139">
        <ele>762.4</ele>
        <time>2021-09-07T06:23:38.000Z</time>
      </trkpt>
      <trkpt lat="43.79458" lon="6.40136">
        <ele>762.5</ele>
        <time>2021-09-07T06:23:38.000Z</time>
      </trkpt>
      <trkpt lat="43.7946" lon="6.40135">
        <ele>762.6</ele>
        <time>2021-09-07T06:23:39.000Z</time>
      </trkpt>
      <trkpt lat="43.79465" lon="6.40132">
        <ele>762.7</ele>
        <time>2021-09-07T06:23:41.000Z</time>
      </trkpt>
      <trkpt lat="43.79468" lon="6.4013">
        <ele>763</ele>
        <time>2021-09-07T06:23:42.000Z</time>
      </trkpt>
      <trkpt lat="43.79467" lon="6.40131">
        <ele>763</ele>
        <time>2021-09-07T06:23:43.000Z</time>
      </trkpt>
      <trkpt lat="43.7947" lon="6.40128">
        <ele>763.4</ele>
        <time>2021-09-07T06:23:43.000Z</time>
      </trkpt>
      <trkpt lat="43.79475" lon="6.40125">
        <ele>764.4</ele>
        <time>2021-09-07T06:23:45.000Z</time>
      </trkpt>
      <trkpt lat="43.79476" lon="6.40124">
        <ele>764.4</ele>
        <time>2021-09-07T06:23:47.000Z</time>
      </trkpt>
      <trkpt lat="43.79479" lon="6.40119">
        <ele>764.6</ele>
        <time>2021-09-07T06:23:47.000Z</time>
      </trkpt>
      <trkpt lat="43.79481" lon="6.40117">
        <ele>764.7</ele>
        <time>2021-09-07T06:23:48.000Z</time>
      </trkpt>
      <trkpt lat="43.7949" lon="6.40102">
        <ele>765.3</ele>
        <time>2021-09-07T06:23:53.000Z</time>
      </trkpt>
      <trkpt lat="43.79494" lon="6.40092">
        <ele>765.7</ele>
        <time>2021-09-07T06:23:56.000Z</time>
      </trkpt>
      <trkpt lat="43.79495" lon="6.4009">
        <ele>765.9</ele>
        <time>2021-09-07T06:23:58.000Z</time>
      </trkpt>
      <trkpt lat="43.79496" lon="6.40085">
        <ele>766.3</ele>
        <time>2021-09-07T06:23:58.000Z</time>
      </trkpt>
      <trkpt lat="43.79497" lon="6.40082">
        <ele>766.4</ele>
        <time>2021-09-07T06:23:59.000Z</time>
      </trkpt>
      <trkpt lat="43.79499" lon="6.40074">
        <ele>766.5</ele>
        <time>2021-09-07T06:24:01.000Z</time>
      </trkpt>
      <trkpt lat="43.795" lon="6.40071">
        <ele>766.6</ele>
        <time>2021-09-07T06:24:02.000Z</time>
      </trkpt>
      <trkpt lat="43.79499" lon="6.40073">
        <ele>766.5</ele>
        <time>2021-09-07T06:24:03.000Z</time>
      </trkpt>
      <trkpt lat="43.795" lon="6.40069">
        <ele>766.8</ele>
        <time>2021-09-07T06:24:04.000Z</time>
      </trkpt>
      <trkpt lat="43.79501" lon="6.40061">
        <ele>767.1</ele>
        <time>2021-09-07T06:24:05.000Z</time>
      </trkpt>
      <trkpt lat="43.79501" lon="6.40058">
        <ele>767.2</ele>
        <time>2021-09-07T06:24:06.000Z</time>
      </trkpt>
      <trkpt lat="43.79498" lon="6.40045">
        <ele>767.9</ele>
        <time>2021-09-07T06:24:10.000Z</time>
      </trkpt>
      <trkpt lat="43.79499" lon="6.40047">
        <ele>767.8</ele>
        <time>2021-09-07T06:24:11.000Z</time>
      </trkpt>
      <trkpt lat="43.79497" lon="6.40042">
        <ele>768</ele>
        <time>2021-09-07T06:24:11.000Z</time>
      </trkpt>
      <trkpt lat="43.79495" lon="6.40039">
        <ele>768.3</ele>
        <time>2021-09-07T06:24:12.000Z</time>
      </trkpt>
      <trkpt lat="43.79493" lon="6.40037">
        <ele>768.7</ele>
        <time>2021-09-07T06:24:13.000Z</time>
      </trkpt>
      <trkpt lat="43.79487" lon="6.40028">
        <ele>769.1</ele>
        <time>2021-09-07T06:24:16.000Z</time>
      </trkpt>
      <trkpt lat="43.79485" lon="6.40026">
        <ele>769.2</ele>
        <time>2021-09-07T06:24:17.000Z</time>
      </trkpt>
      <trkpt lat="43.79478" lon="6.4002">
        <ele>769.8</ele>
        <time>2021-09-07T06:24:20.000Z</time>
      </trkpt>
      <trkpt lat="43.79476" lon="6.40019">
        <ele>770</ele>
        <time>2021-09-07T06:24:22.000Z</time>
      </trkpt>
      <trkpt lat="43.79473" lon="6.40016">
        <ele>770.1</ele>
        <time>2021-09-07T06:24:22.000Z</time>
      </trkpt>
      <trkpt lat="43.79471" lon="6.40014">
        <ele>770.2</ele>
        <time>2021-09-07T06:24:23.000Z</time>
      </trkpt>
      <trkpt lat="43.79472" lon="6.40015">
        <ele>770.1</ele>
        <time>2021-09-07T06:24:24.000Z</time>
      </trkpt>
      <trkpt lat="43.79469" lon="6.40012">
        <ele>770.2</ele>
        <time>2021-09-07T06:24:25.000Z</time>
      </trkpt>
      <trkpt lat="43.79463" lon="6.39999">
        <ele>771.1</ele>
        <time>2021-09-07T06:24:28.000Z</time>
      </trkpt>
      <trkpt lat="43.79462" lon="6.39997">
        <ele>771.3</ele>
        <time>2021-09-07T06:24:30.000Z</time>
      </trkpt>
      <trkpt lat="43.79454" lon="6.39977">
        <ele>772.1</ele>
        <time>2021-09-07T06:24:34.000Z</time>
      </trkpt>
      <trkpt lat="43.79455" lon="6.39979">
        <ele>771.9</ele>
        <time>2021-09-07T06:24:35.000Z</time>
      </trkpt>
      <trkpt lat="43.79453" lon="6.39975">
        <ele>772</ele>
        <time>2021-09-07T06:24:36.000Z</time>
      </trkpt>
      <trkpt lat="43.7945" lon="6.39961">
        <ele>772.3</ele>
        <time>2021-09-07T06:24:39.000Z</time>
      </trkpt>
      <trkpt lat="43.79449" lon="6.39959">
        <ele>772.5</ele>
        <time>2021-09-07T06:24:41.000Z</time>
      </trkpt>
      <trkpt lat="43.79446" lon="6.39953">
        <ele>773</ele>
        <time>2021-09-07T06:24:42.000Z</time>
      </trkpt>
      <trkpt lat="43.79445" lon="6.3995">
        <ele>773.3</ele>
        <time>2021-09-07T06:24:44.000Z</time>
      </trkpt>
      <trkpt lat="43.79433" lon="6.39935">
        <ele>774.3</ele>
        <time>2021-09-07T06:24:49.000Z</time>
      </trkpt>
      <trkpt lat="43.79434" lon="6.39936">
        <ele>774</ele>
        <time>2021-09-07T06:24:50.000Z</time>
      </trkpt>
      <trkpt lat="43.79431" lon="6.39933">
        <ele>774.3</ele>
        <time>2021-09-07T06:24:51.000Z</time>
      </trkpt>
      <trkpt lat="43.79428" lon="6.39931">
        <ele>774.4</ele>
        <time>2021-09-07T06:24:51.000Z</time>
      </trkpt>
      <trkpt lat="43.79425" lon="6.3993">
        <ele>774.4</ele>
        <time>2021-09-07T06:24:52.000Z</time>
      </trkpt>
      <trkpt lat="43.79415" lon="6.39923">
        <ele>775.2</ele>
        <time>2021-09-07T06:24:56.000Z</time>
      </trkpt>
      <trkpt lat="43.79412" lon="6.39921">
        <ele>775.4</ele>
        <time>2021-09-07T06:24:57.000Z</time>
      </trkpt>
      <trkpt lat="43.79416" lon="6.39923">
        <ele>775.2</ele>
        <time>2021-09-07T06:24:57.000Z</time>
      </trkpt>
      <trkpt lat="43.79413" lon="6.39922">
        <ele>775.4</ele>
        <time>2021-09-07T06:24:58.000Z</time>
      </trkpt>
      <trkpt lat="43.79411" lon="6.3992">
        <ele>775.5</ele>
        <time>2021-09-07T06:24:59.000Z</time>
      </trkpt>
      <trkpt lat="43.79406" lon="6.39902">
        <ele>776.5</ele>
        <time>2021-09-07T06:25:03.000Z</time>
      </trkpt>
      <trkpt lat="43.79405" lon="6.39903">
        <ele>776.4</ele>
        <time>2021-09-07T06:25:04.000Z</time>
      </trkpt>
      <trkpt lat="43.79406" lon="6.39899">
        <ele>776.7</ele>
        <time>2021-09-07T06:25:04.000Z</time>
      </trkpt>
      <trkpt lat="43.79408" lon="6.39893">
        <ele>776.9</ele>
        <time>2021-09-07T06:25:06.000Z</time>
      </trkpt>
      <trkpt lat="43.79409" lon="6.39889">
        <ele>777.1</ele>
        <time>2021-09-07T06:25:07.000Z</time>
      </trkpt>
      <trkpt lat="43.79411" lon="6.39883">
        <ele>777.6</ele>
        <time>2021-09-07T06:25:09.000Z</time>
      </trkpt>
      <trkpt lat="43.79412" lon="6.39881">
        <ele>777.7</ele>
        <time>2021-09-07T06:25:11.000Z</time>
      </trkpt>
      <trkpt lat="43.79416" lon="6.3986">
        <ele>778.6</ele>
        <time>2021-09-07T06:25:16.000Z</time>
      </trkpt>
      <trkpt lat="43.79413" lon="6.39849">
        <ele>778.3</ele>
        <time>2021-09-07T06:25:21.000Z</time>
      </trkpt>
      <trkpt lat="43.79406" lon="6.39845">
        <ele>778.1</ele>
        <time>2021-09-07T06:25:26.000Z</time>
      </trkpt>
      <trkpt lat="43.79398" lon="6.39841">
        <ele>778.4</ele>
        <time>2021-09-07T06:25:29.000Z</time>
      </trkpt>
      <trkpt lat="43.79396" lon="6.39839">
        <ele>778.5</ele>
        <time>2021-09-07T06:25:30.000Z</time>
      </trkpt>
      <trkpt lat="43.79394" lon="6.39837">
        <ele>778.8</ele>
        <time>2021-09-07T06:25:31.000Z</time>
      </trkpt>
      <trkpt lat="43.79397" lon="6.3984">
        <ele>778.4</ele>
        <time>2021-09-07T06:25:31.000Z</time>
      </trkpt>
      <trkpt lat="43.79394" lon="6.39837">
        <ele>779</ele>
        <time>2021-09-07T06:25:32.000Z</time>
      </trkpt>
      <trkpt lat="43.79392" lon="6.39835">
        <ele>778.6</ele>
        <time>2021-09-07T06:25:33.000Z</time>
      </trkpt>
      <trkpt lat="43.7938" lon="6.39827">
        <ele>778.9</ele>
        <time>2021-09-07T06:25:36.000Z</time>
      </trkpt>
      <trkpt lat="43.79377" lon="6.39826">
        <ele>778.7</ele>
        <time>2021-09-07T06:25:37.000Z</time>
      </trkpt>
      <trkpt lat="43.79379" lon="6.39827">
        <ele>778.9</ele>
        <time>2021-09-07T06:25:38.000Z</time>
      </trkpt>
      <trkpt lat="43.79375" lon="6.39826">
        <ele>778.5</ele>
        <time>2021-09-07T06:25:39.000Z</time>
      </trkpt>
      <trkpt lat="43.79369" lon="6.39824">
        <ele>778.4</ele>
        <time>2021-09-07T06:25:40.000Z</time>
      </trkpt>
      <trkpt lat="43.79368" lon="6.39824">
        <ele>778.4</ele>
        <time>2021-09-07T06:25:42.000Z</time>
      </trkpt>
      <trkpt lat="43.79365" lon="6.3983">
        <ele>778.8</ele>
        <time>2021-09-07T06:25:43.000Z</time>
      </trkpt>
      <trkpt lat="43.79366" lon="6.39831">
        <ele>778.8</ele>
        <time>2021-09-07T06:25:44.000Z</time>
      </trkpt>
      <trkpt lat="43.79365" lon="6.3983">
        <ele>778.8</ele>
        <time>2021-09-07T06:25:45.000Z</time>
      </trkpt>
      <trkpt lat="43.79367" lon="6.39832">
        <ele>778.8</ele>
        <time>2021-09-07T06:25:46.000Z</time>
      </trkpt>
      <trkpt lat="43.7937" lon="6.39831">
        <ele>778.5</ele>
        <time>2021-09-07T06:25:46.000Z</time>
      </trkpt>
      <trkpt lat="43.79372" lon="6.3983">
        <ele>778.7</ele>
        <time>2021-09-07T06:25:47.000Z</time>
      </trkpt>
      <trkpt lat="43.79374" lon="6.39829">
        <ele>778.6</ele>
        <time>2021-09-07T06:25:48.000Z</time>
      </trkpt>
      <trkpt lat="43.79371" lon="6.3983">
        <ele>778.5</ele>
        <time>2021-09-07T06:25:48.000Z</time>
      </trkpt>
      <trkpt lat="43.79376" lon="6.39829">
        <ele>778.4</ele>
        <time>2021-09-07T06:25:49.000Z</time>
      </trkpt>
      <trkpt lat="43.79373" lon="6.39829">
        <ele>778.7</ele>
        <time>2021-09-07T06:25:49.000Z</time>
      </trkpt>
      <trkpt lat="43.79375" lon="6.39829">
        <ele>778.4</ele>
        <time>2021-09-07T06:25:50.000Z</time>
      </trkpt>
      <trkpt lat="43.79377" lon="6.39829">
        <ele>778.5</ele>
        <time>2021-09-07T06:25:51.000Z</time>
      </trkpt>
      <trkpt lat="43.7938" lon="6.3983">
        <ele>778.8</ele>
        <time>2021-09-07T06:25:52.000Z</time>
      </trkpt>
      <trkpt lat="43.79381" lon="6.39829">
        <ele>778.2</ele>
        <time>2021-09-07T06:25:53.000Z</time>
      </trkpt>
      <trkpt lat="43.7938" lon="6.39829">
        <ele>778.4</ele>
        <time>2021-09-07T06:25:54.000Z</time>
      </trkpt>
      <trkpt lat="43.79382" lon="6.39829">
        <ele>778.3</ele>
        <time>2021-09-07T06:25:55.000Z</time>
      </trkpt>
      <trkpt lat="43.79383" lon="6.39827">
        <ele>778.6</ele>
        <time>2021-09-07T06:25:56.000Z</time>
      </trkpt>
      <trkpt lat="43.79381" lon="6.39827">
        <ele>778.2</ele>
        <time>2021-09-07T06:25:58.000Z</time>
      </trkpt>
      <trkpt lat="43.79381" lon="6.39827">
        <ele>778.1</ele>
        <time>2021-09-07T06:25:59.000Z</time>
      </trkpt>
      <trkpt lat="43.79381" lon="6.39827">
        <ele>778.2</ele>
        <time>2021-09-07T06:26:00.000Z</time>
      </trkpt>
      <trkpt lat="43.79381" lon="6.39827">
        <ele>778.2</ele>
        <time>2021-09-07T06:26:01.000Z</time>
      </trkpt>
      <trkpt lat="43.79381" lon="6.39827">
        <ele>778.4</ele>
        <time>2021-09-07T06:26:04.000Z</time>
      </trkpt>
      <trkpt lat="43.79382" lon="6.39827">
        <ele>778.3</ele>
        <time>2021-09-07T06:26:07.000Z</time>
      </trkpt>
      <trkpt lat="43.79382" lon="6.39827">
        <ele>778.2</ele>
        <time>2021-09-07T06:26:13.000Z</time>
      </trkpt>
      <trkpt lat="43.7938" lon="6.39828">
        <ele>778.4</ele>
        <time>2021-09-07T06:26:15.000Z</time>
      </trkpt>
      <trkpt lat="43.7938" lon="6.39828">
        <ele>778.3</ele>
        <time>2021-09-07T06:26:16.000Z</time>
      </trkpt>
      <trkpt lat="43.7938" lon="6.39828">
        <ele>778.6</ele>
        <time>2021-09-07T06:26:18.000Z</time>
      </trkpt>
      <trkpt lat="43.7938" lon="6.39828">
        <ele>778.5</ele>
        <time>2021-09-07T06:26:19.000Z</time>
      </trkpt>
      <trkpt lat="43.7938" lon="6.39828">
        <ele>778.1</ele>
        <time>2021-09-07T06:26:23.000Z</time>
      </trkpt>
      <trkpt lat="43.79381" lon="6.39829">
        <ele>778.1</ele>
        <time>2021-09-07T06:26:28.000Z</time>
      </trkpt>
      <trkpt lat="43.79381" lon="6.39829">
        <ele>777.7</ele>
        <time>2021-09-07T06:26:30.000Z</time>
      </trkpt>
      <trkpt lat="43.79383" lon="6.39829">
        <ele>777.6</ele>
        <time>2021-09-07T06:26:35.000Z</time>
      </trkpt>
      <trkpt lat="43.79383" lon="6.39829">
        <ele>777.9</ele>
        <time>2021-09-07T06:26:36.000Z</time>
      </trkpt>
      <trkpt lat="43.79382" lon="6.39829">
        <ele>778</ele>
        <time>2021-09-07T06:26:41.000Z</time>
      </trkpt>
      <trkpt lat="43.79382" lon="6.39829">
        <ele>777.7</ele>
        <time>2021-09-07T06:26:46.000Z</time>
      </trkpt>
      <trkpt lat="43.79382" lon="6.39829">
        <ele>777.7</ele>
        <time>2021-09-07T06:26:51.000Z</time>
      </trkpt>
      <trkpt lat="43.79382" lon="6.39829">
        <ele>777.8</ele>
        <time>2021-09-07T06:26:56.000Z</time>
      </trkpt>
      <trkpt lat="43.79382" lon="6.39829">
        <ele>777.7</ele>
        <time>2021-09-07T06:27:01.000Z</time>
      </trkpt>
      <trkpt lat="43.79382" lon="6.39829">
        <ele>777.9</ele>
        <time>2021-09-07T06:27:06.000Z</time>
      </trkpt>
      <trkpt lat="43.79382" lon="6.39829">
        <ele>777.9</ele>
        <time>2021-09-07T06:27:11.000Z</time>
      </trkpt>
      <trkpt lat="43.79382" lon="6.39829">
        <ele>777.9</ele>
        <time>2021-09-07T06:27:16.000Z</time>
      </trkpt>
      <trkpt lat="43.79381" lon="6.39829">
        <ele>778.3</ele>
        <time>2021-09-07T06:27:21.000Z</time>
      </trkpt>
      <trkpt lat="43.79381" lon="6.39829">
        <ele>778.3</ele>
        <time>2021-09-07T06:27:26.000Z</time>
      </trkpt>
      <trkpt lat="43.79381" lon="6.39829">
        <ele>778.5</ele>
        <time>2021-09-07T06:27:31.000Z</time>
      </trkpt>
      <trkpt lat="43.79381" lon="6.39829">
        <ele>778.3</ele>
        <time>2021-09-07T06:27:36.000Z</time>
      </trkpt>
      <trkpt lat="43.79381" lon="6.39829">
        <ele>778.2</ele>
        <time>2021-09-07T06:27:41.000Z</time>
      </trkpt>
      <trkpt lat="43.79381" lon="6.39829">
        <ele>778.1</ele>
        <time>2021-09-07T06:27:46.000Z</time>
      </trkpt>
      <trkpt lat="43.79381" lon="6.39828">
        <ele>778.4</ele>
        <time>2021-09-07T06:27:51.000Z</time>
      </trkpt>
      <trkpt lat="43.79381" lon="6.39828">
        <ele>778.4</ele>
        <time>2021-09-07T06:27:52.000Z</time>
      </trkpt>
      <trkpt lat="43.79381" lon="6.39828">
        <ele>778</ele>
        <time>2021-09-07T06:27:53.000Z</time>
      </trkpt>
      <trkpt lat="43.79381" lon="6.39828">
        <ele>778</ele>
        <time>2021-09-07T06:27:58.000Z</time>
      </trkpt>
      <trkpt lat="43.79381" lon="6.39828">
        <ele>778.1</ele>
        <time>2021-09-07T06:28:03.000Z</time>
      </trkpt>
      <trkpt lat="43.79381" lon="6.39828">
        <ele>778.1</ele>
        <time>2021-09-07T06:28:08.000Z</time>
      </trkpt>
      <trkpt lat="43.79381" lon="6.39828">
        <ele>777.9</ele>
        <time>2021-09-07T06:28:11.000Z</time>
      </trkpt>
      <trkpt lat="43.79381" lon="6.39828">
        <ele>777.8</ele>
        <time>2021-09-07T06:28:12.000Z</time>
      </trkpt>
      <trkpt lat="43.79382" lon="6.39828">
        <ele>777.6</ele>
        <time>2021-09-07T06:28:17.000Z</time>
      </trkpt>
      <trkpt lat="43.79382" lon="6.39828">
        <ele>777.7</ele>
        <time>2021-09-07T06:28:22.000Z</time>
      </trkpt>
      <trkpt lat="43.79382" lon="6.39828">
        <ele>777.5</ele>
        <time>2021-09-07T06:28:27.000Z</time>
      </trkpt>
      <trkpt lat="43.79382" lon="6.39827">
        <ele>777.5</ele>
        <time>2021-09-07T06:28:32.000Z</time>
      </trkpt>
      <trkpt lat="43.79382" lon="6.39827">
        <ele>777.5</ele>
        <time>2021-09-07T06:28:37.000Z</time>
      </trkpt>
      <trkpt lat="43.79382" lon="6.39827">
        <ele>777.6</ele>
        <time>2021-09-07T06:28:42.000Z</time>
      </trkpt>
      <trkpt lat="43.79381" lon="6.39827">
        <ele>777.7</ele>
        <time>2021-09-07T06:28:47.000Z</time>
      </trkpt>
      <trkpt lat="43.79381" lon="6.39827">
        <ele>777.6</ele>
        <time>2021-09-07T06:28:52.000Z</time>
      </trkpt>
      <trkpt lat="43.79381" lon="6.39827">
        <ele>777.6</ele>
        <time>2021-09-07T06:28:57.000Z</time>
      </trkpt>
      <trkpt lat="43.79381" lon="6.39827">
        <ele>777.4</ele>
        <time>2021-09-07T06:29:02.000Z</time>
      </trkpt>
      <trkpt lat="43.79381" lon="6.39827">
        <ele>778</ele>
        <time>2021-09-07T06:29:07.000Z</time>
      </trkpt>
      <trkpt lat="43.79381" lon="6.39827">
        <ele>778</ele>
        <time>2021-09-07T06:29:12.000Z</time>
      </trkpt>
      <trkpt lat="43.79381" lon="6.39827">
        <ele>778</ele>
        <time>2021-09-07T06:29:17.000Z</time>
      </trkpt>
      <trkpt lat="43.79381" lon="6.39827">
        <ele>778.1</ele>
        <time>2021-09-07T06:29:22.000Z</time>
      </trkpt>
      <trkpt lat="43.79381" lon="6.39827">
        <ele>777.8</ele>
        <time>2021-09-07T06:29:27.000Z</time>
      </trkpt>
      <trkpt lat="43.79381" lon="6.39827">
        <ele>777.7</ele>
        <time>2021-09-07T06:29:32.000Z</time>
      </trkpt>
      <trkpt lat="43.79381" lon="6.39827">
        <ele>777.8</ele>
        <time>2021-09-07T06:29:37.000Z</time>
      </trkpt>
      <trkpt lat="43.79381" lon="6.39827">
        <ele>777.2</ele>
        <time>2021-09-07T06:29:38.000Z</time>
      </trkpt>
      <trkpt lat="43.79381" lon="6.39826">
        <ele>777.3</ele>
        <time>2021-09-07T06:29:43.000Z</time>
      </trkpt>
      <trkpt lat="43.79381" lon="6.39826">
        <ele>777.2</ele>
        <time>2021-09-07T06:29:44.000Z</time>
      </trkpt>
      <trkpt lat="43.79381" lon="6.39825">
        <ele>777.1</ele>
        <time>2021-09-07T06:29:47.000Z</time>
      </trkpt>
      <trkpt lat="43.79381" lon="6.39825">
        <ele>777.3</ele>
        <time>2021-09-07T06:29:52.000Z</time>
      </trkpt>
      <trkpt lat="43.79382" lon="6.39825">
        <ele>777.4</ele>
        <time>2021-09-07T06:29:53.000Z</time>
      </trkpt>
      <trkpt lat="43.79382" lon="6.39825">
        <ele>777.5</ele>
        <time>2021-09-07T06:29:54.000Z</time>
      </trkpt>
      <trkpt lat="43.79382" lon="6.39825">
        <ele>777.4</ele>
        <time>2021-09-07T06:29:57.000Z</time>
      </trkpt>
      <trkpt lat="43.79382" lon="6.39826">
        <ele>777.5</ele>
        <time>2021-09-07T06:30:00.000Z</time>
      </trkpt>
      <trkpt lat="43.79382" lon="6.39826">
        <ele>778.1</ele>
        <time>2021-09-07T06:30:05.000Z</time>
      </trkpt>
      <trkpt lat="43.79382" lon="6.39826">
        <ele>777.8</ele>
        <time>2021-09-07T06:30:10.000Z</time>
      </trkpt>
      <trkpt lat="43.79382" lon="6.39825">
        <ele>777.8</ele>
        <time>2021-09-07T06:30:15.000Z</time>
      </trkpt>
      <trkpt lat="43.79382" lon="6.39825">
        <ele>777.7</ele>
        <time>2021-09-07T06:30:17.000Z</time>
      </trkpt>
      <trkpt lat="43.79382" lon="6.39825">
        <ele>777.8</ele>
        <time>2021-09-07T06:30:18.000Z</time>
      </trkpt>
      <trkpt lat="43.79382" lon="6.39825">
        <ele>777.8</ele>
        <time>2021-09-07T06:30:19.000Z</time>
      </trkpt>
      <trkpt lat="43.79382" lon="6.39825">
        <ele>777.8</ele>
        <time>2021-09-07T06:30:24.000Z</time>
      </trkpt>
      <trkpt lat="43.79383" lon="6.39825">
        <ele>777.5</ele>
        <time>2021-09-07T06:30:30.000Z</time>
      </trkpt>
      <trkpt lat="43.79383" lon="6.39824">
        <ele>777.8</ele>
        <time>2021-09-07T06:30:30.000Z</time>
      </trkpt>
      <trkpt lat="43.79384" lon="6.39824">
        <ele>777.6</ele>
        <time>2021-09-07T06:30:32.000Z</time>
      </trkpt>
      <trkpt lat="43.79384" lon="6.39824">
        <ele>777.6</ele>
        <time>2021-09-07T06:30:33.000Z</time>
      </trkpt>
      <trkpt lat="43.79385" lon="6.39824">
        <ele>777.9</ele>
        <time>2021-09-07T06:30:33.000Z</time>
      </trkpt>
      <trkpt lat="43.79385" lon="6.39824">
        <ele>777.9</ele>
        <time>2021-09-07T06:30:33.000Z</time>
      </trkpt>
      <trkpt lat="43.79386" lon="6.39824">
        <ele>778</ele>
        <time>2021-09-07T06:30:35.000Z</time>
      </trkpt>
      <trkpt lat="43.79386" lon="6.39825">
        <ele>777.9</ele>
        <time>2021-09-07T06:30:37.000Z</time>
      </trkpt>
      <trkpt lat="43.79389" lon="6.39829">
        <ele>777.6</ele>
        <time>2021-09-07T06:30:37.000Z</time>
      </trkpt>
      <trkpt lat="43.7939" lon="6.3983">
        <ele>777.5</ele>
        <time>2021-09-07T06:30:39.000Z</time>
      </trkpt>
      <trkpt lat="43.79393" lon="6.39833">
        <ele>777.3</ele>
        <time>2021-09-07T06:30:41.000Z</time>
      </trkpt>
      <trkpt lat="43.79394" lon="6.39835">
        <ele>777.4</ele>
        <time>2021-09-07T06:30:42.000Z</time>
      </trkpt>
      <trkpt lat="43.79393" lon="6.39834">
        <ele>777.4</ele>
        <time>2021-09-07T06:30:43.000Z</time>
      </trkpt>
      <trkpt lat="43.79395" lon="6.39835">
        <ele>777.8</ele>
        <time>2021-09-07T06:30:44.000Z</time>
      </trkpt>
      <trkpt lat="43.79396" lon="6.39837">
        <ele>778.2</ele>
        <time>2021-09-07T06:30:44.000Z</time>
      </trkpt>
      <trkpt lat="43.79398" lon="6.39837">
        <ele>778</ele>
        <time>2021-09-07T06:30:45.000Z</time>
      </trkpt>
      <trkpt lat="43.79399" lon="6.39838">
        <ele>777.8</ele>
        <time>2021-09-07T06:30:46.000Z</time>
      </trkpt>
      <trkpt lat="43.79397" lon="6.39837">
        <ele>778.2</ele>
        <time>2021-09-07T06:30:46.000Z</time>
      </trkpt>
      <trkpt lat="43.79399" lon="6.39838">
        <ele>777.8</ele>
        <time>2021-09-07T06:30:47.000Z</time>
      </trkpt>
      <trkpt lat="43.79401" lon="6.39839">
        <ele>778</ele>
        <time>2021-09-07T06:30:47.000Z</time>
      </trkpt>
      <trkpt lat="43.79404" lon="6.3984">
        <ele>778.2</ele>
        <time>2021-09-07T06:30:48.000Z</time>
      </trkpt>
      <trkpt lat="43.79405" lon="6.39841">
        <ele>778.3</ele>
        <time>2021-09-07T06:30:50.000Z</time>
      </trkpt>
      <trkpt lat="43.79406" lon="6.39844">
        <ele>777.9</ele>
        <time>2021-09-07T06:30:50.000Z</time>
      </trkpt>
      <trkpt lat="43.79406" lon="6.39846">
        <ele>778</ele>
        <time>2021-09-07T06:30:51.000Z</time>
      </trkpt>
      <trkpt lat="43.79406" lon="6.39845">
        <ele>778</ele>
        <time>2021-09-07T06:30:52.000Z</time>
      </trkpt>
      <trkpt lat="43.79406" lon="6.39849">
        <ele>778.1</ele>
        <time>2021-09-07T06:30:52.000Z</time>
      </trkpt>
      <trkpt lat="43.79411" lon="6.39853">
        <ele>778.5</ele>
        <time>2021-09-07T06:30:56.000Z</time>
      </trkpt>
      <trkpt lat="43.7941" lon="6.39854">
        <ele>778.5</ele>
        <time>2021-09-07T06:30:57.000Z</time>
      </trkpt>
      <trkpt lat="43.79412" lon="6.39851">
        <ele>778.4</ele>
        <time>2021-09-07T06:30:57.000Z</time>
      </trkpt>
      <trkpt lat="43.79419" lon="6.39841">
        <ele>779.1</ele>
        <time>2021-09-07T06:31:02.000Z</time>
      </trkpt>
      <trkpt lat="43.79413" lon="6.39827">
        <ele>778.7</ele>
        <time>2021-09-07T06:31:08.000Z</time>
      </trkpt>
      <trkpt lat="43.79411" lon="6.39831">
        <ele>778.8</ele>
        <time>2021-09-07T06:31:13.000Z</time>
      </trkpt>
      <trkpt lat="43.79411" lon="6.39831">
        <ele>778.5</ele>
        <time>2021-09-07T06:31:17.000Z</time>
      </trkpt>
      <trkpt lat="43.79412" lon="6.39831">
        <ele>778.5</ele>
        <time>2021-09-07T06:31:18.000Z</time>
      </trkpt>
      <trkpt lat="43.79412" lon="6.39831">
        <ele>778.6</ele>
        <time>2021-09-07T06:31:19.000Z</time>
      </trkpt>
      <trkpt lat="43.79412" lon="6.39831">
        <ele>778.6</ele>
        <time>2021-09-07T06:31:24.000Z</time>
      </trkpt>
      <trkpt lat="43.79412" lon="6.39831">
        <ele>778.6</ele>
        <time>2021-09-07T06:31:29.000Z</time>
      </trkpt>
      <trkpt lat="43.79412" lon="6.39831">
        <ele>778.7</ele>
        <time>2021-09-07T06:31:30.000Z</time>
      </trkpt>
      <trkpt lat="43.79412" lon="6.39832">
        <ele>778.5</ele>
        <time>2021-09-07T06:31:34.000Z</time>
      </trkpt>
      <trkpt lat="43.79412" lon="6.39832">
        <ele>778.6</ele>
        <time>2021-09-07T06:31:35.000Z</time>
      </trkpt>
      <trkpt lat="43.79412" lon="6.39832">
        <ele>778.7</ele>
        <time>2021-09-07T06:31:40.000Z</time>
      </trkpt>
      <trkpt lat="43.79412" lon="6.39832">
        <ele>778</ele>
        <time>2021-09-07T06:31:45.000Z</time>
      </trkpt>
      <trkpt lat="43.79412" lon="6.39832">
        <ele>777.9</ele>
        <time>2021-09-07T06:31:49.000Z</time>
      </trkpt>
      <trkpt lat="43.79412" lon="6.39832">
        <ele>777.8</ele>
        <time>2021-09-07T06:31:50.000Z</time>
      </trkpt>
      <trkpt lat="43.79412" lon="6.39832">
        <ele>777.9</ele>
        <time>2021-09-07T06:31:52.000Z</time>
      </trkpt>
      <trkpt lat="43.79412" lon="6.39832">
        <ele>777.8</ele>
        <time>2021-09-07T06:31:54.000Z</time>
      </trkpt>
      <trkpt lat="43.79412" lon="6.39832">
        <ele>778</ele>
        <time>2021-09-07T06:31:59.000Z</time>
      </trkpt>
      <trkpt lat="43.79412" lon="6.39832">
        <ele>778.1</ele>
        <time>2021-09-07T06:32:00.000Z</time>
      </trkpt>
      <trkpt lat="43.79412" lon="6.39832">
        <ele>778</ele>
        <time>2021-09-07T06:32:01.000Z</time>
      </trkpt>
      <trkpt lat="43.79412" lon="6.39832">
        <ele>777.8</ele>
        <time>2021-09-07T06:32:06.000Z</time>
      </trkpt>
      <trkpt lat="43.79412" lon="6.39832">
        <ele>777.9</ele>
        <time>2021-09-07T06:32:11.000Z</time>
      </trkpt>
      <trkpt lat="43.79412" lon="6.39832">
        <ele>777.7</ele>
        <time>2021-09-07T06:32:13.000Z</time>
      </trkpt>
      <trkpt lat="43.79412" lon="6.39837">
        <ele>778.2</ele>
        <time>2021-09-07T06:32:18.000Z</time>
      </trkpt>
      <trkpt lat="43.79422" lon="6.39836">
        <ele>778.4</ele>
        <time>2021-09-07T06:32:23.000Z</time>
      </trkpt>
      <trkpt lat="43.79427" lon="6.39827">
        <ele>778.5</ele>
        <time>2021-09-07T06:32:28.000Z</time>
      </trkpt>
      <trkpt lat="43.79435" lon="6.39814">
        <ele>778.5</ele>
        <time>2021-09-07T06:32:33.000Z</time>
      </trkpt>
      <trkpt lat="43.79441" lon="6.39799">
        <ele>778.5</ele>
        <time>2021-09-07T06:32:38.000Z</time>
      </trkpt>
      <trkpt lat="43.79444" lon="6.3978">
        <ele>778.8</ele>
        <time>2021-09-07T06:32:43.000Z</time>
      </trkpt>
      <trkpt lat="43.79444" lon="6.3976">
        <ele>778.5</ele>
        <time>2021-09-07T06:32:48.000Z</time>
      </trkpt>
      <trkpt lat="43.79446" lon="6.39736">
        <ele>778.3</ele>
        <time>2021-09-07T06:32:53.000Z</time>
      </trkpt>
      <trkpt lat="43.79447" lon="6.39712">
        <ele>778.4</ele>
        <time>2021-09-07T06:32:58.000Z</time>
      </trkpt>
      <trkpt lat="43.79434" lon="6.39695">
        <ele>778.1</ele>
        <time>2021-09-07T06:33:03.000Z</time>
      </trkpt>
      <trkpt lat="43.79418" lon="6.39677">
        <ele>777.6</ele>
        <time>2021-09-07T06:33:08.000Z</time>
      </trkpt>
      <trkpt lat="43.79408" lon="6.39637">
        <ele>776.1</ele>
        <time>2021-09-07T06:33:13.000Z</time>
      </trkpt>
      <trkpt lat="43.79406" lon="6.3959">
        <ele>775.3</ele>
        <time>2021-09-07T06:33:18.000Z</time>
      </trkpt>
      <trkpt lat="43.79396" lon="6.39546">
        <ele>773.6</ele>
        <time>2021-09-07T06:33:23.000Z</time>
      </trkpt>
      <trkpt lat="43.79387" lon="6.39496">
        <ele>771.9</ele>
        <time>2021-09-07T06:33:28.000Z</time>
      </trkpt>
      <trkpt lat="43.79384" lon="6.39442">
        <ele>770.9</ele>
        <time>2021-09-07T06:33:33.000Z</time>
      </trkpt>
      <trkpt lat="43.79377" lon="6.39387">
        <ele>769.8</ele>
        <time>2021-09-07T06:33:38.000Z</time>
      </trkpt>
      <trkpt lat="43.79372" lon="6.39333">
        <ele>768</ele>
        <time>2021-09-07T06:33:43.000Z</time>
      </trkpt>
      <trkpt lat="43.79365" lon="6.39279">
        <ele>766.9</ele>
        <time>2021-09-07T06:33:48.000Z</time>
      </trkpt>
      <trkpt lat="43.79356" lon="6.39219">
        <ele>765.6</ele>
        <time>2021-09-07T06:33:53.000Z</time>
      </trkpt>
      <trkpt lat="43.79362" lon="6.39156">
        <ele>764.2</ele>
        <time>2021-09-07T06:33:58.000Z</time>
      </trkpt>
      <trkpt lat="43.7937" lon="6.39097">
        <ele>762.4</ele>
        <time>2021-09-07T06:34:03.000Z</time>
      </trkpt>
      <trkpt lat="43.79387" lon="6.3904">
        <ele>761.2</ele>
        <time>2021-09-07T06:34:08.000Z</time>
      </trkpt>
      <trkpt lat="43.79414" lon="6.38989">
        <ele>759.2</ele>
        <time>2021-09-07T06:34:13.000Z</time>
      </trkpt>
      <trkpt lat="43.79447" lon="6.38942">
        <ele>757.6</ele>
        <time>2021-09-07T06:34:18.000Z</time>
      </trkpt>
      <trkpt lat="43.79484" lon="6.38907">
        <ele>755.6</ele>
        <time>2021-09-07T06:34:23.000Z</time>
      </trkpt>
      <trkpt lat="43.79515" lon="6.38878">
        <ele>754.7</ele>
        <time>2021-09-07T06:34:28.000Z</time>
      </trkpt>
      <trkpt lat="43.79509" lon="6.38823">
        <ele>753.9</ele>
        <time>2021-09-07T06:34:33.000Z</time>
      </trkpt>
      <trkpt lat="43.79493" lon="6.38771">
        <ele>753.3</ele>
        <time>2021-09-07T06:34:38.000Z</time>
      </trkpt>
      <trkpt lat="43.79484" lon="6.38724">
        <ele>752.8</ele>
        <time>2021-09-07T06:34:43.000Z</time>
      </trkpt>
      <trkpt lat="43.79495" lon="6.38678">
        <ele>752.6</ele>
        <time>2021-09-07T06:34:48.000Z</time>
      </trkpt>
      <trkpt lat="43.79524" lon="6.38661">
        <ele>752</ele>
        <time>2021-09-07T06:34:53.000Z</time>
      </trkpt>
      <trkpt lat="43.7955" lon="6.38693">
        <ele>751.5</ele>
        <time>2021-09-07T06:34:58.000Z</time>
      </trkpt>
      <trkpt lat="43.79583" lon="6.38681">
        <ele>751</ele>
        <time>2021-09-07T06:35:03.000Z</time>
      </trkpt>
      <trkpt lat="43.79617" lon="6.38665">
        <ele>749.6</ele>
        <time>2021-09-07T06:35:08.000Z</time>
      </trkpt>
      <trkpt lat="43.79627" lon="6.38619">
        <ele>748.3</ele>
        <time>2021-09-07T06:35:13.000Z</time>
      </trkpt>
      <trkpt lat="43.79633" lon="6.38565">
        <ele>747.5</ele>
        <time>2021-09-07T06:35:18.000Z</time>
      </trkpt>
      <trkpt lat="43.79665" lon="6.38531">
        <ele>746</ele>
        <time>2021-09-07T06:35:23.000Z</time>
      </trkpt>
      <trkpt lat="43.79685" lon="6.38481">
        <ele>745.1</ele>
        <time>2021-09-07T06:35:28.000Z</time>
      </trkpt>
      <trkpt lat="43.79672" lon="6.3843">
        <ele>743.4</ele>
        <time>2021-09-07T06:35:33.000Z</time>
      </trkpt>
      <trkpt lat="43.79629" lon="6.38404">
        <ele>741.4</ele>
        <time>2021-09-07T06:35:38.000Z</time>
      </trkpt>
      <trkpt lat="43.79609" lon="6.38358">
        <ele>740.3</ele>
        <time>2021-09-07T06:35:43.000Z</time>
      </trkpt>
      <trkpt lat="43.79633" lon="6.38309">
        <ele>739.6</ele>
        <time>2021-09-07T06:35:48.000Z</time>
      </trkpt>
      <trkpt lat="43.79614" lon="6.38267">
        <ele>738.4</ele>
        <time>2021-09-07T06:35:53.000Z</time>
      </trkpt>
      <trkpt lat="43.79577" lon="6.38257">
        <ele>736</ele>
        <time>2021-09-07T06:35:58.000Z</time>
      </trkpt>
      <trkpt lat="43.79538" lon="6.38297">
        <ele>734.3</ele>
        <time>2021-09-07T06:36:03.000Z</time>
      </trkpt>
      <trkpt lat="43.795" lon="6.3834">
        <ele>733.6</ele>
        <time>2021-09-07T06:36:08.000Z</time>
      </trkpt>
      <trkpt lat="43.7947" lon="6.38383">
        <ele>731.9</ele>
        <time>2021-09-07T06:36:13.000Z</time>
      </trkpt>
      <trkpt lat="43.79427" lon="6.38401">
        <ele>729.5</ele>
        <time>2021-09-07T06:36:18.000Z</time>
      </trkpt>
      <trkpt lat="43.79376" lon="6.38398">
        <ele>726.4</ele>
        <time>2021-09-07T06:36:23.000Z</time>
      </trkpt>
      <trkpt lat="43.79323" lon="6.38395">
        <ele>724</ele>
        <time>2021-09-07T06:36:28.000Z</time>
      </trkpt>
      <trkpt lat="43.79269" lon="6.384">
        <ele>720.4</ele>
        <time>2021-09-07T06:36:33.000Z</time>
      </trkpt>
      <trkpt lat="43.79218" lon="6.38419">
        <ele>716.1</ele>
        <time>2021-09-07T06:36:38.000Z</time>
      </trkpt>
      <trkpt lat="43.79181" lon="6.38362">
        <ele>712.7</ele>
        <time>2021-09-07T06:36:43.000Z</time>
      </trkpt>
      <trkpt lat="43.79182" lon="6.38281">
        <ele>708.9</ele>
        <time>2021-09-07T06:36:48.000Z</time>
      </trkpt>
      <trkpt lat="43.79221" lon="6.3821">
        <ele>705.2</ele>
        <time>2021-09-07T06:36:53.000Z</time>
      </trkpt>
      <trkpt lat="43.79263" lon="6.38141">
        <ele>701.1</ele>
        <time>2021-09-07T06:36:58.000Z</time>
      </trkpt>
      <trkpt lat="43.79271" lon="6.38054">
        <ele>696</ele>
        <time>2021-09-07T06:37:03.000Z</time>
      </trkpt>
      <trkpt lat="43.79279" lon="6.37973">
        <ele>692.3</ele>
        <time>2021-09-07T06:37:08.000Z</time>
      </trkpt>
      <trkpt lat="43.7925" lon="6.37901">
        <ele>690.4</ele>
        <time>2021-09-07T06:37:13.000Z</time>
      </trkpt>
      <trkpt lat="43.79227" lon="6.37834">
        <ele>688.8</ele>
        <time>2021-09-07T06:37:18.000Z</time>
      </trkpt>
      <trkpt lat="43.79201" lon="6.37774">
        <ele>688</ele>
        <time>2021-09-07T06:37:23.000Z</time>
      </trkpt>
      <trkpt lat="43.79159" lon="6.37765">
        <ele>688.1</ele>
        <time>2021-09-07T06:37:28.000Z</time>
      </trkpt>
      <trkpt lat="43.79133" lon="6.37787">
        <ele>690</ele>
        <time>2021-09-07T06:37:33.000Z</time>
      </trkpt>
      <trkpt lat="43.79121" lon="6.37811">
        <ele>691.6</ele>
        <time>2021-09-07T06:37:38.000Z</time>
      </trkpt>
      <trkpt lat="43.7911" lon="6.37831">
        <ele>692.8</ele>
        <time>2021-09-07T06:37:43.000Z</time>
      </trkpt>
      <trkpt lat="43.79096" lon="6.37843">
        <ele>694.1</ele>
        <time>2021-09-07T06:37:48.000Z</time>
      </trkpt>
      <trkpt lat="43.79083" lon="6.37849">
        <ele>694.9</ele>
        <time>2021-09-07T06:37:53.000Z</time>
      </trkpt>
      <trkpt lat="43.7907" lon="6.37855">
        <ele>695.9</ele>
        <time>2021-09-07T06:37:58.000Z</time>
      </trkpt>
      <trkpt lat="43.79061" lon="6.37862">
        <ele>696.9</ele>
        <time>2021-09-07T06:38:04.000Z</time>
      </trkpt>
      <trkpt lat="43.79054" lon="6.37869">
        <ele>697.8</ele>
        <time>2021-09-07T06:38:06.000Z</time>
      </trkpt>
      <trkpt lat="43.79052" lon="6.37871">
        <ele>698.2</ele>
        <time>2021-09-07T06:38:07.000Z</time>
      </trkpt>
      <trkpt lat="43.79053" lon="6.3787">
        <ele>697.9</ele>
        <time>2021-09-07T06:38:08.000Z</time>
      </trkpt>
      <trkpt lat="43.79051" lon="6.37872">
        <ele>698.3</ele>
        <time>2021-09-07T06:38:09.000Z</time>
      </trkpt>
      <trkpt lat="43.79048" lon="6.37873">
        <ele>698.8</ele>
        <time>2021-09-07T06:38:09.000Z</time>
      </trkpt>
      <trkpt lat="43.79046" lon="6.37876">
        <ele>698.7</ele>
        <time>2021-09-07T06:38:11.000Z</time>
      </trkpt>
      <trkpt lat="43.79044" lon="6.37878">
        <ele>698.9</ele>
        <time>2021-09-07T06:38:11.000Z</time>
      </trkpt>
      <trkpt lat="43.79042" lon="6.3788">
        <ele>699.1</ele>
        <time>2021-09-07T06:38:12.000Z</time>
      </trkpt>
      <trkpt lat="43.79043" lon="6.37879">
        <ele>699</ele>
        <time>2021-09-07T06:38:13.000Z</time>
      </trkpt>
      <trkpt lat="43.7904" lon="6.37882">
        <ele>699.2</ele>
        <time>2021-09-07T06:38:14.000Z</time>
      </trkpt>
      <trkpt lat="43.79038" lon="6.37885">
        <ele>699.7</ele>
        <time>2021-09-07T06:38:14.000Z</time>
      </trkpt>
      <trkpt lat="43.79036" lon="6.37887">
        <ele>699.7</ele>
        <time>2021-09-07T06:38:15.000Z</time>
      </trkpt>
      <trkpt lat="43.79034" lon="6.37889">
        <ele>700.3</ele>
        <time>2021-09-07T06:38:16.000Z</time>
      </trkpt>
      <trkpt lat="43.79037" lon="6.37886">
        <ele>699.6</ele>
        <time>2021-09-07T06:38:16.000Z</time>
      </trkpt>
      <trkpt lat="43.79031" lon="6.37891">
        <ele>700.5</ele>
        <time>2021-09-07T06:38:17.000Z</time>
      </trkpt>
      <trkpt lat="43.79035" lon="6.37888">
        <ele>700.1</ele>
        <time>2021-09-07T06:38:17.000Z</time>
      </trkpt>
      <trkpt lat="43.79032" lon="6.3789">
        <ele>700.4</ele>
        <time>2021-09-07T06:38:18.000Z</time>
      </trkpt>
      <trkpt lat="43.79029" lon="6.37892">
        <ele>700.4</ele>
        <time>2021-09-07T06:38:19.000Z</time>
      </trkpt>
      <trkpt lat="43.79026" lon="6.37894">
        <ele>700.9</ele>
        <time>2021-09-07T06:38:19.000Z</time>
      </trkpt>
      <trkpt lat="43.79023" lon="6.37895">
        <ele>701.1</ele>
        <time>2021-09-07T06:38:20.000Z</time>
      </trkpt>
      <trkpt lat="43.7902" lon="6.37897">
        <ele>700.7</ele>
        <time>2021-09-07T06:38:21.000Z</time>
      </trkpt>
      <trkpt lat="43.79017" lon="6.37898">
        <ele>701</ele>
        <time>2021-09-07T06:38:22.000Z</time>
      </trkpt>
      <trkpt lat="43.79009" lon="6.37902">
        <ele>701.7</ele>
        <time>2021-09-07T06:38:25.000Z</time>
      </trkpt>
      <trkpt lat="43.79006" lon="6.37904">
        <ele>701.9</ele>
        <time>2021-09-07T06:38:26.000Z</time>
      </trkpt>
      <trkpt lat="43.78998" lon="6.37912">
        <ele>702.7</ele>
        <time>2021-09-07T06:38:31.000Z</time>
      </trkpt>
      <trkpt lat="43.78996" lon="6.37915">
        <ele>703.1</ele>
        <time>2021-09-07T06:38:31.000Z</time>
      </trkpt>
      <trkpt lat="43.78995" lon="6.37916">
        <ele>703.2</ele>
        <time>2021-09-07T06:38:32.000Z</time>
      </trkpt>
      <trkpt lat="43.78988" lon="6.37928">
        <ele>704.3</ele>
        <time>2021-09-07T06:38:38.000Z</time>
      </trkpt>
      <trkpt lat="43.78981" lon="6.37952">
        <ele>705.3</ele>
        <time>2021-09-07T06:38:43.000Z</time>
      </trkpt>
      <trkpt lat="43.78976" lon="6.37972">
        <ele>706.2</ele>
        <time>2021-09-07T06:38:48.000Z</time>
      </trkpt>
      <trkpt lat="43.78967" lon="6.37986">
        <ele>707.2</ele>
        <time>2021-09-07T06:38:53.000Z</time>
      </trkpt>
      <trkpt lat="43.78957" lon="6.37993">
        <ele>707.7</ele>
        <time>2021-09-07T06:38:58.000Z</time>
      </trkpt>
      <trkpt lat="43.78947" lon="6.38005">
        <ele>708.7</ele>
        <time>2021-09-07T06:39:03.000Z</time>
      </trkpt>
      <trkpt lat="43.78942" lon="6.38016">
        <ele>709.4</ele>
        <time>2021-09-07T06:39:08.000Z</time>
      </trkpt>
      <trkpt lat="43.78935" lon="6.38025">
        <ele>710.2</ele>
        <time>2021-09-07T06:39:13.000Z</time>
      </trkpt>
      <trkpt lat="43.78932" lon="6.38029">
        <ele>710.5</ele>
        <time>2021-09-07T06:39:15.000Z</time>
      </trkpt>
      <trkpt lat="43.78931" lon="6.38032">
        <ele>710.8</ele>
        <time>2021-09-07T06:39:16.000Z</time>
      </trkpt>
      <trkpt lat="43.78925" lon="6.38044">
        <ele>712</ele>
        <time>2021-09-07T06:39:21.000Z</time>
      </trkpt>
      <trkpt lat="43.78921" lon="6.38051">
        <ele>712.4</ele>
        <time>2021-09-07T06:39:24.000Z</time>
      </trkpt>
      <trkpt lat="43.7892" lon="6.38053">
        <ele>712.6</ele>
        <time>2021-09-07T06:39:25.000Z</time>
      </trkpt>
      <trkpt lat="43.78922" lon="6.3805">
        <ele>712.2</ele>
        <time>2021-09-07T06:39:26.000Z</time>
      </trkpt>
      <trkpt lat="43.78917" lon="6.38056">
        <ele>712.7</ele>
        <time>2021-09-07T06:39:26.000Z</time>
      </trkpt>
      <trkpt lat="43.78915" lon="6.38059">
        <ele>712.9</ele>
        <time>2021-09-07T06:39:27.000Z</time>
      </trkpt>
      <trkpt lat="43.78906" lon="6.38072">
        <ele>713.8</ele>
        <time>2021-09-07T06:39:32.000Z</time>
      </trkpt>
      <trkpt lat="43.78898" lon="6.38086">
        <ele>714.7</ele>
        <time>2021-09-07T06:39:37.000Z</time>
      </trkpt>
      <trkpt lat="43.78889" lon="6.38101">
        <ele>715.9</ele>
        <time>2021-09-07T06:39:42.000Z</time>
      </trkpt>
      <trkpt lat="43.78878" lon="6.3811">
        <ele>717</ele>
        <time>2021-09-07T06:39:47.000Z</time>
      </trkpt>
      <trkpt lat="43.78866" lon="6.38108">
        <ele>717.8</ele>
        <time>2021-09-07T06:39:52.000Z</time>
      </trkpt>
      <trkpt lat="43.78853" lon="6.38104">
        <ele>718.6</ele>
        <time>2021-09-07T06:39:57.000Z</time>
      </trkpt>
      <trkpt lat="43.78841" lon="6.38102">
        <ele>719.5</ele>
        <time>2021-09-07T06:40:02.000Z</time>
      </trkpt>
      <trkpt lat="43.78836" lon="6.38102">
        <ele>719.8</ele>
        <time>2021-09-07T06:40:04.000Z</time>
      </trkpt>
      <trkpt lat="43.78831" lon="6.381">
        <ele>720</ele>
        <time>2021-09-07T06:40:06.000Z</time>
      </trkpt>
      <trkpt lat="43.78829" lon="6.38098">
        <ele>720.1</ele>
        <time>2021-09-07T06:40:07.000Z</time>
      </trkpt>
      <trkpt lat="43.78834" lon="6.38101">
        <ele>719.8</ele>
        <time>2021-09-07T06:40:07.000Z</time>
      </trkpt>
      <trkpt lat="43.78828" lon="6.38096">
        <ele>720.1</ele>
        <time>2021-09-07T06:40:08.000Z</time>
      </trkpt>
      <trkpt lat="43.7883" lon="6.38099">
        <ele>720.1</ele>
        <time>2021-09-07T06:40:09.000Z</time>
      </trkpt>
      <trkpt lat="43.7882" lon="6.38088">
        <ele>720.8</ele>
        <time>2021-09-07T06:40:12.000Z</time>
      </trkpt>
      <trkpt lat="43.78818" lon="6.38087">
        <ele>721</ele>
        <time>2021-09-07T06:40:13.000Z</time>
      </trkpt>
      <trkpt lat="43.78821" lon="6.38089">
        <ele>720.7</ele>
        <time>2021-09-07T06:40:14.000Z</time>
      </trkpt>
      <trkpt lat="43.78811" lon="6.38079">
        <ele>721.7</ele>
        <time>2021-09-07T06:40:17.000Z</time>
      </trkpt>
      <trkpt lat="43.78809" lon="6.38077">
        <ele>721.9</ele>
        <time>2021-09-07T06:40:18.000Z</time>
      </trkpt>
      <trkpt lat="43.78807" lon="6.38076">
        <ele>722.3</ele>
        <time>2021-09-07T06:40:19.000Z</time>
      </trkpt>
      <trkpt lat="43.78809" lon="6.38078">
        <ele>721.9</ele>
        <time>2021-09-07T06:40:20.000Z</time>
      </trkpt>
      <trkpt lat="43.78804" lon="6.38072">
        <ele>722.8</ele>
        <time>2021-09-07T06:40:21.000Z</time>
      </trkpt>
      <trkpt lat="43.78802" lon="6.3807">
        <ele>722.8</ele>
        <time>2021-09-07T06:40:22.000Z</time>
      </trkpt>
      <trkpt lat="43.78798" lon="6.38065">
        <ele>723.2</ele>
        <time>2021-09-07T06:40:24.000Z</time>
      </trkpt>
      <trkpt lat="43.78796" lon="6.38063">
        <ele>723.3</ele>
        <time>2021-09-07T06:40:25.000Z</time>
      </trkpt>
      <trkpt lat="43.78784" lon="6.38054">
        <ele>724.1</ele>
        <time>2021-09-07T06:40:30.000Z</time>
      </trkpt>
      <trkpt lat="43.78772" lon="6.38052">
        <ele>724.5</ele>
        <time>2021-09-07T06:40:35.000Z</time>
      </trkpt>
      <trkpt lat="43.78759" lon="6.38055">
        <ele>725.3</ele>
        <time>2021-09-07T06:40:40.000Z</time>
      </trkpt>
      <trkpt lat="43.78749" lon="6.38064">
        <ele>726</ele>
        <time>2021-09-07T06:40:45.000Z</time>
      </trkpt>
      <trkpt lat="43.78739" lon="6.38073">
        <ele>726.7</ele>
        <time>2021-09-07T06:40:50.000Z</time>
      </trkpt>
      <trkpt lat="43.78729" lon="6.38089">
        <ele>727.4</ele>
        <time>2021-09-07T06:40:55.000Z</time>
      </trkpt>
      <trkpt lat="43.78717" lon="6.38098">
        <ele>728.4</ele>
        <time>2021-09-07T06:41:00.000Z</time>
      </trkpt>
      <trkpt lat="43.78704" lon="6.38101">
        <ele>729.7</ele>
        <time>2021-09-07T06:41:05.000Z</time>
      </trkpt>
      <trkpt lat="43.78696" lon="6.38089">
        <ele>731</ele>
        <time>2021-09-07T06:41:10.000Z</time>
      </trkpt>
      <trkpt lat="43.78695" lon="6.3807">
        <ele>732.6</ele>
        <time>2021-09-07T06:41:15.000Z</time>
      </trkpt>
      <trkpt lat="43.78705" lon="6.38056">
        <ele>734</ele>
        <time>2021-09-07T06:41:20.000Z</time>
      </trkpt>
      <trkpt lat="43.7872" lon="6.38052">
        <ele>734.7</ele>
        <time>2021-09-07T06:41:25.000Z</time>
      </trkpt>
      <trkpt lat="43.78735" lon="6.38046">
        <ele>735.5</ele>
        <time>2021-09-07T06:41:30.000Z</time>
      </trkpt>
      <trkpt lat="43.78747" lon="6.38037">
        <ele>735.8</ele>
        <time>2021-09-07T06:41:35.000Z</time>
      </trkpt>
      <trkpt lat="43.78758" lon="6.3803">
        <ele>736.7</ele>
        <time>2021-09-07T06:41:40.000Z</time>
      </trkpt>
      <trkpt lat="43.7877" lon="6.3803">
        <ele>737.1</ele>
        <time>2021-09-07T06:41:45.000Z</time>
      </trkpt>
      <trkpt lat="43.78786" lon="6.38029">
        <ele>737.5</ele>
        <time>2021-09-07T06:41:50.000Z</time>
      </trkpt>
      <trkpt lat="43.78802" lon="6.38034">
        <ele>738.2</ele>
        <time>2021-09-07T06:41:55.000Z</time>
      </trkpt>
      <trkpt lat="43.78815" lon="6.38042">
        <ele>739.1</ele>
        <time>2021-09-07T06:42:00.000Z</time>
      </trkpt>
      <trkpt lat="43.78831" lon="6.38046">
        <ele>739.7</ele>
        <time>2021-09-07T06:42:05.000Z</time>
      </trkpt>
      <trkpt lat="43.78842" lon="6.38039">
        <ele>740.6</ele>
        <time>2021-09-07T06:42:10.000Z</time>
      </trkpt>
      <trkpt lat="43.78847" lon="6.38021">
        <ele>740.9</ele>
        <time>2021-09-07T06:42:15.000Z</time>
      </trkpt>
      <trkpt lat="43.78852" lon="6.38009">
        <ele>742.1</ele>
        <time>2021-09-07T06:42:20.000Z</time>
      </trkpt>
      <trkpt lat="43.78858" lon="6.37998">
        <ele>743</ele>
        <time>2021-09-07T06:42:25.000Z</time>
      </trkpt>
      <trkpt lat="43.78864" lon="6.37986">
        <ele>743.9</ele>
        <time>2021-09-07T06:42:30.000Z</time>
      </trkpt>
      <trkpt lat="43.7887" lon="6.37972">
        <ele>745.1</ele>
        <time>2021-09-07T06:42:35.000Z</time>
      </trkpt>
      <trkpt lat="43.78874" lon="6.37957">
        <ele>746</ele>
        <time>2021-09-07T06:42:40.000Z</time>
      </trkpt>
      <trkpt lat="43.78876" lon="6.37942">
        <ele>746.6</ele>
        <time>2021-09-07T06:42:45.000Z</time>
      </trkpt>
      <trkpt lat="43.78876" lon="6.37936">
        <ele>746.8</ele>
        <time>2021-09-07T06:42:47.000Z</time>
      </trkpt>
      <trkpt lat="43.78876" lon="6.37933">
        <ele>747.1</ele>
        <time>2021-09-07T06:42:48.000Z</time>
      </trkpt>
      <trkpt lat="43.78876" lon="6.3793">
        <ele>747.1</ele>
        <time>2021-09-07T06:42:49.000Z</time>
      </trkpt>
      <trkpt lat="43.78876" lon="6.37934">
        <ele>747</ele>
        <time>2021-09-07T06:42:50.000Z</time>
      </trkpt>
      <trkpt lat="43.78877" lon="6.37917">
        <ele>748</ele>
        <time>2021-09-07T06:42:53.000Z</time>
      </trkpt>
      <trkpt lat="43.78878" lon="6.37914">
        <ele>748.2</ele>
        <time>2021-09-07T06:42:54.000Z</time>
      </trkpt>
      <trkpt lat="43.7888" lon="6.37905">
        <ele>749</ele>
        <time>2021-09-07T06:42:57.000Z</time>
      </trkpt>
      <trkpt lat="43.78881" lon="6.37903">
        <ele>749.3</ele>
        <time>2021-09-07T06:42:58.000Z</time>
      </trkpt>
      <trkpt lat="43.78882" lon="6.37899">
        <ele>749.7</ele>
        <time>2021-09-07T06:42:59.000Z</time>
      </trkpt>
      <trkpt lat="43.78881" lon="6.37904">
        <ele>749.3</ele>
        <time>2021-09-07T06:43:00.000Z</time>
      </trkpt>
      <trkpt lat="43.78887" lon="6.37887">
        <ele>750.2</ele>
        <time>2021-09-07T06:43:03.000Z</time>
      </trkpt>
      <trkpt lat="43.78888" lon="6.37884">
        <ele>750.3</ele>
        <time>2021-09-07T06:43:04.000Z</time>
      </trkpt>
      <trkpt lat="43.7889" lon="6.37881">
        <ele>750.7</ele>
        <time>2021-09-07T06:43:05.000Z</time>
      </trkpt>
      <trkpt lat="43.78891" lon="6.37878">
        <ele>751</ele>
        <time>2021-09-07T06:43:06.000Z</time>
      </trkpt>
      <trkpt lat="43.78894" lon="6.37871">
        <ele>751.4</ele>
        <time>2021-09-07T06:43:08.000Z</time>
      </trkpt>
      <trkpt lat="43.78891" lon="6.37879">
        <ele>750.9</ele>
        <time>2021-09-07T06:43:08.000Z</time>
      </trkpt>
      <trkpt lat="43.78895" lon="6.37869">
        <ele>751.5</ele>
        <time>2021-09-07T06:43:09.000Z</time>
      </trkpt>
      <trkpt lat="43.78892" lon="6.37875">
        <ele>751</ele>
        <time>2021-09-07T06:43:09.000Z</time>
      </trkpt>
      <trkpt lat="43.78896" lon="6.37866">
        <ele>751.4</ele>
        <time>2021-09-07T06:43:10.000Z</time>
      </trkpt>
      <trkpt lat="43.78894" lon="6.3787">
        <ele>751.5</ele>
        <time>2021-09-07T06:43:11.000Z</time>
      </trkpt>
      <trkpt lat="43.78899" lon="6.3786">
        <ele>751.7</ele>
        <time>2021-09-07T06:43:12.000Z</time>
      </trkpt>
      <trkpt lat="43.78895" lon="6.37867">
        <ele>751.5</ele>
        <time>2021-09-07T06:43:12.000Z</time>
      </trkpt>
      <trkpt lat="43.78897" lon="6.37863">
        <ele>751.7</ele>
        <time>2021-09-07T06:43:13.000Z</time>
      </trkpt>
      <trkpt lat="43.789" lon="6.37857">
        <ele>751.9</ele>
        <time>2021-09-07T06:43:13.000Z</time>
      </trkpt>
      <trkpt lat="43.78905" lon="6.37845">
        <ele>752.6</ele>
        <time>2021-09-07T06:43:17.000Z</time>
      </trkpt>
      <trkpt lat="43.78904" lon="6.37847">
        <ele>752.5</ele>
        <time>2021-09-07T06:43:19.000Z</time>
      </trkpt>
      <trkpt lat="43.78905" lon="6.37845">
        <ele>752.6</ele>
        <time>2021-09-07T06:43:20.000Z</time>
      </trkpt>
      <trkpt lat="43.78909" lon="6.37837">
        <ele>753</ele>
        <time>2021-09-07T06:43:20.000Z</time>
      </trkpt>
      <trkpt lat="43.7891" lon="6.37834">
        <ele>753.3</ele>
        <time>2021-09-07T06:43:21.000Z</time>
      </trkpt>
      <trkpt lat="43.78919" lon="6.37821">
        <ele>754.6</ele>
        <time>2021-09-07T06:43:26.000Z</time>
      </trkpt>
      <trkpt lat="43.78924" lon="6.37813">
        <ele>754.9</ele>
        <time>2021-09-07T06:43:29.000Z</time>
      </trkpt>
      <trkpt lat="43.78926" lon="6.3781">
        <ele>755.1</ele>
        <time>2021-09-07T06:43:30.000Z</time>
      </trkpt>
      <trkpt lat="43.78923" lon="6.37814">
        <ele>755</ele>
        <time>2021-09-07T06:43:31.000Z</time>
      </trkpt>
      <trkpt lat="43.78932" lon="6.37797">
        <ele>755.7</ele>
        <time>2021-09-07T06:43:35.000Z</time>
      </trkpt>
      <trkpt lat="43.78933" lon="6.37795">
        <ele>755.9</ele>
        <time>2021-09-07T06:43:36.000Z</time>
      </trkpt>
      <trkpt lat="43.78931" lon="6.37799">
        <ele>755.5</ele>
        <time>2021-09-07T06:43:37.000Z</time>
      </trkpt>
      <trkpt lat="43.78937" lon="6.3779">
        <ele>756.2</ele>
        <time>2021-09-07T06:43:38.000Z</time>
      </trkpt>
      <trkpt lat="43.78938" lon="6.37788">
        <ele>756.6</ele>
        <time>2021-09-07T06:43:39.000Z</time>
      </trkpt>
      <trkpt lat="43.7894" lon="6.37785">
        <ele>756.9</ele>
        <time>2021-09-07T06:43:40.000Z</time>
      </trkpt>
      <trkpt lat="43.78942" lon="6.37783">
        <ele>756.9</ele>
        <time>2021-09-07T06:43:41.000Z</time>
      </trkpt>
      <trkpt lat="43.78952" lon="6.37772">
        <ele>757.7</ele>
        <time>2021-09-07T06:43:46.000Z</time>
      </trkpt>
      <trkpt lat="43.78955" lon="6.37769">
        <ele>757.7</ele>
        <time>2021-09-07T06:43:47.000Z</time>
      </trkpt>
      <trkpt lat="43.78951" lon="6.37773">
        <ele>757.7</ele>
        <time>2021-09-07T06:43:48.000Z</time>
      </trkpt>
      <trkpt lat="43.78961" lon="6.37764">
        <ele>758.2</ele>
        <time>2021-09-07T06:43:50.000Z</time>
      </trkpt>
      <trkpt lat="43.78964" lon="6.37763">
        <ele>758.2</ele>
        <time>2021-09-07T06:43:51.000Z</time>
      </trkpt>
      <trkpt lat="43.78969" lon="6.3776">
        <ele>758.6</ele>
        <time>2021-09-07T06:43:53.000Z</time>
      </trkpt>
      <trkpt lat="43.78971" lon="6.37759">
        <ele>758.6</ele>
        <time>2021-09-07T06:43:54.000Z</time>
      </trkpt>
      <trkpt lat="43.78973" lon="6.37758">
        <ele>758.8</ele>
        <time>2021-09-07T06:43:55.000Z</time>
      </trkpt>
      <trkpt lat="43.78976" lon="6.37757">
        <ele>758.8</ele>
        <time>2021-09-07T06:43:56.000Z</time>
      </trkpt>
      <trkpt lat="43.78984" lon="6.37752">
        <ele>759.6</ele>
        <time>2021-09-07T06:44:00.000Z</time>
      </trkpt>
      <trkpt lat="43.78985" lon="6.3775">
        <ele>759.6</ele>
        <time>2021-09-07T06:44:01.000Z</time>
      </trkpt>
      <trkpt lat="43.78983" lon="6.37753">
        <ele>759.6</ele>
        <time>2021-09-07T06:44:02.000Z</time>
      </trkpt>
      <trkpt lat="43.78991" lon="6.37731">
        <ele>760.3</ele>
        <time>2021-09-07T06:44:07.000Z</time>
      </trkpt>
      <trkpt lat="43.7899" lon="6.37715">
        <ele>760.9</ele>
        <time>2021-09-07T06:44:11.000Z</time>
      </trkpt>
      <trkpt lat="43.7899" lon="6.3772">
        <ele>760.8</ele>
        <time>2021-09-07T06:44:12.000Z</time>
      </trkpt>
      <trkpt lat="43.78989" lon="6.37711">
        <ele>760.9</ele>
        <time>2021-09-07T06:44:12.000Z</time>
      </trkpt>
      <trkpt lat="43.78989" lon="6.37707">
        <ele>761</ele>
        <time>2021-09-07T06:44:13.000Z</time>
      </trkpt>
      <trkpt lat="43.78988" lon="6.37704">
        <ele>761.2</ele>
        <time>2021-09-07T06:44:14.000Z</time>
      </trkpt>
      <trkpt lat="43.78987" lon="6.37701">
        <ele>761.3</ele>
        <time>2021-09-07T06:44:15.000Z</time>
      </trkpt>
      <trkpt lat="43.78985" lon="6.37699">
        <ele>761.2</ele>
        <time>2021-09-07T06:44:16.000Z</time>
      </trkpt>
      <trkpt lat="43.78977" lon="6.37687">
        <ele>762.3</ele>
        <time>2021-09-07T06:44:21.000Z</time>
      </trkpt>
      <trkpt lat="43.78976" lon="6.37684">
        <ele>762.5</ele>
        <time>2021-09-07T06:44:22.000Z</time>
      </trkpt>
      <trkpt lat="43.78981" lon="6.37691">
        <ele>762</ele>
        <time>2021-09-07T06:44:22.000Z</time>
      </trkpt>
      <trkpt lat="43.78974" lon="6.37681">
        <ele>762.6</ele>
        <time>2021-09-07T06:44:23.000Z</time>
      </trkpt>
      <trkpt lat="43.78977" lon="6.37685">
        <ele>762.5</ele>
        <time>2021-09-07T06:44:24.000Z</time>
      </trkpt>
      <trkpt lat="43.78965" lon="6.3767">
        <ele>763.5</ele>
        <time>2021-09-07T06:44:29.000Z</time>
      </trkpt>
      <trkpt lat="43.78955" lon="6.37662">
        <ele>764.9</ele>
        <time>2021-09-07T06:44:34.000Z</time>
      </trkpt>
      <trkpt lat="43.78945" lon="6.37654">
        <ele>766</ele>
        <time>2021-09-07T06:44:39.000Z</time>
      </trkpt>
      <trkpt lat="43.78936" lon="6.37649">
        <ele>766.8</ele>
        <time>2021-09-07T06:44:44.000Z</time>
      </trkpt>
      <trkpt lat="43.78926" lon="6.37641">
        <ele>767.5</ele>
        <time>2021-09-07T06:44:49.000Z</time>
      </trkpt>
      <trkpt lat="43.78917" lon="6.37636">
        <ele>768.3</ele>
        <time>2021-09-07T06:44:54.000Z</time>
      </trkpt>
      <trkpt lat="43.78905" lon="6.37627">
        <ele>769.5</ele>
        <time>2021-09-07T06:44:59.000Z</time>
      </trkpt>
      <trkpt lat="43.78893" lon="6.37618">
        <ele>770.4</ele>
        <time>2021-09-07T06:45:04.000Z</time>
      </trkpt>
      <trkpt lat="43.78882" lon="6.37608">
        <ele>771.4</ele>
        <time>2021-09-07T06:45:09.000Z</time>
      </trkpt>
      <trkpt lat="43.78872" lon="6.37601">
        <ele>772.5</ele>
        <time>2021-09-07T06:45:14.000Z</time>
      </trkpt>
      <trkpt lat="43.78864" lon="6.37593">
        <ele>773.6</ele>
        <time>2021-09-07T06:45:19.000Z</time>
      </trkpt>
      <trkpt lat="43.78856" lon="6.37584">
        <ele>773.9</ele>
        <time>2021-09-07T06:45:24.000Z</time>
      </trkpt>
      <trkpt lat="43.78843" lon="6.37577">
        <ele>774.4</ele>
        <time>2021-09-07T06:45:29.000Z</time>
      </trkpt>
      <trkpt lat="43.78833" lon="6.37567">
        <ele>775.3</ele>
        <time>2021-09-07T06:45:35.000Z</time>
      </trkpt>
      <trkpt lat="43.78835" lon="6.37569">
        <ele>775.2</ele>
        <time>2021-09-07T06:45:36.000Z</time>
      </trkpt>
      <trkpt lat="43.78831" lon="6.37566">
        <ele>775.5</ele>
        <time>2021-09-07T06:45:36.000Z</time>
      </trkpt>
      <trkpt lat="43.78827" lon="6.37564">
        <ele>775.7</ele>
        <time>2021-09-07T06:45:38.000Z</time>
      </trkpt>
      <trkpt lat="43.78825" lon="6.37563">
        <ele>775.9</ele>
        <time>2021-09-07T06:45:39.000Z</time>
      </trkpt>
      <trkpt lat="43.7882" lon="6.37561">
        <ele>776.3</ele>
        <time>2021-09-07T06:45:41.000Z</time>
      </trkpt>
      <trkpt lat="43.78819" lon="6.3756">
        <ele>776.4</ele>
        <time>2021-09-07T06:45:44.000Z</time>
      </trkpt>
      <trkpt lat="43.78815" lon="6.37557">
        <ele>776.8</ele>
        <time>2021-09-07T06:45:44.000Z</time>
      </trkpt>
      <trkpt lat="43.78814" lon="6.37554">
        <ele>777.1</ele>
        <time>2021-09-07T06:45:45.000Z</time>
      </trkpt>
      <trkpt lat="43.78812" lon="6.37551">
        <ele>777.3</ele>
        <time>2021-09-07T06:45:46.000Z</time>
      </trkpt>
      <trkpt lat="43.78814" lon="6.37555">
        <ele>777</ele>
        <time>2021-09-07T06:45:47.000Z</time>
      </trkpt>
      <trkpt lat="43.78802" lon="6.37536">
        <ele>778.4</ele>
        <time>2021-09-07T06:45:52.000Z</time>
      </trkpt>
      <trkpt lat="43.78794" lon="6.37522">
        <ele>779.3</ele>
        <time>2021-09-07T06:45:57.000Z</time>
      </trkpt>
      <trkpt lat="43.78791" lon="6.37518">
        <ele>779.6</ele>
        <time>2021-09-07T06:45:59.000Z</time>
      </trkpt>
      <trkpt lat="43.78789" lon="6.37516">
        <ele>779.7</ele>
        <time>2021-09-07T06:46:00.000Z</time>
      </trkpt>
      <trkpt lat="43.78787" lon="6.37513">
        <ele>780.2</ele>
        <time>2021-09-07T06:46:01.000Z</time>
      </trkpt>
      <trkpt lat="43.78785" lon="6.37511">
        <ele>780.4</ele>
        <time>2021-09-07T06:46:02.000Z</time>
      </trkpt>
      <trkpt lat="43.7878" lon="6.37505">
        <ele>780.7</ele>
        <time>2021-09-07T06:46:05.000Z</time>
      </trkpt>
      <trkpt lat="43.78778" lon="6.37503">
        <ele>781</ele>
        <time>2021-09-07T06:46:06.000Z</time>
      </trkpt>
      <trkpt lat="43.78772" lon="6.37499">
        <ele>781.5</ele>
        <time>2021-09-07T06:46:09.000Z</time>
      </trkpt>
      <trkpt lat="43.78773" lon="6.37499">
        <ele>781.4</ele>
        <time>2021-09-07T06:46:11.000Z</time>
      </trkpt>
      <trkpt lat="43.78771" lon="6.37498">
        <ele>781.7</ele>
        <time>2021-09-07T06:46:12.000Z</time>
      </trkpt>
      <trkpt lat="43.78766" lon="6.37494">
        <ele>782.4</ele>
        <time>2021-09-07T06:46:12.000Z</time>
      </trkpt>
      <trkpt lat="43.78764" lon="6.37494">
        <ele>782.7</ele>
        <time>2021-09-07T06:46:13.000Z</time>
      </trkpt>
      <trkpt lat="43.78758" lon="6.37494">
        <ele>783</ele>
        <time>2021-09-07T06:46:15.000Z</time>
      </trkpt>
      <trkpt lat="43.78755" lon="6.37495">
        <ele>782.9</ele>
        <time>2021-09-07T06:46:16.000Z</time>
      </trkpt>
      <trkpt lat="43.78749" lon="6.37494">
        <ele>783.3</ele>
        <time>2021-09-07T06:46:18.000Z</time>
      </trkpt>
      <trkpt lat="43.78756" lon="6.37495">
        <ele>782.9</ele>
        <time>2021-09-07T06:46:18.000Z</time>
      </trkpt>
      <trkpt lat="43.78752" lon="6.37495">
        <ele>783</ele>
        <time>2021-09-07T06:46:19.000Z</time>
      </trkpt>
      <trkpt lat="43.78745" lon="6.37493">
        <ele>783.9</ele>
        <time>2021-09-07T06:46:20.000Z</time>
      </trkpt>
      <trkpt lat="43.78743" lon="6.37491">
        <ele>783.6</ele>
        <time>2021-09-07T06:46:21.000Z</time>
      </trkpt>
      <trkpt lat="43.78748" lon="6.37494">
        <ele>783.6</ele>
        <time>2021-09-07T06:46:21.000Z</time>
      </trkpt>
      <trkpt lat="43.78741" lon="6.3749">
        <ele>783.9</ele>
        <time>2021-09-07T06:46:22.000Z</time>
      </trkpt>
      <trkpt lat="43.78744" lon="6.37492">
        <ele>783.8</ele>
        <time>2021-09-07T06:46:23.000Z</time>
      </trkpt>
      <trkpt lat="43.78737" lon="6.37487">
        <ele>784.1</ele>
        <time>2021-09-07T06:46:24.000Z</time>
      </trkpt>
      <trkpt lat="43.78742" lon="6.3749">
        <ele>783.7</ele>
        <time>2021-09-07T06:46:24.000Z</time>
      </trkpt>
      <trkpt lat="43.78739" lon="6.37489">
        <ele>784.1</ele>
        <time>2021-09-07T06:46:25.000Z</time>
      </trkpt>
      <trkpt lat="43.78736" lon="6.37486">
        <ele>784.2</ele>
        <time>2021-09-07T06:46:27.000Z</time>
      </trkpt>
      <trkpt lat="43.78731" lon="6.37482">
        <ele>784.9</ele>
        <time>2021-09-07T06:46:27.000Z</time>
      </trkpt>
      <trkpt lat="43.78729" lon="6.37481">
        <ele>785.1</ele>
        <time>2021-09-07T06:46:28.000Z</time>
      </trkpt>
      <trkpt lat="43.78726" lon="6.37476">
        <ele>785.4</ele>
        <time>2021-09-07T06:46:30.000Z</time>
      </trkpt>
      <trkpt lat="43.78724" lon="6.37474">
        <ele>785.6</ele>
        <time>2021-09-07T06:46:31.000Z</time>
      </trkpt>
      <trkpt lat="43.78722" lon="6.37472">
        <ele>785.8</ele>
        <time>2021-09-07T06:46:32.000Z</time>
      </trkpt>
      <trkpt lat="43.7872" lon="6.37469">
        <ele>785.8</ele>
        <time>2021-09-07T06:46:33.000Z</time>
      </trkpt>
      <trkpt lat="43.78721" lon="6.3747">
        <ele>785.8</ele>
        <time>2021-09-07T06:46:35.000Z</time>
      </trkpt>
      <trkpt lat="43.78719" lon="6.37467">
        <ele>786.1</ele>
        <time>2021-09-07T06:46:36.000Z</time>
      </trkpt>
      <trkpt lat="43.78713" lon="6.37458">
        <ele>787</ele>
        <time>2021-09-07T06:46:38.000Z</time>
      </trkpt>
      <trkpt lat="43.78711" lon="6.37456">
        <ele>787.1</ele>
        <time>2021-09-07T06:46:39.000Z</time>
      </trkpt>
      <trkpt lat="43.78709" lon="6.37451">
        <ele>787.3</ele>
        <time>2021-09-07T06:46:41.000Z</time>
      </trkpt>
      <trkpt lat="43.78708" lon="6.37448">
        <ele>787.4</ele>
        <time>2021-09-07T06:46:42.000Z</time>
      </trkpt>
      <trkpt lat="43.78706" lon="6.37446">
        <ele>787.5</ele>
        <time>2021-09-07T06:46:43.000Z</time>
      </trkpt>
      <trkpt lat="43.78708" lon="6.37449">
        <ele>787.4</ele>
        <time>2021-09-07T06:46:44.000Z</time>
      </trkpt>
      <trkpt lat="43.78699" lon="6.37433">
        <ele>788.3</ele>
        <time>2021-09-07T06:46:48.000Z</time>
      </trkpt>
      <trkpt lat="43.787" lon="6.37437">
        <ele>787.8</ele>
        <time>2021-09-07T06:46:49.000Z</time>
      </trkpt>
      <trkpt lat="43.78698" lon="6.3743">
        <ele>788.3</ele>
        <time>2021-09-07T06:46:49.000Z</time>
      </trkpt>
      <trkpt lat="43.78695" lon="6.37421">
        <ele>788.7</ele>
        <time>2021-09-07T06:46:52.000Z</time>
      </trkpt>
      <trkpt lat="43.78694" lon="6.37419">
        <ele>789</ele>
        <time>2021-09-07T06:46:53.000Z</time>
      </trkpt>
      <trkpt lat="43.78692" lon="6.37415">
        <ele>789.1</ele>
        <time>2021-09-07T06:46:54.000Z</time>
      </trkpt>
      <trkpt lat="43.78696" lon="6.37422">
        <ele>788.5</ele>
        <time>2021-09-07T06:46:54.000Z</time>
      </trkpt>
      <trkpt lat="43.78692" lon="6.37412">
        <ele>789.4</ele>
        <time>2021-09-07T06:46:55.000Z</time>
      </trkpt>
      <trkpt lat="43.78694" lon="6.3742">
        <ele>789</ele>
        <time>2021-09-07T06:46:55.000Z</time>
      </trkpt>
      <trkpt lat="43.78693" lon="6.37417">
        <ele>789</ele>
        <time>2021-09-07T06:46:56.000Z</time>
      </trkpt>
      <trkpt lat="43.7869" lon="6.37406">
        <ele>789.7</ele>
        <time>2021-09-07T06:46:57.000Z</time>
      </trkpt>
      <trkpt lat="43.7869" lon="6.37402">
        <ele>789.9</ele>
        <time>2021-09-07T06:46:58.000Z</time>
      </trkpt>
      <trkpt lat="43.78688" lon="6.37398">
        <ele>790</ele>
        <time>2021-09-07T06:46:59.000Z</time>
      </trkpt>
      <trkpt lat="43.7869" lon="6.37404">
        <ele>789.9</ele>
        <time>2021-09-07T06:47:00.000Z</time>
      </trkpt>
      <trkpt lat="43.78684" lon="6.37381">
        <ele>790.9</ele>
        <time>2021-09-07T06:47:05.000Z</time>
      </trkpt>
      <trkpt lat="43.78681" lon="6.3737">
        <ele>791.3</ele>
        <time>2021-09-07T06:47:10.000Z</time>
      </trkpt>
      <trkpt lat="43.78682" lon="6.37371">
        <ele>791.3</ele>
        <time>2021-09-07T06:47:12.000Z</time>
      </trkpt>
      <trkpt lat="43.7868" lon="6.37364">
        <ele>791.9</ele>
        <time>2021-09-07T06:47:13.000Z</time>
      </trkpt>
      <trkpt lat="43.78681" lon="6.37369">
        <ele>791.5</ele>
        <time>2021-09-07T06:47:13.000Z</time>
      </trkpt>
      <trkpt lat="43.78679" lon="6.37362">
        <ele>792</ele>
        <time>2021-09-07T06:47:14.000Z</time>
      </trkpt>
      <trkpt lat="43.78681" lon="6.37367">
        <ele>791.8</ele>
        <time>2021-09-07T06:47:14.000Z</time>
      </trkpt>
      <trkpt lat="43.78679" lon="6.37359">
        <ele>792.4</ele>
        <time>2021-09-07T06:47:15.000Z</time>
      </trkpt>
      <trkpt lat="43.78678" lon="6.37357">
        <ele>792.4</ele>
        <time>2021-09-07T06:47:16.000Z</time>
      </trkpt>
      <trkpt lat="43.7868" lon="6.37362">
        <ele>792</ele>
        <time>2021-09-07T06:47:16.000Z</time>
      </trkpt>
      <trkpt lat="43.78679" lon="6.3736">
        <ele>792.3</ele>
        <time>2021-09-07T06:47:17.000Z</time>
      </trkpt>
      <trkpt lat="43.78677" lon="6.37349">
        <ele>792.8</ele>
        <time>2021-09-07T06:47:19.000Z</time>
      </trkpt>
      <trkpt lat="43.78676" lon="6.37346">
        <ele>792.9</ele>
        <time>2021-09-07T06:47:20.000Z</time>
      </trkpt>
      <trkpt lat="43.78673" lon="6.37333">
        <ele>793.6</ele>
        <time>2021-09-07T06:47:24.000Z</time>
      </trkpt>
      <trkpt lat="43.78675" lon="6.37338">
        <ele>793.3</ele>
        <time>2021-09-07T06:47:25.000Z</time>
      </trkpt>
      <trkpt lat="43.78672" lon="6.37329">
        <ele>793.5</ele>
        <time>2021-09-07T06:47:25.000Z</time>
      </trkpt>
      <trkpt lat="43.7867" lon="6.37322">
        <ele>793.7</ele>
        <time>2021-09-07T06:47:27.000Z</time>
      </trkpt>
      <trkpt lat="43.78668" lon="6.37319">
        <ele>793.8</ele>
        <time>2021-09-07T06:47:28.000Z</time>
      </trkpt>
      <trkpt lat="43.78667" lon="6.37316">
        <ele>793.9</ele>
        <time>2021-09-07T06:47:29.000Z</time>
      </trkpt>
      <trkpt lat="43.78666" lon="6.37313">
        <ele>793.9</ele>
        <time>2021-09-07T06:47:30.000Z</time>
      </trkpt>
      <trkpt lat="43.78663" lon="6.37308">
        <ele>794.1</ele>
        <time>2021-09-07T06:47:32.000Z</time>
      </trkpt>
      <trkpt lat="43.78659" lon="6.37302">
        <ele>794.4</ele>
        <time>2021-09-07T06:47:34.000Z</time>
      </trkpt>
      <trkpt lat="43.78661" lon="6.37305">
        <ele>794.2</ele>
        <time>2021-09-07T06:47:35.000Z</time>
      </trkpt>
      <trkpt lat="43.78657" lon="6.37299">
        <ele>794.5</ele>
        <time>2021-09-07T06:47:35.000Z</time>
      </trkpt>
      <trkpt lat="43.7865" lon="6.37288">
        <ele>795.2</ele>
        <time>2021-09-07T06:47:39.000Z</time>
      </trkpt>
      <trkpt lat="43.78653" lon="6.37292">
        <ele>795</ele>
        <time>2021-09-07T06:47:40.000Z</time>
      </trkpt>
      <trkpt lat="43.78648" lon="6.37285">
        <ele>795.3</ele>
        <time>2021-09-07T06:47:40.000Z</time>
      </trkpt>
      <trkpt lat="43.78645" lon="6.37279">
        <ele>795.7</ele>
        <time>2021-09-07T06:47:42.000Z</time>
      </trkpt>
      <trkpt lat="43.78642" lon="6.37276">
        <ele>795.9</ele>
        <time>2021-09-07T06:47:43.000Z</time>
      </trkpt>
      <trkpt lat="43.7864" lon="6.37273">
        <ele>796.2</ele>
        <time>2021-09-07T06:47:44.000Z</time>
      </trkpt>
      <trkpt lat="43.78638" lon="6.3727">
        <ele>796</ele>
        <time>2021-09-07T06:47:45.000Z</time>
      </trkpt>
      <trkpt lat="43.78643" lon="6.37278">
        <ele>795.8</ele>
        <time>2021-09-07T06:47:45.000Z</time>
      </trkpt>
      <trkpt lat="43.78641" lon="6.37275">
        <ele>796.2</ele>
        <time>2021-09-07T06:47:46.000Z</time>
      </trkpt>
      <trkpt lat="43.78635" lon="6.37263">
        <ele>796.9</ele>
        <time>2021-09-07T06:47:47.000Z</time>
      </trkpt>
      <trkpt lat="43.78634" lon="6.3726">
        <ele>797</ele>
        <time>2021-09-07T06:47:48.000Z</time>
      </trkpt>
      <trkpt lat="43.78633" lon="6.37257">
        <ele>797.4</ele>
        <time>2021-09-07T06:47:49.000Z</time>
      </trkpt>
      <trkpt lat="43.78632" lon="6.37255">
        <ele>797.5</ele>
        <time>2021-09-07T06:47:52.000Z</time>
      </trkpt>
      <trkpt lat="43.78629" lon="6.37245">
        <ele>798.1</ele>
        <time>2021-09-07T06:47:53.000Z</time>
      </trkpt>
      <trkpt lat="43.78628" lon="6.37241">
        <ele>797.9</ele>
        <time>2021-09-07T06:47:54.000Z</time>
      </trkpt>
      <trkpt lat="43.78628" lon="6.37243">
        <ele>798</ele>
        <time>2021-09-07T06:47:56.000Z</time>
      </trkpt>
      <trkpt lat="43.78627" lon="6.37239">
        <ele>798.1</ele>
        <time>2021-09-07T06:47:57.000Z</time>
      </trkpt>
      <trkpt lat="43.78625" lon="6.3723">
        <ele>798.5</ele>
        <time>2021-09-07T06:47:58.000Z</time>
      </trkpt>
      <trkpt lat="43.78625" lon="6.37228">
        <ele>798.9</ele>
        <time>2021-09-07T06:47:59.000Z</time>
      </trkpt>
      <trkpt lat="43.78624" lon="6.37225">
        <ele>798.9</ele>
        <time>2021-09-07T06:48:00.000Z</time>
      </trkpt>
      <trkpt lat="43.78625" lon="6.37228">
        <ele>798.8</ele>
        <time>2021-09-07T06:48:01.000Z</time>
      </trkpt>
      <trkpt lat="43.78625" lon="6.37222">
        <ele>799</ele>
        <time>2021-09-07T06:48:01.000Z</time>
      </trkpt>
      <trkpt lat="43.78624" lon="6.37215">
        <ele>799.5</ele>
        <time>2021-09-07T06:48:03.000Z</time>
      </trkpt>
      <trkpt lat="43.78625" lon="6.37221">
        <ele>798.9</ele>
        <time>2021-09-07T06:48:04.000Z</time>
      </trkpt>
      <trkpt lat="43.78623" lon="6.37212">
        <ele>799.6</ele>
        <time>2021-09-07T06:48:04.000Z</time>
      </trkpt>
      <trkpt lat="43.78623" lon="6.37201">
        <ele>800.2</ele>
        <time>2021-09-07T06:48:07.000Z</time>
      </trkpt>
      <trkpt lat="43.78622" lon="6.37194">
        <ele>800.7</ele>
        <time>2021-09-07T06:48:09.000Z</time>
      </trkpt>
      <trkpt lat="43.78622" lon="6.3719">
        <ele>800.9</ele>
        <time>2021-09-07T06:48:10.000Z</time>
      </trkpt>
      <trkpt lat="43.78623" lon="6.37198">
        <ele>800.4</ele>
        <time>2021-09-07T06:48:10.000Z</time>
      </trkpt>
      <trkpt lat="43.78622" lon="6.37192">
        <ele>800.8</ele>
        <time>2021-09-07T06:48:12.000Z</time>
      </trkpt>
      <trkpt lat="43.78621" lon="6.37187">
        <ele>801.3</ele>
        <time>2021-09-07T06:48:13.000Z</time>
      </trkpt>
      <trkpt lat="43.78617" lon="6.37175">
        <ele>801.6</ele>
        <time>2021-09-07T06:48:15.000Z</time>
      </trkpt>
      <trkpt lat="43.78615" lon="6.37173">
        <ele>801.8</ele>
        <time>2021-09-07T06:48:16.000Z</time>
      </trkpt>
      <trkpt lat="43.78613" lon="6.37171">
        <ele>802</ele>
        <time>2021-09-07T06:48:17.000Z</time>
      </trkpt>
      <trkpt lat="43.78611" lon="6.3717">
        <ele>802</ele>
        <time>2021-09-07T06:48:18.000Z</time>
      </trkpt>
      <trkpt lat="43.78617" lon="6.37175">
        <ele>801.6</ele>
        <time>2021-09-07T06:48:18.000Z</time>
      </trkpt>
      <trkpt lat="43.78613" lon="6.37172">
        <ele>801.9</ele>
        <time>2021-09-07T06:48:19.000Z</time>
      </trkpt>
      <trkpt lat="43.78609" lon="6.37168">
        <ele>802.2</ele>
        <time>2021-09-07T06:48:19.000Z</time>
      </trkpt>
      <trkpt lat="43.78608" lon="6.37167">
        <ele>802.1</ele>
        <time>2021-09-07T06:48:22.000Z</time>
      </trkpt>
      <trkpt lat="43.78604" lon="6.37164">
        <ele>802.7</ele>
        <time>2021-09-07T06:48:22.000Z</time>
      </trkpt>
      <trkpt lat="43.786" lon="6.37164">
        <ele>803</ele>
        <time>2021-09-07T06:48:24.000Z</time>
      </trkpt>
      <trkpt lat="43.78603" lon="6.37164">
        <ele>802.8</ele>
        <time>2021-09-07T06:48:25.000Z</time>
      </trkpt>
      <trkpt lat="43.78599" lon="6.37164">
        <ele>802.9</ele>
        <time>2021-09-07T06:48:27.000Z</time>
      </trkpt>
      <trkpt lat="43.78592" lon="6.37167">
        <ele>803.2</ele>
        <time>2021-09-07T06:48:28.000Z</time>
      </trkpt>
      <trkpt lat="43.78586" lon="6.37171">
        <ele>803.8</ele>
        <time>2021-09-07T06:48:30.000Z</time>
      </trkpt>
      <trkpt lat="43.7859" lon="6.37169">
        <ele>803.3</ele>
        <time>2021-09-07T06:48:31.000Z</time>
      </trkpt>
      <trkpt lat="43.78584" lon="6.37173">
        <ele>804</ele>
        <time>2021-09-07T06:48:31.000Z</time>
      </trkpt>
      <trkpt lat="43.78579" lon="6.37177">
        <ele>804</ele>
        <time>2021-09-07T06:48:36.000Z</time>
      </trkpt>
      <trkpt lat="43.78573" lon="6.3718">
        <ele>803.9</ele>
        <time>2021-09-07T06:48:36.000Z</time>
      </trkpt>
      <trkpt lat="43.78571" lon="6.3718">
        <ele>804.2</ele>
        <time>2021-09-07T06:48:37.000Z</time>
      </trkpt>
      <trkpt lat="43.78567" lon="6.37179">
        <ele>804.8</ele>
        <time>2021-09-07T06:48:39.000Z</time>
      </trkpt>
      <trkpt lat="43.78572" lon="6.3718">
        <ele>804.2</ele>
        <time>2021-09-07T06:48:39.000Z</time>
      </trkpt>
      <trkpt lat="43.78564" lon="6.37179">
        <ele>804.9</ele>
        <time>2021-09-07T06:48:40.000Z</time>
      </trkpt>
      <trkpt lat="43.78569" lon="6.37179">
        <ele>804.3</ele>
        <time>2021-09-07T06:48:40.000Z</time>
      </trkpt>
      <trkpt lat="43.78562" lon="6.37179">
        <ele>805.1</ele>
        <time>2021-09-07T06:48:41.000Z</time>
      </trkpt>
      <trkpt lat="43.78565" lon="6.37179">
        <ele>804.8</ele>
        <time>2021-09-07T06:48:42.000Z</time>
      </trkpt>
      <trkpt lat="43.78557" lon="6.37177">
        <ele>805.3</ele>
        <time>2021-09-07T06:48:43.000Z</time>
      </trkpt>
      <trkpt lat="43.78563" lon="6.37178">
        <ele>805.1</ele>
        <time>2021-09-07T06:48:43.000Z</time>
      </trkpt>
      <trkpt lat="43.7856" lon="6.37178">
        <ele>805.2</ele>
        <time>2021-09-07T06:48:44.000Z</time>
      </trkpt>
      <trkpt lat="43.78556" lon="6.37175">
        <ele>805.5</ele>
        <time>2021-09-07T06:48:46.000Z</time>
      </trkpt>
      <trkpt lat="43.78551" lon="6.37172">
        <ele>805.8</ele>
        <time>2021-09-07T06:48:46.000Z</time>
      </trkpt>
      <trkpt lat="43.7855" lon="6.3717">
        <ele>805.8</ele>
        <time>2021-09-07T06:48:47.000Z</time>
      </trkpt>
      <trkpt lat="43.78548" lon="6.37168">
        <ele>806.2</ele>
        <time>2021-09-07T06:48:48.000Z</time>
      </trkpt>
      <trkpt lat="43.7855" lon="6.37171">
        <ele>805.8</ele>
        <time>2021-09-07T06:48:49.000Z</time>
      </trkpt>
      <trkpt lat="43.78548" lon="6.37169">
        <ele>806</ele>
        <time>2021-09-07T06:48:50.000Z</time>
      </trkpt>
      <trkpt lat="43.78547" lon="6.37168">
        <ele>806.2</ele>
        <time>2021-09-07T06:48:51.000Z</time>
      </trkpt>
      <trkpt lat="43.78539" lon="6.37159">
        <ele>806.8</ele>
        <time>2021-09-07T06:48:53.000Z</time>
      </trkpt>
      <trkpt lat="43.78537" lon="6.37157">
        <ele>807</ele>
        <time>2021-09-07T06:48:54.000Z</time>
      </trkpt>
      <trkpt lat="43.78538" lon="6.37158">
        <ele>806.8</ele>
        <time>2021-09-07T06:48:56.000Z</time>
      </trkpt>
      <trkpt lat="43.78536" lon="6.37155">
        <ele>807.2</ele>
        <time>2021-09-07T06:48:57.000Z</time>
      </trkpt>
      <trkpt lat="43.78531" lon="6.37152">
        <ele>807.4</ele>
        <time>2021-09-07T06:48:57.000Z</time>
      </trkpt>
      <trkpt lat="43.78529" lon="6.3715">
        <ele>807.5</ele>
        <time>2021-09-07T06:48:58.000Z</time>
      </trkpt>
      <trkpt lat="43.78527" lon="6.37148">
        <ele>807.7</ele>
        <time>2021-09-07T06:48:59.000Z</time>
      </trkpt>
      <trkpt lat="43.7853" lon="6.37151">
        <ele>807.4</ele>
        <time>2021-09-07T06:49:00.000Z</time>
      </trkpt>
      <trkpt lat="43.78523" lon="6.37144">
        <ele>808</ele>
        <time>2021-09-07T06:49:01.000Z</time>
      </trkpt>
      <trkpt lat="43.78522" lon="6.37142">
        <ele>808.2</ele>
        <time>2021-09-07T06:49:02.000Z</time>
      </trkpt>
      <trkpt lat="43.7852" lon="6.37139">
        <ele>808.3</ele>
        <time>2021-09-07T06:49:03.000Z</time>
      </trkpt>
      <trkpt lat="43.78519" lon="6.37137">
        <ele>808.2</ele>
        <time>2021-09-07T06:49:04.000Z</time>
      </trkpt>
      <trkpt lat="43.78517" lon="6.37135">
        <ele>808.4</ele>
        <time>2021-09-07T06:49:05.000Z</time>
      </trkpt>
      <trkpt lat="43.7852" lon="6.37138">
        <ele>808.3</ele>
        <time>2021-09-07T06:49:06.000Z</time>
      </trkpt>
      <trkpt lat="43.78515" lon="6.37133">
        <ele>808.8</ele>
        <time>2021-09-07T06:49:06.000Z</time>
      </trkpt>
      <trkpt lat="43.78514" lon="6.37131">
        <ele>809.2</ele>
        <time>2021-09-07T06:49:07.000Z</time>
      </trkpt>
      <trkpt lat="43.78507" lon="6.37121">
        <ele>809.3</ele>
        <time>2021-09-07T06:49:11.000Z</time>
      </trkpt>
      <trkpt lat="43.78509" lon="6.37125">
        <ele>809.3</ele>
        <time>2021-09-07T06:49:12.000Z</time>
      </trkpt>
      <trkpt lat="43.78504" lon="6.37116">
        <ele>809.7</ele>
        <time>2021-09-07T06:49:13.000Z</time>
      </trkpt>
      <trkpt lat="43.78506" lon="6.37119">
        <ele>809.4</ele>
        <time>2021-09-07T06:49:14.000Z</time>
      </trkpt>
      <trkpt lat="43.78501" lon="6.37111">
        <ele>810</ele>
        <time>2021-09-07T06:49:15.000Z</time>
      </trkpt>
      <trkpt lat="43.78503" lon="6.37114">
        <ele>809.9</ele>
        <time>2021-09-07T06:49:16.000Z</time>
      </trkpt>
      <trkpt lat="43.785" lon="6.37109">
        <ele>809.9</ele>
        <time>2021-09-07T06:49:18.000Z</time>
      </trkpt>
      <trkpt lat="43.78496" lon="6.37103">
        <ele>810.5</ele>
        <time>2021-09-07T06:49:18.000Z</time>
      </trkpt>
      <trkpt lat="43.78495" lon="6.37101">
        <ele>810.4</ele>
        <time>2021-09-07T06:49:19.000Z</time>
      </trkpt>
      <trkpt lat="43.78493" lon="6.37098">
        <ele>810.7</ele>
        <time>2021-09-07T06:49:20.000Z</time>
      </trkpt>
      <trkpt lat="43.78495" lon="6.37102">
        <ele>810.4</ele>
        <time>2021-09-07T06:49:21.000Z</time>
      </trkpt>
      <trkpt lat="43.78492" lon="6.37096">
        <ele>811.2</ele>
        <time>2021-09-07T06:49:21.000Z</time>
      </trkpt>
      <trkpt lat="43.7849" lon="6.37093">
        <ele>811.5</ele>
        <time>2021-09-07T06:49:22.000Z</time>
      </trkpt>
      <trkpt lat="43.78489" lon="6.37089">
        <ele>811.7</ele>
        <time>2021-09-07T06:49:23.000Z</time>
      </trkpt>
      <trkpt lat="43.78491" lon="6.37095">
        <ele>811.3</ele>
        <time>2021-09-07T06:49:24.000Z</time>
      </trkpt>
      <trkpt lat="43.7849" lon="6.37091">
        <ele>811.6</ele>
        <time>2021-09-07T06:49:25.000Z</time>
      </trkpt>
      <trkpt lat="43.78488" lon="6.37086">
        <ele>812</ele>
        <time>2021-09-07T06:49:26.000Z</time>
      </trkpt>
      <trkpt lat="43.78484" lon="6.37077">
        <ele>812</ele>
        <time>2021-09-07T06:49:27.000Z</time>
      </trkpt>
      <trkpt lat="43.78483" lon="6.37074">
        <ele>812.1</ele>
        <time>2021-09-07T06:49:28.000Z</time>
      </trkpt>
      <trkpt lat="43.78481" lon="6.37071">
        <ele>812.6</ele>
        <time>2021-09-07T06:49:29.000Z</time>
      </trkpt>
      <trkpt lat="43.7848" lon="6.37069">
        <ele>813</ele>
        <time>2021-09-07T06:49:30.000Z</time>
      </trkpt>
      <trkpt lat="43.78477" lon="6.37063">
        <ele>812.9</ele>
        <time>2021-09-07T06:49:32.000Z</time>
      </trkpt>
      <trkpt lat="43.78481" lon="6.3707">
        <ele>812.9</ele>
        <time>2021-09-07T06:49:32.000Z</time>
      </trkpt>
      <trkpt lat="43.78475" lon="6.37061">
        <ele>813.4</ele>
        <time>2021-09-07T06:49:33.000Z</time>
      </trkpt>
      <trkpt lat="43.78479" lon="6.37067">
        <ele>813.1</ele>
        <time>2021-09-07T06:49:33.000Z</time>
      </trkpt>
      <trkpt lat="43.78472" lon="6.37055">
        <ele>813.3</ele>
        <time>2021-09-07T06:49:35.000Z</time>
      </trkpt>
      <trkpt lat="43.78476" lon="6.37061">
        <ele>813.2</ele>
        <time>2021-09-07T06:49:35.000Z</time>
      </trkpt>
      <trkpt lat="43.78474" lon="6.37058">
        <ele>813.4</ele>
        <time>2021-09-07T06:49:36.000Z</time>
      </trkpt>
      <trkpt lat="43.78469" lon="6.37049">
        <ele>813.8</ele>
        <time>2021-09-07T06:49:37.000Z</time>
      </trkpt>
      <trkpt lat="43.78471" lon="6.37053">
        <ele>813.4</ele>
        <time>2021-09-07T06:49:38.000Z</time>
      </trkpt>
      <trkpt lat="43.78468" lon="6.37048">
        <ele>813.7</ele>
        <time>2021-09-07T06:49:40.000Z</time>
      </trkpt>
      <trkpt lat="43.78463" lon="6.37035">
        <ele>813.9</ele>
        <time>2021-09-07T06:49:42.000Z</time>
      </trkpt>
      <trkpt lat="43.7846" lon="6.37029">
        <ele>814.4</ele>
        <time>2021-09-07T06:49:44.000Z</time>
      </trkpt>
      <trkpt lat="43.78462" lon="6.37032">
        <ele>814.1</ele>
        <time>2021-09-07T06:49:45.000Z</time>
      </trkpt>
      <trkpt lat="43.7846" lon="6.37027">
        <ele>814.6</ele>
        <time>2021-09-07T06:49:47.000Z</time>
      </trkpt>
      <trkpt lat="43.78452" lon="6.37012">
        <ele>815.4</ele>
        <time>2021-09-07T06:49:49.000Z</time>
      </trkpt>
      <trkpt lat="43.78451" lon="6.37009">
        <ele>815.4</ele>
        <time>2021-09-07T06:49:52.000Z</time>
      </trkpt>
      <trkpt lat="43.78446" lon="6.36997">
        <ele>816.1</ele>
        <time>2021-09-07T06:49:54.000Z</time>
      </trkpt>
      <trkpt lat="43.78445" lon="6.36994">
        <ele>816.3</ele>
        <time>2021-09-07T06:49:55.000Z</time>
      </trkpt>
      <trkpt lat="43.78441" lon="6.36982">
        <ele>816.6</ele>
        <time>2021-09-07T06:49:59.000Z</time>
      </trkpt>
      <trkpt lat="43.78443" lon="6.36987">
        <ele>816.8</ele>
        <time>2021-09-07T06:50:00.000Z</time>
      </trkpt>
      <trkpt lat="43.7844" lon="6.36979">
        <ele>817</ele>
        <time>2021-09-07T06:50:00.000Z</time>
      </trkpt>
      <trkpt lat="43.78435" lon="6.36966">
        <ele>817.6</ele>
        <time>2021-09-07T06:50:04.000Z</time>
      </trkpt>
      <trkpt lat="43.78437" lon="6.36971">
        <ele>817.2</ele>
        <time>2021-09-07T06:50:05.000Z</time>
      </trkpt>
      <trkpt lat="43.78434" lon="6.36964">
        <ele>817.9</ele>
        <time>2021-09-07T06:50:07.000Z</time>
      </trkpt>
      <trkpt lat="43.78432" lon="6.36957">
        <ele>817.7</ele>
        <time>2021-09-07T06:50:07.000Z</time>
      </trkpt>
      <trkpt lat="43.7843" lon="6.36954">
        <ele>817.8</ele>
        <time>2021-09-07T06:50:08.000Z</time>
      </trkpt>
      <trkpt lat="43.78426" lon="6.36941">
        <ele>818.3</ele>
        <time>2021-09-07T06:50:12.000Z</time>
      </trkpt>
      <trkpt lat="43.78427" lon="6.36944">
        <ele>818.1</ele>
        <time>2021-09-07T06:50:13.000Z</time>
      </trkpt>
      <trkpt lat="43.78424" lon="6.36937">
        <ele>818.5</ele>
        <time>2021-09-07T06:50:13.000Z</time>
      </trkpt>
      <trkpt lat="43.78417" lon="6.36917">
        <ele>819.5</ele>
        <time>2021-09-07T06:50:19.000Z</time>
      </trkpt>
      <trkpt lat="43.78416" lon="6.36914">
        <ele>819.8</ele>
        <time>2021-09-07T06:50:20.000Z</time>
      </trkpt>
      <trkpt lat="43.78418" lon="6.36921">
        <ele>819.4</ele>
        <time>2021-09-07T06:50:20.000Z</time>
      </trkpt>
      <trkpt lat="43.78415" lon="6.36911">
        <ele>819.9</ele>
        <time>2021-09-07T06:50:21.000Z</time>
      </trkpt>
      <trkpt lat="43.78416" lon="6.36916">
        <ele>819.7</ele>
        <time>2021-09-07T06:50:22.000Z</time>
      </trkpt>
      <trkpt lat="43.78412" lon="6.36905">
        <ele>820.1</ele>
        <time>2021-09-07T06:50:23.000Z</time>
      </trkpt>
      <trkpt lat="43.78411" lon="6.36899">
        <ele>820.3</ele>
        <time>2021-09-07T06:50:25.000Z</time>
      </trkpt>
      <trkpt lat="43.78412" lon="6.36902">
        <ele>820.2</ele>
        <time>2021-09-07T06:50:26.000Z</time>
      </trkpt>
      <trkpt lat="43.78411" lon="6.36898">
        <ele>820.4</ele>
        <time>2021-09-07T06:50:28.000Z</time>
      </trkpt>
      <trkpt lat="43.78408" lon="6.36889">
        <ele>820.7</ele>
        <time>2021-09-07T06:50:28.000Z</time>
      </trkpt>
      <trkpt lat="43.78407" lon="6.36886">
        <ele>820.7</ele>
        <time>2021-09-07T06:50:29.000Z</time>
      </trkpt>
      <trkpt lat="43.78405" lon="6.3688">
        <ele>821.3</ele>
        <time>2021-09-07T06:50:31.000Z</time>
      </trkpt>
      <trkpt lat="43.78408" lon="6.36888">
        <ele>820.7</ele>
        <time>2021-09-07T06:50:31.000Z</time>
      </trkpt>
      <trkpt lat="43.78406" lon="6.36883">
        <ele>821</ele>
        <time>2021-09-07T06:50:32.000Z</time>
      </trkpt>
      <trkpt lat="43.78402" lon="6.36874">
        <ele>821.8</ele>
        <time>2021-09-07T06:50:33.000Z</time>
      </trkpt>
      <trkpt lat="43.78401" lon="6.36871">
        <ele>821.7</ele>
        <time>2021-09-07T06:50:34.000Z</time>
      </trkpt>
      <trkpt lat="43.78404" lon="6.36878">
        <ele>821.6</ele>
        <time>2021-09-07T06:50:34.000Z</time>
      </trkpt>
      <trkpt lat="43.78397" lon="6.36864">
        <ele>822.1</ele>
        <time>2021-09-07T06:50:36.000Z</time>
      </trkpt>
      <trkpt lat="43.78402" lon="6.36873">
        <ele>821.8</ele>
        <time>2021-09-07T06:50:36.000Z</time>
      </trkpt>
      <trkpt lat="43.784" lon="6.3687">
        <ele>821.8</ele>
        <time>2021-09-07T06:50:37.000Z</time>
      </trkpt>
      <trkpt lat="43.78396" lon="6.36861">
        <ele>822.2</ele>
        <time>2021-09-07T06:50:37.000Z</time>
      </trkpt>
      <trkpt lat="43.78389" lon="6.36846">
        <ele>822.8</ele>
        <time>2021-09-07T06:50:42.000Z</time>
      </trkpt>
      <trkpt lat="43.78382" lon="6.36833">
        <ele>823.5</ele>
        <time>2021-09-07T06:50:47.000Z</time>
      </trkpt>
      <trkpt lat="43.78376" lon="6.36822">
        <ele>824.3</ele>
        <time>2021-09-07T06:50:52.000Z</time>
      </trkpt>
      <trkpt lat="43.7837" lon="6.36805">
        <ele>825</ele>
        <time>2021-09-07T06:50:57.000Z</time>
      </trkpt>
      <trkpt lat="43.78366" lon="6.36789">
        <ele>826.1</ele>
        <time>2021-09-07T06:51:02.000Z</time>
      </trkpt>
      <trkpt lat="43.78359" lon="6.36774">
        <ele>826.7</ele>
        <time>2021-09-07T06:51:07.000Z</time>
      </trkpt>
      <trkpt lat="43.7835" lon="6.3676">
        <ele>827.3</ele>
        <time>2021-09-07T06:51:12.000Z</time>
      </trkpt>
      <trkpt lat="43.78345" lon="6.3674">
        <ele>827.8</ele>
        <time>2021-09-07T06:51:17.000Z</time>
      </trkpt>
      <trkpt lat="43.78339" lon="6.36724">
        <ele>828.5</ele>
        <time>2021-09-07T06:51:22.000Z</time>
      </trkpt>
      <trkpt lat="43.78331" lon="6.36708">
        <ele>829.4</ele>
        <time>2021-09-07T06:51:27.000Z</time>
      </trkpt>
      <trkpt lat="43.78325" lon="6.36692">
        <ele>829.9</ele>
        <time>2021-09-07T06:51:32.000Z</time>
      </trkpt>
      <trkpt lat="43.78317" lon="6.36675">
        <ele>830.9</ele>
        <time>2021-09-07T06:51:37.000Z</time>
      </trkpt>
      <trkpt lat="43.7831" lon="6.36657">
        <ele>831.6</ele>
        <time>2021-09-07T06:51:42.000Z</time>
      </trkpt>
      <trkpt lat="43.78304" lon="6.36638">
        <ele>832.1</ele>
        <time>2021-09-07T06:51:47.000Z</time>
      </trkpt>
      <trkpt lat="43.78299" lon="6.36622">
        <ele>832.6</ele>
        <time>2021-09-07T06:51:52.000Z</time>
      </trkpt>
      <trkpt lat="43.78293" lon="6.36604">
        <ele>833.3</ele>
        <time>2021-09-07T06:51:57.000Z</time>
      </trkpt>
      <trkpt lat="43.78287" lon="6.36589">
        <ele>834.1</ele>
        <time>2021-09-07T06:52:02.000Z</time>
      </trkpt>
      <trkpt lat="43.78283" lon="6.36579">
        <ele>834.7</ele>
        <time>2021-09-07T06:52:07.000Z</time>
      </trkpt>
      <trkpt lat="43.78278" lon="6.36562">
        <ele>835.4</ele>
        <time>2021-09-07T06:52:12.000Z</time>
      </trkpt>
      <trkpt lat="43.78273" lon="6.36548">
        <ele>836.4</ele>
        <time>2021-09-07T06:52:17.000Z</time>
      </trkpt>
      <trkpt lat="43.78268" lon="6.36532">
        <ele>836.9</ele>
        <time>2021-09-07T06:52:22.000Z</time>
      </trkpt>
      <trkpt lat="43.78262" lon="6.36513">
        <ele>837.6</ele>
        <time>2021-09-07T06:52:27.000Z</time>
      </trkpt>
      <trkpt lat="43.78257" lon="6.36497">
        <ele>838.4</ele>
        <time>2021-09-07T06:52:32.000Z</time>
      </trkpt>
      <trkpt lat="43.78253" lon="6.36481">
        <ele>839.9</ele>
        <time>2021-09-07T06:52:37.000Z</time>
      </trkpt>
      <trkpt lat="43.78249" lon="6.36464">
        <ele>840.5</ele>
        <time>2021-09-07T06:52:42.000Z</time>
      </trkpt>
      <trkpt lat="43.78244" lon="6.36449">
        <ele>841.2</ele>
        <time>2021-09-07T06:52:47.000Z</time>
      </trkpt>
      <trkpt lat="43.78238" lon="6.36429">
        <ele>842</ele>
        <time>2021-09-07T06:52:52.000Z</time>
      </trkpt>
      <trkpt lat="43.78231" lon="6.36404">
        <ele>842.7</ele>
        <time>2021-09-07T06:52:57.000Z</time>
      </trkpt>
      <trkpt lat="43.78228" lon="6.36385">
        <ele>843.4</ele>
        <time>2021-09-07T06:53:02.000Z</time>
      </trkpt>
      <trkpt lat="43.78226" lon="6.36369">
        <ele>844.4</ele>
        <time>2021-09-07T06:53:07.000Z</time>
      </trkpt>
      <trkpt lat="43.78225" lon="6.36352">
        <ele>845.1</ele>
        <time>2021-09-07T06:53:12.000Z</time>
      </trkpt>
      <trkpt lat="43.78223" lon="6.36336">
        <ele>845.7</ele>
        <time>2021-09-07T06:53:17.000Z</time>
      </trkpt>
      <trkpt lat="43.78222" lon="6.36317">
        <ele>846.1</ele>
        <time>2021-09-07T06:53:22.000Z</time>
      </trkpt>
      <trkpt lat="43.78219" lon="6.36302">
        <ele>846.6</ele>
        <time>2021-09-07T06:53:27.000Z</time>
      </trkpt>
      <trkpt lat="43.78217" lon="6.36285">
        <ele>847.4</ele>
        <time>2021-09-07T06:53:32.000Z</time>
      </trkpt>
      <trkpt lat="43.78214" lon="6.36266">
        <ele>848.2</ele>
        <time>2021-09-07T06:53:37.000Z</time>
      </trkpt>
      <trkpt lat="43.78211" lon="6.36247">
        <ele>849.4</ele>
        <time>2021-09-07T06:53:42.000Z</time>
      </trkpt>
      <trkpt lat="43.78209" lon="6.36229">
        <ele>850</ele>
        <time>2021-09-07T06:53:47.000Z</time>
      </trkpt>
      <trkpt lat="43.78207" lon="6.36211">
        <ele>850.6</ele>
        <time>2021-09-07T06:53:52.000Z</time>
      </trkpt>
      <trkpt lat="43.78204" lon="6.36196">
        <ele>851</ele>
        <time>2021-09-07T06:53:57.000Z</time>
      </trkpt>
      <trkpt lat="43.782" lon="6.3618">
        <ele>851.9</ele>
        <time>2021-09-07T06:54:02.000Z</time>
      </trkpt>
      <trkpt lat="43.78196" lon="6.36164">
        <ele>852.6</ele>
        <time>2021-09-07T06:54:07.000Z</time>
      </trkpt>
      <trkpt lat="43.78191" lon="6.3615">
        <ele>853.4</ele>
        <time>2021-09-07T06:54:12.000Z</time>
      </trkpt>
      <trkpt lat="43.78187" lon="6.36134">
        <ele>854.2</ele>
        <time>2021-09-07T06:54:17.000Z</time>
      </trkpt>
      <trkpt lat="43.78182" lon="6.36117">
        <ele>854.9</ele>
        <time>2021-09-07T06:54:22.000Z</time>
      </trkpt>
      <trkpt lat="43.78177" lon="6.36098">
        <ele>855.6</ele>
        <time>2021-09-07T06:54:27.000Z</time>
      </trkpt>
      <trkpt lat="43.78172" lon="6.3608">
        <ele>856.4</ele>
        <time>2021-09-07T06:54:32.000Z</time>
      </trkpt>
      <trkpt lat="43.78166" lon="6.36063">
        <ele>857.3</ele>
        <time>2021-09-07T06:54:37.000Z</time>
      </trkpt>
      <trkpt lat="43.7816" lon="6.36047">
        <ele>858</ele>
        <time>2021-09-07T06:54:42.000Z</time>
      </trkpt>
      <trkpt lat="43.78154" lon="6.36029">
        <ele>858.7</ele>
        <time>2021-09-07T06:54:47.000Z</time>
      </trkpt>
      <trkpt lat="43.78148" lon="6.36013">
        <ele>859.4</ele>
        <time>2021-09-07T06:54:52.000Z</time>
      </trkpt>
      <trkpt lat="43.78142" lon="6.35995">
        <ele>859.8</ele>
        <time>2021-09-07T06:54:57.000Z</time>
      </trkpt>
      <trkpt lat="43.78137" lon="6.35977">
        <ele>860.6</ele>
        <time>2021-09-07T06:55:02.000Z</time>
      </trkpt>
      <trkpt lat="43.78133" lon="6.35965">
        <ele>861.2</ele>
        <time>2021-09-07T06:55:07.000Z</time>
      </trkpt>
      <trkpt lat="43.78129" lon="6.35949">
        <ele>862.1</ele>
        <time>2021-09-07T06:55:12.000Z</time>
      </trkpt>
      <trkpt lat="43.78124" lon="6.35931">
        <ele>862.6</ele>
        <time>2021-09-07T06:55:17.000Z</time>
      </trkpt>
      <trkpt lat="43.78121" lon="6.35916">
        <ele>863.4</ele>
        <time>2021-09-07T06:55:22.000Z</time>
      </trkpt>
      <trkpt lat="43.78118" lon="6.35898">
        <ele>864</ele>
        <time>2021-09-07T06:55:27.000Z</time>
      </trkpt>
      <trkpt lat="43.78113" lon="6.35878">
        <ele>864.6</ele>
        <time>2021-09-07T06:55:32.000Z</time>
      </trkpt>
      <trkpt lat="43.78111" lon="6.35866">
        <ele>865.1</ele>
        <time>2021-09-07T06:55:38.000Z</time>
      </trkpt>
      <trkpt lat="43.78107" lon="6.35851">
        <ele>865.6</ele>
        <time>2021-09-07T06:55:40.000Z</time>
      </trkpt>
      <trkpt lat="43.78105" lon="6.35843">
        <ele>865.9</ele>
        <time>2021-09-07T06:55:42.000Z</time>
      </trkpt>
      <trkpt lat="43.78106" lon="6.35849">
        <ele>865.7</ele>
        <time>2021-09-07T06:55:43.000Z</time>
      </trkpt>
      <trkpt lat="43.78104" lon="6.35842">
        <ele>865.9</ele>
        <time>2021-09-07T06:55:45.000Z</time>
      </trkpt>
      <trkpt lat="43.78102" lon="6.35832">
        <ele>866.7</ele>
        <time>2021-09-07T06:55:45.000Z</time>
      </trkpt>
      <trkpt lat="43.78101" lon="6.35826">
        <ele>867.2</ele>
        <time>2021-09-07T06:55:47.000Z</time>
      </trkpt>
      <trkpt lat="43.781" lon="6.35824">
        <ele>867</ele>
        <time>2021-09-07T06:55:48.000Z</time>
      </trkpt>
      <trkpt lat="43.78102" lon="6.3583">
        <ele>866.9</ele>
        <time>2021-09-07T06:55:48.000Z</time>
      </trkpt>
      <trkpt lat="43.78099" lon="6.35821">
        <ele>867.2</ele>
        <time>2021-09-07T06:55:49.000Z</time>
      </trkpt>
      <trkpt lat="43.78101" lon="6.35825">
        <ele>867</ele>
        <time>2021-09-07T06:55:50.000Z</time>
      </trkpt>
      <trkpt lat="43.78095" lon="6.35803">
        <ele>867.9</ele>
        <time>2021-09-07T06:55:55.000Z</time>
      </trkpt>
      <trkpt lat="43.78091" lon="6.35788">
        <ele>868.2</ele>
        <time>2021-09-07T06:56:00.000Z</time>
      </trkpt>
      <trkpt lat="43.78087" lon="6.3577">
        <ele>868.9</ele>
        <time>2021-09-07T06:56:05.000Z</time>
      </trkpt>
      <trkpt lat="43.78083" lon="6.35756">
        <ele>869</ele>
        <time>2021-09-07T06:56:10.000Z</time>
      </trkpt>
      <trkpt lat="43.7808" lon="6.35745">
        <ele>869.5</ele>
        <time>2021-09-07T06:56:13.000Z</time>
      </trkpt>
      <trkpt lat="43.7808" lon="6.35742">
        <ele>869.6</ele>
        <time>2021-09-07T06:56:14.000Z</time>
      </trkpt>
      <trkpt lat="43.78081" lon="6.35748">
        <ele>869.7</ele>
        <time>2021-09-07T06:56:15.000Z</time>
      </trkpt>
      <trkpt lat="43.78078" lon="6.35736">
        <ele>869.5</ele>
        <time>2021-09-07T06:56:16.000Z</time>
      </trkpt>
      <trkpt lat="43.7808" lon="6.35745">
        <ele>869.4</ele>
        <time>2021-09-07T06:56:16.000Z</time>
      </trkpt>
      <trkpt lat="43.78079" lon="6.35739">
        <ele>869.6</ele>
        <time>2021-09-07T06:56:17.000Z</time>
      </trkpt>
      <trkpt lat="43.78076" lon="6.3573">
        <ele>870.2</ele>
        <time>2021-09-07T06:56:18.000Z</time>
      </trkpt>
      <trkpt lat="43.78077" lon="6.35734">
        <ele>870</ele>
        <time>2021-09-07T06:56:19.000Z</time>
      </trkpt>
      <trkpt lat="43.78074" lon="6.35723">
        <ele>870</ele>
        <time>2021-09-07T06:56:20.000Z</time>
      </trkpt>
      <trkpt lat="43.78076" lon="6.35729">
        <ele>870.3</ele>
        <time>2021-09-07T06:56:21.000Z</time>
      </trkpt>
      <trkpt lat="43.78073" lon="6.3572">
        <ele>870.3</ele>
        <time>2021-09-07T06:56:21.000Z</time>
      </trkpt>
      <trkpt lat="43.78071" lon="6.35714">
        <ele>870.3</ele>
        <time>2021-09-07T06:56:23.000Z</time>
      </trkpt>
      <trkpt lat="43.78071" lon="6.35711">
        <ele>870.5</ele>
        <time>2021-09-07T06:56:24.000Z</time>
      </trkpt>
      <trkpt lat="43.7807" lon="6.35707">
        <ele>870.6</ele>
        <time>2021-09-07T06:56:25.000Z</time>
      </trkpt>
      <trkpt lat="43.7807" lon="6.35704">
        <ele>870.6</ele>
        <time>2021-09-07T06:56:26.000Z</time>
      </trkpt>
      <trkpt lat="43.78068" lon="6.35697">
        <ele>870.4</ele>
        <time>2021-09-07T06:56:28.000Z</time>
      </trkpt>
      <trkpt lat="43.7807" lon="6.35705">
        <ele>870.7</ele>
        <time>2021-09-07T06:56:28.000Z</time>
      </trkpt>
      <trkpt lat="43.78069" lon="6.35701">
        <ele>870.5</ele>
        <time>2021-09-07T06:56:29.000Z</time>
      </trkpt>
      <trkpt lat="43.78067" lon="6.35691">
        <ele>870.6</ele>
        <time>2021-09-07T06:56:30.000Z</time>
      </trkpt>
      <trkpt lat="43.78065" lon="6.35688">
        <ele>870.8</ele>
        <time>2021-09-07T06:56:31.000Z</time>
      </trkpt>
      <trkpt lat="43.78067" lon="6.35695">
        <ele>870.3</ele>
        <time>2021-09-07T06:56:31.000Z</time>
      </trkpt>
      <trkpt lat="43.78063" lon="6.35681">
        <ele>870.9</ele>
        <time>2021-09-07T06:56:33.000Z</time>
      </trkpt>
      <trkpt lat="43.78066" lon="6.3569">
        <ele>870.7</ele>
        <time>2021-09-07T06:56:33.000Z</time>
      </trkpt>
      <trkpt lat="43.78064" lon="6.35685">
        <ele>870.9</ele>
        <time>2021-09-07T06:56:34.000Z</time>
      </trkpt>
      <trkpt lat="43.78062" lon="6.35675">
        <ele>871.2</ele>
        <time>2021-09-07T06:56:35.000Z</time>
      </trkpt>
      <trkpt lat="43.78061" lon="6.35671">
        <ele>871.1</ele>
        <time>2021-09-07T06:56:36.000Z</time>
      </trkpt>
      <trkpt lat="43.78062" lon="6.35679">
        <ele>871.2</ele>
        <time>2021-09-07T06:56:36.000Z</time>
      </trkpt>
      <trkpt lat="43.7806" lon="6.35668">
        <ele>871.2</ele>
        <time>2021-09-07T06:56:37.000Z</time>
      </trkpt>
      <trkpt lat="43.78062" lon="6.35674">
        <ele>871</ele>
        <time>2021-09-07T06:56:38.000Z</time>
      </trkpt>
      <trkpt lat="43.78055" lon="6.35649">
        <ele>871.7</ele>
        <time>2021-09-07T06:56:43.000Z</time>
      </trkpt>
      <trkpt lat="43.7805" lon="6.35632">
        <ele>872.2</ele>
        <time>2021-09-07T06:56:50.000Z</time>
      </trkpt>
      <trkpt lat="43.78048" lon="6.35626">
        <ele>872.5</ele>
        <time>2021-09-07T06:56:50.000Z</time>
      </trkpt>
      <trkpt lat="43.78048" lon="6.35625">
        <ele>872.6</ele>
        <time>2021-09-07T06:56:53.000Z</time>
      </trkpt>
      <trkpt lat="43.78047" lon="6.35619">
        <ele>872.6</ele>
        <time>2021-09-07T06:56:53.000Z</time>
      </trkpt>
      <trkpt lat="43.78046" lon="6.35615">
        <ele>873</ele>
        <time>2021-09-07T06:56:54.000Z</time>
      </trkpt>
      <trkpt lat="43.78045" lon="6.35606">
        <ele>873</ele>
        <time>2021-09-07T06:56:56.000Z</time>
      </trkpt>
      <trkpt lat="43.78044" lon="6.35602">
        <ele>873.1</ele>
        <time>2021-09-07T06:56:57.000Z</time>
      </trkpt>
      <trkpt lat="43.78044" lon="6.35605">
        <ele>873</ele>
        <time>2021-09-07T06:56:58.000Z</time>
      </trkpt>
      <trkpt lat="43.78043" lon="6.35598">
        <ele>873.3</ele>
        <time>2021-09-07T06:56:58.000Z</time>
      </trkpt>
      <trkpt lat="43.7804" lon="6.35594">
        <ele>873</ele>
        <time>2021-09-07T06:57:00.000Z</time>
      </trkpt>
      <trkpt lat="43.78038" lon="6.35592">
        <ele>873.3</ele>
        <time>2021-09-07T06:57:01.000Z</time>
      </trkpt>
      <trkpt lat="43.78039" lon="6.35593">
        <ele>873.1</ele>
        <time>2021-09-07T06:57:02.000Z</time>
      </trkpt>
      <trkpt lat="43.78037" lon="6.35591">
        <ele>873.6</ele>
        <time>2021-09-07T06:57:03.000Z</time>
      </trkpt>
      <trkpt lat="43.78033" lon="6.35588">
        <ele>873.4</ele>
        <time>2021-09-07T06:57:03.000Z</time>
      </trkpt>
      <trkpt lat="43.78032" lon="6.35586">
        <ele>873.3</ele>
        <time>2021-09-07T06:57:05.000Z</time>
      </trkpt>
      <trkpt lat="43.7803" lon="6.35584">
        <ele>873.5</ele>
        <time>2021-09-07T06:57:05.000Z</time>
      </trkpt>
      <trkpt lat="43.78028" lon="6.35582">
        <ele>873.6</ele>
        <time>2021-09-07T06:57:06.000Z</time>
      </trkpt>
      <trkpt lat="43.78029" lon="6.35583">
        <ele>873.6</ele>
        <time>2021-09-07T06:57:07.000Z</time>
      </trkpt>
      <trkpt lat="43.78026" lon="6.3558">
        <ele>873.7</ele>
        <time>2021-09-07T06:57:07.000Z</time>
      </trkpt>
      <trkpt lat="43.78024" lon="6.35575">
        <ele>873.7</ele>
        <time>2021-09-07T06:57:09.000Z</time>
      </trkpt>
      <trkpt lat="43.78023" lon="6.35572">
        <ele>873.7</ele>
        <time>2021-09-07T06:57:11.000Z</time>
      </trkpt>
      <trkpt lat="43.78021" lon="6.35567">
        <ele>874</ele>
        <time>2021-09-07T06:57:12.000Z</time>
      </trkpt>
      <trkpt lat="43.78021" lon="6.35567">
        <ele>874.1</ele>
        <time>2021-09-07T06:57:14.000Z</time>
      </trkpt>
      <trkpt lat="43.7802" lon="6.35562">
        <ele>874.2</ele>
        <time>2021-09-07T06:57:14.000Z</time>
      </trkpt>
      <trkpt lat="43.7802" lon="6.35559">
        <ele>874.3</ele>
        <time>2021-09-07T06:57:15.000Z</time>
      </trkpt>
      <trkpt lat="43.7802" lon="6.35554">
        <ele>874.3</ele>
        <time>2021-09-07T06:57:17.000Z</time>
      </trkpt>
      <trkpt lat="43.78021" lon="6.35552">
        <ele>874.6</ele>
        <time>2021-09-07T06:57:19.000Z</time>
      </trkpt>
      <trkpt lat="43.7802" lon="6.35549">
        <ele>875</ele>
        <time>2021-09-07T06:57:19.000Z</time>
      </trkpt>
      <trkpt lat="43.78019" lon="6.35547">
        <ele>875.1</ele>
        <time>2021-09-07T06:57:21.000Z</time>
      </trkpt>
      <trkpt lat="43.78011" lon="6.3554">
        <ele>875</ele>
        <time>2021-09-07T06:57:25.000Z</time>
      </trkpt>
      <trkpt lat="43.78012" lon="6.3554">
        <ele>875</ele>
        <time>2021-09-07T06:57:26.000Z</time>
      </trkpt>
      <trkpt lat="43.78009" lon="6.35539">
        <ele>875.1</ele>
        <time>2021-09-07T06:57:27.000Z</time>
      </trkpt>
      <trkpt lat="43.78003" lon="6.35536">
        <ele>874.9</ele>
        <time>2021-09-07T06:57:29.000Z</time>
      </trkpt>
      <trkpt lat="43.78001" lon="6.35536">
        <ele>874.8</ele>
        <time>2021-09-07T06:57:30.000Z</time>
      </trkpt>
      <trkpt lat="43.78002" lon="6.35536">
        <ele>874.7</ele>
        <time>2021-09-07T06:57:33.000Z</time>
      </trkpt>
      <trkpt lat="43.78002" lon="6.35536">
        <ele>874.7</ele>
        <time>2021-09-07T06:57:34.000Z</time>
      </trkpt>
      <trkpt lat="43.78002" lon="6.35536">
        <ele>874.7</ele>
        <time>2021-09-07T06:57:36.000Z</time>
      </trkpt>
      <trkpt lat="43.78003" lon="6.35535">
        <ele>874.8</ele>
        <time>2021-09-07T06:57:36.000Z</time>
      </trkpt>
      <trkpt lat="43.78003" lon="6.35532">
        <ele>874.8</ele>
        <time>2021-09-07T06:57:41.000Z</time>
      </trkpt>
      <trkpt lat="43.78003" lon="6.3553">
        <ele>874.7</ele>
        <time>2021-09-07T06:57:46.000Z</time>
      </trkpt>
      <trkpt lat="43.78002" lon="6.35527">
        <ele>874.6</ele>
        <time>2021-09-07T06:57:51.000Z</time>
      </trkpt>
      <trkpt lat="43.78002" lon="6.35526">
        <ele>874.7</ele>
        <time>2021-09-07T06:57:53.000Z</time>
      </trkpt>
      <trkpt lat="43.78002" lon="6.35526">
        <ele>874.8</ele>
        <time>2021-09-07T06:57:58.000Z</time>
      </trkpt>
      <trkpt lat="43.78002" lon="6.35526">
        <ele>874.6</ele>
        <time>2021-09-07T06:58:03.000Z</time>
      </trkpt>
      <trkpt lat="43.78002" lon="6.35526">
        <ele>874.2</ele>
        <time>2021-09-07T06:58:09.000Z</time>
      </trkpt>
      <trkpt lat="43.78002" lon="6.35525">
        <ele>874.4</ele>
        <time>2021-09-07T06:58:13.000Z</time>
      </trkpt>
      <trkpt lat="43.78002" lon="6.35525">
        <ele>874.2</ele>
        <time>2021-09-07T06:58:15.000Z</time>
      </trkpt>
      <trkpt lat="43.78002" lon="6.35524">
        <ele>874.1</ele>
        <time>2021-09-07T06:58:20.000Z</time>
      </trkpt>
      <trkpt lat="43.78002" lon="6.35524">
        <ele>874.5</ele>
        <time>2021-09-07T06:58:25.000Z</time>
      </trkpt>
      <trkpt lat="43.78002" lon="6.35524">
        <ele>874.3</ele>
        <time>2021-09-07T06:58:30.000Z</time>
      </trkpt>
      <trkpt lat="43.78002" lon="6.35524">
        <ele>874.4</ele>
        <time>2021-09-07T06:58:35.000Z</time>
      </trkpt>
      <trkpt lat="43.78002" lon="6.35524">
        <ele>874.6</ele>
        <time>2021-09-07T06:58:40.000Z</time>
      </trkpt>
      <trkpt lat="43.78002" lon="6.35524">
        <ele>874.6</ele>
        <time>2021-09-07T06:58:40.000Z</time>
      </trkpt>
      <trkpt lat="43.78002" lon="6.35524">
        <ele>874.2</ele>
        <time>2021-09-07T06:58:41.000Z</time>
      </trkpt>
      <trkpt lat="43.78002" lon="6.35524">
        <ele>874.1</ele>
        <time>2021-09-07T06:58:43.000Z</time>
      </trkpt>
      <trkpt lat="43.78002" lon="6.35523">
        <ele>874</ele>
        <time>2021-09-07T06:58:47.000Z</time>
      </trkpt>
      <trkpt lat="43.78002" lon="6.35522">
        <ele>874.2</ele>
        <time>2021-09-07T06:58:52.000Z</time>
      </trkpt>
      <trkpt lat="43.78002" lon="6.35522">
        <ele>874</ele>
        <time>2021-09-07T06:58:54.000Z</time>
      </trkpt>
      <trkpt lat="43.78002" lon="6.35522">
        <ele>874</ele>
        <time>2021-09-07T06:58:55.000Z</time>
      </trkpt>
      <trkpt lat="43.78002" lon="6.35522">
        <ele>874.2</ele>
        <time>2021-09-07T06:58:57.000Z</time>
      </trkpt>
      <trkpt lat="43.78002" lon="6.35522">
        <ele>874</ele>
        <time>2021-09-07T06:58:58.000Z</time>
      </trkpt>
      <trkpt lat="43.78003" lon="6.35521">
        <ele>874.1</ele>
        <time>2021-09-07T06:59:02.000Z</time>
      </trkpt>
      <trkpt lat="43.78003" lon="6.35521">
        <ele>874.2</ele>
        <time>2021-09-07T06:59:03.000Z</time>
      </trkpt>
      <trkpt lat="43.78003" lon="6.35521">
        <ele>874.1</ele>
        <time>2021-09-07T06:59:05.000Z</time>
      </trkpt>
      <trkpt lat="43.78003" lon="6.3552">
        <ele>874.1</ele>
        <time>2021-09-07T06:59:07.000Z</time>
      </trkpt>
      <trkpt lat="43.78003" lon="6.3552">
        <ele>874</ele>
        <time>2021-09-07T06:59:08.000Z</time>
      </trkpt>
      <trkpt lat="43.78003" lon="6.3552">
        <ele>873.9</ele>
        <time>2021-09-07T06:59:10.000Z</time>
      </trkpt>
      <trkpt lat="43.78003" lon="6.3552">
        <ele>873.3</ele>
        <time>2021-09-07T06:59:15.000Z</time>
      </trkpt>
      <trkpt lat="43.78003" lon="6.3552">
        <ele>874.9</ele>
        <time>2021-09-07T06:59:17.000Z</time>
      </trkpt>
      <trkpt lat="43.78003" lon="6.3552">
        <ele>874.3</ele>
        <time>2021-09-07T06:59:19.000Z</time>
      </trkpt>
      <trkpt lat="43.78003" lon="6.3552">
        <ele>874</ele>
        <time>2021-09-07T06:59:25.000Z</time>
      </trkpt>
      <trkpt lat="43.78003" lon="6.3552">
        <ele>874.1</ele>
        <time>2021-09-07T06:59:25.000Z</time>
      </trkpt>
      <trkpt lat="43.78002" lon="6.35522">
        <ele>874.3</ele>
        <time>2021-09-07T06:59:30.000Z</time>
      </trkpt>
      <trkpt lat="43.78002" lon="6.35522">
        <ele>874.1</ele>
        <time>2021-09-07T06:59:33.000Z</time>
      </trkpt>
      <trkpt lat="43.78002" lon="6.35523">
        <ele>874.2</ele>
        <time>2021-09-07T06:59:38.000Z</time>
      </trkpt>
      <trkpt lat="43.78002" lon="6.35523">
        <ele>874.2</ele>
        <time>2021-09-07T06:59:42.000Z</time>
      </trkpt>
      <trkpt lat="43.78002" lon="6.35523">
        <ele>874.1</ele>
        <time>2021-09-07T06:59:45.000Z</time>
      </trkpt>
      <trkpt lat="43.78001" lon="6.35522">
        <ele>874.2</ele>
        <time>2021-09-07T06:59:46.000Z</time>
      </trkpt>
      <trkpt lat="43.78001" lon="6.35522">
        <ele>874.4</ele>
        <time>2021-09-07T06:59:47.000Z</time>
      </trkpt>
      <trkpt lat="43.78001" lon="6.35521">
        <ele>874.8</ele>
        <time>2021-09-07T06:59:51.000Z</time>
      </trkpt>
      <trkpt lat="43.78001" lon="6.35521">
        <ele>874.9</ele>
        <time>2021-09-07T06:59:52.000Z</time>
      </trkpt>
      <trkpt lat="43.78001" lon="6.35521">
        <ele>875</ele>
        <time>2021-09-07T06:59:53.000Z</time>
      </trkpt>
      <trkpt lat="43.78001" lon="6.35522">
        <ele>874.9</ele>
        <time>2021-09-07T06:59:55.000Z</time>
      </trkpt>
      <trkpt lat="43.78001" lon="6.35522">
        <ele>874.8</ele>
        <time>2021-09-07T06:59:56.000Z</time>
      </trkpt>
      <trkpt lat="43.78002" lon="6.35528">
        <ele>875.1</ele>
        <time>2021-09-07T06:59:57.000Z</time>
      </trkpt>
      <trkpt lat="43.78001" lon="6.35531">
        <ele>875.1</ele>
        <time>2021-09-07T06:59:58.000Z</time>
      </trkpt>
      <trkpt lat="43.77999" lon="6.35533">
        <ele>874.9</ele>
        <time>2021-09-07T06:59:59.000Z</time>
      </trkpt>
      <trkpt lat="43.78002" lon="6.3553">
        <ele>875.2</ele>
        <time>2021-09-07T06:59:59.000Z</time>
      </trkpt>
      <trkpt lat="43.78" lon="6.35532">
        <ele>875</ele>
        <time>2021-09-07T07:00:00.000Z</time>
      </trkpt>
      <trkpt lat="43.77997" lon="6.35536">
        <ele>874.9</ele>
        <time>2021-09-07T07:00:01.000Z</time>
      </trkpt>
      <trkpt lat="43.77989" lon="6.35544">
        <ele>874.7</ele>
        <time>2021-09-07T07:00:03.000Z</time>
      </trkpt>
      <trkpt lat="43.77987" lon="6.35549">
        <ele>874.6</ele>
        <time>2021-09-07T07:00:04.000Z</time>
      </trkpt>
      <trkpt lat="43.77988" lon="6.35547">
        <ele>874.6</ele>
        <time>2021-09-07T07:00:05.000Z</time>
      </trkpt>
      <trkpt lat="43.77987" lon="6.35552">
        <ele>874.6</ele>
        <time>2021-09-07T07:00:06.000Z</time>
      </trkpt>
      <trkpt lat="43.77985" lon="6.35571">
        <ele>874.2</ele>
        <time>2021-09-07T07:00:08.000Z</time>
      </trkpt>
      <trkpt lat="43.77984" lon="6.35576">
        <ele>874.1</ele>
        <time>2021-09-07T07:00:10.000Z</time>
      </trkpt>
      <trkpt lat="43.77981" lon="6.35601">
        <ele>874.1</ele>
        <time>2021-09-07T07:00:13.000Z</time>
      </trkpt>
      <trkpt lat="43.77981" lon="6.35607">
        <ele>873.9</ele>
        <time>2021-09-07T07:00:15.000Z</time>
      </trkpt>
      <trkpt lat="43.7798" lon="6.35614">
        <ele>873.7</ele>
        <time>2021-09-07T07:00:15.000Z</time>
      </trkpt>
      <trkpt lat="43.77978" lon="6.35619">
        <ele>873.3</ele>
        <time>2021-09-07T07:00:16.000Z</time>
      </trkpt>
      <trkpt lat="43.77977" lon="6.3563">
        <ele>872.6</ele>
        <time>2021-09-07T07:00:18.000Z</time>
      </trkpt>
      <trkpt lat="43.77976" lon="6.35634">
        <ele>872.6</ele>
        <time>2021-09-07T07:00:19.000Z</time>
      </trkpt>
      <trkpt lat="43.77974" lon="6.35641">
        <ele>872.4</ele>
        <time>2021-09-07T07:00:24.000Z</time>
      </trkpt>
      <trkpt lat="43.77975" lon="6.35645">
        <ele>872.3</ele>
        <time>2021-09-07T07:00:24.000Z</time>
      </trkpt>
      <trkpt lat="43.77976" lon="6.35646">
        <ele>872.5</ele>
        <time>2021-09-07T07:00:25.000Z</time>
      </trkpt>
      <trkpt lat="43.77976" lon="6.35646">
        <ele>872.4</ele>
        <time>2021-09-07T07:00:26.000Z</time>
      </trkpt>
      <trkpt lat="43.77976" lon="6.35645">
        <ele>872.4</ele>
        <time>2021-09-07T07:00:26.000Z</time>
      </trkpt>
      <trkpt lat="43.77975" lon="6.35641">
        <ele>872.5</ele>
        <time>2021-09-07T07:00:27.000Z</time>
      </trkpt>
      <trkpt lat="43.77975" lon="6.35637">
        <ele>872.6</ele>
        <time>2021-09-07T07:00:29.000Z</time>
      </trkpt>
      <trkpt lat="43.77975" lon="6.35629">
        <ele>872.7</ele>
        <time>2021-09-07T07:00:29.000Z</time>
      </trkpt>
      <trkpt lat="43.77976" lon="6.35627">
        <ele>872.6</ele>
        <time>2021-09-07T07:00:30.000Z</time>
      </trkpt>
      <trkpt lat="43.77975" lon="6.35624">
        <ele>872.7</ele>
        <time>2021-09-07T07:00:35.000Z</time>
      </trkpt>
      <trkpt lat="43.77974" lon="6.3564">
        <ele>872.5</ele>
        <time>2021-09-07T07:00:40.000Z</time>
      </trkpt>
      <trkpt lat="43.7797" lon="6.35654">
        <ele>872.3</ele>
        <time>2021-09-07T07:00:45.000Z</time>
      </trkpt>
      <trkpt lat="43.77966" lon="6.35669">
        <ele>872.1</ele>
        <time>2021-09-07T07:00:50.000Z</time>
      </trkpt>
      <trkpt lat="43.77963" lon="6.35685">
        <ele>871.5</ele>
        <time>2021-09-07T07:00:55.000Z</time>
      </trkpt>
      <trkpt lat="43.7796" lon="6.35702">
        <ele>871.7</ele>
        <time>2021-09-07T07:01:00.000Z</time>
      </trkpt>
      <trkpt lat="43.77957" lon="6.3572">
        <ele>871.5</ele>
        <time>2021-09-07T07:01:05.000Z</time>
      </trkpt>
      <trkpt lat="43.77954" lon="6.35741">
        <ele>871.6</ele>
        <time>2021-09-07T07:01:10.000Z</time>
      </trkpt>
      <trkpt lat="43.77953" lon="6.35766">
        <ele>872</ele>
        <time>2021-09-07T07:01:15.000Z</time>
      </trkpt>
      <trkpt lat="43.77953" lon="6.35788">
        <ele>871.9</ele>
        <time>2021-09-07T07:01:20.000Z</time>
      </trkpt>
      <trkpt lat="43.77953" lon="6.35812">
        <ele>871.7</ele>
        <time>2021-09-07T07:01:25.000Z</time>
      </trkpt>
      <trkpt lat="43.77954" lon="6.35838">
        <ele>871.7</ele>
        <time>2021-09-07T07:01:30.000Z</time>
      </trkpt>
      <trkpt lat="43.77953" lon="6.35863">
        <ele>871.8</ele>
        <time>2021-09-07T07:01:35.000Z</time>
      </trkpt>
      <trkpt lat="43.77951" lon="6.3589">
        <ele>872</ele>
        <time>2021-09-07T07:01:40.000Z</time>
      </trkpt>
      <trkpt lat="43.77947" lon="6.35916">
        <ele>872</ele>
        <time>2021-09-07T07:01:45.000Z</time>
      </trkpt>
      <trkpt lat="43.77944" lon="6.35941">
        <ele>872.6</ele>
        <time>2021-09-07T07:01:50.000Z</time>
      </trkpt>
      <trkpt lat="43.77943" lon="6.3597">
        <ele>872</ele>
        <time>2021-09-07T07:01:55.000Z</time>
      </trkpt>
      <trkpt lat="43.77944" lon="6.35999">
        <ele>872.1</ele>
        <time>2021-09-07T07:02:00.000Z</time>
      </trkpt>
      <trkpt lat="43.77945" lon="6.36027">
        <ele>872.3</ele>
        <time>2021-09-07T07:02:05.000Z</time>
      </trkpt>
      <trkpt lat="43.77945" lon="6.36053">
        <ele>871.9</ele>
        <time>2021-09-07T07:02:10.000Z</time>
      </trkpt>
      <trkpt lat="43.77944" lon="6.36081">
        <ele>871.6</ele>
        <time>2021-09-07T07:02:15.000Z</time>
      </trkpt>
      <trkpt lat="43.77944" lon="6.36094">
        <ele>871.6</ele>
        <time>2021-09-07T07:02:17.000Z</time>
      </trkpt>
      <trkpt lat="43.77944" lon="6.36099">
        <ele>871.7</ele>
        <time>2021-09-07T07:02:18.000Z</time>
      </trkpt>
      <trkpt lat="43.77944" lon="6.36097">
        <ele>871.7</ele>
        <time>2021-09-07T07:02:19.000Z</time>
      </trkpt>
      <trkpt lat="43.77944" lon="6.36105">
        <ele>871.4</ele>
        <time>2021-09-07T07:02:19.000Z</time>
      </trkpt>
      <trkpt lat="43.77944" lon="6.36118">
        <ele>871.3</ele>
        <time>2021-09-07T07:02:21.000Z</time>
      </trkpt>
      <trkpt lat="43.77944" lon="6.36124">
        <ele>871.1</ele>
        <time>2021-09-07T07:02:22.000Z</time>
      </trkpt>
      <trkpt lat="43.77944" lon="6.36132">
        <ele>871.3</ele>
        <time>2021-09-07T07:02:23.000Z</time>
      </trkpt>
      <trkpt lat="43.77944" lon="6.36142">
        <ele>871.1</ele>
        <time>2021-09-07T07:02:24.000Z</time>
      </trkpt>
      <trkpt lat="43.77944" lon="6.36137">
        <ele>871.2</ele>
        <time>2021-09-07T07:02:25.000Z</time>
      </trkpt>
      <trkpt lat="43.77944" lon="6.3615">
        <ele>870.8</ele>
        <time>2021-09-07T07:02:25.000Z</time>
      </trkpt>
      <trkpt lat="43.77944" lon="6.36192">
        <ele>869.9</ele>
        <time>2021-09-07T07:02:30.000Z</time>
      </trkpt>
      <trkpt lat="43.77946" lon="6.3624">
        <ele>868.6</ele>
        <time>2021-09-07T07:02:35.000Z</time>
      </trkpt>
      <trkpt lat="43.77949" lon="6.36291">
        <ele>866.4</ele>
        <time>2021-09-07T07:02:40.000Z</time>
      </trkpt>
      <trkpt lat="43.77951" lon="6.36348">
        <ele>865.9</ele>
        <time>2021-09-07T07:02:45.000Z</time>
      </trkpt>
      <trkpt lat="43.7794" lon="6.36403">
        <ele>865</ele>
        <time>2021-09-07T07:02:50.000Z</time>
      </trkpt>
      <trkpt lat="43.77918" lon="6.36451">
        <ele>864.6</ele>
        <time>2021-09-07T07:02:55.000Z</time>
      </trkpt>
      <trkpt lat="43.77892" lon="6.36497">
        <ele>862.8</ele>
        <time>2021-09-07T07:03:00.000Z</time>
      </trkpt>
      <trkpt lat="43.77867" lon="6.36544">
        <ele>861.2</ele>
        <time>2021-09-07T07:03:05.000Z</time>
      </trkpt>
      <trkpt lat="43.77844" lon="6.36591">
        <ele>858.9</ele>
        <time>2021-09-07T07:03:10.000Z</time>
      </trkpt>
      <trkpt lat="43.77821" lon="6.36636">
        <ele>859.2</ele>
        <time>2021-09-07T07:03:15.000Z</time>
      </trkpt>
      <trkpt lat="43.77802" lon="6.36678">
        <ele>859.5</ele>
        <time>2021-09-07T07:03:20.000Z</time>
      </trkpt>
      <trkpt lat="43.77785" lon="6.36718">
        <ele>859.6</ele>
        <time>2021-09-07T07:03:25.000Z</time>
      </trkpt>
      <trkpt lat="43.77775" lon="6.36754">
        <ele>859.9</ele>
        <time>2021-09-07T07:03:30.000Z</time>
      </trkpt>
      <trkpt lat="43.77775" lon="6.36784">
        <ele>860.6</ele>
        <time>2021-09-07T07:03:35.000Z</time>
      </trkpt>
      <trkpt lat="43.7778" lon="6.36812">
        <ele>861.3</ele>
        <time>2021-09-07T07:03:40.000Z</time>
      </trkpt>
      <trkpt lat="43.77788" lon="6.3684">
        <ele>861.5</ele>
        <time>2021-09-07T07:03:45.000Z</time>
      </trkpt>
      <trkpt lat="43.77796" lon="6.36866">
        <ele>861.8</ele>
        <time>2021-09-07T07:03:50.000Z</time>
      </trkpt>
      <trkpt lat="43.77807" lon="6.36893">
        <ele>862.1</ele>
        <time>2021-09-07T07:03:55.000Z</time>
      </trkpt>
      <trkpt lat="43.77816" lon="6.36918">
        <ele>861.9</ele>
        <time>2021-09-07T07:04:00.000Z</time>
      </trkpt>
      <trkpt lat="43.77825" lon="6.36948">
        <ele>861.6</ele>
        <time>2021-09-07T07:04:05.000Z</time>
      </trkpt>
      <trkpt lat="43.77836" lon="6.3698">
        <ele>861.1</ele>
        <time>2021-09-07T07:04:10.000Z</time>
      </trkpt>
      <trkpt lat="43.77847" lon="6.37014">
        <ele>860.7</ele>
        <time>2021-09-07T07:04:15.000Z</time>
      </trkpt>
      <trkpt lat="43.77857" lon="6.37051">
        <ele>861</ele>
        <time>2021-09-07T07:04:20.000Z</time>
      </trkpt>
      <trkpt lat="43.77865" lon="6.37086">
        <ele>861.5</ele>
        <time>2021-09-07T07:04:25.000Z</time>
      </trkpt>
      <trkpt lat="43.77872" lon="6.37115">
        <ele>862</ele>
        <time>2021-09-07T07:04:30.000Z</time>
      </trkpt>
      <trkpt lat="43.77878" lon="6.37145">
        <ele>862.8</ele>
        <time>2021-09-07T07:04:35.000Z</time>
      </trkpt>
      <trkpt lat="43.77881" lon="6.37158">
        <ele>863.4</ele>
        <time>2021-09-07T07:04:38.000Z</time>
      </trkpt>
      <trkpt lat="43.77881" lon="6.37165">
        <ele>863.6</ele>
        <time>2021-09-07T07:04:39.000Z</time>
      </trkpt>
      <trkpt lat="43.77881" lon="6.37173">
        <ele>863.7</ele>
        <time>2021-09-07T07:04:40.000Z</time>
      </trkpt>
      <trkpt lat="43.77881" lon="6.37177">
        <ele>863.7</ele>
        <time>2021-09-07T07:04:42.000Z</time>
      </trkpt>
      <trkpt lat="43.77881" lon="6.37197">
        <ele>864</ele>
        <time>2021-09-07T07:04:45.000Z</time>
      </trkpt>
      <trkpt lat="43.77881" lon="6.37201">
        <ele>864.1</ele>
        <time>2021-09-07T07:04:46.000Z</time>
      </trkpt>
      <trkpt lat="43.77881" lon="6.372">
        <ele>864.1</ele>
        <time>2021-09-07T07:04:47.000Z</time>
      </trkpt>
      <trkpt lat="43.77881" lon="6.37206">
        <ele>864.2</ele>
        <time>2021-09-07T07:04:47.000Z</time>
      </trkpt>
      <trkpt lat="43.77881" lon="6.37211">
        <ele>864.4</ele>
        <time>2021-09-07T07:04:48.000Z</time>
      </trkpt>
      <trkpt lat="43.77882" lon="6.37216">
        <ele>864.4</ele>
        <time>2021-09-07T07:04:49.000Z</time>
      </trkpt>
      <trkpt lat="43.77882" lon="6.37214">
        <ele>864.4</ele>
        <time>2021-09-07T07:04:50.000Z</time>
      </trkpt>
      <trkpt lat="43.77882" lon="6.37221">
        <ele>864.5</ele>
        <time>2021-09-07T07:04:50.000Z</time>
      </trkpt>
      <trkpt lat="43.77882" lon="6.3723">
        <ele>864.4</ele>
        <time>2021-09-07T07:04:52.000Z</time>
      </trkpt>
      <trkpt lat="43.77881" lon="6.37236">
        <ele>864.8</ele>
        <time>2021-09-07T07:04:53.000Z</time>
      </trkpt>
      <trkpt lat="43.77882" lon="6.37233">
        <ele>864.7</ele>
        <time>2021-09-07T07:04:54.000Z</time>
      </trkpt>
      <trkpt lat="43.77881" lon="6.37241">
        <ele>865</ele>
        <time>2021-09-07T07:04:55.000Z</time>
      </trkpt>
      <trkpt lat="43.77881" lon="6.37275">
        <ele>865.1</ele>
        <time>2021-09-07T07:05:00.000Z</time>
      </trkpt>
      <trkpt lat="43.77879" lon="6.37298">
        <ele>864.6</ele>
        <time>2021-09-07T07:05:05.000Z</time>
      </trkpt>
      <trkpt lat="43.77877" lon="6.37324">
        <ele>865.1</ele>
        <time>2021-09-07T07:05:10.000Z</time>
      </trkpt>
      <trkpt lat="43.77878" lon="6.37346">
        <ele>865</ele>
        <time>2021-09-07T07:05:15.000Z</time>
      </trkpt>
      <trkpt lat="43.77882" lon="6.37369">
        <ele>865.1</ele>
        <time>2021-09-07T07:05:20.000Z</time>
      </trkpt>
      <trkpt lat="43.77888" lon="6.37391">
        <ele>865.4</ele>
        <time>2021-09-07T07:05:25.000Z</time>
      </trkpt>
      <trkpt lat="43.77896" lon="6.37415">
        <ele>865.3</ele>
        <time>2021-09-07T07:05:30.000Z</time>
      </trkpt>
      <trkpt lat="43.77905" lon="6.37441">
        <ele>865</ele>
        <time>2021-09-07T07:05:35.000Z</time>
      </trkpt>
      <trkpt lat="43.77917" lon="6.37471">
        <ele>864.5</ele>
        <time>2021-09-07T07:05:40.000Z</time>
      </trkpt>
      <trkpt lat="43.7793" lon="6.37501">
        <ele>863.8</ele>
        <time>2021-09-07T07:05:45.000Z</time>
      </trkpt>
      <trkpt lat="43.77945" lon="6.37537">
        <ele>863.2</ele>
        <time>2021-09-07T07:05:50.000Z</time>
      </trkpt>
      <trkpt lat="43.77961" lon="6.37575">
        <ele>861.5</ele>
        <time>2021-09-07T07:05:55.000Z</time>
      </trkpt>
      <trkpt lat="43.77976" lon="6.37616">
        <ele>860.8</ele>
        <time>2021-09-07T07:06:00.000Z</time>
      </trkpt>
      <trkpt lat="43.77992" lon="6.37657">
        <ele>859.5</ele>
        <time>2021-09-07T07:06:05.000Z</time>
      </trkpt>
      <trkpt lat="43.78012" lon="6.37703">
        <ele>857.5</ele>
        <time>2021-09-07T07:06:10.000Z</time>
      </trkpt>
      <trkpt lat="43.78029" lon="6.37752">
        <ele>855.3</ele>
        <time>2021-09-07T07:06:15.000Z</time>
      </trkpt>
      <trkpt lat="43.78043" lon="6.37803">
        <ele>854.1</ele>
        <time>2021-09-07T07:06:20.000Z</time>
      </trkpt>
      <trkpt lat="43.78051" lon="6.37858">
        <ele>852.7</ele>
        <time>2021-09-07T07:06:25.000Z</time>
      </trkpt>
      <trkpt lat="43.78054" lon="6.37906">
        <ele>851.3</ele>
        <time>2021-09-07T07:06:30.000Z</time>
      </trkpt>
      <trkpt lat="43.78057" lon="6.37953">
        <ele>851.2</ele>
        <time>2021-09-07T07:06:35.000Z</time>
      </trkpt>
      <trkpt lat="43.78061" lon="6.37995">
        <ele>852.1</ele>
        <time>2021-09-07T07:06:40.000Z</time>
      </trkpt>
      <trkpt lat="43.7806" lon="6.38026">
        <ele>853.4</ele>
        <time>2021-09-07T07:06:45.000Z</time>
      </trkpt>
      <trkpt lat="43.78061" lon="6.38048">
        <ele>854.5</ele>
        <time>2021-09-07T07:06:50.000Z</time>
      </trkpt>
      <trkpt lat="43.78061" lon="6.38069">
        <ele>855.8</ele>
        <time>2021-09-07T07:06:55.000Z</time>
      </trkpt>
      <trkpt lat="43.78062" lon="6.3809">
        <ele>856.8</ele>
        <time>2021-09-07T07:07:00.000Z</time>
      </trkpt>
      <trkpt lat="43.78063" lon="6.38108">
        <ele>857.8</ele>
        <time>2021-09-07T07:07:05.000Z</time>
      </trkpt>
      <trkpt lat="43.78063" lon="6.38115">
        <ele>858.3</ele>
        <time>2021-09-07T07:07:07.000Z</time>
      </trkpt>
      <trkpt lat="43.78063" lon="6.3812">
        <ele>858.5</ele>
        <time>2021-09-07T07:07:08.000Z</time>
      </trkpt>
      <trkpt lat="43.78063" lon="6.38117">
        <ele>858.4</ele>
        <time>2021-09-07T07:07:09.000Z</time>
      </trkpt>
      <trkpt lat="43.78063" lon="6.38122">
        <ele>858.7</ele>
        <time>2021-09-07T07:07:10.000Z</time>
      </trkpt>
      <trkpt lat="43.78063" lon="6.38131">
        <ele>859.1</ele>
        <time>2021-09-07T07:07:11.000Z</time>
      </trkpt>
      <trkpt lat="43.78063" lon="6.38135">
        <ele>859.4</ele>
        <time>2021-09-07T07:07:12.000Z</time>
      </trkpt>
      <trkpt lat="43.78063" lon="6.38133">
        <ele>859.3</ele>
        <time>2021-09-07T07:07:13.000Z</time>
      </trkpt>
      <trkpt lat="43.78063" lon="6.38138">
        <ele>859.6</ele>
        <time>2021-09-07T07:07:13.000Z</time>
      </trkpt>
      <trkpt lat="43.78063" lon="6.38149">
        <ele>859.9</ele>
        <time>2021-09-07T07:07:16.000Z</time>
      </trkpt>
      <trkpt lat="43.78063" lon="6.38152">
        <ele>859.9</ele>
        <time>2021-09-07T07:07:17.000Z</time>
      </trkpt>
      <trkpt lat="43.78063" lon="6.38161">
        <ele>860.3</ele>
        <time>2021-09-07T07:07:19.000Z</time>
      </trkpt>
      <trkpt lat="43.78063" lon="6.38164">
        <ele>860.5</ele>
        <time>2021-09-07T07:07:21.000Z</time>
      </trkpt>
      <trkpt lat="43.78063" lon="6.38175">
        <ele>861.4</ele>
        <time>2021-09-07T07:07:23.000Z</time>
      </trkpt>
      <trkpt lat="43.78062" lon="6.38179">
        <ele>861.6</ele>
        <time>2021-09-07T07:07:24.000Z</time>
      </trkpt>
      <trkpt lat="43.78062" lon="6.38178">
        <ele>861.5</ele>
        <time>2021-09-07T07:07:25.000Z</time>
      </trkpt>
      <trkpt lat="43.78062" lon="6.38182">
        <ele>861.8</ele>
        <time>2021-09-07T07:07:26.000Z</time>
      </trkpt>
      <trkpt lat="43.7806" lon="6.38195">
        <ele>862.2</ele>
        <time>2021-09-07T07:07:29.000Z</time>
      </trkpt>
      <trkpt lat="43.7806" lon="6.38199">
        <ele>862.5</ele>
        <time>2021-09-07T07:07:30.000Z</time>
      </trkpt>
      <trkpt lat="43.7806" lon="6.38197">
        <ele>862.3</ele>
        <time>2021-09-07T07:07:31.000Z</time>
      </trkpt>
      <trkpt lat="43.78059" lon="6.38201">
        <ele>862.7</ele>
        <time>2021-09-07T07:07:32.000Z</time>
      </trkpt>
      <trkpt lat="43.78059" lon="6.38205">
        <ele>862.8</ele>
        <time>2021-09-07T07:07:32.000Z</time>
      </trkpt>
      <trkpt lat="43.78059" lon="6.38205">
        <ele>862.8</ele>
        <time>2021-09-07T07:07:34.000Z</time>
      </trkpt>
      <trkpt lat="43.78058" lon="6.3821">
        <ele>863.1</ele>
        <time>2021-09-07T07:07:34.000Z</time>
      </trkpt>
      <trkpt lat="43.78057" lon="6.38213">
        <ele>863.5</ele>
        <time>2021-09-07T07:07:35.000Z</time>
      </trkpt>
      <trkpt lat="43.78058" lon="6.38213">
        <ele>863.4</ele>
        <time>2021-09-07T07:07:36.000Z</time>
      </trkpt>
      <trkpt lat="43.78057" lon="6.38216">
        <ele>863.6</ele>
        <time>2021-09-07T07:07:36.000Z</time>
      </trkpt>
      <trkpt lat="43.78056" lon="6.38222">
        <ele>863.9</ele>
        <time>2021-09-07T07:07:38.000Z</time>
      </trkpt>
      <trkpt lat="43.78056" lon="6.38225">
        <ele>864</ele>
        <time>2021-09-07T07:07:40.000Z</time>
      </trkpt>
      <trkpt lat="43.78056" lon="6.38228">
        <ele>864.2</ele>
        <time>2021-09-07T07:07:40.000Z</time>
      </trkpt>
      <trkpt lat="43.78056" lon="6.3823">
        <ele>864.3</ele>
        <time>2021-09-07T07:07:42.000Z</time>
      </trkpt>
      <trkpt lat="43.78056" lon="6.38237">
        <ele>864.8</ele>
        <time>2021-09-07T07:07:43.000Z</time>
      </trkpt>
      <trkpt lat="43.78056" lon="6.3824">
        <ele>865</ele>
        <time>2021-09-07T07:07:45.000Z</time>
      </trkpt>
      <trkpt lat="43.78057" lon="6.38244">
        <ele>865</ele>
        <time>2021-09-07T07:07:45.000Z</time>
      </trkpt>
      <trkpt lat="43.78057" lon="6.38247">
        <ele>865.4</ele>
        <time>2021-09-07T07:07:47.000Z</time>
      </trkpt>
      <trkpt lat="43.78058" lon="6.38256">
        <ele>866.2</ele>
        <time>2021-09-07T07:07:49.000Z</time>
      </trkpt>
      <trkpt lat="43.78058" lon="6.38258">
        <ele>866.3</ele>
        <time>2021-09-07T07:07:51.000Z</time>
      </trkpt>
      <trkpt lat="43.78058" lon="6.38262">
        <ele>866.2</ele>
        <time>2021-09-07T07:07:51.000Z</time>
      </trkpt>
      <trkpt lat="43.78058" lon="6.38262">
        <ele>866.2</ele>
        <time>2021-09-07T07:07:51.000Z</time>
      </trkpt>
      <trkpt lat="43.78058" lon="6.38265">
        <ele>866.3</ele>
        <time>2021-09-07T07:07:52.000Z</time>
      </trkpt>
      <trkpt lat="43.78058" lon="6.38268">
        <ele>866.5</ele>
        <time>2021-09-07T07:07:53.000Z</time>
      </trkpt>
      <trkpt lat="43.78058" lon="6.38271">
        <ele>866.6</ele>
        <time>2021-09-07T07:07:54.000Z</time>
      </trkpt>
      <trkpt lat="43.78058" lon="6.38277">
        <ele>867.2</ele>
        <time>2021-09-07T07:07:56.000Z</time>
      </trkpt>
      <trkpt lat="43.78058" lon="6.3828">
        <ele>867.3</ele>
        <time>2021-09-07T07:07:57.000Z</time>
      </trkpt>
      <trkpt lat="43.78059" lon="6.38283">
        <ele>867.5</ele>
        <time>2021-09-07T07:07:58.000Z</time>
      </trkpt>
      <trkpt lat="43.78058" lon="6.38279">
        <ele>867.3</ele>
        <time>2021-09-07T07:07:58.000Z</time>
      </trkpt>
      <trkpt lat="43.78059" lon="6.38282">
        <ele>867.4</ele>
        <time>2021-09-07T07:07:59.000Z</time>
      </trkpt>
      <trkpt lat="43.7806" lon="6.38286">
        <ele>867.6</ele>
        <time>2021-09-07T07:08:00.000Z</time>
      </trkpt>
      <trkpt lat="43.78061" lon="6.38292">
        <ele>868</ele>
        <time>2021-09-07T07:08:01.000Z</time>
      </trkpt>
      <trkpt lat="43.78061" lon="6.38295">
        <ele>868.2</ele>
        <time>2021-09-07T07:08:02.000Z</time>
      </trkpt>
      <trkpt lat="43.78061" lon="6.38294">
        <ele>868.3</ele>
        <time>2021-09-07T07:08:03.000Z</time>
      </trkpt>
      <trkpt lat="43.78061" lon="6.38298">
        <ele>868.3</ele>
        <time>2021-09-07T07:08:03.000Z</time>
      </trkpt>
      <trkpt lat="43.78062" lon="6.38304">
        <ele>868.2</ele>
        <time>2021-09-07T07:08:05.000Z</time>
      </trkpt>
      <trkpt lat="43.78062" lon="6.38306">
        <ele>868.3</ele>
        <time>2021-09-07T07:08:07.000Z</time>
      </trkpt>
      <trkpt lat="43.78062" lon="6.38322">
        <ele>869.2</ele>
        <time>2021-09-07T07:08:12.000Z</time>
      </trkpt>
      <trkpt lat="43.78061" lon="6.38328">
        <ele>869.5</ele>
        <time>2021-09-07T07:08:12.000Z</time>
      </trkpt>
      <trkpt lat="43.78061" lon="6.38332">
        <ele>869.6</ele>
        <time>2021-09-07T07:08:13.000Z</time>
      </trkpt>
      <trkpt lat="43.78061" lon="6.38331">
        <ele>869.6</ele>
        <time>2021-09-07T07:08:14.000Z</time>
      </trkpt>
      <trkpt lat="43.78061" lon="6.38333">
        <ele>869.7</ele>
        <time>2021-09-07T07:08:15.000Z</time>
      </trkpt>
      <trkpt lat="43.78061" lon="6.38338">
        <ele>869.9</ele>
        <time>2021-09-07T07:08:15.000Z</time>
      </trkpt>
      <trkpt lat="43.78061" lon="6.38341">
        <ele>870.1</ele>
        <time>2021-09-07T07:08:16.000Z</time>
      </trkpt>
      <trkpt lat="43.7806" lon="6.38345">
        <ele>870.4</ele>
        <time>2021-09-07T07:08:17.000Z</time>
      </trkpt>
      <trkpt lat="43.78061" lon="6.3834">
        <ele>869.9</ele>
        <time>2021-09-07T07:08:17.000Z</time>
      </trkpt>
      <trkpt lat="43.7806" lon="6.38344">
        <ele>870.3</ele>
        <time>2021-09-07T07:08:18.000Z</time>
      </trkpt>
      <trkpt lat="43.7806" lon="6.38348">
        <ele>870.6</ele>
        <time>2021-09-07T07:08:19.000Z</time>
      </trkpt>
      <trkpt lat="43.7806" lon="6.38351">
        <ele>870.7</ele>
        <time>2021-09-07T07:08:19.000Z</time>
      </trkpt>
      <trkpt lat="43.7806" lon="6.38354">
        <ele>870.9</ele>
        <time>2021-09-07T07:08:20.000Z</time>
      </trkpt>
      <trkpt lat="43.7806" lon="6.38357">
        <ele>871.1</ele>
        <time>2021-09-07T07:08:21.000Z</time>
      </trkpt>
      <trkpt lat="43.7806" lon="6.38353">
        <ele>870.8</ele>
        <time>2021-09-07T07:08:21.000Z</time>
      </trkpt>
      <trkpt lat="43.7806" lon="6.38361">
        <ele>871.3</ele>
        <time>2021-09-07T07:08:22.000Z</time>
      </trkpt>
      <trkpt lat="43.7806" lon="6.38357">
        <ele>871.1</ele>
        <time>2021-09-07T07:08:22.000Z</time>
      </trkpt>
      <trkpt lat="43.7806" lon="6.38364">
        <ele>871.4</ele>
        <time>2021-09-07T07:08:23.000Z</time>
      </trkpt>
      <trkpt lat="43.7806" lon="6.3836">
        <ele>871.2</ele>
        <time>2021-09-07T07:08:23.000Z</time>
      </trkpt>
      <trkpt lat="43.7806" lon="6.38368">
        <ele>871.6</ele>
        <time>2021-09-07T07:08:24.000Z</time>
      </trkpt>
      <trkpt lat="43.7806" lon="6.38363">
        <ele>871.3</ele>
        <time>2021-09-07T07:08:24.000Z</time>
      </trkpt>
      <trkpt lat="43.7806" lon="6.38366">
        <ele>871.4</ele>
        <time>2021-09-07T07:08:25.000Z</time>
      </trkpt>
      <trkpt lat="43.7806" lon="6.3837">
        <ele>871.8</ele>
        <time>2021-09-07T07:08:25.000Z</time>
      </trkpt>
      <trkpt lat="43.78061" lon="6.38376">
        <ele>872.2</ele>
        <time>2021-09-07T07:08:27.000Z</time>
      </trkpt>
      <trkpt lat="43.78061" lon="6.3838">
        <ele>872.4</ele>
        <time>2021-09-07T07:08:28.000Z</time>
      </trkpt>
      <trkpt lat="43.78061" lon="6.38378">
        <ele>872.3</ele>
        <time>2021-09-07T07:08:29.000Z</time>
      </trkpt>
      <trkpt lat="43.78061" lon="6.38381">
        <ele>872.5</ele>
        <time>2021-09-07T07:08:30.000Z</time>
      </trkpt>
      <trkpt lat="43.7806" lon="6.38386">
        <ele>872.4</ele>
        <time>2021-09-07T07:08:30.000Z</time>
      </trkpt>
      <trkpt lat="43.78061" lon="6.38389">
        <ele>872.5</ele>
        <time>2021-09-07T07:08:32.000Z</time>
      </trkpt>
      <trkpt lat="43.78062" lon="6.38404">
        <ele>873.6</ele>
        <time>2021-09-07T07:08:36.000Z</time>
      </trkpt>
      <trkpt lat="43.78062" lon="6.38402">
        <ele>873.5</ele>
        <time>2021-09-07T07:08:37.000Z</time>
      </trkpt>
      <trkpt lat="43.78061" lon="6.38405">
        <ele>873.8</ele>
        <time>2021-09-07T07:08:38.000Z</time>
      </trkpt>
      <trkpt lat="43.78062" lon="6.38419">
        <ele>874.5</ele>
        <time>2021-09-07T07:08:41.000Z</time>
      </trkpt>
      <trkpt lat="43.78062" lon="6.38423">
        <ele>874.7</ele>
        <time>2021-09-07T07:08:42.000Z</time>
      </trkpt>
      <trkpt lat="43.78062" lon="6.38422">
        <ele>874.6</ele>
        <time>2021-09-07T07:08:43.000Z</time>
      </trkpt>
      <trkpt lat="43.78061" lon="6.38426">
        <ele>874.9</ele>
        <time>2021-09-07T07:08:44.000Z</time>
      </trkpt>
      <trkpt lat="43.78061" lon="6.38433">
        <ele>875.4</ele>
        <time>2021-09-07T07:08:45.000Z</time>
      </trkpt>
      <trkpt lat="43.78061" lon="6.38435">
        <ele>875.5</ele>
        <time>2021-09-07T07:08:47.000Z</time>
      </trkpt>
      <trkpt lat="43.78061" lon="6.38439">
        <ele>875.4</ele>
        <time>2021-09-07T07:08:47.000Z</time>
      </trkpt>
      <trkpt lat="43.78062" lon="6.38442">
        <ele>875.6</ele>
        <time>2021-09-07T07:08:48.000Z</time>
      </trkpt>
      <trkpt lat="43.78062" lon="6.38444">
        <ele>876</ele>
        <time>2021-09-07T07:08:49.000Z</time>
      </trkpt>
      <trkpt lat="43.78063" lon="6.38447">
        <ele>876.2</ele>
        <time>2021-09-07T07:08:51.000Z</time>
      </trkpt>
      <trkpt lat="43.78063" lon="6.3845">
        <ele>876.3</ele>
        <time>2021-09-07T07:08:51.000Z</time>
      </trkpt>
      <trkpt lat="43.78063" lon="6.38451">
        <ele>876.4</ele>
        <time>2021-09-07T07:08:53.000Z</time>
      </trkpt>
      <trkpt lat="43.78063" lon="6.38456">
        <ele>877</ele>
        <time>2021-09-07T07:08:53.000Z</time>
      </trkpt>
      <trkpt lat="43.78063" lon="6.38464">
        <ele>877.8</ele>
        <time>2021-09-07T07:08:58.000Z</time>
      </trkpt>
      <trkpt lat="43.78063" lon="6.38468">
        <ele>877.9</ele>
        <time>2021-09-07T07:08:58.000Z</time>
      </trkpt>
      <trkpt lat="43.78062" lon="6.3847">
        <ele>878.1</ele>
        <time>2021-09-07T07:09:00.000Z</time>
      </trkpt>
      <trkpt lat="43.78063" lon="6.38476">
        <ele>878.4</ele>
        <time>2021-09-07T07:09:01.000Z</time>
      </trkpt>
      <trkpt lat="43.78063" lon="6.38479">
        <ele>878.5</ele>
        <time>2021-09-07T07:09:03.000Z</time>
      </trkpt>
      <trkpt lat="43.78063" lon="6.38483">
        <ele>878.7</ele>
        <time>2021-09-07T07:09:03.000Z</time>
      </trkpt>
      <trkpt lat="43.78063" lon="6.38486">
        <ele>879</ele>
        <time>2021-09-07T07:09:04.000Z</time>
      </trkpt>
      <trkpt lat="43.78064" lon="6.38492">
        <ele>879</ele>
        <time>2021-09-07T07:09:06.000Z</time>
      </trkpt>
      <trkpt lat="43.78064" lon="6.38496">
        <ele>879.1</ele>
        <time>2021-09-07T07:09:07.000Z</time>
      </trkpt>
      <trkpt lat="43.78064" lon="6.38499">
        <ele>879.4</ele>
        <time>2021-09-07T07:09:08.000Z</time>
      </trkpt>
      <trkpt lat="43.78065" lon="6.38501">
        <ele>879.6</ele>
        <time>2021-09-07T07:09:10.000Z</time>
      </trkpt>
      <trkpt lat="43.78065" lon="6.38505">
        <ele>879.9</ele>
        <time>2021-09-07T07:09:10.000Z</time>
      </trkpt>
      <trkpt lat="43.78066" lon="6.3851">
        <ele>880</ele>
        <time>2021-09-07T07:09:11.000Z</time>
      </trkpt>
      <trkpt lat="43.78067" lon="6.38514">
        <ele>880.3</ele>
        <time>2021-09-07T07:09:12.000Z</time>
      </trkpt>
      <trkpt lat="43.78066" lon="6.38508">
        <ele>880</ele>
        <time>2021-09-07T07:09:12.000Z</time>
      </trkpt>
      <trkpt lat="43.78067" lon="6.38512">
        <ele>880.1</ele>
        <time>2021-09-07T07:09:13.000Z</time>
      </trkpt>
      <trkpt lat="43.78067" lon="6.38518">
        <ele>880.4</ele>
        <time>2021-09-07T07:09:14.000Z</time>
      </trkpt>
      <trkpt lat="43.78067" lon="6.38525">
        <ele>880.8</ele>
        <time>2021-09-07T07:09:15.000Z</time>
      </trkpt>
      <trkpt lat="43.78067" lon="6.38528">
        <ele>880.9</ele>
        <time>2021-09-07T07:09:16.000Z</time>
      </trkpt>
      <trkpt lat="43.78067" lon="6.38531">
        <ele>881</ele>
        <time>2021-09-07T07:09:17.000Z</time>
      </trkpt>
      <trkpt lat="43.78067" lon="6.38526">
        <ele>880.9</ele>
        <time>2021-09-07T07:09:17.000Z</time>
      </trkpt>
      <trkpt lat="43.78067" lon="6.3853">
        <ele>880.9</ele>
        <time>2021-09-07T07:09:18.000Z</time>
      </trkpt>
      <trkpt lat="43.78067" lon="6.38535">
        <ele>881.1</ele>
        <time>2021-09-07T07:09:18.000Z</time>
      </trkpt>
      <trkpt lat="43.78067" lon="6.38546">
        <ele>881.8</ele>
        <time>2021-09-07T07:09:21.000Z</time>
      </trkpt>
      <trkpt lat="43.78067" lon="6.38549">
        <ele>881.9</ele>
        <time>2021-09-07T07:09:22.000Z</time>
      </trkpt>
      <trkpt lat="43.78067" lon="6.38548">
        <ele>881.9</ele>
        <time>2021-09-07T07:09:23.000Z</time>
      </trkpt>
      <trkpt lat="43.78066" lon="6.3855">
        <ele>881.8</ele>
        <time>2021-09-07T07:09:24.000Z</time>
      </trkpt>
      <trkpt lat="43.78064" lon="6.38554">
        <ele>882.2</ele>
        <time>2021-09-07T07:09:24.000Z</time>
      </trkpt>
      <trkpt lat="43.78062" lon="6.38557">
        <ele>882.6</ele>
        <time>2021-09-07T07:09:25.000Z</time>
      </trkpt>
      <trkpt lat="43.78063" lon="6.38555">
        <ele>882.4</ele>
        <time>2021-09-07T07:09:26.000Z</time>
      </trkpt>
      <trkpt lat="43.78061" lon="6.3856">
        <ele>882.6</ele>
        <time>2021-09-07T07:09:27.000Z</time>
      </trkpt>
      <trkpt lat="43.78059" lon="6.38569">
        <ele>883.3</ele>
        <time>2021-09-07T07:09:29.000Z</time>
      </trkpt>
      <trkpt lat="43.78057" lon="6.38571">
        <ele>883.5</ele>
        <time>2021-09-07T07:09:30.000Z</time>
      </trkpt>
      <trkpt lat="43.78057" lon="6.3857">
        <ele>883.4</ele>
        <time>2021-09-07T07:09:31.000Z</time>
      </trkpt>
      <trkpt lat="43.78056" lon="6.38573">
        <ele>883.8</ele>
        <time>2021-09-07T07:09:32.000Z</time>
      </trkpt>
      <trkpt lat="43.78056" lon="6.38583">
        <ele>884.3</ele>
        <time>2021-09-07T07:09:34.000Z</time>
      </trkpt>
      <trkpt lat="43.78055" lon="6.38586">
        <ele>884.1</ele>
        <time>2021-09-07T07:09:36.000Z</time>
      </trkpt>
      <trkpt lat="43.78053" lon="6.38588">
        <ele>884</ele>
        <time>2021-09-07T07:09:36.000Z</time>
      </trkpt>
      <trkpt lat="43.78052" lon="6.38589">
        <ele>884.2</ele>
        <time>2021-09-07T07:09:38.000Z</time>
      </trkpt>
      <trkpt lat="43.7805" lon="6.38599">
        <ele>884.8</ele>
        <time>2021-09-07T07:09:40.000Z</time>
      </trkpt>
      <trkpt lat="43.7805" lon="6.38602">
        <ele>885.2</ele>
        <time>2021-09-07T07:09:41.000Z</time>
      </trkpt>
      <trkpt lat="43.78049" lon="6.38605">
        <ele>885.3</ele>
        <time>2021-09-07T07:09:42.000Z</time>
      </trkpt>
      <trkpt lat="43.7805" lon="6.38601">
        <ele>885.1</ele>
        <time>2021-09-07T07:09:42.000Z</time>
      </trkpt>
      <trkpt lat="43.78049" lon="6.38605">
        <ele>885.3</ele>
        <time>2021-09-07T07:09:43.000Z</time>
      </trkpt>
      <trkpt lat="43.78048" lon="6.38608">
        <ele>885.4</ele>
        <time>2021-09-07T07:09:43.000Z</time>
      </trkpt>
      <trkpt lat="43.78045" lon="6.38612">
        <ele>885.7</ele>
        <time>2021-09-07T07:09:45.000Z</time>
      </trkpt>
      <trkpt lat="43.78044" lon="6.38616">
        <ele>885.8</ele>
        <time>2021-09-07T07:09:46.000Z</time>
      </trkpt>
      <trkpt lat="43.78044" lon="6.38614">
        <ele>885.6</ele>
        <time>2021-09-07T07:09:47.000Z</time>
      </trkpt>
      <trkpt lat="43.78044" lon="6.38618">
        <ele>886</ele>
        <time>2021-09-07T07:09:48.000Z</time>
      </trkpt>
      <trkpt lat="43.78045" lon="6.38622">
        <ele>886.4</ele>
        <time>2021-09-07T07:09:48.000Z</time>
      </trkpt>
      <trkpt lat="43.78045" lon="6.38625">
        <ele>886.4</ele>
        <time>2021-09-07T07:09:49.000Z</time>
      </trkpt>
      <trkpt lat="43.78045" lon="6.38629">
        <ele>886.7</ele>
        <time>2021-09-07T07:09:50.000Z</time>
      </trkpt>
      <trkpt lat="43.78045" lon="6.38624">
        <ele>886.4</ele>
        <time>2021-09-07T07:09:50.000Z</time>
      </trkpt>
      <trkpt lat="43.78045" lon="6.38628">
        <ele>886.5</ele>
        <time>2021-09-07T07:09:51.000Z</time>
      </trkpt>
      <trkpt lat="43.78043" lon="6.38631">
        <ele>886.7</ele>
        <time>2021-09-07T07:09:52.000Z</time>
      </trkpt>
      <trkpt lat="43.78043" lon="6.38638">
        <ele>887.2</ele>
        <time>2021-09-07T07:09:53.000Z</time>
      </trkpt>
      <trkpt lat="43.78043" lon="6.38641">
        <ele>887.2</ele>
        <time>2021-09-07T07:09:54.000Z</time>
      </trkpt>
      <trkpt lat="43.78044" lon="6.38644">
        <ele>887.6</ele>
        <time>2021-09-07T07:09:55.000Z</time>
      </trkpt>
      <trkpt lat="43.78043" lon="6.3864">
        <ele>887.2</ele>
        <time>2021-09-07T07:09:55.000Z</time>
      </trkpt>
      <trkpt lat="43.78046" lon="6.38646">
        <ele>887.4</ele>
        <time>2021-09-07T07:09:56.000Z</time>
      </trkpt>
      <trkpt lat="43.78044" lon="6.38643">
        <ele>887.4</ele>
        <time>2021-09-07T07:09:56.000Z</time>
      </trkpt>
      <trkpt lat="43.78046" lon="6.38645">
        <ele>887.4</ele>
        <time>2021-09-07T07:09:57.000Z</time>
      </trkpt>
      <trkpt lat="43.78046" lon="6.38649">
        <ele>887.5</ele>
        <time>2021-09-07T07:09:58.000Z</time>
      </trkpt>
      <trkpt lat="43.78044" lon="6.38654">
        <ele>888.1</ele>
        <time>2021-09-07T07:09:59.000Z</time>
      </trkpt>
      <trkpt lat="43.78044" lon="6.38654">
        <ele>888.1</ele>
        <time>2021-09-07T07:10:01.000Z</time>
      </trkpt>
      <trkpt lat="43.78044" lon="6.38659">
        <ele>888.2</ele>
        <time>2021-09-07T07:10:01.000Z</time>
      </trkpt>
      <trkpt lat="43.78044" lon="6.38662">
        <ele>888.5</ele>
        <time>2021-09-07T07:10:02.000Z</time>
      </trkpt>
      <trkpt lat="43.78044" lon="6.38661">
        <ele>888.4</ele>
        <time>2021-09-07T07:10:03.000Z</time>
      </trkpt>
      <trkpt lat="43.78044" lon="6.38664">
        <ele>888.6</ele>
        <time>2021-09-07T07:10:04.000Z</time>
      </trkpt>
      <trkpt lat="43.78044" lon="6.38669">
        <ele>888.9</ele>
        <time>2021-09-07T07:10:04.000Z</time>
      </trkpt>
      <trkpt lat="43.78044" lon="6.38672">
        <ele>888.9</ele>
        <time>2021-09-07T07:10:06.000Z</time>
      </trkpt>
      <trkpt lat="43.78044" lon="6.38675">
        <ele>889.3</ele>
        <time>2021-09-07T07:10:06.000Z</time>
      </trkpt>
      <trkpt lat="43.78044" lon="6.38677">
        <ele>889.5</ele>
        <time>2021-09-07T07:10:08.000Z</time>
      </trkpt>
      <trkpt lat="43.78045" lon="6.38692">
        <ele>890.4</ele>
        <time>2021-09-07T07:10:12.000Z</time>
      </trkpt>
      <trkpt lat="43.78044" lon="6.3869">
        <ele>890.3</ele>
        <time>2021-09-07T07:10:13.000Z</time>
      </trkpt>
      <trkpt lat="43.78045" lon="6.38693">
        <ele>890.5</ele>
        <time>2021-09-07T07:10:14.000Z</time>
      </trkpt>
      <trkpt lat="43.78047" lon="6.38697">
        <ele>890.6</ele>
        <time>2021-09-07T07:10:14.000Z</time>
      </trkpt>
      <trkpt lat="43.78047" lon="6.38699">
        <ele>890.7</ele>
        <time>2021-09-07T07:10:15.000Z</time>
      </trkpt>
      <trkpt lat="43.78047" lon="6.38699">
        <ele>890.7</ele>
        <time>2021-09-07T07:10:16.000Z</time>
      </trkpt>
      <trkpt lat="43.78046" lon="6.38701">
        <ele>890.7</ele>
        <time>2021-09-07T07:10:17.000Z</time>
      </trkpt>
      <trkpt lat="43.78044" lon="6.38706">
        <ele>891.1</ele>
        <time>2021-09-07T07:10:18.000Z</time>
      </trkpt>
      <trkpt lat="43.78044" lon="6.38707">
        <ele>891.1</ele>
        <time>2021-09-07T07:10:20.000Z</time>
      </trkpt>
      <trkpt lat="43.78045" lon="6.38712">
        <ele>891.6</ele>
        <time>2021-09-07T07:10:20.000Z</time>
      </trkpt>
      <trkpt lat="43.78046" lon="6.38713">
        <ele>891.7</ele>
        <time>2021-09-07T07:10:22.000Z</time>
      </trkpt>
      <trkpt lat="43.78044" lon="6.38721">
        <ele>892.4</ele>
        <time>2021-09-07T07:10:24.000Z</time>
      </trkpt>
      <trkpt lat="43.78043" lon="6.38723">
        <ele>892.9</ele>
        <time>2021-09-07T07:10:25.000Z</time>
      </trkpt>
      <trkpt lat="43.78044" lon="6.38722">
        <ele>892.8</ele>
        <time>2021-09-07T07:10:26.000Z</time>
      </trkpt>
      <trkpt lat="43.78043" lon="6.38726">
        <ele>893</ele>
        <time>2021-09-07T07:10:26.000Z</time>
      </trkpt>
      <trkpt lat="43.78046" lon="6.38733">
        <ele>893.4</ele>
        <time>2021-09-07T07:10:29.000Z</time>
      </trkpt>
      <trkpt lat="43.78046" lon="6.38735">
        <ele>893.5</ele>
        <time>2021-09-07T07:10:31.000Z</time>
      </trkpt>
      <trkpt lat="43.78042" lon="6.38747">
        <ele>894.3</ele>
        <time>2021-09-07T07:10:34.000Z</time>
      </trkpt>
      <trkpt lat="43.78044" lon="6.38748">
        <ele>894.3</ele>
        <time>2021-09-07T07:10:35.000Z</time>
      </trkpt>
      <trkpt lat="43.78043" lon="6.38748">
        <ele>894.3</ele>
        <time>2021-09-07T07:10:36.000Z</time>
      </trkpt>
      <trkpt lat="43.78044" lon="6.38749">
        <ele>894.3</ele>
        <time>2021-09-07T07:10:37.000Z</time>
      </trkpt>
      <trkpt lat="43.78042" lon="6.38763">
        <ele>895.6</ele>
        <time>2021-09-07T07:10:41.000Z</time>
      </trkpt>
      <trkpt lat="43.78041" lon="6.38761">
        <ele>895.6</ele>
        <time>2021-09-07T07:10:42.000Z</time>
      </trkpt>
      <trkpt lat="43.78043" lon="6.38765">
        <ele>895.5</ele>
        <time>2021-09-07T07:10:42.000Z</time>
      </trkpt>
      <trkpt lat="43.78044" lon="6.38767">
        <ele>895.7</ele>
        <time>2021-09-07T07:10:43.000Z</time>
      </trkpt>
      <trkpt lat="43.78045" lon="6.38768">
        <ele>895.8</ele>
        <time>2021-09-07T07:10:45.000Z</time>
      </trkpt>
      <trkpt lat="43.78046" lon="6.38776">
        <ele>896.4</ele>
        <time>2021-09-07T07:10:46.000Z</time>
      </trkpt>
      <trkpt lat="43.78045" lon="6.38778">
        <ele>896.5</ele>
        <time>2021-09-07T07:10:48.000Z</time>
      </trkpt>
      <trkpt lat="43.78046" lon="6.38785">
        <ele>897.2</ele>
        <time>2021-09-07T07:10:50.000Z</time>
      </trkpt>
      <trkpt lat="43.78048" lon="6.38786">
        <ele>897.4</ele>
        <time>2021-09-07T07:10:52.000Z</time>
      </trkpt>
      <trkpt lat="43.78048" lon="6.38788">
        <ele>897.6</ele>
        <time>2021-09-07T07:10:52.000Z</time>
      </trkpt>
      <trkpt lat="43.78049" lon="6.38792">
        <ele>897.8</ele>
        <time>2021-09-07T07:10:54.000Z</time>
      </trkpt>
      <trkpt lat="43.7805" lon="6.38804">
        <ele>898.2</ele>
        <time>2021-09-07T07:10:57.000Z</time>
      </trkpt>
      <trkpt lat="43.78051" lon="6.38807">
        <ele>898.5</ele>
        <time>2021-09-07T07:10:58.000Z</time>
      </trkpt>
      <trkpt lat="43.78051" lon="6.38805">
        <ele>898.3</ele>
        <time>2021-09-07T07:10:59.000Z</time>
      </trkpt>
      <trkpt lat="43.78052" lon="6.38809">
        <ele>898.5</ele>
        <time>2021-09-07T07:11:00.000Z</time>
      </trkpt>
      <trkpt lat="43.78053" lon="6.38815">
        <ele>899</ele>
        <time>2021-09-07T07:11:01.000Z</time>
      </trkpt>
      <trkpt lat="43.78053" lon="6.38817">
        <ele>899</ele>
        <time>2021-09-07T07:11:03.000Z</time>
      </trkpt>
      <trkpt lat="43.78053" lon="6.38824">
        <ele>899.6</ele>
        <time>2021-09-07T07:11:04.000Z</time>
      </trkpt>
      <trkpt lat="43.78053" lon="6.38825">
        <ele>899.7</ele>
        <time>2021-09-07T07:11:06.000Z</time>
      </trkpt>
      <trkpt lat="43.78056" lon="6.38836">
        <ele>899.9</ele>
        <time>2021-09-07T07:11:08.000Z</time>
      </trkpt>
      <trkpt lat="43.78056" lon="6.38837">
        <ele>899.8</ele>
        <time>2021-09-07T07:11:10.000Z</time>
      </trkpt>
      <trkpt lat="43.78058" lon="6.38842">
        <ele>900.4</ele>
        <time>2021-09-07T07:11:10.000Z</time>
      </trkpt>
      <trkpt lat="43.78058" lon="6.38845">
        <ele>900.3</ele>
        <time>2021-09-07T07:11:11.000Z</time>
      </trkpt>
      <trkpt lat="43.78059" lon="6.38849">
        <ele>900.6</ele>
        <time>2021-09-07T07:11:12.000Z</time>
      </trkpt>
      <trkpt lat="43.78058" lon="6.38844">
        <ele>900.4</ele>
        <time>2021-09-07T07:11:12.000Z</time>
      </trkpt>
      <trkpt lat="43.78058" lon="6.38847">
        <ele>900.5</ele>
        <time>2021-09-07T07:11:13.000Z</time>
      </trkpt>
      <trkpt lat="43.78059" lon="6.38851">
        <ele>900.7</ele>
        <time>2021-09-07T07:11:14.000Z</time>
      </trkpt>
      <trkpt lat="43.7806" lon="6.38854">
        <ele>901.2</ele>
        <time>2021-09-07T07:11:14.000Z</time>
      </trkpt>
      <trkpt lat="43.78062" lon="6.38857">
        <ele>901.2</ele>
        <time>2021-09-07T07:11:15.000Z</time>
      </trkpt>
      <trkpt lat="43.78061" lon="6.38856">
        <ele>901.1</ele>
        <time>2021-09-07T07:11:16.000Z</time>
      </trkpt>
      <trkpt lat="43.78063" lon="6.3886">
        <ele>901.2</ele>
        <time>2021-09-07T07:11:17.000Z</time>
      </trkpt>
      <trkpt lat="43.78064" lon="6.38863">
        <ele>901.6</ele>
        <time>2021-09-07T07:11:17.000Z</time>
      </trkpt>
      <trkpt lat="43.78066" lon="6.38865">
        <ele>901.6</ele>
        <time>2021-09-07T07:11:18.000Z</time>
      </trkpt>
      <trkpt lat="43.78069" lon="6.38875">
        <ele>902.2</ele>
        <time>2021-09-07T07:11:21.000Z</time>
      </trkpt>
      <trkpt lat="43.78069" lon="6.38879">
        <ele>902.6</ele>
        <time>2021-09-07T07:11:22.000Z</time>
      </trkpt>
      <trkpt lat="43.78069" lon="6.38878">
        <ele>902.4</ele>
        <time>2021-09-07T07:11:23.000Z</time>
      </trkpt>
      <trkpt lat="43.78069" lon="6.38882">
        <ele>902.7</ele>
        <time>2021-09-07T07:11:24.000Z</time>
      </trkpt>
      <trkpt lat="43.78072" lon="6.38902">
        <ele>903.6</ele>
        <time>2021-09-07T07:11:30.000Z</time>
      </trkpt>
      <trkpt lat="43.78073" lon="6.38913">
        <ele>904.4</ele>
        <time>2021-09-07T07:11:32.000Z</time>
      </trkpt>
      <trkpt lat="43.78074" lon="6.38916">
        <ele>904.7</ele>
        <time>2021-09-07T07:11:33.000Z</time>
      </trkpt>
      <trkpt lat="43.78073" lon="6.38915">
        <ele>904.6</ele>
        <time>2021-09-07T07:11:34.000Z</time>
      </trkpt>
      <trkpt lat="43.78075" lon="6.38918">
        <ele>904.6</ele>
        <time>2021-09-07T07:11:34.000Z</time>
      </trkpt>
      <trkpt lat="43.78078" lon="6.38929">
        <ele>905.5</ele>
        <time>2021-09-07T07:11:38.000Z</time>
      </trkpt>
      <trkpt lat="43.78077" lon="6.38933">
        <ele>905.8</ele>
        <time>2021-09-07T07:11:39.000Z</time>
      </trkpt>
      <trkpt lat="43.78078" lon="6.38928">
        <ele>905.4</ele>
        <time>2021-09-07T07:11:39.000Z</time>
      </trkpt>
      <trkpt lat="43.78078" lon="6.38939">
        <ele>905.8</ele>
        <time>2021-09-07T07:11:40.000Z</time>
      </trkpt>
      <trkpt lat="43.78077" lon="6.38932">
        <ele>905.7</ele>
        <time>2021-09-07T07:11:40.000Z</time>
      </trkpt>
      <trkpt lat="43.78078" lon="6.38937">
        <ele>905.8</ele>
        <time>2021-09-07T07:11:41.000Z</time>
      </trkpt>
      <trkpt lat="43.7808" lon="6.38943">
        <ele>906.1</ele>
        <time>2021-09-07T07:11:41.000Z</time>
      </trkpt>
      <trkpt lat="43.78083" lon="6.38962">
        <ele>907.2</ele>
        <time>2021-09-07T07:11:46.000Z</time>
      </trkpt>
      <trkpt lat="43.78091" lon="6.3898">
        <ele>907.9</ele>
        <time>2021-09-07T07:11:51.000Z</time>
      </trkpt>
      <trkpt lat="43.78095" lon="6.38995">
        <ele>909.1</ele>
        <time>2021-09-07T07:11:56.000Z</time>
      </trkpt>
      <trkpt lat="43.781" lon="6.39007">
        <ele>910.5</ele>
        <time>2021-09-07T07:12:01.000Z</time>
      </trkpt>
      <trkpt lat="43.78104" lon="6.39021">
        <ele>911.1</ele>
        <time>2021-09-07T07:12:06.000Z</time>
      </trkpt>
      <trkpt lat="43.7811" lon="6.39037">
        <ele>912</ele>
        <time>2021-09-07T07:12:11.000Z</time>
      </trkpt>
      <trkpt lat="43.78106" lon="6.39052">
        <ele>913.2</ele>
        <time>2021-09-07T07:12:17.000Z</time>
      </trkpt>
      <trkpt lat="43.78101" lon="6.39057">
        <ele>913.5</ele>
        <time>2021-09-07T07:12:18.000Z</time>
      </trkpt>
      <trkpt lat="43.78098" lon="6.39059">
        <ele>913.4</ele>
        <time>2021-09-07T07:12:19.000Z</time>
      </trkpt>
      <trkpt lat="43.78096" lon="6.39059">
        <ele>913.6</ele>
        <time>2021-09-07T07:12:20.000Z</time>
      </trkpt>
      <trkpt lat="43.78099" lon="6.39058">
        <ele>913.4</ele>
        <time>2021-09-07T07:12:20.000Z</time>
      </trkpt>
      <trkpt lat="43.78094" lon="6.39059">
        <ele>913.7</ele>
        <time>2021-09-07T07:12:21.000Z</time>
      </trkpt>
      <trkpt lat="43.78097" lon="6.39059">
        <ele>913.6</ele>
        <time>2021-09-07T07:12:21.000Z</time>
      </trkpt>
      <trkpt lat="43.78095" lon="6.39059">
        <ele>913.8</ele>
        <time>2021-09-07T07:12:22.000Z</time>
      </trkpt>
      <trkpt lat="43.78093" lon="6.3906">
        <ele>913.5</ele>
        <time>2021-09-07T07:12:22.000Z</time>
      </trkpt>
      <trkpt lat="43.78093" lon="6.39061">
        <ele>913.4</ele>
        <time>2021-09-07T07:12:27.000Z</time>
      </trkpt>
      <trkpt lat="43.78094" lon="6.39063">
        <ele>913.9</ele>
        <time>2021-09-07T07:12:28.000Z</time>
      </trkpt>
      <trkpt lat="43.78094" lon="6.39063">
        <ele>913.8</ele>
        <time>2021-09-07T07:12:30.000Z</time>
      </trkpt>
      <trkpt lat="43.78095" lon="6.39064">
        <ele>913.8</ele>
        <time>2021-09-07T07:12:30.000Z</time>
      </trkpt>
      <trkpt lat="43.78095" lon="6.39063">
        <ele>913.8</ele>
        <time>2021-09-07T07:12:31.000Z</time>
      </trkpt>
      <trkpt lat="43.78094" lon="6.39064">
        <ele>913.5</ele>
        <time>2021-09-07T07:12:36.000Z</time>
      </trkpt>
      <trkpt lat="43.78094" lon="6.39064">
        <ele>913.4</ele>
        <time>2021-09-07T07:12:37.000Z</time>
      </trkpt>
      <trkpt lat="43.78094" lon="6.39064">
        <ele>913.1</ele>
        <time>2021-09-07T07:12:40.000Z</time>
      </trkpt>
      <trkpt lat="43.78094" lon="6.39065">
        <ele>912.9</ele>
        <time>2021-09-07T07:12:41.000Z</time>
      </trkpt>
      <trkpt lat="43.78094" lon="6.39065">
        <ele>912.9</ele>
        <time>2021-09-07T07:12:42.000Z</time>
      </trkpt>
      <trkpt lat="43.78094" lon="6.39065">
        <ele>913.1</ele>
        <time>2021-09-07T07:12:44.000Z</time>
      </trkpt>
      <trkpt lat="43.78094" lon="6.39066">
        <ele>913.2</ele>
        <time>2021-09-07T07:12:49.000Z</time>
      </trkpt>
      <trkpt lat="43.78093" lon="6.39067">
        <ele>912.8</ele>
        <time>2021-09-07T07:12:53.000Z</time>
      </trkpt>
      <trkpt lat="43.78094" lon="6.39068">
        <ele>912.9</ele>
        <time>2021-09-07T07:12:58.000Z</time>
      </trkpt>
      <trkpt lat="43.78094" lon="6.39068">
        <ele>912.9</ele>
        <time>2021-09-07T07:13:03.000Z</time>
      </trkpt>
      <trkpt lat="43.78094" lon="6.39069">
        <ele>912.9</ele>
        <time>2021-09-07T07:13:06.000Z</time>
      </trkpt>
      <trkpt lat="43.78094" lon="6.39069">
        <ele>912.9</ele>
        <time>2021-09-07T07:13:08.000Z</time>
      </trkpt>
      <trkpt lat="43.78095" lon="6.39069">
        <ele>913.4</ele>
        <time>2021-09-07T07:13:12.000Z</time>
      </trkpt>
      <trkpt lat="43.78095" lon="6.3907">
        <ele>913.3</ele>
        <time>2021-09-07T07:13:16.000Z</time>
      </trkpt>
      <trkpt lat="43.78096" lon="6.3907">
        <ele>913.1</ele>
        <time>2021-09-07T07:13:16.000Z</time>
      </trkpt>
      <trkpt lat="43.78096" lon="6.3907">
        <ele>913.2</ele>
        <time>2021-09-07T07:13:18.000Z</time>
      </trkpt>
      <trkpt lat="43.78096" lon="6.3907">
        <ele>913.2</ele>
        <time>2021-09-07T07:13:19.000Z</time>
      </trkpt>
      <trkpt lat="43.78096" lon="6.39071">
        <ele>913.1</ele>
        <time>2021-09-07T07:13:21.000Z</time>
      </trkpt>
      <trkpt lat="43.78096" lon="6.39071">
        <ele>913.2</ele>
        <time>2021-09-07T07:13:22.000Z</time>
      </trkpt>
      <trkpt lat="43.78097" lon="6.39071">
        <ele>913</ele>
        <time>2021-09-07T07:13:26.000Z</time>
      </trkpt>
      <trkpt lat="43.78097" lon="6.39072">
        <ele>912.9</ele>
        <time>2021-09-07T07:13:27.000Z</time>
      </trkpt>
      <trkpt lat="43.78097" lon="6.39072">
        <ele>913</ele>
        <time>2021-09-07T07:13:29.000Z</time>
      </trkpt>
      <trkpt lat="43.78097" lon="6.39072">
        <ele>913.5</ele>
        <time>2021-09-07T07:13:34.000Z</time>
      </trkpt>
      <trkpt lat="43.78098" lon="6.39072">
        <ele>913.7</ele>
        <time>2021-09-07T07:13:39.000Z</time>
      </trkpt>
      <trkpt lat="43.78098" lon="6.39072">
        <ele>913.6</ele>
        <time>2021-09-07T07:13:44.000Z</time>
      </trkpt>
      <trkpt lat="43.78098" lon="6.39072">
        <ele>913.5</ele>
        <time>2021-09-07T07:13:49.000Z</time>
      </trkpt>
      <trkpt lat="43.78098" lon="6.39072">
        <ele>914.2</ele>
        <time>2021-09-07T07:13:54.000Z</time>
      </trkpt>
      <trkpt lat="43.78098" lon="6.39072">
        <ele>914.3</ele>
        <time>2021-09-07T07:13:59.000Z</time>
      </trkpt>
      <trkpt lat="43.78098" lon="6.39072">
        <ele>913.8</ele>
        <time>2021-09-07T07:14:01.000Z</time>
      </trkpt>
      <trkpt lat="43.78099" lon="6.39071">
        <ele>914.1</ele>
        <time>2021-09-07T07:14:01.000Z</time>
      </trkpt>
      <trkpt lat="43.78099" lon="6.39069">
        <ele>914.3</ele>
        <time>2021-09-07T07:14:02.000Z</time>
      </trkpt>
      <trkpt lat="43.78099" lon="6.3907">
        <ele>914.2</ele>
        <time>2021-09-07T07:14:03.000Z</time>
      </trkpt>
      <trkpt lat="43.78099" lon="6.39069">
        <ele>914.3</ele>
        <time>2021-09-07T07:14:04.000Z</time>
      </trkpt>
      <trkpt lat="43.781" lon="6.39068">
        <ele>914.5</ele>
        <time>2021-09-07T07:14:05.000Z</time>
      </trkpt>
      <trkpt lat="43.781" lon="6.39065">
        <ele>915.1</ele>
        <time>2021-09-07T07:14:11.000Z</time>
      </trkpt>
      <trkpt lat="43.781" lon="6.39065">
        <ele>914.3</ele>
        <time>2021-09-07T07:14:16.000Z</time>
      </trkpt>
      <trkpt lat="43.781" lon="6.39065">
        <ele>913.9</ele>
        <time>2021-09-07T07:14:17.000Z</time>
      </trkpt>
      <trkpt lat="43.781" lon="6.39066">
        <ele>914.1</ele>
        <time>2021-09-07T07:14:17.000Z</time>
      </trkpt>
      <trkpt lat="43.781" lon="6.39066">
        <ele>914</ele>
        <time>2021-09-07T07:14:19.000Z</time>
      </trkpt>
      <trkpt lat="43.781" lon="6.39066">
        <ele>914.1</ele>
        <time>2021-09-07T07:14:20.000Z</time>
      </trkpt>
      <trkpt lat="43.78098" lon="6.39068">
        <ele>914.5</ele>
        <time>2021-09-07T07:14:21.000Z</time>
      </trkpt>
      <trkpt lat="43.78097" lon="6.39068">
        <ele>914.5</ele>
        <time>2021-09-07T07:14:23.000Z</time>
      </trkpt>
      <trkpt lat="43.78095" lon="6.39067">
        <ele>914.6</ele>
        <time>2021-09-07T07:14:26.000Z</time>
      </trkpt>
      <trkpt lat="43.78094" lon="6.39066">
        <ele>915.3</ele>
        <time>2021-09-07T07:14:31.000Z</time>
      </trkpt>
      <trkpt lat="43.78094" lon="6.39066">
        <ele>915.3</ele>
        <time>2021-09-07T07:14:32.000Z</time>
      </trkpt>
      <trkpt lat="43.78091" lon="6.39065">
        <ele>915.4</ele>
        <time>2021-09-07T07:14:37.000Z</time>
      </trkpt>
      <trkpt lat="43.7809" lon="6.39064">
        <ele>915.4</ele>
        <time>2021-09-07T07:14:42.000Z</time>
      </trkpt>
      <trkpt lat="43.7809" lon="6.39064">
        <ele>914.8</ele>
        <time>2021-09-07T07:14:45.000Z</time>
      </trkpt>
      <trkpt lat="43.7809" lon="6.39064">
        <ele>914.7</ele>
        <time>2021-09-07T07:14:46.000Z</time>
      </trkpt>
      <trkpt lat="43.78089" lon="6.39064">
        <ele>914.1</ele>
        <time>2021-09-07T07:14:49.000Z</time>
      </trkpt>
      <trkpt lat="43.78089" lon="6.39062">
        <ele>914</ele>
        <time>2021-09-07T07:14:54.000Z</time>
      </trkpt>
      <trkpt lat="43.78089" lon="6.39062">
        <ele>914.4</ele>
        <time>2021-09-07T07:14:57.000Z</time>
      </trkpt>
      <trkpt lat="43.78089" lon="6.39061">
        <ele>914.1</ele>
        <time>2021-09-07T07:15:02.000Z</time>
      </trkpt>
      <trkpt lat="43.78089" lon="6.39061">
        <ele>913.8</ele>
        <time>2021-09-07T07:15:07.000Z</time>
      </trkpt>
      <trkpt lat="43.78088" lon="6.39061">
        <ele>913.8</ele>
        <time>2021-09-07T07:15:12.000Z</time>
      </trkpt>
      <trkpt lat="43.78088" lon="6.39061">
        <ele>914.3</ele>
        <time>2021-09-07T07:15:17.000Z</time>
      </trkpt>
      <trkpt lat="43.78088" lon="6.39062">
        <ele>914.3</ele>
        <time>2021-09-07T07:15:18.000Z</time>
      </trkpt>
      <trkpt lat="43.78088" lon="6.39062">
        <ele>914.1</ele>
        <time>2021-09-07T07:15:19.000Z</time>
      </trkpt>
      <trkpt lat="43.78088" lon="6.39062">
        <ele>913.7</ele>
        <time>2021-09-07T07:15:22.000Z</time>
      </trkpt>
      <trkpt lat="43.78088" lon="6.39062">
        <ele>913.7</ele>
        <time>2021-09-07T07:15:23.000Z</time>
      </trkpt>
      <trkpt lat="43.78088" lon="6.39063">
        <ele>913.8</ele>
        <time>2021-09-07T07:15:23.000Z</time>
      </trkpt>
      <trkpt lat="43.78087" lon="6.39063">
        <ele>913.8</ele>
        <time>2021-09-07T07:15:24.000Z</time>
      </trkpt>
      <trkpt lat="43.78087" lon="6.39063">
        <ele>913.8</ele>
        <time>2021-09-07T07:15:27.000Z</time>
      </trkpt>
      <trkpt lat="43.78087" lon="6.39063">
        <ele>913.9</ele>
        <time>2021-09-07T07:15:30.000Z</time>
      </trkpt>
      <trkpt lat="43.78087" lon="6.39063">
        <ele>913.6</ele>
        <time>2021-09-07T07:15:32.000Z</time>
      </trkpt>
      <trkpt lat="43.78087" lon="6.39064">
        <ele>914.1</ele>
        <time>2021-09-07T07:15:35.000Z</time>
      </trkpt>
      <trkpt lat="43.78087" lon="6.39065">
        <ele>914.5</ele>
        <time>2021-09-07T07:15:36.000Z</time>
      </trkpt>
      <trkpt lat="43.78087" lon="6.39064">
        <ele>913.9</ele>
        <time>2021-09-07T07:15:37.000Z</time>
      </trkpt>
      <trkpt lat="43.78088" lon="6.39066">
        <ele>914.4</ele>
        <time>2021-09-07T07:15:42.000Z</time>
      </trkpt>
      <trkpt lat="43.78089" lon="6.39066">
        <ele>914.2</ele>
        <time>2021-09-07T07:15:43.000Z</time>
      </trkpt>
      <trkpt lat="43.7809" lon="6.39066">
        <ele>914.5</ele>
        <time>2021-09-07T07:15:48.000Z</time>
      </trkpt>
      <trkpt lat="43.78092" lon="6.39064">
        <ele>914.5</ele>
        <time>2021-09-07T07:15:53.000Z</time>
      </trkpt>
      <trkpt lat="43.78093" lon="6.39063">
        <ele>914.6</ele>
        <time>2021-09-07T07:15:58.000Z</time>
      </trkpt>
      <trkpt lat="43.78094" lon="6.39063">
        <ele>914.6</ele>
        <time>2021-09-07T07:15:59.000Z</time>
      </trkpt>
      <trkpt lat="43.78093" lon="6.39064">
        <ele>914.2</ele>
        <time>2021-09-07T07:16:04.000Z</time>
      </trkpt>
      <trkpt lat="43.78093" lon="6.39065">
        <ele>914.5</ele>
        <time>2021-09-07T07:16:09.000Z</time>
      </trkpt>
      <trkpt lat="43.78093" lon="6.39065">
        <ele>914.8</ele>
        <time>2021-09-07T07:16:14.000Z</time>
      </trkpt>
      <trkpt lat="43.78093" lon="6.39065">
        <ele>913.6</ele>
        <time>2021-09-07T07:16:18.000Z</time>
      </trkpt>
      <trkpt lat="43.78093" lon="6.39065">
        <ele>912.5</ele>
        <time>2021-09-07T07:16:20.000Z</time>
      </trkpt>
      <trkpt lat="43.78093" lon="6.39065">
        <ele>912.1</ele>
        <time>2021-09-07T07:16:22.000Z</time>
      </trkpt>
      <trkpt lat="43.78093" lon="6.39065">
        <ele>915.6</ele>
        <time>2021-09-07T07:16:23.000Z</time>
      </trkpt>
      <trkpt lat="43.78093" lon="6.39065">
        <ele>913.8</ele>
        <time>2021-09-07T07:16:28.000Z</time>
      </trkpt>
      <trkpt lat="43.78093" lon="6.39065">
        <ele>913.6</ele>
        <time>2021-09-07T07:16:33.000Z</time>
      </trkpt>
      <trkpt lat="43.78093" lon="6.39065">
        <ele>913.8</ele>
        <time>2021-09-07T07:16:38.000Z</time>
      </trkpt>
      <trkpt lat="43.78093" lon="6.39065">
        <ele>913.9</ele>
        <time>2021-09-07T07:16:40.000Z</time>
      </trkpt>
      <trkpt lat="43.78094" lon="6.39065">
        <ele>913.7</ele>
        <time>2021-09-07T07:16:42.000Z</time>
      </trkpt>
      <trkpt lat="43.78093" lon="6.39065">
        <ele>913.8</ele>
        <time>2021-09-07T07:16:43.000Z</time>
      </trkpt>
      <trkpt lat="43.78094" lon="6.39065">
        <ele>913.7</ele>
        <time>2021-09-07T07:16:43.000Z</time>
      </trkpt>
      <trkpt lat="43.78094" lon="6.39065">
        <ele>913.7</ele>
        <time>2021-09-07T07:16:44.000Z</time>
      </trkpt>
      <trkpt lat="43.78094" lon="6.39065">
        <ele>913.8</ele>
        <time>2021-09-07T07:16:46.000Z</time>
      </trkpt>
      <trkpt lat="43.78094" lon="6.39065">
        <ele>913.7</ele>
        <time>2021-09-07T07:16:48.000Z</time>
      </trkpt>
      <trkpt lat="43.78095" lon="6.39065">
        <ele>913.8</ele>
        <time>2021-09-07T07:16:53.000Z</time>
      </trkpt>
      <trkpt lat="43.78095" lon="6.39064">
        <ele>913.8</ele>
        <time>2021-09-07T07:16:56.000Z</time>
      </trkpt>
      <trkpt lat="43.78095" lon="6.39064">
        <ele>914</ele>
        <time>2021-09-07T07:16:57.000Z</time>
      </trkpt>
      <trkpt lat="43.78096" lon="6.39064">
        <ele>913.8</ele>
        <time>2021-09-07T07:17:02.000Z</time>
      </trkpt>
      <trkpt lat="43.78096" lon="6.39065">
        <ele>914</ele>
        <time>2021-09-07T07:17:07.000Z</time>
      </trkpt>
      <trkpt lat="43.78096" lon="6.39066">
        <ele>913.9</ele>
        <time>2021-09-07T07:17:12.000Z</time>
      </trkpt>
      <trkpt lat="43.78096" lon="6.39066">
        <ele>914</ele>
        <time>2021-09-07T07:17:16.000Z</time>
      </trkpt>
      <trkpt lat="43.78096" lon="6.39066">
        <ele>914</ele>
        <time>2021-09-07T07:17:17.000Z</time>
      </trkpt>
      <trkpt lat="43.78096" lon="6.39067">
        <ele>914.1</ele>
        <time>2021-09-07T07:17:22.000Z</time>
      </trkpt>
      <trkpt lat="43.78096" lon="6.39067">
        <ele>914</ele>
        <time>2021-09-07T07:17:27.000Z</time>
      </trkpt>
      <trkpt lat="43.78096" lon="6.39066">
        <ele>913.9</ele>
        <time>2021-09-07T07:17:31.000Z</time>
      </trkpt>
      <trkpt lat="43.78096" lon="6.39067">
        <ele>914</ele>
        <time>2021-09-07T07:17:37.000Z</time>
      </trkpt>
      <trkpt lat="43.78096" lon="6.39067">
        <ele>914.1</ele>
        <time>2021-09-07T07:17:40.000Z</time>
      </trkpt>
      <trkpt lat="43.78096" lon="6.39067">
        <ele>913.9</ele>
        <time>2021-09-07T07:17:41.000Z</time>
      </trkpt>
      <trkpt lat="43.78096" lon="6.39067">
        <ele>914.1</ele>
        <time>2021-09-07T07:17:41.000Z</time>
      </trkpt>
      <trkpt lat="43.78095" lon="6.39066">
        <ele>914.3</ele>
        <time>2021-09-07T07:17:42.000Z</time>
      </trkpt>
      <trkpt lat="43.78095" lon="6.39065">
        <ele>914.3</ele>
        <time>2021-09-07T07:17:43.000Z</time>
      </trkpt>
      <trkpt lat="43.78094" lon="6.39064">
        <ele>914.2</ele>
        <time>2021-09-07T07:17:45.000Z</time>
      </trkpt>
      <trkpt lat="43.78093" lon="6.39063">
        <ele>914.2</ele>
        <time>2021-09-07T07:17:48.000Z</time>
      </trkpt>
      <trkpt lat="43.78093" lon="6.39063">
        <ele>914.1</ele>
        <time>2021-09-07T07:17:50.000Z</time>
      </trkpt>
      <trkpt lat="43.78092" lon="6.39062">
        <ele>914.3</ele>
        <time>2021-09-07T07:17:51.000Z</time>
      </trkpt>
      <trkpt lat="43.78087" lon="6.39054">
        <ele>914.6</ele>
        <time>2021-09-07T07:17:51.000Z</time>
      </trkpt>
      <trkpt lat="43.78086" lon="6.39049">
        <ele>914.6</ele>
        <time>2021-09-07T07:17:52.000Z</time>
      </trkpt>
      <trkpt lat="43.78086" lon="6.3905">
        <ele>914.6</ele>
        <time>2021-09-07T07:17:54.000Z</time>
      </trkpt>
      <trkpt lat="43.78085" lon="6.39044">
        <ele>914.8</ele>
        <time>2021-09-07T07:17:55.000Z</time>
      </trkpt>
      <trkpt lat="43.78082" lon="6.39028">
        <ele>915.1</ele>
        <time>2021-09-07T07:17:56.000Z</time>
      </trkpt>
      <trkpt lat="43.78081" lon="6.39024">
        <ele>915.1</ele>
        <time>2021-09-07T07:17:59.000Z</time>
      </trkpt>
      <trkpt lat="43.78079" lon="6.39014">
        <ele>915.4</ele>
        <time>2021-09-07T07:17:59.000Z</time>
      </trkpt>
      <trkpt lat="43.78078" lon="6.39011">
        <ele>915.5</ele>
        <time>2021-09-07T07:18:02.000Z</time>
      </trkpt>
      <trkpt lat="43.78075" lon="6.39004">
        <ele>915.9</ele>
        <time>2021-09-07T07:18:02.000Z</time>
      </trkpt>
      <trkpt lat="43.78072" lon="6.38997">
        <ele>916.1</ele>
        <time>2021-09-07T07:18:04.000Z</time>
      </trkpt>
      <trkpt lat="43.7807" lon="6.38993">
        <ele>916.1</ele>
        <time>2021-09-07T07:18:05.000Z</time>
      </trkpt>
      <trkpt lat="43.78073" lon="6.39">
        <ele>916</ele>
        <time>2021-09-07T07:18:05.000Z</time>
      </trkpt>
      <trkpt lat="43.78069" lon="6.38991">
        <ele>916.4</ele>
        <time>2021-09-07T07:18:06.000Z</time>
      </trkpt>
      <trkpt lat="43.78071" lon="6.38994">
        <ele>916.1</ele>
        <time>2021-09-07T07:18:07.000Z</time>
      </trkpt>
      <trkpt lat="43.78068" lon="6.38987">
        <ele>916.7</ele>
        <time>2021-09-07T07:18:07.000Z</time>
      </trkpt>
      <trkpt lat="43.78066" lon="6.38985">
        <ele>916.6</ele>
        <time>2021-09-07T07:18:08.000Z</time>
      </trkpt>
      <trkpt lat="43.78064" lon="6.38982">
        <ele>916.8</ele>
        <time>2021-09-07T07:18:09.000Z</time>
      </trkpt>
      <trkpt lat="43.78062" lon="6.3898">
        <ele>916.8</ele>
        <time>2021-09-07T07:18:10.000Z</time>
      </trkpt>
      <trkpt lat="43.78067" lon="6.38985">
        <ele>916.6</ele>
        <time>2021-09-07T07:18:10.000Z</time>
      </trkpt>
      <trkpt lat="43.78065" lon="6.38983">
        <ele>916.7</ele>
        <time>2021-09-07T07:18:11.000Z</time>
      </trkpt>
      <trkpt lat="43.78055" lon="6.38974">
        <ele>917.5</ele>
        <time>2021-09-07T07:18:16.000Z</time>
      </trkpt>
      <trkpt lat="43.78055" lon="6.38974">
        <ele>917.5</ele>
        <time>2021-09-07T07:18:16.000Z</time>
      </trkpt>
      <trkpt lat="43.78049" lon="6.38967">
        <ele>917.8</ele>
        <time>2021-09-07T07:18:17.000Z</time>
      </trkpt>
      <trkpt lat="43.78048" lon="6.38966">
        <ele>917.9</ele>
        <time>2021-09-07T07:18:18.000Z</time>
      </trkpt>
      <trkpt lat="43.78051" lon="6.38971">
        <ele>917.7</ele>
        <time>2021-09-07T07:18:18.000Z</time>
      </trkpt>
      <trkpt lat="43.7805" lon="6.38968">
        <ele>917.8</ele>
        <time>2021-09-07T07:18:19.000Z</time>
      </trkpt>
      <trkpt lat="43.78042" lon="6.38957">
        <ele>918.6</ele>
        <time>2021-09-07T07:18:22.000Z</time>
      </trkpt>
      <trkpt lat="43.78039" lon="6.38952">
        <ele>918.6</ele>
        <time>2021-09-07T07:18:24.000Z</time>
      </trkpt>
      <trkpt lat="43.78037" lon="6.38949">
        <ele>918.7</ele>
        <time>2021-09-07T07:18:25.000Z</time>
      </trkpt>
      <trkpt lat="43.78042" lon="6.38956">
        <ele>918.7</ele>
        <time>2021-09-07T07:18:25.000Z</time>
      </trkpt>
      <trkpt lat="43.78034" lon="6.38943">
        <ele>919.1</ele>
        <time>2021-09-07T07:18:27.000Z</time>
      </trkpt>
      <trkpt lat="43.78038" lon="6.3895">
        <ele>918.5</ele>
        <time>2021-09-07T07:18:27.000Z</time>
      </trkpt>
      <trkpt lat="43.78033" lon="6.3894">
        <ele>919.7</ele>
        <time>2021-09-07T07:18:28.000Z</time>
      </trkpt>
      <trkpt lat="43.78036" lon="6.38947">
        <ele>918.9</ele>
        <time>2021-09-07T07:18:28.000Z</time>
      </trkpt>
      <trkpt lat="43.78032" lon="6.38937">
        <ele>920</ele>
        <time>2021-09-07T07:18:29.000Z</time>
      </trkpt>
      <trkpt lat="43.7803" lon="6.38933">
        <ele>919.9</ele>
        <time>2021-09-07T07:18:30.000Z</time>
      </trkpt>
      <trkpt lat="43.78034" lon="6.38942">
        <ele>919.1</ele>
        <time>2021-09-07T07:18:30.000Z</time>
      </trkpt>
      <trkpt lat="43.78032" lon="6.38938">
        <ele>919.9</ele>
        <time>2021-09-07T07:18:31.000Z</time>
      </trkpt>
      <trkpt lat="43.78027" lon="6.38926">
        <ele>920.4</ele>
        <time>2021-09-07T07:18:32.000Z</time>
      </trkpt>
      <trkpt lat="43.78031" lon="6.38935">
        <ele>920</ele>
        <time>2021-09-07T07:18:32.000Z</time>
      </trkpt>
      <trkpt lat="43.78029" lon="6.38931">
        <ele>920.4</ele>
        <time>2021-09-07T07:18:33.000Z</time>
      </trkpt>
      <trkpt lat="43.78026" lon="6.38923">
        <ele>920.4</ele>
        <time>2021-09-07T07:18:33.000Z</time>
      </trkpt>
      <trkpt lat="43.78019" lon="6.38904">
        <ele>921.4</ele>
        <time>2021-09-07T07:18:38.000Z</time>
      </trkpt>
      <trkpt lat="43.7801" lon="6.38896">
        <ele>921.7</ele>
        <time>2021-09-07T07:18:43.000Z</time>
      </trkpt>
      <trkpt lat="43.77999" lon="6.38902">
        <ele>922.5</ele>
        <time>2021-09-07T07:18:48.000Z</time>
      </trkpt>
      <trkpt lat="43.77992" lon="6.38917">
        <ele>923.1</ele>
        <time>2021-09-07T07:18:53.000Z</time>
      </trkpt>
      <trkpt lat="43.77998" lon="6.38931">
        <ele>923.6</ele>
        <time>2021-09-07T07:18:58.000Z</time>
      </trkpt>
      <trkpt lat="43.78007" lon="6.38943">
        <ele>924.2</ele>
        <time>2021-09-07T07:19:03.000Z</time>
      </trkpt>
      <trkpt lat="43.78017" lon="6.38955">
        <ele>924.7</ele>
        <time>2021-09-07T07:19:08.000Z</time>
      </trkpt>
      <trkpt lat="43.78024" lon="6.38969">
        <ele>924.8</ele>
        <time>2021-09-07T07:19:13.000Z</time>
      </trkpt>
      <trkpt lat="43.78032" lon="6.38987">
        <ele>925.5</ele>
        <time>2021-09-07T07:19:18.000Z</time>
      </trkpt>
      <trkpt lat="43.7804" lon="6.39">
        <ele>926.1</ele>
        <time>2021-09-07T07:19:23.000Z</time>
      </trkpt>
      <trkpt lat="43.78048" lon="6.39017">
        <ele>927</ele>
        <time>2021-09-07T07:19:28.000Z</time>
      </trkpt>
      <trkpt lat="43.78044" lon="6.3904">
        <ele>928.1</ele>
        <time>2021-09-07T07:19:33.000Z</time>
      </trkpt>
      <trkpt lat="43.78043" lon="6.3906">
        <ele>928.7</ele>
        <time>2021-09-07T07:19:38.000Z</time>
      </trkpt>
      <trkpt lat="43.78042" lon="6.39064">
        <ele>928.9</ele>
        <time>2021-09-07T07:19:43.000Z</time>
      </trkpt>
      <trkpt lat="43.78043" lon="6.39063">
        <ele>929.2</ele>
        <time>2021-09-07T07:19:48.000Z</time>
      </trkpt>
      <trkpt lat="43.78043" lon="6.39063">
        <ele>928.9</ele>
        <time>2021-09-07T07:19:51.000Z</time>
      </trkpt>
      <trkpt lat="43.78043" lon="6.39063">
        <ele>928.7</ele>
        <time>2021-09-07T07:19:56.000Z</time>
      </trkpt>
      <trkpt lat="43.78043" lon="6.39062">
        <ele>928.8</ele>
        <time>2021-09-07T07:20:01.000Z</time>
      </trkpt>
      <trkpt lat="43.78043" lon="6.39062">
        <ele>928.6</ele>
        <time>2021-09-07T07:20:06.000Z</time>
      </trkpt>
      <trkpt lat="43.78043" lon="6.39061">
        <ele>928.8</ele>
        <time>2021-09-07T07:20:11.000Z</time>
      </trkpt>
      <trkpt lat="43.78043" lon="6.39061">
        <ele>928.9</ele>
        <time>2021-09-07T07:20:16.000Z</time>
      </trkpt>
      <trkpt lat="43.78042" lon="6.39061">
        <ele>929</ele>
        <time>2021-09-07T07:20:21.000Z</time>
      </trkpt>
      <trkpt lat="43.78042" lon="6.39061">
        <ele>929.3</ele>
        <time>2021-09-07T07:20:26.000Z</time>
      </trkpt>
      <trkpt lat="43.78042" lon="6.3906">
        <ele>929.2</ele>
        <time>2021-09-07T07:20:26.000Z</time>
      </trkpt>
      <trkpt lat="43.78042" lon="6.3906">
        <ele>929.1</ele>
        <time>2021-09-07T07:20:28.000Z</time>
      </trkpt>
      <trkpt lat="43.78041" lon="6.3906">
        <ele>929.2</ele>
        <time>2021-09-07T07:20:29.000Z</time>
      </trkpt>
      <trkpt lat="43.78041" lon="6.3906">
        <ele>928.7</ele>
        <time>2021-09-07T07:20:33.000Z</time>
      </trkpt>
      <trkpt lat="43.78041" lon="6.3906">
        <ele>929.1</ele>
        <time>2021-09-07T07:20:38.000Z</time>
      </trkpt>
      <trkpt lat="43.78041" lon="6.3906">
        <ele>929.2</ele>
        <time>2021-09-07T07:20:43.000Z</time>
      </trkpt>
      <trkpt lat="43.78041" lon="6.3906">
        <ele>929</ele>
        <time>2021-09-07T07:20:48.000Z</time>
      </trkpt>
      <trkpt lat="43.78042" lon="6.3906">
        <ele>929.2</ele>
        <time>2021-09-07T07:20:52.000Z</time>
      </trkpt>
      <trkpt lat="43.78042" lon="6.39059">
        <ele>929.3</ele>
        <time>2021-09-07T07:20:53.000Z</time>
      </trkpt>
      <trkpt lat="43.78042" lon="6.39059">
        <ele>929.2</ele>
        <time>2021-09-07T07:20:56.000Z</time>
      </trkpt>
      <trkpt lat="43.78042" lon="6.39059">
        <ele>929.2</ele>
        <time>2021-09-07T07:20:56.000Z</time>
      </trkpt>
      <trkpt lat="43.78043" lon="6.39059">
        <ele>929.1</ele>
        <time>2021-09-07T07:21:01.000Z</time>
      </trkpt>
      <trkpt lat="43.78043" lon="6.39059">
        <ele>929.2</ele>
        <time>2021-09-07T07:21:06.000Z</time>
      </trkpt>
      <trkpt lat="43.78042" lon="6.39059">
        <ele>929.1</ele>
        <time>2021-09-07T07:21:07.000Z</time>
      </trkpt>
      <trkpt lat="43.78042" lon="6.39058">
        <ele>929.5</ele>
        <time>2021-09-07T07:21:09.000Z</time>
      </trkpt>
      <trkpt lat="43.78042" lon="6.39058">
        <ele>929.3</ele>
        <time>2021-09-07T07:21:14.000Z</time>
      </trkpt>
      <trkpt lat="43.78042" lon="6.39058">
        <ele>929.2</ele>
        <time>2021-09-07T07:21:16.000Z</time>
      </trkpt>
      <trkpt lat="43.78041" lon="6.39059">
        <ele>929</ele>
        <time>2021-09-07T07:21:21.000Z</time>
      </trkpt>
      <trkpt lat="43.7804" lon="6.39057">
        <ele>929.3</ele>
        <time>2021-09-07T07:21:27.000Z</time>
      </trkpt>
      <trkpt lat="43.78039" lon="6.39059">
        <ele>929.3</ele>
        <time>2021-09-07T07:21:29.000Z</time>
      </trkpt>
      <trkpt lat="43.78039" lon="6.39059">
        <ele>929.1</ele>
        <time>2021-09-07T07:21:30.000Z</time>
      </trkpt>
      <trkpt lat="43.78039" lon="6.39059">
        <ele>928.8</ele>
        <time>2021-09-07T07:21:31.000Z</time>
      </trkpt>
      <trkpt lat="43.78039" lon="6.3906">
        <ele>928.8</ele>
        <time>2021-09-07T07:21:34.000Z</time>
      </trkpt>
      <trkpt lat="43.78038" lon="6.39061">
        <ele>928.6</ele>
        <time>2021-09-07T07:21:36.000Z</time>
      </trkpt>
      <trkpt lat="43.78039" lon="6.3906">
        <ele>928.8</ele>
        <time>2021-09-07T07:21:37.000Z</time>
      </trkpt>
      <trkpt lat="43.78035" lon="6.39056">
        <ele>929.1</ele>
        <time>2021-09-07T07:21:42.000Z</time>
      </trkpt>
      <trkpt lat="43.78033" lon="6.39054">
        <ele>928.9</ele>
        <time>2021-09-07T07:21:45.000Z</time>
      </trkpt>
      <trkpt lat="43.78033" lon="6.39054">
        <ele>928.9</ele>
        <time>2021-09-07T07:21:46.000Z</time>
      </trkpt>
      <trkpt lat="43.78034" lon="6.39055">
        <ele>928.9</ele>
        <time>2021-09-07T07:21:47.000Z</time>
      </trkpt>
      <trkpt lat="43.78033" lon="6.39053">
        <ele>929.2</ele>
        <time>2021-09-07T07:21:51.000Z</time>
      </trkpt>
      <trkpt lat="43.78032" lon="6.39052">
        <ele>929</ele>
        <time>2021-09-07T07:21:57.000Z</time>
      </trkpt>
      <trkpt lat="43.78032" lon="6.39051">
        <ele>929.4</ele>
        <time>2021-09-07T07:22:00.000Z</time>
      </trkpt>
      <trkpt lat="43.7803" lon="6.3905">
        <ele>929.6</ele>
        <time>2021-09-07T07:22:02.000Z</time>
      </trkpt>
      <trkpt lat="43.78031" lon="6.3905">
        <ele>929.7</ele>
        <time>2021-09-07T07:22:03.000Z</time>
      </trkpt>
      <trkpt lat="43.7803" lon="6.3905">
        <ele>929.5</ele>
        <time>2021-09-07T07:22:04.000Z</time>
      </trkpt>
      <trkpt lat="43.7803" lon="6.3905">
        <ele>929.7</ele>
        <time>2021-09-07T07:22:07.000Z</time>
      </trkpt>
      <trkpt lat="43.78029" lon="6.39049">
        <ele>929.6</ele>
        <time>2021-09-07T07:22:07.000Z</time>
      </trkpt>
      <trkpt lat="43.78026" lon="6.39045">
        <ele>929.4</ele>
        <time>2021-09-07T07:22:13.000Z</time>
      </trkpt>
      <trkpt lat="43.78024" lon="6.39044">
        <ele>928.9</ele>
        <time>2021-09-07T07:22:18.000Z</time>
      </trkpt>
      <trkpt lat="43.78023" lon="6.39041">
        <ele>929.3</ele>
        <time>2021-09-07T07:22:23.000Z</time>
      </trkpt>
      <trkpt lat="43.78022" lon="6.39036">
        <ele>929.2</ele>
        <time>2021-09-07T07:22:28.000Z</time>
      </trkpt>
      <trkpt lat="43.78023" lon="6.39034">
        <ele>929.1</ele>
        <time>2021-09-07T07:22:32.000Z</time>
      </trkpt>
      <trkpt lat="43.78023" lon="6.39034">
        <ele>929.5</ele>
        <time>2021-09-07T07:22:37.000Z</time>
      </trkpt>
      <trkpt lat="43.78023" lon="6.39034">
        <ele>929.2</ele>
        <time>2021-09-07T07:22:38.000Z</time>
      </trkpt>
      <trkpt lat="43.78021" lon="6.39031">
        <ele>929.4</ele>
        <time>2021-09-07T07:22:43.000Z</time>
      </trkpt>
      <trkpt lat="43.78021" lon="6.3903">
        <ele>929.4</ele>
        <time>2021-09-07T07:22:48.000Z</time>
      </trkpt>
      <trkpt lat="43.7802" lon="6.3903">
        <ele>929.2</ele>
        <time>2021-09-07T07:22:52.000Z</time>
      </trkpt>
      <trkpt lat="43.78017" lon="6.3903">
        <ele>929.3</ele>
        <time>2021-09-07T07:22:57.000Z</time>
      </trkpt>
      <trkpt lat="43.78019" lon="6.39029">
        <ele>929.2</ele>
        <time>2021-09-07T07:22:58.000Z</time>
      </trkpt>
      <trkpt lat="43.78016" lon="6.39031">
        <ele>929.4</ele>
        <time>2021-09-07T07:23:00.000Z</time>
      </trkpt>
      <trkpt lat="43.78016" lon="6.39031">
        <ele>929.4</ele>
        <time>2021-09-07T07:23:03.000Z</time>
      </trkpt>
      <trkpt lat="43.78016" lon="6.39032">
        <ele>929.4</ele>
        <time>2021-09-07T07:23:07.000Z</time>
      </trkpt>
      <trkpt lat="43.78016" lon="6.39032">
        <ele>929.3</ele>
        <time>2021-09-07T07:23:08.000Z</time>
      </trkpt>
      <trkpt lat="43.78016" lon="6.39033">
        <ele>929.4</ele>
        <time>2021-09-07T07:23:10.000Z</time>
      </trkpt>
      <trkpt lat="43.78015" lon="6.39034">
        <ele>929.5</ele>
        <time>2021-09-07T07:23:11.000Z</time>
      </trkpt>
      <trkpt lat="43.78015" lon="6.39034">
        <ele>929.4</ele>
        <time>2021-09-07T07:23:16.000Z</time>
      </trkpt>
      <trkpt lat="43.78014" lon="6.39034">
        <ele>929.4</ele>
        <time>2021-09-07T07:23:18.000Z</time>
      </trkpt>
      <trkpt lat="43.78015" lon="6.39034">
        <ele>929.4</ele>
        <time>2021-09-07T07:23:22.000Z</time>
      </trkpt>
      <trkpt lat="43.78016" lon="6.39034">
        <ele>929.4</ele>
        <time>2021-09-07T07:23:26.000Z</time>
      </trkpt>
      <trkpt lat="43.78016" lon="6.39034">
        <ele>929.2</ele>
        <time>2021-09-07T07:23:31.000Z</time>
      </trkpt>
      <trkpt lat="43.78016" lon="6.39034">
        <ele>929</ele>
        <time>2021-09-07T07:23:33.000Z</time>
      </trkpt>
      <trkpt lat="43.78015" lon="6.39038">
        <ele>929.1</ele>
        <time>2021-09-07T07:23:38.000Z</time>
      </trkpt>
      <trkpt lat="43.78015" lon="6.39037">
        <ele>929</ele>
        <time>2021-09-07T07:23:39.000Z</time>
      </trkpt>
      <trkpt lat="43.78015" lon="6.39038">
        <ele>929</ele>
        <time>2021-09-07T07:23:39.000Z</time>
      </trkpt>
      <trkpt lat="43.78014" lon="6.39038">
        <ele>929.4</ele>
        <time>2021-09-07T07:23:44.000Z</time>
      </trkpt>
      <trkpt lat="43.78014" lon="6.39037">
        <ele>929.3</ele>
        <time>2021-09-07T07:23:46.000Z</time>
      </trkpt>
      <trkpt lat="43.78013" lon="6.39038">
        <ele>929.4</ele>
        <time>2021-09-07T07:23:48.000Z</time>
      </trkpt>
      <trkpt lat="43.78014" lon="6.39037">
        <ele>929.3</ele>
        <time>2021-09-07T07:23:49.000Z</time>
      </trkpt>
      <trkpt lat="43.78012" lon="6.39039">
        <ele>929</ele>
        <time>2021-09-07T07:23:51.000Z</time>
      </trkpt>
      <trkpt lat="43.78012" lon="6.39039">
        <ele>929.4</ele>
        <time>2021-09-07T07:23:53.000Z</time>
      </trkpt>
      <trkpt lat="43.78012" lon="6.39038">
        <ele>929.6</ele>
        <time>2021-09-07T07:24:00.000Z</time>
      </trkpt>
      <trkpt lat="43.78012" lon="6.39037">
        <ele>929.8</ele>
        <time>2021-09-07T07:24:02.000Z</time>
      </trkpt>
      <trkpt lat="43.78012" lon="6.39037">
        <ele>929.4</ele>
        <time>2021-09-07T07:24:04.000Z</time>
      </trkpt>
      <trkpt lat="43.78012" lon="6.39037">
        <ele>929.4</ele>
        <time>2021-09-07T07:24:05.000Z</time>
      </trkpt>
      <trkpt lat="43.78012" lon="6.39037">
        <ele>929.7</ele>
        <time>2021-09-07T07:24:10.000Z</time>
      </trkpt>
      <trkpt lat="43.78012" lon="6.39038">
        <ele>929.4</ele>
        <time>2021-09-07T07:24:11.000Z</time>
      </trkpt>
      <trkpt lat="43.78012" lon="6.39038">
        <ele>929.4</ele>
        <time>2021-09-07T07:24:12.000Z</time>
      </trkpt>
      <trkpt lat="43.78012" lon="6.39037">
        <ele>929.5</ele>
        <time>2021-09-07T07:24:13.000Z</time>
      </trkpt>
      <trkpt lat="43.78012" lon="6.39037">
        <ele>929.6</ele>
        <time>2021-09-07T07:24:14.000Z</time>
      </trkpt>
      <trkpt lat="43.78012" lon="6.39037">
        <ele>929.5</ele>
        <time>2021-09-07T07:24:15.000Z</time>
      </trkpt>
      <trkpt lat="43.78012" lon="6.39036">
        <ele>929.9</ele>
        <time>2021-09-07T07:24:19.000Z</time>
      </trkpt>
      <trkpt lat="43.78012" lon="6.39036">
        <ele>929.7</ele>
        <time>2021-09-07T07:24:20.000Z</time>
      </trkpt>
      <trkpt lat="43.78011" lon="6.39036">
        <ele>929.8</ele>
        <time>2021-09-07T07:24:21.000Z</time>
      </trkpt>
      <trkpt lat="43.78012" lon="6.39036">
        <ele>929.4</ele>
        <time>2021-09-07T07:24:26.000Z</time>
      </trkpt>
      <trkpt lat="43.78012" lon="6.39039">
        <ele>929.3</ele>
        <time>2021-09-07T07:24:29.000Z</time>
      </trkpt>
      <trkpt lat="43.78012" lon="6.39037">
        <ele>929.1</ele>
        <time>2021-09-07T07:24:30.000Z</time>
      </trkpt>
      <trkpt lat="43.78013" lon="6.39042">
        <ele>929</ele>
        <time>2021-09-07T07:24:34.000Z</time>
      </trkpt>
      <trkpt lat="43.78015" lon="6.39044">
        <ele>929.4</ele>
        <time>2021-09-07T07:24:40.000Z</time>
      </trkpt>
      <trkpt lat="43.78015" lon="6.39045">
        <ele>929.6</ele>
        <time>2021-09-07T07:24:40.000Z</time>
      </trkpt>
      <trkpt lat="43.78015" lon="6.39045">
        <ele>929.3</ele>
        <time>2021-09-07T07:24:43.000Z</time>
      </trkpt>
      <trkpt lat="43.78016" lon="6.39046">
        <ele>929.1</ele>
        <time>2021-09-07T07:24:45.000Z</time>
      </trkpt>
      <trkpt lat="43.78021" lon="6.39045">
        <ele>929.4</ele>
        <time>2021-09-07T07:24:49.000Z</time>
      </trkpt>
      <trkpt lat="43.7802" lon="6.39045">
        <ele>929.2</ele>
        <time>2021-09-07T07:24:50.000Z</time>
      </trkpt>
      <trkpt lat="43.78021" lon="6.39044">
        <ele>929.3</ele>
        <time>2021-09-07T07:24:50.000Z</time>
      </trkpt>
      <trkpt lat="43.78023" lon="6.39042">
        <ele>929.6</ele>
        <time>2021-09-07T07:24:54.000Z</time>
      </trkpt>
      <trkpt lat="43.78023" lon="6.39043">
        <ele>929.5</ele>
        <time>2021-09-07T07:24:55.000Z</time>
      </trkpt>
      <trkpt lat="43.78023" lon="6.39042">
        <ele>929.5</ele>
        <time>2021-09-07T07:24:56.000Z</time>
      </trkpt>
      <trkpt lat="43.78025" lon="6.39042">
        <ele>929.4</ele>
        <time>2021-09-07T07:24:57.000Z</time>
      </trkpt>
      <trkpt lat="43.78026" lon="6.3904">
        <ele>929.4</ele>
        <time>2021-09-07T07:24:58.000Z</time>
      </trkpt>
      <trkpt lat="43.78027" lon="6.39037">
        <ele>929.4</ele>
        <time>2021-09-07T07:24:59.000Z</time>
      </trkpt>
      <trkpt lat="43.78025" lon="6.39042">
        <ele>929.4</ele>
        <time>2021-09-07T07:24:59.000Z</time>
      </trkpt>
      <trkpt lat="43.78026" lon="6.39041">
        <ele>929.5</ele>
        <time>2021-09-07T07:25:00.000Z</time>
      </trkpt>
      <trkpt lat="43.78027" lon="6.39039">
        <ele>929.3</ele>
        <time>2021-09-07T07:25:01.000Z</time>
      </trkpt>
      <trkpt lat="43.78027" lon="6.39034">
        <ele>929.5</ele>
        <time>2021-09-07T07:25:02.000Z</time>
      </trkpt>
      <trkpt lat="43.78025" lon="6.39028">
        <ele>930.1</ele>
        <time>2021-09-07T07:25:02.000Z</time>
      </trkpt>
      <trkpt lat="43.78022" lon="6.39022">
        <ele>929.9</ele>
        <time>2021-09-07T07:25:04.000Z</time>
      </trkpt>
      <trkpt lat="43.78021" lon="6.39018">
        <ele>930.2</ele>
        <time>2021-09-07T07:25:05.000Z</time>
      </trkpt>
      <trkpt lat="43.78024" lon="6.39026">
        <ele>929.9</ele>
        <time>2021-09-07T07:25:05.000Z</time>
      </trkpt>
      <trkpt lat="43.78019" lon="6.39014">
        <ele>930.4</ele>
        <time>2021-09-07T07:25:06.000Z</time>
      </trkpt>
      <trkpt lat="43.78018" lon="6.39011">
        <ele>930.5</ele>
        <time>2021-09-07T07:25:07.000Z</time>
      </trkpt>
      <trkpt lat="43.78021" lon="6.39019">
        <ele>930.1</ele>
        <time>2021-09-07T07:25:07.000Z</time>
      </trkpt>
      <trkpt lat="43.7802" lon="6.39015">
        <ele>930.3</ele>
        <time>2021-09-07T07:25:08.000Z</time>
      </trkpt>
      <trkpt lat="43.78014" lon="6.39001">
        <ele>930.7</ele>
        <time>2021-09-07T07:25:10.000Z</time>
      </trkpt>
      <trkpt lat="43.78013" lon="6.39">
        <ele>930.8</ele>
        <time>2021-09-07T07:25:13.000Z</time>
      </trkpt>
      <trkpt lat="43.7801" lon="6.38991">
        <ele>931.2</ele>
        <time>2021-09-07T07:25:13.000Z</time>
      </trkpt>
      <trkpt lat="43.78009" lon="6.38989">
        <ele>931.4</ele>
        <time>2021-09-07T07:25:16.000Z</time>
      </trkpt>
      <trkpt lat="43.78002" lon="6.38977">
        <ele>931.6</ele>
        <time>2021-09-07T07:25:18.000Z</time>
      </trkpt>
      <trkpt lat="43.78" lon="6.38976">
        <ele>931.8</ele>
        <time>2021-09-07T07:25:21.000Z</time>
      </trkpt>
      <trkpt lat="43.77995" lon="6.38965">
        <ele>932.4</ele>
        <time>2021-09-07T07:25:23.000Z</time>
      </trkpt>
      <trkpt lat="43.77994" lon="6.38963">
        <ele>932.6</ele>
        <time>2021-09-07T07:25:26.000Z</time>
      </trkpt>
      <trkpt lat="43.77989" lon="6.3896">
        <ele>932.4</ele>
        <time>2021-09-07T07:25:27.000Z</time>
      </trkpt>
      <trkpt lat="43.77987" lon="6.38959">
        <ele>932.7</ele>
        <time>2021-09-07T07:25:28.000Z</time>
      </trkpt>
      <trkpt lat="43.77988" lon="6.38959">
        <ele>932.5</ele>
        <time>2021-09-07T07:25:30.000Z</time>
      </trkpt>
      <trkpt lat="43.77986" lon="6.38959">
        <ele>933.2</ele>
        <time>2021-09-07T07:25:31.000Z</time>
      </trkpt>
      <trkpt lat="43.77985" lon="6.38954">
        <ele>933.2</ele>
        <time>2021-09-07T07:25:31.000Z</time>
      </trkpt>
      <trkpt lat="43.77984" lon="6.38953">
        <ele>933.2</ele>
        <time>2021-09-07T07:25:34.000Z</time>
      </trkpt>
      <trkpt lat="43.77979" lon="6.3895">
        <ele>933.7</ele>
        <time>2021-09-07T07:25:35.000Z</time>
      </trkpt>
      <trkpt lat="43.77981" lon="6.38949">
        <ele>933.7</ele>
        <time>2021-09-07T07:25:36.000Z</time>
      </trkpt>
      <trkpt lat="43.77979" lon="6.38952">
        <ele>933.8</ele>
        <time>2021-09-07T07:25:36.000Z</time>
      </trkpt>
      <trkpt lat="43.77982" lon="6.38956">
        <ele>933.7</ele>
        <time>2021-09-07T07:25:41.000Z</time>
      </trkpt>
      <trkpt lat="43.77986" lon="6.38961">
        <ele>933</ele>
        <time>2021-09-07T07:25:42.000Z</time>
      </trkpt>
      <trkpt lat="43.77987" lon="6.38963">
        <ele>932.6</ele>
        <time>2021-09-07T07:25:43.000Z</time>
      </trkpt>
      <trkpt lat="43.77987" lon="6.38962">
        <ele>932.9</ele>
        <time>2021-09-07T07:25:45.000Z</time>
      </trkpt>
      <trkpt lat="43.77988" lon="6.38964">
        <ele>932.2</ele>
        <time>2021-09-07T07:25:46.000Z</time>
      </trkpt>
      <trkpt lat="43.77991" lon="6.38967">
        <ele>932.5</ele>
        <time>2021-09-07T07:25:46.000Z</time>
      </trkpt>
      <trkpt lat="43.77993" lon="6.38969">
        <ele>932.3</ele>
        <time>2021-09-07T07:25:48.000Z</time>
      </trkpt>
      <trkpt lat="43.77992" lon="6.38969">
        <ele>932.3</ele>
        <time>2021-09-07T07:25:49.000Z</time>
      </trkpt>
      <trkpt lat="43.77993" lon="6.38965">
        <ele>932.8</ele>
        <time>2021-09-07T07:25:51.000Z</time>
      </trkpt>
      <trkpt lat="43.77993" lon="6.38968">
        <ele>932.5</ele>
        <time>2021-09-07T07:25:51.000Z</time>
      </trkpt>
      <trkpt lat="43.77993" lon="6.38967">
        <ele>932.5</ele>
        <time>2021-09-07T07:25:52.000Z</time>
      </trkpt>
      <trkpt lat="43.77994" lon="6.38965">
        <ele>932.7</ele>
        <time>2021-09-07T07:25:54.000Z</time>
      </trkpt>
      <trkpt lat="43.77994" lon="6.38959">
        <ele>933.3</ele>
        <time>2021-09-07T07:25:56.000Z</time>
      </trkpt>
      <trkpt lat="43.7799" lon="6.38953">
        <ele>933.6</ele>
        <time>2021-09-07T07:25:58.000Z</time>
      </trkpt>
      <trkpt lat="43.77993" lon="6.38957">
        <ele>933.4</ele>
        <time>2021-09-07T07:25:59.000Z</time>
      </trkpt>
      <trkpt lat="43.77985" lon="6.3895">
        <ele>934</ele>
        <time>2021-09-07T07:26:00.000Z</time>
      </trkpt>
      <trkpt lat="43.77988" lon="6.38951">
        <ele>933.6</ele>
        <time>2021-09-07T07:26:01.000Z</time>
      </trkpt>
      <trkpt lat="43.77984" lon="6.38949">
        <ele>934.2</ele>
        <time>2021-09-07T07:26:03.000Z</time>
      </trkpt>
      <trkpt lat="43.77978" lon="6.38942">
        <ele>934.4</ele>
        <time>2021-09-07T07:26:04.000Z</time>
      </trkpt>
      <trkpt lat="43.77977" lon="6.38941">
        <ele>934.6</ele>
        <time>2021-09-07T07:26:07.000Z</time>
      </trkpt>
      <trkpt lat="43.77974" lon="6.38937">
        <ele>935.2</ele>
        <time>2021-09-07T07:26:07.000Z</time>
      </trkpt>
      <trkpt lat="43.7797" lon="6.38933">
        <ele>935.8</ele>
        <time>2021-09-07T07:26:09.000Z</time>
      </trkpt>
      <trkpt lat="43.77972" lon="6.38935">
        <ele>935.5</ele>
        <time>2021-09-07T07:26:10.000Z</time>
      </trkpt>
      <trkpt lat="43.77969" lon="6.38931">
        <ele>935.8</ele>
        <time>2021-09-07T07:26:12.000Z</time>
      </trkpt>
      <trkpt lat="43.77966" lon="6.38926">
        <ele>936.3</ele>
        <time>2021-09-07T07:26:12.000Z</time>
      </trkpt>
      <trkpt lat="43.77964" lon="6.38924">
        <ele>936.5</ele>
        <time>2021-09-07T07:26:13.000Z</time>
      </trkpt>
      <trkpt lat="43.77965" lon="6.38925">
        <ele>936.4</ele>
        <time>2021-09-07T07:26:15.000Z</time>
      </trkpt>
      <trkpt lat="43.77963" lon="6.38922">
        <ele>936.7</ele>
        <time>2021-09-07T07:26:16.000Z</time>
      </trkpt>
      <trkpt lat="43.77959" lon="6.38917">
        <ele>937.4</ele>
        <time>2021-09-07T07:26:16.000Z</time>
      </trkpt>
      <trkpt lat="43.77958" lon="6.38915">
        <ele>937.3</ele>
        <time>2021-09-07T07:26:17.000Z</time>
      </trkpt>
      <trkpt lat="43.77956" lon="6.38913">
        <ele>937.4</ele>
        <time>2021-09-07T07:26:18.000Z</time>
      </trkpt>
      <trkpt lat="43.77955" lon="6.38911">
        <ele>937.3</ele>
        <time>2021-09-07T07:26:19.000Z</time>
      </trkpt>
      <trkpt lat="43.77959" lon="6.38916">
        <ele>937.3</ele>
        <time>2021-09-07T07:26:19.000Z</time>
      </trkpt>
      <trkpt lat="43.77957" lon="6.38914">
        <ele>937.5</ele>
        <time>2021-09-07T07:26:20.000Z</time>
      </trkpt>
      <trkpt lat="43.77951" lon="6.38906">
        <ele>937.5</ele>
        <time>2021-09-07T07:26:21.000Z</time>
      </trkpt>
      <trkpt lat="43.77949" lon="6.38904">
        <ele>937.8</ele>
        <time>2021-09-07T07:26:22.000Z</time>
      </trkpt>
      <trkpt lat="43.7795" lon="6.38905">
        <ele>937.7</ele>
        <time>2021-09-07T07:26:24.000Z</time>
      </trkpt>
      <trkpt lat="43.77948" lon="6.38902">
        <ele>937.9</ele>
        <time>2021-09-07T07:26:25.000Z</time>
      </trkpt>
      <trkpt lat="43.77944" lon="6.38897">
        <ele>938.1</ele>
        <time>2021-09-07T07:26:25.000Z</time>
      </trkpt>
      <trkpt lat="43.77943" lon="6.38895">
        <ele>938.2</ele>
        <time>2021-09-07T07:26:26.000Z</time>
      </trkpt>
      <trkpt lat="43.77941" lon="6.38893">
        <ele>938.7</ele>
        <time>2021-09-07T07:26:27.000Z</time>
      </trkpt>
      <trkpt lat="43.7794" lon="6.38891">
        <ele>938.6</ele>
        <time>2021-09-07T07:26:28.000Z</time>
      </trkpt>
      <trkpt lat="43.77944" lon="6.38896">
        <ele>938.1</ele>
        <time>2021-09-07T07:26:28.000Z</time>
      </trkpt>
      <trkpt lat="43.77942" lon="6.38894">
        <ele>938.5</ele>
        <time>2021-09-07T07:26:29.000Z</time>
      </trkpt>
      <trkpt lat="43.77938" lon="6.38886">
        <ele>939.2</ele>
        <time>2021-09-07T07:26:30.000Z</time>
      </trkpt>
      <trkpt lat="43.77941" lon="6.38892">
        <ele>938.8</ele>
        <time>2021-09-07T07:26:30.000Z</time>
      </trkpt>
      <trkpt lat="43.77939" lon="6.38889">
        <ele>939</ele>
        <time>2021-09-07T07:26:31.000Z</time>
      </trkpt>
      <trkpt lat="43.77937" lon="6.38883">
        <ele>939.3</ele>
        <time>2021-09-07T07:26:33.000Z</time>
      </trkpt>
      <trkpt lat="43.77932" lon="6.38873">
        <ele>940.2</ele>
        <time>2021-09-07T07:26:35.000Z</time>
      </trkpt>
      <trkpt lat="43.77931" lon="6.3887">
        <ele>940.1</ele>
        <time>2021-09-07T07:26:36.000Z</time>
      </trkpt>
      <trkpt lat="43.77931" lon="6.38871">
        <ele>940.1</ele>
        <time>2021-09-07T07:26:38.000Z</time>
      </trkpt>
      <trkpt lat="43.7793" lon="6.38868">
        <ele>940.4</ele>
        <time>2021-09-07T07:26:39.000Z</time>
      </trkpt>
      <trkpt lat="43.77925" lon="6.3886">
        <ele>940.8</ele>
        <time>2021-09-07T07:26:40.000Z</time>
      </trkpt>
      <trkpt lat="43.77924" lon="6.38858">
        <ele>940.9</ele>
        <time>2021-09-07T07:26:43.000Z</time>
      </trkpt>
      <trkpt lat="43.7792" lon="6.38853">
        <ele>941.2</ele>
        <time>2021-09-07T07:26:43.000Z</time>
      </trkpt>
      <trkpt lat="43.77917" lon="6.38847">
        <ele>941.8</ele>
        <time>2021-09-07T07:26:45.000Z</time>
      </trkpt>
      <trkpt lat="43.7792" lon="6.38852">
        <ele>941.3</ele>
        <time>2021-09-07T07:26:46.000Z</time>
      </trkpt>
      <trkpt lat="43.77913" lon="6.38841">
        <ele>942.3</ele>
        <time>2021-09-07T07:26:47.000Z</time>
      </trkpt>
      <trkpt lat="43.77915" lon="6.38844">
        <ele>942</ele>
        <time>2021-09-07T07:26:48.000Z</time>
      </trkpt>
      <trkpt lat="43.77911" lon="6.38837">
        <ele>942.5</ele>
        <time>2021-09-07T07:26:49.000Z</time>
      </trkpt>
      <trkpt lat="43.77913" lon="6.3884">
        <ele>942.3</ele>
        <time>2021-09-07T07:26:50.000Z</time>
      </trkpt>
      <trkpt lat="43.77909" lon="6.38835">
        <ele>942.4</ele>
        <time>2021-09-07T07:26:52.000Z</time>
      </trkpt>
      <trkpt lat="43.77904" lon="6.38825">
        <ele>943.1</ele>
        <time>2021-09-07T07:26:53.000Z</time>
      </trkpt>
      <trkpt lat="43.77904" lon="6.38823">
        <ele>943</ele>
        <time>2021-09-07T07:26:56.000Z</time>
      </trkpt>
      <trkpt lat="43.779" lon="6.38817">
        <ele>943.7</ele>
        <time>2021-09-07T07:26:56.000Z</time>
      </trkpt>
      <trkpt lat="43.77898" lon="6.38815">
        <ele>943.8</ele>
        <time>2021-09-07T07:26:57.000Z</time>
      </trkpt>
      <trkpt lat="43.77897" lon="6.38813">
        <ele>944</ele>
        <time>2021-09-07T07:26:58.000Z</time>
      </trkpt>
      <trkpt lat="43.77899" lon="6.38816">
        <ele>943.7</ele>
        <time>2021-09-07T07:26:59.000Z</time>
      </trkpt>
      <trkpt lat="43.77895" lon="6.38808">
        <ele>944.4</ele>
        <time>2021-09-07T07:27:00.000Z</time>
      </trkpt>
      <trkpt lat="43.77898" lon="6.38814">
        <ele>943.8</ele>
        <time>2021-09-07T07:27:00.000Z</time>
      </trkpt>
      <trkpt lat="43.77896" lon="6.38811">
        <ele>944.2</ele>
        <time>2021-09-07T07:27:01.000Z</time>
      </trkpt>
      <trkpt lat="43.77894" lon="6.38806">
        <ele>944.5</ele>
        <time>2021-09-07T07:27:03.000Z</time>
      </trkpt>
      <trkpt lat="43.77892" lon="6.388">
        <ele>944.8</ele>
        <time>2021-09-07T07:27:03.000Z</time>
      </trkpt>
      <trkpt lat="43.7789" lon="6.38797">
        <ele>944.9</ele>
        <time>2021-09-07T07:27:04.000Z</time>
      </trkpt>
      <trkpt lat="43.77891" lon="6.38799">
        <ele>945</ele>
        <time>2021-09-07T07:27:06.000Z</time>
      </trkpt>
      <trkpt lat="43.7789" lon="6.38796">
        <ele>945</ele>
        <time>2021-09-07T07:27:07.000Z</time>
      </trkpt>
      <trkpt lat="43.77886" lon="6.38789">
        <ele>945.7</ele>
        <time>2021-09-07T07:27:07.000Z</time>
      </trkpt>
      <trkpt lat="43.77884" lon="6.38786">
        <ele>946</ele>
        <time>2021-09-07T07:27:08.000Z</time>
      </trkpt>
      <trkpt lat="43.77881" lon="6.3878">
        <ele>946.4</ele>
        <time>2021-09-07T07:27:10.000Z</time>
      </trkpt>
      <trkpt lat="43.77885" lon="6.38788">
        <ele>945.8</ele>
        <time>2021-09-07T07:27:10.000Z</time>
      </trkpt>
      <trkpt lat="43.7788" lon="6.38777">
        <ele>946.7</ele>
        <time>2021-09-07T07:27:11.000Z</time>
      </trkpt>
      <trkpt lat="43.77884" lon="6.38785">
        <ele>946.1</ele>
        <time>2021-09-07T07:27:11.000Z</time>
      </trkpt>
      <trkpt lat="43.77879" lon="6.38774">
        <ele>946.4</ele>
        <time>2021-09-07T07:27:12.000Z</time>
      </trkpt>
      <trkpt lat="43.77877" lon="6.38772">
        <ele>946.8</ele>
        <time>2021-09-07T07:27:13.000Z</time>
      </trkpt>
      <trkpt lat="43.77881" lon="6.38779">
        <ele>946.6</ele>
        <time>2021-09-07T07:27:13.000Z</time>
      </trkpt>
      <trkpt lat="43.77879" lon="6.38775">
        <ele>946.4</ele>
        <time>2021-09-07T07:27:14.000Z</time>
      </trkpt>
      <trkpt lat="43.77874" lon="6.38767">
        <ele>947.2</ele>
        <time>2021-09-07T07:27:15.000Z</time>
      </trkpt>
      <trkpt lat="43.77872" lon="6.38765">
        <ele>947.1</ele>
        <time>2021-09-07T07:27:16.000Z</time>
      </trkpt>
      <trkpt lat="43.7787" lon="6.38763">
        <ele>947.5</ele>
        <time>2021-09-07T07:27:17.000Z</time>
      </trkpt>
      <trkpt lat="43.77868" lon="6.3876">
        <ele>948.1</ele>
        <time>2021-09-07T07:27:18.000Z</time>
      </trkpt>
      <trkpt lat="43.77873" lon="6.38765">
        <ele>947.1</ele>
        <time>2021-09-07T07:27:18.000Z</time>
      </trkpt>
      <trkpt lat="43.77871" lon="6.38763">
        <ele>947.3</ele>
        <time>2021-09-07T07:27:19.000Z</time>
      </trkpt>
      <trkpt lat="43.77867" lon="6.38754">
        <ele>948.3</ele>
        <time>2021-09-07T07:27:20.000Z</time>
      </trkpt>
      <trkpt lat="43.77869" lon="6.38761">
        <ele>947.9</ele>
        <time>2021-09-07T07:27:20.000Z</time>
      </trkpt>
      <trkpt lat="43.77867" lon="6.38758">
        <ele>948.2</ele>
        <time>2021-09-07T07:27:21.000Z</time>
      </trkpt>
      <trkpt lat="43.77866" lon="6.38752">
        <ele>948.3</ele>
        <time>2021-09-07T07:27:23.000Z</time>
      </trkpt>
      <trkpt lat="43.77863" lon="6.38744">
        <ele>948.6</ele>
        <time>2021-09-07T07:27:23.000Z</time>
      </trkpt>
      <trkpt lat="43.77859" lon="6.3874">
        <ele>949.3</ele>
        <time>2021-09-07T07:27:25.000Z</time>
      </trkpt>
      <trkpt lat="43.77857" lon="6.38738">
        <ele>949.5</ele>
        <time>2021-09-07T07:27:26.000Z</time>
      </trkpt>
      <trkpt lat="43.77861" lon="6.38742">
        <ele>948.9</ele>
        <time>2021-09-07T07:27:26.000Z</time>
      </trkpt>
      <trkpt lat="43.77854" lon="6.38733">
        <ele>949.7</ele>
        <time>2021-09-07T07:27:28.000Z</time>
      </trkpt>
      <trkpt lat="43.77858" lon="6.38739">
        <ele>949.5</ele>
        <time>2021-09-07T07:27:28.000Z</time>
      </trkpt>
      <trkpt lat="43.77856" lon="6.38736">
        <ele>949.3</ele>
        <time>2021-09-07T07:27:29.000Z</time>
      </trkpt>
      <trkpt lat="43.77853" lon="6.38731">
        <ele>949.6</ele>
        <time>2021-09-07T07:27:31.000Z</time>
      </trkpt>
      <trkpt lat="43.77851" lon="6.38723">
        <ele>950.6</ele>
        <time>2021-09-07T07:27:31.000Z</time>
      </trkpt>
      <trkpt lat="43.7785" lon="6.38716">
        <ele>950.9</ele>
        <time>2021-09-07T07:27:33.000Z</time>
      </trkpt>
      <trkpt lat="43.77851" lon="6.3872">
        <ele>950.8</ele>
        <time>2021-09-07T07:27:34.000Z</time>
      </trkpt>
      <trkpt lat="43.77848" lon="6.38712">
        <ele>951.5</ele>
        <time>2021-09-07T07:27:35.000Z</time>
      </trkpt>
      <trkpt lat="43.77849" lon="6.38714">
        <ele>951.2</ele>
        <time>2021-09-07T07:27:36.000Z</time>
      </trkpt>
      <trkpt lat="43.77846" lon="6.38709">
        <ele>951.7</ele>
        <time>2021-09-07T07:27:36.000Z</time>
      </trkpt>
      <trkpt lat="43.77846" lon="6.38709">
        <ele>951.7</ele>
        <time>2021-09-07T07:27:36.000Z</time>
      </trkpt>
      <trkpt lat="43.77842" lon="6.38696">
        <ele>952.8</ele>
        <time>2021-09-07T07:27:41.000Z</time>
      </trkpt>
      <trkpt lat="43.77838" lon="6.38681">
        <ele>954.1</ele>
        <time>2021-09-07T07:27:46.000Z</time>
      </trkpt>
      <trkpt lat="43.77832" lon="6.38665">
        <ele>955.4</ele>
        <time>2021-09-07T07:27:51.000Z</time>
      </trkpt>
      <trkpt lat="43.77827" lon="6.3865">
        <ele>956.1</ele>
        <time>2021-09-07T07:27:56.000Z</time>
      </trkpt>
      <trkpt lat="43.77823" lon="6.38641">
        <ele>956.9</ele>
        <time>2021-09-07T07:27:59.000Z</time>
      </trkpt>
      <trkpt lat="43.7782" lon="6.38635">
        <ele>957.3</ele>
        <time>2021-09-07T07:28:01.000Z</time>
      </trkpt>
      <trkpt lat="43.77823" lon="6.38642">
        <ele>956.7</ele>
        <time>2021-09-07T07:28:01.000Z</time>
      </trkpt>
      <trkpt lat="43.77821" lon="6.38639">
        <ele>957.1</ele>
        <time>2021-09-07T07:28:02.000Z</time>
      </trkpt>
      <trkpt lat="43.77819" lon="6.38633">
        <ele>957.5</ele>
        <time>2021-09-07T07:28:04.000Z</time>
      </trkpt>
      <trkpt lat="43.77815" lon="6.38615">
        <ele>958.9</ele>
        <time>2021-09-07T07:28:08.000Z</time>
      </trkpt>
      <trkpt lat="43.77814" lon="6.38612">
        <ele>959</ele>
        <time>2021-09-07T07:28:09.000Z</time>
      </trkpt>
      <trkpt lat="43.77816" lon="6.3862">
        <ele>958.6</ele>
        <time>2021-09-07T07:28:09.000Z</time>
      </trkpt>
      <trkpt lat="43.77813" lon="6.38608">
        <ele>959.3</ele>
        <time>2021-09-07T07:28:10.000Z</time>
      </trkpt>
      <trkpt lat="43.77814" lon="6.38613">
        <ele>959</ele>
        <time>2021-09-07T07:28:11.000Z</time>
      </trkpt>
      <trkpt lat="43.77813" lon="6.38609">
        <ele>959.1</ele>
        <time>2021-09-07T07:28:12.000Z</time>
      </trkpt>
      <trkpt lat="43.77813" lon="6.38606">
        <ele>959.6</ele>
        <time>2021-09-07T07:28:13.000Z</time>
      </trkpt>
      <trkpt lat="43.77811" lon="6.386">
        <ele>960.4</ele>
        <time>2021-09-07T07:28:13.000Z</time>
      </trkpt>
      <trkpt lat="43.77811" lon="6.38597">
        <ele>960.6</ele>
        <time>2021-09-07T07:28:14.000Z</time>
      </trkpt>
      <trkpt lat="43.77809" lon="6.38591">
        <ele>960.9</ele>
        <time>2021-09-07T07:28:16.000Z</time>
      </trkpt>
      <trkpt lat="43.77811" lon="6.38598">
        <ele>960.4</ele>
        <time>2021-09-07T07:28:16.000Z</time>
      </trkpt>
      <trkpt lat="43.77811" lon="6.38596">
        <ele>960.6</ele>
        <time>2021-09-07T07:28:17.000Z</time>
      </trkpt>
      <trkpt lat="43.77808" lon="6.38585">
        <ele>961.4</ele>
        <time>2021-09-07T07:28:18.000Z</time>
      </trkpt>
      <trkpt lat="43.77809" lon="6.38588">
        <ele>961.2</ele>
        <time>2021-09-07T07:28:19.000Z</time>
      </trkpt>
      <trkpt lat="43.77807" lon="6.38579">
        <ele>961.8</ele>
        <time>2021-09-07T07:28:20.000Z</time>
      </trkpt>
      <trkpt lat="43.77807" lon="6.38583">
        <ele>961.6</ele>
        <time>2021-09-07T07:28:21.000Z</time>
      </trkpt>
      <trkpt lat="43.77804" lon="6.38572">
        <ele>962</ele>
        <time>2021-09-07T07:28:22.000Z</time>
      </trkpt>
      <trkpt lat="43.77803" lon="6.38569">
        <ele>962.6</ele>
        <time>2021-09-07T07:28:23.000Z</time>
      </trkpt>
      <trkpt lat="43.77806" lon="6.38576">
        <ele>962</ele>
        <time>2021-09-07T07:28:23.000Z</time>
      </trkpt>
      <trkpt lat="43.77802" lon="6.38565">
        <ele>962.8</ele>
        <time>2021-09-07T07:28:24.000Z</time>
      </trkpt>
      <trkpt lat="43.77804" lon="6.3857">
        <ele>962.3</ele>
        <time>2021-09-07T07:28:25.000Z</time>
      </trkpt>
      <trkpt lat="43.77802" lon="6.38566">
        <ele>962.7</ele>
        <time>2021-09-07T07:28:26.000Z</time>
      </trkpt>
      <trkpt lat="43.77801" lon="6.38563">
        <ele>963</ele>
        <time>2021-09-07T07:28:27.000Z</time>
      </trkpt>
      <trkpt lat="43.77797" lon="6.38555">
        <ele>963.8</ele>
        <time>2021-09-07T07:28:28.000Z</time>
      </trkpt>
      <trkpt lat="43.77796" lon="6.38553">
        <ele>964.2</ele>
        <time>2021-09-07T07:28:29.000Z</time>
      </trkpt>
      <trkpt lat="43.77797" lon="6.38554">
        <ele>964</ele>
        <time>2021-09-07T07:28:31.000Z</time>
      </trkpt>
      <trkpt lat="43.77796" lon="6.38551">
        <ele>964.3</ele>
        <time>2021-09-07T07:28:32.000Z</time>
      </trkpt>
      <trkpt lat="43.77795" lon="6.38545">
        <ele>964.6</ele>
        <time>2021-09-07T07:28:32.000Z</time>
      </trkpt>
      <trkpt lat="43.77794" lon="6.38542">
        <ele>965.1</ele>
        <time>2021-09-07T07:28:33.000Z</time>
      </trkpt>
      <trkpt lat="43.77795" lon="6.38543">
        <ele>964.9</ele>
        <time>2021-09-07T07:28:35.000Z</time>
      </trkpt>
      <trkpt lat="43.77794" lon="6.38541">
        <ele>965.2</ele>
        <time>2021-09-07T07:28:36.000Z</time>
      </trkpt>
      <trkpt lat="43.77789" lon="6.38532">
        <ele>966</ele>
        <time>2021-09-07T07:28:37.000Z</time>
      </trkpt>
      <trkpt lat="43.77789" lon="6.38531">
        <ele>966.1</ele>
        <time>2021-09-07T07:28:40.000Z</time>
      </trkpt>
      <trkpt lat="43.77784" lon="6.38515">
        <ele>967.7</ele>
        <time>2021-09-07T07:28:43.000Z</time>
      </trkpt>
      <trkpt lat="43.77782" lon="6.38512">
        <ele>967.9</ele>
        <time>2021-09-07T07:28:44.000Z</time>
      </trkpt>
      <trkpt lat="43.77781" lon="6.38509">
        <ele>968</ele>
        <time>2021-09-07T07:28:45.000Z</time>
      </trkpt>
      <trkpt lat="43.77784" lon="6.38517">
        <ele>967.6</ele>
        <time>2021-09-07T07:28:45.000Z</time>
      </trkpt>
      <trkpt lat="43.77783" lon="6.38514">
        <ele>967.8</ele>
        <time>2021-09-07T07:28:46.000Z</time>
      </trkpt>
      <trkpt lat="43.77781" lon="6.3851">
        <ele>968</ele>
        <time>2021-09-07T07:28:47.000Z</time>
      </trkpt>
      <trkpt lat="43.7778" lon="6.38506">
        <ele>968.2</ele>
        <time>2021-09-07T07:28:48.000Z</time>
      </trkpt>
      <trkpt lat="43.77777" lon="6.38496">
        <ele>969.2</ele>
        <time>2021-09-07T07:28:49.000Z</time>
      </trkpt>
      <trkpt lat="43.77775" lon="6.38494">
        <ele>969.3</ele>
        <time>2021-09-07T07:28:52.000Z</time>
      </trkpt>
      <trkpt lat="43.7777" lon="6.38479">
        <ele>970.6</ele>
        <time>2021-09-07T07:28:55.000Z</time>
      </trkpt>
      <trkpt lat="43.77767" lon="6.38473">
        <ele>971.1</ele>
        <time>2021-09-07T07:28:57.000Z</time>
      </trkpt>
      <trkpt lat="43.77769" lon="6.38478">
        <ele>970.8</ele>
        <time>2021-09-07T07:28:58.000Z</time>
      </trkpt>
      <trkpt lat="43.77767" lon="6.3847">
        <ele>971.2</ele>
        <time>2021-09-07T07:29:00.000Z</time>
      </trkpt>
      <trkpt lat="43.77764" lon="6.38463">
        <ele>971.9</ele>
        <time>2021-09-07T07:29:00.000Z</time>
      </trkpt>
      <trkpt lat="43.77763" lon="6.3846">
        <ele>972.1</ele>
        <time>2021-09-07T07:29:01.000Z</time>
      </trkpt>
      <trkpt lat="43.77762" lon="6.38458">
        <ele>972.2</ele>
        <time>2021-09-07T07:29:02.000Z</time>
      </trkpt>
      <trkpt lat="43.77764" lon="6.38461">
        <ele>972.1</ele>
        <time>2021-09-07T07:29:03.000Z</time>
      </trkpt>
      <trkpt lat="43.77761" lon="6.38452">
        <ele>973.2</ele>
        <time>2021-09-07T07:29:04.000Z</time>
      </trkpt>
      <trkpt lat="43.7776" lon="6.38449">
        <ele>973</ele>
        <time>2021-09-07T07:29:05.000Z</time>
      </trkpt>
      <trkpt lat="43.77759" lon="6.38445">
        <ele>973.3</ele>
        <time>2021-09-07T07:29:06.000Z</time>
      </trkpt>
      <trkpt lat="43.7776" lon="6.3845">
        <ele>973.1</ele>
        <time>2021-09-07T07:29:07.000Z</time>
      </trkpt>
      <trkpt lat="43.77759" lon="6.38446">
        <ele>973.2</ele>
        <time>2021-09-07T07:29:08.000Z</time>
      </trkpt>
      <trkpt lat="43.77757" lon="6.38443">
        <ele>973.6</ele>
        <time>2021-09-07T07:29:09.000Z</time>
      </trkpt>
      <trkpt lat="43.77753" lon="6.38437">
        <ele>974</ele>
        <time>2021-09-07T07:29:09.000Z</time>
      </trkpt>
      <trkpt lat="43.77751" lon="6.38434">
        <ele>974.2</ele>
        <time>2021-09-07T07:29:10.000Z</time>
      </trkpt>
      <trkpt lat="43.7775" lon="6.38427">
        <ele>974.6</ele>
        <time>2021-09-07T07:29:12.000Z</time>
      </trkpt>
      <trkpt lat="43.77752" lon="6.38435">
        <ele>974.1</ele>
        <time>2021-09-07T07:29:12.000Z</time>
      </trkpt>
      <trkpt lat="43.77751" lon="6.38431">
        <ele>974.2</ele>
        <time>2021-09-07T07:29:13.000Z</time>
      </trkpt>
      <trkpt lat="43.77749" lon="6.3842">
        <ele>975.3</ele>
        <time>2021-09-07T07:29:14.000Z</time>
      </trkpt>
      <trkpt lat="43.77748" lon="6.38417">
        <ele>975.6</ele>
        <time>2021-09-07T07:29:15.000Z</time>
      </trkpt>
      <trkpt lat="43.77749" lon="6.38425">
        <ele>974.8</ele>
        <time>2021-09-07T07:29:15.000Z</time>
      </trkpt>
      <trkpt lat="43.77748" lon="6.38419">
        <ele>975.4</ele>
        <time>2021-09-07T07:29:17.000Z</time>
      </trkpt>
      <trkpt lat="43.77748" lon="6.38416">
        <ele>975.6</ele>
        <time>2021-09-07T07:29:18.000Z</time>
      </trkpt>
      <trkpt lat="43.77744" lon="6.38409">
        <ele>976.3</ele>
        <time>2021-09-07T07:29:18.000Z</time>
      </trkpt>
      <trkpt lat="43.77743" lon="6.38408">
        <ele>976.4</ele>
        <time>2021-09-07T07:29:21.000Z</time>
      </trkpt>
      <trkpt lat="43.77739" lon="6.38403">
        <ele>977.2</ele>
        <time>2021-09-07T07:29:21.000Z</time>
      </trkpt>
      <trkpt lat="43.77738" lon="6.384">
        <ele>977.5</ele>
        <time>2021-09-07T07:29:22.000Z</time>
      </trkpt>
      <trkpt lat="43.77739" lon="6.38397">
        <ele>977.8</ele>
        <time>2021-09-07T07:29:23.000Z</time>
      </trkpt>
      <trkpt lat="43.77738" lon="6.38402">
        <ele>977.3</ele>
        <time>2021-09-07T07:29:24.000Z</time>
      </trkpt>
      <trkpt lat="43.77738" lon="6.38399">
        <ele>977.6</ele>
        <time>2021-09-07T07:29:25.000Z</time>
      </trkpt>
      <trkpt lat="43.77739" lon="6.38395">
        <ele>977.9</ele>
        <time>2021-09-07T07:29:26.000Z</time>
      </trkpt>
      <trkpt lat="43.77736" lon="6.38385">
        <ele>978.3</ele>
        <time>2021-09-07T07:29:27.000Z</time>
      </trkpt>
      <trkpt lat="43.77735" lon="6.38382">
        <ele>978.4</ele>
        <time>2021-09-07T07:29:28.000Z</time>
      </trkpt>
      <trkpt lat="43.77733" lon="6.38377">
        <ele>978.8</ele>
        <time>2021-09-07T07:29:30.000Z</time>
      </trkpt>
      <trkpt lat="43.77736" lon="6.38383">
        <ele>978.3</ele>
        <time>2021-09-07T07:29:30.000Z</time>
      </trkpt>
      <trkpt lat="43.77734" lon="6.38381">
        <ele>978.4</ele>
        <time>2021-09-07T07:29:31.000Z</time>
      </trkpt>
      <trkpt lat="43.77733" lon="6.38371">
        <ele>979.2</ele>
        <time>2021-09-07T07:29:32.000Z</time>
      </trkpt>
      <trkpt lat="43.77733" lon="6.38376">
        <ele>978.9</ele>
        <time>2021-09-07T07:29:33.000Z</time>
      </trkpt>
      <trkpt lat="43.77732" lon="6.38368">
        <ele>979.4</ele>
        <time>2021-09-07T07:29:35.000Z</time>
      </trkpt>
      <trkpt lat="43.7773" lon="6.38363">
        <ele>980</ele>
        <time>2021-09-07T07:29:35.000Z</time>
      </trkpt>
      <trkpt lat="43.77727" lon="6.38359">
        <ele>980.7</ele>
        <time>2021-09-07T07:29:37.000Z</time>
      </trkpt>
      <trkpt lat="43.77728" lon="6.38361">
        <ele>980.2</ele>
        <time>2021-09-07T07:29:38.000Z</time>
      </trkpt>
      <trkpt lat="43.77726" lon="6.38356">
        <ele>980.9</ele>
        <time>2021-09-07T07:29:38.000Z</time>
      </trkpt>
      <trkpt lat="43.77726" lon="6.38356">
        <ele>980.9</ele>
        <time>2021-09-07T07:29:38.000Z</time>
      </trkpt>
      <trkpt lat="43.77723" lon="6.38346">
        <ele>981.7</ele>
        <time>2021-09-07T07:29:41.000Z</time>
      </trkpt>
      <trkpt lat="43.77722" lon="6.38343">
        <ele>981.7</ele>
        <time>2021-09-07T07:29:42.000Z</time>
      </trkpt>
      <trkpt lat="43.77721" lon="6.3834">
        <ele>981.7</ele>
        <time>2021-09-07T07:29:43.000Z</time>
      </trkpt>
      <trkpt lat="43.77724" lon="6.38347">
        <ele>981.6</ele>
        <time>2021-09-07T07:29:43.000Z</time>
      </trkpt>
      <trkpt lat="43.77722" lon="6.38344">
        <ele>981.7</ele>
        <time>2021-09-07T07:29:44.000Z</time>
      </trkpt>
      <trkpt lat="43.77719" lon="6.38336">
        <ele>982.4</ele>
        <time>2021-09-07T07:29:45.000Z</time>
      </trkpt>
      <trkpt lat="43.77722" lon="6.38342">
        <ele>981.7</ele>
        <time>2021-09-07T07:29:45.000Z</time>
      </trkpt>
      <trkpt lat="43.7772" lon="6.38338">
        <ele>982</ele>
        <time>2021-09-07T07:29:46.000Z</time>
      </trkpt>
      <trkpt lat="43.77718" lon="6.38335">
        <ele>982.5</ele>
        <time>2021-09-07T07:29:48.000Z</time>
      </trkpt>
      <trkpt lat="43.77715" lon="6.38324">
        <ele>983.4</ele>
        <time>2021-09-07T07:29:50.000Z</time>
      </trkpt>
      <trkpt lat="43.77713" lon="6.38319">
        <ele>983.9</ele>
        <time>2021-09-07T07:29:52.000Z</time>
      </trkpt>
      <trkpt lat="43.77714" lon="6.38322">
        <ele>983.6</ele>
        <time>2021-09-07T07:29:53.000Z</time>
      </trkpt>
      <trkpt lat="43.77712" lon="6.38316">
        <ele>984.1</ele>
        <time>2021-09-07T07:29:53.000Z</time>
      </trkpt>
      <trkpt lat="43.7771" lon="6.38311">
        <ele>984.6</ele>
        <time>2021-09-07T07:29:55.000Z</time>
      </trkpt>
      <trkpt lat="43.77709" lon="6.38309">
        <ele>984.9</ele>
        <time>2021-09-07T07:29:58.000Z</time>
      </trkpt>
      <trkpt lat="43.77707" lon="6.38305">
        <ele>985.3</ele>
        <time>2021-09-07T07:29:58.000Z</time>
      </trkpt>
      <trkpt lat="43.77704" lon="6.38302">
        <ele>985.8</ele>
        <time>2021-09-07T07:30:00.000Z</time>
      </trkpt>
      <trkpt lat="43.77702" lon="6.383">
        <ele>985.9</ele>
        <time>2021-09-07T07:30:01.000Z</time>
      </trkpt>
      <trkpt lat="43.77706" lon="6.38303">
        <ele>985.4</ele>
        <time>2021-09-07T07:30:01.000Z</time>
      </trkpt>
      <trkpt lat="43.77703" lon="6.38301">
        <ele>985.9</ele>
        <time>2021-09-07T07:30:03.000Z</time>
      </trkpt>
      <trkpt lat="43.77701" lon="6.383">
        <ele>986</ele>
        <time>2021-09-07T07:30:04.000Z</time>
      </trkpt>
      <trkpt lat="43.77698" lon="6.38295">
        <ele>986.4</ele>
        <time>2021-09-07T07:30:04.000Z</time>
      </trkpt>
      <trkpt lat="43.77696" lon="6.38291">
        <ele>986.8</ele>
        <time>2021-09-07T07:30:06.000Z</time>
      </trkpt>
      <trkpt lat="43.77694" lon="6.38289">
        <ele>987</ele>
        <time>2021-09-07T07:30:07.000Z</time>
      </trkpt>
      <trkpt lat="43.77697" lon="6.38293">
        <ele>986.7</ele>
        <time>2021-09-07T07:30:07.000Z</time>
      </trkpt>
      <trkpt lat="43.77693" lon="6.38287">
        <ele>987.4</ele>
        <time>2021-09-07T07:30:08.000Z</time>
      </trkpt>
      <trkpt lat="43.77691" lon="6.38285">
        <ele>987.7</ele>
        <time>2021-09-07T07:30:09.000Z</time>
      </trkpt>
      <trkpt lat="43.77695" lon="6.3829">
        <ele>986.7</ele>
        <time>2021-09-07T07:30:09.000Z</time>
      </trkpt>
      <trkpt lat="43.77689" lon="6.38283">
        <ele>987.9</ele>
        <time>2021-09-07T07:30:10.000Z</time>
      </trkpt>
      <trkpt lat="43.77693" lon="6.38287">
        <ele>987.3</ele>
        <time>2021-09-07T07:30:10.000Z</time>
      </trkpt>
      <trkpt lat="43.77688" lon="6.38281">
        <ele>988.1</ele>
        <time>2021-09-07T07:30:11.000Z</time>
      </trkpt>
      <trkpt lat="43.77692" lon="6.38286">
        <ele>987.4</ele>
        <time>2021-09-07T07:30:11.000Z</time>
      </trkpt>
      <trkpt lat="43.77688" lon="6.38278">
        <ele>988.7</ele>
        <time>2021-09-07T07:30:12.000Z</time>
      </trkpt>
      <trkpt lat="43.7769" lon="6.38284">
        <ele>987.9</ele>
        <time>2021-09-07T07:30:12.000Z</time>
      </trkpt>
      <trkpt lat="43.77689" lon="6.38281">
        <ele>988</ele>
        <time>2021-09-07T07:30:13.000Z</time>
      </trkpt>
      <trkpt lat="43.77685" lon="6.38275">
        <ele>989.3</ele>
        <time>2021-09-07T07:30:14.000Z</time>
      </trkpt>
      <trkpt lat="43.77683" lon="6.38272">
        <ele>989.9</ele>
        <time>2021-09-07T07:30:16.000Z</time>
      </trkpt>
      <trkpt lat="43.77681" lon="6.3827">
        <ele>990.2</ele>
        <time>2021-09-07T07:30:17.000Z</time>
      </trkpt>
      <trkpt lat="43.77684" lon="6.38274">
        <ele>989.5</ele>
        <time>2021-09-07T07:30:17.000Z</time>
      </trkpt>
      <trkpt lat="43.77678" lon="6.38266">
        <ele>990.7</ele>
        <time>2021-09-07T07:30:19.000Z</time>
      </trkpt>
      <trkpt lat="43.77682" lon="6.38271">
        <ele>990</ele>
        <time>2021-09-07T07:30:19.000Z</time>
      </trkpt>
      <trkpt lat="43.77677" lon="6.38264">
        <ele>990.9</ele>
        <time>2021-09-07T07:30:20.000Z</time>
      </trkpt>
      <trkpt lat="43.7768" lon="6.38269">
        <ele>990.3</ele>
        <time>2021-09-07T07:30:20.000Z</time>
      </trkpt>
      <trkpt lat="43.77673" lon="6.38259">
        <ele>991.7</ele>
        <time>2021-09-07T07:30:22.000Z</time>
      </trkpt>
      <trkpt lat="43.77677" lon="6.38265">
        <ele>990.8</ele>
        <time>2021-09-07T07:30:22.000Z</time>
      </trkpt>
      <trkpt lat="43.77675" lon="6.38262">
        <ele>991.2</ele>
        <time>2021-09-07T07:30:23.000Z</time>
      </trkpt>
      <trkpt lat="43.77672" lon="6.38256">
        <ele>991.8</ele>
        <time>2021-09-07T07:30:23.000Z</time>
      </trkpt>
      <trkpt lat="43.77667" lon="6.38251">
        <ele>992.5</ele>
        <time>2021-09-07T07:30:26.000Z</time>
      </trkpt>
      <trkpt lat="43.77664" lon="6.38248">
        <ele>992.8</ele>
        <time>2021-09-07T07:30:28.000Z</time>
      </trkpt>
      <trkpt lat="43.77668" lon="6.38252">
        <ele>992.2</ele>
        <time>2021-09-07T07:30:28.000Z</time>
      </trkpt>
      <trkpt lat="43.77666" lon="6.3825">
        <ele>992.6</ele>
        <time>2021-09-07T07:30:29.000Z</time>
      </trkpt>
      <trkpt lat="43.77662" lon="6.38247">
        <ele>992.9</ele>
        <time>2021-09-07T07:30:31.000Z</time>
      </trkpt>
      <trkpt lat="43.7766" lon="6.38242">
        <ele>993.6</ele>
        <time>2021-09-07T07:30:31.000Z</time>
      </trkpt>
      <trkpt lat="43.77657" lon="6.38238">
        <ele>994.3</ele>
        <time>2021-09-07T07:30:33.000Z</time>
      </trkpt>
      <trkpt lat="43.77659" lon="6.38241">
        <ele>993.8</ele>
        <time>2021-09-07T07:30:34.000Z</time>
      </trkpt>
      <trkpt lat="43.77656" lon="6.38237">
        <ele>994.5</ele>
        <time>2021-09-07T07:30:36.000Z</time>
      </trkpt>
      <trkpt lat="43.77652" lon="6.38234">
        <ele>994.8</ele>
        <time>2021-09-07T07:30:36.000Z</time>
      </trkpt>
      <trkpt lat="43.7765" lon="6.38233">
        <ele>995.2</ele>
        <time>2021-09-07T07:30:37.000Z</time>
      </trkpt>
      <trkpt lat="43.77646" lon="6.3823">
        <ele>995.3</ele>
        <time>2021-09-07T07:30:39.000Z</time>
      </trkpt>
      <trkpt lat="43.77651" lon="6.38234">
        <ele>994.9</ele>
        <time>2021-09-07T07:30:39.000Z</time>
      </trkpt>
      <trkpt lat="43.77648" lon="6.38232">
        <ele>995.2</ele>
        <time>2021-09-07T07:30:40.000Z</time>
      </trkpt>
      <trkpt lat="43.77645" lon="6.38227">
        <ele>995.5</ele>
        <time>2021-09-07T07:30:40.000Z</time>
      </trkpt>
      <trkpt lat="43.77644" lon="6.38222">
        <ele>996.1</ele>
        <time>2021-09-07T07:30:42.000Z</time>
      </trkpt>
      <trkpt lat="43.77642" lon="6.38219">
        <ele>996.4</ele>
        <time>2021-09-07T07:30:43.000Z</time>
      </trkpt>
      <trkpt lat="43.77641" lon="6.38216">
        <ele>996.5</ele>
        <time>2021-09-07T07:30:44.000Z</time>
      </trkpt>
      <trkpt lat="43.77643" lon="6.38221">
        <ele>996.1</ele>
        <time>2021-09-07T07:30:45.000Z</time>
      </trkpt>
      <trkpt lat="43.77637" lon="6.38212">
        <ele>997</ele>
        <time>2021-09-07T07:30:46.000Z</time>
      </trkpt>
      <trkpt lat="43.77635" lon="6.3821">
        <ele>997.3</ele>
        <time>2021-09-07T07:30:47.000Z</time>
      </trkpt>
      <trkpt lat="43.77633" lon="6.38208">
        <ele>997.7</ele>
        <time>2021-09-07T07:30:48.000Z</time>
      </trkpt>
      <trkpt lat="43.77632" lon="6.38206">
        <ele>997.9</ele>
        <time>2021-09-07T07:30:49.000Z</time>
      </trkpt>
      <trkpt lat="43.77635" lon="6.38211">
        <ele>997.2</ele>
        <time>2021-09-07T07:30:49.000Z</time>
      </trkpt>
      <trkpt lat="43.7763" lon="6.38204">
        <ele>998</ele>
        <time>2021-09-07T07:30:50.000Z</time>
      </trkpt>
      <trkpt lat="43.77634" lon="6.38209">
        <ele>997.4</ele>
        <time>2021-09-07T07:30:50.000Z</time>
      </trkpt>
      <trkpt lat="43.77632" lon="6.38207">
        <ele>998</ele>
        <time>2021-09-07T07:30:51.000Z</time>
      </trkpt>
      <trkpt lat="43.77625" lon="6.38199">
        <ele>999</ele>
        <time>2021-09-07T07:30:53.000Z</time>
      </trkpt>
      <trkpt lat="43.77623" lon="6.38198">
        <ele>999</ele>
        <time>2021-09-07T07:30:54.000Z</time>
      </trkpt>
      <trkpt lat="43.77624" lon="6.38198">
        <ele>999</ele>
        <time>2021-09-07T07:30:56.000Z</time>
      </trkpt>
      <trkpt lat="43.77621" lon="6.38197">
        <ele>999.2</ele>
        <time>2021-09-07T07:30:57.000Z</time>
      </trkpt>
      <trkpt lat="43.77612" lon="6.38188">
        <ele>1000.2</ele>
        <time>2021-09-07T07:31:00.000Z</time>
      </trkpt>
      <trkpt lat="43.7761" lon="6.38187">
        <ele>1000.3</ele>
        <time>2021-09-07T07:31:01.000Z</time>
      </trkpt>
      <trkpt lat="43.77605" lon="6.38184">
        <ele>1001</ele>
        <time>2021-09-07T07:31:03.000Z</time>
      </trkpt>
      <trkpt lat="43.77603" lon="6.38183">
        <ele>1000.9</ele>
        <time>2021-09-07T07:31:04.000Z</time>
      </trkpt>
      <trkpt lat="43.776" lon="6.38182">
        <ele>1001.3</ele>
        <time>2021-09-07T07:31:06.000Z</time>
      </trkpt>
      <trkpt lat="43.77605" lon="6.38184">
        <ele>1001</ele>
        <time>2021-09-07T07:31:06.000Z</time>
      </trkpt>
      <trkpt lat="43.77602" lon="6.38182">
        <ele>1001.1</ele>
        <time>2021-09-07T07:31:07.000Z</time>
      </trkpt>
      <trkpt lat="43.77596" lon="6.38179">
        <ele>1001.9</ele>
        <time>2021-09-07T07:31:08.000Z</time>
      </trkpt>
      <trkpt lat="43.77598" lon="6.38181">
        <ele>1001.7</ele>
        <time>2021-09-07T07:31:09.000Z</time>
      </trkpt>
      <trkpt lat="43.77594" lon="6.38179">
        <ele>1001.9</ele>
        <time>2021-09-07T07:31:11.000Z</time>
      </trkpt>
      <trkpt lat="43.77591" lon="6.38168">
        <ele>1003.1</ele>
        <time>2021-09-07T07:31:13.000Z</time>
      </trkpt>
      <trkpt lat="43.7759" lon="6.38165">
        <ele>1003.4</ele>
        <time>2021-09-07T07:31:14.000Z</time>
      </trkpt>
      <trkpt lat="43.77588" lon="6.38163">
        <ele>1003.7</ele>
        <time>2021-09-07T07:31:15.000Z</time>
      </trkpt>
      <trkpt lat="43.77586" lon="6.38161">
        <ele>1003.9</ele>
        <time>2021-09-07T07:31:16.000Z</time>
      </trkpt>
      <trkpt lat="43.77584" lon="6.38156">
        <ele>1004.2</ele>
        <time>2021-09-07T07:31:18.000Z</time>
      </trkpt>
      <trkpt lat="43.77583" lon="6.38153">
        <ele>1004.3</ele>
        <time>2021-09-07T07:31:19.000Z</time>
      </trkpt>
      <trkpt lat="43.77583" lon="6.3815">
        <ele>1004.7</ele>
        <time>2021-09-07T07:31:20.000Z</time>
      </trkpt>
      <trkpt lat="43.77583" lon="6.38155">
        <ele>1004.3</ele>
        <time>2021-09-07T07:31:21.000Z</time>
      </trkpt>
      <trkpt lat="43.77583" lon="6.38151">
        <ele>1004.6</ele>
        <time>2021-09-07T07:31:22.000Z</time>
      </trkpt>
      <trkpt lat="43.77582" lon="6.38148">
        <ele>1005</ele>
        <time>2021-09-07T07:31:23.000Z</time>
      </trkpt>
      <trkpt lat="43.7758" lon="6.38142">
        <ele>1005.7</ele>
        <time>2021-09-07T07:31:23.000Z</time>
      </trkpt>
      <trkpt lat="43.77578" lon="6.3814">
        <ele>1006</ele>
        <time>2021-09-07T07:31:26.000Z</time>
      </trkpt>
      <trkpt lat="43.77574" lon="6.38135">
        <ele>1006.5</ele>
        <time>2021-09-07T07:31:26.000Z</time>
      </trkpt>
      <trkpt lat="43.77573" lon="6.38132">
        <ele>1006.8</ele>
        <time>2021-09-07T07:31:30.000Z</time>
      </trkpt>
      <trkpt lat="43.77565" lon="6.38117">
        <ele>1007.8</ele>
        <time>2021-09-07T07:31:32.000Z</time>
      </trkpt>
      <trkpt lat="43.77564" lon="6.38112">
        <ele>1008</ele>
        <time>2021-09-07T07:31:33.000Z</time>
      </trkpt>
      <trkpt lat="43.77561" lon="6.38107">
        <ele>1008.4</ele>
        <time>2021-09-07T07:31:35.000Z</time>
      </trkpt>
      <trkpt lat="43.77559" lon="6.38106">
        <ele>1008.9</ele>
        <time>2021-09-07T07:31:36.000Z</time>
      </trkpt>
      <trkpt lat="43.7756" lon="6.38107">
        <ele>1008.7</ele>
        <time>2021-09-07T07:31:38.000Z</time>
      </trkpt>
      <trkpt lat="43.77558" lon="6.38104">
        <ele>1008.8</ele>
        <time>2021-09-07T07:31:39.000Z</time>
      </trkpt>
      <trkpt lat="43.77557" lon="6.38101">
        <ele>1009.2</ele>
        <time>2021-09-07T07:31:39.000Z</time>
      </trkpt>
      <trkpt lat="43.77556" lon="6.38099">
        <ele>1009.4</ele>
        <time>2021-09-07T07:31:41.000Z</time>
      </trkpt>
      <trkpt lat="43.77555" lon="6.38091">
        <ele>1010.1</ele>
        <time>2021-09-07T07:31:42.000Z</time>
      </trkpt>
      <trkpt lat="43.77554" lon="6.38088">
        <ele>1010.4</ele>
        <time>2021-09-07T07:31:43.000Z</time>
      </trkpt>
      <trkpt lat="43.77553" lon="6.38086">
        <ele>1010.7</ele>
        <time>2021-09-07T07:31:44.000Z</time>
      </trkpt>
      <trkpt lat="43.77552" lon="6.38084">
        <ele>1011</ele>
        <time>2021-09-07T07:31:45.000Z</time>
      </trkpt>
      <trkpt lat="43.77553" lon="6.38085">
        <ele>1010.9</ele>
        <time>2021-09-07T07:31:46.000Z</time>
      </trkpt>
      <trkpt lat="43.77552" lon="6.38081">
        <ele>1011.1</ele>
        <time>2021-09-07T07:31:46.000Z</time>
      </trkpt>
      <trkpt lat="43.77552" lon="6.38079">
        <ele>1011.3</ele>
        <time>2021-09-07T07:31:47.000Z</time>
      </trkpt>
      <trkpt lat="43.77551" lon="6.38076">
        <ele>1011.4</ele>
        <time>2021-09-07T07:31:49.000Z</time>
      </trkpt>
      <trkpt lat="43.77552" lon="6.38068">
        <ele>1012</ele>
        <time>2021-09-07T07:31:50.000Z</time>
      </trkpt>
      <trkpt lat="43.77552" lon="6.38066">
        <ele>1012.3</ele>
        <time>2021-09-07T07:31:52.000Z</time>
      </trkpt>
      <trkpt lat="43.77552" lon="6.38059">
        <ele>1012.7</ele>
        <time>2021-09-07T07:31:53.000Z</time>
      </trkpt>
      <trkpt lat="43.77552" lon="6.38056">
        <ele>1013</ele>
        <time>2021-09-07T07:31:54.000Z</time>
      </trkpt>
      <trkpt lat="43.77553" lon="6.38049">
        <ele>1013.6</ele>
        <time>2021-09-07T07:31:56.000Z</time>
      </trkpt>
      <trkpt lat="43.77553" lon="6.38046">
        <ele>1013.8</ele>
        <time>2021-09-07T07:31:57.000Z</time>
      </trkpt>
      <trkpt lat="43.77552" lon="6.3804">
        <ele>1014.1</ele>
        <time>2021-09-07T07:31:59.000Z</time>
      </trkpt>
      <trkpt lat="43.77552" lon="6.38037">
        <ele>1014.4</ele>
        <time>2021-09-07T07:32:00.000Z</time>
      </trkpt>
      <trkpt lat="43.77552" lon="6.38038">
        <ele>1014.4</ele>
        <time>2021-09-07T07:32:01.000Z</time>
      </trkpt>
      <trkpt lat="43.77551" lon="6.38033">
        <ele>1014.3</ele>
        <time>2021-09-07T07:32:01.000Z</time>
      </trkpt>
      <trkpt lat="43.77548" lon="6.38025">
        <ele>1014.8</ele>
        <time>2021-09-07T07:32:05.000Z</time>
      </trkpt>
      <trkpt lat="43.77548" lon="6.38023">
        <ele>1015</ele>
        <time>2021-09-07T07:32:06.000Z</time>
      </trkpt>
      <trkpt lat="43.77549" lon="6.38026">
        <ele>1014.8</ele>
        <time>2021-09-07T07:32:06.000Z</time>
      </trkpt>
      <trkpt lat="43.77548" lon="6.38024">
        <ele>1015</ele>
        <time>2021-09-07T07:32:07.000Z</time>
      </trkpt>
      <trkpt lat="43.77547" lon="6.38023">
        <ele>1015.2</ele>
        <time>2021-09-07T07:32:08.000Z</time>
      </trkpt>
      <trkpt lat="43.77546" lon="6.38022">
        <ele>1015.2</ele>
        <time>2021-09-07T07:32:09.000Z</time>
      </trkpt>
      <trkpt lat="43.77545" lon="6.38022">
        <ele>1015.2</ele>
        <time>2021-09-07T07:32:09.000Z</time>
      </trkpt>
      <trkpt lat="43.77544" lon="6.38023">
        <ele>1015.5</ele>
        <time>2021-09-07T07:32:10.000Z</time>
      </trkpt>
      <trkpt lat="43.77547" lon="6.38026">
        <ele>1015</ele>
        <time>2021-09-07T07:32:15.000Z</time>
      </trkpt>
      <trkpt lat="43.77548" lon="6.38027">
        <ele>1014.7</ele>
        <time>2021-09-07T07:32:16.000Z</time>
      </trkpt>
      <trkpt lat="43.77549" lon="6.38028">
        <ele>1014.7</ele>
        <time>2021-09-07T07:32:17.000Z</time>
      </trkpt>
      <trkpt lat="43.77551" lon="6.38031">
        <ele>1013.3</ele>
        <time>2021-09-07T07:32:22.000Z</time>
      </trkpt>
      <trkpt lat="43.77549" lon="6.38027">
        <ele>1012.2</ele>
        <time>2021-09-07T07:32:30.000Z</time>
      </trkpt>
      <trkpt lat="43.77548" lon="6.38026">
        <ele>1012.3</ele>
        <time>2021-09-07T07:32:35.000Z</time>
      </trkpt>
      <trkpt lat="43.77545" lon="6.3802">
        <ele>1013.3</ele>
        <time>2021-09-07T07:32:36.000Z</time>
      </trkpt>
      <trkpt lat="43.77544" lon="6.38024">
        <ele>1014.5</ele>
        <time>2021-09-07T07:32:41.000Z</time>
      </trkpt>
      <trkpt lat="43.77547" lon="6.38024">
        <ele>1014.6</ele>
        <time>2021-09-07T07:32:43.000Z</time>
      </trkpt>
      <trkpt lat="43.77547" lon="6.38021">
        <ele>1015.4</ele>
        <time>2021-09-07T07:32:44.000Z</time>
      </trkpt>
      <trkpt lat="43.77547" lon="6.38022">
        <ele>1015.2</ele>
        <time>2021-09-07T07:32:45.000Z</time>
      </trkpt>
      <trkpt lat="43.77546" lon="6.38017">
        <ele>1015.1</ele>
        <time>2021-09-07T07:32:45.000Z</time>
      </trkpt>
      <trkpt lat="43.77541" lon="6.38012">
        <ele>1015.5</ele>
        <time>2021-09-07T07:32:50.000Z</time>
      </trkpt>
      <trkpt lat="43.77533" lon="6.38011">
        <ele>1016</ele>
        <time>2021-09-07T07:32:55.000Z</time>
      </trkpt>
      <trkpt lat="43.77535" lon="6.38016">
        <ele>1015.5</ele>
        <time>2021-09-07T07:33:00.000Z</time>
      </trkpt>
      <trkpt lat="43.77545" lon="6.38022">
        <ele>1014.7</ele>
        <time>2021-09-07T07:33:05.000Z</time>
      </trkpt>
      <trkpt lat="43.77545" lon="6.38016">
        <ele>1014.7</ele>
        <time>2021-09-07T07:33:10.000Z</time>
      </trkpt>
      <trkpt lat="43.77538" lon="6.38011">
        <ele>1015.1</ele>
        <time>2021-09-07T07:33:15.000Z</time>
      </trkpt>
      <trkpt lat="43.77531" lon="6.38014">
        <ele>1015.6</ele>
        <time>2021-09-07T07:33:20.000Z</time>
      </trkpt>
      <trkpt lat="43.77523" lon="6.38019">
        <ele>1016.1</ele>
        <time>2021-09-07T07:33:25.000Z</time>
      </trkpt>
      <trkpt lat="43.7752" lon="6.38025">
        <ele>1016.6</ele>
        <time>2021-09-07T07:33:30.000Z</time>
      </trkpt>
      <trkpt lat="43.77521" lon="6.3802">
        <ele>1015.9</ele>
        <time>2021-09-07T07:33:35.000Z</time>
      </trkpt>
      <trkpt lat="43.77524" lon="6.38019">
        <ele>1015.8</ele>
        <time>2021-09-07T07:33:37.000Z</time>
      </trkpt>
      <trkpt lat="43.77525" lon="6.38018">
        <ele>1015.6</ele>
        <time>2021-09-07T07:33:38.000Z</time>
      </trkpt>
      <trkpt lat="43.77531" lon="6.38017">
        <ele>1014.8</ele>
        <time>2021-09-07T07:33:43.000Z</time>
      </trkpt>
      <trkpt lat="43.77536" lon="6.3802">
        <ele>1014.6</ele>
        <time>2021-09-07T07:33:47.000Z</time>
      </trkpt>
      <trkpt lat="43.77535" lon="6.38019">
        <ele>1014.6</ele>
        <time>2021-09-07T07:33:48.000Z</time>
      </trkpt>
      <trkpt lat="43.77537" lon="6.38022">
        <ele>1014.4</ele>
        <time>2021-09-07T07:33:48.000Z</time>
      </trkpt>
      <trkpt lat="43.77543" lon="6.38018">
        <ele>1014.4</ele>
        <time>2021-09-07T07:33:53.000Z</time>
      </trkpt>
      <trkpt lat="43.77538" lon="6.38017">
        <ele>1014.7</ele>
        <time>2021-09-07T07:33:58.000Z</time>
      </trkpt>
      <trkpt lat="43.77532" lon="6.38015">
        <ele>1015.3</ele>
        <time>2021-09-07T07:34:03.000Z</time>
      </trkpt>
      <trkpt lat="43.77526" lon="6.38019">
        <ele>1016</ele>
        <time>2021-09-07T07:34:08.000Z</time>
      </trkpt>
      <trkpt lat="43.77529" lon="6.3802">
        <ele>1015.5</ele>
        <time>2021-09-07T07:34:13.000Z</time>
      </trkpt>
      <trkpt lat="43.77533" lon="6.38017">
        <ele>1014.9</ele>
        <time>2021-09-07T07:34:18.000Z</time>
      </trkpt>
      <trkpt lat="43.7754" lon="6.38026">
        <ele>1014.1</ele>
        <time>2021-09-07T07:34:23.000Z</time>
      </trkpt>
      <trkpt lat="43.77546" lon="6.38028">
        <ele>1014.1</ele>
        <time>2021-09-07T07:34:28.000Z</time>
      </trkpt>
      <trkpt lat="43.77545" lon="6.3802">
        <ele>1014.4</ele>
        <time>2021-09-07T07:34:33.000Z</time>
      </trkpt>
      <trkpt lat="43.77546" lon="6.38022">
        <ele>1014.2</ele>
        <time>2021-09-07T07:34:34.000Z</time>
      </trkpt>
      <trkpt lat="43.77537" lon="6.38015">
        <ele>1015.3</ele>
        <time>2021-09-07T07:34:39.000Z</time>
      </trkpt>
      <trkpt lat="43.7753" lon="6.38016">
        <ele>1016.1</ele>
        <time>2021-09-07T07:34:44.000Z</time>
      </trkpt>
      <trkpt lat="43.77525" lon="6.3802">
        <ele>1016.5</ele>
        <time>2021-09-07T07:34:49.000Z</time>
      </trkpt>
      <trkpt lat="43.77525" lon="6.3802">
        <ele>1016.5</ele>
        <time>2021-09-07T07:34:50.000Z</time>
      </trkpt>
      <trkpt lat="43.77525" lon="6.38019">
        <ele>1016.2</ele>
        <time>2021-09-07T07:34:51.000Z</time>
      </trkpt>
      <trkpt lat="43.77531" lon="6.38016">
        <ele>1015.7</ele>
        <time>2021-09-07T07:34:56.000Z</time>
      </trkpt>
      <trkpt lat="43.7754" lon="6.38021">
        <ele>1015</ele>
        <time>2021-09-07T07:35:01.000Z</time>
      </trkpt>
      <trkpt lat="43.77543" lon="6.38014">
        <ele>1015.1</ele>
        <time>2021-09-07T07:35:06.000Z</time>
      </trkpt>
      <trkpt lat="43.77537" lon="6.38013">
        <ele>1015.6</ele>
        <time>2021-09-07T07:35:11.000Z</time>
      </trkpt>
      <trkpt lat="43.77529" lon="6.38014">
        <ele>1016.3</ele>
        <time>2021-09-07T07:35:16.000Z</time>
      </trkpt>
      <trkpt lat="43.77523" lon="6.38023">
        <ele>1016.6</ele>
        <time>2021-09-07T07:35:21.000Z</time>
      </trkpt>
      <trkpt lat="43.7752" lon="6.3804">
        <ele>1017.1</ele>
        <time>2021-09-07T07:35:26.000Z</time>
      </trkpt>
      <trkpt lat="43.77519" lon="6.38056">
        <ele>1017.8</ele>
        <time>2021-09-07T07:35:31.000Z</time>
      </trkpt>
      <trkpt lat="43.7752" lon="6.38071">
        <ele>1018.3</ele>
        <time>2021-09-07T07:35:36.000Z</time>
      </trkpt>
      <trkpt lat="43.7752" lon="6.38088">
        <ele>1019.1</ele>
        <time>2021-09-07T07:35:41.000Z</time>
      </trkpt>
      <trkpt lat="43.7752" lon="6.38105">
        <ele>1020.1</ele>
        <time>2021-09-07T07:35:46.000Z</time>
      </trkpt>
      <trkpt lat="43.77519" lon="6.38119">
        <ele>1020.7</ele>
        <time>2021-09-07T07:35:51.000Z</time>
      </trkpt>
      <trkpt lat="43.77518" lon="6.38133">
        <ele>1022</ele>
        <time>2021-09-07T07:35:56.000Z</time>
      </trkpt>
      <trkpt lat="43.77515" lon="6.38145">
        <ele>1022.9</ele>
        <time>2021-09-07T07:36:01.000Z</time>
      </trkpt>
      <trkpt lat="43.77514" lon="6.38157">
        <ele>1023.8</ele>
        <time>2021-09-07T07:36:06.000Z</time>
      </trkpt>
      <trkpt lat="43.77512" lon="6.38167">
        <ele>1024.9</ele>
        <time>2021-09-07T07:36:11.000Z</time>
      </trkpt>
      <trkpt lat="43.77512" lon="6.3818">
        <ele>1025.7</ele>
        <time>2021-09-07T07:36:16.000Z</time>
      </trkpt>
      <trkpt lat="43.77513" lon="6.38194">
        <ele>1027</ele>
        <time>2021-09-07T07:36:21.000Z</time>
      </trkpt>
      <trkpt lat="43.77513" lon="6.38208">
        <ele>1028</ele>
        <time>2021-09-07T07:36:26.000Z</time>
      </trkpt>
      <trkpt lat="43.77511" lon="6.3822">
        <ele>1029</ele>
        <time>2021-09-07T07:36:31.000Z</time>
      </trkpt>
      <trkpt lat="43.7751" lon="6.38232">
        <ele>1029.9</ele>
        <time>2021-09-07T07:36:36.000Z</time>
      </trkpt>
      <trkpt lat="43.77509" lon="6.38247">
        <ele>1031.4</ele>
        <time>2021-09-07T07:36:41.000Z</time>
      </trkpt>
      <trkpt lat="43.7751" lon="6.38264">
        <ele>1032.1</ele>
        <time>2021-09-07T07:36:46.000Z</time>
      </trkpt>
      <trkpt lat="43.77511" lon="6.38272">
        <ele>1033</ele>
        <time>2021-09-07T07:36:51.000Z</time>
      </trkpt>
      <trkpt lat="43.77512" lon="6.38282">
        <ele>1033.8</ele>
        <time>2021-09-07T07:36:52.000Z</time>
      </trkpt>
      <trkpt lat="43.77513" lon="6.38285">
        <ele>1034</ele>
        <time>2021-09-07T07:36:53.000Z</time>
      </trkpt>
      <trkpt lat="43.77511" lon="6.38276">
        <ele>1033.3</ele>
        <time>2021-09-07T07:36:53.000Z</time>
      </trkpt>
      <trkpt lat="43.77514" lon="6.38288">
        <ele>1034.3</ele>
        <time>2021-09-07T07:36:54.000Z</time>
      </trkpt>
      <trkpt lat="43.77513" lon="6.38284">
        <ele>1033.9</ele>
        <time>2021-09-07T07:36:55.000Z</time>
      </trkpt>
      <trkpt lat="43.77515" lon="6.38294">
        <ele>1035</ele>
        <time>2021-09-07T07:36:56.000Z</time>
      </trkpt>
      <trkpt lat="43.77516" lon="6.38296">
        <ele>1035.3</ele>
        <time>2021-09-07T07:36:57.000Z</time>
      </trkpt>
      <trkpt lat="43.77517" lon="6.38299">
        <ele>1035.5</ele>
        <time>2021-09-07T07:36:58.000Z</time>
      </trkpt>
      <trkpt lat="43.77518" lon="6.38302">
        <ele>1035.4</ele>
        <time>2021-09-07T07:36:59.000Z</time>
      </trkpt>
      <trkpt lat="43.77516" lon="6.38295">
        <ele>1035</ele>
        <time>2021-09-07T07:36:59.000Z</time>
      </trkpt>
      <trkpt lat="43.77519" lon="6.38305">
        <ele>1035.6</ele>
        <time>2021-09-07T07:37:00.000Z</time>
      </trkpt>
      <trkpt lat="43.77517" lon="6.38298">
        <ele>1035.4</ele>
        <time>2021-09-07T07:37:00.000Z</time>
      </trkpt>
      <trkpt lat="43.77517" lon="6.38301">
        <ele>1035.4</ele>
        <time>2021-09-07T07:37:01.000Z</time>
      </trkpt>
      <trkpt lat="43.77519" lon="6.38304">
        <ele>1035.5</ele>
        <time>2021-09-07T07:37:02.000Z</time>
      </trkpt>
      <trkpt lat="43.77519" lon="6.38307">
        <ele>1035.7</ele>
        <time>2021-09-07T07:37:03.000Z</time>
      </trkpt>
      <trkpt lat="43.77524" lon="6.38317">
        <ele>1036.5</ele>
        <time>2021-09-07T07:37:04.000Z</time>
      </trkpt>
      <trkpt lat="43.77527" lon="6.38324">
        <ele>1037</ele>
        <time>2021-09-07T07:37:06.000Z</time>
      </trkpt>
      <trkpt lat="43.77526" lon="6.3832">
        <ele>1036.6</ele>
        <time>2021-09-07T07:37:07.000Z</time>
      </trkpt>
      <trkpt lat="43.77529" lon="6.38329">
        <ele>1037.4</ele>
        <time>2021-09-07T07:37:08.000Z</time>
      </trkpt>
      <trkpt lat="43.77528" lon="6.38326">
        <ele>1037.1</ele>
        <time>2021-09-07T07:37:09.000Z</time>
      </trkpt>
      <trkpt lat="43.7753" lon="6.38332">
        <ele>1037.5</ele>
        <time>2021-09-07T07:37:09.000Z</time>
      </trkpt>
      <trkpt lat="43.77533" lon="6.38339">
        <ele>1037.9</ele>
        <time>2021-09-07T07:37:12.000Z</time>
      </trkpt>
      <trkpt lat="43.77534" lon="6.38342">
        <ele>1038.2</ele>
        <time>2021-09-07T07:37:13.000Z</time>
      </trkpt>
      <trkpt lat="43.77535" lon="6.38344">
        <ele>1038.5</ele>
        <time>2021-09-07T07:37:14.000Z</time>
      </trkpt>
      <trkpt lat="43.77536" lon="6.38347">
        <ele>1038.6</ele>
        <time>2021-09-07T07:37:15.000Z</time>
      </trkpt>
      <trkpt lat="43.77534" lon="6.3834">
        <ele>1038.1</ele>
        <time>2021-09-07T07:37:15.000Z</time>
      </trkpt>
      <trkpt lat="43.77535" lon="6.38344">
        <ele>1038.4</ele>
        <time>2021-09-07T07:37:16.000Z</time>
      </trkpt>
      <trkpt lat="43.7754" lon="6.38357">
        <ele>1039.1</ele>
        <time>2021-09-07T07:37:18.000Z</time>
      </trkpt>
      <trkpt lat="43.77541" lon="6.3836">
        <ele>1039.3</ele>
        <time>2021-09-07T07:37:19.000Z</time>
      </trkpt>
      <trkpt lat="43.77542" lon="6.38363">
        <ele>1039.5</ele>
        <time>2021-09-07T07:37:20.000Z</time>
      </trkpt>
      <trkpt lat="43.77543" lon="6.38365">
        <ele>1039.8</ele>
        <time>2021-09-07T07:37:21.000Z</time>
      </trkpt>
      <trkpt lat="43.77548" lon="6.38376">
        <ele>1041</ele>
        <time>2021-09-07T07:37:25.000Z</time>
      </trkpt>
      <trkpt lat="43.77548" lon="6.38379">
        <ele>1041.1</ele>
        <time>2021-09-07T07:37:26.000Z</time>
      </trkpt>
      <trkpt lat="43.77547" lon="6.38374">
        <ele>1040.7</ele>
        <time>2021-09-07T07:37:27.000Z</time>
      </trkpt>
      <trkpt lat="43.77549" lon="6.38383">
        <ele>1040.9</ele>
        <time>2021-09-07T07:37:27.000Z</time>
      </trkpt>
      <trkpt lat="43.77549" lon="6.38385">
        <ele>1040.9</ele>
        <time>2021-09-07T07:37:30.000Z</time>
      </trkpt>
      <trkpt lat="43.77547" lon="6.38398">
        <ele>1041.9</ele>
        <time>2021-09-07T07:37:32.000Z</time>
      </trkpt>
      <trkpt lat="43.77545" lon="6.384">
        <ele>1042.1</ele>
        <time>2021-09-07T07:37:33.000Z</time>
      </trkpt>
      <trkpt lat="43.77541" lon="6.38397">
        <ele>1042.7</ele>
        <time>2021-09-07T07:37:35.000Z</time>
      </trkpt>
      <trkpt lat="43.77539" lon="6.38395">
        <ele>1042.8</ele>
        <time>2021-09-07T07:37:36.000Z</time>
      </trkpt>
      <trkpt lat="43.77538" lon="6.38392">
        <ele>1042.7</ele>
        <time>2021-09-07T07:37:37.000Z</time>
      </trkpt>
      <trkpt lat="43.7754" lon="6.38396">
        <ele>1042.8</ele>
        <time>2021-09-07T07:37:38.000Z</time>
      </trkpt>
      <trkpt lat="43.77535" lon="6.38383">
        <ele>1043.4</ele>
        <time>2021-09-07T07:37:40.000Z</time>
      </trkpt>
      <trkpt lat="43.77533" lon="6.38381">
        <ele>1043.5</ele>
        <time>2021-09-07T07:37:41.000Z</time>
      </trkpt>
      <trkpt lat="43.77528" lon="6.38374">
        <ele>1043.7</ele>
        <time>2021-09-07T07:37:45.000Z</time>
      </trkpt>
      <trkpt lat="43.77529" lon="6.38377">
        <ele>1043.8</ele>
        <time>2021-09-07T07:37:46.000Z</time>
      </trkpt>
      <trkpt lat="43.77527" lon="6.38372">
        <ele>1043.7</ele>
        <time>2021-09-07T07:37:46.000Z</time>
      </trkpt>
      <trkpt lat="43.77524" lon="6.38371">
        <ele>1044.1</ele>
        <time>2021-09-07T07:37:51.000Z</time>
      </trkpt>
      <trkpt lat="43.77523" lon="6.38372">
        <ele>1044.2</ele>
        <time>2021-09-07T07:37:56.000Z</time>
      </trkpt>
      <trkpt lat="43.77522" lon="6.38371">
        <ele>1044.5</ele>
        <time>2021-09-07T07:38:00.000Z</time>
      </trkpt>
      <trkpt lat="43.77522" lon="6.38371">
        <ele>1044.8</ele>
        <time>2021-09-07T07:38:01.000Z</time>
      </trkpt>
      <trkpt lat="43.77522" lon="6.38371">
        <ele>1044.9</ele>
        <time>2021-09-07T07:38:04.000Z</time>
      </trkpt>
      <trkpt lat="43.77522" lon="6.3837">
        <ele>1044.6</ele>
        <time>2021-09-07T07:38:05.000Z</time>
      </trkpt>
      <trkpt lat="43.77522" lon="6.3837">
        <ele>1044.1</ele>
        <time>2021-09-07T07:38:07.000Z</time>
      </trkpt>
      <trkpt lat="43.77521" lon="6.3837">
        <ele>1044.2</ele>
        <time>2021-09-07T07:38:08.000Z</time>
      </trkpt>
      <trkpt lat="43.77517" lon="6.38368">
        <ele>1045</ele>
        <time>2021-09-07T07:38:14.000Z</time>
      </trkpt>
      <trkpt lat="43.77517" lon="6.38367">
        <ele>1044.7</ele>
        <time>2021-09-07T07:38:14.000Z</time>
      </trkpt>
      <trkpt lat="43.77517" lon="6.38369">
        <ele>1045.5</ele>
        <time>2021-09-07T07:38:19.000Z</time>
      </trkpt>
      <trkpt lat="43.77517" lon="6.3837">
        <ele>1045.2</ele>
        <time>2021-09-07T07:38:23.000Z</time>
      </trkpt>
      <trkpt lat="43.77517" lon="6.3837">
        <ele>1044.9</ele>
        <time>2021-09-07T07:38:24.000Z</time>
      </trkpt>
      <trkpt lat="43.77516" lon="6.38375">
        <ele>1044.8</ele>
        <time>2021-09-07T07:38:29.000Z</time>
      </trkpt>
      <trkpt lat="43.77514" lon="6.38378">
        <ele>1044.9</ele>
        <time>2021-09-07T07:38:33.000Z</time>
      </trkpt>
      <trkpt lat="43.77515" lon="6.38376">
        <ele>1044.1</ele>
        <time>2021-09-07T07:38:34.000Z</time>
      </trkpt>
      <trkpt lat="43.77513" lon="6.38383">
        <ele>1045.5</ele>
        <time>2021-09-07T07:38:39.000Z</time>
      </trkpt>
      <trkpt lat="43.77513" lon="6.38383">
        <ele>1045.8</ele>
        <time>2021-09-07T07:38:41.000Z</time>
      </trkpt>
      <trkpt lat="43.77513" lon="6.38383">
        <ele>1045.2</ele>
        <time>2021-09-07T07:38:46.000Z</time>
      </trkpt>
      <trkpt lat="43.77514" lon="6.38383">
        <ele>1045.3</ele>
        <time>2021-09-07T07:38:47.000Z</time>
      </trkpt>
      <trkpt lat="43.77515" lon="6.38384">
        <ele>1046</ele>
        <time>2021-09-07T07:38:52.000Z</time>
      </trkpt>
      <trkpt lat="43.77516" lon="6.38384">
        <ele>1045.5</ele>
        <time>2021-09-07T07:38:54.000Z</time>
      </trkpt>
      <trkpt lat="43.77515" lon="6.38384">
        <ele>1046</ele>
        <time>2021-09-07T07:38:55.000Z</time>
      </trkpt>
      <trkpt lat="43.77517" lon="6.38385">
        <ele>1045.4</ele>
        <time>2021-09-07T07:39:00.000Z</time>
      </trkpt>
      <trkpt lat="43.77517" lon="6.38385">
        <ele>1045.2</ele>
        <time>2021-09-07T07:39:02.000Z</time>
      </trkpt>
      <trkpt lat="43.77518" lon="6.38385">
        <ele>1045.2</ele>
        <time>2021-09-07T07:39:07.000Z</time>
      </trkpt>
      <trkpt lat="43.77518" lon="6.38386">
        <ele>1045</ele>
        <time>2021-09-07T07:39:08.000Z</time>
      </trkpt>
      <trkpt lat="43.77518" lon="6.38391">
        <ele>1045.8</ele>
        <time>2021-09-07T07:39:14.000Z</time>
      </trkpt>
      <trkpt lat="43.77518" lon="6.38389">
        <ele>1045.4</ele>
        <time>2021-09-07T07:39:15.000Z</time>
      </trkpt>
      <trkpt lat="43.77517" lon="6.38399">
        <ele>1045.9</ele>
        <time>2021-09-07T07:39:21.000Z</time>
      </trkpt>
      <trkpt lat="43.77517" lon="6.38398">
        <ele>1045.5</ele>
        <time>2021-09-07T07:39:22.000Z</time>
      </trkpt>
      <trkpt lat="43.77515" lon="6.384">
        <ele>1046</ele>
        <time>2021-09-07T07:39:23.000Z</time>
      </trkpt>
      <trkpt lat="43.77517" lon="6.38399">
        <ele>1046.1</ele>
        <time>2021-09-07T07:39:24.000Z</time>
      </trkpt>
      <trkpt lat="43.77515" lon="6.38402">
        <ele>1045.2</ele>
        <time>2021-09-07T07:39:27.000Z</time>
      </trkpt>
      <trkpt lat="43.77514" lon="6.38401">
        <ele>1045.7</ele>
        <time>2021-09-07T07:39:28.000Z</time>
      </trkpt>
      <trkpt lat="43.77514" lon="6.38402">
        <ele>1045.6</ele>
        <time>2021-09-07T07:39:29.000Z</time>
      </trkpt>
      <trkpt lat="43.77515" lon="6.38403">
        <ele>1046.5</ele>
        <time>2021-09-07T07:39:30.000Z</time>
      </trkpt>
      <trkpt lat="43.77515" lon="6.38402">
        <ele>1047</ele>
        <time>2021-09-07T07:39:31.000Z</time>
      </trkpt>
      <trkpt lat="43.77515" lon="6.38403">
        <ele>1046.6</ele>
        <time>2021-09-07T07:39:34.000Z</time>
      </trkpt>
      <trkpt lat="43.77516" lon="6.38403">
        <ele>1046.5</ele>
        <time>2021-09-07T07:39:35.000Z</time>
      </trkpt>
      <trkpt lat="43.77516" lon="6.38404">
        <ele>1046.5</ele>
        <time>2021-09-07T07:39:35.000Z</time>
      </trkpt>
      <trkpt lat="43.77516" lon="6.38405">
        <ele>1045.9</ele>
        <time>2021-09-07T07:39:39.000Z</time>
      </trkpt>
      <trkpt lat="43.77516" lon="6.38405">
        <ele>1045.8</ele>
        <time>2021-09-07T07:39:40.000Z</time>
      </trkpt>
      <trkpt lat="43.77516" lon="6.38405">
        <ele>1045.7</ele>
        <time>2021-09-07T07:39:41.000Z</time>
      </trkpt>
      <trkpt lat="43.77516" lon="6.38405">
        <ele>1045.7</ele>
        <time>2021-09-07T07:39:42.000Z</time>
      </trkpt>
      <trkpt lat="43.77516" lon="6.38405">
        <ele>1045.6</ele>
        <time>2021-09-07T07:39:45.000Z</time>
      </trkpt>
      <trkpt lat="43.77516" lon="6.38405">
        <ele>1046</ele>
        <time>2021-09-07T07:39:51.000Z</time>
      </trkpt>
      <trkpt lat="43.77516" lon="6.38405">
        <ele>1046.3</ele>
        <time>2021-09-07T07:39:56.000Z</time>
      </trkpt>
      <trkpt lat="43.77516" lon="6.38405">
        <ele>1045.7</ele>
        <time>2021-09-07T07:39:58.000Z</time>
      </trkpt>
      <trkpt lat="43.77516" lon="6.38405">
        <ele>1045.8</ele>
        <time>2021-09-07T07:39:59.000Z</time>
      </trkpt>
      <trkpt lat="43.77516" lon="6.38405">
        <ele>1045.9</ele>
        <time>2021-09-07T07:40:00.000Z</time>
      </trkpt>
      <trkpt lat="43.77516" lon="6.38405">
        <ele>1045.8</ele>
        <time>2021-09-07T07:40:01.000Z</time>
      </trkpt>
      <trkpt lat="43.77516" lon="6.38405">
        <ele>1045.9</ele>
        <time>2021-09-07T07:40:02.000Z</time>
      </trkpt>
      <trkpt lat="43.77515" lon="6.38404">
        <ele>1045.5</ele>
        <time>2021-09-07T07:40:06.000Z</time>
      </trkpt>
      <trkpt lat="43.77515" lon="6.38404">
        <ele>1046</ele>
        <time>2021-09-07T07:40:11.000Z</time>
      </trkpt>
      <trkpt lat="43.77515" lon="6.38404">
        <ele>1045.8</ele>
        <time>2021-09-07T07:40:11.000Z</time>
      </trkpt>
      <trkpt lat="43.77515" lon="6.38404">
        <ele>1045.9</ele>
        <time>2021-09-07T07:40:12.000Z</time>
      </trkpt>
      <trkpt lat="43.77515" lon="6.38404">
        <ele>1045.8</ele>
        <time>2021-09-07T07:40:17.000Z</time>
      </trkpt>
      <trkpt lat="43.77514" lon="6.38404">
        <ele>1045.5</ele>
        <time>2021-09-07T07:40:22.000Z</time>
      </trkpt>
      <trkpt lat="43.77515" lon="6.38404">
        <ele>1046.2</ele>
        <time>2021-09-07T07:40:27.000Z</time>
      </trkpt>
      <trkpt lat="43.77515" lon="6.38405">
        <ele>1046.3</ele>
        <time>2021-09-07T07:40:29.000Z</time>
      </trkpt>
      <trkpt lat="43.77515" lon="6.38405">
        <ele>1046.2</ele>
        <time>2021-09-07T07:40:32.000Z</time>
      </trkpt>
      <trkpt lat="43.77515" lon="6.38406">
        <ele>1046.6</ele>
        <time>2021-09-07T07:40:37.000Z</time>
      </trkpt>
      <trkpt lat="43.77515" lon="6.38407">
        <ele>1046.5</ele>
        <time>2021-09-07T07:40:42.000Z</time>
      </trkpt>
      <trkpt lat="43.77516" lon="6.38407">
        <ele>1046.4</ele>
        <time>2021-09-07T07:40:47.000Z</time>
      </trkpt>
      <trkpt lat="43.77516" lon="6.38407">
        <ele>1046.1</ele>
        <time>2021-09-07T07:40:52.000Z</time>
      </trkpt>
      <trkpt lat="43.77515" lon="6.38407">
        <ele>1046.1</ele>
        <time>2021-09-07T07:40:57.000Z</time>
      </trkpt>
      <trkpt lat="43.77515" lon="6.38407">
        <ele>1046.3</ele>
        <time>2021-09-07T07:41:02.000Z</time>
      </trkpt>
      <trkpt lat="43.77516" lon="6.38407">
        <ele>1046.4</ele>
        <time>2021-09-07T07:41:07.000Z</time>
      </trkpt>
      <trkpt lat="43.77516" lon="6.38407">
        <ele>1046.4</ele>
        <time>2021-09-07T07:41:11.000Z</time>
      </trkpt>
      <trkpt lat="43.77516" lon="6.38407">
        <ele>1046.3</ele>
        <time>2021-09-07T07:41:14.000Z</time>
      </trkpt>
      <trkpt lat="43.77515" lon="6.38406">
        <ele>1046.1</ele>
        <time>2021-09-07T07:41:21.000Z</time>
      </trkpt>
      <trkpt lat="43.77515" lon="6.38406">
        <ele>1046.1</ele>
        <time>2021-09-07T07:41:24.000Z</time>
      </trkpt>
      <trkpt lat="43.77515" lon="6.38406">
        <ele>1045.7</ele>
        <time>2021-09-07T07:41:26.000Z</time>
      </trkpt>
      <trkpt lat="43.77515" lon="6.38406">
        <ele>1045.8</ele>
        <time>2021-09-07T07:41:29.000Z</time>
      </trkpt>
      <trkpt lat="43.77515" lon="6.38406">
        <ele>1045.8</ele>
        <time>2021-09-07T07:41:31.000Z</time>
      </trkpt>
      <trkpt lat="43.77514" lon="6.38406">
        <ele>1045.7</ele>
        <time>2021-09-07T07:41:32.000Z</time>
      </trkpt>
      <trkpt lat="43.77514" lon="6.38406">
        <ele>1045.5</ele>
        <time>2021-09-07T07:41:35.000Z</time>
      </trkpt>
      <trkpt lat="43.77515" lon="6.38407">
        <ele>1045.7</ele>
        <time>2021-09-07T07:41:36.000Z</time>
      </trkpt>
      <trkpt lat="43.77516" lon="6.38408">
        <ele>1045.7</ele>
        <time>2021-09-07T07:41:41.000Z</time>
      </trkpt>
      <trkpt lat="43.77516" lon="6.38409">
        <ele>1045.9</ele>
        <time>2021-09-07T07:41:43.000Z</time>
      </trkpt>
      <trkpt lat="43.77517" lon="6.38409">
        <ele>1045.7</ele>
        <time>2021-09-07T07:41:44.000Z</time>
      </trkpt>
      <trkpt lat="43.77516" lon="6.38409">
        <ele>1045.8</ele>
        <time>2021-09-07T07:41:45.000Z</time>
      </trkpt>
      <trkpt lat="43.77517" lon="6.3841">
        <ele>1045.6</ele>
        <time>2021-09-07T07:41:47.000Z</time>
      </trkpt>
      <trkpt lat="43.77517" lon="6.3841">
        <ele>1045.6</ele>
        <time>2021-09-07T07:41:48.000Z</time>
      </trkpt>
      <trkpt lat="43.77517" lon="6.38411">
        <ele>1045.8</ele>
        <time>2021-09-07T07:41:52.000Z</time>
      </trkpt>
      <trkpt lat="43.77517" lon="6.38411">
        <ele>1045.9</ele>
        <time>2021-09-07T07:41:53.000Z</time>
      </trkpt>
      <trkpt lat="43.77517" lon="6.38411">
        <ele>1045.8</ele>
        <time>2021-09-07T07:41:54.000Z</time>
      </trkpt>
      <trkpt lat="43.77517" lon="6.38411">
        <ele>1046.1</ele>
        <time>2021-09-07T07:41:57.000Z</time>
      </trkpt>
      <trkpt lat="43.77517" lon="6.3841">
        <ele>1046</ele>
        <time>2021-09-07T07:41:59.000Z</time>
      </trkpt>
      <trkpt lat="43.77517" lon="6.38411">
        <ele>1046.7</ele>
        <time>2021-09-07T07:41:59.000Z</time>
      </trkpt>
      <trkpt lat="43.77517" lon="6.38411">
        <ele>1046.7</ele>
        <time>2021-09-07T07:41:59.000Z</time>
      </trkpt>
      <trkpt lat="43.77517" lon="6.38411">
        <ele>1046.9</ele>
        <time>2021-09-07T07:42:02.000Z</time>
      </trkpt>
      <trkpt lat="43.77517" lon="6.38411">
        <ele>1046.2</ele>
        <time>2021-09-07T07:42:03.000Z</time>
      </trkpt>
      <trkpt lat="43.77517" lon="6.38411">
        <ele>1046.4</ele>
        <time>2021-09-07T07:42:05.000Z</time>
      </trkpt>
      <trkpt lat="43.77516" lon="6.3841">
        <ele>1046.3</ele>
        <time>2021-09-07T07:42:06.000Z</time>
      </trkpt>
      <trkpt lat="43.77516" lon="6.3841">
        <ele>1046.3</ele>
        <time>2021-09-07T07:42:10.000Z</time>
      </trkpt>
      <trkpt lat="43.77516" lon="6.38409">
        <ele>1046.4</ele>
        <time>2021-09-07T07:42:15.000Z</time>
      </trkpt>
      <trkpt lat="43.77515" lon="6.38408">
        <ele>1046.2</ele>
        <time>2021-09-07T07:42:17.000Z</time>
      </trkpt>
      <trkpt lat="43.77515" lon="6.38408">
        <ele>1046.1</ele>
        <time>2021-09-07T07:42:17.000Z</time>
      </trkpt>
      <trkpt lat="43.77515" lon="6.38408">
        <ele>1046.1</ele>
        <time>2021-09-07T07:42:18.000Z</time>
      </trkpt>
      <trkpt lat="43.77515" lon="6.38407">
        <ele>1046</ele>
        <time>2021-09-07T07:42:19.000Z</time>
      </trkpt>
      <trkpt lat="43.77514" lon="6.38407">
        <ele>1046.3</ele>
        <time>2021-09-07T07:42:24.000Z</time>
      </trkpt>
      <trkpt lat="43.77514" lon="6.38408">
        <ele>1046.2</ele>
        <time>2021-09-07T07:42:31.000Z</time>
      </trkpt>
      <trkpt lat="43.77515" lon="6.38406">
        <ele>1045.9</ele>
        <time>2021-09-07T07:42:33.000Z</time>
      </trkpt>
      <trkpt lat="43.77515" lon="6.38406">
        <ele>1045.9</ele>
        <time>2021-09-07T07:42:35.000Z</time>
      </trkpt>
      <trkpt lat="43.77515" lon="6.38404">
        <ele>1046.2</ele>
        <time>2021-09-07T07:42:35.000Z</time>
      </trkpt>
      <trkpt lat="43.77513" lon="6.38402">
        <ele>1046.3</ele>
        <time>2021-09-07T07:42:40.000Z</time>
      </trkpt>
      <trkpt lat="43.77514" lon="6.384">
        <ele>1046.2</ele>
        <time>2021-09-07T07:42:45.000Z</time>
      </trkpt>
      <trkpt lat="43.77514" lon="6.384">
        <ele>1046.2</ele>
        <time>2021-09-07T07:42:48.000Z</time>
      </trkpt>
      <trkpt lat="43.77513" lon="6.38399">
        <ele>1045.8</ele>
        <time>2021-09-07T07:42:50.000Z</time>
      </trkpt>
      <trkpt lat="43.77513" lon="6.38399">
        <ele>1045.6</ele>
        <time>2021-09-07T07:42:51.000Z</time>
      </trkpt>
      <trkpt lat="43.77513" lon="6.38399">
        <ele>1045.9</ele>
        <time>2021-09-07T07:42:53.000Z</time>
      </trkpt>
      <trkpt lat="43.77513" lon="6.38399">
        <ele>1046</ele>
        <time>2021-09-07T07:42:55.000Z</time>
      </trkpt>
      <trkpt lat="43.77513" lon="6.38399">
        <ele>1045.8</ele>
        <time>2021-09-07T07:42:57.000Z</time>
      </trkpt>
      <trkpt lat="43.77513" lon="6.384">
        <ele>1046</ele>
        <time>2021-09-07T07:43:02.000Z</time>
      </trkpt>
      <trkpt lat="43.77513" lon="6.38399">
        <ele>1045.8</ele>
        <time>2021-09-07T07:43:03.000Z</time>
      </trkpt>
      <trkpt lat="43.77513" lon="6.38399">
        <ele>1046</ele>
        <time>2021-09-07T07:43:05.000Z</time>
      </trkpt>
      <trkpt lat="43.77514" lon="6.38395">
        <ele>1044.9</ele>
        <time>2021-09-07T07:43:08.000Z</time>
      </trkpt>
      <trkpt lat="43.77514" lon="6.38393">
        <ele>1044.9</ele>
        <time>2021-09-07T07:43:09.000Z</time>
      </trkpt>
      <trkpt lat="43.77514" lon="6.38396">
        <ele>1045.1</ele>
        <time>2021-09-07T07:43:09.000Z</time>
      </trkpt>
      <trkpt lat="43.77514" lon="6.38394">
        <ele>1044.9</ele>
        <time>2021-09-07T07:43:11.000Z</time>
      </trkpt>
      <trkpt lat="43.77514" lon="6.38392">
        <ele>1044.9</ele>
        <time>2021-09-07T07:43:12.000Z</time>
      </trkpt>
      <trkpt lat="43.77513" lon="6.38389">
        <ele>1044.6</ele>
        <time>2021-09-07T07:43:12.000Z</time>
      </trkpt>
      <trkpt lat="43.77512" lon="6.38385">
        <ele>1044.6</ele>
        <time>2021-09-07T07:43:13.000Z</time>
      </trkpt>
      <trkpt lat="43.77511" lon="6.38384">
        <ele>1044.7</ele>
        <time>2021-09-07T07:43:14.000Z</time>
      </trkpt>
      <trkpt lat="43.77513" lon="6.38387">
        <ele>1044.6</ele>
        <time>2021-09-07T07:43:15.000Z</time>
      </trkpt>
      <trkpt lat="43.77512" lon="6.38384">
        <ele>1044.7</ele>
        <time>2021-09-07T07:43:16.000Z</time>
      </trkpt>
      <trkpt lat="43.7751" lon="6.38382">
        <ele>1044.7</ele>
        <time>2021-09-07T07:43:17.000Z</time>
      </trkpt>
      <trkpt lat="43.77508" lon="6.38376">
        <ele>1043.9</ele>
        <time>2021-09-07T07:43:19.000Z</time>
      </trkpt>
      <trkpt lat="43.77508" lon="6.38374">
        <ele>1043.6</ele>
        <time>2021-09-07T07:43:20.000Z</time>
      </trkpt>
      <trkpt lat="43.77508" lon="6.38375">
        <ele>1043.7</ele>
        <time>2021-09-07T07:43:22.000Z</time>
      </trkpt>
      <trkpt lat="43.77508" lon="6.38374">
        <ele>1043.4</ele>
        <time>2021-09-07T07:43:23.000Z</time>
      </trkpt>
      <trkpt lat="43.77506" lon="6.38373">
        <ele>1043.4</ele>
        <time>2021-09-07T07:43:24.000Z</time>
      </trkpt>
      <trkpt lat="43.77506" lon="6.38374">
        <ele>1043.3</ele>
        <time>2021-09-07T07:43:28.000Z</time>
      </trkpt>
      <trkpt lat="43.77506" lon="6.38374">
        <ele>1043.5</ele>
        <time>2021-09-07T07:43:28.000Z</time>
      </trkpt>
      <trkpt lat="43.77506" lon="6.38374">
        <ele>1043.9</ele>
        <time>2021-09-07T07:43:31.000Z</time>
      </trkpt>
      <trkpt lat="43.77506" lon="6.38374">
        <ele>1043.8</ele>
        <time>2021-09-07T07:43:36.000Z</time>
      </trkpt>
      <trkpt lat="43.77507" lon="6.38374">
        <ele>1043.5</ele>
        <time>2021-09-07T07:43:41.000Z</time>
      </trkpt>
      <trkpt lat="43.77506" lon="6.38374">
        <ele>1044</ele>
        <time>2021-09-07T07:43:42.000Z</time>
      </trkpt>
      <trkpt lat="43.77507" lon="6.38374">
        <ele>1044.1</ele>
        <time>2021-09-07T07:43:44.000Z</time>
      </trkpt>
      <trkpt lat="43.77507" lon="6.38374">
        <ele>1042.9</ele>
        <time>2021-09-07T07:43:45.000Z</time>
      </trkpt>
      <trkpt lat="43.77508" lon="6.38373">
        <ele>1044</ele>
        <time>2021-09-07T07:43:50.000Z</time>
      </trkpt>
      <trkpt lat="43.77509" lon="6.38373">
        <ele>1043.8</ele>
        <time>2021-09-07T07:43:54.000Z</time>
      </trkpt>
      <trkpt lat="43.77509" lon="6.38373">
        <ele>1044.2</ele>
        <time>2021-09-07T07:43:59.000Z</time>
      </trkpt>
      <trkpt lat="43.77509" lon="6.38372">
        <ele>1044</ele>
        <time>2021-09-07T07:44:00.000Z</time>
      </trkpt>
      <trkpt lat="43.7751" lon="6.38371">
        <ele>1044</ele>
        <time>2021-09-07T07:44:06.000Z</time>
      </trkpt>
      <trkpt lat="43.7751" lon="6.38372">
        <ele>1044.1</ele>
        <time>2021-09-07T07:44:07.000Z</time>
      </trkpt>
      <trkpt lat="43.77511" lon="6.38369">
        <ele>1043.9</ele>
        <time>2021-09-07T07:44:08.000Z</time>
      </trkpt>
      <trkpt lat="43.77511" lon="6.38366">
        <ele>1044</ele>
        <time>2021-09-07T07:44:09.000Z</time>
      </trkpt>
      <trkpt lat="43.77511" lon="6.38371">
        <ele>1043.9</ele>
        <time>2021-09-07T07:44:09.000Z</time>
      </trkpt>
      <trkpt lat="43.7751" lon="6.38364">
        <ele>1044</ele>
        <time>2021-09-07T07:44:10.000Z</time>
      </trkpt>
      <trkpt lat="43.77511" lon="6.3837">
        <ele>1044</ele>
        <time>2021-09-07T07:44:10.000Z</time>
      </trkpt>
      <trkpt lat="43.77511" lon="6.38368">
        <ele>1043.9</ele>
        <time>2021-09-07T07:44:11.000Z</time>
      </trkpt>
      <trkpt lat="43.77508" lon="6.38362">
        <ele>1044.4</ele>
        <time>2021-09-07T07:44:11.000Z</time>
      </trkpt>
      <trkpt lat="43.77503" lon="6.38356">
        <ele>1044.9</ele>
        <time>2021-09-07T07:44:13.000Z</time>
      </trkpt>
      <trkpt lat="43.77506" lon="6.3836">
        <ele>1044.6</ele>
        <time>2021-09-07T07:44:14.000Z</time>
      </trkpt>
      <trkpt lat="43.77498" lon="6.38348">
        <ele>1045.2</ele>
        <time>2021-09-07T07:44:15.000Z</time>
      </trkpt>
      <trkpt lat="43.77502" lon="6.38354">
        <ele>1044.9</ele>
        <time>2021-09-07T07:44:16.000Z</time>
      </trkpt>
      <trkpt lat="43.77495" lon="6.38345">
        <ele>1045.1</ele>
        <time>2021-09-07T07:44:18.000Z</time>
      </trkpt>
      <trkpt lat="43.77489" lon="6.38339">
        <ele>1044.8</ele>
        <time>2021-09-07T07:44:18.000Z</time>
      </trkpt>
      <trkpt lat="43.77488" lon="6.38336">
        <ele>1044.7</ele>
        <time>2021-09-07T07:44:21.000Z</time>
      </trkpt>
      <trkpt lat="43.77475" lon="6.3832">
        <ele>1045</ele>
        <time>2021-09-07T07:44:26.000Z</time>
      </trkpt>
      <trkpt lat="43.77468" lon="6.38309">
        <ele>1045.1</ele>
        <time>2021-09-07T07:44:26.000Z</time>
      </trkpt>
      <trkpt lat="43.77465" lon="6.38304">
        <ele>1045.2</ele>
        <time>2021-09-07T07:44:27.000Z</time>
      </trkpt>
      <trkpt lat="43.77463" lon="6.383">
        <ele>1045.2</ele>
        <time>2021-09-07T07:44:28.000Z</time>
      </trkpt>
      <trkpt lat="43.77466" lon="6.38306">
        <ele>1045.3</ele>
        <time>2021-09-07T07:44:29.000Z</time>
      </trkpt>
      <trkpt lat="43.77461" lon="6.38295">
        <ele>1045.4</ele>
        <time>2021-09-07T07:44:29.000Z</time>
      </trkpt>
      <trkpt lat="43.77459" lon="6.38291">
        <ele>1045.2</ele>
        <time>2021-09-07T07:44:30.000Z</time>
      </trkpt>
      <trkpt lat="43.77458" lon="6.38286">
        <ele>1045.3</ele>
        <time>2021-09-07T07:44:31.000Z</time>
      </trkpt>
      <trkpt lat="43.7746" lon="6.38292">
        <ele>1045.3</ele>
        <time>2021-09-07T07:44:32.000Z</time>
      </trkpt>
      <trkpt lat="43.77458" lon="6.38288">
        <ele>1045.3</ele>
        <time>2021-09-07T07:44:33.000Z</time>
      </trkpt>
      <trkpt lat="43.77457" lon="6.38283">
        <ele>1045.2</ele>
        <time>2021-09-07T07:44:34.000Z</time>
      </trkpt>
      <trkpt lat="43.77454" lon="6.38272">
        <ele>1045.6</ele>
        <time>2021-09-07T07:44:34.000Z</time>
      </trkpt>
      <trkpt lat="43.77453" lon="6.38267">
        <ele>1045.7</ele>
        <time>2021-09-07T07:44:35.000Z</time>
      </trkpt>
      <trkpt lat="43.77452" lon="6.38262">
        <ele>1045.9</ele>
        <time>2021-09-07T07:44:36.000Z</time>
      </trkpt>
      <trkpt lat="43.77451" lon="6.38257">
        <ele>1046</ele>
        <time>2021-09-07T07:44:37.000Z</time>
      </trkpt>
      <trkpt lat="43.77454" lon="6.3827">
        <ele>1045.6</ele>
        <time>2021-09-07T07:44:37.000Z</time>
      </trkpt>
      <trkpt lat="43.77452" lon="6.38264">
        <ele>1045.8</ele>
        <time>2021-09-07T07:44:38.000Z</time>
      </trkpt>
      <trkpt lat="43.77451" lon="6.38252">
        <ele>1046.2</ele>
        <time>2021-09-07T07:44:38.000Z</time>
      </trkpt>
      <trkpt lat="43.77451" lon="6.38248">
        <ele>1046.3</ele>
        <time>2021-09-07T07:44:39.000Z</time>
      </trkpt>
      <trkpt lat="43.77447" lon="6.38225">
        <ele>1047.3</ele>
        <time>2021-09-07T07:44:44.000Z</time>
      </trkpt>
      <trkpt lat="43.77442" lon="6.38204">
        <ele>1048.3</ele>
        <time>2021-09-07T07:44:49.000Z</time>
      </trkpt>
      <trkpt lat="43.77438" lon="6.38186">
        <ele>1049</ele>
        <time>2021-09-07T07:44:54.000Z</time>
      </trkpt>
      <trkpt lat="43.77435" lon="6.38168">
        <ele>1049.8</ele>
        <time>2021-09-07T07:44:59.000Z</time>
      </trkpt>
      <trkpt lat="43.77432" lon="6.3815">
        <ele>1051.2</ele>
        <time>2021-09-07T07:45:04.000Z</time>
      </trkpt>
      <trkpt lat="43.77429" lon="6.38134">
        <ele>1051.7</ele>
        <time>2021-09-07T07:45:08.000Z</time>
      </trkpt>
      <trkpt lat="43.77429" lon="6.3813">
        <ele>1051.9</ele>
        <time>2021-09-07T07:45:09.000Z</time>
      </trkpt>
      <trkpt lat="43.77429" lon="6.38125">
        <ele>1052</ele>
        <time>2021-09-07T07:45:10.000Z</time>
      </trkpt>
      <trkpt lat="43.77429" lon="6.38135">
        <ele>1051.7</ele>
        <time>2021-09-07T07:45:10.000Z</time>
      </trkpt>
      <trkpt lat="43.77428" lon="6.38122">
        <ele>1052.4</ele>
        <time>2021-09-07T07:45:11.000Z</time>
      </trkpt>
      <trkpt lat="43.77429" lon="6.38132">
        <ele>1051.9</ele>
        <time>2021-09-07T07:45:11.000Z</time>
      </trkpt>
      <trkpt lat="43.77427" lon="6.38118">
        <ele>1052.7</ele>
        <time>2021-09-07T07:45:12.000Z</time>
      </trkpt>
      <trkpt lat="43.77429" lon="6.38128">
        <ele>1051.9</ele>
        <time>2021-09-07T07:45:12.000Z</time>
      </trkpt>
      <trkpt lat="43.77428" lon="6.38123">
        <ele>1052.2</ele>
        <time>2021-09-07T07:45:13.000Z</time>
      </trkpt>
      <trkpt lat="43.77423" lon="6.38107">
        <ele>1053.2</ele>
        <time>2021-09-07T07:45:15.000Z</time>
      </trkpt>
      <trkpt lat="43.77423" lon="6.38099">
        <ele>1053.9</ele>
        <time>2021-09-07T07:45:17.000Z</time>
      </trkpt>
      <trkpt lat="43.77423" lon="6.38106">
        <ele>1053.3</ele>
        <time>2021-09-07T07:45:18.000Z</time>
      </trkpt>
      <trkpt lat="43.77422" lon="6.38092">
        <ele>1053.9</ele>
        <time>2021-09-07T07:45:19.000Z</time>
      </trkpt>
      <trkpt lat="43.77423" lon="6.38096">
        <ele>1054</ele>
        <time>2021-09-07T07:45:20.000Z</time>
      </trkpt>
      <trkpt lat="43.77421" lon="6.38089">
        <ele>1053.9</ele>
        <time>2021-09-07T07:45:22.000Z</time>
      </trkpt>
      <trkpt lat="43.77419" lon="6.38078">
        <ele>1054.5</ele>
        <time>2021-09-07T07:45:23.000Z</time>
      </trkpt>
      <trkpt lat="43.77419" lon="6.38076">
        <ele>1054.8</ele>
        <time>2021-09-07T07:45:26.000Z</time>
      </trkpt>
      <trkpt lat="43.77416" lon="6.38069">
        <ele>1055.3</ele>
        <time>2021-09-07T07:45:26.000Z</time>
      </trkpt>
      <trkpt lat="43.77414" lon="6.38063">
        <ele>1056.1</ele>
        <time>2021-09-07T07:45:28.000Z</time>
      </trkpt>
      <trkpt lat="43.77415" lon="6.38067">
        <ele>1055.7</ele>
        <time>2021-09-07T07:45:29.000Z</time>
      </trkpt>
      <trkpt lat="43.77413" lon="6.38061">
        <ele>1056.2</ele>
        <time>2021-09-07T07:45:31.000Z</time>
      </trkpt>
      <trkpt lat="43.7741" lon="6.38052">
        <ele>1057</ele>
        <time>2021-09-07T07:45:32.000Z</time>
      </trkpt>
      <trkpt lat="43.7741" lon="6.38049">
        <ele>1057.2</ele>
        <time>2021-09-07T07:45:33.000Z</time>
      </trkpt>
      <trkpt lat="43.7741" lon="6.3805">
        <ele>1057.1</ele>
        <time>2021-09-07T07:45:35.000Z</time>
      </trkpt>
      <trkpt lat="43.77409" lon="6.38047">
        <ele>1057.3</ele>
        <time>2021-09-07T07:45:36.000Z</time>
      </trkpt>
      <trkpt lat="43.77407" lon="6.38041">
        <ele>1057.8</ele>
        <time>2021-09-07T07:45:36.000Z</time>
      </trkpt>
      <trkpt lat="43.77406" lon="6.38039">
        <ele>1058.2</ele>
        <time>2021-09-07T07:45:37.000Z</time>
      </trkpt>
      <trkpt lat="43.77405" lon="6.38036">
        <ele>1058.3</ele>
        <time>2021-09-07T07:45:38.000Z</time>
      </trkpt>
      <trkpt lat="43.77404" lon="6.38034">
        <ele>1058.5</ele>
        <time>2021-09-07T07:45:39.000Z</time>
      </trkpt>
      <trkpt lat="43.77406" lon="6.3804">
        <ele>1058</ele>
        <time>2021-09-07T07:45:39.000Z</time>
      </trkpt>
      <trkpt lat="43.77403" lon="6.38032">
        <ele>1058.9</ele>
        <time>2021-09-07T07:45:40.000Z</time>
      </trkpt>
      <trkpt lat="43.77405" lon="6.38037">
        <ele>1058.3</ele>
        <time>2021-09-07T07:45:40.000Z</time>
      </trkpt>
      <trkpt lat="43.77405" lon="6.38034">
        <ele>1058.4</ele>
        <time>2021-09-07T07:45:41.000Z</time>
      </trkpt>
      <trkpt lat="43.774" lon="6.38027">
        <ele>1059.4</ele>
        <time>2021-09-07T07:45:42.000Z</time>
      </trkpt>
      <trkpt lat="43.77398" lon="6.38025">
        <ele>1059.6</ele>
        <time>2021-09-07T07:45:43.000Z</time>
      </trkpt>
      <trkpt lat="43.77399" lon="6.38025">
        <ele>1059.5</ele>
        <time>2021-09-07T07:45:45.000Z</time>
      </trkpt>
      <trkpt lat="43.77397" lon="6.38023">
        <ele>1059.7</ele>
        <time>2021-09-07T07:45:46.000Z</time>
      </trkpt>
      <trkpt lat="43.77394" lon="6.38018">
        <ele>1060.4</ele>
        <time>2021-09-07T07:45:46.000Z</time>
      </trkpt>
      <trkpt lat="43.77393" lon="6.38016">
        <ele>1060.5</ele>
        <time>2021-09-07T07:45:47.000Z</time>
      </trkpt>
      <trkpt lat="43.77393" lon="6.38016">
        <ele>1060.4</ele>
        <time>2021-09-07T07:45:49.000Z</time>
      </trkpt>
      <trkpt lat="43.77391" lon="6.38014">
        <ele>1060.5</ele>
        <time>2021-09-07T07:45:50.000Z</time>
      </trkpt>
      <trkpt lat="43.77389" lon="6.3801">
        <ele>1061.2</ele>
        <time>2021-09-07T07:45:50.000Z</time>
      </trkpt>
      <trkpt lat="43.77386" lon="6.38005">
        <ele>1061.6</ele>
        <time>2021-09-07T07:45:52.000Z</time>
      </trkpt>
      <trkpt lat="43.77385" lon="6.38003">
        <ele>1061.5</ele>
        <time>2021-09-07T07:45:53.000Z</time>
      </trkpt>
      <trkpt lat="43.77387" lon="6.38008">
        <ele>1061.4</ele>
        <time>2021-09-07T07:45:53.000Z</time>
      </trkpt>
      <trkpt lat="43.77384" lon="6.38001">
        <ele>1061.8</ele>
        <time>2021-09-07T07:45:54.000Z</time>
      </trkpt>
      <trkpt lat="43.77385" lon="6.38004">
        <ele>1061.5</ele>
        <time>2021-09-07T07:45:55.000Z</time>
      </trkpt>
      <trkpt lat="43.77385" lon="6.38002">
        <ele>1061.7</ele>
        <time>2021-09-07T07:45:56.000Z</time>
      </trkpt>
      <trkpt lat="43.77383" lon="6.37999">
        <ele>1061.9</ele>
        <time>2021-09-07T07:45:57.000Z</time>
      </trkpt>
      <trkpt lat="43.77379" lon="6.37992">
        <ele>1062.6</ele>
        <time>2021-09-07T07:45:58.000Z</time>
      </trkpt>
      <trkpt lat="43.77377" lon="6.3799">
        <ele>1063</ele>
        <time>2021-09-07T07:45:59.000Z</time>
      </trkpt>
      <trkpt lat="43.77375" lon="6.37985">
        <ele>1063.4</ele>
        <time>2021-09-07T07:46:01.000Z</time>
      </trkpt>
      <trkpt lat="43.77378" lon="6.37991">
        <ele>1062.8</ele>
        <time>2021-09-07T07:46:01.000Z</time>
      </trkpt>
      <trkpt lat="43.77376" lon="6.37988">
        <ele>1063.1</ele>
        <time>2021-09-07T07:46:02.000Z</time>
      </trkpt>
      <trkpt lat="43.77374" lon="6.37979">
        <ele>1063.7</ele>
        <time>2021-09-07T07:46:03.000Z</time>
      </trkpt>
      <trkpt lat="43.77375" lon="6.37984">
        <ele>1063.5</ele>
        <time>2021-09-07T07:46:04.000Z</time>
      </trkpt>
      <trkpt lat="43.77373" lon="6.37977">
        <ele>1063.8</ele>
        <time>2021-09-07T07:46:04.000Z</time>
      </trkpt>
      <trkpt lat="43.77372" lon="6.37974">
        <ele>1064</ele>
        <time>2021-09-07T07:46:05.000Z</time>
      </trkpt>
      <trkpt lat="43.77371" lon="6.37973">
        <ele>1064.4</ele>
        <time>2021-09-07T07:46:08.000Z</time>
      </trkpt>
      <trkpt lat="43.7737" lon="6.37968">
        <ele>1065</ele>
        <time>2021-09-07T07:46:08.000Z</time>
      </trkpt>
      <trkpt lat="43.77369" lon="6.37965">
        <ele>1065.3</ele>
        <time>2021-09-07T07:46:09.000Z</time>
      </trkpt>
      <trkpt lat="43.77368" lon="6.37963">
        <ele>1065.6</ele>
        <time>2021-09-07T07:46:10.000Z</time>
      </trkpt>
      <trkpt lat="43.7737" lon="6.37967">
        <ele>1065.2</ele>
        <time>2021-09-07T07:46:11.000Z</time>
      </trkpt>
      <trkpt lat="43.77368" lon="6.37964">
        <ele>1065.4</ele>
        <time>2021-09-07T07:46:12.000Z</time>
      </trkpt>
      <trkpt lat="43.77367" lon="6.37961">
        <ele>1065.9</ele>
        <time>2021-09-07T07:46:13.000Z</time>
      </trkpt>
      <trkpt lat="43.77363" lon="6.37955">
        <ele>1066</ele>
        <time>2021-09-07T07:46:13.000Z</time>
      </trkpt>
      <trkpt lat="43.77362" lon="6.37953">
        <ele>1066.3</ele>
        <time>2021-09-07T07:46:16.000Z</time>
      </trkpt>
      <trkpt lat="43.77355" lon="6.37941">
        <ele>1067.4</ele>
        <time>2021-09-07T07:46:21.000Z</time>
      </trkpt>
      <trkpt lat="43.77347" lon="6.37927">
        <ele>1068.9</ele>
        <time>2021-09-07T07:46:25.000Z</time>
      </trkpt>
      <trkpt lat="43.77349" lon="6.37931">
        <ele>1068.3</ele>
        <time>2021-09-07T07:46:26.000Z</time>
      </trkpt>
      <trkpt lat="43.77344" lon="6.37922">
        <ele>1069.4</ele>
        <time>2021-09-07T07:46:27.000Z</time>
      </trkpt>
      <trkpt lat="43.77346" lon="6.37925">
        <ele>1069.1</ele>
        <time>2021-09-07T07:46:28.000Z</time>
      </trkpt>
      <trkpt lat="43.77341" lon="6.37918">
        <ele>1069.5</ele>
        <time>2021-09-07T07:46:29.000Z</time>
      </trkpt>
      <trkpt lat="43.77339" lon="6.37915">
        <ele>1069.8</ele>
        <time>2021-09-07T07:46:30.000Z</time>
      </trkpt>
      <trkpt lat="43.77343" lon="6.3792">
        <ele>1069.5</ele>
        <time>2021-09-07T07:46:30.000Z</time>
      </trkpt>
      <trkpt lat="43.77338" lon="6.37912">
        <ele>1069.9</ele>
        <time>2021-09-07T07:46:31.000Z</time>
      </trkpt>
      <trkpt lat="43.77337" lon="6.3791">
        <ele>1070.4</ele>
        <time>2021-09-07T07:46:32.000Z</time>
      </trkpt>
      <trkpt lat="43.7734" lon="6.37917">
        <ele>1069.7</ele>
        <time>2021-09-07T07:46:32.000Z</time>
      </trkpt>
      <trkpt lat="43.77339" lon="6.37914">
        <ele>1069.9</ele>
        <time>2021-09-07T07:46:33.000Z</time>
      </trkpt>
      <trkpt lat="43.77338" lon="6.37911">
        <ele>1070</ele>
        <time>2021-09-07T07:46:34.000Z</time>
      </trkpt>
      <trkpt lat="43.77337" lon="6.37908">
        <ele>1070.8</ele>
        <time>2021-09-07T07:46:35.000Z</time>
      </trkpt>
      <trkpt lat="43.77331" lon="6.37902">
        <ele>1071.7</ele>
        <time>2021-09-07T07:46:36.000Z</time>
      </trkpt>
      <trkpt lat="43.77329" lon="6.37895">
        <ele>1072.3</ele>
        <time>2021-09-07T07:46:38.000Z</time>
      </trkpt>
      <trkpt lat="43.7733" lon="6.37899">
        <ele>1071.8</ele>
        <time>2021-09-07T07:46:39.000Z</time>
      </trkpt>
      <trkpt lat="43.77328" lon="6.37893">
        <ele>1072.4</ele>
        <time>2021-09-07T07:46:41.000Z</time>
      </trkpt>
      <trkpt lat="43.77326" lon="6.37887">
        <ele>1072.9</ele>
        <time>2021-09-07T07:46:41.000Z</time>
      </trkpt>
      <trkpt lat="43.77325" lon="6.37884">
        <ele>1073.1</ele>
        <time>2021-09-07T07:46:42.000Z</time>
      </trkpt>
      <trkpt lat="43.77323" lon="6.37882">
        <ele>1073.4</ele>
        <time>2021-09-07T07:46:43.000Z</time>
      </trkpt>
      <trkpt lat="43.77326" lon="6.37886">
        <ele>1073</ele>
        <time>2021-09-07T07:46:44.000Z</time>
      </trkpt>
      <trkpt lat="43.77317" lon="6.37877">
        <ele>1074.3</ele>
        <time>2021-09-07T07:46:46.000Z</time>
      </trkpt>
      <trkpt lat="43.77316" lon="6.37875">
        <ele>1074.4</ele>
        <time>2021-09-07T07:46:49.000Z</time>
      </trkpt>
      <trkpt lat="43.77312" lon="6.37864">
        <ele>1075.5</ele>
        <time>2021-09-07T07:46:51.000Z</time>
      </trkpt>
      <trkpt lat="43.77309" lon="6.37861">
        <ele>1075.7</ele>
        <time>2021-09-07T07:46:53.000Z</time>
      </trkpt>
      <trkpt lat="43.77311" lon="6.37862">
        <ele>1075.7</ele>
        <time>2021-09-07T07:46:54.000Z</time>
      </trkpt>
      <trkpt lat="43.77306" lon="6.37858">
        <ele>1075.9</ele>
        <time>2021-09-07T07:46:55.000Z</time>
      </trkpt>
      <trkpt lat="43.77305" lon="6.37856">
        <ele>1076.2</ele>
        <time>2021-09-07T07:46:56.000Z</time>
      </trkpt>
      <trkpt lat="43.77309" lon="6.37861">
        <ele>1075.7</ele>
        <time>2021-09-07T07:46:56.000Z</time>
      </trkpt>
      <trkpt lat="43.77304" lon="6.37853">
        <ele>1076.4</ele>
        <time>2021-09-07T07:46:57.000Z</time>
      </trkpt>
      <trkpt lat="43.77305" lon="6.37857">
        <ele>1076.1</ele>
        <time>2021-09-07T07:46:58.000Z</time>
      </trkpt>
      <trkpt lat="43.77305" lon="6.37855">
        <ele>1076.3</ele>
        <time>2021-09-07T07:46:59.000Z</time>
      </trkpt>
      <trkpt lat="43.77303" lon="6.37852">
        <ele>1076.5</ele>
        <time>2021-09-07T07:47:00.000Z</time>
      </trkpt>
      <trkpt lat="43.77302" lon="6.37848">
        <ele>1076.7</ele>
        <time>2021-09-07T07:47:00.000Z</time>
      </trkpt>
      <trkpt lat="43.77299" lon="6.37843">
        <ele>1077.1</ele>
        <time>2021-09-07T07:47:02.000Z</time>
      </trkpt>
      <trkpt lat="43.77298" lon="6.3784">
        <ele>1077.3</ele>
        <time>2021-09-07T07:47:03.000Z</time>
      </trkpt>
      <trkpt lat="43.77301" lon="6.37846">
        <ele>1077</ele>
        <time>2021-09-07T07:47:03.000Z</time>
      </trkpt>
      <trkpt lat="43.77299" lon="6.37841">
        <ele>1077.1</ele>
        <time>2021-09-07T07:47:05.000Z</time>
      </trkpt>
      <trkpt lat="43.77297" lon="6.37838">
        <ele>1077.5</ele>
        <time>2021-09-07T07:47:06.000Z</time>
      </trkpt>
      <trkpt lat="43.77294" lon="6.3783">
        <ele>1077.8</ele>
        <time>2021-09-07T07:47:07.000Z</time>
      </trkpt>
      <trkpt lat="43.77293" lon="6.37826">
        <ele>1078.3</ele>
        <time>2021-09-07T07:47:09.000Z</time>
      </trkpt>
      <trkpt lat="43.77293" lon="6.37829">
        <ele>1078</ele>
        <time>2021-09-07T07:47:10.000Z</time>
      </trkpt>
      <trkpt lat="43.77291" lon="6.37821">
        <ele>1078.7</ele>
        <time>2021-09-07T07:47:11.000Z</time>
      </trkpt>
      <trkpt lat="43.77289" lon="6.37818">
        <ele>1078.8</ele>
        <time>2021-09-07T07:47:12.000Z</time>
      </trkpt>
      <trkpt lat="43.77292" lon="6.37824">
        <ele>1078.4</ele>
        <time>2021-09-07T07:47:12.000Z</time>
      </trkpt>
      <trkpt lat="43.77288" lon="6.37816">
        <ele>1078.9</ele>
        <time>2021-09-07T07:47:13.000Z</time>
      </trkpt>
      <trkpt lat="43.77286" lon="6.37815">
        <ele>1079</ele>
        <time>2021-09-07T07:47:14.000Z</time>
      </trkpt>
      <trkpt lat="43.7729" lon="6.37819">
        <ele>1078.8</ele>
        <time>2021-09-07T07:47:14.000Z</time>
      </trkpt>
      <trkpt lat="43.77284" lon="6.37813">
        <ele>1079.1</ele>
        <time>2021-09-07T07:47:15.000Z</time>
      </trkpt>
      <trkpt lat="43.77288" lon="6.37817">
        <ele>1079</ele>
        <time>2021-09-07T07:47:15.000Z</time>
      </trkpt>
      <trkpt lat="43.77287" lon="6.37816">
        <ele>1078.9</ele>
        <time>2021-09-07T07:47:16.000Z</time>
      </trkpt>
      <trkpt lat="43.7728" lon="6.37802">
        <ele>1079.8</ele>
        <time>2021-09-07T07:47:19.000Z</time>
      </trkpt>
      <trkpt lat="43.77281" lon="6.37804">
        <ele>1079.8</ele>
        <time>2021-09-07T07:47:21.000Z</time>
      </trkpt>
      <trkpt lat="43.77279" lon="6.378">
        <ele>1079.8</ele>
        <time>2021-09-07T07:47:22.000Z</time>
      </trkpt>
      <trkpt lat="43.77276" lon="6.37797">
        <ele>1080</ele>
        <time>2021-09-07T07:47:22.000Z</time>
      </trkpt>
      <trkpt lat="43.77274" lon="6.37795">
        <ele>1080</ele>
        <time>2021-09-07T07:47:25.000Z</time>
      </trkpt>
      <trkpt lat="43.7727" lon="6.37788">
        <ele>1080.6</ele>
        <time>2021-09-07T07:47:25.000Z</time>
      </trkpt>
      <trkpt lat="43.77268" lon="6.37783">
        <ele>1080.4</ele>
        <time>2021-09-07T07:47:27.000Z</time>
      </trkpt>
      <trkpt lat="43.77269" lon="6.37787">
        <ele>1080.5</ele>
        <time>2021-09-07T07:47:28.000Z</time>
      </trkpt>
      <trkpt lat="43.77267" lon="6.37781">
        <ele>1080.2</ele>
        <time>2021-09-07T07:47:30.000Z</time>
      </trkpt>
      <trkpt lat="43.77263" lon="6.37775">
        <ele>1080.7</ele>
        <time>2021-09-07T07:47:30.000Z</time>
      </trkpt>
      <trkpt lat="43.77261" lon="6.37773">
        <ele>1080.9</ele>
        <time>2021-09-07T07:47:31.000Z</time>
      </trkpt>
      <trkpt lat="43.77262" lon="6.37774">
        <ele>1080.9</ele>
        <time>2021-09-07T07:47:33.000Z</time>
      </trkpt>
      <trkpt lat="43.7726" lon="6.37772">
        <ele>1080.9</ele>
        <time>2021-09-07T07:47:34.000Z</time>
      </trkpt>
      <trkpt lat="43.77254" lon="6.37763">
        <ele>1081.4</ele>
        <time>2021-09-07T07:47:35.000Z</time>
      </trkpt>
      <trkpt lat="43.77253" lon="6.37759">
        <ele>1081.7</ele>
        <time>2021-09-07T07:47:36.000Z</time>
      </trkpt>
      <trkpt lat="43.77252" lon="6.37756">
        <ele>1081.7</ele>
        <time>2021-09-07T07:47:37.000Z</time>
      </trkpt>
      <trkpt lat="43.77254" lon="6.37761">
        <ele>1081.6</ele>
        <time>2021-09-07T07:47:38.000Z</time>
      </trkpt>
      <trkpt lat="43.77242" lon="6.37747">
        <ele>1082.4</ele>
        <time>2021-09-07T07:47:42.000Z</time>
      </trkpt>
      <trkpt lat="43.77246" lon="6.3775">
        <ele>1082.4</ele>
        <time>2021-09-07T07:47:43.000Z</time>
      </trkpt>
      <trkpt lat="43.77239" lon="6.37742">
        <ele>1082.7</ele>
        <time>2021-09-07T07:47:44.000Z</time>
      </trkpt>
      <trkpt lat="43.7724" lon="6.37746">
        <ele>1082.5</ele>
        <time>2021-09-07T07:47:45.000Z</time>
      </trkpt>
      <trkpt lat="43.77238" lon="6.37738">
        <ele>1082.8</ele>
        <time>2021-09-07T07:47:45.000Z</time>
      </trkpt>
      <trkpt lat="43.77231" lon="6.37732">
        <ele>1083.6</ele>
        <time>2021-09-07T07:47:49.000Z</time>
      </trkpt>
      <trkpt lat="43.77229" lon="6.37729">
        <ele>1083.6</ele>
        <time>2021-09-07T07:47:50.000Z</time>
      </trkpt>
      <trkpt lat="43.77233" lon="6.37733">
        <ele>1083.4</ele>
        <time>2021-09-07T07:47:50.000Z</time>
      </trkpt>
      <trkpt lat="43.77228" lon="6.37726">
        <ele>1084</ele>
        <time>2021-09-07T07:47:51.000Z</time>
      </trkpt>
      <trkpt lat="43.7723" lon="6.37731">
        <ele>1083.5</ele>
        <time>2021-09-07T07:47:52.000Z</time>
      </trkpt>
      <trkpt lat="43.77224" lon="6.37718">
        <ele>1084.3</ele>
        <time>2021-09-07T07:47:54.000Z</time>
      </trkpt>
      <trkpt lat="43.77222" lon="6.37716">
        <ele>1084.4</ele>
        <time>2021-09-07T07:47:55.000Z</time>
      </trkpt>
      <trkpt lat="43.7722" lon="6.37714">
        <ele>1084.8</ele>
        <time>2021-09-07T07:47:56.000Z</time>
      </trkpt>
      <trkpt lat="43.77218" lon="6.37713">
        <ele>1084.9</ele>
        <time>2021-09-07T07:47:57.000Z</time>
      </trkpt>
      <trkpt lat="43.77223" lon="6.37717">
        <ele>1084.4</ele>
        <time>2021-09-07T07:47:57.000Z</time>
      </trkpt>
      <trkpt lat="43.77221" lon="6.37715">
        <ele>1084.5</ele>
        <time>2021-09-07T07:47:58.000Z</time>
      </trkpt>
      <trkpt lat="43.77219" lon="6.37713">
        <ele>1084.8</ele>
        <time>2021-09-07T07:47:59.000Z</time>
      </trkpt>
      <trkpt lat="43.77217" lon="6.37711">
        <ele>1084.9</ele>
        <time>2021-09-07T07:48:00.000Z</time>
      </trkpt>
      <trkpt lat="43.77211" lon="6.37702">
        <ele>1085.8</ele>
        <time>2021-09-07T07:48:02.000Z</time>
      </trkpt>
      <trkpt lat="43.77208" lon="6.37702">
        <ele>1085.9</ele>
        <time>2021-09-07T07:48:03.000Z</time>
      </trkpt>
      <trkpt lat="43.77209" lon="6.37702">
        <ele>1086</ele>
        <time>2021-09-07T07:48:05.000Z</time>
      </trkpt>
      <trkpt lat="43.77206" lon="6.37702">
        <ele>1086</ele>
        <time>2021-09-07T07:48:06.000Z</time>
      </trkpt>
      <trkpt lat="43.77203" lon="6.37695">
        <ele>1086.4</ele>
        <time>2021-09-07T07:48:06.000Z</time>
      </trkpt>
      <trkpt lat="43.77202" lon="6.37691">
        <ele>1086.5</ele>
        <time>2021-09-07T07:48:07.000Z</time>
      </trkpt>
      <trkpt lat="43.77202" lon="6.37693">
        <ele>1086.5</ele>
        <time>2021-09-07T07:48:09.000Z</time>
      </trkpt>
      <trkpt lat="43.77201" lon="6.37688">
        <ele>1086.4</ele>
        <time>2021-09-07T07:48:10.000Z</time>
      </trkpt>
      <trkpt lat="43.77193" lon="6.37681">
        <ele>1087.7</ele>
        <time>2021-09-07T07:48:12.000Z</time>
      </trkpt>
      <trkpt lat="43.77192" lon="6.3768">
        <ele>1087.8</ele>
        <time>2021-09-07T07:48:15.000Z</time>
      </trkpt>
      <trkpt lat="43.77187" lon="6.3767">
        <ele>1088.2</ele>
        <time>2021-09-07T07:48:16.000Z</time>
      </trkpt>
      <trkpt lat="43.77185" lon="6.37668">
        <ele>1088.4</ele>
        <time>2021-09-07T07:48:19.000Z</time>
      </trkpt>
      <trkpt lat="43.77181" lon="6.37663">
        <ele>1089.3</ele>
        <time>2021-09-07T07:48:19.000Z</time>
      </trkpt>
      <trkpt lat="43.77179" lon="6.3766">
        <ele>1089.4</ele>
        <time>2021-09-07T07:48:20.000Z</time>
      </trkpt>
      <trkpt lat="43.77178" lon="6.37658">
        <ele>1089.5</ele>
        <time>2021-09-07T07:48:21.000Z</time>
      </trkpt>
      <trkpt lat="43.7718" lon="6.37662">
        <ele>1089.3</ele>
        <time>2021-09-07T07:48:22.000Z</time>
      </trkpt>
      <trkpt lat="43.77174" lon="6.37654">
        <ele>1089.8</ele>
        <time>2021-09-07T07:48:23.000Z</time>
      </trkpt>
      <trkpt lat="43.77173" lon="6.37651">
        <ele>1090</ele>
        <time>2021-09-07T07:48:24.000Z</time>
      </trkpt>
      <trkpt lat="43.77169" lon="6.37647">
        <ele>1090.6</ele>
        <time>2021-09-07T07:48:26.000Z</time>
      </trkpt>
      <trkpt lat="43.77173" lon="6.37652">
        <ele>1089.9</ele>
        <time>2021-09-07T07:48:26.000Z</time>
      </trkpt>
      <trkpt lat="43.77167" lon="6.37645">
        <ele>1090.6</ele>
        <time>2021-09-07T07:48:27.000Z</time>
      </trkpt>
      <trkpt lat="43.77171" lon="6.3765">
        <ele>1090.4</ele>
        <time>2021-09-07T07:48:27.000Z</time>
      </trkpt>
      <trkpt lat="43.77167" lon="6.37645">
        <ele>1090.6</ele>
        <time>2021-09-07T07:48:29.000Z</time>
      </trkpt>
      <trkpt lat="43.77166" lon="6.37643">
        <ele>1090.5</ele>
        <time>2021-09-07T07:48:30.000Z</time>
      </trkpt>
      <trkpt lat="43.77159" lon="6.37634">
        <ele>1090.8</ele>
        <time>2021-09-07T07:48:32.000Z</time>
      </trkpt>
      <trkpt lat="43.77158" lon="6.37634">
        <ele>1090.8</ele>
        <time>2021-09-07T07:48:35.000Z</time>
      </trkpt>
      <trkpt lat="43.77149" lon="6.37621">
        <ele>1092.4</ele>
        <time>2021-09-07T07:48:38.000Z</time>
      </trkpt>
      <trkpt lat="43.77147" lon="6.37618">
        <ele>1092.4</ele>
        <time>2021-09-07T07:48:39.000Z</time>
      </trkpt>
      <trkpt lat="43.77146" lon="6.37616">
        <ele>1092.1</ele>
        <time>2021-09-07T07:48:40.000Z</time>
      </trkpt>
      <trkpt lat="43.77149" lon="6.37622">
        <ele>1092.3</ele>
        <time>2021-09-07T07:48:40.000Z</time>
      </trkpt>
      <trkpt lat="43.77148" lon="6.37619">
        <ele>1092.4</ele>
        <time>2021-09-07T07:48:41.000Z</time>
      </trkpt>
      <trkpt lat="43.77147" lon="6.37617">
        <ele>1092.2</ele>
        <time>2021-09-07T07:48:42.000Z</time>
      </trkpt>
      <trkpt lat="43.77144" lon="6.37615">
        <ele>1092.1</ele>
        <time>2021-09-07T07:48:43.000Z</time>
      </trkpt>
      <trkpt lat="43.77139" lon="6.3761">
        <ele>1092.9</ele>
        <time>2021-09-07T07:48:44.000Z</time>
      </trkpt>
      <trkpt lat="43.77138" lon="6.37607">
        <ele>1093.3</ele>
        <time>2021-09-07T07:48:45.000Z</time>
      </trkpt>
      <trkpt lat="43.77137" lon="6.37604">
        <ele>1093.4</ele>
        <time>2021-09-07T07:48:46.000Z</time>
      </trkpt>
      <trkpt lat="43.77135" lon="6.37601">
        <ele>1093.3</ele>
        <time>2021-09-07T07:48:47.000Z</time>
      </trkpt>
      <trkpt lat="43.77138" lon="6.37608">
        <ele>1093.1</ele>
        <time>2021-09-07T07:48:47.000Z</time>
      </trkpt>
      <trkpt lat="43.77137" lon="6.37606">
        <ele>1093.3</ele>
        <time>2021-09-07T07:48:48.000Z</time>
      </trkpt>
      <trkpt lat="43.77134" lon="6.37595">
        <ele>1093.4</ele>
        <time>2021-09-07T07:48:49.000Z</time>
      </trkpt>
      <trkpt lat="43.77136" lon="6.37602">
        <ele>1093.3</ele>
        <time>2021-09-07T07:48:49.000Z</time>
      </trkpt>
      <trkpt lat="43.77135" lon="6.37599">
        <ele>1093.3</ele>
        <time>2021-09-07T07:48:50.000Z</time>
      </trkpt>
      <trkpt lat="43.77132" lon="6.37593">
        <ele>1093.4</ele>
        <time>2021-09-07T07:48:52.000Z</time>
      </trkpt>
      <trkpt lat="43.77129" lon="6.37589">
        <ele>1093.6</ele>
        <time>2021-09-07T07:48:52.000Z</time>
      </trkpt>
      <trkpt lat="43.77127" lon="6.37586">
        <ele>1093.9</ele>
        <time>2021-09-07T07:48:53.000Z</time>
      </trkpt>
      <trkpt lat="43.77128" lon="6.37588">
        <ele>1093.8</ele>
        <time>2021-09-07T07:48:55.000Z</time>
      </trkpt>
      <trkpt lat="43.77126" lon="6.37585">
        <ele>1094</ele>
        <time>2021-09-07T07:48:56.000Z</time>
      </trkpt>
      <trkpt lat="43.77122" lon="6.37578">
        <ele>1094.3</ele>
        <time>2021-09-07T07:48:56.000Z</time>
      </trkpt>
      <trkpt lat="43.7712" lon="6.37573">
        <ele>1094.4</ele>
        <time>2021-09-07T07:48:58.000Z</time>
      </trkpt>
      <trkpt lat="43.77122" lon="6.37577">
        <ele>1094.4</ele>
        <time>2021-09-07T07:48:59.000Z</time>
      </trkpt>
      <trkpt lat="43.77116" lon="6.37569">
        <ele>1094.4</ele>
        <time>2021-09-07T07:49:00.000Z</time>
      </trkpt>
      <trkpt lat="43.77118" lon="6.37571">
        <ele>1094.6</ele>
        <time>2021-09-07T07:49:01.000Z</time>
      </trkpt>
      <trkpt lat="43.77115" lon="6.37567">
        <ele>1094.5</ele>
        <time>2021-09-07T07:49:03.000Z</time>
      </trkpt>
      <trkpt lat="43.77112" lon="6.37561">
        <ele>1094.9</ele>
        <time>2021-09-07T07:49:03.000Z</time>
      </trkpt>
      <trkpt lat="43.7711" lon="6.37555">
        <ele>1094.9</ele>
        <time>2021-09-07T07:49:05.000Z</time>
      </trkpt>
      <trkpt lat="43.77111" lon="6.37559">
        <ele>1094.9</ele>
        <time>2021-09-07T07:49:06.000Z</time>
      </trkpt>
      <trkpt lat="43.77107" lon="6.3755">
        <ele>1095.3</ele>
        <time>2021-09-07T07:49:07.000Z</time>
      </trkpt>
      <trkpt lat="43.77109" lon="6.37553">
        <ele>1095.3</ele>
        <time>2021-09-07T07:49:08.000Z</time>
      </trkpt>
      <trkpt lat="43.77104" lon="6.37547">
        <ele>1095.7</ele>
        <time>2021-09-07T07:49:09.000Z</time>
      </trkpt>
      <trkpt lat="43.77107" lon="6.3755">
        <ele>1095.4</ele>
        <time>2021-09-07T07:49:10.000Z</time>
      </trkpt>
      <trkpt lat="43.77107" lon="6.3755">
        <ele>1095.4</ele>
        <time>2021-09-07T07:49:10.000Z</time>
      </trkpt>
      <trkpt lat="43.77099" lon="6.3754">
        <ele>1096.5</ele>
        <time>2021-09-07T07:49:12.000Z</time>
      </trkpt>
      <trkpt lat="43.77102" lon="6.37546">
        <ele>1095.7</ele>
        <time>2021-09-07T07:49:12.000Z</time>
      </trkpt>
      <trkpt lat="43.77101" lon="6.37545">
        <ele>1096.1</ele>
        <time>2021-09-07T07:49:13.000Z</time>
      </trkpt>
      <trkpt lat="43.77098" lon="6.37535">
        <ele>1096.8</ele>
        <time>2021-09-07T07:49:14.000Z</time>
      </trkpt>
      <trkpt lat="43.77098" lon="6.37538">
        <ele>1096.7</ele>
        <time>2021-09-07T07:49:15.000Z</time>
      </trkpt>
      <trkpt lat="43.77097" lon="6.37532">
        <ele>1097.2</ele>
        <time>2021-09-07T07:49:15.000Z</time>
      </trkpt>
      <trkpt lat="43.77095" lon="6.37526">
        <ele>1097.6</ele>
        <time>2021-09-07T07:49:17.000Z</time>
      </trkpt>
      <trkpt lat="43.77091" lon="6.37522">
        <ele>1097.9</ele>
        <time>2021-09-07T07:49:19.000Z</time>
      </trkpt>
      <trkpt lat="43.77094" lon="6.37524">
        <ele>1097.7</ele>
        <time>2021-09-07T07:49:20.000Z</time>
      </trkpt>
      <trkpt lat="43.77089" lon="6.37517">
        <ele>1098.1</ele>
        <time>2021-09-07T07:49:21.000Z</time>
      </trkpt>
      <trkpt lat="43.7709" lon="6.3752">
        <ele>1098</ele>
        <time>2021-09-07T07:49:22.000Z</time>
      </trkpt>
      <trkpt lat="43.77088" lon="6.37511">
        <ele>1098.6</ele>
        <time>2021-09-07T07:49:23.000Z</time>
      </trkpt>
      <trkpt lat="43.77087" lon="6.37508">
        <ele>1098.8</ele>
        <time>2021-09-07T07:49:24.000Z</time>
      </trkpt>
      <trkpt lat="43.77089" lon="6.37515">
        <ele>1098.2</ele>
        <time>2021-09-07T07:49:24.000Z</time>
      </trkpt>
      <trkpt lat="43.77083" lon="6.37505">
        <ele>1099</ele>
        <time>2021-09-07T07:49:26.000Z</time>
      </trkpt>
      <trkpt lat="43.77088" lon="6.37509">
        <ele>1098.7</ele>
        <time>2021-09-07T07:49:26.000Z</time>
      </trkpt>
      <trkpt lat="43.77086" lon="6.37507">
        <ele>1098.8</ele>
        <time>2021-09-07T07:49:27.000Z</time>
      </trkpt>
      <trkpt lat="43.77081" lon="6.37504">
        <ele>1099.1</ele>
        <time>2021-09-07T07:49:29.000Z</time>
      </trkpt>
      <trkpt lat="43.77079" lon="6.37497">
        <ele>1099.6</ele>
        <time>2021-09-07T07:49:29.000Z</time>
      </trkpt>
      <trkpt lat="43.77077" lon="6.37491">
        <ele>1099.9</ele>
        <time>2021-09-07T07:49:31.000Z</time>
      </trkpt>
      <trkpt lat="43.77075" lon="6.37488">
        <ele>1100.3</ele>
        <time>2021-09-07T07:49:32.000Z</time>
      </trkpt>
      <trkpt lat="43.77079" lon="6.37495">
        <ele>1099.8</ele>
        <time>2021-09-07T07:49:32.000Z</time>
      </trkpt>
      <trkpt lat="43.77072" lon="6.37483">
        <ele>1100.3</ele>
        <time>2021-09-07T07:49:34.000Z</time>
      </trkpt>
      <trkpt lat="43.77076" lon="6.37489">
        <ele>1100.2</ele>
        <time>2021-09-07T07:49:34.000Z</time>
      </trkpt>
      <trkpt lat="43.7707" lon="6.3748">
        <ele>1100.5</ele>
        <time>2021-09-07T07:49:35.000Z</time>
      </trkpt>
      <trkpt lat="43.77075" lon="6.37487">
        <ele>1100.5</ele>
        <time>2021-09-07T07:49:35.000Z</time>
      </trkpt>
      <trkpt lat="43.77069" lon="6.37478">
        <ele>1100.8</ele>
        <time>2021-09-07T07:49:36.000Z</time>
      </trkpt>
      <trkpt lat="43.77071" lon="6.37482">
        <ele>1100.4</ele>
        <time>2021-09-07T07:49:37.000Z</time>
      </trkpt>
      <trkpt lat="43.77067" lon="6.37475">
        <ele>1101.1</ele>
        <time>2021-09-07T07:49:37.000Z</time>
      </trkpt>
      <trkpt lat="43.77065" lon="6.37471">
        <ele>1101.4</ele>
        <time>2021-09-07T07:49:39.000Z</time>
      </trkpt>
      <trkpt lat="43.77066" lon="6.37473">
        <ele>1101.2</ele>
        <time>2021-09-07T07:49:40.000Z</time>
      </trkpt>
      <trkpt lat="43.77061" lon="6.37469">
        <ele>1101.6</ele>
        <time>2021-09-07T07:49:41.000Z</time>
      </trkpt>
      <trkpt lat="43.77065" lon="6.3747">
        <ele>1101.5</ele>
        <time>2021-09-07T07:49:42.000Z</time>
      </trkpt>
      <trkpt lat="43.77058" lon="6.37465">
        <ele>1102.6</ele>
        <time>2021-09-07T07:49:43.000Z</time>
      </trkpt>
      <trkpt lat="43.77056" lon="6.37463">
        <ele>1102.6</ele>
        <time>2021-09-07T07:49:44.000Z</time>
      </trkpt>
      <trkpt lat="43.77059" lon="6.37468">
        <ele>1102.1</ele>
        <time>2021-09-07T07:49:44.000Z</time>
      </trkpt>
      <trkpt lat="43.77057" lon="6.37465">
        <ele>1102.7</ele>
        <time>2021-09-07T07:49:46.000Z</time>
      </trkpt>
      <trkpt lat="43.77055" lon="6.37461">
        <ele>1102.8</ele>
        <time>2021-09-07T07:49:47.000Z</time>
      </trkpt>
      <trkpt lat="43.77053" lon="6.37456">
        <ele>1103.1</ele>
        <time>2021-09-07T07:49:47.000Z</time>
      </trkpt>
      <trkpt lat="43.77052" lon="6.37454">
        <ele>1103.2</ele>
        <time>2021-09-07T07:49:50.000Z</time>
      </trkpt>
      <trkpt lat="43.77046" lon="6.37448">
        <ele>1104.2</ele>
        <time>2021-09-07T07:49:52.000Z</time>
      </trkpt>
      <trkpt lat="43.77044" lon="6.37447">
        <ele>1104.3</ele>
        <time>2021-09-07T07:49:55.000Z</time>
      </trkpt>
      <trkpt lat="43.77041" lon="6.37433">
        <ele>1105.5</ele>
        <time>2021-09-07T07:49:57.000Z</time>
      </trkpt>
      <trkpt lat="43.7704" lon="6.37431">
        <ele>1106.1</ele>
        <time>2021-09-07T07:49:58.000Z</time>
      </trkpt>
      <trkpt lat="43.77038" lon="6.37429">
        <ele>1105.9</ele>
        <time>2021-09-07T07:49:59.000Z</time>
      </trkpt>
      <trkpt lat="43.7704" lon="6.37432">
        <ele>1105.9</ele>
        <time>2021-09-07T07:50:00.000Z</time>
      </trkpt>
      <trkpt lat="43.77039" lon="6.3743">
        <ele>1106.1</ele>
        <time>2021-09-07T07:50:01.000Z</time>
      </trkpt>
      <trkpt lat="43.77037" lon="6.37427">
        <ele>1105.9</ele>
        <time>2021-09-07T07:50:02.000Z</time>
      </trkpt>
      <trkpt lat="43.77032" lon="6.37424">
        <ele>1106.7</ele>
        <time>2021-09-07T07:50:02.000Z</time>
      </trkpt>
      <trkpt lat="43.77031" lon="6.37421">
        <ele>1107</ele>
        <time>2021-09-07T07:50:03.000Z</time>
      </trkpt>
      <trkpt lat="43.7703" lon="6.37418">
        <ele>1107.2</ele>
        <time>2021-09-07T07:50:04.000Z</time>
      </trkpt>
      <trkpt lat="43.77029" lon="6.37415">
        <ele>1107.3</ele>
        <time>2021-09-07T07:50:05.000Z</time>
      </trkpt>
      <trkpt lat="43.77032" lon="6.37422">
        <ele>1106.8</ele>
        <time>2021-09-07T07:50:05.000Z</time>
      </trkpt>
      <trkpt lat="43.77031" lon="6.37419">
        <ele>1107.1</ele>
        <time>2021-09-07T07:50:06.000Z</time>
      </trkpt>
      <trkpt lat="43.77027" lon="6.3741">
        <ele>1108.1</ele>
        <time>2021-09-07T07:50:07.000Z</time>
      </trkpt>
      <trkpt lat="43.77024" lon="6.37408">
        <ele>1108.2</ele>
        <time>2021-09-07T07:50:08.000Z</time>
      </trkpt>
      <trkpt lat="43.77022" lon="6.37407">
        <ele>1108.6</ele>
        <time>2021-09-07T07:50:09.000Z</time>
      </trkpt>
      <trkpt lat="43.77026" lon="6.37409">
        <ele>1108.2</ele>
        <time>2021-09-07T07:50:10.000Z</time>
      </trkpt>
      <trkpt lat="43.77024" lon="6.37408">
        <ele>1108.3</ele>
        <time>2021-09-07T07:50:11.000Z</time>
      </trkpt>
      <trkpt lat="43.77021" lon="6.37405">
        <ele>1108.9</ele>
        <time>2021-09-07T07:50:12.000Z</time>
      </trkpt>
      <trkpt lat="43.77019" lon="6.37399">
        <ele>1109.4</ele>
        <time>2021-09-07T07:50:12.000Z</time>
      </trkpt>
      <trkpt lat="43.77018" lon="6.37396">
        <ele>1109.6</ele>
        <time>2021-09-07T07:50:13.000Z</time>
      </trkpt>
      <trkpt lat="43.77014" lon="6.37392">
        <ele>1110.4</ele>
        <time>2021-09-07T07:50:15.000Z</time>
      </trkpt>
      <trkpt lat="43.77019" lon="6.37398">
        <ele>1109.5</ele>
        <time>2021-09-07T07:50:15.000Z</time>
      </trkpt>
      <trkpt lat="43.77012" lon="6.37391">
        <ele>1110.7</ele>
        <time>2021-09-07T07:50:16.000Z</time>
      </trkpt>
      <trkpt lat="43.77017" lon="6.37394">
        <ele>1109.8</ele>
        <time>2021-09-07T07:50:16.000Z</time>
      </trkpt>
      <trkpt lat="43.7701" lon="6.37385">
        <ele>1111</ele>
        <time>2021-09-07T07:50:18.000Z</time>
      </trkpt>
      <trkpt lat="43.77013" lon="6.37392">
        <ele>1110.5</ele>
        <time>2021-09-07T07:50:18.000Z</time>
      </trkpt>
      <trkpt lat="43.77011" lon="6.37388">
        <ele>1110.9</ele>
        <time>2021-09-07T07:50:19.000Z</time>
      </trkpt>
      <trkpt lat="43.77007" lon="6.3738">
        <ele>1111.7</ele>
        <time>2021-09-07T07:50:20.000Z</time>
      </trkpt>
      <trkpt lat="43.77005" lon="6.37378">
        <ele>1111.8</ele>
        <time>2021-09-07T07:50:21.000Z</time>
      </trkpt>
      <trkpt lat="43.77009" lon="6.37382">
        <ele>1111.2</ele>
        <time>2021-09-07T07:50:21.000Z</time>
      </trkpt>
      <trkpt lat="43.77002" lon="6.37374">
        <ele>1112.7</ele>
        <time>2021-09-07T07:50:23.000Z</time>
      </trkpt>
      <trkpt lat="43.77006" lon="6.37379">
        <ele>1111.6</ele>
        <time>2021-09-07T07:50:23.000Z</time>
      </trkpt>
      <trkpt lat="43.77" lon="6.37372">
        <ele>1112.9</ele>
        <time>2021-09-07T07:50:24.000Z</time>
      </trkpt>
      <trkpt lat="43.77004" lon="6.37376">
        <ele>1112</ele>
        <time>2021-09-07T07:50:24.000Z</time>
      </trkpt>
      <trkpt lat="43.76999" lon="6.37366">
        <ele>1113.5</ele>
        <time>2021-09-07T07:50:26.000Z</time>
      </trkpt>
      <trkpt lat="43.77001" lon="6.37373">
        <ele>1112.8</ele>
        <time>2021-09-07T07:50:26.000Z</time>
      </trkpt>
      <trkpt lat="43.77" lon="6.37369">
        <ele>1113</ele>
        <time>2021-09-07T07:50:27.000Z</time>
      </trkpt>
      <trkpt lat="43.76995" lon="6.37361">
        <ele>1113.9</ele>
        <time>2021-09-07T07:50:28.000Z</time>
      </trkpt>
      <trkpt lat="43.76997" lon="6.37364">
        <ele>1113.7</ele>
        <time>2021-09-07T07:50:29.000Z</time>
      </trkpt>
      <trkpt lat="43.76991" lon="6.37359">
        <ele>1114.6</ele>
        <time>2021-09-07T07:50:30.000Z</time>
      </trkpt>
      <trkpt lat="43.76995" lon="6.37361">
        <ele>1114</ele>
        <time>2021-09-07T07:50:31.000Z</time>
      </trkpt>
      <trkpt lat="43.7699" lon="6.37357">
        <ele>1114.6</ele>
        <time>2021-09-07T07:50:33.000Z</time>
      </trkpt>
      <trkpt lat="43.76987" lon="6.37347">
        <ele>1115</ele>
        <time>2021-09-07T07:50:34.000Z</time>
      </trkpt>
      <trkpt lat="43.76985" lon="6.37345">
        <ele>1115.3</ele>
        <time>2021-09-07T07:50:35.000Z</time>
      </trkpt>
      <trkpt lat="43.76986" lon="6.37346">
        <ele>1115.1</ele>
        <time>2021-09-07T07:50:37.000Z</time>
      </trkpt>
      <trkpt lat="43.76984" lon="6.37344">
        <ele>1115.6</ele>
        <time>2021-09-07T07:50:38.000Z</time>
      </trkpt>
      <trkpt lat="43.76979" lon="6.37341">
        <ele>1116.2</ele>
        <time>2021-09-07T07:50:38.000Z</time>
      </trkpt>
      <trkpt lat="43.76977" lon="6.37338">
        <ele>1116.3</ele>
        <time>2021-09-07T07:50:39.000Z</time>
      </trkpt>
      <trkpt lat="43.76975" lon="6.37332">
        <ele>1116.9</ele>
        <time>2021-09-07T07:50:41.000Z</time>
      </trkpt>
      <trkpt lat="43.76977" lon="6.37339">
        <ele>1116.3</ele>
        <time>2021-09-07T07:50:41.000Z</time>
      </trkpt>
      <trkpt lat="43.76974" lon="6.37328">
        <ele>1117.2</ele>
        <time>2021-09-07T07:50:42.000Z</time>
      </trkpt>
      <trkpt lat="43.76976" lon="6.37336">
        <ele>1116.4</ele>
        <time>2021-09-07T07:50:42.000Z</time>
      </trkpt>
      <trkpt lat="43.76974" lon="6.3733">
        <ele>1117.1</ele>
        <time>2021-09-07T07:50:44.000Z</time>
      </trkpt>
      <trkpt lat="43.76974" lon="6.37327">
        <ele>1117.2</ele>
        <time>2021-09-07T07:50:45.000Z</time>
      </trkpt>
      <trkpt lat="43.76972" lon="6.37323">
        <ele>1117.8</ele>
        <time>2021-09-07T07:50:45.000Z</time>
      </trkpt>
      <trkpt lat="43.7697" lon="6.37323">
        <ele>1117.9</ele>
        <time>2021-09-07T07:50:47.000Z</time>
      </trkpt>
      <trkpt lat="43.76966" lon="6.37317">
        <ele>1118.7</ele>
        <time>2021-09-07T07:50:49.000Z</time>
      </trkpt>
      <trkpt lat="43.76965" lon="6.37313">
        <ele>1118.9</ele>
        <time>2021-09-07T07:50:50.000Z</time>
      </trkpt>
      <trkpt lat="43.76963" lon="6.3731">
        <ele>1119.2</ele>
        <time>2021-09-07T07:50:51.000Z</time>
      </trkpt>
      <trkpt lat="43.76966" lon="6.37315">
        <ele>1118.8</ele>
        <time>2021-09-07T07:50:51.000Z</time>
      </trkpt>
      <trkpt lat="43.76964" lon="6.37311">
        <ele>1119.1</ele>
        <time>2021-09-07T07:50:52.000Z</time>
      </trkpt>
      <trkpt lat="43.76962" lon="6.37308">
        <ele>1119.4</ele>
        <time>2021-09-07T07:50:53.000Z</time>
      </trkpt>
      <trkpt lat="43.7696" lon="6.37307">
        <ele>1119.8</ele>
        <time>2021-09-07T07:50:53.000Z</time>
      </trkpt>
      <trkpt lat="43.76958" lon="6.37305">
        <ele>1120</ele>
        <time>2021-09-07T07:50:54.000Z</time>
      </trkpt>
      <trkpt lat="43.76956" lon="6.37303">
        <ele>1120.3</ele>
        <time>2021-09-07T07:50:55.000Z</time>
      </trkpt>
      <trkpt lat="43.76959" lon="6.37306">
        <ele>1119.9</ele>
        <time>2021-09-07T07:50:55.000Z</time>
      </trkpt>
      <trkpt lat="43.76954" lon="6.373">
        <ele>1120.8</ele>
        <time>2021-09-07T07:50:56.000Z</time>
      </trkpt>
      <trkpt lat="43.76957" lon="6.37305">
        <ele>1120.1</ele>
        <time>2021-09-07T07:50:56.000Z</time>
      </trkpt>
      <trkpt lat="43.76953" lon="6.37296">
        <ele>1121</ele>
        <time>2021-09-07T07:50:57.000Z</time>
      </trkpt>
      <trkpt lat="43.76955" lon="6.37302">
        <ele>1120.6</ele>
        <time>2021-09-07T07:50:57.000Z</time>
      </trkpt>
      <trkpt lat="43.76954" lon="6.37298">
        <ele>1120.9</ele>
        <time>2021-09-07T07:50:58.000Z</time>
      </trkpt>
      <trkpt lat="43.76953" lon="6.37294">
        <ele>1121.1</ele>
        <time>2021-09-07T07:50:59.000Z</time>
      </trkpt>
      <trkpt lat="43.76946" lon="6.37282">
        <ele>1122.1</ele>
        <time>2021-09-07T07:51:02.000Z</time>
      </trkpt>
      <trkpt lat="43.76944" lon="6.3728">
        <ele>1122.2</ele>
        <time>2021-09-07T07:51:03.000Z</time>
      </trkpt>
      <trkpt lat="43.76945" lon="6.37281">
        <ele>1122.1</ele>
        <time>2021-09-07T07:51:04.000Z</time>
      </trkpt>
      <trkpt lat="43.76942" lon="6.37279">
        <ele>1122.4</ele>
        <time>2021-09-07T07:51:04.000Z</time>
      </trkpt>
      <trkpt lat="43.76939" lon="6.3727">
        <ele>1123.5</ele>
        <time>2021-09-07T07:51:08.000Z</time>
      </trkpt>
      <trkpt lat="43.76937" lon="6.37269">
        <ele>1123.8</ele>
        <time>2021-09-07T07:51:09.000Z</time>
      </trkpt>
      <trkpt lat="43.7694" lon="6.37271">
        <ele>1123.1</ele>
        <time>2021-09-07T07:51:09.000Z</time>
      </trkpt>
      <trkpt lat="43.76938" lon="6.37269">
        <ele>1123.7</ele>
        <time>2021-09-07T07:51:10.000Z</time>
      </trkpt>
      <trkpt lat="43.76936" lon="6.37268">
        <ele>1123.9</ele>
        <time>2021-09-07T07:51:11.000Z</time>
      </trkpt>
      <trkpt lat="43.76934" lon="6.37264">
        <ele>1124.2</ele>
        <time>2021-09-07T07:51:11.000Z</time>
      </trkpt>
      <trkpt lat="43.76934" lon="6.37264">
        <ele>1124.2</ele>
        <time>2021-09-07T07:51:11.000Z</time>
      </trkpt>
      <trkpt lat="43.76933" lon="6.37262">
        <ele>1124.6</ele>
        <time>2021-09-07T07:51:12.000Z</time>
      </trkpt>
      <trkpt lat="43.76934" lon="6.37264">
        <ele>1124.3</ele>
        <time>2021-09-07T07:51:13.000Z</time>
      </trkpt>
      <trkpt lat="43.76932" lon="6.37259">
        <ele>1124.8</ele>
        <time>2021-09-07T07:51:14.000Z</time>
      </trkpt>
      <trkpt lat="43.76931" lon="6.37257">
        <ele>1125</ele>
        <time>2021-09-07T07:51:14.000Z</time>
      </trkpt>
      <trkpt lat="43.7693" lon="6.37255">
        <ele>1125.1</ele>
        <time>2021-09-07T07:51:16.000Z</time>
      </trkpt>
      <trkpt lat="43.76927" lon="6.37254">
        <ele>1125.4</ele>
        <time>2021-09-07T07:51:16.000Z</time>
      </trkpt>
      <trkpt lat="43.76925" lon="6.37252">
        <ele>1125.6</ele>
        <time>2021-09-07T07:51:17.000Z</time>
      </trkpt>
      <trkpt lat="43.76923" lon="6.37251">
        <ele>1125.8</ele>
        <time>2021-09-07T07:51:18.000Z</time>
      </trkpt>
      <trkpt lat="43.76926" lon="6.37253">
        <ele>1125.7</ele>
        <time>2021-09-07T07:51:18.000Z</time>
      </trkpt>
      <trkpt lat="43.76924" lon="6.37252">
        <ele>1125.6</ele>
        <time>2021-09-07T07:51:19.000Z</time>
      </trkpt>
      <trkpt lat="43.76921" lon="6.37249">
        <ele>1126</ele>
        <time>2021-09-07T07:51:20.000Z</time>
      </trkpt>
      <trkpt lat="43.76915" lon="6.3724">
        <ele>1127</ele>
        <time>2021-09-07T07:51:23.000Z</time>
      </trkpt>
      <trkpt lat="43.76915" lon="6.3724">
        <ele>1127.1</ele>
        <time>2021-09-07T07:51:25.000Z</time>
      </trkpt>
      <trkpt lat="43.76911" lon="6.37238">
        <ele>1127.5</ele>
        <time>2021-09-07T07:51:25.000Z</time>
      </trkpt>
      <trkpt lat="43.76909" lon="6.37237">
        <ele>1127.9</ele>
        <time>2021-09-07T07:51:26.000Z</time>
      </trkpt>
      <trkpt lat="43.7691" lon="6.37237">
        <ele>1127.8</ele>
        <time>2021-09-07T07:51:27.000Z</time>
      </trkpt>
      <trkpt lat="43.76908" lon="6.37236">
        <ele>1128.1</ele>
        <time>2021-09-07T07:51:28.000Z</time>
      </trkpt>
      <trkpt lat="43.76901" lon="6.3723">
        <ele>1129</ele>
        <time>2021-09-07T07:51:31.000Z</time>
      </trkpt>
      <trkpt lat="43.76898" lon="6.37229">
        <ele>1129.4</ele>
        <time>2021-09-07T07:51:32.000Z</time>
      </trkpt>
      <trkpt lat="43.76896" lon="6.37229">
        <ele>1129.9</ele>
        <time>2021-09-07T07:51:33.000Z</time>
      </trkpt>
      <trkpt lat="43.76899" lon="6.37229">
        <ele>1129.2</ele>
        <time>2021-09-07T07:51:33.000Z</time>
      </trkpt>
      <trkpt lat="43.76897" lon="6.37229">
        <ele>1129.7</ele>
        <time>2021-09-07T07:51:34.000Z</time>
      </trkpt>
      <trkpt lat="43.76895" lon="6.37228">
        <ele>1129.9</ele>
        <time>2021-09-07T07:51:35.000Z</time>
      </trkpt>
      <trkpt lat="43.76889" lon="6.37218">
        <ele>1130.8</ele>
        <time>2021-09-07T07:51:38.000Z</time>
      </trkpt>
      <trkpt lat="43.76887" lon="6.37217">
        <ele>1130.9</ele>
        <time>2021-09-07T07:51:39.000Z</time>
      </trkpt>
      <trkpt lat="43.76888" lon="6.37217">
        <ele>1130.8</ele>
        <time>2021-09-07T07:51:40.000Z</time>
      </trkpt>
      <trkpt lat="43.76885" lon="6.37216">
        <ele>1130.9</ele>
        <time>2021-09-07T07:51:41.000Z</time>
      </trkpt>
      <trkpt lat="43.76881" lon="6.37211">
        <ele>1132.4</ele>
        <time>2021-09-07T07:51:43.000Z</time>
      </trkpt>
      <trkpt lat="43.76881" lon="6.37209">
        <ele>1132.5</ele>
        <time>2021-09-07T07:51:44.000Z</time>
      </trkpt>
      <trkpt lat="43.76879" lon="6.37207">
        <ele>1132.6</ele>
        <time>2021-09-07T07:51:45.000Z</time>
      </trkpt>
      <trkpt lat="43.76881" lon="6.37209">
        <ele>1132.6</ele>
        <time>2021-09-07T07:51:45.000Z</time>
      </trkpt>
      <trkpt lat="43.7688" lon="6.37207">
        <ele>1132.6</ele>
        <time>2021-09-07T07:51:46.000Z</time>
      </trkpt>
      <trkpt lat="43.76878" lon="6.37206">
        <ele>1132.9</ele>
        <time>2021-09-07T07:51:46.000Z</time>
      </trkpt>
      <trkpt lat="43.76874" lon="6.37202">
        <ele>1133.3</ele>
        <time>2021-09-07T07:51:48.000Z</time>
      </trkpt>
      <trkpt lat="43.76872" lon="6.372">
        <ele>1133.6</ele>
        <time>2021-09-07T07:51:49.000Z</time>
      </trkpt>
      <trkpt lat="43.76873" lon="6.372">
        <ele>1133.5</ele>
        <time>2021-09-07T07:51:50.000Z</time>
      </trkpt>
      <trkpt lat="43.7687" lon="6.37198">
        <ele>1134</ele>
        <time>2021-09-07T07:51:51.000Z</time>
      </trkpt>
      <trkpt lat="43.76868" lon="6.37196">
        <ele>1134.4</ele>
        <time>2021-09-07T07:51:51.000Z</time>
      </trkpt>
      <trkpt lat="43.76868" lon="6.37195">
        <ele>1134.4</ele>
        <time>2021-09-07T07:51:53.000Z</time>
      </trkpt>
      <trkpt lat="43.76865" lon="6.37192">
        <ele>1134.7</ele>
        <time>2021-09-07T07:51:53.000Z</time>
      </trkpt>
      <trkpt lat="43.76863" lon="6.3719">
        <ele>1135.3</ele>
        <time>2021-09-07T07:51:54.000Z</time>
      </trkpt>
      <trkpt lat="43.76863" lon="6.3719">
        <ele>1135.2</ele>
        <time>2021-09-07T07:51:55.000Z</time>
      </trkpt>
      <trkpt lat="43.76861" lon="6.37188">
        <ele>1135.1</ele>
        <time>2021-09-07T07:51:56.000Z</time>
      </trkpt>
      <trkpt lat="43.76859" lon="6.37188">
        <ele>1135.1</ele>
        <time>2021-09-07T07:51:56.000Z</time>
      </trkpt>
      <trkpt lat="43.76858" lon="6.3719">
        <ele>1135.7</ele>
        <time>2021-09-07T07:51:57.000Z</time>
      </trkpt>
      <trkpt lat="43.76856" lon="6.37189">
        <ele>1135.9</ele>
        <time>2021-09-07T07:51:58.000Z</time>
      </trkpt>
      <trkpt lat="43.76858" lon="6.3719">
        <ele>1135.4</ele>
        <time>2021-09-07T07:51:58.000Z</time>
      </trkpt>
      <trkpt lat="43.76856" lon="6.37189">
        <ele>1135.9</ele>
        <time>2021-09-07T07:51:59.000Z</time>
      </trkpt>
      <trkpt lat="43.76856" lon="6.37186">
        <ele>1136.3</ele>
        <time>2021-09-07T07:52:00.000Z</time>
      </trkpt>
      <trkpt lat="43.76853" lon="6.37181">
        <ele>1136.9</ele>
        <time>2021-09-07T07:52:01.000Z</time>
      </trkpt>
      <trkpt lat="43.76851" lon="6.3718">
        <ele>1136.9</ele>
        <time>2021-09-07T07:52:02.000Z</time>
      </trkpt>
      <trkpt lat="43.76852" lon="6.37181">
        <ele>1137.1</ele>
        <time>2021-09-07T07:52:03.000Z</time>
      </trkpt>
      <trkpt lat="43.76849" lon="6.3718">
        <ele>1136.9</ele>
        <time>2021-09-07T07:52:04.000Z</time>
      </trkpt>
      <trkpt lat="43.76847" lon="6.3718">
        <ele>1137.1</ele>
        <time>2021-09-07T07:52:04.000Z</time>
      </trkpt>
      <trkpt lat="43.76845" lon="6.3718">
        <ele>1137.4</ele>
        <time>2021-09-07T07:52:06.000Z</time>
      </trkpt>
      <trkpt lat="43.76843" lon="6.37179">
        <ele>1138.1</ele>
        <time>2021-09-07T07:52:06.000Z</time>
      </trkpt>
      <trkpt lat="43.76842" lon="6.37177">
        <ele>1138.1</ele>
        <time>2021-09-07T07:52:08.000Z</time>
      </trkpt>
      <trkpt lat="43.76841" lon="6.37173">
        <ele>1138.2</ele>
        <time>2021-09-07T07:52:08.000Z</time>
      </trkpt>
      <trkpt lat="43.7684" lon="6.37171">
        <ele>1138.4</ele>
        <time>2021-09-07T07:52:09.000Z</time>
      </trkpt>
      <trkpt lat="43.76841" lon="6.37172">
        <ele>1138.2</ele>
        <time>2021-09-07T07:52:10.000Z</time>
      </trkpt>
      <trkpt lat="43.76838" lon="6.3717">
        <ele>1138.2</ele>
        <time>2021-09-07T07:52:11.000Z</time>
      </trkpt>
      <trkpt lat="43.76833" lon="6.37169">
        <ele>1138.3</ele>
        <time>2021-09-07T07:52:12.000Z</time>
      </trkpt>
      <trkpt lat="43.76831" lon="6.37168">
        <ele>1138.8</ele>
        <time>2021-09-07T07:52:13.000Z</time>
      </trkpt>
      <trkpt lat="43.76832" lon="6.37168">
        <ele>1138.6</ele>
        <time>2021-09-07T07:52:14.000Z</time>
      </trkpt>
      <trkpt lat="43.76831" lon="6.37167">
        <ele>1139</ele>
        <time>2021-09-07T07:52:15.000Z</time>
      </trkpt>
      <trkpt lat="43.76829" lon="6.37163">
        <ele>1139.6</ele>
        <time>2021-09-07T07:52:15.000Z</time>
      </trkpt>
      <trkpt lat="43.76829" lon="6.3716">
        <ele>1139.9</ele>
        <time>2021-09-07T07:52:16.000Z</time>
      </trkpt>
      <trkpt lat="43.76823" lon="6.37157">
        <ele>1140.6</ele>
        <time>2021-09-07T07:52:19.000Z</time>
      </trkpt>
      <trkpt lat="43.76821" lon="6.37157">
        <ele>1140.6</ele>
        <time>2021-09-07T07:52:21.000Z</time>
      </trkpt>
      <trkpt lat="43.76817" lon="6.37155">
        <ele>1141.2</ele>
        <time>2021-09-07T07:52:22.000Z</time>
      </trkpt>
      <trkpt lat="43.76816" lon="6.37152">
        <ele>1141.6</ele>
        <time>2021-09-07T07:52:23.000Z</time>
      </trkpt>
      <trkpt lat="43.76816" lon="6.37154">
        <ele>1141.4</ele>
        <time>2021-09-07T07:52:24.000Z</time>
      </trkpt>
      <trkpt lat="43.76816" lon="6.37149">
        <ele>1141.7</ele>
        <time>2021-09-07T07:52:25.000Z</time>
      </trkpt>
      <trkpt lat="43.76814" lon="6.37146">
        <ele>1142</ele>
        <time>2021-09-07T07:52:25.000Z</time>
      </trkpt>
      <trkpt lat="43.76813" lon="6.37145">
        <ele>1142</ele>
        <time>2021-09-07T07:52:27.000Z</time>
      </trkpt>
      <trkpt lat="43.76809" lon="6.37145">
        <ele>1142.1</ele>
        <time>2021-09-07T07:52:28.000Z</time>
      </trkpt>
      <trkpt lat="43.76807" lon="6.37144">
        <ele>1142.4</ele>
        <time>2021-09-07T07:52:29.000Z</time>
      </trkpt>
      <trkpt lat="43.76806" lon="6.37142">
        <ele>1142.7</ele>
        <time>2021-09-07T07:52:30.000Z</time>
      </trkpt>
      <trkpt lat="43.76808" lon="6.37145">
        <ele>1142.4</ele>
        <time>2021-09-07T07:52:30.000Z</time>
      </trkpt>
      <trkpt lat="43.76807" lon="6.37144">
        <ele>1142.6</ele>
        <time>2021-09-07T07:52:31.000Z</time>
      </trkpt>
      <trkpt lat="43.76805" lon="6.3714">
        <ele>1143.2</ele>
        <time>2021-09-07T07:52:32.000Z</time>
      </trkpt>
      <trkpt lat="43.76801" lon="6.37134">
        <ele>1143.5</ele>
        <time>2021-09-07T07:52:33.000Z</time>
      </trkpt>
      <trkpt lat="43.76799" lon="6.37133">
        <ele>1143.5</ele>
        <time>2021-09-07T07:52:35.000Z</time>
      </trkpt>
      <trkpt lat="43.76797" lon="6.37132">
        <ele>1144</ele>
        <time>2021-09-07T07:52:35.000Z</time>
      </trkpt>
      <trkpt lat="43.76795" lon="6.37133">
        <ele>1143.9</ele>
        <time>2021-09-07T07:52:37.000Z</time>
      </trkpt>
      <trkpt lat="43.76793" lon="6.37132">
        <ele>1143.9</ele>
        <time>2021-09-07T07:52:37.000Z</time>
      </trkpt>
      <trkpt lat="43.76791" lon="6.37131">
        <ele>1144.4</ele>
        <time>2021-09-07T07:52:38.000Z</time>
      </trkpt>
      <trkpt lat="43.76788" lon="6.37125">
        <ele>1145.3</ele>
        <time>2021-09-07T07:52:43.000Z</time>
      </trkpt>
      <trkpt lat="43.76783" lon="6.37124">
        <ele>1145.6</ele>
        <time>2021-09-07T07:52:44.000Z</time>
      </trkpt>
      <trkpt lat="43.76781" lon="6.37123">
        <ele>1146</ele>
        <time>2021-09-07T07:52:45.000Z</time>
      </trkpt>
      <trkpt lat="43.76781" lon="6.37123">
        <ele>1145.9</ele>
        <time>2021-09-07T07:52:46.000Z</time>
      </trkpt>
      <trkpt lat="43.76779" lon="6.37121">
        <ele>1146.3</ele>
        <time>2021-09-07T07:52:47.000Z</time>
      </trkpt>
      <trkpt lat="43.76775" lon="6.37113">
        <ele>1147</ele>
        <time>2021-09-07T07:52:49.000Z</time>
      </trkpt>
      <trkpt lat="43.76774" lon="6.37112">
        <ele>1147.4</ele>
        <time>2021-09-07T07:52:51.000Z</time>
      </trkpt>
      <trkpt lat="43.76772" lon="6.37111">
        <ele>1147.8</ele>
        <time>2021-09-07T07:52:51.000Z</time>
      </trkpt>
      <trkpt lat="43.76771" lon="6.3711">
        <ele>1147.8</ele>
        <time>2021-09-07T07:52:53.000Z</time>
      </trkpt>
      <trkpt lat="43.76764" lon="6.37106">
        <ele>1148.5</ele>
        <time>2021-09-07T07:52:55.000Z</time>
      </trkpt>
      <trkpt lat="43.76763" lon="6.37103">
        <ele>1148.9</ele>
        <time>2021-09-07T07:52:56.000Z</time>
      </trkpt>
      <trkpt lat="43.76763" lon="6.37104">
        <ele>1148.8</ele>
        <time>2021-09-07T07:52:57.000Z</time>
      </trkpt>
      <trkpt lat="43.76762" lon="6.37101">
        <ele>1149</ele>
        <time>2021-09-07T07:52:58.000Z</time>
      </trkpt>
      <trkpt lat="43.76761" lon="6.37098">
        <ele>1149.2</ele>
        <time>2021-09-07T07:52:58.000Z</time>
      </trkpt>
      <trkpt lat="43.76759" lon="6.37095">
        <ele>1149.3</ele>
        <time>2021-09-07T07:52:59.000Z</time>
      </trkpt>
      <trkpt lat="43.76757" lon="6.37093">
        <ele>1149.7</ele>
        <time>2021-09-07T07:53:00.000Z</time>
      </trkpt>
      <trkpt lat="43.76755" lon="6.37092">
        <ele>1149.6</ele>
        <time>2021-09-07T07:53:01.000Z</time>
      </trkpt>
      <trkpt lat="43.76751" lon="6.37088">
        <ele>1150.4</ele>
        <time>2021-09-07T07:53:03.000Z</time>
      </trkpt>
      <trkpt lat="43.7675" lon="6.37086">
        <ele>1150.7</ele>
        <time>2021-09-07T07:53:05.000Z</time>
      </trkpt>
      <trkpt lat="43.76749" lon="6.3708">
        <ele>1151.2</ele>
        <time>2021-09-07T07:53:06.000Z</time>
      </trkpt>
      <trkpt lat="43.76747" lon="6.3708">
        <ele>1151.4</ele>
        <time>2021-09-07T07:53:08.000Z</time>
      </trkpt>
      <trkpt lat="43.76745" lon="6.37079">
        <ele>1151.4</ele>
        <time>2021-09-07T07:53:08.000Z</time>
      </trkpt>
      <trkpt lat="43.76744" lon="6.37079">
        <ele>1151.3</ele>
        <time>2021-09-07T07:53:09.000Z</time>
      </trkpt>
      <trkpt lat="43.76744" lon="6.37079">
        <ele>1151.3</ele>
        <time>2021-09-07T07:53:10.000Z</time>
      </trkpt>
      <trkpt lat="43.76742" lon="6.37077">
        <ele>1151.6</ele>
        <time>2021-09-07T07:53:11.000Z</time>
      </trkpt>
      <trkpt lat="43.76741" lon="6.37073">
        <ele>1152.3</ele>
        <time>2021-09-07T07:53:11.000Z</time>
      </trkpt>
      <trkpt lat="43.7674" lon="6.3707">
        <ele>1152.5</ele>
        <time>2021-09-07T07:53:13.000Z</time>
      </trkpt>
      <trkpt lat="43.76739" lon="6.37066">
        <ele>1152.6</ele>
        <time>2021-09-07T07:53:13.000Z</time>
      </trkpt>
      <trkpt lat="43.76739" lon="6.37066">
        <ele>1152.6</ele>
        <time>2021-09-07T07:53:13.000Z</time>
      </trkpt>
      <trkpt lat="43.76738" lon="6.37064">
        <ele>1152.7</ele>
        <time>2021-09-07T07:53:15.000Z</time>
      </trkpt>
      <trkpt lat="43.76736" lon="6.37062">
        <ele>1153</ele>
        <time>2021-09-07T07:53:15.000Z</time>
      </trkpt>
      <trkpt lat="43.76735" lon="6.37061">
        <ele>1153</ele>
        <time>2021-09-07T07:53:17.000Z</time>
      </trkpt>
      <trkpt lat="43.76732" lon="6.37059">
        <ele>1153.8</ele>
        <time>2021-09-07T07:53:18.000Z</time>
      </trkpt>
      <trkpt lat="43.76731" lon="6.37058">
        <ele>1154</ele>
        <time>2021-09-07T07:53:20.000Z</time>
      </trkpt>
      <trkpt lat="43.7673" lon="6.37053">
        <ele>1154.4</ele>
        <time>2021-09-07T07:53:20.000Z</time>
      </trkpt>
      <trkpt lat="43.76729" lon="6.3705">
        <ele>1154.6</ele>
        <time>2021-09-07T07:53:21.000Z</time>
      </trkpt>
      <trkpt lat="43.76729" lon="6.37051">
        <ele>1154.5</ele>
        <time>2021-09-07T07:53:22.000Z</time>
      </trkpt>
      <trkpt lat="43.76728" lon="6.37048">
        <ele>1154.8</ele>
        <time>2021-09-07T07:53:23.000Z</time>
      </trkpt>
      <trkpt lat="43.76722" lon="6.3704">
        <ele>1155.7</ele>
        <time>2021-09-07T07:53:26.000Z</time>
      </trkpt>
      <trkpt lat="43.7672" lon="6.37039">
        <ele>1156</ele>
        <time>2021-09-07T07:53:27.000Z</time>
      </trkpt>
      <trkpt lat="43.76715" lon="6.3703">
        <ele>1156.7</ele>
        <time>2021-09-07T07:53:31.000Z</time>
      </trkpt>
      <trkpt lat="43.76714" lon="6.37028">
        <ele>1157</ele>
        <time>2021-09-07T07:53:32.000Z</time>
      </trkpt>
      <trkpt lat="43.76716" lon="6.37031">
        <ele>1156.5</ele>
        <time>2021-09-07T07:53:32.000Z</time>
      </trkpt>
      <trkpt lat="43.76715" lon="6.37029">
        <ele>1157</ele>
        <time>2021-09-07T07:53:33.000Z</time>
      </trkpt>
      <trkpt lat="43.76713" lon="6.37026">
        <ele>1157</ele>
        <time>2021-09-07T07:53:34.000Z</time>
      </trkpt>
      <trkpt lat="43.76709" lon="6.37023">
        <ele>1157.9</ele>
        <time>2021-09-07T07:53:35.000Z</time>
      </trkpt>
      <trkpt lat="43.76708" lon="6.3702">
        <ele>1158.1</ele>
        <time>2021-09-07T07:53:37.000Z</time>
      </trkpt>
      <trkpt lat="43.76706" lon="6.37014">
        <ele>1158.3</ele>
        <time>2021-09-07T07:53:38.000Z</time>
      </trkpt>
      <trkpt lat="43.76704" lon="6.37012">
        <ele>1158.7</ele>
        <time>2021-09-07T07:53:39.000Z</time>
      </trkpt>
      <trkpt lat="43.76705" lon="6.37012">
        <ele>1158.5</ele>
        <time>2021-09-07T07:53:40.000Z</time>
      </trkpt>
      <trkpt lat="43.76702" lon="6.3701">
        <ele>1158.9</ele>
        <time>2021-09-07T07:53:40.000Z</time>
      </trkpt>
      <trkpt lat="43.76698" lon="6.37009">
        <ele>1159.3</ele>
        <time>2021-09-07T07:53:42.000Z</time>
      </trkpt>
      <trkpt lat="43.76698" lon="6.37008">
        <ele>1159.5</ele>
        <time>2021-09-07T07:53:44.000Z</time>
      </trkpt>
      <trkpt lat="43.76696" lon="6.37003">
        <ele>1159.5</ele>
        <time>2021-09-07T07:53:44.000Z</time>
      </trkpt>
      <trkpt lat="43.76696" lon="6.37">
        <ele>1159.8</ele>
        <time>2021-09-07T07:53:45.000Z</time>
      </trkpt>
      <trkpt lat="43.76696" lon="6.37001">
        <ele>1159.7</ele>
        <time>2021-09-07T07:53:46.000Z</time>
      </trkpt>
      <trkpt lat="43.76695" lon="6.36997">
        <ele>1160.1</ele>
        <time>2021-09-07T07:53:46.000Z</time>
      </trkpt>
      <trkpt lat="43.76689" lon="6.36992">
        <ele>1160.6</ele>
        <time>2021-09-07T07:53:49.000Z</time>
      </trkpt>
      <trkpt lat="43.76687" lon="6.3699">
        <ele>1160.9</ele>
        <time>2021-09-07T07:53:50.000Z</time>
      </trkpt>
      <trkpt lat="43.76687" lon="6.36991">
        <ele>1160.7</ele>
        <time>2021-09-07T07:53:51.000Z</time>
      </trkpt>
      <trkpt lat="43.76686" lon="6.36988">
        <ele>1160.9</ele>
        <time>2021-09-07T07:53:52.000Z</time>
      </trkpt>
      <trkpt lat="43.76683" lon="6.36983">
        <ele>1161.5</ele>
        <time>2021-09-07T07:53:53.000Z</time>
      </trkpt>
      <trkpt lat="43.76682" lon="6.36982">
        <ele>1161.5</ele>
        <time>2021-09-07T07:53:54.000Z</time>
      </trkpt>
      <trkpt lat="43.76682" lon="6.36982">
        <ele>1161.5</ele>
        <time>2021-09-07T07:53:55.000Z</time>
      </trkpt>
      <trkpt lat="43.7668" lon="6.36981">
        <ele>1161.8</ele>
        <time>2021-09-07T07:53:56.000Z</time>
      </trkpt>
      <trkpt lat="43.76677" lon="6.36979">
        <ele>1162.3</ele>
        <time>2021-09-07T07:53:56.000Z</time>
      </trkpt>
      <trkpt lat="43.76676" lon="6.36978">
        <ele>1162.5</ele>
        <time>2021-09-07T07:53:58.000Z</time>
      </trkpt>
      <trkpt lat="43.76674" lon="6.36976">
        <ele>1162.9</ele>
        <time>2021-09-07T07:53:58.000Z</time>
      </trkpt>
      <trkpt lat="43.76673" lon="6.36974">
        <ele>1163</ele>
        <time>2021-09-07T07:53:59.000Z</time>
      </trkpt>
      <trkpt lat="43.76673" lon="6.36971">
        <ele>1163.2</ele>
        <time>2021-09-07T07:54:00.000Z</time>
      </trkpt>
      <trkpt lat="43.76673" lon="6.36974">
        <ele>1163</ele>
        <time>2021-09-07T07:54:00.000Z</time>
      </trkpt>
      <trkpt lat="43.76673" lon="6.36972">
        <ele>1163</ele>
        <time>2021-09-07T07:54:01.000Z</time>
      </trkpt>
      <trkpt lat="43.76672" lon="6.36969">
        <ele>1163.5</ele>
        <time>2021-09-07T07:54:02.000Z</time>
      </trkpt>
      <trkpt lat="43.76668" lon="6.36968">
        <ele>1164</ele>
        <time>2021-09-07T07:54:03.000Z</time>
      </trkpt>
      <trkpt lat="43.76666" lon="6.36967">
        <ele>1163.9</ele>
        <time>2021-09-07T07:54:04.000Z</time>
      </trkpt>
      <trkpt lat="43.76665" lon="6.36965">
        <ele>1164.2</ele>
        <time>2021-09-07T07:54:05.000Z</time>
      </trkpt>
      <trkpt lat="43.76664" lon="6.36963">
        <ele>1164.4</ele>
        <time>2021-09-07T07:54:07.000Z</time>
      </trkpt>
      <trkpt lat="43.76663" lon="6.36958">
        <ele>1164.7</ele>
        <time>2021-09-07T07:54:07.000Z</time>
      </trkpt>
      <trkpt lat="43.76661" lon="6.36955">
        <ele>1164.9</ele>
        <time>2021-09-07T07:54:08.000Z</time>
      </trkpt>
      <trkpt lat="43.76659" lon="6.36953">
        <ele>1165</ele>
        <time>2021-09-07T07:54:09.000Z</time>
      </trkpt>
      <trkpt lat="43.76662" lon="6.36957">
        <ele>1164.7</ele>
        <time>2021-09-07T07:54:09.000Z</time>
      </trkpt>
      <trkpt lat="43.7666" lon="6.36954">
        <ele>1165</ele>
        <time>2021-09-07T07:54:10.000Z</time>
      </trkpt>
      <trkpt lat="43.76658" lon="6.36952">
        <ele>1165.1</ele>
        <time>2021-09-07T07:54:11.000Z</time>
      </trkpt>
      <trkpt lat="43.76654" lon="6.36949">
        <ele>1165.7</ele>
        <time>2021-09-07T07:54:12.000Z</time>
      </trkpt>
      <trkpt lat="43.76652" lon="6.36948">
        <ele>1165.8</ele>
        <time>2021-09-07T07:54:13.000Z</time>
      </trkpt>
      <trkpt lat="43.76651" lon="6.36946">
        <ele>1166.1</ele>
        <time>2021-09-07T07:54:14.000Z</time>
      </trkpt>
      <trkpt lat="43.7665" lon="6.36944">
        <ele>1166.3</ele>
        <time>2021-09-07T07:54:16.000Z</time>
      </trkpt>
      <trkpt lat="43.76646" lon="6.36939">
        <ele>1167.1</ele>
        <time>2021-09-07T07:54:18.000Z</time>
      </trkpt>
      <trkpt lat="43.76646" lon="6.36937">
        <ele>1167.4</ele>
        <time>2021-09-07T07:54:19.000Z</time>
      </trkpt>
      <trkpt lat="43.76646" lon="6.36938">
        <ele>1167.3</ele>
        <time>2021-09-07T07:54:20.000Z</time>
      </trkpt>
      <trkpt lat="43.76644" lon="6.36936">
        <ele>1167.5</ele>
        <time>2021-09-07T07:54:20.000Z</time>
      </trkpt>
      <trkpt lat="43.7664" lon="6.36935">
        <ele>1167.9</ele>
        <time>2021-09-07T07:54:22.000Z</time>
      </trkpt>
      <trkpt lat="43.76638" lon="6.36933">
        <ele>1168.2</ele>
        <time>2021-09-07T07:54:24.000Z</time>
      </trkpt>
      <trkpt lat="43.76637" lon="6.3693">
        <ele>1168.5</ele>
        <time>2021-09-07T07:54:24.000Z</time>
      </trkpt>
      <trkpt lat="43.76636" lon="6.36928">
        <ele>1168.7</ele>
        <time>2021-09-07T07:54:26.000Z</time>
      </trkpt>
      <trkpt lat="43.76633" lon="6.36923">
        <ele>1169.1</ele>
        <time>2021-09-07T07:54:27.000Z</time>
      </trkpt>
      <trkpt lat="43.76631" lon="6.36922">
        <ele>1169.4</ele>
        <time>2021-09-07T07:54:28.000Z</time>
      </trkpt>
      <trkpt lat="43.76632" lon="6.36922">
        <ele>1169.3</ele>
        <time>2021-09-07T07:54:29.000Z</time>
      </trkpt>
      <trkpt lat="43.7663" lon="6.36921">
        <ele>1169.7</ele>
        <time>2021-09-07T07:54:30.000Z</time>
      </trkpt>
      <trkpt lat="43.76626" lon="6.36917">
        <ele>1170.2</ele>
        <time>2021-09-07T07:54:31.000Z</time>
      </trkpt>
      <trkpt lat="43.76624" lon="6.36914">
        <ele>1170.1</ele>
        <time>2021-09-07T07:54:32.000Z</time>
      </trkpt>
      <trkpt lat="43.76623" lon="6.36911">
        <ele>1170.5</ele>
        <time>2021-09-07T07:54:33.000Z</time>
      </trkpt>
      <trkpt lat="43.76625" lon="6.36916">
        <ele>1170.2</ele>
        <time>2021-09-07T07:54:33.000Z</time>
      </trkpt>
      <trkpt lat="43.76622" lon="6.36908">
        <ele>1170.8</ele>
        <time>2021-09-07T07:54:34.000Z</time>
      </trkpt>
      <trkpt lat="43.76624" lon="6.36913">
        <ele>1170.2</ele>
        <time>2021-09-07T07:54:34.000Z</time>
      </trkpt>
      <trkpt lat="43.76623" lon="6.36909">
        <ele>1170.8</ele>
        <time>2021-09-07T07:54:35.000Z</time>
      </trkpt>
      <trkpt lat="43.76621" lon="6.36907">
        <ele>1170.8</ele>
        <time>2021-09-07T07:54:36.000Z</time>
      </trkpt>
      <trkpt lat="43.76618" lon="6.36905">
        <ele>1171.2</ele>
        <time>2021-09-07T07:54:36.000Z</time>
      </trkpt>
      <trkpt lat="43.76617" lon="6.36904">
        <ele>1171.3</ele>
        <time>2021-09-07T07:54:38.000Z</time>
      </trkpt>
      <trkpt lat="43.76613" lon="6.36898">
        <ele>1172</ele>
        <time>2021-09-07T07:54:39.000Z</time>
      </trkpt>
      <trkpt lat="43.76611" lon="6.36896">
        <ele>1172.4</ele>
        <time>2021-09-07T07:54:40.000Z</time>
      </trkpt>
      <trkpt lat="43.76612" lon="6.36897">
        <ele>1172.1</ele>
        <time>2021-09-07T07:54:41.000Z</time>
      </trkpt>
      <trkpt lat="43.76609" lon="6.36895">
        <ele>1172.6</ele>
        <time>2021-09-07T07:54:42.000Z</time>
      </trkpt>
      <trkpt lat="43.76607" lon="6.36893">
        <ele>1172.7</ele>
        <time>2021-09-07T07:54:42.000Z</time>
      </trkpt>
      <trkpt lat="43.76605" lon="6.36892">
        <ele>1173</ele>
        <time>2021-09-07T07:54:43.000Z</time>
      </trkpt>
      <trkpt lat="43.76603" lon="6.36889">
        <ele>1173</ele>
        <time>2021-09-07T07:54:44.000Z</time>
      </trkpt>
      <trkpt lat="43.76606" lon="6.36892">
        <ele>1172.9</ele>
        <time>2021-09-07T07:54:44.000Z</time>
      </trkpt>
      <trkpt lat="43.76604" lon="6.3689">
        <ele>1172.9</ele>
        <time>2021-09-07T07:54:45.000Z</time>
      </trkpt>
      <trkpt lat="43.76602" lon="6.36888">
        <ele>1173.3</ele>
        <time>2021-09-07T07:54:46.000Z</time>
      </trkpt>
      <trkpt lat="43.76596" lon="6.36884">
        <ele>1174.3</ele>
        <time>2021-09-07T07:54:48.000Z</time>
      </trkpt>
      <trkpt lat="43.76595" lon="6.36883">
        <ele>1174.5</ele>
        <time>2021-09-07T07:54:49.000Z</time>
      </trkpt>
      <trkpt lat="43.76593" lon="6.3688">
        <ele>1174.9</ele>
        <time>2021-09-07T07:54:51.000Z</time>
      </trkpt>
      <trkpt lat="43.76593" lon="6.36878">
        <ele>1174.9</ele>
        <time>2021-09-07T07:54:53.000Z</time>
      </trkpt>
      <trkpt lat="43.76593" lon="6.36876">
        <ele>1174.9</ele>
        <time>2021-09-07T07:54:53.000Z</time>
      </trkpt>
      <trkpt lat="43.76592" lon="6.36875">
        <ele>1175.3</ele>
        <time>2021-09-07T07:54:54.000Z</time>
      </trkpt>
      <trkpt lat="43.76592" lon="6.36875">
        <ele>1175.1</ele>
        <time>2021-09-07T07:54:55.000Z</time>
      </trkpt>
      <trkpt lat="43.7659" lon="6.36874">
        <ele>1175.5</ele>
        <time>2021-09-07T07:54:55.000Z</time>
      </trkpt>
      <trkpt lat="43.76589" lon="6.36875">
        <ele>1175.7</ele>
        <time>2021-09-07T07:54:56.000Z</time>
      </trkpt>
      <trkpt lat="43.76588" lon="6.36875">
        <ele>1175.9</ele>
        <time>2021-09-07T07:54:57.000Z</time>
      </trkpt>
      <trkpt lat="43.76587" lon="6.36874">
        <ele>1176.2</ele>
        <time>2021-09-07T07:54:58.000Z</time>
      </trkpt>
      <trkpt lat="43.76589" lon="6.36875">
        <ele>1175.8</ele>
        <time>2021-09-07T07:54:58.000Z</time>
      </trkpt>
      <trkpt lat="43.76586" lon="6.36873">
        <ele>1176.8</ele>
        <time>2021-09-07T07:54:59.000Z</time>
      </trkpt>
      <trkpt lat="43.76587" lon="6.36875">
        <ele>1176.1</ele>
        <time>2021-09-07T07:54:59.000Z</time>
      </trkpt>
      <trkpt lat="43.76586" lon="6.36874">
        <ele>1176.6</ele>
        <time>2021-09-07T07:55:00.000Z</time>
      </trkpt>
      <trkpt lat="43.76585" lon="6.36872">
        <ele>1177</ele>
        <time>2021-09-07T07:55:00.000Z</time>
      </trkpt>
      <trkpt lat="43.76581" lon="6.36867">
        <ele>1177.4</ele>
        <time>2021-09-07T07:55:03.000Z</time>
      </trkpt>
      <trkpt lat="43.76578" lon="6.36866">
        <ele>1177.6</ele>
        <time>2021-09-07T07:55:04.000Z</time>
      </trkpt>
      <trkpt lat="43.76571" lon="6.36854">
        <ele>1179</ele>
        <time>2021-09-07T07:55:10.000Z</time>
      </trkpt>
      <trkpt lat="43.76561" lon="6.36845">
        <ele>1179.8</ele>
        <time>2021-09-07T07:55:14.000Z</time>
      </trkpt>
      <trkpt lat="43.76561" lon="6.36847">
        <ele>1179.8</ele>
        <time>2021-09-07T07:55:15.000Z</time>
      </trkpt>
      <trkpt lat="43.76561" lon="6.36843">
        <ele>1179.5</ele>
        <time>2021-09-07T07:55:15.000Z</time>
      </trkpt>
      <trkpt lat="43.76561" lon="6.36843">
        <ele>1179.5</ele>
        <time>2021-09-07T07:55:15.000Z</time>
      </trkpt>
      <trkpt lat="43.76559" lon="6.36838">
        <ele>1180.1</ele>
        <time>2021-09-07T07:55:18.000Z</time>
      </trkpt>
      <trkpt lat="43.76558" lon="6.36836">
        <ele>1180.2</ele>
        <time>2021-09-07T07:55:19.000Z</time>
      </trkpt>
      <trkpt lat="43.76557" lon="6.36836">
        <ele>1180.2</ele>
        <time>2021-09-07T07:55:20.000Z</time>
      </trkpt>
      <trkpt lat="43.76555" lon="6.36837">
        <ele>1180.4</ele>
        <time>2021-09-07T07:55:21.000Z</time>
      </trkpt>
      <trkpt lat="43.76547" lon="6.36832">
        <ele>1181</ele>
        <time>2021-09-07T07:55:26.000Z</time>
      </trkpt>
      <trkpt lat="43.76545" lon="6.36832">
        <ele>1181.2</ele>
        <time>2021-09-07T07:55:27.000Z</time>
      </trkpt>
      <trkpt lat="43.76543" lon="6.36831">
        <ele>1181.2</ele>
        <time>2021-09-07T07:55:28.000Z</time>
      </trkpt>
      <trkpt lat="43.76537" lon="6.36833">
        <ele>1181.3</ele>
        <time>2021-09-07T07:55:33.000Z</time>
      </trkpt>
      <trkpt lat="43.76538" lon="6.36837">
        <ele>1181.2</ele>
        <time>2021-09-07T07:55:37.000Z</time>
      </trkpt>
      <trkpt lat="43.76537" lon="6.36836">
        <ele>1181.6</ele>
        <time>2021-09-07T07:55:37.000Z</time>
      </trkpt>
      <trkpt lat="43.76537" lon="6.36837">
        <ele>1181.2</ele>
        <time>2021-09-07T07:55:38.000Z</time>
      </trkpt>
      <trkpt lat="43.7654" lon="6.36836">
        <ele>1181.1</ele>
        <time>2021-09-07T07:55:38.000Z</time>
      </trkpt>
      <trkpt lat="43.76548" lon="6.36837">
        <ele>1180.7</ele>
        <time>2021-09-07T07:55:43.000Z</time>
      </trkpt>
      <trkpt lat="43.76553" lon="6.36841">
        <ele>1180</ele>
        <time>2021-09-07T07:55:48.000Z</time>
      </trkpt>
      <trkpt lat="43.76555" lon="6.36845">
        <ele>1179.7</ele>
        <time>2021-09-07T07:55:53.000Z</time>
      </trkpt>
      <trkpt lat="43.76557" lon="6.36847">
        <ele>1179.4</ele>
        <time>2021-09-07T07:55:56.000Z</time>
      </trkpt>
      <trkpt lat="43.76557" lon="6.36848">
        <ele>1179.3</ele>
        <time>2021-09-07T07:55:58.000Z</time>
      </trkpt>
      <trkpt lat="43.76561" lon="6.36855">
        <ele>1178.6</ele>
        <time>2021-09-07T07:56:01.000Z</time>
      </trkpt>
      <trkpt lat="43.76562" lon="6.36857">
        <ele>1178.5</ele>
        <time>2021-09-07T07:56:02.000Z</time>
      </trkpt>
      <trkpt lat="43.76564" lon="6.3686">
        <ele>1177.6</ele>
        <time>2021-09-07T07:56:08.000Z</time>
      </trkpt>
      <trkpt lat="43.76565" lon="6.36862">
        <ele>1177.6</ele>
        <time>2021-09-07T07:56:09.000Z</time>
      </trkpt>
      <trkpt lat="43.76566" lon="6.36863">
        <ele>1177.4</ele>
        <time>2021-09-07T07:56:09.000Z</time>
      </trkpt>
      <trkpt lat="43.76572" lon="6.3687">
        <ele>1176.4</ele>
        <time>2021-09-07T07:56:14.000Z</time>
      </trkpt>
      <trkpt lat="43.76573" lon="6.36872">
        <ele>1175.7</ele>
        <time>2021-09-07T07:56:19.000Z</time>
      </trkpt>
      <trkpt lat="43.76575" lon="6.36877">
        <ele>1175.3</ele>
        <time>2021-09-07T07:56:24.000Z</time>
      </trkpt>
      <trkpt lat="43.76577" lon="6.36879">
        <ele>1174.5</ele>
        <time>2021-09-07T07:56:29.000Z</time>
      </trkpt>
      <trkpt lat="43.76575" lon="6.36877">
        <ele>1175.2</ele>
        <time>2021-09-07T07:56:34.000Z</time>
      </trkpt>
      <trkpt lat="43.7657" lon="6.36867">
        <ele>1176.4</ele>
        <time>2021-09-07T07:56:39.000Z</time>
      </trkpt>
      <trkpt lat="43.76562" lon="6.3686">
        <ele>1177.1</ele>
        <time>2021-09-07T07:56:44.000Z</time>
      </trkpt>
      <trkpt lat="43.76556" lon="6.36854">
        <ele>1177.8</ele>
        <time>2021-09-07T07:56:49.000Z</time>
      </trkpt>
      <trkpt lat="43.76552" lon="6.36846">
        <ele>1179</ele>
        <time>2021-09-07T07:56:54.000Z</time>
      </trkpt>
      <trkpt lat="43.76547" lon="6.36838">
        <ele>1179.7</ele>
        <time>2021-09-07T07:56:59.000Z</time>
      </trkpt>
      <trkpt lat="43.76542" lon="6.36828">
        <ele>1181</ele>
        <time>2021-09-07T07:57:04.000Z</time>
      </trkpt>
      <trkpt lat="43.76533" lon="6.36827">
        <ele>1181.6</ele>
        <time>2021-09-07T07:57:09.000Z</time>
      </trkpt>
      <trkpt lat="43.76524" lon="6.36836">
        <ele>1182.2</ele>
        <time>2021-09-07T07:57:14.000Z</time>
      </trkpt>
      <trkpt lat="43.76519" lon="6.36845">
        <ele>1182.8</ele>
        <time>2021-09-07T07:57:19.000Z</time>
      </trkpt>
      <trkpt lat="43.76523" lon="6.36859">
        <ele>1183.5</ele>
        <time>2021-09-07T07:57:24.000Z</time>
      </trkpt>
      <trkpt lat="43.76526" lon="6.36872">
        <ele>1184</ele>
        <time>2021-09-07T07:57:29.000Z</time>
      </trkpt>
      <trkpt lat="43.76531" lon="6.36883">
        <ele>1185.1</ele>
        <time>2021-09-07T07:57:34.000Z</time>
      </trkpt>
      <trkpt lat="43.76536" lon="6.36894">
        <ele>1185.9</ele>
        <time>2021-09-07T07:57:39.000Z</time>
      </trkpt>
      <trkpt lat="43.76538" lon="6.36907">
        <ele>1187</ele>
        <time>2021-09-07T07:57:44.000Z</time>
      </trkpt>
      <trkpt lat="43.76541" lon="6.36922">
        <ele>1188.2</ele>
        <time>2021-09-07T07:57:49.000Z</time>
      </trkpt>
      <trkpt lat="43.76543" lon="6.36934">
        <ele>1189.1</ele>
        <time>2021-09-07T07:57:54.000Z</time>
      </trkpt>
      <trkpt lat="43.76545" lon="6.36946">
        <ele>1190.4</ele>
        <time>2021-09-07T07:57:59.000Z</time>
      </trkpt>
      <trkpt lat="43.76546" lon="6.36958">
        <ele>1191.3</ele>
        <time>2021-09-07T07:58:04.000Z</time>
      </trkpt>
      <trkpt lat="43.76548" lon="6.3697">
        <ele>1192.4</ele>
        <time>2021-09-07T07:58:09.000Z</time>
      </trkpt>
      <trkpt lat="43.76547" lon="6.36977">
        <ele>1193.2</ele>
        <time>2021-09-07T07:58:12.000Z</time>
      </trkpt>
      <trkpt lat="43.76547" lon="6.36979">
        <ele>1193.7</ele>
        <time>2021-09-07T07:58:14.000Z</time>
      </trkpt>
      <trkpt lat="43.76547" lon="6.36988">
        <ele>1194.2</ele>
        <time>2021-09-07T07:58:16.000Z</time>
      </trkpt>
      <trkpt lat="43.76548" lon="6.36991">
        <ele>1194.4</ele>
        <time>2021-09-07T07:58:18.000Z</time>
      </trkpt>
      <trkpt lat="43.76548" lon="6.36994">
        <ele>1194.6</ele>
        <time>2021-09-07T07:58:18.000Z</time>
      </trkpt>
      <trkpt lat="43.76548" lon="6.36997">
        <ele>1194.5</ele>
        <time>2021-09-07T07:58:19.000Z</time>
      </trkpt>
      <trkpt lat="43.76548" lon="6.36996">
        <ele>1194.5</ele>
        <time>2021-09-07T07:58:20.000Z</time>
      </trkpt>
      <trkpt lat="43.76548" lon="6.36999">
        <ele>1194.7</ele>
        <time>2021-09-07T07:58:20.000Z</time>
      </trkpt>
      <trkpt lat="43.76548" lon="6.36999">
        <ele>1194.7</ele>
        <time>2021-09-07T07:58:20.000Z</time>
      </trkpt>
      <trkpt lat="43.76548" lon="6.37007">
        <ele>1195.3</ele>
        <time>2021-09-07T07:58:25.000Z</time>
      </trkpt>
      <trkpt lat="43.76549" lon="6.37013">
        <ele>1195.8</ele>
        <time>2021-09-07T07:58:26.000Z</time>
      </trkpt>
      <trkpt lat="43.76548" lon="6.37015">
        <ele>1196.1</ele>
        <time>2021-09-07T07:58:28.000Z</time>
      </trkpt>
      <trkpt lat="43.76548" lon="6.3702">
        <ele>1196.6</ele>
        <time>2021-09-07T07:58:29.000Z</time>
      </trkpt>
      <trkpt lat="43.76548" lon="6.37023">
        <ele>1196.6</ele>
        <time>2021-09-07T07:58:30.000Z</time>
      </trkpt>
      <trkpt lat="43.76548" lon="6.37021">
        <ele>1196.6</ele>
        <time>2021-09-07T07:58:31.000Z</time>
      </trkpt>
      <trkpt lat="43.76548" lon="6.37025">
        <ele>1196.7</ele>
        <time>2021-09-07T07:58:32.000Z</time>
      </trkpt>
      <trkpt lat="43.76548" lon="6.37035">
        <ele>1197.5</ele>
        <time>2021-09-07T07:58:35.000Z</time>
      </trkpt>
      <trkpt lat="43.76548" lon="6.37038">
        <ele>1197.6</ele>
        <time>2021-09-07T07:58:36.000Z</time>
      </trkpt>
      <trkpt lat="43.76547" lon="6.37048">
        <ele>1198.3</ele>
        <time>2021-09-07T07:58:40.000Z</time>
      </trkpt>
      <trkpt lat="43.76546" lon="6.3705">
        <ele>1198.6</ele>
        <time>2021-09-07T07:58:41.000Z</time>
      </trkpt>
      <trkpt lat="43.76548" lon="6.37047">
        <ele>1198.2</ele>
        <time>2021-09-07T07:58:41.000Z</time>
      </trkpt>
      <trkpt lat="43.76547" lon="6.37049">
        <ele>1198.5</ele>
        <time>2021-09-07T07:58:42.000Z</time>
      </trkpt>
      <trkpt lat="43.76546" lon="6.37052">
        <ele>1198.7</ele>
        <time>2021-09-07T07:58:43.000Z</time>
      </trkpt>
      <trkpt lat="43.76546" lon="6.37055">
        <ele>1198.9</ele>
        <time>2021-09-07T07:58:43.000Z</time>
      </trkpt>
      <trkpt lat="43.76546" lon="6.37055">
        <ele>1199</ele>
        <time>2021-09-07T07:58:45.000Z</time>
      </trkpt>
      <trkpt lat="43.76547" lon="6.37066">
        <ele>1200</ele>
        <time>2021-09-07T07:58:48.000Z</time>
      </trkpt>
      <trkpt lat="43.76547" lon="6.37067">
        <ele>1200.1</ele>
        <time>2021-09-07T07:58:50.000Z</time>
      </trkpt>
      <trkpt lat="43.76546" lon="6.37069">
        <ele>1200.3</ele>
        <time>2021-09-07T07:58:50.000Z</time>
      </trkpt>
      <trkpt lat="43.76545" lon="6.37071">
        <ele>1200.7</ele>
        <time>2021-09-07T07:58:51.000Z</time>
      </trkpt>
      <trkpt lat="43.76546" lon="6.37074">
        <ele>1201.3</ele>
        <time>2021-09-07T07:58:52.000Z</time>
      </trkpt>
      <trkpt lat="43.76546" lon="6.3707">
        <ele>1200.6</ele>
        <time>2021-09-07T07:58:52.000Z</time>
      </trkpt>
      <trkpt lat="43.76546" lon="6.37073">
        <ele>1201.1</ele>
        <time>2021-09-07T07:58:53.000Z</time>
      </trkpt>
      <trkpt lat="43.76547" lon="6.37075">
        <ele>1201.1</ele>
        <time>2021-09-07T07:58:54.000Z</time>
      </trkpt>
      <trkpt lat="43.76548" lon="6.37083">
        <ele>1201.2</ele>
        <time>2021-09-07T07:58:56.000Z</time>
      </trkpt>
      <trkpt lat="43.76547" lon="6.37084">
        <ele>1201.7</ele>
        <time>2021-09-07T07:58:57.000Z</time>
      </trkpt>
      <trkpt lat="43.76547" lon="6.37084">
        <ele>1201.6</ele>
        <time>2021-09-07T07:58:58.000Z</time>
      </trkpt>
      <trkpt lat="43.76546" lon="6.37086">
        <ele>1201.6</ele>
        <time>2021-09-07T07:58:58.000Z</time>
      </trkpt>
      <trkpt lat="43.76547" lon="6.37094">
        <ele>1203.2</ele>
        <time>2021-09-07T07:59:02.000Z</time>
      </trkpt>
      <trkpt lat="43.76547" lon="6.37097">
        <ele>1203.5</ele>
        <time>2021-09-07T07:59:03.000Z</time>
      </trkpt>
      <trkpt lat="43.76547" lon="6.37093">
        <ele>1203</ele>
        <time>2021-09-07T07:59:03.000Z</time>
      </trkpt>
      <trkpt lat="43.76547" lon="6.37096">
        <ele>1203.4</ele>
        <time>2021-09-07T07:59:04.000Z</time>
      </trkpt>
      <trkpt lat="43.76546" lon="6.37098">
        <ele>1203.6</ele>
        <time>2021-09-07T07:59:05.000Z</time>
      </trkpt>
      <trkpt lat="43.76544" lon="6.37104">
        <ele>1204.3</ele>
        <time>2021-09-07T07:59:07.000Z</time>
      </trkpt>
      <trkpt lat="43.76544" lon="6.37105">
        <ele>1204.6</ele>
        <time>2021-09-07T07:59:08.000Z</time>
      </trkpt>
      <trkpt lat="43.76547" lon="6.3711">
        <ele>1205</ele>
        <time>2021-09-07T07:59:10.000Z</time>
      </trkpt>
      <trkpt lat="43.76548" lon="6.37113">
        <ele>1205.1</ele>
        <time>2021-09-07T07:59:11.000Z</time>
      </trkpt>
      <trkpt lat="43.76547" lon="6.37112">
        <ele>1205</ele>
        <time>2021-09-07T07:59:12.000Z</time>
      </trkpt>
      <trkpt lat="43.76547" lon="6.37114">
        <ele>1205.5</ele>
        <time>2021-09-07T07:59:13.000Z</time>
      </trkpt>
      <trkpt lat="43.76546" lon="6.37116">
        <ele>1205.6</ele>
        <time>2021-09-07T07:59:13.000Z</time>
      </trkpt>
      <trkpt lat="43.76545" lon="6.37118">
        <ele>1205.9</ele>
        <time>2021-09-07T07:59:14.000Z</time>
      </trkpt>
      <trkpt lat="43.76546" lon="6.37117">
        <ele>1205.8</ele>
        <time>2021-09-07T07:59:15.000Z</time>
      </trkpt>
      <trkpt lat="43.76545" lon="6.37118">
        <ele>1205.9</ele>
        <time>2021-09-07T07:59:16.000Z</time>
      </trkpt>
      <trkpt lat="43.76545" lon="6.37122">
        <ele>1206.3</ele>
        <time>2021-09-07T07:59:16.000Z</time>
      </trkpt>
      <trkpt lat="43.76548" lon="6.37127">
        <ele>1207</ele>
        <time>2021-09-07T07:59:19.000Z</time>
      </trkpt>
      <trkpt lat="43.76548" lon="6.3713">
        <ele>1207</ele>
        <time>2021-09-07T07:59:20.000Z</time>
      </trkpt>
      <trkpt lat="43.76548" lon="6.37129">
        <ele>1206.9</ele>
        <time>2021-09-07T07:59:21.000Z</time>
      </trkpt>
      <trkpt lat="43.76547" lon="6.37132">
        <ele>1207.2</ele>
        <time>2021-09-07T07:59:22.000Z</time>
      </trkpt>
      <trkpt lat="43.76547" lon="6.37134">
        <ele>1207.3</ele>
        <time>2021-09-07T07:59:22.000Z</time>
      </trkpt>
      <trkpt lat="43.76547" lon="6.37135">
        <ele>1207.4</ele>
        <time>2021-09-07T07:59:24.000Z</time>
      </trkpt>
      <trkpt lat="43.76547" lon="6.37143">
        <ele>1208.6</ele>
        <time>2021-09-07T07:59:26.000Z</time>
      </trkpt>
      <trkpt lat="43.76548" lon="6.37145">
        <ele>1208.6</ele>
        <time>2021-09-07T07:59:28.000Z</time>
      </trkpt>
      <trkpt lat="43.76549" lon="6.37148">
        <ele>1208.8</ele>
        <time>2021-09-07T07:59:28.000Z</time>
      </trkpt>
      <trkpt lat="43.7655" lon="6.3715">
        <ele>1208.8</ele>
        <time>2021-09-07T07:59:30.000Z</time>
      </trkpt>
      <trkpt lat="43.76548" lon="6.37156">
        <ele>1209.5</ele>
        <time>2021-09-07T07:59:32.000Z</time>
      </trkpt>
      <trkpt lat="43.76548" lon="6.37157">
        <ele>1210</ele>
        <time>2021-09-07T07:59:33.000Z</time>
      </trkpt>
      <trkpt lat="43.76548" lon="6.37157">
        <ele>1209.8</ele>
        <time>2021-09-07T07:59:34.000Z</time>
      </trkpt>
      <trkpt lat="43.76548" lon="6.3716">
        <ele>1210.2</ele>
        <time>2021-09-07T07:59:34.000Z</time>
      </trkpt>
      <trkpt lat="43.76551" lon="6.37165">
        <ele>1210.5</ele>
        <time>2021-09-07T07:59:37.000Z</time>
      </trkpt>
      <trkpt lat="43.76551" lon="6.37167">
        <ele>1210.6</ele>
        <time>2021-09-07T07:59:39.000Z</time>
      </trkpt>
      <trkpt lat="43.76548" lon="6.3717">
        <ele>1211.5</ele>
        <time>2021-09-07T07:59:40.000Z</time>
      </trkpt>
      <trkpt lat="43.76548" lon="6.37172">
        <ele>1211.5</ele>
        <time>2021-09-07T07:59:42.000Z</time>
      </trkpt>
      <trkpt lat="43.76549" lon="6.37174">
        <ele>1211.5</ele>
        <time>2021-09-07T07:59:42.000Z</time>
      </trkpt>
      <trkpt lat="43.7655" lon="6.37175">
        <ele>1211.3</ele>
        <time>2021-09-07T07:59:44.000Z</time>
      </trkpt>
      <trkpt lat="43.76551" lon="6.37178">
        <ele>1211.8</ele>
        <time>2021-09-07T07:59:44.000Z</time>
      </trkpt>
      <trkpt lat="43.76551" lon="6.37182">
        <ele>1212.3</ele>
        <time>2021-09-07T07:59:45.000Z</time>
      </trkpt>
      <trkpt lat="43.7655" lon="6.37185">
        <ele>1212.4</ele>
        <time>2021-09-07T07:59:46.000Z</time>
      </trkpt>
      <trkpt lat="43.76551" lon="6.37181">
        <ele>1212.1</ele>
        <time>2021-09-07T07:59:46.000Z</time>
      </trkpt>
      <trkpt lat="43.76551" lon="6.37183">
        <ele>1212.3</ele>
        <time>2021-09-07T07:59:47.000Z</time>
      </trkpt>
      <trkpt lat="43.7655" lon="6.37187">
        <ele>1212.5</ele>
        <time>2021-09-07T07:59:48.000Z</time>
      </trkpt>
      <trkpt lat="43.7655" lon="6.37193">
        <ele>1213</ele>
        <time>2021-09-07T07:59:49.000Z</time>
      </trkpt>
      <trkpt lat="43.7655" lon="6.37194">
        <ele>1212.9</ele>
        <time>2021-09-07T07:59:50.000Z</time>
      </trkpt>
      <trkpt lat="43.7655" lon="6.37193">
        <ele>1213.1</ele>
        <time>2021-09-07T07:59:51.000Z</time>
      </trkpt>
      <trkpt lat="43.76551" lon="6.37195">
        <ele>1213.2</ele>
        <time>2021-09-07T07:59:52.000Z</time>
      </trkpt>
      <trkpt lat="43.76552" lon="6.37198">
        <ele>1213.3</ele>
        <time>2021-09-07T07:59:52.000Z</time>
      </trkpt>
      <trkpt lat="43.76551" lon="6.37201">
        <ele>1213.5</ele>
        <time>2021-09-07T07:59:53.000Z</time>
      </trkpt>
      <trkpt lat="43.76551" lon="6.37204">
        <ele>1213.5</ele>
        <time>2021-09-07T07:59:54.000Z</time>
      </trkpt>
      <trkpt lat="43.76552" lon="6.372">
        <ele>1213.3</ele>
        <time>2021-09-07T07:59:54.000Z</time>
      </trkpt>
      <trkpt lat="43.76551" lon="6.37202">
        <ele>1213.6</ele>
        <time>2021-09-07T07:59:55.000Z</time>
      </trkpt>
      <trkpt lat="43.7655" lon="6.37206">
        <ele>1213.7</ele>
        <time>2021-09-07T07:59:55.000Z</time>
      </trkpt>
      <trkpt lat="43.76552" lon="6.37214">
        <ele>1214.3</ele>
        <time>2021-09-07T08:00:00.000Z</time>
      </trkpt>
      <trkpt lat="43.76551" lon="6.37218">
        <ele>1214.8</ele>
        <time>2021-09-07T08:00:00.000Z</time>
      </trkpt>
      <trkpt lat="43.76551" lon="6.37219">
        <ele>1215</ele>
        <time>2021-09-07T08:00:02.000Z</time>
      </trkpt>
      <trkpt lat="43.7655" lon="6.37229">
        <ele>1216</ele>
        <time>2021-09-07T08:00:05.000Z</time>
      </trkpt>
      <trkpt lat="43.76551" lon="6.37231">
        <ele>1216.2</ele>
        <time>2021-09-07T08:00:07.000Z</time>
      </trkpt>
      <trkpt lat="43.76551" lon="6.37233">
        <ele>1216.5</ele>
        <time>2021-09-07T08:00:07.000Z</time>
      </trkpt>
      <trkpt lat="43.76552" lon="6.37234">
        <ele>1216.4</ele>
        <time>2021-09-07T08:00:08.000Z</time>
      </trkpt>
      <trkpt lat="43.76554" lon="6.37238">
        <ele>1216.3</ele>
        <time>2021-09-07T08:00:10.000Z</time>
      </trkpt>
      <trkpt lat="43.76553" lon="6.3724">
        <ele>1216.2</ele>
        <time>2021-09-07T08:00:11.000Z</time>
      </trkpt>
      <trkpt lat="43.76552" lon="6.37242">
        <ele>1216.3</ele>
        <time>2021-09-07T08:00:12.000Z</time>
      </trkpt>
      <trkpt lat="43.76554" lon="6.37239">
        <ele>1216.3</ele>
        <time>2021-09-07T08:00:12.000Z</time>
      </trkpt>
      <trkpt lat="43.76551" lon="6.37243">
        <ele>1216.7</ele>
        <time>2021-09-07T08:00:13.000Z</time>
      </trkpt>
      <trkpt lat="43.76553" lon="6.37241">
        <ele>1216.2</ele>
        <time>2021-09-07T08:00:13.000Z</time>
      </trkpt>
      <trkpt lat="43.76552" lon="6.37242">
        <ele>1216.5</ele>
        <time>2021-09-07T08:00:14.000Z</time>
      </trkpt>
      <trkpt lat="43.76551" lon="6.37244">
        <ele>1216.7</ele>
        <time>2021-09-07T08:00:15.000Z</time>
      </trkpt>
      <trkpt lat="43.76552" lon="6.3725">
        <ele>1217.7</ele>
        <time>2021-09-07T08:00:17.000Z</time>
      </trkpt>
      <trkpt lat="43.76552" lon="6.37252">
        <ele>1217.5</ele>
        <time>2021-09-07T08:00:18.000Z</time>
      </trkpt>
      <trkpt lat="43.76552" lon="6.37252">
        <ele>1217.6</ele>
        <time>2021-09-07T08:00:19.000Z</time>
      </trkpt>
      <trkpt lat="43.76552" lon="6.37254">
        <ele>1217.5</ele>
        <time>2021-09-07T08:00:20.000Z</time>
      </trkpt>
      <trkpt lat="43.76553" lon="6.37258">
        <ele>1217.4</ele>
        <time>2021-09-07T08:00:22.000Z</time>
      </trkpt>
      <trkpt lat="43.76553" lon="6.3726">
        <ele>1217.8</ele>
        <time>2021-09-07T08:00:24.000Z</time>
      </trkpt>
      <trkpt lat="43.76553" lon="6.37262">
        <ele>1217.9</ele>
        <time>2021-09-07T08:00:24.000Z</time>
      </trkpt>
      <trkpt lat="43.76552" lon="6.37263">
        <ele>1217.9</ele>
        <time>2021-09-07T08:00:26.000Z</time>
      </trkpt>
      <trkpt lat="43.76552" lon="6.37266">
        <ele>1218.7</ele>
        <time>2021-09-07T08:00:26.000Z</time>
      </trkpt>
      <trkpt lat="43.76552" lon="6.37268">
        <ele>1218.7</ele>
        <time>2021-09-07T08:00:28.000Z</time>
      </trkpt>
      <trkpt lat="43.76554" lon="6.37283">
        <ele>1218.9</ele>
        <time>2021-09-07T08:00:32.000Z</time>
      </trkpt>
      <trkpt lat="43.76554" lon="6.37281">
        <ele>1219.1</ele>
        <time>2021-09-07T08:00:33.000Z</time>
      </trkpt>
      <trkpt lat="43.76554" lon="6.37284">
        <ele>1218.9</ele>
        <time>2021-09-07T08:00:34.000Z</time>
      </trkpt>
      <trkpt lat="43.76554" lon="6.37303">
        <ele>1219.4</ele>
        <time>2021-09-07T08:00:39.000Z</time>
      </trkpt>
      <trkpt lat="43.76554" lon="6.37317">
        <ele>1219.9</ele>
        <time>2021-09-07T08:00:41.000Z</time>
      </trkpt>
      <trkpt lat="43.76551" lon="6.37322">
        <ele>1220.6</ele>
        <time>2021-09-07T08:00:42.000Z</time>
      </trkpt>
      <trkpt lat="43.76548" lon="6.37326">
        <ele>1221.1</ele>
        <time>2021-09-07T08:00:43.000Z</time>
      </trkpt>
      <trkpt lat="43.76553" lon="6.3732">
        <ele>1220.1</ele>
        <time>2021-09-07T08:00:43.000Z</time>
      </trkpt>
      <trkpt lat="43.76549" lon="6.37324">
        <ele>1221.1</ele>
        <time>2021-09-07T08:00:44.000Z</time>
      </trkpt>
      <trkpt lat="43.76545" lon="6.37326">
        <ele>1221.1</ele>
        <time>2021-09-07T08:00:44.000Z</time>
      </trkpt>
      <trkpt lat="43.76541" lon="6.37323">
        <ele>1221.7</ele>
        <time>2021-09-07T08:00:46.000Z</time>
      </trkpt>
      <trkpt lat="43.76538" lon="6.37323">
        <ele>1222.2</ele>
        <time>2021-09-07T08:00:47.000Z</time>
      </trkpt>
      <trkpt lat="43.76535" lon="6.37326">
        <ele>1222.8</ele>
        <time>2021-09-07T08:00:48.000Z</time>
      </trkpt>
      <trkpt lat="43.76534" lon="6.37328">
        <ele>1223</ele>
        <time>2021-09-07T08:00:49.000Z</time>
      </trkpt>
      <trkpt lat="43.76533" lon="6.37331">
        <ele>1223.8</ele>
        <time>2021-09-07T08:00:51.000Z</time>
      </trkpt>
      <trkpt lat="43.76534" lon="6.37329">
        <ele>1224.2</ele>
        <time>2021-09-07T08:00:52.000Z</time>
      </trkpt>
      <trkpt lat="43.76534" lon="6.37329">
        <ele>1224.1</ele>
        <time>2021-09-07T08:00:53.000Z</time>
      </trkpt>
      <trkpt lat="43.76535" lon="6.37328">
        <ele>1224.4</ele>
        <time>2021-09-07T08:00:54.000Z</time>
      </trkpt>
      <trkpt lat="43.76535" lon="6.37331">
        <ele>1224</ele>
        <time>2021-09-07T08:00:57.000Z</time>
      </trkpt>
      <trkpt lat="43.76534" lon="6.37332">
        <ele>1224.3</ele>
        <time>2021-09-07T08:00:58.000Z</time>
      </trkpt>
      <trkpt lat="43.76534" lon="6.37331">
        <ele>1224.3</ele>
        <time>2021-09-07T08:00:59.000Z</time>
      </trkpt>
      <trkpt lat="43.76534" lon="6.37332">
        <ele>1224.1</ele>
        <time>2021-09-07T08:00:59.000Z</time>
      </trkpt>
      <trkpt lat="43.76534" lon="6.37332">
        <ele>1223.2</ele>
        <time>2021-09-07T08:01:01.000Z</time>
      </trkpt>
      <trkpt lat="43.76533" lon="6.37332">
        <ele>1223.2</ele>
        <time>2021-09-07T08:01:02.000Z</time>
      </trkpt>
      <trkpt lat="43.76533" lon="6.37333">
        <ele>1223.6</ele>
        <time>2021-09-07T08:01:07.000Z</time>
      </trkpt>
      <trkpt lat="43.76532" lon="6.37333">
        <ele>1223.4</ele>
        <time>2021-09-07T08:01:10.000Z</time>
      </trkpt>
      <trkpt lat="43.76532" lon="6.37333">
        <ele>1223.1</ele>
        <time>2021-09-07T08:01:11.000Z</time>
      </trkpt>
      <trkpt lat="43.76532" lon="6.37334">
        <ele>1223.2</ele>
        <time>2021-09-07T08:01:16.000Z</time>
      </trkpt>
      <trkpt lat="43.76532" lon="6.37333">
        <ele>1222.5</ele>
        <time>2021-09-07T08:01:20.000Z</time>
      </trkpt>
      <trkpt lat="43.76531" lon="6.37333">
        <ele>1222.2</ele>
        <time>2021-09-07T08:01:22.000Z</time>
      </trkpt>
      <trkpt lat="43.76531" lon="6.37334">
        <ele>1223.1</ele>
        <time>2021-09-07T08:01:27.000Z</time>
      </trkpt>
      <trkpt lat="43.76531" lon="6.37334">
        <ele>1223.6</ele>
        <time>2021-09-07T08:01:32.000Z</time>
      </trkpt>
      <trkpt lat="43.76531" lon="6.37334">
        <ele>1222.7</ele>
        <time>2021-09-07T08:01:37.000Z</time>
      </trkpt>
      <trkpt lat="43.76531" lon="6.37334">
        <ele>1223.2</ele>
        <time>2021-09-07T08:01:42.000Z</time>
      </trkpt>
      <trkpt lat="43.76531" lon="6.37334">
        <ele>1224.1</ele>
        <time>2021-09-07T08:01:47.000Z</time>
      </trkpt>
      <trkpt lat="43.76532" lon="6.37334">
        <ele>1224.6</ele>
        <time>2021-09-07T08:01:50.000Z</time>
      </trkpt>
      <trkpt lat="43.76532" lon="6.37334">
        <ele>1224.2</ele>
        <time>2021-09-07T08:01:51.000Z</time>
      </trkpt>
      <trkpt lat="43.76532" lon="6.37335">
        <ele>1224.7</ele>
        <time>2021-09-07T08:01:56.000Z</time>
      </trkpt>
      <trkpt lat="43.76532" lon="6.37335">
        <ele>1224.7</ele>
        <time>2021-09-07T08:01:57.000Z</time>
      </trkpt>
      <trkpt lat="43.76532" lon="6.37335">
        <ele>1224.9</ele>
        <time>2021-09-07T08:01:58.000Z</time>
      </trkpt>
      <trkpt lat="43.76532" lon="6.37336">
        <ele>1223.5</ele>
        <time>2021-09-07T08:02:04.000Z</time>
      </trkpt>
      <trkpt lat="43.76531" lon="6.37336">
        <ele>1222.6</ele>
        <time>2021-09-07T08:02:09.000Z</time>
      </trkpt>
      <trkpt lat="43.76531" lon="6.37337">
        <ele>1222.5</ele>
        <time>2021-09-07T08:02:10.000Z</time>
      </trkpt>
      <trkpt lat="43.76531" lon="6.37337">
        <ele>1222.3</ele>
        <time>2021-09-07T08:02:11.000Z</time>
      </trkpt>
      <trkpt lat="43.76531" lon="6.37337">
        <ele>1222</ele>
        <time>2021-09-07T08:02:16.000Z</time>
      </trkpt>
      <trkpt lat="43.76531" lon="6.37337">
        <ele>1222.1</ele>
        <time>2021-09-07T08:02:21.000Z</time>
      </trkpt>
      <trkpt lat="43.76531" lon="6.37337">
        <ele>1222</ele>
        <time>2021-09-07T08:02:26.000Z</time>
      </trkpt>
      <trkpt lat="43.76531" lon="6.37337">
        <ele>1221.5</ele>
        <time>2021-09-07T08:02:31.000Z</time>
      </trkpt>
      <trkpt lat="43.76532" lon="6.37337">
        <ele>1221.4</ele>
        <time>2021-09-07T08:02:36.000Z</time>
      </trkpt>
      <trkpt lat="43.76532" lon="6.37337">
        <ele>1221.5</ele>
        <time>2021-09-07T08:02:41.000Z</time>
      </trkpt>
      <trkpt lat="43.76531" lon="6.37337">
        <ele>1221.4</ele>
        <time>2021-09-07T08:02:46.000Z</time>
      </trkpt>
      <trkpt lat="43.76531" lon="6.37337">
        <ele>1221.2</ele>
        <time>2021-09-07T08:02:50.000Z</time>
      </trkpt>
      <trkpt lat="43.76531" lon="6.37337">
        <ele>1221.2</ele>
        <time>2021-09-07T08:02:51.000Z</time>
      </trkpt>
      <trkpt lat="43.76531" lon="6.37338">
        <ele>1221.4</ele>
        <time>2021-09-07T08:02:56.000Z</time>
      </trkpt>
      <trkpt lat="43.76532" lon="6.37338">
        <ele>1221.6</ele>
        <time>2021-09-07T08:03:01.000Z</time>
      </trkpt>
      <trkpt lat="43.76532" lon="6.37337">
        <ele>1221.7</ele>
        <time>2021-09-07T08:03:06.000Z</time>
      </trkpt>
      <trkpt lat="43.76532" lon="6.37337">
        <ele>1222.1</ele>
        <time>2021-09-07T08:03:11.000Z</time>
      </trkpt>
      <trkpt lat="43.76532" lon="6.37337">
        <ele>1221.6</ele>
        <time>2021-09-07T08:03:16.000Z</time>
      </trkpt>
      <trkpt lat="43.76532" lon="6.37337">
        <ele>1221.6</ele>
        <time>2021-09-07T08:03:21.000Z</time>
      </trkpt>
      <trkpt lat="43.76532" lon="6.37338">
        <ele>1221.6</ele>
        <time>2021-09-07T08:03:26.000Z</time>
      </trkpt>
      <trkpt lat="43.76532" lon="6.37338">
        <ele>1221.5</ele>
        <time>2021-09-07T08:03:31.000Z</time>
      </trkpt>
      <trkpt lat="43.76533" lon="6.37338">
        <ele>1221.9</ele>
        <time>2021-09-07T08:03:36.000Z</time>
      </trkpt>
      <trkpt lat="43.76533" lon="6.37338">
        <ele>1221.6</ele>
        <time>2021-09-07T08:03:41.000Z</time>
      </trkpt>
      <trkpt lat="43.76532" lon="6.37338">
        <ele>1220.9</ele>
        <time>2021-09-07T08:03:46.000Z</time>
      </trkpt>
      <trkpt lat="43.76532" lon="6.37338">
        <ele>1220.7</ele>
        <time>2021-09-07T08:03:47.000Z</time>
      </trkpt>
      <trkpt lat="43.76533" lon="6.37338">
        <ele>1221.1</ele>
        <time>2021-09-07T08:03:52.000Z</time>
      </trkpt>
      <trkpt lat="43.76532" lon="6.37338">
        <ele>1221.3</ele>
        <time>2021-09-07T08:03:56.000Z</time>
      </trkpt>
      <trkpt lat="43.76532" lon="6.37338">
        <ele>1221.4</ele>
        <time>2021-09-07T08:03:57.000Z</time>
      </trkpt>
      <trkpt lat="43.76532" lon="6.37338">
        <ele>1221.4</ele>
        <time>2021-09-07T08:04:01.000Z</time>
      </trkpt>
      <trkpt lat="43.76532" lon="6.37338">
        <ele>1221.3</ele>
        <time>2021-09-07T08:04:02.000Z</time>
      </trkpt>
      <trkpt lat="43.76531" lon="6.37338">
        <ele>1221.8</ele>
        <time>2021-09-07T08:04:07.000Z</time>
      </trkpt>
      <trkpt lat="43.76531" lon="6.37338">
        <ele>1221.8</ele>
        <time>2021-09-07T08:04:12.000Z</time>
      </trkpt>
      <trkpt lat="43.76532" lon="6.37338">
        <ele>1223.4</ele>
        <time>2021-09-07T08:04:17.000Z</time>
      </trkpt>
      <trkpt lat="43.76532" lon="6.37339">
        <ele>1222.3</ele>
        <time>2021-09-07T08:04:22.000Z</time>
      </trkpt>
      <trkpt lat="43.76533" lon="6.37339">
        <ele>1221.9</ele>
        <time>2021-09-07T08:04:27.000Z</time>
      </trkpt>
      <trkpt lat="43.76533" lon="6.37338">
        <ele>1221.6</ele>
        <time>2021-09-07T08:04:32.000Z</time>
      </trkpt>
      <trkpt lat="43.76533" lon="6.37338">
        <ele>1221.8</ele>
        <time>2021-09-07T08:04:37.000Z</time>
      </trkpt>
      <trkpt lat="43.76533" lon="6.37338">
        <ele>1221.9</ele>
        <time>2021-09-07T08:04:42.000Z</time>
      </trkpt>
      <trkpt lat="43.76533" lon="6.37338">
        <ele>1221.9</ele>
        <time>2021-09-07T08:04:47.000Z</time>
      </trkpt>
      <trkpt lat="43.76533" lon="6.37337">
        <ele>1222.1</ele>
        <time>2021-09-07T08:04:52.000Z</time>
      </trkpt>
      <trkpt lat="43.76533" lon="6.37337">
        <ele>1222.3</ele>
        <time>2021-09-07T08:04:57.000Z</time>
      </trkpt>
      <trkpt lat="43.76533" lon="6.37337">
        <ele>1222.4</ele>
        <time>2021-09-07T08:05:02.000Z</time>
      </trkpt>
      <trkpt lat="43.76533" lon="6.37337">
        <ele>1223.1</ele>
        <time>2021-09-07T08:05:07.000Z</time>
      </trkpt>
      <trkpt lat="43.76533" lon="6.37337">
        <ele>1223.3</ele>
        <time>2021-09-07T08:05:12.000Z</time>
      </trkpt>
      <trkpt lat="43.76533" lon="6.37337">
        <ele>1224.5</ele>
        <time>2021-09-07T08:05:17.000Z</time>
      </trkpt>
      <trkpt lat="43.76533" lon="6.37337">
        <ele>1225.2</ele>
        <time>2021-09-07T08:05:19.000Z</time>
      </trkpt>
      <trkpt lat="43.76534" lon="6.37337">
        <ele>1227.2</ele>
        <time>2021-09-07T08:05:24.000Z</time>
      </trkpt>
      <trkpt lat="43.76537" lon="6.37338">
        <ele>1223.6</ele>
        <time>2021-09-07T08:05:28.000Z</time>
      </trkpt>
      <trkpt lat="43.76536" lon="6.37336">
        <ele>1223.5</ele>
        <time>2021-09-07T08:05:29.000Z</time>
      </trkpt>
      <trkpt lat="43.76538" lon="6.37339">
        <ele>1223.8</ele>
        <time>2021-09-07T08:05:30.000Z</time>
      </trkpt>
      <trkpt lat="43.76539" lon="6.3734">
        <ele>1223.3</ele>
        <time>2021-09-07T08:05:30.000Z</time>
      </trkpt>
      <trkpt lat="43.7654" lon="6.3734">
        <ele>1223.8</ele>
        <time>2021-09-07T08:05:32.000Z</time>
      </trkpt>
      <trkpt lat="43.76541" lon="6.37341">
        <ele>1224.8</ele>
        <time>2021-09-07T08:05:33.000Z</time>
      </trkpt>
      <trkpt lat="43.76541" lon="6.37341">
        <ele>1223.5</ele>
        <time>2021-09-07T08:05:34.000Z</time>
      </trkpt>
      <trkpt lat="43.76542" lon="6.3734">
        <ele>1221.3</ele>
        <time>2021-09-07T08:05:38.000Z</time>
      </trkpt>
      <trkpt lat="43.76542" lon="6.3734">
        <ele>1221.3</ele>
        <time>2021-09-07T08:05:39.000Z</time>
      </trkpt>
      <trkpt lat="43.76542" lon="6.37339">
        <ele>1221.5</ele>
        <time>2021-09-07T08:05:40.000Z</time>
      </trkpt>
      <trkpt lat="43.76542" lon="6.37339">
        <ele>1221.4</ele>
        <time>2021-09-07T08:05:42.000Z</time>
      </trkpt>
      <trkpt lat="43.76542" lon="6.37339">
        <ele>1221.6</ele>
        <time>2021-09-07T08:05:44.000Z</time>
      </trkpt>
      <trkpt lat="43.76542" lon="6.37339">
        <ele>1221</ele>
        <time>2021-09-07T08:05:46.000Z</time>
      </trkpt>
      <trkpt lat="43.76543" lon="6.37339">
        <ele>1220.2</ele>
        <time>2021-09-07T08:05:51.000Z</time>
      </trkpt>
      <trkpt lat="43.76544" lon="6.37339">
        <ele>1220.7</ele>
        <time>2021-09-07T08:05:56.000Z</time>
      </trkpt>
      <trkpt lat="43.76544" lon="6.3734">
        <ele>1220.1</ele>
        <time>2021-09-07T08:06:01.000Z</time>
      </trkpt>
      <trkpt lat="43.76544" lon="6.3734">
        <ele>1219.7</ele>
        <time>2021-09-07T08:06:02.000Z</time>
      </trkpt>
      <trkpt lat="43.76544" lon="6.3734">
        <ele>1219.8</ele>
        <time>2021-09-07T08:06:03.000Z</time>
      </trkpt>
      <trkpt lat="43.76545" lon="6.3734">
        <ele>1219.7</ele>
        <time>2021-09-07T08:06:03.000Z</time>
      </trkpt>
      <trkpt lat="43.76545" lon="6.37341">
        <ele>1219.4</ele>
        <time>2021-09-07T08:06:05.000Z</time>
      </trkpt>
      <trkpt lat="43.76545" lon="6.37342">
        <ele>1219.1</ele>
        <time>2021-09-07T08:06:06.000Z</time>
      </trkpt>
      <trkpt lat="43.76545" lon="6.37342">
        <ele>1219.2</ele>
        <time>2021-09-07T08:06:07.000Z</time>
      </trkpt>
      <trkpt lat="43.76546" lon="6.37342">
        <ele>1219</ele>
        <time>2021-09-07T08:06:08.000Z</time>
      </trkpt>
      <trkpt lat="43.76546" lon="6.37343">
        <ele>1218.9</ele>
        <time>2021-09-07T08:06:09.000Z</time>
      </trkpt>
      <trkpt lat="43.76546" lon="6.37343">
        <ele>1219</ele>
        <time>2021-09-07T08:06:10.000Z</time>
      </trkpt>
      <trkpt lat="43.76546" lon="6.37344">
        <ele>1219</ele>
        <time>2021-09-07T08:06:10.000Z</time>
      </trkpt>
      <trkpt lat="43.76546" lon="6.37344">
        <ele>1218.9</ele>
        <time>2021-09-07T08:06:12.000Z</time>
      </trkpt>
      <trkpt lat="43.76546" lon="6.37344">
        <ele>1218.4</ele>
        <time>2021-09-07T08:06:13.000Z</time>
      </trkpt>
      <trkpt lat="43.76546" lon="6.37347">
        <ele>1217.9</ele>
        <time>2021-09-07T08:06:18.000Z</time>
      </trkpt>
      <trkpt lat="43.76547" lon="6.37348">
        <ele>1217.5</ele>
        <time>2021-09-07T08:06:19.000Z</time>
      </trkpt>
      <trkpt lat="43.76547" lon="6.37349">
        <ele>1217.5</ele>
        <time>2021-09-07T08:06:24.000Z</time>
      </trkpt>
      <trkpt lat="43.76547" lon="6.37349">
        <ele>1217.3</ele>
        <time>2021-09-07T08:06:25.000Z</time>
      </trkpt>
      <trkpt lat="43.76546" lon="6.37349">
        <ele>1217.6</ele>
        <time>2021-09-07T08:06:28.000Z</time>
      </trkpt>
      <trkpt lat="43.76546" lon="6.3735">
        <ele>1217.7</ele>
        <time>2021-09-07T08:06:29.000Z</time>
      </trkpt>
      <trkpt lat="43.76546" lon="6.3735">
        <ele>1217.6</ele>
        <time>2021-09-07T08:06:30.000Z</time>
      </trkpt>
      <trkpt lat="43.76546" lon="6.3735">
        <ele>1217.3</ele>
        <time>2021-09-07T08:06:35.000Z</time>
      </trkpt>
      <trkpt lat="43.76546" lon="6.3735">
        <ele>1217.7</ele>
        <time>2021-09-07T08:06:40.000Z</time>
      </trkpt>
      <trkpt lat="43.76546" lon="6.3735">
        <ele>1217.2</ele>
        <time>2021-09-07T08:06:40.000Z</time>
      </trkpt>
      <trkpt lat="43.76545" lon="6.3735">
        <ele>1217.5</ele>
        <time>2021-09-07T08:06:44.000Z</time>
      </trkpt>
      <trkpt lat="43.76546" lon="6.3735">
        <ele>1217.6</ele>
        <time>2021-09-07T08:06:45.000Z</time>
      </trkpt>
      <trkpt lat="43.76546" lon="6.3735">
        <ele>1217.8</ele>
        <time>2021-09-07T08:06:47.000Z</time>
      </trkpt>
      <trkpt lat="43.76546" lon="6.3735">
        <ele>1217.6</ele>
        <time>2021-09-07T08:06:52.000Z</time>
      </trkpt>
      <trkpt lat="43.76546" lon="6.3735">
        <ele>1217.8</ele>
        <time>2021-09-07T08:06:57.000Z</time>
      </trkpt>
      <trkpt lat="43.76546" lon="6.3735">
        <ele>1218</ele>
        <time>2021-09-07T08:06:58.000Z</time>
      </trkpt>
      <trkpt lat="43.76546" lon="6.3735">
        <ele>1217.6</ele>
        <time>2021-09-07T08:07:04.000Z</time>
      </trkpt>
      <trkpt lat="43.76546" lon="6.3735">
        <ele>1217.5</ele>
        <time>2021-09-07T08:07:09.000Z</time>
      </trkpt>
      <trkpt lat="43.76546" lon="6.3735">
        <ele>1218.1</ele>
        <time>2021-09-07T08:07:14.000Z</time>
      </trkpt>
      <trkpt lat="43.76546" lon="6.3735">
        <ele>1217.3</ele>
        <time>2021-09-07T08:07:19.000Z</time>
      </trkpt>
      <trkpt lat="43.76546" lon="6.3735">
        <ele>1217.5</ele>
        <time>2021-09-07T08:07:24.000Z</time>
      </trkpt>
      <trkpt lat="43.76546" lon="6.3735">
        <ele>1217.3</ele>
        <time>2021-09-07T08:07:28.000Z</time>
      </trkpt>
      <trkpt lat="43.76546" lon="6.3735">
        <ele>1217.3</ele>
        <time>2021-09-07T08:07:30.000Z</time>
      </trkpt>
      <trkpt lat="43.76545" lon="6.3735">
        <ele>1217.5</ele>
        <time>2021-09-07T08:07:35.000Z</time>
      </trkpt>
      <trkpt lat="43.76545" lon="6.3735">
        <ele>1217.3</ele>
        <time>2021-09-07T08:07:40.000Z</time>
      </trkpt>
      <trkpt lat="43.76545" lon="6.3735">
        <ele>1217.3</ele>
        <time>2021-09-07T08:07:43.000Z</time>
      </trkpt>
      <trkpt lat="43.76545" lon="6.37351">
        <ele>1217.5</ele>
        <time>2021-09-07T08:07:49.000Z</time>
      </trkpt>
      <trkpt lat="43.76546" lon="6.3735">
        <ele>1216.6</ele>
        <time>2021-09-07T08:07:54.000Z</time>
      </trkpt>
      <trkpt lat="43.76546" lon="6.3735">
        <ele>1216.6</ele>
        <time>2021-09-07T08:07:55.000Z</time>
      </trkpt>
      <trkpt lat="43.76546" lon="6.3735">
        <ele>1216.8</ele>
        <time>2021-09-07T08:08:00.000Z</time>
      </trkpt>
      <trkpt lat="43.76546" lon="6.3735">
        <ele>1216.6</ele>
        <time>2021-09-07T08:08:05.000Z</time>
      </trkpt>
      <trkpt lat="43.76546" lon="6.37349">
        <ele>1216.5</ele>
        <time>2021-09-07T08:08:10.000Z</time>
      </trkpt>
      <trkpt lat="43.76546" lon="6.37349">
        <ele>1216.5</ele>
        <time>2021-09-07T08:08:14.000Z</time>
      </trkpt>
      <trkpt lat="43.76546" lon="6.37349">
        <ele>1216.6</ele>
        <time>2021-09-07T08:08:15.000Z</time>
      </trkpt>
      <trkpt lat="43.76546" lon="6.37348">
        <ele>1216.5</ele>
        <time>2021-09-07T08:08:20.000Z</time>
      </trkpt>
      <trkpt lat="43.76546" lon="6.37348">
        <ele>1216.7</ele>
        <time>2021-09-07T08:08:25.000Z</time>
      </trkpt>
      <trkpt lat="43.76546" lon="6.37348">
        <ele>1216.2</ele>
        <time>2021-09-07T08:08:27.000Z</time>
      </trkpt>
      <trkpt lat="43.76546" lon="6.37349">
        <ele>1216.8</ele>
        <time>2021-09-07T08:08:30.000Z</time>
      </trkpt>
      <trkpt lat="43.76546" lon="6.37349">
        <ele>1216.5</ele>
        <time>2021-09-07T08:08:32.000Z</time>
      </trkpt>
      <trkpt lat="43.76547" lon="6.3735">
        <ele>1216.6</ele>
        <time>2021-09-07T08:08:39.000Z</time>
      </trkpt>
      <trkpt lat="43.76547" lon="6.3735">
        <ele>1217</ele>
        <time>2021-09-07T08:08:45.000Z</time>
      </trkpt>
      <trkpt lat="43.76546" lon="6.3735">
        <ele>1216.8</ele>
        <time>2021-09-07T08:08:50.000Z</time>
      </trkpt>
      <trkpt lat="43.76547" lon="6.37351">
        <ele>1216.7</ele>
        <time>2021-09-07T08:08:55.000Z</time>
      </trkpt>
      <trkpt lat="43.76547" lon="6.37351">
        <ele>1216.9</ele>
        <time>2021-09-07T08:08:56.000Z</time>
      </trkpt>
      <trkpt lat="43.76547" lon="6.37351">
        <ele>1217.3</ele>
        <time>2021-09-07T08:09:00.000Z</time>
      </trkpt>
      <trkpt lat="43.76547" lon="6.37351">
        <ele>1217.3</ele>
        <time>2021-09-07T08:09:01.000Z</time>
      </trkpt>
      <trkpt lat="43.76547" lon="6.37352">
        <ele>1217.4</ele>
        <time>2021-09-07T08:09:02.000Z</time>
      </trkpt>
      <trkpt lat="43.76547" lon="6.37353">
        <ele>1217.9</ele>
        <time>2021-09-07T08:09:05.000Z</time>
      </trkpt>
      <trkpt lat="43.76547" lon="6.37353">
        <ele>1218.1</ele>
        <time>2021-09-07T08:09:10.000Z</time>
      </trkpt>
      <trkpt lat="43.76547" lon="6.37353">
        <ele>1218.5</ele>
        <time>2021-09-07T08:09:15.000Z</time>
      </trkpt>
      <trkpt lat="43.76547" lon="6.37353">
        <ele>1217.9</ele>
        <time>2021-09-07T08:09:20.000Z</time>
      </trkpt>
      <trkpt lat="43.76547" lon="6.37353">
        <ele>1218.3</ele>
        <time>2021-09-07T08:09:25.000Z</time>
      </trkpt>
      <trkpt lat="43.76547" lon="6.37354">
        <ele>1217.9</ele>
        <time>2021-09-07T08:09:30.000Z</time>
      </trkpt>
      <trkpt lat="43.76547" lon="6.37354">
        <ele>1217.4</ele>
        <time>2021-09-07T08:09:35.000Z</time>
      </trkpt>
      <trkpt lat="43.76547" lon="6.37354">
        <ele>1217.8</ele>
        <time>2021-09-07T08:09:40.000Z</time>
      </trkpt>
      <trkpt lat="43.76547" lon="6.37354">
        <ele>1218</ele>
        <time>2021-09-07T08:09:45.000Z</time>
      </trkpt>
      <trkpt lat="43.76547" lon="6.37354">
        <ele>1217.8</ele>
        <time>2021-09-07T08:09:50.000Z</time>
      </trkpt>
      <trkpt lat="43.76546" lon="6.37353">
        <ele>1218.8</ele>
        <time>2021-09-07T08:09:52.000Z</time>
      </trkpt>
      <trkpt lat="43.76546" lon="6.37353">
        <ele>1218.8</ele>
        <time>2021-09-07T08:09:54.000Z</time>
      </trkpt>
      <trkpt lat="43.76545" lon="6.37352">
        <ele>1219.6</ele>
        <time>2021-09-07T08:09:56.000Z</time>
      </trkpt>
      <trkpt lat="43.76544" lon="6.3735">
        <ele>1220.7</ele>
        <time>2021-09-07T08:09:56.000Z</time>
      </trkpt>
      <trkpt lat="43.76542" lon="6.37348">
        <ele>1221.9</ele>
        <time>2021-09-07T08:09:58.000Z</time>
      </trkpt>
      <trkpt lat="43.7654" lon="6.37346">
        <ele>1222.2</ele>
        <time>2021-09-07T08:09:59.000Z</time>
      </trkpt>
      <trkpt lat="43.76543" lon="6.3735">
        <ele>1220.9</ele>
        <time>2021-09-07T08:09:59.000Z</time>
      </trkpt>
      <trkpt lat="43.76541" lon="6.37347">
        <ele>1222.2</ele>
        <time>2021-09-07T08:10:01.000Z</time>
      </trkpt>
      <trkpt lat="43.7654" lon="6.37345">
        <ele>1222.1</ele>
        <time>2021-09-07T08:10:02.000Z</time>
      </trkpt>
      <trkpt lat="43.76536" lon="6.3734">
        <ele>1222.7</ele>
        <time>2021-09-07T08:10:03.000Z</time>
      </trkpt>
      <trkpt lat="43.76535" lon="6.3734">
        <ele>1222.5</ele>
        <time>2021-09-07T08:10:04.000Z</time>
      </trkpt>
      <trkpt lat="43.76534" lon="6.37339">
        <ele>1222.1</ele>
        <time>2021-09-07T08:10:09.000Z</time>
      </trkpt>
      <trkpt lat="43.76534" lon="6.3734">
        <ele>1222.4</ele>
        <time>2021-09-07T08:10:09.000Z</time>
      </trkpt>
      <trkpt lat="43.76535" lon="6.3734">
        <ele>1222</ele>
        <time>2021-09-07T08:10:11.000Z</time>
      </trkpt>
      <trkpt lat="43.76534" lon="6.3734">
        <ele>1222.1</ele>
        <time>2021-09-07T08:10:12.000Z</time>
      </trkpt>
      <trkpt lat="43.76535" lon="6.3734">
        <ele>1222.2</ele>
        <time>2021-09-07T08:10:15.000Z</time>
      </trkpt>
      <trkpt lat="43.76536" lon="6.37339">
        <ele>1221.8</ele>
        <time>2021-09-07T08:10:16.000Z</time>
      </trkpt>
      <trkpt lat="43.76536" lon="6.3734">
        <ele>1222</ele>
        <time>2021-09-07T08:10:18.000Z</time>
      </trkpt>
      <trkpt lat="43.76535" lon="6.37339">
        <ele>1221.7</ele>
        <time>2021-09-07T08:10:18.000Z</time>
      </trkpt>
      <trkpt lat="43.76533" lon="6.37338">
        <ele>1222.1</ele>
        <time>2021-09-07T08:10:20.000Z</time>
      </trkpt>
      <trkpt lat="43.76531" lon="6.37338">
        <ele>1222.6</ele>
        <time>2021-09-07T08:10:22.000Z</time>
      </trkpt>
      <trkpt lat="43.76532" lon="6.37338">
        <ele>1222.5</ele>
        <time>2021-09-07T08:10:23.000Z</time>
      </trkpt>
      <trkpt lat="43.7653" lon="6.37338">
        <ele>1222.4</ele>
        <time>2021-09-07T08:10:23.000Z</time>
      </trkpt>
      <trkpt lat="43.76529" lon="6.37338">
        <ele>1222.5</ele>
        <time>2021-09-07T08:10:25.000Z</time>
      </trkpt>
      <trkpt lat="43.76527" lon="6.37338">
        <ele>1223.2</ele>
        <time>2021-09-07T08:10:26.000Z</time>
      </trkpt>
      <trkpt lat="43.7653" lon="6.37338">
        <ele>1222.3</ele>
        <time>2021-09-07T08:10:26.000Z</time>
      </trkpt>
      <trkpt lat="43.76529" lon="6.37338">
        <ele>1222.3</ele>
        <time>2021-09-07T08:10:27.000Z</time>
      </trkpt>
      <trkpt lat="43.76525" lon="6.37337">
        <ele>1225.5</ele>
        <time>2021-09-07T08:10:29.000Z</time>
      </trkpt>
      <trkpt lat="43.76524" lon="6.37335">
        <ele>1224.3</ele>
        <time>2021-09-07T08:10:31.000Z</time>
      </trkpt>
      <trkpt lat="43.76525" lon="6.37336">
        <ele>1225.6</ele>
        <time>2021-09-07T08:10:32.000Z</time>
      </trkpt>
      <trkpt lat="43.76523" lon="6.37334">
        <ele>1223.9</ele>
        <time>2021-09-07T08:10:32.000Z</time>
      </trkpt>
      <trkpt lat="43.76522" lon="6.37331">
        <ele>1224</ele>
        <time>2021-09-07T08:10:34.000Z</time>
      </trkpt>
      <trkpt lat="43.76522" lon="6.3733">
        <ele>1224.1</ele>
        <time>2021-09-07T08:10:35.000Z</time>
      </trkpt>
      <trkpt lat="43.76523" lon="6.3733">
        <ele>1224.3</ele>
        <time>2021-09-07T08:10:39.000Z</time>
      </trkpt>
      <trkpt lat="43.76523" lon="6.37329">
        <ele>1225.6</ele>
        <time>2021-09-07T08:10:45.000Z</time>
      </trkpt>
      <trkpt lat="43.76523" lon="6.3733">
        <ele>1224.8</ele>
        <time>2021-09-07T08:10:46.000Z</time>
      </trkpt>
      <trkpt lat="43.76523" lon="6.3733">
        <ele>1225.1</ele>
        <time>2021-09-07T08:10:47.000Z</time>
      </trkpt>
      <trkpt lat="43.76522" lon="6.37328">
        <ele>1226.6</ele>
        <time>2021-09-07T08:10:50.000Z</time>
      </trkpt>
      <trkpt lat="43.76521" lon="6.37326">
        <ele>1226.5</ele>
        <time>2021-09-07T08:10:50.000Z</time>
      </trkpt>
      <trkpt lat="43.7652" lon="6.37324">
        <ele>1225</ele>
        <time>2021-09-07T08:10:52.000Z</time>
      </trkpt>
      <trkpt lat="43.76521" lon="6.37325">
        <ele>1226</ele>
        <time>2021-09-07T08:10:53.000Z</time>
      </trkpt>
      <trkpt lat="43.7652" lon="6.37322">
        <ele>1225.1</ele>
        <time>2021-09-07T08:10:56.000Z</time>
      </trkpt>
      <trkpt lat="43.7652" lon="6.3732">
        <ele>1224.6</ele>
        <time>2021-09-07T08:10:56.000Z</time>
      </trkpt>
      <trkpt lat="43.76521" lon="6.3732">
        <ele>1224.8</ele>
        <time>2021-09-07T08:10:57.000Z</time>
      </trkpt>
      <trkpt lat="43.76521" lon="6.3732">
        <ele>1224.4</ele>
        <time>2021-09-07T08:11:00.000Z</time>
      </trkpt>
      <trkpt lat="43.76521" lon="6.3732">
        <ele>1224.4</ele>
        <time>2021-09-07T08:11:01.000Z</time>
      </trkpt>
      <trkpt lat="43.76522" lon="6.3732">
        <ele>1224.3</ele>
        <time>2021-09-07T08:11:03.000Z</time>
      </trkpt>
      <trkpt lat="43.76522" lon="6.3732">
        <ele>1224.8</ele>
        <time>2021-09-07T08:11:08.000Z</time>
      </trkpt>
      <trkpt lat="43.76522" lon="6.37319">
        <ele>1225.1</ele>
        <time>2021-09-07T08:11:14.000Z</time>
      </trkpt>
      <trkpt lat="43.76522" lon="6.37319">
        <ele>1226.9</ele>
        <time>2021-09-07T08:11:19.000Z</time>
      </trkpt>
      <trkpt lat="43.76522" lon="6.37319">
        <ele>1226</ele>
        <time>2021-09-07T08:11:24.000Z</time>
      </trkpt>
      <trkpt lat="43.76522" lon="6.37319">
        <ele>1225.7</ele>
        <time>2021-09-07T08:11:29.000Z</time>
      </trkpt>
      <trkpt lat="43.76522" lon="6.37318">
        <ele>1225.5</ele>
        <time>2021-09-07T08:11:34.000Z</time>
      </trkpt>
      <trkpt lat="43.76522" lon="6.37318">
        <ele>1224.9</ele>
        <time>2021-09-07T08:11:36.000Z</time>
      </trkpt>
      <trkpt lat="43.76522" lon="6.37317">
        <ele>1225.2</ele>
        <time>2021-09-07T08:11:41.000Z</time>
      </trkpt>
      <trkpt lat="43.76522" lon="6.37315">
        <ele>1224.7</ele>
        <time>2021-09-07T08:11:43.000Z</time>
      </trkpt>
      <trkpt lat="43.76521" lon="6.37312">
        <ele>1224.2</ele>
        <time>2021-09-07T08:11:44.000Z</time>
      </trkpt>
      <trkpt lat="43.76521" lon="6.37313">
        <ele>1224.5</ele>
        <time>2021-09-07T08:11:45.000Z</time>
      </trkpt>
      <trkpt lat="43.76521" lon="6.3731">
        <ele>1224</ele>
        <time>2021-09-07T08:11:46.000Z</time>
      </trkpt>
      <trkpt lat="43.76521" lon="6.37309">
        <ele>1224</ele>
        <time>2021-09-07T08:11:48.000Z</time>
      </trkpt>
      <trkpt lat="43.76521" lon="6.37309">
        <ele>1223.6</ele>
        <time>2021-09-07T08:11:50.000Z</time>
      </trkpt>
      <trkpt lat="43.76521" lon="6.37308">
        <ele>1223.1</ele>
        <time>2021-09-07T08:11:57.000Z</time>
      </trkpt>
      <trkpt lat="43.76522" lon="6.37308">
        <ele>1223.1</ele>
        <time>2021-09-07T08:12:02.000Z</time>
      </trkpt>
      <trkpt lat="43.76521" lon="6.37308">
        <ele>1223</ele>
        <time>2021-09-07T08:12:05.000Z</time>
      </trkpt>
      <trkpt lat="43.76521" lon="6.37308">
        <ele>1222.9</ele>
        <time>2021-09-07T08:12:06.000Z</time>
      </trkpt>
      <trkpt lat="43.76521" lon="6.37308">
        <ele>1222.8</ele>
        <time>2021-09-07T08:12:11.000Z</time>
      </trkpt>
      <trkpt lat="43.76521" lon="6.37308">
        <ele>1222.8</ele>
        <time>2021-09-07T08:12:16.000Z</time>
      </trkpt>
      <trkpt lat="43.76521" lon="6.37308">
        <ele>1222.9</ele>
        <time>2021-09-07T08:12:21.000Z</time>
      </trkpt>
      <trkpt lat="43.76521" lon="6.37308">
        <ele>1222.6</ele>
        <time>2021-09-07T08:12:28.000Z</time>
      </trkpt>
      <trkpt lat="43.76522" lon="6.37307">
        <ele>1223</ele>
        <time>2021-09-07T08:12:32.000Z</time>
      </trkpt>
      <trkpt lat="43.76523" lon="6.37304">
        <ele>1223.5</ele>
        <time>2021-09-07T08:12:38.000Z</time>
      </trkpt>
      <trkpt lat="43.76522" lon="6.37297">
        <ele>1222.8</ele>
        <time>2021-09-07T08:12:38.000Z</time>
      </trkpt>
      <trkpt lat="43.76523" lon="6.37294">
        <ele>1222.8</ele>
        <time>2021-09-07T08:12:39.000Z</time>
      </trkpt>
      <trkpt lat="43.76522" lon="6.37283">
        <ele>1223.5</ele>
        <time>2021-09-07T08:12:44.000Z</time>
      </trkpt>
      <trkpt lat="43.76522" lon="6.37266">
        <ele>1223.7</ele>
        <time>2021-09-07T08:12:45.000Z</time>
      </trkpt>
      <trkpt lat="43.76522" lon="6.37261">
        <ele>1223.5</ele>
        <time>2021-09-07T08:12:46.000Z</time>
      </trkpt>
      <trkpt lat="43.76523" lon="6.37272">
        <ele>1223.6</ele>
        <time>2021-09-07T08:12:46.000Z</time>
      </trkpt>
      <trkpt lat="43.76522" lon="6.37255">
        <ele>1223.4</ele>
        <time>2021-09-07T08:12:47.000Z</time>
      </trkpt>
      <trkpt lat="43.76522" lon="6.37263">
        <ele>1223.6</ele>
        <time>2021-09-07T08:12:48.000Z</time>
      </trkpt>
      <trkpt lat="43.76522" lon="6.37257">
        <ele>1223.4</ele>
        <time>2021-09-07T08:12:49.000Z</time>
      </trkpt>
      <trkpt lat="43.76521" lon="6.37251">
        <ele>1223.3</ele>
        <time>2021-09-07T08:12:50.000Z</time>
      </trkpt>
      <trkpt lat="43.76519" lon="6.3724">
        <ele>1223.4</ele>
        <time>2021-09-07T08:12:50.000Z</time>
      </trkpt>
      <trkpt lat="43.76517" lon="6.37235">
        <ele>1223.4</ele>
        <time>2021-09-07T08:12:51.000Z</time>
      </trkpt>
      <trkpt lat="43.76516" lon="6.3723">
        <ele>1223.3</ele>
        <time>2021-09-07T08:12:52.000Z</time>
      </trkpt>
      <trkpt lat="43.76518" lon="6.37238">
        <ele>1223.3</ele>
        <time>2021-09-07T08:12:53.000Z</time>
      </trkpt>
      <trkpt lat="43.76516" lon="6.37231">
        <ele>1223.3</ele>
        <time>2021-09-07T08:12:54.000Z</time>
      </trkpt>
      <trkpt lat="43.76515" lon="6.37226">
        <ele>1223.7</ele>
        <time>2021-09-07T08:12:55.000Z</time>
      </trkpt>
      <trkpt lat="43.76512" lon="6.37216">
        <ele>1223.9</ele>
        <time>2021-09-07T08:12:55.000Z</time>
      </trkpt>
      <trkpt lat="43.7651" lon="6.3721">
        <ele>1223.9</ele>
        <time>2021-09-07T08:12:56.000Z</time>
      </trkpt>
      <trkpt lat="43.76507" lon="6.372">
        <ele>1223.8</ele>
        <time>2021-09-07T08:12:58.000Z</time>
      </trkpt>
      <trkpt lat="43.76511" lon="6.37212">
        <ele>1223.9</ele>
        <time>2021-09-07T08:12:58.000Z</time>
      </trkpt>
      <trkpt lat="43.76509" lon="6.37206">
        <ele>1223.8</ele>
        <time>2021-09-07T08:12:59.000Z</time>
      </trkpt>
      <trkpt lat="43.76503" lon="6.37191">
        <ele>1223.5</ele>
        <time>2021-09-07T08:13:00.000Z</time>
      </trkpt>
      <trkpt lat="43.76501" lon="6.37186">
        <ele>1223.7</ele>
        <time>2021-09-07T08:13:01.000Z</time>
      </trkpt>
      <trkpt lat="43.76505" lon="6.37196">
        <ele>1223.8</ele>
        <time>2021-09-07T08:13:01.000Z</time>
      </trkpt>
      <trkpt lat="43.765" lon="6.3718">
        <ele>1223.9</ele>
        <time>2021-09-07T08:13:02.000Z</time>
      </trkpt>
      <trkpt lat="43.76498" lon="6.37175">
        <ele>1223.6</ele>
        <time>2021-09-07T08:13:03.000Z</time>
      </trkpt>
      <trkpt lat="43.76502" lon="6.37188">
        <ele>1223.6</ele>
        <time>2021-09-07T08:13:03.000Z</time>
      </trkpt>
      <trkpt lat="43.765" lon="6.37182">
        <ele>1223.9</ele>
        <time>2021-09-07T08:13:04.000Z</time>
      </trkpt>
      <trkpt lat="43.76495" lon="6.37166">
        <ele>1223.9</ele>
        <time>2021-09-07T08:13:05.000Z</time>
      </trkpt>
      <trkpt lat="43.76499" lon="6.37177">
        <ele>1223.8</ele>
        <time>2021-09-07T08:13:05.000Z</time>
      </trkpt>
      <trkpt lat="43.76497" lon="6.37172">
        <ele>1223.6</ele>
        <time>2021-09-07T08:13:06.000Z</time>
      </trkpt>
      <trkpt lat="43.76492" lon="6.37155">
        <ele>1224.1</ele>
        <time>2021-09-07T08:13:07.000Z</time>
      </trkpt>
      <trkpt lat="43.76494" lon="6.37163">
        <ele>1224</ele>
        <time>2021-09-07T08:13:08.000Z</time>
      </trkpt>
      <trkpt lat="43.7649" lon="6.37152">
        <ele>1224</ele>
        <time>2021-09-07T08:13:10.000Z</time>
      </trkpt>
      <trkpt lat="43.76481" lon="6.37137">
        <ele>1224.5</ele>
        <time>2021-09-07T08:13:12.000Z</time>
      </trkpt>
      <trkpt lat="43.76479" lon="6.37134">
        <ele>1224.6</ele>
        <time>2021-09-07T08:13:13.000Z</time>
      </trkpt>
      <trkpt lat="43.76476" lon="6.3713">
        <ele>1225</ele>
        <time>2021-09-07T08:13:14.000Z</time>
      </trkpt>
      <trkpt lat="43.76474" lon="6.37127">
        <ele>1224.9</ele>
        <time>2021-09-07T08:13:15.000Z</time>
      </trkpt>
      <trkpt lat="43.76479" lon="6.37135">
        <ele>1224.5</ele>
        <time>2021-09-07T08:13:15.000Z</time>
      </trkpt>
      <trkpt lat="43.76478" lon="6.37132">
        <ele>1224.7</ele>
        <time>2021-09-07T08:13:16.000Z</time>
      </trkpt>
      <trkpt lat="43.76468" lon="6.37115">
        <ele>1225.1</ele>
        <time>2021-09-07T08:13:18.000Z</time>
      </trkpt>
      <trkpt lat="43.76466" lon="6.37112">
        <ele>1225.1</ele>
        <time>2021-09-07T08:13:19.000Z</time>
      </trkpt>
      <trkpt lat="43.76463" lon="6.37108">
        <ele>1225.2</ele>
        <time>2021-09-07T08:13:20.000Z</time>
      </trkpt>
      <trkpt lat="43.76467" lon="6.37114">
        <ele>1225.1</ele>
        <time>2021-09-07T08:13:21.000Z</time>
      </trkpt>
      <trkpt lat="43.76458" lon="6.371">
        <ele>1225.3</ele>
        <time>2021-09-07T08:13:22.000Z</time>
      </trkpt>
      <trkpt lat="43.76465" lon="6.37109">
        <ele>1225.2</ele>
        <time>2021-09-07T08:13:22.000Z</time>
      </trkpt>
      <trkpt lat="43.76461" lon="6.37105">
        <ele>1225.2</ele>
        <time>2021-09-07T08:13:23.000Z</time>
      </trkpt>
      <trkpt lat="43.76456" lon="6.37097">
        <ele>1225.4</ele>
        <time>2021-09-07T08:13:25.000Z</time>
      </trkpt>
      <trkpt lat="43.76449" lon="6.37085">
        <ele>1226.2</ele>
        <time>2021-09-07T08:13:26.000Z</time>
      </trkpt>
      <trkpt lat="43.76447" lon="6.37082">
        <ele>1226.4</ele>
        <time>2021-09-07T08:13:27.000Z</time>
      </trkpt>
      <trkpt lat="43.76444" lon="6.37078">
        <ele>1226.4</ele>
        <time>2021-09-07T08:13:28.000Z</time>
      </trkpt>
      <trkpt lat="43.76442" lon="6.37073">
        <ele>1226.5</ele>
        <time>2021-09-07T08:13:29.000Z</time>
      </trkpt>
      <trkpt lat="43.76448" lon="6.37083">
        <ele>1226.3</ele>
        <time>2021-09-07T08:13:29.000Z</time>
      </trkpt>
      <trkpt lat="43.76445" lon="6.37079">
        <ele>1226.4</ele>
        <time>2021-09-07T08:13:30.000Z</time>
      </trkpt>
      <trkpt lat="43.76437" lon="6.37066">
        <ele>1226</ele>
        <time>2021-09-07T08:13:31.000Z</time>
      </trkpt>
      <trkpt lat="43.76443" lon="6.37076">
        <ele>1226.6</ele>
        <time>2021-09-07T08:13:31.000Z</time>
      </trkpt>
      <trkpt lat="43.7644" lon="6.3707">
        <ele>1226.1</ele>
        <time>2021-09-07T08:13:32.000Z</time>
      </trkpt>
      <trkpt lat="43.76432" lon="6.37058">
        <ele>1225.7</ele>
        <time>2021-09-07T08:13:33.000Z</time>
      </trkpt>
      <trkpt lat="43.76436" lon="6.37064">
        <ele>1225.9</ele>
        <time>2021-09-07T08:13:34.000Z</time>
      </trkpt>
      <trkpt lat="43.7643" lon="6.37056">
        <ele>1225.8</ele>
        <time>2021-09-07T08:13:36.000Z</time>
      </trkpt>
      <trkpt lat="43.76424" lon="6.37047">
        <ele>1226.5</ele>
        <time>2021-09-07T08:13:36.000Z</time>
      </trkpt>
      <trkpt lat="43.76421" lon="6.37044">
        <ele>1226.5</ele>
        <time>2021-09-07T08:13:37.000Z</time>
      </trkpt>
      <trkpt lat="43.76415" lon="6.37037">
        <ele>1227.1</ele>
        <time>2021-09-07T08:13:40.000Z</time>
      </trkpt>
      <trkpt lat="43.76415" lon="6.37037">
        <ele>1227.2</ele>
        <time>2021-09-07T08:13:43.000Z</time>
      </trkpt>
      <trkpt lat="43.76408" lon="6.37031">
        <ele>1227.9</ele>
        <time>2021-09-07T08:13:43.000Z</time>
      </trkpt>
      <trkpt lat="43.76408" lon="6.37031">
        <ele>1227.9</ele>
        <time>2021-09-07T08:13:43.000Z</time>
      </trkpt>
      <trkpt lat="43.76406" lon="6.3703">
        <ele>1227.7</ele>
        <time>2021-09-07T08:13:46.000Z</time>
      </trkpt>
      <trkpt lat="43.76401" lon="6.37028">
        <ele>1228.7</ele>
        <time>2021-09-07T08:13:47.000Z</time>
      </trkpt>
      <trkpt lat="43.76397" lon="6.37024">
        <ele>1228.8</ele>
        <time>2021-09-07T08:13:49.000Z</time>
      </trkpt>
      <trkpt lat="43.76395" lon="6.37023">
        <ele>1228.9</ele>
        <time>2021-09-07T08:13:50.000Z</time>
      </trkpt>
      <trkpt lat="43.76399" lon="6.37027">
        <ele>1228.5</ele>
        <time>2021-09-07T08:13:50.000Z</time>
      </trkpt>
      <trkpt lat="43.76393" lon="6.37022">
        <ele>1229.3</ele>
        <time>2021-09-07T08:13:51.000Z</time>
      </trkpt>
      <trkpt lat="43.76396" lon="6.37024">
        <ele>1228.8</ele>
        <time>2021-09-07T08:13:52.000Z</time>
      </trkpt>
      <trkpt lat="43.76394" lon="6.37023">
        <ele>1229.2</ele>
        <time>2021-09-07T08:13:53.000Z</time>
      </trkpt>
      <trkpt lat="43.76392" lon="6.37021">
        <ele>1229.4</ele>
        <time>2021-09-07T08:13:54.000Z</time>
      </trkpt>
      <trkpt lat="43.76388" lon="6.37019">
        <ele>1230</ele>
        <time>2021-09-07T08:13:54.000Z</time>
      </trkpt>
      <trkpt lat="43.76386" lon="6.37018">
        <ele>1230.3</ele>
        <time>2021-09-07T08:13:55.000Z</time>
      </trkpt>
      <trkpt lat="43.76382" lon="6.37016">
        <ele>1230.6</ele>
        <time>2021-09-07T08:14:00.000Z</time>
      </trkpt>
      <trkpt lat="43.76377" lon="6.37011">
        <ele>1231.2</ele>
        <time>2021-09-07T08:14:00.000Z</time>
      </trkpt>
      <trkpt lat="43.76376" lon="6.37009">
        <ele>1231.6</ele>
        <time>2021-09-07T08:14:03.000Z</time>
      </trkpt>
      <trkpt lat="43.76367" lon="6.37001">
        <ele>1232.7</ele>
        <time>2021-09-07T08:14:08.000Z</time>
      </trkpt>
      <trkpt lat="43.7636" lon="6.36996">
        <ele>1233.6</ele>
        <time>2021-09-07T08:14:09.000Z</time>
      </trkpt>
      <trkpt lat="43.76358" lon="6.36995">
        <ele>1233.8</ele>
        <time>2021-09-07T08:14:10.000Z</time>
      </trkpt>
      <trkpt lat="43.76359" lon="6.36996">
        <ele>1233.7</ele>
        <time>2021-09-07T08:14:12.000Z</time>
      </trkpt>
      <trkpt lat="43.76356" lon="6.36994">
        <ele>1234.1</ele>
        <time>2021-09-07T08:14:13.000Z</time>
      </trkpt>
      <trkpt lat="43.76353" lon="6.36992">
        <ele>1234.7</ele>
        <time>2021-09-07T08:14:13.000Z</time>
      </trkpt>
      <trkpt lat="43.76351" lon="6.36991">
        <ele>1235</ele>
        <time>2021-09-07T08:14:14.000Z</time>
      </trkpt>
      <trkpt lat="43.76351" lon="6.36991">
        <ele>1234.7</ele>
        <time>2021-09-07T08:14:16.000Z</time>
      </trkpt>
      <trkpt lat="43.7635" lon="6.3699">
        <ele>1235.3</ele>
        <time>2021-09-07T08:14:17.000Z</time>
      </trkpt>
      <trkpt lat="43.76341" lon="6.36983">
        <ele>1236.8</ele>
        <time>2021-09-07T08:14:20.000Z</time>
      </trkpt>
      <trkpt lat="43.76339" lon="6.36982">
        <ele>1237.4</ele>
        <time>2021-09-07T08:14:21.000Z</time>
      </trkpt>
      <trkpt lat="43.76341" lon="6.36984">
        <ele>1236.6</ele>
        <time>2021-09-07T08:14:22.000Z</time>
      </trkpt>
      <trkpt lat="43.76335" lon="6.36981">
        <ele>1237.6</ele>
        <time>2021-09-07T08:14:23.000Z</time>
      </trkpt>
      <trkpt lat="43.76339" lon="6.36982">
        <ele>1237.2</ele>
        <time>2021-09-07T08:14:23.000Z</time>
      </trkpt>
      <trkpt lat="43.76334" lon="6.3698">
        <ele>1237.9</ele>
        <time>2021-09-07T08:14:24.000Z</time>
      </trkpt>
      <trkpt lat="43.76337" lon="6.36981">
        <ele>1237.3</ele>
        <time>2021-09-07T08:14:24.000Z</time>
      </trkpt>
      <trkpt lat="43.76334" lon="6.3698">
        <ele>1237.8</ele>
        <time>2021-09-07T08:14:26.000Z</time>
      </trkpt>
      <trkpt lat="43.76332" lon="6.36979">
        <ele>1238</ele>
        <time>2021-09-07T08:14:27.000Z</time>
      </trkpt>
      <trkpt lat="43.76327" lon="6.36974">
        <ele>1238.3</ele>
        <time>2021-09-07T08:14:27.000Z</time>
      </trkpt>
      <trkpt lat="43.76324" lon="6.36973">
        <ele>1238.5</ele>
        <time>2021-09-07T08:14:28.000Z</time>
      </trkpt>
      <trkpt lat="43.7632" lon="6.36969">
        <ele>1239.2</ele>
        <time>2021-09-07T08:14:30.000Z</time>
      </trkpt>
      <trkpt lat="43.76319" lon="6.36968">
        <ele>1239.3</ele>
        <time>2021-09-07T08:14:31.000Z</time>
      </trkpt>
      <trkpt lat="43.76317" lon="6.36967">
        <ele>1239.6</ele>
        <time>2021-09-07T08:14:32.000Z</time>
      </trkpt>
      <trkpt lat="43.7632" lon="6.36969">
        <ele>1239.3</ele>
        <time>2021-09-07T08:14:33.000Z</time>
      </trkpt>
      <trkpt lat="43.76312" lon="6.36965">
        <ele>1240.6</ele>
        <time>2021-09-07T08:14:35.000Z</time>
      </trkpt>
      <trkpt lat="43.7631" lon="6.36966">
        <ele>1240.7</ele>
        <time>2021-09-07T08:14:36.000Z</time>
      </trkpt>
      <trkpt lat="43.76307" lon="6.36967">
        <ele>1240.9</ele>
        <time>2021-09-07T08:14:37.000Z</time>
      </trkpt>
      <trkpt lat="43.76305" lon="6.36965">
        <ele>1240.9</ele>
        <time>2021-09-07T08:14:38.000Z</time>
      </trkpt>
      <trkpt lat="43.7631" lon="6.36965">
        <ele>1240.6</ele>
        <time>2021-09-07T08:14:38.000Z</time>
      </trkpt>
      <trkpt lat="43.76308" lon="6.36967">
        <ele>1240.8</ele>
        <time>2021-09-07T08:14:39.000Z</time>
      </trkpt>
      <trkpt lat="43.76306" lon="6.36966">
        <ele>1240.8</ele>
        <time>2021-09-07T08:14:40.000Z</time>
      </trkpt>
      <trkpt lat="43.76304" lon="6.36963">
        <ele>1241.1</ele>
        <time>2021-09-07T08:14:41.000Z</time>
      </trkpt>
      <trkpt lat="43.76299" lon="6.36959">
        <ele>1241.8</ele>
        <time>2021-09-07T08:14:42.000Z</time>
      </trkpt>
      <trkpt lat="43.76297" lon="6.36959">
        <ele>1241.7</ele>
        <time>2021-09-07T08:14:43.000Z</time>
      </trkpt>
      <trkpt lat="43.76297" lon="6.36959">
        <ele>1241.6</ele>
        <time>2021-09-07T08:14:45.000Z</time>
      </trkpt>
      <trkpt lat="43.76297" lon="6.36959">
        <ele>1241.6</ele>
        <time>2021-09-07T08:14:45.000Z</time>
      </trkpt>
      <trkpt lat="43.76296" lon="6.36959">
        <ele>1241.9</ele>
        <time>2021-09-07T08:14:46.000Z</time>
      </trkpt>
      <trkpt lat="43.76291" lon="6.36955">
        <ele>1242.3</ele>
        <time>2021-09-07T08:14:46.000Z</time>
      </trkpt>
      <trkpt lat="43.7629" lon="6.36954">
        <ele>1242.4</ele>
        <time>2021-09-07T08:14:47.000Z</time>
      </trkpt>
      <trkpt lat="43.76288" lon="6.36953">
        <ele>1242.5</ele>
        <time>2021-09-07T08:14:48.000Z</time>
      </trkpt>
      <trkpt lat="43.7629" lon="6.36954">
        <ele>1242.4</ele>
        <time>2021-09-07T08:14:49.000Z</time>
      </trkpt>
      <trkpt lat="43.76289" lon="6.36954">
        <ele>1242.4</ele>
        <time>2021-09-07T08:14:50.000Z</time>
      </trkpt>
      <trkpt lat="43.76286" lon="6.36952">
        <ele>1242.7</ele>
        <time>2021-09-07T08:14:51.000Z</time>
      </trkpt>
      <trkpt lat="43.76281" lon="6.36948">
        <ele>1243</ele>
        <time>2021-09-07T08:14:52.000Z</time>
      </trkpt>
      <trkpt lat="43.76279" lon="6.36946">
        <ele>1243</ele>
        <time>2021-09-07T08:14:53.000Z</time>
      </trkpt>
      <trkpt lat="43.76276" lon="6.36945">
        <ele>1243.3</ele>
        <time>2021-09-07T08:14:54.000Z</time>
      </trkpt>
      <trkpt lat="43.76274" lon="6.36944">
        <ele>1243.5</ele>
        <time>2021-09-07T08:14:55.000Z</time>
      </trkpt>
      <trkpt lat="43.7627" lon="6.3694">
        <ele>1243.8</ele>
        <time>2021-09-07T08:14:57.000Z</time>
      </trkpt>
      <trkpt lat="43.76275" lon="6.36944">
        <ele>1243.4</ele>
        <time>2021-09-07T08:14:57.000Z</time>
      </trkpt>
      <trkpt lat="43.76269" lon="6.36939">
        <ele>1243.9</ele>
        <time>2021-09-07T08:14:58.000Z</time>
      </trkpt>
      <trkpt lat="43.76273" lon="6.36943">
        <ele>1243.5</ele>
        <time>2021-09-07T08:14:58.000Z</time>
      </trkpt>
      <trkpt lat="43.76265" lon="6.36936">
        <ele>1244.3</ele>
        <time>2021-09-07T08:15:00.000Z</time>
      </trkpt>
      <trkpt lat="43.76269" lon="6.36939">
        <ele>1243.9</ele>
        <time>2021-09-07T08:15:00.000Z</time>
      </trkpt>
      <trkpt lat="43.76268" lon="6.36938">
        <ele>1244.1</ele>
        <time>2021-09-07T08:15:01.000Z</time>
      </trkpt>
      <trkpt lat="43.76261" lon="6.36933">
        <ele>1244.7</ele>
        <time>2021-09-07T08:15:02.000Z</time>
      </trkpt>
      <trkpt lat="43.76264" lon="6.36935">
        <ele>1244.4</ele>
        <time>2021-09-07T08:15:03.000Z</time>
      </trkpt>
      <trkpt lat="43.76259" lon="6.36929">
        <ele>1244.8</ele>
        <time>2021-09-07T08:15:04.000Z</time>
      </trkpt>
      <trkpt lat="43.76257" lon="6.36926">
        <ele>1245.1</ele>
        <time>2021-09-07T08:15:05.000Z</time>
      </trkpt>
      <trkpt lat="43.7626" lon="6.36931">
        <ele>1244.7</ele>
        <time>2021-09-07T08:15:05.000Z</time>
      </trkpt>
      <trkpt lat="43.76255" lon="6.36924">
        <ele>1245.4</ele>
        <time>2021-09-07T08:15:06.000Z</time>
      </trkpt>
      <trkpt lat="43.76258" lon="6.36928">
        <ele>1245</ele>
        <time>2021-09-07T08:15:07.000Z</time>
      </trkpt>
      <trkpt lat="43.76256" lon="6.36925">
        <ele>1245.2</ele>
        <time>2021-09-07T08:15:08.000Z</time>
      </trkpt>
      <trkpt lat="43.76253" lon="6.36923">
        <ele>1245.6</ele>
        <time>2021-09-07T08:15:09.000Z</time>
      </trkpt>
      <trkpt lat="43.76247" lon="6.36916">
        <ele>1245.1</ele>
        <time>2021-09-07T08:15:10.000Z</time>
      </trkpt>
      <trkpt lat="43.76245" lon="6.36915">
        <ele>1245.2</ele>
        <time>2021-09-07T08:15:13.000Z</time>
      </trkpt>
      <trkpt lat="43.7624" lon="6.36909">
        <ele>1245.8</ele>
        <time>2021-09-07T08:15:13.000Z</time>
      </trkpt>
      <trkpt lat="43.76238" lon="6.36907">
        <ele>1245.8</ele>
        <time>2021-09-07T08:15:14.000Z</time>
      </trkpt>
      <trkpt lat="43.76237" lon="6.36905">
        <ele>1246</ele>
        <time>2021-09-07T08:15:15.000Z</time>
      </trkpt>
      <trkpt lat="43.7624" lon="6.36909">
        <ele>1245.9</ele>
        <time>2021-09-07T08:15:16.000Z</time>
      </trkpt>
      <trkpt lat="43.76229" lon="6.36892">
        <ele>1246.6</ele>
        <time>2021-09-07T08:15:20.000Z</time>
      </trkpt>
      <trkpt lat="43.7623" lon="6.36895">
        <ele>1246.6</ele>
        <time>2021-09-07T08:15:21.000Z</time>
      </trkpt>
      <trkpt lat="43.76228" lon="6.36891">
        <ele>1246.7</ele>
        <time>2021-09-07T08:15:23.000Z</time>
      </trkpt>
      <trkpt lat="43.76225" lon="6.36884">
        <ele>1246.9</ele>
        <time>2021-09-07T08:15:23.000Z</time>
      </trkpt>
      <trkpt lat="43.76223" lon="6.36881">
        <ele>1247.2</ele>
        <time>2021-09-07T08:15:24.000Z</time>
      </trkpt>
      <trkpt lat="43.76221" lon="6.36876">
        <ele>1247.4</ele>
        <time>2021-09-07T08:15:26.000Z</time>
      </trkpt>
      <trkpt lat="43.7622" lon="6.36873">
        <ele>1247.5</ele>
        <time>2021-09-07T08:15:27.000Z</time>
      </trkpt>
      <trkpt lat="43.76216" lon="6.36865">
        <ele>1247.9</ele>
        <time>2021-09-07T08:15:30.000Z</time>
      </trkpt>
      <trkpt lat="43.76215" lon="6.36863">
        <ele>1247.9</ele>
        <time>2021-09-07T08:15:31.000Z</time>
      </trkpt>
      <trkpt lat="43.76216" lon="6.36866">
        <ele>1247.8</ele>
        <time>2021-09-07T08:15:32.000Z</time>
      </trkpt>
      <trkpt lat="43.76215" lon="6.36864">
        <ele>1248</ele>
        <time>2021-09-07T08:15:33.000Z</time>
      </trkpt>
      <trkpt lat="43.76213" lon="6.3686">
        <ele>1248</ele>
        <time>2021-09-07T08:15:34.000Z</time>
      </trkpt>
      <trkpt lat="43.7621" lon="6.36855">
        <ele>1248.2</ele>
        <time>2021-09-07T08:15:34.000Z</time>
      </trkpt>
      <trkpt lat="43.76208" lon="6.36853">
        <ele>1248.4</ele>
        <time>2021-09-07T08:15:35.000Z</time>
      </trkpt>
      <trkpt lat="43.76209" lon="6.36854">
        <ele>1248.4</ele>
        <time>2021-09-07T08:15:37.000Z</time>
      </trkpt>
      <trkpt lat="43.76207" lon="6.3685">
        <ele>1248.6</ele>
        <time>2021-09-07T08:15:38.000Z</time>
      </trkpt>
      <trkpt lat="43.76204" lon="6.36839">
        <ele>1249.1</ele>
        <time>2021-09-07T08:15:39.000Z</time>
      </trkpt>
      <trkpt lat="43.76203" lon="6.36837">
        <ele>1248.9</ele>
        <time>2021-09-07T08:15:40.000Z</time>
      </trkpt>
      <trkpt lat="43.76201" lon="6.36836">
        <ele>1249.2</ele>
        <time>2021-09-07T08:15:41.000Z</time>
      </trkpt>
      <trkpt lat="43.76203" lon="6.36838">
        <ele>1248.8</ele>
        <time>2021-09-07T08:15:42.000Z</time>
      </trkpt>
      <trkpt lat="43.76197" lon="6.36831">
        <ele>1249.5</ele>
        <time>2021-09-07T08:15:43.000Z</time>
      </trkpt>
      <trkpt lat="43.76202" lon="6.36836">
        <ele>1249.1</ele>
        <time>2021-09-07T08:15:43.000Z</time>
      </trkpt>
      <trkpt lat="43.76199" lon="6.36835">
        <ele>1249.3</ele>
        <time>2021-09-07T08:15:44.000Z</time>
      </trkpt>
      <trkpt lat="43.76197" lon="6.3683">
        <ele>1249.6</ele>
        <time>2021-09-07T08:15:46.000Z</time>
      </trkpt>
      <trkpt lat="43.76197" lon="6.3683">
        <ele>1249.6</ele>
        <time>2021-09-07T08:15:46.000Z</time>
      </trkpt>
      <trkpt lat="43.76188" lon="6.36817">
        <ele>1250.2</ele>
        <time>2021-09-07T08:15:47.000Z</time>
      </trkpt>
      <trkpt lat="43.76191" lon="6.36822">
        <ele>1249.7</ele>
        <time>2021-09-07T08:15:48.000Z</time>
      </trkpt>
      <trkpt lat="43.76186" lon="6.36814">
        <ele>1250.1</ele>
        <time>2021-09-07T08:15:48.000Z</time>
      </trkpt>
      <trkpt lat="43.76184" lon="6.36811">
        <ele>1250.5</ele>
        <time>2021-09-07T08:15:49.000Z</time>
      </trkpt>
      <trkpt lat="43.76179" lon="6.36804">
        <ele>1250.8</ele>
        <time>2021-09-07T08:15:51.000Z</time>
      </trkpt>
      <trkpt lat="43.76185" lon="6.36812">
        <ele>1250.3</ele>
        <time>2021-09-07T08:15:51.000Z</time>
      </trkpt>
      <trkpt lat="43.76182" lon="6.36808">
        <ele>1250.5</ele>
        <time>2021-09-07T08:15:52.000Z</time>
      </trkpt>
      <trkpt lat="43.76177" lon="6.36802">
        <ele>1251.1</ele>
        <time>2021-09-07T08:15:54.000Z</time>
      </trkpt>
      <trkpt lat="43.76171" lon="6.36793">
        <ele>1250.9</ele>
        <time>2021-09-07T08:15:54.000Z</time>
      </trkpt>
      <trkpt lat="43.76169" lon="6.3679">
        <ele>1251.1</ele>
        <time>2021-09-07T08:15:55.000Z</time>
      </trkpt>
      <trkpt lat="43.7617" lon="6.36791">
        <ele>1251</ele>
        <time>2021-09-07T08:15:57.000Z</time>
      </trkpt>
      <trkpt lat="43.76167" lon="6.36788">
        <ele>1251</ele>
        <time>2021-09-07T08:15:58.000Z</time>
      </trkpt>
      <trkpt lat="43.7616" lon="6.36779">
        <ele>1251.4</ele>
        <time>2021-09-07T08:15:59.000Z</time>
      </trkpt>
      <trkpt lat="43.76159" lon="6.36777">
        <ele>1251.4</ele>
        <time>2021-09-07T08:16:00.000Z</time>
      </trkpt>
      <trkpt lat="43.76156" lon="6.36772">
        <ele>1250.9</ele>
        <time>2021-09-07T08:16:02.000Z</time>
      </trkpt>
      <trkpt lat="43.76154" lon="6.36769">
        <ele>1251.1</ele>
        <time>2021-09-07T08:16:03.000Z</time>
      </trkpt>
      <trkpt lat="43.76155" lon="6.36771">
        <ele>1250.9</ele>
        <time>2021-09-07T08:16:05.000Z</time>
      </trkpt>
      <trkpt lat="43.76152" lon="6.36768">
        <ele>1251.7</ele>
        <time>2021-09-07T08:16:06.000Z</time>
      </trkpt>
      <trkpt lat="43.76149" lon="6.36762">
        <ele>1251.9</ele>
        <time>2021-09-07T08:16:06.000Z</time>
      </trkpt>
      <trkpt lat="43.76147" lon="6.36759">
        <ele>1251.9</ele>
        <time>2021-09-07T08:16:07.000Z</time>
      </trkpt>
      <trkpt lat="43.76145" lon="6.36756">
        <ele>1252.3</ele>
        <time>2021-09-07T08:16:08.000Z</time>
      </trkpt>
      <trkpt lat="43.76148" lon="6.3676">
        <ele>1251.8</ele>
        <time>2021-09-07T08:16:09.000Z</time>
      </trkpt>
      <trkpt lat="43.76146" lon="6.36757">
        <ele>1252.1</ele>
        <time>2021-09-07T08:16:10.000Z</time>
      </trkpt>
      <trkpt lat="43.76143" lon="6.36753">
        <ele>1252.1</ele>
        <time>2021-09-07T08:16:11.000Z</time>
      </trkpt>
      <trkpt lat="43.76131" lon="6.36735">
        <ele>1252.5</ele>
        <time>2021-09-07T08:16:15.000Z</time>
      </trkpt>
      <trkpt lat="43.76134" lon="6.36739">
        <ele>1252.5</ele>
        <time>2021-09-07T08:16:16.000Z</time>
      </trkpt>
      <trkpt lat="43.76127" lon="6.3673">
        <ele>1252.6</ele>
        <time>2021-09-07T08:16:17.000Z</time>
      </trkpt>
      <trkpt lat="43.76131" lon="6.36734">
        <ele>1252.5</ele>
        <time>2021-09-07T08:16:18.000Z</time>
      </trkpt>
      <trkpt lat="43.76125" lon="6.36729">
        <ele>1252.8</ele>
        <time>2021-09-07T08:16:20.000Z</time>
      </trkpt>
      <trkpt lat="43.76119" lon="6.36725">
        <ele>1252.4</ele>
        <time>2021-09-07T08:16:20.000Z</time>
      </trkpt>
      <trkpt lat="43.76116" lon="6.36724">
        <ele>1252.6</ele>
        <time>2021-09-07T08:16:21.000Z</time>
      </trkpt>
      <trkpt lat="43.76113" lon="6.36723">
        <ele>1252.4</ele>
        <time>2021-09-07T08:16:22.000Z</time>
      </trkpt>
      <trkpt lat="43.7611" lon="6.36723">
        <ele>1252.2</ele>
        <time>2021-09-07T08:16:23.000Z</time>
      </trkpt>
      <trkpt lat="43.76107" lon="6.36723">
        <ele>1252.3</ele>
        <time>2021-09-07T08:16:24.000Z</time>
      </trkpt>
      <trkpt lat="43.76111" lon="6.36723">
        <ele>1252.3</ele>
        <time>2021-09-07T08:16:25.000Z</time>
      </trkpt>
      <trkpt lat="43.76108" lon="6.36723">
        <ele>1252.1</ele>
        <time>2021-09-07T08:16:26.000Z</time>
      </trkpt>
      <trkpt lat="43.76104" lon="6.36724">
        <ele>1252.4</ele>
        <time>2021-09-07T08:16:27.000Z</time>
      </trkpt>
      <trkpt lat="43.76096" lon="6.36728">
        <ele>1252.6</ele>
        <time>2021-09-07T08:16:28.000Z</time>
      </trkpt>
      <trkpt lat="43.76093" lon="6.36729">
        <ele>1252.5</ele>
        <time>2021-09-07T08:16:29.000Z</time>
      </trkpt>
      <trkpt lat="43.76094" lon="6.36728">
        <ele>1252.7</ele>
        <time>2021-09-07T08:16:31.000Z</time>
      </trkpt>
      <trkpt lat="43.76092" lon="6.36729">
        <ele>1252.4</ele>
        <time>2021-09-07T08:16:32.000Z</time>
      </trkpt>
      <trkpt lat="43.76088" lon="6.36732">
        <ele>1252.6</ele>
        <time>2021-09-07T08:16:32.000Z</time>
      </trkpt>
      <trkpt lat="43.76087" lon="6.36734">
        <ele>1252.4</ele>
        <time>2021-09-07T08:16:33.000Z</time>
      </trkpt>
      <trkpt lat="43.76084" lon="6.36737">
        <ele>1252.5</ele>
        <time>2021-09-07T08:16:35.000Z</time>
      </trkpt>
      <trkpt lat="43.76087" lon="6.36733">
        <ele>1252.5</ele>
        <time>2021-09-07T08:16:35.000Z</time>
      </trkpt>
      <trkpt lat="43.76086" lon="6.36735">
        <ele>1252.4</ele>
        <time>2021-09-07T08:16:36.000Z</time>
      </trkpt>
      <trkpt lat="43.76081" lon="6.36741">
        <ele>1252.5</ele>
        <time>2021-09-07T08:16:37.000Z</time>
      </trkpt>
      <trkpt lat="43.76083" lon="6.36738">
        <ele>1252.6</ele>
        <time>2021-09-07T08:16:38.000Z</time>
      </trkpt>
      <trkpt lat="43.76076" lon="6.36746">
        <ele>1252.6</ele>
        <time>2021-09-07T08:16:39.000Z</time>
      </trkpt>
      <trkpt lat="43.7608" lon="6.36742">
        <ele>1252.5</ele>
        <time>2021-09-07T08:16:40.000Z</time>
      </trkpt>
      <trkpt lat="43.76074" lon="6.36748">
        <ele>1252.5</ele>
        <time>2021-09-07T08:16:42.000Z</time>
      </trkpt>
      <trkpt lat="43.76071" lon="6.3676">
        <ele>1252.3</ele>
        <time>2021-09-07T08:16:43.000Z</time>
      </trkpt>
      <trkpt lat="43.76071" lon="6.36762">
        <ele>1252.3</ele>
        <time>2021-09-07T08:16:46.000Z</time>
      </trkpt>
      <trkpt lat="43.76071" lon="6.36762">
        <ele>1252.3</ele>
        <time>2021-09-07T08:16:46.000Z</time>
      </trkpt>
      <trkpt lat="43.7607" lon="6.36767">
        <ele>1252.3</ele>
        <time>2021-09-07T08:16:47.000Z</time>
      </trkpt>
      <trkpt lat="43.76067" lon="6.36777">
        <ele>1252.5</ele>
        <time>2021-09-07T08:16:47.000Z</time>
      </trkpt>
      <trkpt lat="43.76067" lon="6.36782">
        <ele>1252.5</ele>
        <time>2021-09-07T08:16:48.000Z</time>
      </trkpt>
      <trkpt lat="43.76066" lon="6.36788">
        <ele>1252.5</ele>
        <time>2021-09-07T08:16:49.000Z</time>
      </trkpt>
      <trkpt lat="43.76066" lon="6.36793">
        <ele>1252.4</ele>
        <time>2021-09-07T08:16:50.000Z</time>
      </trkpt>
      <trkpt lat="43.76067" lon="6.36786">
        <ele>1252.4</ele>
        <time>2021-09-07T08:16:51.000Z</time>
      </trkpt>
      <trkpt lat="43.76066" lon="6.36791">
        <ele>1252.6</ele>
        <time>2021-09-07T08:16:52.000Z</time>
      </trkpt>
      <trkpt lat="43.76066" lon="6.36797">
        <ele>1252.3</ele>
        <time>2021-09-07T08:16:53.000Z</time>
      </trkpt>
      <trkpt lat="43.76066" lon="6.36818">
        <ele>1252.6</ele>
        <time>2021-09-07T08:16:55.000Z</time>
      </trkpt>
      <trkpt lat="43.76066" lon="6.36823">
        <ele>1253</ele>
        <time>2021-09-07T08:16:56.000Z</time>
      </trkpt>
      <trkpt lat="43.76066" lon="6.36829">
        <ele>1252.9</ele>
        <time>2021-09-07T08:16:57.000Z</time>
      </trkpt>
      <trkpt lat="43.76065" lon="6.36835">
        <ele>1252.9</ele>
        <time>2021-09-07T08:16:58.000Z</time>
      </trkpt>
      <trkpt lat="43.76066" lon="6.36821">
        <ele>1252.7</ele>
        <time>2021-09-07T08:16:58.000Z</time>
      </trkpt>
      <trkpt lat="43.76066" lon="6.36826">
        <ele>1253</ele>
        <time>2021-09-07T08:16:59.000Z</time>
      </trkpt>
      <trkpt lat="43.76063" lon="6.36846">
        <ele>1253.5</ele>
        <time>2021-09-07T08:17:00.000Z</time>
      </trkpt>
      <trkpt lat="43.76066" lon="6.36832">
        <ele>1253</ele>
        <time>2021-09-07T08:17:00.000Z</time>
      </trkpt>
      <trkpt lat="43.76064" lon="6.36838">
        <ele>1253.2</ele>
        <time>2021-09-07T08:17:01.000Z</time>
      </trkpt>
      <trkpt lat="43.76062" lon="6.3685">
        <ele>1253.8</ele>
        <time>2021-09-07T08:17:03.000Z</time>
      </trkpt>
      <trkpt lat="43.76062" lon="6.36863">
        <ele>1254</ele>
        <time>2021-09-07T08:17:03.000Z</time>
      </trkpt>
      <trkpt lat="43.76061" lon="6.36868">
        <ele>1254.5</ele>
        <time>2021-09-07T08:17:04.000Z</time>
      </trkpt>
      <trkpt lat="43.76061" lon="6.36873">
        <ele>1254.5</ele>
        <time>2021-09-07T08:17:05.000Z</time>
      </trkpt>
      <trkpt lat="43.7606" lon="6.36877">
        <ele>1254.7</ele>
        <time>2021-09-07T08:17:06.000Z</time>
      </trkpt>
      <trkpt lat="43.76061" lon="6.36867">
        <ele>1254.1</ele>
        <time>2021-09-07T08:17:06.000Z</time>
      </trkpt>
      <trkpt lat="43.76061" lon="6.3687">
        <ele>1254.5</ele>
        <time>2021-09-07T08:17:07.000Z</time>
      </trkpt>
      <trkpt lat="43.7606" lon="6.36876">
        <ele>1254.6</ele>
        <time>2021-09-07T08:17:08.000Z</time>
      </trkpt>
      <trkpt lat="43.7606" lon="6.3688">
        <ele>1255</ele>
        <time>2021-09-07T08:17:09.000Z</time>
      </trkpt>
      <trkpt lat="43.76058" lon="6.36895">
        <ele>1255.5</ele>
        <time>2021-09-07T08:17:10.000Z</time>
      </trkpt>
      <trkpt lat="43.76057" lon="6.36902">
        <ele>1256.3</ele>
        <time>2021-09-07T08:17:12.000Z</time>
      </trkpt>
      <trkpt lat="43.76058" lon="6.36898">
        <ele>1255.6</ele>
        <time>2021-09-07T08:17:13.000Z</time>
      </trkpt>
      <trkpt lat="43.76056" lon="6.36909">
        <ele>1256.6</ele>
        <time>2021-09-07T08:17:14.000Z</time>
      </trkpt>
      <trkpt lat="43.76056" lon="6.36911">
        <ele>1257.3</ele>
        <time>2021-09-07T08:17:15.000Z</time>
      </trkpt>
      <trkpt lat="43.76056" lon="6.36904">
        <ele>1256.4</ele>
        <time>2021-09-07T08:17:15.000Z</time>
      </trkpt>
      <trkpt lat="43.76056" lon="6.36915">
        <ele>1257.3</ele>
        <time>2021-09-07T08:17:16.000Z</time>
      </trkpt>
      <trkpt lat="43.76055" lon="6.3692">
        <ele>1257.6</ele>
        <time>2021-09-07T08:17:17.000Z</time>
      </trkpt>
      <trkpt lat="43.76056" lon="6.3691">
        <ele>1256.9</ele>
        <time>2021-09-07T08:17:17.000Z</time>
      </trkpt>
      <trkpt lat="43.76055" lon="6.36924">
        <ele>1257.9</ele>
        <time>2021-09-07T08:17:18.000Z</time>
      </trkpt>
      <trkpt lat="43.76056" lon="6.36913">
        <ele>1257.4</ele>
        <time>2021-09-07T08:17:18.000Z</time>
      </trkpt>
      <trkpt lat="43.76056" lon="6.36918">
        <ele>1257.3</ele>
        <time>2021-09-07T08:17:19.000Z</time>
      </trkpt>
      <trkpt lat="43.76055" lon="6.36923">
        <ele>1257.9</ele>
        <time>2021-09-07T08:17:20.000Z</time>
      </trkpt>
      <trkpt lat="43.76055" lon="6.36928">
        <ele>1258.2</ele>
        <time>2021-09-07T08:17:21.000Z</time>
      </trkpt>
      <trkpt lat="43.76054" lon="6.36936">
        <ele>1258.4</ele>
        <time>2021-09-07T08:17:21.000Z</time>
      </trkpt>
      <trkpt lat="43.76053" lon="6.36939">
        <ele>1258.6</ele>
        <time>2021-09-07T08:17:22.000Z</time>
      </trkpt>
      <trkpt lat="43.76053" lon="6.36943">
        <ele>1258.8</ele>
        <time>2021-09-07T08:17:23.000Z</time>
      </trkpt>
      <trkpt lat="43.76054" lon="6.36937">
        <ele>1258.6</ele>
        <time>2021-09-07T08:17:24.000Z</time>
      </trkpt>
      <trkpt lat="43.76053" lon="6.36942">
        <ele>1258.7</ele>
        <time>2021-09-07T08:17:25.000Z</time>
      </trkpt>
      <trkpt lat="43.76052" lon="6.36945">
        <ele>1258.9</ele>
        <time>2021-09-07T08:17:26.000Z</time>
      </trkpt>
      <trkpt lat="43.76047" lon="6.36952">
        <ele>1259.7</ele>
        <time>2021-09-07T08:17:26.000Z</time>
      </trkpt>
      <trkpt lat="43.76045" lon="6.36955">
        <ele>1259.9</ele>
        <time>2021-09-07T08:17:27.000Z</time>
      </trkpt>
      <trkpt lat="43.76043" lon="6.36958">
        <ele>1260.1</ele>
        <time>2021-09-07T08:17:28.000Z</time>
      </trkpt>
      <trkpt lat="43.76046" lon="6.36954">
        <ele>1259.8</ele>
        <time>2021-09-07T08:17:29.000Z</time>
      </trkpt>
      <trkpt lat="43.76038" lon="6.36968">
        <ele>1261.1</ele>
        <time>2021-09-07T08:17:31.000Z</time>
      </trkpt>
      <trkpt lat="43.76036" lon="6.36972">
        <ele>1261.4</ele>
        <time>2021-09-07T08:17:32.000Z</time>
      </trkpt>
      <trkpt lat="43.76033" lon="6.36978">
        <ele>1261.8</ele>
        <time>2021-09-07T08:17:34.000Z</time>
      </trkpt>
      <trkpt lat="43.76037" lon="6.36971">
        <ele>1261.3</ele>
        <time>2021-09-07T08:17:34.000Z</time>
      </trkpt>
      <trkpt lat="43.76034" lon="6.36975">
        <ele>1261.3</ele>
        <time>2021-09-07T08:17:35.000Z</time>
      </trkpt>
      <trkpt lat="43.7603" lon="6.36983">
        <ele>1262.3</ele>
        <time>2021-09-07T08:17:36.000Z</time>
      </trkpt>
      <trkpt lat="43.76032" lon="6.36979">
        <ele>1261.8</ele>
        <time>2021-09-07T08:17:37.000Z</time>
      </trkpt>
      <trkpt lat="43.76028" lon="6.36986">
        <ele>1263.1</ele>
        <time>2021-09-07T08:17:38.000Z</time>
      </trkpt>
      <trkpt lat="43.7603" lon="6.36984">
        <ele>1262.4</ele>
        <time>2021-09-07T08:17:39.000Z</time>
      </trkpt>
      <trkpt lat="43.76027" lon="6.36987">
        <ele>1263.2</ele>
        <time>2021-09-07T08:17:41.000Z</time>
      </trkpt>
      <trkpt lat="43.76024" lon="6.36988">
        <ele>1264.9</ele>
        <time>2021-09-07T08:17:42.000Z</time>
      </trkpt>
      <trkpt lat="43.76022" lon="6.36987">
        <ele>1265.1</ele>
        <time>2021-09-07T08:17:43.000Z</time>
      </trkpt>
      <trkpt lat="43.76023" lon="6.36988">
        <ele>1265.1</ele>
        <time>2021-09-07T08:17:45.000Z</time>
      </trkpt>
      <trkpt lat="43.76022" lon="6.36987">
        <ele>1265.1</ele>
        <time>2021-09-07T08:17:46.000Z</time>
      </trkpt>
      <trkpt lat="43.76014" lon="6.36986">
        <ele>1266.2</ele>
        <time>2021-09-07T08:17:47.000Z</time>
      </trkpt>
      <trkpt lat="43.76012" lon="6.36985">
        <ele>1266.2</ele>
        <time>2021-09-07T08:17:48.000Z</time>
      </trkpt>
      <trkpt lat="43.76017" lon="6.36986">
        <ele>1265.7</ele>
        <time>2021-09-07T08:17:48.000Z</time>
      </trkpt>
      <trkpt lat="43.7601" lon="6.36985">
        <ele>1266.3</ele>
        <time>2021-09-07T08:17:49.000Z</time>
      </trkpt>
      <trkpt lat="43.76007" lon="6.36985">
        <ele>1266.6</ele>
        <time>2021-09-07T08:17:50.000Z</time>
      </trkpt>
      <trkpt lat="43.76014" lon="6.36986">
        <ele>1266.1</ele>
        <time>2021-09-07T08:17:50.000Z</time>
      </trkpt>
      <trkpt lat="43.76011" lon="6.36985">
        <ele>1266.3</ele>
        <time>2021-09-07T08:17:51.000Z</time>
      </trkpt>
      <trkpt lat="43.76005" lon="6.36986">
        <ele>1266.6</ele>
        <time>2021-09-07T08:17:51.000Z</time>
      </trkpt>
      <trkpt lat="43.76004" lon="6.36985">
        <ele>1266.8</ele>
        <time>2021-09-07T08:17:54.000Z</time>
      </trkpt>
      <trkpt lat="43.75996" lon="6.36979">
        <ele>1267.4</ele>
        <time>2021-09-07T08:17:56.000Z</time>
      </trkpt>
      <trkpt lat="43.75994" lon="6.36978">
        <ele>1267.5</ele>
        <time>2021-09-07T08:17:57.000Z</time>
      </trkpt>
      <trkpt lat="43.7599" lon="6.36977">
        <ele>1267.7</ele>
        <time>2021-09-07T08:18:00.000Z</time>
      </trkpt>
      <trkpt lat="43.7599" lon="6.36977">
        <ele>1267.7</ele>
        <time>2021-09-07T08:18:02.000Z</time>
      </trkpt>
      <trkpt lat="43.7599" lon="6.36976">
        <ele>1268</ele>
        <time>2021-09-07T08:18:03.000Z</time>
      </trkpt>
      <trkpt lat="43.75989" lon="6.36968">
        <ele>1268.3</ele>
        <time>2021-09-07T08:18:03.000Z</time>
      </trkpt>
      <trkpt lat="43.75989" lon="6.36968">
        <ele>1268.3</ele>
        <time>2021-09-07T08:18:06.000Z</time>
      </trkpt>
      <trkpt lat="43.75986" lon="6.36963">
        <ele>1268.5</ele>
        <time>2021-09-07T08:18:06.000Z</time>
      </trkpt>
      <trkpt lat="43.75984" lon="6.36961">
        <ele>1268.5</ele>
        <time>2021-09-07T08:18:07.000Z</time>
      </trkpt>
      <trkpt lat="43.75983" lon="6.36958">
        <ele>1268.4</ele>
        <time>2021-09-07T08:18:08.000Z</time>
      </trkpt>
      <trkpt lat="43.75985" lon="6.36961">
        <ele>1268.6</ele>
        <time>2021-09-07T08:18:09.000Z</time>
      </trkpt>
      <trkpt lat="43.75979" lon="6.36954">
        <ele>1269.1</ele>
        <time>2021-09-07T08:18:10.000Z</time>
      </trkpt>
      <trkpt lat="43.75977" lon="6.36952">
        <ele>1269.4</ele>
        <time>2021-09-07T08:18:11.000Z</time>
      </trkpt>
      <trkpt lat="43.75978" lon="6.36953">
        <ele>1269.2</ele>
        <time>2021-09-07T08:18:13.000Z</time>
      </trkpt>
      <trkpt lat="43.75976" lon="6.3695">
        <ele>1269.5</ele>
        <time>2021-09-07T08:18:14.000Z</time>
      </trkpt>
      <trkpt lat="43.75968" lon="6.36941">
        <ele>1269.7</ele>
        <time>2021-09-07T08:18:16.000Z</time>
      </trkpt>
      <trkpt lat="43.75967" lon="6.36939">
        <ele>1269.9</ele>
        <time>2021-09-07T08:18:17.000Z</time>
      </trkpt>
      <trkpt lat="43.75964" lon="6.36931">
        <ele>1270.9</ele>
        <time>2021-09-07T08:18:20.000Z</time>
      </trkpt>
      <trkpt lat="43.75962" lon="6.36929">
        <ele>1271</ele>
        <time>2021-09-07T08:18:21.000Z</time>
      </trkpt>
      <trkpt lat="43.75964" lon="6.36932">
        <ele>1270.8</ele>
        <time>2021-09-07T08:18:22.000Z</time>
      </trkpt>
      <trkpt lat="43.75959" lon="6.36925">
        <ele>1272</ele>
        <time>2021-09-07T08:18:23.000Z</time>
      </trkpt>
      <trkpt lat="43.75962" lon="6.3693">
        <ele>1271</ele>
        <time>2021-09-07T08:18:23.000Z</time>
      </trkpt>
      <trkpt lat="43.75958" lon="6.36923">
        <ele>1272.2</ele>
        <time>2021-09-07T08:18:24.000Z</time>
      </trkpt>
      <trkpt lat="43.75961" lon="6.36927">
        <ele>1271.3</ele>
        <time>2021-09-07T08:18:24.000Z</time>
      </trkpt>
      <trkpt lat="43.75957" lon="6.36921">
        <ele>1272.3</ele>
        <time>2021-09-07T08:18:25.000Z</time>
      </trkpt>
      <trkpt lat="43.75959" lon="6.36924">
        <ele>1272.2</ele>
        <time>2021-09-07T08:18:26.000Z</time>
      </trkpt>
      <trkpt lat="43.75954" lon="6.36918">
        <ele>1272.6</ele>
        <time>2021-09-07T08:18:27.000Z</time>
      </trkpt>
      <trkpt lat="43.75953" lon="6.36915">
        <ele>1272.7</ele>
        <time>2021-09-07T08:18:28.000Z</time>
      </trkpt>
      <trkpt lat="43.75952" lon="6.3691">
        <ele>1272.8</ele>
        <time>2021-09-07T08:18:30.000Z</time>
      </trkpt>
      <trkpt lat="43.75954" lon="6.36917">
        <ele>1272.5</ele>
        <time>2021-09-07T08:18:30.000Z</time>
      </trkpt>
      <trkpt lat="43.75952" lon="6.36913">
        <ele>1272.9</ele>
        <time>2021-09-07T08:18:31.000Z</time>
      </trkpt>
      <trkpt lat="43.75951" lon="6.36909">
        <ele>1272.9</ele>
        <time>2021-09-07T08:18:33.000Z</time>
      </trkpt>
      <trkpt lat="43.75947" lon="6.36901">
        <ele>1273.6</ele>
        <time>2021-09-07T08:18:34.000Z</time>
      </trkpt>
      <trkpt lat="43.75943" lon="6.36899">
        <ele>1273.9</ele>
        <time>2021-09-07T08:18:36.000Z</time>
      </trkpt>
      <trkpt lat="43.75945" lon="6.36901">
        <ele>1273.8</ele>
        <time>2021-09-07T08:18:37.000Z</time>
      </trkpt>
      <trkpt lat="43.75942" lon="6.36892">
        <ele>1274</ele>
        <time>2021-09-07T08:18:38.000Z</time>
      </trkpt>
      <trkpt lat="43.75941" lon="6.36889">
        <ele>1274</ele>
        <time>2021-09-07T08:18:39.000Z</time>
      </trkpt>
      <trkpt lat="43.75943" lon="6.36898">
        <ele>1274</ele>
        <time>2021-09-07T08:18:39.000Z</time>
      </trkpt>
      <trkpt lat="43.7594" lon="6.36887">
        <ele>1274.2</ele>
        <time>2021-09-07T08:18:40.000Z</time>
      </trkpt>
      <trkpt lat="43.75939" lon="6.36884">
        <ele>1274.1</ele>
        <time>2021-09-07T08:18:41.000Z</time>
      </trkpt>
      <trkpt lat="43.75941" lon="6.36891">
        <ele>1274</ele>
        <time>2021-09-07T08:18:41.000Z</time>
      </trkpt>
      <trkpt lat="43.75937" lon="6.36881">
        <ele>1274.1</ele>
        <time>2021-09-07T08:18:42.000Z</time>
      </trkpt>
      <trkpt lat="43.7594" lon="6.36887">
        <ele>1274.1</ele>
        <time>2021-09-07T08:18:42.000Z</time>
      </trkpt>
      <trkpt lat="43.75936" lon="6.36878">
        <ele>1274.3</ele>
        <time>2021-09-07T08:18:43.000Z</time>
      </trkpt>
      <trkpt lat="43.75939" lon="6.36885">
        <ele>1274.2</ele>
        <time>2021-09-07T08:18:43.000Z</time>
      </trkpt>
      <trkpt lat="43.75938" lon="6.36882">
        <ele>1274</ele>
        <time>2021-09-07T08:18:44.000Z</time>
      </trkpt>
      <trkpt lat="43.75934" lon="6.36876">
        <ele>1274.8</ele>
        <time>2021-09-07T08:18:44.000Z</time>
      </trkpt>
      <trkpt lat="43.75934" lon="6.36876">
        <ele>1274.8</ele>
        <time>2021-09-07T08:18:44.000Z</time>
      </trkpt>
      <trkpt lat="43.75933" lon="6.36873">
        <ele>1274.8</ele>
        <time>2021-09-07T08:18:45.000Z</time>
      </trkpt>
      <trkpt lat="43.7593" lon="6.36869">
        <ele>1275.2</ele>
        <time>2021-09-07T08:18:47.000Z</time>
      </trkpt>
      <trkpt lat="43.75928" lon="6.36865">
        <ele>1275.3</ele>
        <time>2021-09-07T08:18:49.000Z</time>
      </trkpt>
      <trkpt lat="43.7593" lon="6.36868">
        <ele>1275.3</ele>
        <time>2021-09-07T08:18:50.000Z</time>
      </trkpt>
      <trkpt lat="43.75927" lon="6.36865">
        <ele>1275.3</ele>
        <time>2021-09-07T08:18:52.000Z</time>
      </trkpt>
      <trkpt lat="43.75924" lon="6.3686">
        <ele>1276</ele>
        <time>2021-09-07T08:18:52.000Z</time>
      </trkpt>
      <trkpt lat="43.75922" lon="6.36856">
        <ele>1275.9</ele>
        <time>2021-09-07T08:18:54.000Z</time>
      </trkpt>
      <trkpt lat="43.75924" lon="6.36858">
        <ele>1275.8</ele>
        <time>2021-09-07T08:18:55.000Z</time>
      </trkpt>
      <trkpt lat="43.75921" lon="6.36855">
        <ele>1276.1</ele>
        <time>2021-09-07T08:18:57.000Z</time>
      </trkpt>
      <trkpt lat="43.75918" lon="6.36849">
        <ele>1276.6</ele>
        <time>2021-09-07T08:18:57.000Z</time>
      </trkpt>
      <trkpt lat="43.75918" lon="6.36848">
        <ele>1276.6</ele>
        <time>2021-09-07T08:19:00.000Z</time>
      </trkpt>
      <trkpt lat="43.75912" lon="6.36838">
        <ele>1277.2</ele>
        <time>2021-09-07T08:19:01.000Z</time>
      </trkpt>
      <trkpt lat="43.7591" lon="6.36832">
        <ele>1277.3</ele>
        <time>2021-09-07T08:19:03.000Z</time>
      </trkpt>
      <trkpt lat="43.75911" lon="6.36836">
        <ele>1277.2</ele>
        <time>2021-09-07T08:19:04.000Z</time>
      </trkpt>
      <trkpt lat="43.75909" lon="6.3683">
        <ele>1277.6</ele>
        <time>2021-09-07T08:19:04.000Z</time>
      </trkpt>
      <trkpt lat="43.75904" lon="6.36822">
        <ele>1277.9</ele>
        <time>2021-09-07T08:19:07.000Z</time>
      </trkpt>
      <trkpt lat="43.75903" lon="6.3682">
        <ele>1278.1</ele>
        <time>2021-09-07T08:19:08.000Z</time>
      </trkpt>
      <trkpt lat="43.75905" lon="6.36824">
        <ele>1277.9</ele>
        <time>2021-09-07T08:19:09.000Z</time>
      </trkpt>
      <trkpt lat="43.759" lon="6.36813">
        <ele>1278.9</ele>
        <time>2021-09-07T08:19:11.000Z</time>
      </trkpt>
      <trkpt lat="43.759" lon="6.3681">
        <ele>1279</ele>
        <time>2021-09-07T08:19:12.000Z</time>
      </trkpt>
      <trkpt lat="43.75899" lon="6.36808">
        <ele>1279</ele>
        <time>2021-09-07T08:19:13.000Z</time>
      </trkpt>
      <trkpt lat="43.759" lon="6.36812">
        <ele>1279</ele>
        <time>2021-09-07T08:19:14.000Z</time>
      </trkpt>
      <trkpt lat="43.759" lon="6.36809">
        <ele>1279</ele>
        <time>2021-09-07T08:19:15.000Z</time>
      </trkpt>
      <trkpt lat="43.75899" lon="6.36806">
        <ele>1279.1</ele>
        <time>2021-09-07T08:19:16.000Z</time>
      </trkpt>
      <trkpt lat="43.75896" lon="6.36801">
        <ele>1279.3</ele>
        <time>2021-09-07T08:19:16.000Z</time>
      </trkpt>
      <trkpt lat="43.75894" lon="6.36799">
        <ele>1279.4</ele>
        <time>2021-09-07T08:19:17.000Z</time>
      </trkpt>
      <trkpt lat="43.75891" lon="6.36794">
        <ele>1279.9</ele>
        <time>2021-09-07T08:19:19.000Z</time>
      </trkpt>
      <trkpt lat="43.75895" lon="6.368">
        <ele>1279.2</ele>
        <time>2021-09-07T08:19:19.000Z</time>
      </trkpt>
      <trkpt lat="43.75893" lon="6.36798">
        <ele>1279.6</ele>
        <time>2021-09-07T08:19:20.000Z</time>
      </trkpt>
      <trkpt lat="43.7589" lon="6.36792">
        <ele>1280</ele>
        <time>2021-09-07T08:19:20.000Z</time>
      </trkpt>
      <trkpt lat="43.75887" lon="6.36787">
        <ele>1280.3</ele>
        <time>2021-09-07T08:19:22.000Z</time>
      </trkpt>
      <trkpt lat="43.75886" lon="6.36784">
        <ele>1280.3</ele>
        <time>2021-09-07T08:19:23.000Z</time>
      </trkpt>
      <trkpt lat="43.75885" lon="6.36782">
        <ele>1280.5</ele>
        <time>2021-09-07T08:19:24.000Z</time>
      </trkpt>
      <trkpt lat="43.75886" lon="6.36785">
        <ele>1280.3</ele>
        <time>2021-09-07T08:19:25.000Z</time>
      </trkpt>
      <trkpt lat="43.7588" lon="6.36771">
        <ele>1281.6</ele>
        <time>2021-09-07T08:19:28.000Z</time>
      </trkpt>
      <trkpt lat="43.75878" lon="6.36769">
        <ele>1281.7</ele>
        <time>2021-09-07T08:19:29.000Z</time>
      </trkpt>
      <trkpt lat="43.75877" lon="6.36767">
        <ele>1281.7</ele>
        <time>2021-09-07T08:19:30.000Z</time>
      </trkpt>
      <trkpt lat="43.7588" lon="6.36773">
        <ele>1281.5</ele>
        <time>2021-09-07T08:19:30.000Z</time>
      </trkpt>
      <trkpt lat="43.75876" lon="6.36764">
        <ele>1281.6</ele>
        <time>2021-09-07T08:19:31.000Z</time>
      </trkpt>
      <trkpt lat="43.75879" lon="6.3677">
        <ele>1281.5</ele>
        <time>2021-09-07T08:19:31.000Z</time>
      </trkpt>
      <trkpt lat="43.75878" lon="6.36768">
        <ele>1281.8</ele>
        <time>2021-09-07T08:19:32.000Z</time>
      </trkpt>
      <trkpt lat="43.75877" lon="6.36765">
        <ele>1281.6</ele>
        <time>2021-09-07T08:19:33.000Z</time>
      </trkpt>
      <trkpt lat="43.75876" lon="6.36762">
        <ele>1281.9</ele>
        <time>2021-09-07T08:19:34.000Z</time>
      </trkpt>
      <trkpt lat="43.75874" lon="6.36757">
        <ele>1282.5</ele>
        <time>2021-09-07T08:19:34.000Z</time>
      </trkpt>
      <trkpt lat="43.75873" lon="6.36754">
        <ele>1282.8</ele>
        <time>2021-09-07T08:19:35.000Z</time>
      </trkpt>
      <trkpt lat="43.75872" lon="6.36751">
        <ele>1282.9</ele>
        <time>2021-09-07T08:19:36.000Z</time>
      </trkpt>
      <trkpt lat="43.75873" lon="6.36755">
        <ele>1282.6</ele>
        <time>2021-09-07T08:19:37.000Z</time>
      </trkpt>
      <trkpt lat="43.75871" lon="6.36746">
        <ele>1283.1</ele>
        <time>2021-09-07T08:19:38.000Z</time>
      </trkpt>
      <trkpt lat="43.75869" lon="6.36744">
        <ele>1283.1</ele>
        <time>2021-09-07T08:19:39.000Z</time>
      </trkpt>
      <trkpt lat="43.75868" lon="6.36742">
        <ele>1283.3</ele>
        <time>2021-09-07T08:19:40.000Z</time>
      </trkpt>
      <trkpt lat="43.7587" lon="6.36745">
        <ele>1283.2</ele>
        <time>2021-09-07T08:19:41.000Z</time>
      </trkpt>
      <trkpt lat="43.75869" lon="6.36743">
        <ele>1283.2</ele>
        <time>2021-09-07T08:19:42.000Z</time>
      </trkpt>
      <trkpt lat="43.75867" lon="6.3674">
        <ele>1283.3</ele>
        <time>2021-09-07T08:19:43.000Z</time>
      </trkpt>
      <trkpt lat="43.75864" lon="6.36734">
        <ele>1283.9</ele>
        <time>2021-09-07T08:19:44.000Z</time>
      </trkpt>
      <trkpt lat="43.75863" lon="6.36732">
        <ele>1284</ele>
        <time>2021-09-07T08:19:47.000Z</time>
      </trkpt>
      <trkpt lat="43.75859" lon="6.36725">
        <ele>1284.5</ele>
        <time>2021-09-07T08:19:48.000Z</time>
      </trkpt>
      <trkpt lat="43.75861" lon="6.36728">
        <ele>1284.4</ele>
        <time>2021-09-07T08:19:49.000Z</time>
      </trkpt>
      <trkpt lat="43.75858" lon="6.36723">
        <ele>1284.4</ele>
        <time>2021-09-07T08:19:51.000Z</time>
      </trkpt>
      <trkpt lat="43.75855" lon="6.36717">
        <ele>1285.3</ele>
        <time>2021-09-07T08:19:52.000Z</time>
      </trkpt>
      <trkpt lat="43.75853" lon="6.36715">
        <ele>1285.4</ele>
        <time>2021-09-07T08:19:53.000Z</time>
      </trkpt>
      <trkpt lat="43.75854" lon="6.36715">
        <ele>1285.3</ele>
        <time>2021-09-07T08:19:55.000Z</time>
      </trkpt>
      <trkpt lat="43.75852" lon="6.36713">
        <ele>1285.5</ele>
        <time>2021-09-07T08:19:56.000Z</time>
      </trkpt>
      <trkpt lat="43.7585" lon="6.36708">
        <ele>1286</ele>
        <time>2021-09-07T08:19:56.000Z</time>
      </trkpt>
      <trkpt lat="43.75848" lon="6.36706">
        <ele>1286.5</ele>
        <time>2021-09-07T08:19:57.000Z</time>
      </trkpt>
      <trkpt lat="43.75847" lon="6.36704">
        <ele>1286.6</ele>
        <time>2021-09-07T08:19:58.000Z</time>
      </trkpt>
      <trkpt lat="43.75849" lon="6.36707">
        <ele>1286.4</ele>
        <time>2021-09-07T08:19:59.000Z</time>
      </trkpt>
      <trkpt lat="43.75844" lon="6.36698">
        <ele>1287.1</ele>
        <time>2021-09-07T08:20:01.000Z</time>
      </trkpt>
      <trkpt lat="43.75843" lon="6.36696">
        <ele>1287.5</ele>
        <time>2021-09-07T08:20:02.000Z</time>
      </trkpt>
      <trkpt lat="43.75843" lon="6.36697">
        <ele>1287.2</ele>
        <time>2021-09-07T08:20:04.000Z</time>
      </trkpt>
      <trkpt lat="43.75841" lon="6.36695">
        <ele>1287.7</ele>
        <time>2021-09-07T08:20:05.000Z</time>
      </trkpt>
      <trkpt lat="43.75837" lon="6.36684">
        <ele>1289</ele>
        <time>2021-09-07T08:20:07.000Z</time>
      </trkpt>
      <trkpt lat="43.75837" lon="6.36682">
        <ele>1289</ele>
        <time>2021-09-07T08:20:08.000Z</time>
      </trkpt>
      <trkpt lat="43.75836" lon="6.3668">
        <ele>1289.3</ele>
        <time>2021-09-07T08:20:09.000Z</time>
      </trkpt>
      <trkpt lat="43.75837" lon="6.36683">
        <ele>1288.9</ele>
        <time>2021-09-07T08:20:10.000Z</time>
      </trkpt>
      <trkpt lat="43.75836" lon="6.36681">
        <ele>1289.1</ele>
        <time>2021-09-07T08:20:11.000Z</time>
      </trkpt>
      <trkpt lat="43.75836" lon="6.36678">
        <ele>1289</ele>
        <time>2021-09-07T08:20:12.000Z</time>
      </trkpt>
      <trkpt lat="43.75831" lon="6.36665">
        <ele>1290.1</ele>
        <time>2021-09-07T08:20:15.000Z</time>
      </trkpt>
      <trkpt lat="43.75829" lon="6.3666">
        <ele>1290.2</ele>
        <time>2021-09-07T08:20:17.000Z</time>
      </trkpt>
      <trkpt lat="43.75828" lon="6.36658">
        <ele>1290.1</ele>
        <time>2021-09-07T08:20:18.000Z</time>
      </trkpt>
      <trkpt lat="43.7583" lon="6.36663">
        <ele>1290.1</ele>
        <time>2021-09-07T08:20:18.000Z</time>
      </trkpt>
      <trkpt lat="43.75827" lon="6.36656">
        <ele>1290.4</ele>
        <time>2021-09-07T08:20:19.000Z</time>
      </trkpt>
      <trkpt lat="43.75828" lon="6.36659">
        <ele>1290.1</ele>
        <time>2021-09-07T08:20:20.000Z</time>
      </trkpt>
      <trkpt lat="43.75823" lon="6.3665">
        <ele>1291.3</ele>
        <time>2021-09-07T08:20:22.000Z</time>
      </trkpt>
      <trkpt lat="43.7582" lon="6.36645">
        <ele>1291.8</ele>
        <time>2021-09-07T08:20:24.000Z</time>
      </trkpt>
      <trkpt lat="43.75819" lon="6.36643">
        <ele>1292</ele>
        <time>2021-09-07T08:20:25.000Z</time>
      </trkpt>
      <trkpt lat="43.75822" lon="6.36648">
        <ele>1291.3</ele>
        <time>2021-09-07T08:20:25.000Z</time>
      </trkpt>
      <trkpt lat="43.75817" lon="6.36642">
        <ele>1292</ele>
        <time>2021-09-07T08:20:26.000Z</time>
      </trkpt>
      <trkpt lat="43.75819" lon="6.36644">
        <ele>1291.9</ele>
        <time>2021-09-07T08:20:27.000Z</time>
      </trkpt>
      <trkpt lat="43.75811" lon="6.36636">
        <ele>1292.5</ele>
        <time>2021-09-07T08:20:29.000Z</time>
      </trkpt>
      <trkpt lat="43.75806" lon="6.36634">
        <ele>1293</ele>
        <time>2021-09-07T08:20:31.000Z</time>
      </trkpt>
      <trkpt lat="43.7581" lon="6.36636">
        <ele>1292.6</ele>
        <time>2021-09-07T08:20:32.000Z</time>
      </trkpt>
      <trkpt lat="43.75804" lon="6.36633">
        <ele>1293.2</ele>
        <time>2021-09-07T08:20:34.000Z</time>
      </trkpt>
      <trkpt lat="43.75798" lon="6.3663">
        <ele>1293.7</ele>
        <time>2021-09-07T08:20:36.000Z</time>
      </trkpt>
      <trkpt lat="43.75797" lon="6.36629">
        <ele>1294</ele>
        <time>2021-09-07T08:20:37.000Z</time>
      </trkpt>
      <trkpt lat="43.75797" lon="6.36629">
        <ele>1294</ele>
        <time>2021-09-07T08:20:39.000Z</time>
      </trkpt>
      <trkpt lat="43.75796" lon="6.36629">
        <ele>1294</ele>
        <time>2021-09-07T08:20:41.000Z</time>
      </trkpt>
      <trkpt lat="43.75794" lon="6.36627">
        <ele>1295</ele>
        <time>2021-09-07T08:20:42.000Z</time>
      </trkpt>
      <trkpt lat="43.75795" lon="6.36629">
        <ele>1294.7</ele>
        <time>2021-09-07T08:20:43.000Z</time>
      </trkpt>
      <trkpt lat="43.75795" lon="6.36628">
        <ele>1294.8</ele>
        <time>2021-09-07T08:20:44.000Z</time>
      </trkpt>
      <trkpt lat="43.75793" lon="6.36627">
        <ele>1295</ele>
        <time>2021-09-07T08:20:45.000Z</time>
      </trkpt>
      <trkpt lat="43.75789" lon="6.36629">
        <ele>1295.2</ele>
        <time>2021-09-07T08:20:45.000Z</time>
      </trkpt>
      <trkpt lat="43.75789" lon="6.36629">
        <ele>1295.2</ele>
        <time>2021-09-07T08:20:45.000Z</time>
      </trkpt>
      <trkpt lat="43.75788" lon="6.36629">
        <ele>1295.6</ele>
        <time>2021-09-07T08:20:46.000Z</time>
      </trkpt>
      <trkpt lat="43.75783" lon="6.3663">
        <ele>1296.3</ele>
        <time>2021-09-07T08:20:48.000Z</time>
      </trkpt>
      <trkpt lat="43.75779" lon="6.36635">
        <ele>1296.7</ele>
        <time>2021-09-07T08:20:50.000Z</time>
      </trkpt>
      <trkpt lat="43.75778" lon="6.36638">
        <ele>1296.7</ele>
        <time>2021-09-07T08:20:51.000Z</time>
      </trkpt>
      <trkpt lat="43.75782" lon="6.36631">
        <ele>1296.3</ele>
        <time>2021-09-07T08:20:51.000Z</time>
      </trkpt>
      <trkpt lat="43.75776" lon="6.3664">
        <ele>1297.6</ele>
        <time>2021-09-07T08:20:53.000Z</time>
      </trkpt>
      <trkpt lat="43.75779" lon="6.36636">
        <ele>1296.6</ele>
        <time>2021-09-07T08:20:53.000Z</time>
      </trkpt>
      <trkpt lat="43.75776" lon="6.36639">
        <ele>1296.7</ele>
        <time>2021-09-07T08:20:54.000Z</time>
      </trkpt>
      <trkpt lat="43.75776" lon="6.36638">
        <ele>1298.1</ele>
        <time>2021-09-07T08:20:58.000Z</time>
      </trkpt>
      <trkpt lat="43.75776" lon="6.36639">
        <ele>1298</ele>
        <time>2021-09-07T08:20:59.000Z</time>
      </trkpt>
      <trkpt lat="43.75775" lon="6.36638">
        <ele>1298.2</ele>
        <time>2021-09-07T08:21:01.000Z</time>
      </trkpt>
      <trkpt lat="43.75772" lon="6.36638">
        <ele>1299</ele>
        <time>2021-09-07T08:21:02.000Z</time>
      </trkpt>
      <trkpt lat="43.75764" lon="6.36638">
        <ele>1299.4</ele>
        <time>2021-09-07T08:21:02.000Z</time>
      </trkpt>
      <trkpt lat="43.75761" lon="6.36638">
        <ele>1299.3</ele>
        <time>2021-09-07T08:21:05.000Z</time>
      </trkpt>
      <trkpt lat="43.75751" lon="6.36638">
        <ele>1299.5</ele>
        <time>2021-09-07T08:21:05.000Z</time>
      </trkpt>
      <trkpt lat="43.75749" lon="6.36638">
        <ele>1299.6</ele>
        <time>2021-09-07T08:21:08.000Z</time>
      </trkpt>
      <trkpt lat="43.7574" lon="6.36634">
        <ele>1299.7</ele>
        <time>2021-09-07T08:21:08.000Z</time>
      </trkpt>
      <trkpt lat="43.75737" lon="6.36633">
        <ele>1299.8</ele>
        <time>2021-09-07T08:21:09.000Z</time>
      </trkpt>
      <trkpt lat="43.75728" lon="6.3663">
        <ele>1300.2</ele>
        <time>2021-09-07T08:21:12.000Z</time>
      </trkpt>
      <trkpt lat="43.75725" lon="6.36628">
        <ele>1300.3</ele>
        <time>2021-09-07T08:21:13.000Z</time>
      </trkpt>
      <trkpt lat="43.75722" lon="6.36626">
        <ele>1300.5</ele>
        <time>2021-09-07T08:21:14.000Z</time>
      </trkpt>
      <trkpt lat="43.7573" lon="6.3663">
        <ele>1300.1</ele>
        <time>2021-09-07T08:21:14.000Z</time>
      </trkpt>
      <trkpt lat="43.7572" lon="6.36624">
        <ele>1300.7</ele>
        <time>2021-09-07T08:21:15.000Z</time>
      </trkpt>
      <trkpt lat="43.75727" lon="6.36629">
        <ele>1300.2</ele>
        <time>2021-09-07T08:21:15.000Z</time>
      </trkpt>
      <trkpt lat="43.75723" lon="6.36627">
        <ele>1300.3</ele>
        <time>2021-09-07T08:21:16.000Z</time>
      </trkpt>
      <trkpt lat="43.75721" lon="6.36625">
        <ele>1300.6</ele>
        <time>2021-09-07T08:21:17.000Z</time>
      </trkpt>
      <trkpt lat="43.75719" lon="6.36622">
        <ele>1300.5</ele>
        <time>2021-09-07T08:21:18.000Z</time>
      </trkpt>
      <trkpt lat="43.75715" lon="6.36619">
        <ele>1300.3</ele>
        <time>2021-09-07T08:21:18.000Z</time>
      </trkpt>
      <trkpt lat="43.75711" lon="6.36617">
        <ele>1300.9</ele>
        <time>2021-09-07T08:21:20.000Z</time>
      </trkpt>
      <trkpt lat="43.75709" lon="6.36615">
        <ele>1300.8</ele>
        <time>2021-09-07T08:21:21.000Z</time>
      </trkpt>
      <trkpt lat="43.75713" lon="6.36618">
        <ele>1300.4</ele>
        <time>2021-09-07T08:21:21.000Z</time>
      </trkpt>
      <trkpt lat="43.75707" lon="6.36613">
        <ele>1300.6</ele>
        <time>2021-09-07T08:21:22.000Z</time>
      </trkpt>
      <trkpt lat="43.7571" lon="6.36616">
        <ele>1300.9</ele>
        <time>2021-09-07T08:21:23.000Z</time>
      </trkpt>
      <trkpt lat="43.75706" lon="6.36612">
        <ele>1300.6</ele>
        <time>2021-09-07T08:21:23.000Z</time>
      </trkpt>
      <trkpt lat="43.75704" lon="6.36611">
        <ele>1300.8</ele>
        <time>2021-09-07T08:21:26.000Z</time>
      </trkpt>
      <trkpt lat="43.757" lon="6.36609">
        <ele>1300.9</ele>
        <time>2021-09-07T08:21:26.000Z</time>
      </trkpt>
      <trkpt lat="43.75697" lon="6.36607">
        <ele>1301.1</ele>
        <time>2021-09-07T08:21:28.000Z</time>
      </trkpt>
      <trkpt lat="43.75699" lon="6.36608">
        <ele>1301</ele>
        <time>2021-09-07T08:21:29.000Z</time>
      </trkpt>
      <trkpt lat="43.75693" lon="6.36606">
        <ele>1300.9</ele>
        <time>2021-09-07T08:21:30.000Z</time>
      </trkpt>
      <trkpt lat="43.75695" lon="6.36607">
        <ele>1301.3</ele>
        <time>2021-09-07T08:21:31.000Z</time>
      </trkpt>
      <trkpt lat="43.7569" lon="6.36605">
        <ele>1301</ele>
        <time>2021-09-07T08:21:31.000Z</time>
      </trkpt>
      <trkpt lat="43.75688" lon="6.36603">
        <ele>1300.9</ele>
        <time>2021-09-07T08:21:32.000Z</time>
      </trkpt>
      <trkpt lat="43.75686" lon="6.36602">
        <ele>1300.6</ele>
        <time>2021-09-07T08:21:33.000Z</time>
      </trkpt>
      <trkpt lat="43.75683" lon="6.366">
        <ele>1300.4</ele>
        <time>2021-09-07T08:21:34.000Z</time>
      </trkpt>
      <trkpt lat="43.75682" lon="6.36599">
        <ele>1300.5</ele>
        <time>2021-09-07T08:21:35.000Z</time>
      </trkpt>
      <trkpt lat="43.75679" lon="6.36597">
        <ele>1300.5</ele>
        <time>2021-09-07T08:21:36.000Z</time>
      </trkpt>
      <trkpt lat="43.75677" lon="6.36595">
        <ele>1300.7</ele>
        <time>2021-09-07T08:21:37.000Z</time>
      </trkpt>
      <trkpt lat="43.75672" lon="6.36593">
        <ele>1300.3</ele>
        <time>2021-09-07T08:21:39.000Z</time>
      </trkpt>
      <trkpt lat="43.75678" lon="6.36596">
        <ele>1300.5</ele>
        <time>2021-09-07T08:21:39.000Z</time>
      </trkpt>
      <trkpt lat="43.75675" lon="6.36594">
        <ele>1300.6</ele>
        <time>2021-09-07T08:21:40.000Z</time>
      </trkpt>
      <trkpt lat="43.75668" lon="6.36592">
        <ele>1300.2</ele>
        <time>2021-09-07T08:21:41.000Z</time>
      </trkpt>
      <trkpt lat="43.7567" lon="6.36592">
        <ele>1300.2</ele>
        <time>2021-09-07T08:21:42.000Z</time>
      </trkpt>
      <trkpt lat="43.75662" lon="6.36592">
        <ele>1300.4</ele>
        <time>2021-09-07T08:21:43.000Z</time>
      </trkpt>
      <trkpt lat="43.75665" lon="6.36592">
        <ele>1300.2</ele>
        <time>2021-09-07T08:21:44.000Z</time>
      </trkpt>
      <trkpt lat="43.7566" lon="6.36592">
        <ele>1300.3</ele>
        <time>2021-09-07T08:21:46.000Z</time>
      </trkpt>
      <trkpt lat="43.75651" lon="6.36596">
        <ele>1300.2</ele>
        <time>2021-09-07T08:21:47.000Z</time>
      </trkpt>
      <trkpt lat="43.75649" lon="6.36597">
        <ele>1299.7</ele>
        <time>2021-09-07T08:21:48.000Z</time>
      </trkpt>
      <trkpt lat="43.75642" lon="6.36605">
        <ele>1299.2</ele>
        <time>2021-09-07T08:21:52.000Z</time>
      </trkpt>
      <trkpt lat="43.75643" lon="6.36602">
        <ele>1299.4</ele>
        <time>2021-09-07T08:21:53.000Z</time>
      </trkpt>
      <trkpt lat="43.75641" lon="6.36606">
        <ele>1299.2</ele>
        <time>2021-09-07T08:21:53.000Z</time>
      </trkpt>
      <trkpt lat="43.75641" lon="6.36605">
        <ele>1299.2</ele>
        <time>2021-09-07T08:21:55.000Z</time>
      </trkpt>
      <trkpt lat="43.75641" lon="6.36605">
        <ele>1299.2</ele>
        <time>2021-09-07T08:21:59.000Z</time>
      </trkpt>
      <trkpt lat="43.75641" lon="6.36605">
        <ele>1299.2</ele>
        <time>2021-09-07T08:22:00.000Z</time>
      </trkpt>
      <trkpt lat="43.75641" lon="6.36605">
        <ele>1299.2</ele>
        <time>2021-09-07T08:22:05.000Z</time>
      </trkpt>
      <trkpt lat="43.7564" lon="6.36606">
        <ele>1299.3</ele>
        <time>2021-09-07T08:22:10.000Z</time>
      </trkpt>
      <trkpt lat="43.75641" lon="6.36604">
        <ele>1299.2</ele>
        <time>2021-09-07T08:22:11.000Z</time>
      </trkpt>
      <trkpt lat="43.75642" lon="6.36602">
        <ele>1299.1</ele>
        <time>2021-09-07T08:22:15.000Z</time>
      </trkpt>
      <trkpt lat="43.75642" lon="6.36602">
        <ele>1299</ele>
        <time>2021-09-07T08:22:20.000Z</time>
      </trkpt>
      <trkpt lat="43.75642" lon="6.36604">
        <ele>1299.1</ele>
        <time>2021-09-07T08:22:25.000Z</time>
      </trkpt>
      <trkpt lat="43.75641" lon="6.36603">
        <ele>1299.2</ele>
        <time>2021-09-07T08:22:26.000Z</time>
      </trkpt>
      <trkpt lat="43.75642" lon="6.36604">
        <ele>1299.1</ele>
        <time>2021-09-07T08:22:27.000Z</time>
      </trkpt>
      <trkpt lat="43.75642" lon="6.36604">
        <ele>1299.2</ele>
        <time>2021-09-07T08:22:28.000Z</time>
      </trkpt>
      <trkpt lat="43.75642" lon="6.36606">
        <ele>1299.3</ele>
        <time>2021-09-07T08:22:33.000Z</time>
      </trkpt>
      <trkpt lat="43.75642" lon="6.36606">
        <ele>1299.4</ele>
        <time>2021-09-07T08:22:38.000Z</time>
      </trkpt>
      <trkpt lat="43.75642" lon="6.36605">
        <ele>1299.9</ele>
        <time>2021-09-07T08:22:43.000Z</time>
      </trkpt>
      <trkpt lat="43.75642" lon="6.36605">
        <ele>1299.6</ele>
        <time>2021-09-07T08:22:48.000Z</time>
      </trkpt>
      <trkpt lat="43.75641" lon="6.36606">
        <ele>1299.3</ele>
        <time>2021-09-07T08:22:52.000Z</time>
      </trkpt>
      <trkpt lat="43.7564" lon="6.36607">
        <ele>1299.7</ele>
        <time>2021-09-07T08:22:54.000Z</time>
      </trkpt>
      <trkpt lat="43.75639" lon="6.36607">
        <ele>1299.8</ele>
        <time>2021-09-07T08:22:55.000Z</time>
      </trkpt>
      <trkpt lat="43.75641" lon="6.36606">
        <ele>1299.4</ele>
        <time>2021-09-07T08:22:55.000Z</time>
      </trkpt>
      <trkpt lat="43.75638" lon="6.36609">
        <ele>1299.8</ele>
        <time>2021-09-07T08:22:56.000Z</time>
      </trkpt>
      <trkpt lat="43.7564" lon="6.36607">
        <ele>1299.7</ele>
        <time>2021-09-07T08:22:56.000Z</time>
      </trkpt>
      <trkpt lat="43.7564" lon="6.36607">
        <ele>1299.8</ele>
        <time>2021-09-07T08:22:57.000Z</time>
      </trkpt>
      <trkpt lat="43.75632" lon="6.36618">
        <ele>1299.3</ele>
        <time>2021-09-07T08:23:00.000Z</time>
      </trkpt>
      <trkpt lat="43.7563" lon="6.36621">
        <ele>1299.2</ele>
        <time>2021-09-07T08:23:01.000Z</time>
      </trkpt>
      <trkpt lat="43.75629" lon="6.36624">
        <ele>1299.2</ele>
        <time>2021-09-07T08:23:02.000Z</time>
      </trkpt>
      <trkpt lat="43.75633" lon="6.36616">
        <ele>1299.5</ele>
        <time>2021-09-07T08:23:02.000Z</time>
      </trkpt>
      <trkpt lat="43.75631" lon="6.3662">
        <ele>1299.2</ele>
        <time>2021-09-07T08:23:03.000Z</time>
      </trkpt>
      <trkpt lat="43.75623" lon="6.36643">
        <ele>1299.2</ele>
        <time>2021-09-07T08:23:09.000Z</time>
      </trkpt>
      <trkpt lat="43.75623" lon="6.36644">
        <ele>1299.5</ele>
        <time>2021-09-07T08:23:10.000Z</time>
      </trkpt>
      <trkpt lat="43.75623" lon="6.3664">
        <ele>1299.2</ele>
        <time>2021-09-07T08:23:10.000Z</time>
      </trkpt>
      <trkpt lat="43.75621" lon="6.36648">
        <ele>1299.2</ele>
        <time>2021-09-07T08:23:12.000Z</time>
      </trkpt>
      <trkpt lat="43.75623" lon="6.36643">
        <ele>1299.3</ele>
        <time>2021-09-07T08:23:12.000Z</time>
      </trkpt>
      <trkpt lat="43.75622" lon="6.36646">
        <ele>1299.3</ele>
        <time>2021-09-07T08:23:13.000Z</time>
      </trkpt>
      <trkpt lat="43.75619" lon="6.36654">
        <ele>1299.3</ele>
        <time>2021-09-07T08:23:14.000Z</time>
      </trkpt>
      <trkpt lat="43.75618" lon="6.36657">
        <ele>1299.4</ele>
        <time>2021-09-07T08:23:15.000Z</time>
      </trkpt>
      <trkpt lat="43.7562" lon="6.3665">
        <ele>1299.4</ele>
        <time>2021-09-07T08:23:15.000Z</time>
      </trkpt>
      <trkpt lat="43.75617" lon="6.3666">
        <ele>1299.4</ele>
        <time>2021-09-07T08:23:16.000Z</time>
      </trkpt>
      <trkpt lat="43.75617" lon="6.36663">
        <ele>1299.2</ele>
        <time>2021-09-07T08:23:17.000Z</time>
      </trkpt>
      <trkpt lat="43.75619" lon="6.36656">
        <ele>1299.3</ele>
        <time>2021-09-07T08:23:17.000Z</time>
      </trkpt>
      <trkpt lat="43.75618" lon="6.36659">
        <ele>1299.5</ele>
        <time>2021-09-07T08:23:18.000Z</time>
      </trkpt>
      <trkpt lat="43.75617" lon="6.3668">
        <ele>1298.9</ele>
        <time>2021-09-07T08:23:21.000Z</time>
      </trkpt>
      <trkpt lat="43.75618" lon="6.36689">
        <ele>1298.5</ele>
        <time>2021-09-07T08:23:23.000Z</time>
      </trkpt>
      <trkpt lat="43.75617" lon="6.36678">
        <ele>1298.9</ele>
        <time>2021-09-07T08:23:23.000Z</time>
      </trkpt>
      <trkpt lat="43.75617" lon="6.36684">
        <ele>1298.8</ele>
        <time>2021-09-07T08:23:24.000Z</time>
      </trkpt>
      <trkpt lat="43.75619" lon="6.36693">
        <ele>1298.5</ele>
        <time>2021-09-07T08:23:26.000Z</time>
      </trkpt>
      <trkpt lat="43.7562" lon="6.36717">
        <ele>1297.9</ele>
        <time>2021-09-07T08:23:28.000Z</time>
      </trkpt>
      <trkpt lat="43.7562" lon="6.36721">
        <ele>1297.7</ele>
        <time>2021-09-07T08:23:31.000Z</time>
      </trkpt>
      <trkpt lat="43.75621" lon="6.36738">
        <ele>1296.7</ele>
        <time>2021-09-07T08:23:31.000Z</time>
      </trkpt>
      <trkpt lat="43.7562" lon="6.36743">
        <ele>1296</ele>
        <time>2021-09-07T08:23:34.000Z</time>
      </trkpt>
      <trkpt lat="43.75615" lon="6.36776">
        <ele>1294.5</ele>
        <time>2021-09-07T08:23:34.000Z</time>
      </trkpt>
      <trkpt lat="43.75611" lon="6.36786">
        <ele>1293.6</ele>
        <time>2021-09-07T08:23:35.000Z</time>
      </trkpt>
      <trkpt lat="43.75584" lon="6.36822">
        <ele>1289.1</ele>
        <time>2021-09-07T08:23:40.000Z</time>
      </trkpt>
      <trkpt lat="43.7556" lon="6.36832">
        <ele>1285.1</ele>
        <time>2021-09-07T08:23:45.000Z</time>
      </trkpt>
      <trkpt lat="43.75547" lon="6.36835">
        <ele>1283.9</ele>
        <time>2021-09-07T08:23:50.000Z</time>
      </trkpt>
      <trkpt lat="43.7554" lon="6.36835">
        <ele>1283.1</ele>
        <time>2021-09-07T08:23:53.000Z</time>
      </trkpt>
      <trkpt lat="43.75537" lon="6.36833">
        <ele>1282.8</ele>
        <time>2021-09-07T08:23:54.000Z</time>
      </trkpt>
      <trkpt lat="43.75542" lon="6.36835">
        <ele>1283.2</ele>
        <time>2021-09-07T08:23:55.000Z</time>
      </trkpt>
      <trkpt lat="43.75538" lon="6.36834">
        <ele>1282.9</ele>
        <time>2021-09-07T08:23:56.000Z</time>
      </trkpt>
      <trkpt lat="43.75535" lon="6.36832">
        <ele>1282.3</ele>
        <time>2021-09-07T08:23:57.000Z</time>
      </trkpt>
      <trkpt lat="43.75533" lon="6.36831">
        <ele>1282</ele>
        <time>2021-09-07T08:23:57.000Z</time>
      </trkpt>
      <trkpt lat="43.75532" lon="6.36831">
        <ele>1281.9</ele>
        <time>2021-09-07T08:23:59.000Z</time>
      </trkpt>
      <trkpt lat="43.75533" lon="6.36831">
        <ele>1281.9</ele>
        <time>2021-09-07T08:24:04.000Z</time>
      </trkpt>
      <trkpt lat="43.75533" lon="6.36831">
        <ele>1282</ele>
        <time>2021-09-07T08:24:05.000Z</time>
      </trkpt>
      <trkpt lat="43.75533" lon="6.36832">
        <ele>1281.9</ele>
        <time>2021-09-07T08:24:10.000Z</time>
      </trkpt>
      <trkpt lat="43.75533" lon="6.36831">
        <ele>1282</ele>
        <time>2021-09-07T08:24:15.000Z</time>
      </trkpt>
      <trkpt lat="43.75533" lon="6.36831">
        <ele>1282</ele>
        <time>2021-09-07T08:24:18.000Z</time>
      </trkpt>
      <trkpt lat="43.75533" lon="6.36831">
        <ele>1282</ele>
        <time>2021-09-07T08:24:20.000Z</time>
      </trkpt>
      <trkpt lat="43.75533" lon="6.36831">
        <ele>1282.4</ele>
        <time>2021-09-07T08:24:25.000Z</time>
      </trkpt>
      <trkpt lat="43.75533" lon="6.36831">
        <ele>1282</ele>
        <time>2021-09-07T08:24:30.000Z</time>
      </trkpt>
      <trkpt lat="43.75533" lon="6.36831">
        <ele>1282.2</ele>
        <time>2021-09-07T08:24:35.000Z</time>
      </trkpt>
      <trkpt lat="43.75533" lon="6.36831">
        <ele>1282.1</ele>
        <time>2021-09-07T08:24:40.000Z</time>
      </trkpt>
      <trkpt lat="43.75533" lon="6.36831">
        <ele>1282.2</ele>
        <time>2021-09-07T08:24:45.000Z</time>
      </trkpt>
      <trkpt lat="43.75533" lon="6.36831">
        <ele>1282.3</ele>
        <time>2021-09-07T08:24:50.000Z</time>
      </trkpt>
      <trkpt lat="43.75533" lon="6.36831">
        <ele>1282.3</ele>
        <time>2021-09-07T08:24:55.000Z</time>
      </trkpt>
      <trkpt lat="43.75533" lon="6.36831">
        <ele>1282.4</ele>
        <time>2021-09-07T08:25:00.000Z</time>
      </trkpt>
      <trkpt lat="43.75533" lon="6.36831">
        <ele>1282.1</ele>
        <time>2021-09-07T08:25:05.000Z</time>
      </trkpt>
      <trkpt lat="43.75533" lon="6.36831">
        <ele>1282.3</ele>
        <time>2021-09-07T08:25:10.000Z</time>
      </trkpt>
      <trkpt lat="43.75533" lon="6.36831">
        <ele>1281.9</ele>
        <time>2021-09-07T08:25:13.000Z</time>
      </trkpt>
      <trkpt lat="43.75528" lon="6.36823">
        <ele>1280.1</ele>
        <time>2021-09-07T08:25:17.000Z</time>
      </trkpt>
      <trkpt lat="43.75529" lon="6.36824">
        <ele>1280.8</ele>
        <time>2021-09-07T08:25:18.000Z</time>
      </trkpt>
      <trkpt lat="43.75527" lon="6.36822">
        <ele>1279.7</ele>
        <time>2021-09-07T08:25:19.000Z</time>
      </trkpt>
      <trkpt lat="43.75524" lon="6.36817">
        <ele>1279.1</ele>
        <time>2021-09-07T08:25:19.000Z</time>
      </trkpt>
      <trkpt lat="43.75521" lon="6.36814">
        <ele>1278.7</ele>
        <time>2021-09-07T08:25:21.000Z</time>
      </trkpt>
      <trkpt lat="43.755" lon="6.36786">
        <ele>1276.6</ele>
        <time>2021-09-07T08:25:23.000Z</time>
      </trkpt>
      <trkpt lat="43.75493" lon="6.36777">
        <ele>1275.7</ele>
        <time>2021-09-07T08:25:24.000Z</time>
      </trkpt>
      <trkpt lat="43.75458" lon="6.36731">
        <ele>1271.4</ele>
        <time>2021-09-07T08:25:29.000Z</time>
      </trkpt>
      <trkpt lat="43.75438" lon="6.36686">
        <ele>1267.5</ele>
        <time>2021-09-07T08:25:34.000Z</time>
      </trkpt>
      <trkpt lat="43.75417" lon="6.3664">
        <ele>1265.7</ele>
        <time>2021-09-07T08:25:39.000Z</time>
      </trkpt>
      <trkpt lat="43.75396" lon="6.36612">
        <ele>1262.4</ele>
        <time>2021-09-07T08:25:44.000Z</time>
      </trkpt>
      <trkpt lat="43.75384" lon="6.36641">
        <ele>1260.3</ele>
        <time>2021-09-07T08:25:49.000Z</time>
      </trkpt>
      <trkpt lat="43.75411" lon="6.36725">
        <ele>1257</ele>
        <time>2021-09-07T08:25:54.000Z</time>
      </trkpt>
      <trkpt lat="43.75431" lon="6.368">
        <ele>1252.6</ele>
        <time>2021-09-07T08:25:59.000Z</time>
      </trkpt>
      <trkpt lat="43.75451" lon="6.36869">
        <ele>1249.6</ele>
        <time>2021-09-07T08:26:04.000Z</time>
      </trkpt>
      <trkpt lat="43.75481" lon="6.36928">
        <ele>1246.9</ele>
        <time>2021-09-07T08:26:09.000Z</time>
      </trkpt>
      <trkpt lat="43.75514" lon="6.36963">
        <ele>1244.5</ele>
        <time>2021-09-07T08:26:14.000Z</time>
      </trkpt>
      <trkpt lat="43.75551" lon="6.36977">
        <ele>1242.6</ele>
        <time>2021-09-07T08:26:19.000Z</time>
      </trkpt>
      <trkpt lat="43.75555" lon="6.37002">
        <ele>1239.4</ele>
        <time>2021-09-07T08:26:24.000Z</time>
      </trkpt>
      <trkpt lat="43.75539" lon="6.37">
        <ele>1237.8</ele>
        <time>2021-09-07T08:26:29.000Z</time>
      </trkpt>
      <trkpt lat="43.75487" lon="6.3697">
        <ele>1235.6</ele>
        <time>2021-09-07T08:26:34.000Z</time>
      </trkpt>
      <trkpt lat="43.75449" lon="6.36927">
        <ele>1233.7</ele>
        <time>2021-09-07T08:26:39.000Z</time>
      </trkpt>
      <trkpt lat="43.75414" lon="6.36884">
        <ele>1229.7</ele>
        <time>2021-09-07T08:26:44.000Z</time>
      </trkpt>
      <trkpt lat="43.75389" lon="6.36835">
        <ele>1226.2</ele>
        <time>2021-09-07T08:26:49.000Z</time>
      </trkpt>
      <trkpt lat="43.75372" lon="6.36779">
        <ele>1222.3</ele>
        <time>2021-09-07T08:26:54.000Z</time>
      </trkpt>
      <trkpt lat="43.75348" lon="6.36741">
        <ele>1217.7</ele>
        <time>2021-09-07T08:26:59.000Z</time>
      </trkpt>
      <trkpt lat="43.75309" lon="6.36723">
        <ele>1212.7</ele>
        <time>2021-09-07T08:27:04.000Z</time>
      </trkpt>
      <trkpt lat="43.75291" lon="6.36681">
        <ele>1208.5</ele>
        <time>2021-09-07T08:27:09.000Z</time>
      </trkpt>
      <trkpt lat="43.75275" lon="6.36642">
        <ele>1206.2</ele>
        <time>2021-09-07T08:27:14.000Z</time>
      </trkpt>
      <trkpt lat="43.75251" lon="6.36602">
        <ele>1203.1</ele>
        <time>2021-09-07T08:27:19.000Z</time>
      </trkpt>
      <trkpt lat="43.75223" lon="6.36564">
        <ele>1200.2</ele>
        <time>2021-09-07T08:27:24.000Z</time>
      </trkpt>
      <trkpt lat="43.75198" lon="6.36535">
        <ele>1196.5</ele>
        <time>2021-09-07T08:27:29.000Z</time>
      </trkpt>
      <trkpt lat="43.75174" lon="6.36507">
        <ele>1193.9</ele>
        <time>2021-09-07T08:27:34.000Z</time>
      </trkpt>
      <trkpt lat="43.75162" lon="6.36491">
        <ele>1191.2</ele>
        <time>2021-09-07T08:27:44.000Z</time>
      </trkpt>
      <trkpt lat="43.75162" lon="6.36491">
        <ele>1190.1</ele>
        <time>2021-09-07T08:27:49.000Z</time>
      </trkpt>
      <trkpt lat="43.75162" lon="6.36491">
        <ele>1188.8</ele>
        <time>2021-09-07T08:27:54.000Z</time>
      </trkpt>
      <trkpt lat="43.75099" lon="6.36416">
        <ele>1188.3</ele>
        <time>2021-09-07T08:27:55.000Z</time>
      </trkpt>
      <trkpt lat="43.75088" lon="6.36398">
        <ele>1187.9</ele>
        <time>2021-09-07T08:27:58.000Z</time>
      </trkpt>
      <trkpt lat="43.75086" lon="6.36396">
        <ele>1187.6</ele>
        <time>2021-09-07T08:28:00.000Z</time>
      </trkpt>
      <trkpt lat="43.75081" lon="6.3639">
        <ele>1187.1</ele>
        <time>2021-09-07T08:28:00.000Z</time>
      </trkpt>
      <trkpt lat="43.75079" lon="6.36388">
        <ele>1186.8</ele>
        <time>2021-09-07T08:28:01.000Z</time>
      </trkpt>
      <trkpt lat="43.75073" lon="6.36383">
        <ele>1185.8</ele>
        <time>2021-09-07T08:28:03.000Z</time>
      </trkpt>
      <trkpt lat="43.75072" lon="6.36382">
        <ele>1185.7</ele>
        <time>2021-09-07T08:28:05.000Z</time>
      </trkpt>
      <trkpt lat="43.75068" lon="6.36377">
        <ele>1185.2</ele>
        <time>2021-09-07T08:28:05.000Z</time>
      </trkpt>
      <trkpt lat="43.75068" lon="6.36377">
        <ele>1185.2</ele>
        <time>2021-09-07T08:28:05.000Z</time>
      </trkpt>
      <trkpt lat="43.75067" lon="6.36374">
        <ele>1184.5</ele>
        <time>2021-09-07T08:28:06.000Z</time>
      </trkpt>
      <trkpt lat="43.75066" lon="6.36373">
        <ele>1184.5</ele>
        <time>2021-09-07T08:28:07.000Z</time>
      </trkpt>
      <trkpt lat="43.75067" lon="6.36375">
        <ele>1184.8</ele>
        <time>2021-09-07T08:28:07.000Z</time>
      </trkpt>
      <trkpt lat="43.75066" lon="6.36373">
        <ele>1184.5</ele>
        <time>2021-09-07T08:28:08.000Z</time>
      </trkpt>
      <trkpt lat="43.75065" lon="6.36372">
        <ele>1184.2</ele>
        <time>2021-09-07T08:28:08.000Z</time>
      </trkpt>
      <trkpt lat="43.75064" lon="6.3637">
        <ele>1183.8</ele>
        <time>2021-09-07T08:28:09.000Z</time>
      </trkpt>
      <trkpt lat="43.75063" lon="6.3637">
        <ele>1183.7</ele>
        <time>2021-09-07T08:28:11.000Z</time>
      </trkpt>
      <trkpt lat="43.75057" lon="6.36369">
        <ele>1183.2</ele>
        <time>2021-09-07T08:28:16.000Z</time>
      </trkpt>
      <trkpt lat="43.75054" lon="6.36373">
        <ele>1183.3</ele>
        <time>2021-09-07T08:28:21.000Z</time>
      </trkpt>
      <trkpt lat="43.75053" lon="6.36373">
        <ele>1183.3</ele>
        <time>2021-09-07T08:28:26.000Z</time>
      </trkpt>
      <trkpt lat="43.75052" lon="6.36374">
        <ele>1183.6</ele>
        <time>2021-09-07T08:28:31.000Z</time>
      </trkpt>
      <trkpt lat="43.75052" lon="6.36375">
        <ele>1183.4</ele>
        <time>2021-09-07T08:28:33.000Z</time>
      </trkpt>
      <trkpt lat="43.75051" lon="6.36375">
        <ele>1183.3</ele>
        <time>2021-09-07T08:28:38.000Z</time>
      </trkpt>
      <trkpt lat="43.75051" lon="6.36374">
        <ele>1183.5</ele>
        <time>2021-09-07T08:28:40.000Z</time>
      </trkpt>
      <trkpt lat="43.7505" lon="6.36374">
        <ele>1183.3</ele>
        <time>2021-09-07T08:28:43.000Z</time>
      </trkpt>
      <trkpt lat="43.7505" lon="6.36374">
        <ele>1182.7</ele>
        <time>2021-09-07T08:28:46.000Z</time>
      </trkpt>
      <trkpt lat="43.7505" lon="6.36374">
        <ele>1183.2</ele>
        <time>2021-09-07T08:28:48.000Z</time>
      </trkpt>
      <trkpt lat="43.75048" lon="6.36375">
        <ele>1182.6</ele>
        <time>2021-09-07T08:28:53.000Z</time>
      </trkpt>
      <trkpt lat="43.75047" lon="6.36376">
        <ele>1183.2</ele>
        <time>2021-09-07T08:28:56.000Z</time>
      </trkpt>
      <trkpt lat="43.75047" lon="6.36376">
        <ele>1183.4</ele>
        <time>2021-09-07T08:28:57.000Z</time>
      </trkpt>
      <trkpt lat="43.75047" lon="6.36376">
        <ele>1183.2</ele>
        <time>2021-09-07T08:28:59.000Z</time>
      </trkpt>
      <trkpt lat="43.75046" lon="6.36376">
        <ele>1183.4</ele>
        <time>2021-09-07T08:28:59.000Z</time>
      </trkpt>
      <trkpt lat="43.75046" lon="6.36376">
        <ele>1183.3</ele>
        <time>2021-09-07T08:29:00.000Z</time>
      </trkpt>
      <trkpt lat="43.75046" lon="6.36376">
        <ele>1183.2</ele>
        <time>2021-09-07T08:29:02.000Z</time>
      </trkpt>
      <trkpt lat="43.75046" lon="6.36376">
        <ele>1183.4</ele>
        <time>2021-09-07T08:29:03.000Z</time>
      </trkpt>
      <trkpt lat="43.75046" lon="6.36377">
        <ele>1183.4</ele>
        <time>2021-09-07T08:29:04.000Z</time>
      </trkpt>
      <trkpt lat="43.75045" lon="6.36381">
        <ele>1183.5</ele>
        <time>2021-09-07T08:29:05.000Z</time>
      </trkpt>
      <trkpt lat="43.75044" lon="6.36382">
        <ele>1183.5</ele>
        <time>2021-09-07T08:29:07.000Z</time>
      </trkpt>
      <trkpt lat="43.75044" lon="6.36383">
        <ele>1183.5</ele>
        <time>2021-09-07T08:29:08.000Z</time>
      </trkpt>
      <trkpt lat="43.75044" lon="6.36384">
        <ele>1183.7</ele>
        <time>2021-09-07T08:29:08.000Z</time>
      </trkpt>
      <trkpt lat="43.75043" lon="6.36384">
        <ele>1183.8</ele>
        <time>2021-09-07T08:29:10.000Z</time>
      </trkpt>
      <trkpt lat="43.75044" lon="6.36384">
        <ele>1183.8</ele>
        <time>2021-09-07T08:29:12.000Z</time>
      </trkpt>
      <trkpt lat="43.75044" lon="6.36384">
        <ele>1183.4</ele>
        <time>2021-09-07T08:29:14.000Z</time>
      </trkpt>
      <trkpt lat="43.75044" lon="6.36384">
        <ele>1183.5</ele>
        <time>2021-09-07T08:29:19.000Z</time>
      </trkpt>
      <trkpt lat="43.75044" lon="6.36384">
        <ele>1183.5</ele>
        <time>2021-09-07T08:29:24.000Z</time>
      </trkpt>
      <trkpt lat="43.75045" lon="6.36384">
        <ele>1183.8</ele>
        <time>2021-09-07T08:29:29.000Z</time>
      </trkpt>
      <trkpt lat="43.75045" lon="6.36383">
        <ele>1183.7</ele>
        <time>2021-09-07T08:29:30.000Z</time>
      </trkpt>
      <trkpt lat="43.75045" lon="6.36383">
        <ele>1183.8</ele>
        <time>2021-09-07T08:29:33.000Z</time>
      </trkpt>
      <trkpt lat="43.75045" lon="6.36382">
        <ele>1183.7</ele>
        <time>2021-09-07T08:29:34.000Z</time>
      </trkpt>
      <trkpt lat="43.75045" lon="6.36382">
        <ele>1183.7</ele>
        <time>2021-09-07T08:29:39.000Z</time>
      </trkpt>
      <trkpt lat="43.75045" lon="6.36382">
        <ele>1183.9</ele>
        <time>2021-09-07T08:29:42.000Z</time>
      </trkpt>
      <trkpt lat="43.75045" lon="6.36382">
        <ele>1183.7</ele>
        <time>2021-09-07T08:29:43.000Z</time>
      </trkpt>
      <trkpt lat="43.75045" lon="6.36382">
        <ele>1183.1</ele>
        <time>2021-09-07T08:29:48.000Z</time>
      </trkpt>
      <trkpt lat="43.75045" lon="6.36382">
        <ele>1183.1</ele>
        <time>2021-09-07T08:29:51.000Z</time>
      </trkpt>
      <trkpt lat="43.75045" lon="6.36382">
        <ele>1183.2</ele>
        <time>2021-09-07T08:29:53.000Z</time>
      </trkpt>
      <trkpt lat="43.75045" lon="6.36381">
        <ele>1183</ele>
        <time>2021-09-07T08:29:56.000Z</time>
      </trkpt>
      <trkpt lat="43.75045" lon="6.36381">
        <ele>1182.9</ele>
        <time>2021-09-07T08:29:59.000Z</time>
      </trkpt>
      <trkpt lat="43.75045" lon="6.3638">
        <ele>1182.8</ele>
        <time>2021-09-07T08:30:04.000Z</time>
      </trkpt>
      <trkpt lat="43.75045" lon="6.3638">
        <ele>1183</ele>
        <time>2021-09-07T08:30:06.000Z</time>
      </trkpt>
      <trkpt lat="43.75045" lon="6.3638">
        <ele>1183.3</ele>
        <time>2021-09-07T08:30:06.000Z</time>
      </trkpt>
      <trkpt lat="43.75045" lon="6.3638">
        <ele>1183.3</ele>
        <time>2021-09-07T08:30:06.000Z</time>
      </trkpt>
      <trkpt lat="43.75045" lon="6.3638">
        <ele>1183.6</ele>
        <time>2021-09-07T08:30:07.000Z</time>
      </trkpt>
      <trkpt lat="43.75044" lon="6.3638">
        <ele>1183.9</ele>
        <time>2021-09-07T08:30:08.000Z</time>
      </trkpt>
      <trkpt lat="43.75044" lon="6.36379">
        <ele>1183.7</ele>
        <time>2021-09-07T08:30:09.000Z</time>
      </trkpt>
      <trkpt lat="43.75045" lon="6.36379">
        <ele>1183.5</ele>
        <time>2021-09-07T08:30:12.000Z</time>
      </trkpt>
      <trkpt lat="43.75045" lon="6.36379">
        <ele>1183.7</ele>
        <time>2021-09-07T08:30:13.000Z</time>
      </trkpt>
      <trkpt lat="43.75045" lon="6.36379">
        <ele>1183.6</ele>
        <time>2021-09-07T08:30:18.000Z</time>
      </trkpt>
      <trkpt lat="43.75045" lon="6.36379">
        <ele>1183.4</ele>
        <time>2021-09-07T08:30:20.000Z</time>
      </trkpt>
      <trkpt lat="43.75045" lon="6.36379">
        <ele>1183.4</ele>
        <time>2021-09-07T08:30:21.000Z</time>
      </trkpt>
      <trkpt lat="43.75044" lon="6.36378">
        <ele>1183.5</ele>
        <time>2021-09-07T08:30:22.000Z</time>
      </trkpt>
      <trkpt lat="43.75044" lon="6.36378">
        <ele>1183.2</ele>
        <time>2021-09-07T08:30:23.000Z</time>
      </trkpt>
      <trkpt lat="43.75043" lon="6.36378">
        <ele>1183.5</ele>
        <time>2021-09-07T08:30:24.000Z</time>
      </trkpt>
      <trkpt lat="43.75042" lon="6.36377">
        <ele>1183.3</ele>
        <time>2021-09-07T08:30:25.000Z</time>
      </trkpt>
      <trkpt lat="43.75042" lon="6.36377">
        <ele>1183.3</ele>
        <time>2021-09-07T08:30:27.000Z</time>
      </trkpt>
      <trkpt lat="43.75041" lon="6.36376">
        <ele>1183.1</ele>
        <time>2021-09-07T08:30:27.000Z</time>
      </trkpt>
      <trkpt lat="43.75041" lon="6.36376">
        <ele>1183.3</ele>
        <time>2021-09-07T08:30:28.000Z</time>
      </trkpt>
      <trkpt lat="43.75039" lon="6.36375">
        <ele>1183.1</ele>
        <time>2021-09-07T08:30:33.000Z</time>
      </trkpt>
      <trkpt lat="43.75039" lon="6.36375">
        <ele>1183</ele>
        <time>2021-09-07T08:30:35.000Z</time>
      </trkpt>
      <trkpt lat="43.75038" lon="6.36375">
        <ele>1183.3</ele>
        <time>2021-09-07T08:30:36.000Z</time>
      </trkpt>
      <trkpt lat="43.75038" lon="6.36375">
        <ele>1183.4</ele>
        <time>2021-09-07T08:30:38.000Z</time>
      </trkpt>
      <trkpt lat="43.75038" lon="6.36375">
        <ele>1183.2</ele>
        <time>2021-09-07T08:30:41.000Z</time>
      </trkpt>
      <trkpt lat="43.75038" lon="6.36375">
        <ele>1183.3</ele>
        <time>2021-09-07T08:30:43.000Z</time>
      </trkpt>
      <trkpt lat="43.75037" lon="6.36375">
        <ele>1183.3</ele>
        <time>2021-09-07T08:30:44.000Z</time>
      </trkpt>
      <trkpt lat="43.75037" lon="6.36376">
        <ele>1184</ele>
        <time>2021-09-07T08:30:47.000Z</time>
      </trkpt>
      <trkpt lat="43.75037" lon="6.36376">
        <ele>1183.9</ele>
        <time>2021-09-07T08:30:48.000Z</time>
      </trkpt>
      <trkpt lat="43.75037" lon="6.36376">
        <ele>1183.7</ele>
        <time>2021-09-07T08:30:53.000Z</time>
      </trkpt>
      <trkpt lat="43.75037" lon="6.36375">
        <ele>1183.7</ele>
        <time>2021-09-07T08:30:58.000Z</time>
      </trkpt>
      <trkpt lat="43.75037" lon="6.36376">
        <ele>1183.1</ele>
        <time>2021-09-07T08:31:00.000Z</time>
      </trkpt>
      <trkpt lat="43.75038" lon="6.36377">
        <ele>1183.6</ele>
        <time>2021-09-07T08:31:00.000Z</time>
      </trkpt>
      <trkpt lat="43.75039" lon="6.36378">
        <ele>1183.8</ele>
        <time>2021-09-07T08:31:01.000Z</time>
      </trkpt>
      <trkpt lat="43.7504" lon="6.36379">
        <ele>1183.8</ele>
        <time>2021-09-07T08:31:06.000Z</time>
      </trkpt>
      <trkpt lat="43.7504" lon="6.36379">
        <ele>1183.7</ele>
        <time>2021-09-07T08:31:07.000Z</time>
      </trkpt>
      <trkpt lat="43.7504" lon="6.36379">
        <ele>1183.6</ele>
        <time>2021-09-07T08:31:08.000Z</time>
      </trkpt>
      <trkpt lat="43.75039" lon="6.36379">
        <ele>1183.6</ele>
        <time>2021-09-07T08:31:10.000Z</time>
      </trkpt>
      <trkpt lat="43.75039" lon="6.36379">
        <ele>1183.7</ele>
        <time>2021-09-07T08:31:10.000Z</time>
      </trkpt>
      <trkpt lat="43.75039" lon="6.36379">
        <ele>1183.7</ele>
        <time>2021-09-07T08:31:11.000Z</time>
      </trkpt>
      <trkpt lat="43.75038" lon="6.36379">
        <ele>1183.5</ele>
        <time>2021-09-07T08:31:13.000Z</time>
      </trkpt>
      <trkpt lat="43.75038" lon="6.36379">
        <ele>1183.8</ele>
        <time>2021-09-07T08:31:18.000Z</time>
      </trkpt>
      <trkpt lat="43.75038" lon="6.36379">
        <ele>1183.6</ele>
        <time>2021-09-07T08:31:23.000Z</time>
      </trkpt>
      <trkpt lat="43.75038" lon="6.36379">
        <ele>1183.4</ele>
        <time>2021-09-07T08:31:24.000Z</time>
      </trkpt>
      <trkpt lat="43.75038" lon="6.36379">
        <ele>1183.4</ele>
        <time>2021-09-07T08:31:29.000Z</time>
      </trkpt>
      <trkpt lat="43.75038" lon="6.36378">
        <ele>1183.6</ele>
        <time>2021-09-07T08:31:30.000Z</time>
      </trkpt>
      <trkpt lat="43.75038" lon="6.36378">
        <ele>1183.3</ele>
        <time>2021-09-07T08:31:33.000Z</time>
      </trkpt>
      <trkpt lat="43.75038" lon="6.36377">
        <ele>1183.4</ele>
        <time>2021-09-07T08:31:38.000Z</time>
      </trkpt>
      <trkpt lat="43.75038" lon="6.36378">
        <ele>1183.3</ele>
        <time>2021-09-07T08:31:41.000Z</time>
      </trkpt>
      <trkpt lat="43.75038" lon="6.36378">
        <ele>1183.3</ele>
        <time>2021-09-07T08:31:45.000Z</time>
      </trkpt>
      <trkpt lat="43.75038" lon="6.36379">
        <ele>1182.9</ele>
        <time>2021-09-07T08:31:48.000Z</time>
      </trkpt>
      <trkpt lat="43.75038" lon="6.36379">
        <ele>1182.9</ele>
        <time>2021-09-07T08:31:49.000Z</time>
      </trkpt>
      <trkpt lat="43.75038" lon="6.36379">
        <ele>1182.8</ele>
        <time>2021-09-07T08:31:54.000Z</time>
      </trkpt>
      <trkpt lat="43.75038" lon="6.36379">
        <ele>1183.1</ele>
        <time>2021-09-07T08:31:59.000Z</time>
      </trkpt>
      <trkpt lat="43.75038" lon="6.36379">
        <ele>1183.2</ele>
        <time>2021-09-07T08:32:01.000Z</time>
      </trkpt>
      <trkpt lat="43.75037" lon="6.36379">
        <ele>1183.1</ele>
        <time>2021-09-07T08:32:04.000Z</time>
      </trkpt>
      <trkpt lat="43.75037" lon="6.36379">
        <ele>1183</ele>
        <time>2021-09-07T08:32:09.000Z</time>
      </trkpt>
      <trkpt lat="43.75037" lon="6.36379">
        <ele>1183.5</ele>
        <time>2021-09-07T08:32:15.000Z</time>
      </trkpt>
      <trkpt lat="43.75037" lon="6.36378">
        <ele>1183.2</ele>
        <time>2021-09-07T08:32:17.000Z</time>
      </trkpt>
      <trkpt lat="43.75037" lon="6.36378">
        <ele>1183.2</ele>
        <time>2021-09-07T08:32:19.000Z</time>
      </trkpt>
      <trkpt lat="43.75037" lon="6.36378">
        <ele>1183.3</ele>
        <time>2021-09-07T08:32:20.000Z</time>
      </trkpt>
      <trkpt lat="43.75037" lon="6.36377">
        <ele>1182.9</ele>
        <time>2021-09-07T08:32:20.000Z</time>
      </trkpt>
      <trkpt lat="43.75037" lon="6.36377">
        <ele>1183.1</ele>
        <time>2021-09-07T08:32:22.000Z</time>
      </trkpt>
      <trkpt lat="43.75037" lon="6.36376">
        <ele>1183.7</ele>
        <time>2021-09-07T08:32:25.000Z</time>
      </trkpt>
      <trkpt lat="43.75037" lon="6.36375">
        <ele>1183.8</ele>
        <time>2021-09-07T08:32:27.000Z</time>
      </trkpt>
      <trkpt lat="43.75035" lon="6.36373">
        <ele>1183.2</ele>
        <time>2021-09-07T08:32:32.000Z</time>
      </trkpt>
      <trkpt lat="43.75034" lon="6.36373">
        <ele>1183.5</ele>
        <time>2021-09-07T08:32:36.000Z</time>
      </trkpt>
      <trkpt lat="43.75034" lon="6.36372">
        <ele>1183.2</ele>
        <time>2021-09-07T08:32:37.000Z</time>
      </trkpt>
      <trkpt lat="43.75034" lon="6.36372">
        <ele>1183.3</ele>
        <time>2021-09-07T08:32:40.000Z</time>
      </trkpt>
      <trkpt lat="43.75034" lon="6.36372">
        <ele>1183.4</ele>
        <time>2021-09-07T08:32:42.000Z</time>
      </trkpt>
      <trkpt lat="43.75034" lon="6.36372">
        <ele>1183.3</ele>
        <time>2021-09-07T08:32:43.000Z</time>
      </trkpt>
      <trkpt lat="43.75034" lon="6.36372">
        <ele>1183.3</ele>
        <time>2021-09-07T08:32:43.000Z</time>
      </trkpt>
      <trkpt lat="43.75035" lon="6.36373">
        <ele>1183.4</ele>
        <time>2021-09-07T08:32:48.000Z</time>
      </trkpt>
      <trkpt lat="43.75035" lon="6.36373">
        <ele>1183.4</ele>
        <time>2021-09-07T08:32:48.000Z</time>
      </trkpt>
      <trkpt lat="43.75035" lon="6.36373">
        <ele>1183.5</ele>
        <time>2021-09-07T08:32:50.000Z</time>
      </trkpt>
      <trkpt lat="43.75036" lon="6.36373">
        <ele>1183.4</ele>
        <time>2021-09-07T08:32:52.000Z</time>
      </trkpt>
      <trkpt lat="43.75036" lon="6.36373">
        <ele>1183.4</ele>
        <time>2021-09-07T08:32:54.000Z</time>
      </trkpt>
      <trkpt lat="43.75036" lon="6.36373">
        <ele>1183.4</ele>
        <time>2021-09-07T08:32:55.000Z</time>
      </trkpt>
      <trkpt lat="43.75036" lon="6.36373">
        <ele>1183.4</ele>
        <time>2021-09-07T08:32:56.000Z</time>
      </trkpt>
      <trkpt lat="43.75037" lon="6.36373">
        <ele>1182.9</ele>
        <time>2021-09-07T08:33:01.000Z</time>
      </trkpt>
      <trkpt lat="43.75037" lon="6.36373">
        <ele>1183.1</ele>
        <time>2021-09-07T08:33:04.000Z</time>
      </trkpt>
      <trkpt lat="43.75037" lon="6.36373">
        <ele>1183.1</ele>
        <time>2021-09-07T08:33:05.000Z</time>
      </trkpt>
      <trkpt lat="43.75037" lon="6.36373">
        <ele>1183.3</ele>
        <time>2021-09-07T08:33:08.000Z</time>
      </trkpt>
      <trkpt lat="43.75038" lon="6.36371">
        <ele>1183.3</ele>
        <time>2021-09-07T08:33:11.000Z</time>
      </trkpt>
      <trkpt lat="43.75038" lon="6.36371">
        <ele>1183.3</ele>
        <time>2021-09-07T08:33:13.000Z</time>
      </trkpt>
      <trkpt lat="43.75034" lon="6.36359">
        <ele>1182.4</ele>
        <time>2021-09-07T08:33:18.000Z</time>
      </trkpt>
      <trkpt lat="43.75032" lon="6.36355">
        <ele>1182.4</ele>
        <time>2021-09-07T08:33:20.000Z</time>
      </trkpt>
      <trkpt lat="43.75031" lon="6.36353">
        <ele>1182.3</ele>
        <time>2021-09-07T08:33:22.000Z</time>
      </trkpt>
      <trkpt lat="43.75025" lon="6.36345">
        <ele>1181.9</ele>
        <time>2021-09-07T08:33:27.000Z</time>
      </trkpt>
      <trkpt lat="43.75019" lon="6.36334">
        <ele>1181.2</ele>
        <time>2021-09-07T08:33:32.000Z</time>
      </trkpt>
      <trkpt lat="43.75012" lon="6.36319">
        <ele>1180.7</ele>
        <time>2021-09-07T08:33:34.000Z</time>
      </trkpt>
      <trkpt lat="43.75011" lon="6.36315">
        <ele>1180.4</ele>
        <time>2021-09-07T08:33:36.000Z</time>
      </trkpt>
      <trkpt lat="43.75009" lon="6.36308">
        <ele>1180.5</ele>
        <time>2021-09-07T08:33:36.000Z</time>
      </trkpt>
      <trkpt lat="43.75007" lon="6.36302">
        <ele>1180</ele>
        <time>2021-09-07T08:33:37.000Z</time>
      </trkpt>
      <trkpt lat="43.75008" lon="6.36305">
        <ele>1180.3</ele>
        <time>2021-09-07T08:33:38.000Z</time>
      </trkpt>
      <trkpt lat="43.75006" lon="6.36298">
        <ele>1179.7</ele>
        <time>2021-09-07T08:33:39.000Z</time>
      </trkpt>
      <trkpt lat="43.75004" lon="6.36285">
        <ele>1179.8</ele>
        <time>2021-09-07T08:33:39.000Z</time>
      </trkpt>
      <trkpt lat="43.75003" lon="6.3628">
        <ele>1179.4</ele>
        <time>2021-09-07T08:33:41.000Z</time>
      </trkpt>
      <trkpt lat="43.74999" lon="6.36251">
        <ele>1178.6</ele>
        <time>2021-09-07T08:33:43.000Z</time>
      </trkpt>
      <trkpt lat="43.74998" lon="6.36244">
        <ele>1178.2</ele>
        <time>2021-09-07T08:33:45.000Z</time>
      </trkpt>
      <trkpt lat="43.74982" lon="6.36199">
        <ele>1175.5</ele>
        <time>2021-09-07T08:33:50.000Z</time>
      </trkpt>
      <trkpt lat="43.74982" lon="6.36193">
        <ele>1174.7</ele>
        <time>2021-09-07T08:33:55.000Z</time>
      </trkpt>
      <trkpt lat="43.74983" lon="6.36193">
        <ele>1173.3</ele>
        <time>2021-09-07T08:34:00.000Z</time>
      </trkpt>
      <trkpt lat="43.74983" lon="6.36193">
        <ele>1172.3</ele>
        <time>2021-09-07T08:34:02.000Z</time>
      </trkpt>
      <trkpt lat="43.74957" lon="6.36165">
        <ele>1170.6</ele>
        <time>2021-09-07T08:34:04.000Z</time>
      </trkpt>
      <trkpt lat="43.74937" lon="6.36114">
        <ele>1169.7</ele>
        <time>2021-09-07T08:34:05.000Z</time>
      </trkpt>
      <trkpt lat="43.74946" lon="6.36149">
        <ele>1169.9</ele>
        <time>2021-09-07T08:34:06.000Z</time>
      </trkpt>
      <trkpt lat="43.74934" lon="6.36088">
        <ele>1169.7</ele>
        <time>2021-09-07T08:34:06.000Z</time>
      </trkpt>
      <trkpt lat="43.74936" lon="6.36018">
        <ele>1165.8</ele>
        <time>2021-09-07T08:34:11.000Z</time>
      </trkpt>
      <trkpt lat="43.7493" lon="6.35966">
        <ele>1161.1</ele>
        <time>2021-09-07T08:34:16.000Z</time>
      </trkpt>
      <trkpt lat="43.74899" lon="6.35939">
        <ele>1156.8</ele>
        <time>2021-09-07T08:34:21.000Z</time>
      </trkpt>
      <trkpt lat="43.74863" lon="6.35926">
        <ele>1152.5</ele>
        <time>2021-09-07T08:34:26.000Z</time>
      </trkpt>
      <trkpt lat="43.74828" lon="6.35883">
        <ele>1148.3</ele>
        <time>2021-09-07T08:34:31.000Z</time>
      </trkpt>
      <trkpt lat="43.74787" lon="6.35835">
        <ele>1145.6</ele>
        <time>2021-09-07T08:34:36.000Z</time>
      </trkpt>
      <trkpt lat="43.74776" lon="6.3578">
        <ele>1143.3</ele>
        <time>2021-09-07T08:34:41.000Z</time>
      </trkpt>
      <trkpt lat="43.74765" lon="6.35713">
        <ele>1139</ele>
        <time>2021-09-07T08:34:46.000Z</time>
      </trkpt>
      <trkpt lat="43.7475" lon="6.35651">
        <ele>1134.6</ele>
        <time>2021-09-07T08:34:51.000Z</time>
      </trkpt>
      <trkpt lat="43.74755" lon="6.35592">
        <ele>1129.3</ele>
        <time>2021-09-07T08:34:56.000Z</time>
      </trkpt>
      <trkpt lat="43.74773" lon="6.3554">
        <ele>1123.7</ele>
        <time>2021-09-07T08:35:01.000Z</time>
      </trkpt>
      <trkpt lat="43.748" lon="6.35503">
        <ele>1118.1</ele>
        <time>2021-09-07T08:35:06.000Z</time>
      </trkpt>
      <trkpt lat="43.74839" lon="6.35481">
        <ele>1112.9</ele>
        <time>2021-09-07T08:35:11.000Z</time>
      </trkpt>
      <trkpt lat="43.74882" lon="6.3547">
        <ele>1107.8</ele>
        <time>2021-09-07T08:35:16.000Z</time>
      </trkpt>
      <trkpt lat="43.74897" lon="6.35437">
        <ele>1105.1</ele>
        <time>2021-09-07T08:35:21.000Z</time>
      </trkpt>
      <trkpt lat="43.74884" lon="6.35435">
        <ele>1102.7</ele>
        <time>2021-09-07T08:35:26.000Z</time>
      </trkpt>
      <trkpt lat="43.74842" lon="6.35446">
        <ele>1100.1</ele>
        <time>2021-09-07T08:35:31.000Z</time>
      </trkpt>
      <trkpt lat="43.74793" lon="6.3545">
        <ele>1097.1</ele>
        <time>2021-09-07T08:35:36.000Z</time>
      </trkpt>
      <trkpt lat="43.74745" lon="6.35487">
        <ele>1093.6</ele>
        <time>2021-09-07T08:35:41.000Z</time>
      </trkpt>
      <trkpt lat="43.74706" lon="6.35538">
        <ele>1088.7</ele>
        <time>2021-09-07T08:35:46.000Z</time>
      </trkpt>
      <trkpt lat="43.74699" lon="6.35598">
        <ele>1084.5</ele>
        <time>2021-09-07T08:35:51.000Z</time>
      </trkpt>
      <trkpt lat="43.74686" lon="6.35623">
        <ele>1081.9</ele>
        <time>2021-09-07T08:35:56.000Z</time>
      </trkpt>
      <trkpt lat="43.74682" lon="6.35563">
        <ele>1078.3</ele>
        <time>2021-09-07T08:36:01.000Z</time>
      </trkpt>
      <trkpt lat="43.74662" lon="6.355">
        <ele>1074.8</ele>
        <time>2021-09-07T08:36:06.000Z</time>
      </trkpt>
      <trkpt lat="43.74627" lon="6.35446">
        <ele>1067.8</ele>
        <time>2021-09-07T08:36:11.000Z</time>
      </trkpt>
      <trkpt lat="43.74585" lon="6.35436">
        <ele>1065.1</ele>
        <time>2021-09-07T08:36:16.000Z</time>
      </trkpt>
      <trkpt lat="43.74538" lon="6.35471">
        <ele>1060.4</ele>
        <time>2021-09-07T08:36:21.000Z</time>
      </trkpt>
      <trkpt lat="43.74493" lon="6.35525">
        <ele>1055.7</ele>
        <time>2021-09-07T08:36:26.000Z</time>
      </trkpt>
      <trkpt lat="43.74452" lon="6.35581">
        <ele>1048.6</ele>
        <time>2021-09-07T08:36:31.000Z</time>
      </trkpt>
      <trkpt lat="43.74419" lon="6.35651">
        <ele>1041.8</ele>
        <time>2021-09-07T08:36:36.000Z</time>
      </trkpt>
      <trkpt lat="43.74395" lon="6.35722">
        <ele>1034.6</ele>
        <time>2021-09-07T08:36:41.000Z</time>
      </trkpt>
      <trkpt lat="43.74389" lon="6.35771">
        <ele>1030.5</ele>
        <time>2021-09-07T08:36:46.000Z</time>
      </trkpt>
      <trkpt lat="43.74372" lon="6.35752">
        <ele>1027.9</ele>
        <time>2021-09-07T08:36:51.000Z</time>
      </trkpt>
      <trkpt lat="43.7438" lon="6.35696">
        <ele>1026.3</ele>
        <time>2021-09-07T08:36:56.000Z</time>
      </trkpt>
      <trkpt lat="43.74384" lon="6.35624">
        <ele>1021</ele>
        <time>2021-09-07T08:37:01.000Z</time>
      </trkpt>
      <trkpt lat="43.74392" lon="6.35549">
        <ele>1014.4</ele>
        <time>2021-09-07T08:37:06.000Z</time>
      </trkpt>
      <trkpt lat="43.74412" lon="6.35472">
        <ele>1007.9</ele>
        <time>2021-09-07T08:37:11.000Z</time>
      </trkpt>
      <trkpt lat="43.74438" lon="6.35424">
        <ele>1003.1</ele>
        <time>2021-09-07T08:37:16.000Z</time>
      </trkpt>
      <trkpt lat="43.74439" lon="6.35398">
        <ele>1000.8</ele>
        <time>2021-09-07T08:37:21.000Z</time>
      </trkpt>
      <trkpt lat="43.74413" lon="6.35433">
        <ele>999.1</ele>
        <time>2021-09-07T08:37:26.000Z</time>
      </trkpt>
      <trkpt lat="43.74379" lon="6.35492">
        <ele>996.5</ele>
        <time>2021-09-07T08:37:31.000Z</time>
      </trkpt>
      <trkpt lat="43.74337" lon="6.35551">
        <ele>994.3</ele>
        <time>2021-09-07T08:37:36.000Z</time>
      </trkpt>
      <trkpt lat="43.74307" lon="6.3561">
        <ele>989.3</ele>
        <time>2021-09-07T08:37:41.000Z</time>
      </trkpt>
      <trkpt lat="43.74284" lon="6.35634">
        <ele>983.9</ele>
        <time>2021-09-07T08:37:46.000Z</time>
      </trkpt>
      <trkpt lat="43.74282" lon="6.35604">
        <ele>981.8</ele>
        <time>2021-09-07T08:37:51.000Z</time>
      </trkpt>
      <trkpt lat="43.74313" lon="6.35519">
        <ele>979.7</ele>
        <time>2021-09-07T08:37:56.000Z</time>
      </trkpt>
      <trkpt lat="43.74339" lon="6.3544">
        <ele>974.1</ele>
        <time>2021-09-07T08:38:01.000Z</time>
      </trkpt>
      <trkpt lat="43.74365" lon="6.35361">
        <ele>967.8</ele>
        <time>2021-09-07T08:38:06.000Z</time>
      </trkpt>
      <trkpt lat="43.7439" lon="6.35283">
        <ele>960.4</ele>
        <time>2021-09-07T08:38:11.000Z</time>
      </trkpt>
      <trkpt lat="43.74415" lon="6.35205">
        <ele>953.7</ele>
        <time>2021-09-07T08:38:16.000Z</time>
      </trkpt>
      <trkpt lat="43.7444" lon="6.35132">
        <ele>947.3</ele>
        <time>2021-09-07T08:38:21.000Z</time>
      </trkpt>
      <trkpt lat="43.74466" lon="6.35073">
        <ele>940.6</ele>
        <time>2021-09-07T08:38:26.000Z</time>
      </trkpt>
      <trkpt lat="43.74499" lon="6.35048">
        <ele>936.7</ele>
        <time>2021-09-07T08:38:31.000Z</time>
      </trkpt>
      <trkpt lat="43.74533" lon="6.35041">
        <ele>933.3</ele>
        <time>2021-09-07T08:38:36.000Z</time>
      </trkpt>
      <trkpt lat="43.74571" lon="6.35048">
        <ele>930.1</ele>
        <time>2021-09-07T08:38:41.000Z</time>
      </trkpt>
      <trkpt lat="43.74603" lon="6.35058">
        <ele>927.4</ele>
        <time>2021-09-07T08:38:46.000Z</time>
      </trkpt>
      <trkpt lat="43.74634" lon="6.35069">
        <ele>924.6</ele>
        <time>2021-09-07T08:38:51.000Z</time>
      </trkpt>
      <trkpt lat="43.74671" lon="6.35075">
        <ele>922.5</ele>
        <time>2021-09-07T08:38:56.000Z</time>
      </trkpt>
      <trkpt lat="43.74715" lon="6.35067">
        <ele>919.3</ele>
        <time>2021-09-07T08:39:01.000Z</time>
      </trkpt>
      <trkpt lat="43.74762" lon="6.3506">
        <ele>915.2</ele>
        <time>2021-09-07T08:39:06.000Z</time>
      </trkpt>
      <trkpt lat="43.74795" lon="6.3502">
        <ele>912.3</ele>
        <time>2021-09-07T08:39:11.000Z</time>
      </trkpt>
      <trkpt lat="43.74787" lon="6.34965">
        <ele>910.4</ele>
        <time>2021-09-07T08:39:16.000Z</time>
      </trkpt>
      <trkpt lat="43.74773" lon="6.34913">
        <ele>907.3</ele>
        <time>2021-09-07T08:39:21.000Z</time>
      </trkpt>
      <trkpt lat="43.74791" lon="6.34859">
        <ele>904.9</ele>
        <time>2021-09-07T08:39:26.000Z</time>
      </trkpt>
      <trkpt lat="43.74824" lon="6.34813">
        <ele>902.9</ele>
        <time>2021-09-07T08:39:31.000Z</time>
      </trkpt>
      <trkpt lat="43.74848" lon="6.34768">
        <ele>901</ele>
        <time>2021-09-07T08:39:36.000Z</time>
      </trkpt>
      <trkpt lat="43.74844" lon="6.34732">
        <ele>899.5</ele>
        <time>2021-09-07T08:39:41.000Z</time>
      </trkpt>
      <trkpt lat="43.74842" lon="6.34692">
        <ele>899.8</ele>
        <time>2021-09-07T08:39:46.000Z</time>
      </trkpt>
      <trkpt lat="43.7484" lon="6.34649">
        <ele>899.2</ele>
        <time>2021-09-07T08:39:51.000Z</time>
      </trkpt>
      <trkpt lat="43.74812" lon="6.34625">
        <ele>897.7</ele>
        <time>2021-09-07T08:39:56.000Z</time>
      </trkpt>
      <trkpt lat="43.74781" lon="6.34608">
        <ele>897.2</ele>
        <time>2021-09-07T08:40:01.000Z</time>
      </trkpt>
      <trkpt lat="43.74746" lon="6.34599">
        <ele>896.8</ele>
        <time>2021-09-07T08:40:06.000Z</time>
      </trkpt>
      <trkpt lat="43.74712" lon="6.34586">
        <ele>896.3</ele>
        <time>2021-09-07T08:40:11.000Z</time>
      </trkpt>
      <trkpt lat="43.74681" lon="6.34566">
        <ele>894.2</ele>
        <time>2021-09-07T08:40:16.000Z</time>
      </trkpt>
      <trkpt lat="43.7466" lon="6.34536">
        <ele>892.4</ele>
        <time>2021-09-07T08:40:21.000Z</time>
      </trkpt>
      <trkpt lat="43.74646" lon="6.34513">
        <ele>890.6</ele>
        <time>2021-09-07T08:40:26.000Z</time>
      </trkpt>
      <trkpt lat="43.74641" lon="6.34497">
        <ele>889.5</ele>
        <time>2021-09-07T08:40:31.000Z</time>
      </trkpt>
      <trkpt lat="43.74641" lon="6.34497">
        <ele>889.3</ele>
        <time>2021-09-07T08:40:33.000Z</time>
      </trkpt>
      <trkpt lat="43.74641" lon="6.34497">
        <ele>889.3</ele>
        <time>2021-09-07T08:40:34.000Z</time>
      </trkpt>
      <trkpt lat="43.74641" lon="6.34498">
        <ele>889.3</ele>
        <time>2021-09-07T08:40:36.000Z</time>
      </trkpt>
      <trkpt lat="43.74641" lon="6.34497">
        <ele>889</ele>
        <time>2021-09-07T08:40:40.000Z</time>
      </trkpt>
      <trkpt lat="43.7464" lon="6.34491">
        <ele>888.9</ele>
        <time>2021-09-07T08:40:41.000Z</time>
      </trkpt>
      <trkpt lat="43.7464" lon="6.34486">
        <ele>888.8</ele>
        <time>2021-09-07T08:40:42.000Z</time>
      </trkpt>
      <trkpt lat="43.7464" lon="6.34481">
        <ele>888.5</ele>
        <time>2021-09-07T08:40:43.000Z</time>
      </trkpt>
      <trkpt lat="43.7464" lon="6.34477">
        <ele>888.7</ele>
        <time>2021-09-07T08:40:45.000Z</time>
      </trkpt>
      <trkpt lat="43.74642" lon="6.34454">
        <ele>887.5</ele>
        <time>2021-09-07T08:40:47.000Z</time>
      </trkpt>
      <trkpt lat="43.74643" lon="6.34446">
        <ele>887.1</ele>
        <time>2021-09-07T08:40:48.000Z</time>
      </trkpt>
      <trkpt lat="43.74646" lon="6.34401">
        <ele>885.2</ele>
        <time>2021-09-07T08:40:53.000Z</time>
      </trkpt>
      <trkpt lat="43.74647" lon="6.34351">
        <ele>882.2</ele>
        <time>2021-09-07T08:40:58.000Z</time>
      </trkpt>
      <trkpt lat="43.74642" lon="6.34295">
        <ele>878.9</ele>
        <time>2021-09-07T08:41:03.000Z</time>
      </trkpt>
      <trkpt lat="43.74637" lon="6.34248">
        <ele>876</ele>
        <time>2021-09-07T08:41:08.000Z</time>
      </trkpt>
      <trkpt lat="43.7462" lon="6.34197">
        <ele>872.6</ele>
        <time>2021-09-07T08:41:13.000Z</time>
      </trkpt>
      <trkpt lat="43.74597" lon="6.3416">
        <ele>869.3</ele>
        <time>2021-09-07T08:41:18.000Z</time>
      </trkpt>
      <trkpt lat="43.74568" lon="6.34123">
        <ele>866.1</ele>
        <time>2021-09-07T08:41:23.000Z</time>
      </trkpt>
      <trkpt lat="43.74566" lon="6.34079">
        <ele>863</ele>
        <time>2021-09-07T08:41:28.000Z</time>
      </trkpt>
      <trkpt lat="43.74581" lon="6.34026">
        <ele>859.8</ele>
        <time>2021-09-07T08:41:33.000Z</time>
      </trkpt>
      <trkpt lat="43.74563" lon="6.3397">
        <ele>857.5</ele>
        <time>2021-09-07T08:41:38.000Z</time>
      </trkpt>
      <trkpt lat="43.74561" lon="6.33914">
        <ele>852.9</ele>
        <time>2021-09-07T08:41:43.000Z</time>
      </trkpt>
      <trkpt lat="43.74559" lon="6.33865">
        <ele>850.9</ele>
        <time>2021-09-07T08:41:48.000Z</time>
      </trkpt>
      <trkpt lat="43.74537" lon="6.33821">
        <ele>847.5</ele>
        <time>2021-09-07T08:41:53.000Z</time>
      </trkpt>
      <trkpt lat="43.74531" lon="6.33788">
        <ele>846.9</ele>
        <time>2021-09-07T08:41:58.000Z</time>
      </trkpt>
      <trkpt lat="43.74546" lon="6.33747">
        <ele>846</ele>
        <time>2021-09-07T08:42:03.000Z</time>
      </trkpt>
      <trkpt lat="43.74569" lon="6.33716">
        <ele>845</ele>
        <time>2021-09-07T08:42:08.000Z</time>
      </trkpt>
      <trkpt lat="43.74578" lon="6.33673">
        <ele>843.9</ele>
        <time>2021-09-07T08:42:13.000Z</time>
      </trkpt>
      <trkpt lat="43.74595" lon="6.33636">
        <ele>843.8</ele>
        <time>2021-09-07T08:42:18.000Z</time>
      </trkpt>
      <trkpt lat="43.74622" lon="6.33613">
        <ele>843.1</ele>
        <time>2021-09-07T08:42:23.000Z</time>
      </trkpt>
      <trkpt lat="43.74648" lon="6.33595">
        <ele>842.2</ele>
        <time>2021-09-07T08:42:28.000Z</time>
      </trkpt>
      <trkpt lat="43.74665" lon="6.33564">
        <ele>842</ele>
        <time>2021-09-07T08:42:33.000Z</time>
      </trkpt>
      <trkpt lat="43.74669" lon="6.3353">
        <ele>841.2</ele>
        <time>2021-09-07T08:42:38.000Z</time>
      </trkpt>
      <trkpt lat="43.74656" lon="6.33502">
        <ele>840.4</ele>
        <time>2021-09-07T08:42:43.000Z</time>
      </trkpt>
      <trkpt lat="43.74652" lon="6.33478">
        <ele>839.9</ele>
        <time>2021-09-07T08:42:48.000Z</time>
      </trkpt>
      <trkpt lat="43.74647" lon="6.33467">
        <ele>839.6</ele>
        <time>2021-09-07T08:42:53.000Z</time>
      </trkpt>
      <trkpt lat="43.74646" lon="6.33465">
        <ele>839.3</ele>
        <time>2021-09-07T08:43:00.000Z</time>
      </trkpt>
      <trkpt lat="43.74647" lon="6.33465">
        <ele>839.2</ele>
        <time>2021-09-07T08:43:01.000Z</time>
      </trkpt>
      <trkpt lat="43.74646" lon="6.33465">
        <ele>839.4</ele>
        <time>2021-09-07T08:43:02.000Z</time>
      </trkpt>
      <trkpt lat="43.74647" lon="6.33465">
        <ele>839.4</ele>
        <time>2021-09-07T08:43:03.000Z</time>
      </trkpt>
      <trkpt lat="43.74646" lon="6.33465">
        <ele>839.3</ele>
        <time>2021-09-07T08:43:04.000Z</time>
      </trkpt>
      <trkpt lat="43.74646" lon="6.33465">
        <ele>839.5</ele>
        <time>2021-09-07T08:43:05.000Z</time>
      </trkpt>
      <trkpt lat="43.74646" lon="6.33466">
        <ele>839.3</ele>
        <time>2021-09-07T08:43:06.000Z</time>
      </trkpt>
      <trkpt lat="43.74645" lon="6.33466">
        <ele>839.2</ele>
        <time>2021-09-07T08:43:11.000Z</time>
      </trkpt>
      <trkpt lat="43.74645" lon="6.33466">
        <ele>839.4</ele>
        <time>2021-09-07T08:43:15.000Z</time>
      </trkpt>
      <trkpt lat="43.74645" lon="6.33466">
        <ele>839.4</ele>
        <time>2021-09-07T08:43:16.000Z</time>
      </trkpt>
      <trkpt lat="43.74645" lon="6.33467">
        <ele>839.3</ele>
        <time>2021-09-07T08:43:19.000Z</time>
      </trkpt>
      <trkpt lat="43.74645" lon="6.33467">
        <ele>839.3</ele>
        <time>2021-09-07T08:43:20.000Z</time>
      </trkpt>
      <trkpt lat="43.74645" lon="6.33467">
        <ele>839.4</ele>
        <time>2021-09-07T08:43:21.000Z</time>
      </trkpt>
      <trkpt lat="43.74645" lon="6.33467">
        <ele>839.4</ele>
        <time>2021-09-07T08:43:22.000Z</time>
      </trkpt>
      <trkpt lat="43.74646" lon="6.33467">
        <ele>839.5</ele>
        <time>2021-09-07T08:43:23.000Z</time>
      </trkpt>
      <trkpt lat="43.74647" lon="6.33466">
        <ele>839.2</ele>
        <time>2021-09-07T08:43:26.000Z</time>
      </trkpt>
      <trkpt lat="43.74647" lon="6.33466">
        <ele>839.5</ele>
        <time>2021-09-07T08:43:31.000Z</time>
      </trkpt>
      <trkpt lat="43.74644" lon="6.33461">
        <ele>839.3</ele>
        <time>2021-09-07T08:43:35.000Z</time>
      </trkpt>
      <trkpt lat="43.74642" lon="6.33459">
        <ele>839.2</ele>
        <time>2021-09-07T08:43:39.000Z</time>
      </trkpt>
      <trkpt lat="43.74642" lon="6.33458">
        <ele>839.7</ele>
        <time>2021-09-07T08:43:44.000Z</time>
      </trkpt>
      <trkpt lat="43.74642" lon="6.33458">
        <ele>839.6</ele>
        <time>2021-09-07T08:43:50.000Z</time>
      </trkpt>
      <trkpt lat="43.74642" lon="6.33458">
        <ele>839.8</ele>
        <time>2021-09-07T08:43:55.000Z</time>
      </trkpt>
      <trkpt lat="43.74642" lon="6.33458">
        <ele>839.9</ele>
        <time>2021-09-07T08:44:00.000Z</time>
      </trkpt>
      <trkpt lat="43.74642" lon="6.33458">
        <ele>839.9</ele>
        <time>2021-09-07T08:44:05.000Z</time>
      </trkpt>
      <trkpt lat="43.74642" lon="6.33458">
        <ele>839.8</ele>
        <time>2021-09-07T08:44:10.000Z</time>
      </trkpt>
      <trkpt lat="43.74642" lon="6.33458">
        <ele>839.7</ele>
        <time>2021-09-07T08:44:15.000Z</time>
      </trkpt>
      <trkpt lat="43.74642" lon="6.33458">
        <ele>839.9</ele>
        <time>2021-09-07T08:44:20.000Z</time>
      </trkpt>
      <trkpt lat="43.74642" lon="6.33458">
        <ele>839.7</ele>
        <time>2021-09-07T08:44:25.000Z</time>
      </trkpt>
      <trkpt lat="43.74642" lon="6.33458">
        <ele>839.7</ele>
        <time>2021-09-07T08:44:30.000Z</time>
      </trkpt>
      <trkpt lat="43.74642" lon="6.33458">
        <ele>839.2</ele>
        <time>2021-09-07T08:44:35.000Z</time>
      </trkpt>
      <trkpt lat="43.74642" lon="6.33458">
        <ele>839.3</ele>
        <time>2021-09-07T08:44:40.000Z</time>
      </trkpt>
      <trkpt lat="43.74642" lon="6.33458">
        <ele>839.2</ele>
        <time>2021-09-07T08:44:46.000Z</time>
      </trkpt>
      <trkpt lat="43.74643" lon="6.33458">
        <ele>839.2</ele>
        <time>2021-09-07T08:44:51.000Z</time>
      </trkpt>
      <trkpt lat="43.74644" lon="6.33459">
        <ele>839.1</ele>
        <time>2021-09-07T08:44:52.000Z</time>
      </trkpt>
      <trkpt lat="43.74645" lon="6.3346">
        <ele>839.3</ele>
        <time>2021-09-07T08:44:53.000Z</time>
      </trkpt>
      <trkpt lat="43.74645" lon="6.33461">
        <ele>839.2</ele>
        <time>2021-09-07T08:44:54.000Z</time>
      </trkpt>
      <trkpt lat="43.74646" lon="6.33462">
        <ele>839</ele>
        <time>2021-09-07T08:45:00.000Z</time>
      </trkpt>
      <trkpt lat="43.74646" lon="6.33462">
        <ele>839.4</ele>
        <time>2021-09-07T08:45:05.000Z</time>
      </trkpt>
      <trkpt lat="43.74646" lon="6.33463">
        <ele>839.1</ele>
        <time>2021-09-07T08:45:10.000Z</time>
      </trkpt>
      <trkpt lat="43.74646" lon="6.33463">
        <ele>839.3</ele>
        <time>2021-09-07T08:45:15.000Z</time>
      </trkpt>
      <trkpt lat="43.74647" lon="6.33463">
        <ele>839.4</ele>
        <time>2021-09-07T08:45:18.000Z</time>
      </trkpt>
      <trkpt lat="43.74647" lon="6.33463">
        <ele>839.2</ele>
        <time>2021-09-07T08:45:21.000Z</time>
      </trkpt>
      <trkpt lat="43.74647" lon="6.33463">
        <ele>839.3</ele>
        <time>2021-09-07T08:45:24.000Z</time>
      </trkpt>
      <trkpt lat="43.74648" lon="6.33464">
        <ele>839.1</ele>
        <time>2021-09-07T08:45:24.000Z</time>
      </trkpt>
      <trkpt lat="43.7465" lon="6.33464">
        <ele>839.6</ele>
        <time>2021-09-07T08:45:26.000Z</time>
      </trkpt>
      <trkpt lat="43.74649" lon="6.33464">
        <ele>839.3</ele>
        <time>2021-09-07T08:45:27.000Z</time>
      </trkpt>
      <trkpt lat="43.74651" lon="6.33464">
        <ele>839.5</ele>
        <time>2021-09-07T08:45:27.000Z</time>
      </trkpt>
      <trkpt lat="43.74653" lon="6.33464">
        <ele>839.5</ele>
        <time>2021-09-07T08:45:30.000Z</time>
      </trkpt>
      <trkpt lat="43.74652" lon="6.33464">
        <ele>839.6</ele>
        <time>2021-09-07T08:45:32.000Z</time>
      </trkpt>
      <trkpt lat="43.74653" lon="6.33464">
        <ele>839.6</ele>
        <time>2021-09-07T08:45:34.000Z</time>
      </trkpt>
      <trkpt lat="43.74653" lon="6.33465">
        <ele>839.5</ele>
        <time>2021-09-07T08:45:34.000Z</time>
      </trkpt>
      <trkpt lat="43.74653" lon="6.33465">
        <ele>839.6</ele>
        <time>2021-09-07T08:45:37.000Z</time>
      </trkpt>
      <trkpt lat="43.74654" lon="6.33464">
        <ele>839.4</ele>
        <time>2021-09-07T08:45:42.000Z</time>
      </trkpt>
      <trkpt lat="43.74654" lon="6.33464">
        <ele>839.6</ele>
        <time>2021-09-07T08:45:43.000Z</time>
      </trkpt>
      <trkpt lat="43.74655" lon="6.33464">
        <ele>839.3</ele>
        <time>2021-09-07T08:45:45.000Z</time>
      </trkpt>
      <trkpt lat="43.74655" lon="6.33464">
        <ele>839.6</ele>
        <time>2021-09-07T08:45:49.000Z</time>
      </trkpt>
      <trkpt lat="43.74655" lon="6.33464">
        <ele>839.9</ele>
        <time>2021-09-07T08:45:50.000Z</time>
      </trkpt>
      <trkpt lat="43.74656" lon="6.33464">
        <ele>839.8</ele>
        <time>2021-09-07T08:45:53.000Z</time>
      </trkpt>
      <trkpt lat="43.74656" lon="6.33465">
        <ele>839.6</ele>
        <time>2021-09-07T08:45:56.000Z</time>
      </trkpt>
      <trkpt lat="43.74656" lon="6.33465">
        <ele>839.5</ele>
        <time>2021-09-07T08:45:59.000Z</time>
      </trkpt>
      <trkpt lat="43.74658" lon="6.33463">
        <ele>839.3</ele>
        <time>2021-09-07T08:45:59.000Z</time>
      </trkpt>
      <trkpt lat="43.74659" lon="6.33457">
        <ele>838.7</ele>
        <time>2021-09-07T08:46:01.000Z</time>
      </trkpt>
      <trkpt lat="43.74661" lon="6.33453">
        <ele>838.6</ele>
        <time>2021-09-07T08:46:02.000Z</time>
      </trkpt>
      <trkpt lat="43.74662" lon="6.33449">
        <ele>838.6</ele>
        <time>2021-09-07T08:46:03.000Z</time>
      </trkpt>
      <trkpt lat="43.74664" lon="6.33444">
        <ele>838.4</ele>
        <time>2021-09-07T08:46:04.000Z</time>
      </trkpt>
      <trkpt lat="43.7466" lon="6.33456">
        <ele>838.6</ele>
        <time>2021-09-07T08:46:04.000Z</time>
      </trkpt>
      <trkpt lat="43.74666" lon="6.3344">
        <ele>838.3</ele>
        <time>2021-09-07T08:46:05.000Z</time>
      </trkpt>
      <trkpt lat="43.74661" lon="6.33451">
        <ele>838.8</ele>
        <time>2021-09-07T08:46:05.000Z</time>
      </trkpt>
      <trkpt lat="43.74664" lon="6.33446">
        <ele>838.4</ele>
        <time>2021-09-07T08:46:06.000Z</time>
      </trkpt>
      <trkpt lat="43.74674" lon="6.33426">
        <ele>837.9</ele>
        <time>2021-09-07T08:46:08.000Z</time>
      </trkpt>
      <trkpt lat="43.7468" lon="6.33416">
        <ele>837.7</ele>
        <time>2021-09-07T08:46:10.000Z</time>
      </trkpt>
      <trkpt lat="43.74676" lon="6.33423">
        <ele>837.9</ele>
        <time>2021-09-07T08:46:11.000Z</time>
      </trkpt>
      <trkpt lat="43.74684" lon="6.33405">
        <ele>837.5</ele>
        <time>2021-09-07T08:46:12.000Z</time>
      </trkpt>
      <trkpt lat="43.74682" lon="6.33412">
        <ele>837.7</ele>
        <time>2021-09-07T08:46:13.000Z</time>
      </trkpt>
      <trkpt lat="43.74686" lon="6.33394">
        <ele>837.3</ele>
        <time>2021-09-07T08:46:14.000Z</time>
      </trkpt>
      <trkpt lat="43.74687" lon="6.33389">
        <ele>836.6</ele>
        <time>2021-09-07T08:46:15.000Z</time>
      </trkpt>
      <trkpt lat="43.74684" lon="6.33403">
        <ele>837.4</ele>
        <time>2021-09-07T08:46:15.000Z</time>
      </trkpt>
      <trkpt lat="43.74687" lon="6.3339">
        <ele>836.9</ele>
        <time>2021-09-07T08:46:17.000Z</time>
      </trkpt>
      <trkpt lat="43.74687" lon="6.33385">
        <ele>836.2</ele>
        <time>2021-09-07T08:46:18.000Z</time>
      </trkpt>
      <trkpt lat="43.74687" lon="6.33372">
        <ele>835.7</ele>
        <time>2021-09-07T08:46:18.000Z</time>
      </trkpt>
      <trkpt lat="43.74686" lon="6.33367">
        <ele>835.3</ele>
        <time>2021-09-07T08:46:19.000Z</time>
      </trkpt>
      <trkpt lat="43.74685" lon="6.33361">
        <ele>835</ele>
        <time>2021-09-07T08:46:20.000Z</time>
      </trkpt>
      <trkpt lat="43.74684" lon="6.33355">
        <ele>834.7</ele>
        <time>2021-09-07T08:46:21.000Z</time>
      </trkpt>
      <trkpt lat="43.74679" lon="6.33337">
        <ele>833.6</ele>
        <time>2021-09-07T08:46:24.000Z</time>
      </trkpt>
      <trkpt lat="43.7468" lon="6.33339">
        <ele>833.9</ele>
        <time>2021-09-07T08:46:26.000Z</time>
      </trkpt>
      <trkpt lat="43.74679" lon="6.33334">
        <ele>833.5</ele>
        <time>2021-09-07T08:46:27.000Z</time>
      </trkpt>
      <trkpt lat="43.74676" lon="6.33302">
        <ele>832.3</ele>
        <time>2021-09-07T08:46:30.000Z</time>
      </trkpt>
      <trkpt lat="43.74677" lon="6.33293">
        <ele>832</ele>
        <time>2021-09-07T08:46:32.000Z</time>
      </trkpt>
      <trkpt lat="43.74676" lon="6.33303">
        <ele>832.4</ele>
        <time>2021-09-07T08:46:32.000Z</time>
      </trkpt>
      <trkpt lat="43.74676" lon="6.33298">
        <ele>832.3</ele>
        <time>2021-09-07T08:46:33.000Z</time>
      </trkpt>
      <trkpt lat="43.74682" lon="6.33286">
        <ele>831.6</ele>
        <time>2021-09-07T08:46:34.000Z</time>
      </trkpt>
      <trkpt lat="43.74685" lon="6.33282">
        <ele>831.2</ele>
        <time>2021-09-07T08:46:35.000Z</time>
      </trkpt>
      <trkpt lat="43.74679" lon="6.33289">
        <ele>832</ele>
        <time>2021-09-07T08:46:35.000Z</time>
      </trkpt>
      <trkpt lat="43.7469" lon="6.33272">
        <ele>831.5</ele>
        <time>2021-09-07T08:46:37.000Z</time>
      </trkpt>
      <trkpt lat="43.74684" lon="6.33283">
        <ele>831.4</ele>
        <time>2021-09-07T08:46:37.000Z</time>
      </trkpt>
      <trkpt lat="43.74687" lon="6.33279">
        <ele>831.2</ele>
        <time>2021-09-07T08:46:38.000Z</time>
      </trkpt>
      <trkpt lat="43.74696" lon="6.33262">
        <ele>831.2</ele>
        <time>2021-09-07T08:46:39.000Z</time>
      </trkpt>
      <trkpt lat="43.74691" lon="6.33271">
        <ele>831.5</ele>
        <time>2021-09-07T08:46:40.000Z</time>
      </trkpt>
      <trkpt lat="43.74697" lon="6.33258">
        <ele>831.1</ele>
        <time>2021-09-07T08:46:42.000Z</time>
      </trkpt>
      <trkpt lat="43.747" lon="6.33244">
        <ele>830.7</ele>
        <time>2021-09-07T08:46:42.000Z</time>
      </trkpt>
      <trkpt lat="43.74701" lon="6.33239">
        <ele>830.5</ele>
        <time>2021-09-07T08:46:45.000Z</time>
      </trkpt>
      <trkpt lat="43.74702" lon="6.33226">
        <ele>830.4</ele>
        <time>2021-09-07T08:46:45.000Z</time>
      </trkpt>
      <trkpt lat="43.74701" lon="6.33214">
        <ele>830.6</ele>
        <time>2021-09-07T08:46:47.000Z</time>
      </trkpt>
      <trkpt lat="43.747" lon="6.33209">
        <ele>830.6</ele>
        <time>2021-09-07T08:46:48.000Z</time>
      </trkpt>
      <trkpt lat="43.74702" lon="6.33223">
        <ele>830.5</ele>
        <time>2021-09-07T08:46:48.000Z</time>
      </trkpt>
      <trkpt lat="43.747" lon="6.3321">
        <ele>830.6</ele>
        <time>2021-09-07T08:46:50.000Z</time>
      </trkpt>
      <trkpt lat="43.747" lon="6.33205">
        <ele>830.5</ele>
        <time>2021-09-07T08:46:51.000Z</time>
      </trkpt>
      <trkpt lat="43.74699" lon="6.33182">
        <ele>830.5</ele>
        <time>2021-09-07T08:46:53.000Z</time>
      </trkpt>
      <trkpt lat="43.74699" lon="6.33176">
        <ele>830.2</ele>
        <time>2021-09-07T08:46:54.000Z</time>
      </trkpt>
      <trkpt lat="43.74699" lon="6.3317">
        <ele>830</ele>
        <time>2021-09-07T08:46:55.000Z</time>
      </trkpt>
      <trkpt lat="43.74699" lon="6.33179">
        <ele>830.3</ele>
        <time>2021-09-07T08:46:56.000Z</time>
      </trkpt>
      <trkpt lat="43.747" lon="6.33158">
        <ele>829.4</ele>
        <time>2021-09-07T08:46:57.000Z</time>
      </trkpt>
      <trkpt lat="43.74699" lon="6.33173">
        <ele>830</ele>
        <time>2021-09-07T08:46:57.000Z</time>
      </trkpt>
      <trkpt lat="43.74701" lon="6.33151">
        <ele>829.6</ele>
        <time>2021-09-07T08:46:58.000Z</time>
      </trkpt>
      <trkpt lat="43.74699" lon="6.33165">
        <ele>829.9</ele>
        <time>2021-09-07T08:46:58.000Z</time>
      </trkpt>
      <trkpt lat="43.74702" lon="6.33139">
        <ele>829.5</ele>
        <time>2021-09-07T08:46:59.000Z</time>
      </trkpt>
      <trkpt lat="43.74703" lon="6.33129">
        <ele>829.4</ele>
        <time>2021-09-07T08:47:00.000Z</time>
      </trkpt>
      <trkpt lat="43.747" lon="6.33154">
        <ele>829.5</ele>
        <time>2021-09-07T08:47:00.000Z</time>
      </trkpt>
      <trkpt lat="43.74701" lon="6.33147">
        <ele>829.6</ele>
        <time>2021-09-07T08:47:01.000Z</time>
      </trkpt>
      <trkpt lat="43.74711" lon="6.33084">
        <ele>828.7</ele>
        <time>2021-09-07T08:47:06.000Z</time>
      </trkpt>
      <trkpt lat="43.74732" lon="6.33062">
        <ele>828.5</ele>
        <time>2021-09-07T08:47:11.000Z</time>
      </trkpt>
      <trkpt lat="43.74748" lon="6.33031">
        <ele>827.9</ele>
        <time>2021-09-07T08:47:16.000Z</time>
      </trkpt>
      <trkpt lat="43.74752" lon="6.32995">
        <ele>827.4</ele>
        <time>2021-09-07T08:47:21.000Z</time>
      </trkpt>
      <trkpt lat="43.74752" lon="6.32954">
        <ele>826.5</ele>
        <time>2021-09-07T08:47:26.000Z</time>
      </trkpt>
      <trkpt lat="43.74763" lon="6.32918">
        <ele>826.2</ele>
        <time>2021-09-07T08:47:31.000Z</time>
      </trkpt>
      <trkpt lat="43.74788" lon="6.32891">
        <ele>825.4</ele>
        <time>2021-09-07T08:47:36.000Z</time>
      </trkpt>
      <trkpt lat="43.74808" lon="6.32857">
        <ele>825.1</ele>
        <time>2021-09-07T08:47:41.000Z</time>
      </trkpt>
      <trkpt lat="43.74831" lon="6.32837">
        <ele>824.9</ele>
        <time>2021-09-07T08:47:46.000Z</time>
      </trkpt>
      <trkpt lat="43.7486" lon="6.32848">
        <ele>825.4</ele>
        <time>2021-09-07T08:47:51.000Z</time>
      </trkpt>
      <trkpt lat="43.74888" lon="6.32867">
        <ele>825.2</ele>
        <time>2021-09-07T08:47:56.000Z</time>
      </trkpt>
      <trkpt lat="43.74909" lon="6.32883">
        <ele>825.5</ele>
        <time>2021-09-07T08:48:01.000Z</time>
      </trkpt>
      <trkpt lat="43.74926" lon="6.32896">
        <ele>826.4</ele>
        <time>2021-09-07T08:48:06.000Z</time>
      </trkpt>
      <trkpt lat="43.7494" lon="6.32906">
        <ele>827.4</ele>
        <time>2021-09-07T08:48:11.000Z</time>
      </trkpt>
      <trkpt lat="43.74954" lon="6.32915">
        <ele>828.5</ele>
        <time>2021-09-07T08:48:18.000Z</time>
      </trkpt>
      <trkpt lat="43.74961" lon="6.32917">
        <ele>828.6</ele>
        <time>2021-09-07T08:48:18.000Z</time>
      </trkpt>
      <trkpt lat="43.74964" lon="6.32919">
        <ele>829.1</ele>
        <time>2021-09-07T08:48:19.000Z</time>
      </trkpt>
      <trkpt lat="43.74963" lon="6.32918">
        <ele>828.9</ele>
        <time>2021-09-07T08:48:21.000Z</time>
      </trkpt>
      <trkpt lat="43.74966" lon="6.3292">
        <ele>829.1</ele>
        <time>2021-09-07T08:48:22.000Z</time>
      </trkpt>
      <trkpt lat="43.74973" lon="6.32925">
        <ele>829.4</ele>
        <time>2021-09-07T08:48:23.000Z</time>
      </trkpt>
      <trkpt lat="43.74977" lon="6.32928">
        <ele>829.9</ele>
        <time>2021-09-07T08:48:25.000Z</time>
      </trkpt>
      <trkpt lat="43.7498" lon="6.3293">
        <ele>830.6</ele>
        <time>2021-09-07T08:48:26.000Z</time>
      </trkpt>
      <trkpt lat="43.74974" lon="6.32927">
        <ele>829.7</ele>
        <time>2021-09-07T08:48:26.000Z</time>
      </trkpt>
      <trkpt lat="43.74986" lon="6.32933">
        <ele>830.6</ele>
        <time>2021-09-07T08:48:28.000Z</time>
      </trkpt>
      <trkpt lat="43.74979" lon="6.32929">
        <ele>830.3</ele>
        <time>2021-09-07T08:48:28.000Z</time>
      </trkpt>
      <trkpt lat="43.74983" lon="6.32931">
        <ele>830.5</ele>
        <time>2021-09-07T08:48:29.000Z</time>
      </trkpt>
      <trkpt lat="43.74988" lon="6.32934">
        <ele>830.5</ele>
        <time>2021-09-07T08:48:31.000Z</time>
      </trkpt>
      <trkpt lat="43.74994" lon="6.32938">
        <ele>831</ele>
        <time>2021-09-07T08:48:31.000Z</time>
      </trkpt>
      <trkpt lat="43.74998" lon="6.3294">
        <ele>831.1</ele>
        <time>2021-09-07T08:48:32.000Z</time>
      </trkpt>
      <trkpt lat="43.75001" lon="6.32942">
        <ele>831.3</ele>
        <time>2021-09-07T08:48:33.000Z</time>
      </trkpt>
      <trkpt lat="43.75004" lon="6.32943">
        <ele>831.6</ele>
        <time>2021-09-07T08:48:34.000Z</time>
      </trkpt>
      <trkpt lat="43.74995" lon="6.32939">
        <ele>831.1</ele>
        <time>2021-09-07T08:48:34.000Z</time>
      </trkpt>
      <trkpt lat="43.75007" lon="6.32943">
        <ele>831.7</ele>
        <time>2021-09-07T08:48:35.000Z</time>
      </trkpt>
      <trkpt lat="43.75" lon="6.32942">
        <ele>831.3</ele>
        <time>2021-09-07T08:48:35.000Z</time>
      </trkpt>
      <trkpt lat="43.75003" lon="6.32943">
        <ele>831.7</ele>
        <time>2021-09-07T08:48:36.000Z</time>
      </trkpt>
      <trkpt lat="43.7501" lon="6.32944">
        <ele>832</ele>
        <time>2021-09-07T08:48:36.000Z</time>
      </trkpt>
      <trkpt lat="43.75016" lon="6.32946">
        <ele>832.3</ele>
        <time>2021-09-07T08:48:38.000Z</time>
      </trkpt>
      <trkpt lat="43.75012" lon="6.32944">
        <ele>832</ele>
        <time>2021-09-07T08:48:39.000Z</time>
      </trkpt>
      <trkpt lat="43.7502" lon="6.32949">
        <ele>832.6</ele>
        <time>2021-09-07T08:48:40.000Z</time>
      </trkpt>
      <trkpt lat="43.75018" lon="6.32947">
        <ele>832.6</ele>
        <time>2021-09-07T08:48:41.000Z</time>
      </trkpt>
      <trkpt lat="43.75021" lon="6.3295">
        <ele>832.7</ele>
        <time>2021-09-07T08:48:43.000Z</time>
      </trkpt>
      <trkpt lat="43.7503" lon="6.32959">
        <ele>833</ele>
        <time>2021-09-07T08:48:44.000Z</time>
      </trkpt>
      <trkpt lat="43.75031" lon="6.32962">
        <ele>833.3</ele>
        <time>2021-09-07T08:48:45.000Z</time>
      </trkpt>
      <trkpt lat="43.7503" lon="6.3296">
        <ele>833.1</ele>
        <time>2021-09-07T08:48:47.000Z</time>
      </trkpt>
      <trkpt lat="43.75032" lon="6.32963">
        <ele>833.5</ele>
        <time>2021-09-07T08:48:48.000Z</time>
      </trkpt>
      <trkpt lat="43.7504" lon="6.32973">
        <ele>834.5</ele>
        <time>2021-09-07T08:48:49.000Z</time>
      </trkpt>
      <trkpt lat="43.75043" lon="6.32978">
        <ele>835.1</ele>
        <time>2021-09-07T08:48:51.000Z</time>
      </trkpt>
      <trkpt lat="43.75041" lon="6.32975">
        <ele>834.7</ele>
        <time>2021-09-07T08:48:52.000Z</time>
      </trkpt>
      <trkpt lat="43.75044" lon="6.32979">
        <ele>835.2</ele>
        <time>2021-09-07T08:48:54.000Z</time>
      </trkpt>
      <trkpt lat="43.7505" lon="6.32989">
        <ele>835.3</ele>
        <time>2021-09-07T08:48:55.000Z</time>
      </trkpt>
      <trkpt lat="43.75051" lon="6.32992">
        <ele>836.1</ele>
        <time>2021-09-07T08:48:56.000Z</time>
      </trkpt>
      <trkpt lat="43.75051" lon="6.32991">
        <ele>835.7</ele>
        <time>2021-09-07T08:48:58.000Z</time>
      </trkpt>
      <trkpt lat="43.7516" lon="6.33042">
        <ele>841.1</ele>
        <time>2021-09-07T08:49:47.000Z</time>
      </trkpt>
      <trkpt lat="43.75163" lon="6.33033">
        <ele>840.8</ele>
        <time>2021-09-07T08:49:49.000Z</time>
      </trkpt>
      <trkpt lat="43.75163" lon="6.33028">
        <ele>840.9</ele>
        <time>2021-09-07T08:49:50.000Z</time>
      </trkpt>
      <trkpt lat="43.7516" lon="6.33019">
        <ele>841.4</ele>
        <time>2021-09-07T08:49:52.000Z</time>
      </trkpt>
      <trkpt lat="43.75158" lon="6.33016">
        <ele>841.6</ele>
        <time>2021-09-07T08:49:53.000Z</time>
      </trkpt>
      <trkpt lat="43.75154" lon="6.33007">
        <ele>841.8</ele>
        <time>2021-09-07T08:49:55.000Z</time>
      </trkpt>
      <trkpt lat="43.75153" lon="6.33004">
        <ele>841.8</ele>
        <time>2021-09-07T08:49:58.000Z</time>
      </trkpt>
      <trkpt lat="43.75149" lon="6.32995">
        <ele>841.9</ele>
        <time>2021-09-07T08:49:58.000Z</time>
      </trkpt>
      <trkpt lat="43.75146" lon="6.32987">
        <ele>842.5</ele>
        <time>2021-09-07T08:50:00.000Z</time>
      </trkpt>
      <trkpt lat="43.75149" lon="6.32994">
        <ele>842.1</ele>
        <time>2021-09-07T08:50:01.000Z</time>
      </trkpt>
      <trkpt lat="43.75145" lon="6.32984">
        <ele>842.5</ele>
        <time>2021-09-07T08:50:03.000Z</time>
      </trkpt>
      <trkpt lat="43.75143" lon="6.32971">
        <ele>843.3</ele>
        <time>2021-09-07T08:50:04.000Z</time>
      </trkpt>
      <trkpt lat="43.75143" lon="6.32968">
        <ele>843.4</ele>
        <time>2021-09-07T08:50:07.000Z</time>
      </trkpt>
      <trkpt lat="43.75143" lon="6.32956">
        <ele>844.1</ele>
        <time>2021-09-07T08:50:08.000Z</time>
      </trkpt>
      <trkpt lat="43.75143" lon="6.32952">
        <ele>844.2</ele>
        <time>2021-09-07T08:50:09.000Z</time>
      </trkpt>
      <trkpt lat="43.75144" lon="6.32948">
        <ele>844.4</ele>
        <time>2021-09-07T08:50:10.000Z</time>
      </trkpt>
      <trkpt lat="43.75143" lon="6.32954">
        <ele>844.2</ele>
        <time>2021-09-07T08:50:11.000Z</time>
      </trkpt>
      <trkpt lat="43.75145" lon="6.32944">
        <ele>844.4</ele>
        <time>2021-09-07T08:50:11.000Z</time>
      </trkpt>
      <trkpt lat="43.75145" lon="6.32941">
        <ele>844.2</ele>
        <time>2021-09-07T08:50:12.000Z</time>
      </trkpt>
      <trkpt lat="43.75146" lon="6.32937">
        <ele>844.3</ele>
        <time>2021-09-07T08:50:13.000Z</time>
      </trkpt>
      <trkpt lat="43.75146" lon="6.32933">
        <ele>844.4</ele>
        <time>2021-09-07T08:50:14.000Z</time>
      </trkpt>
      <trkpt lat="43.7515" lon="6.32919">
        <ele>845.3</ele>
        <time>2021-09-07T08:50:18.000Z</time>
      </trkpt>
      <trkpt lat="43.75149" lon="6.32924">
        <ele>845</ele>
        <time>2021-09-07T08:50:19.000Z</time>
      </trkpt>
      <trkpt lat="43.75151" lon="6.32916">
        <ele>845.9</ele>
        <time>2021-09-07T08:50:19.000Z</time>
      </trkpt>
      <trkpt lat="43.75152" lon="6.32909">
        <ele>846</ele>
        <time>2021-09-07T08:50:21.000Z</time>
      </trkpt>
      <trkpt lat="43.75153" lon="6.32906">
        <ele>846.2</ele>
        <time>2021-09-07T08:50:22.000Z</time>
      </trkpt>
      <trkpt lat="43.75154" lon="6.329">
        <ele>846.6</ele>
        <time>2021-09-07T08:50:24.000Z</time>
      </trkpt>
      <trkpt lat="43.75153" lon="6.32907">
        <ele>846.2</ele>
        <time>2021-09-07T08:50:24.000Z</time>
      </trkpt>
      <trkpt lat="43.75153" lon="6.32904">
        <ele>846.3</ele>
        <time>2021-09-07T08:50:25.000Z</time>
      </trkpt>
      <trkpt lat="43.75157" lon="6.32895">
        <ele>846.8</ele>
        <time>2021-09-07T08:50:26.000Z</time>
      </trkpt>
      <trkpt lat="43.75156" lon="6.32898">
        <ele>846.6</ele>
        <time>2021-09-07T08:50:27.000Z</time>
      </trkpt>
      <trkpt lat="43.75161" lon="6.32889">
        <ele>847</ele>
        <time>2021-09-07T08:50:28.000Z</time>
      </trkpt>
      <trkpt lat="43.75159" lon="6.32892">
        <ele>846.9</ele>
        <time>2021-09-07T08:50:29.000Z</time>
      </trkpt>
      <trkpt lat="43.75165" lon="6.32882">
        <ele>847.3</ele>
        <time>2021-09-07T08:50:30.000Z</time>
      </trkpt>
      <trkpt lat="43.75163" lon="6.32886">
        <ele>847.1</ele>
        <time>2021-09-07T08:50:31.000Z</time>
      </trkpt>
      <trkpt lat="43.75166" lon="6.32878">
        <ele>847.4</ele>
        <time>2021-09-07T08:50:31.000Z</time>
      </trkpt>
      <trkpt lat="43.75167" lon="6.32874">
        <ele>847.5</ele>
        <time>2021-09-07T08:50:32.000Z</time>
      </trkpt>
      <trkpt lat="43.75169" lon="6.3287">
        <ele>847.9</ele>
        <time>2021-09-07T08:50:33.000Z</time>
      </trkpt>
      <trkpt lat="43.7517" lon="6.32866">
        <ele>848.6</ele>
        <time>2021-09-07T08:50:34.000Z</time>
      </trkpt>
      <trkpt lat="43.75168" lon="6.32872">
        <ele>847.7</ele>
        <time>2021-09-07T08:50:35.000Z</time>
      </trkpt>
      <trkpt lat="43.75169" lon="6.32867">
        <ele>848.2</ele>
        <time>2021-09-07T08:50:36.000Z</time>
      </trkpt>
      <trkpt lat="43.75171" lon="6.32864">
        <ele>848.8</ele>
        <time>2021-09-07T08:50:37.000Z</time>
      </trkpt>
      <trkpt lat="43.75176" lon="6.32852">
        <ele>849.4</ele>
        <time>2021-09-07T08:50:38.000Z</time>
      </trkpt>
      <trkpt lat="43.75177" lon="6.32849">
        <ele>849.3</ele>
        <time>2021-09-07T08:50:39.000Z</time>
      </trkpt>
      <trkpt lat="43.75179" lon="6.32846">
        <ele>849.3</ele>
        <time>2021-09-07T08:50:40.000Z</time>
      </trkpt>
      <trkpt lat="43.75181" lon="6.32843">
        <ele>849.6</ele>
        <time>2021-09-07T08:50:41.000Z</time>
      </trkpt>
      <trkpt lat="43.75177" lon="6.3285">
        <ele>849.3</ele>
        <time>2021-09-07T08:50:41.000Z</time>
      </trkpt>
      <trkpt lat="43.75178" lon="6.32846">
        <ele>849.3</ele>
        <time>2021-09-07T08:50:42.000Z</time>
      </trkpt>
      <trkpt lat="43.75188" lon="6.32835">
        <ele>849.9</ele>
        <time>2021-09-07T08:50:44.000Z</time>
      </trkpt>
      <trkpt lat="43.7519" lon="6.32833">
        <ele>850.2</ele>
        <time>2021-09-07T08:50:45.000Z</time>
      </trkpt>
      <trkpt lat="43.75196" lon="6.32831">
        <ele>850.5</ele>
        <time>2021-09-07T08:50:47.000Z</time>
      </trkpt>
      <trkpt lat="43.75202" lon="6.32829">
        <ele>850.7</ele>
        <time>2021-09-07T08:50:49.000Z</time>
      </trkpt>
      <trkpt lat="43.75197" lon="6.3283">
        <ele>850.5</ele>
        <time>2021-09-07T08:50:50.000Z</time>
      </trkpt>
      <trkpt lat="43.75204" lon="6.32829">
        <ele>850.7</ele>
        <time>2021-09-07T08:50:52.000Z</time>
      </trkpt>
      <trkpt lat="43.75214" lon="6.3283">
        <ele>851.2</ele>
        <time>2021-09-07T08:50:53.000Z</time>
      </trkpt>
      <trkpt lat="43.75218" lon="6.3283">
        <ele>851.3</ele>
        <time>2021-09-07T08:50:54.000Z</time>
      </trkpt>
      <trkpt lat="43.75221" lon="6.32831">
        <ele>850.9</ele>
        <time>2021-09-07T08:50:55.000Z</time>
      </trkpt>
      <trkpt lat="43.75217" lon="6.3283">
        <ele>851.3</ele>
        <time>2021-09-07T08:50:56.000Z</time>
      </trkpt>
      <trkpt lat="43.75228" lon="6.32833">
        <ele>851.3</ele>
        <time>2021-09-07T08:50:57.000Z</time>
      </trkpt>
      <trkpt lat="43.7522" lon="6.32831">
        <ele>851</ele>
        <time>2021-09-07T08:50:57.000Z</time>
      </trkpt>
      <trkpt lat="43.75232" lon="6.32834">
        <ele>851.7</ele>
        <time>2021-09-07T08:50:58.000Z</time>
      </trkpt>
      <trkpt lat="43.75224" lon="6.32832">
        <ele>850.9</ele>
        <time>2021-09-07T08:50:58.000Z</time>
      </trkpt>
      <trkpt lat="43.75235" lon="6.32834">
        <ele>851.6</ele>
        <time>2021-09-07T08:50:59.000Z</time>
      </trkpt>
      <trkpt lat="43.7523" lon="6.32834">
        <ele>851.5</ele>
        <time>2021-09-07T08:51:00.000Z</time>
      </trkpt>
      <trkpt lat="43.75241" lon="6.32835">
        <ele>851.7</ele>
        <time>2021-09-07T08:51:01.000Z</time>
      </trkpt>
      <trkpt lat="43.75234" lon="6.32834">
        <ele>851.6</ele>
        <time>2021-09-07T08:51:01.000Z</time>
      </trkpt>
      <trkpt lat="43.75237" lon="6.32834">
        <ele>851.5</ele>
        <time>2021-09-07T08:51:02.000Z</time>
      </trkpt>
      <trkpt lat="43.75248" lon="6.32836">
        <ele>851.8</ele>
        <time>2021-09-07T08:51:03.000Z</time>
      </trkpt>
      <trkpt lat="43.75252" lon="6.32838">
        <ele>852.1</ele>
        <time>2021-09-07T08:51:04.000Z</time>
      </trkpt>
      <trkpt lat="43.75243" lon="6.32836">
        <ele>851.7</ele>
        <time>2021-09-07T08:51:04.000Z</time>
      </trkpt>
      <trkpt lat="43.7526" lon="6.3284">
        <ele>852.1</ele>
        <time>2021-09-07T08:51:06.000Z</time>
      </trkpt>
      <trkpt lat="43.75251" lon="6.32837">
        <ele>852</ele>
        <time>2021-09-07T08:51:06.000Z</time>
      </trkpt>
      <trkpt lat="43.75255" lon="6.32839">
        <ele>852.1</ele>
        <time>2021-09-07T08:51:07.000Z</time>
      </trkpt>
      <trkpt lat="43.75267" lon="6.32841">
        <ele>852.3</ele>
        <time>2021-09-07T08:51:08.000Z</time>
      </trkpt>
      <trkpt lat="43.75264" lon="6.32841">
        <ele>852</ele>
        <time>2021-09-07T08:51:09.000Z</time>
      </trkpt>
      <trkpt lat="43.75269" lon="6.32841">
        <ele>852.4</ele>
        <time>2021-09-07T08:51:11.000Z</time>
      </trkpt>
      <trkpt lat="43.75276" lon="6.32842">
        <ele>852.5</ele>
        <time>2021-09-07T08:51:11.000Z</time>
      </trkpt>
      <trkpt lat="43.75279" lon="6.32841">
        <ele>852.6</ele>
        <time>2021-09-07T08:51:12.000Z</time>
      </trkpt>
      <trkpt lat="43.75282" lon="6.3284">
        <ele>852.6</ele>
        <time>2021-09-07T08:51:13.000Z</time>
      </trkpt>
      <trkpt lat="43.75285" lon="6.32841">
        <ele>852.9</ele>
        <time>2021-09-07T08:51:14.000Z</time>
      </trkpt>
      <trkpt lat="43.75278" lon="6.32841">
        <ele>852.6</ele>
        <time>2021-09-07T08:51:14.000Z</time>
      </trkpt>
      <trkpt lat="43.75281" lon="6.3284">
        <ele>852.6</ele>
        <time>2021-09-07T08:51:15.000Z</time>
      </trkpt>
      <trkpt lat="43.75295" lon="6.32842">
        <ele>853.3</ele>
        <time>2021-09-07T08:51:17.000Z</time>
      </trkpt>
      <trkpt lat="43.75297" lon="6.32843">
        <ele>853.4</ele>
        <time>2021-09-07T08:51:20.000Z</time>
      </trkpt>
      <trkpt lat="43.75304" lon="6.32844">
        <ele>853.6</ele>
        <time>2021-09-07T08:51:20.000Z</time>
      </trkpt>
      <trkpt lat="43.75306" lon="6.32843">
        <ele>853.7</ele>
        <time>2021-09-07T08:51:23.000Z</time>
      </trkpt>
      <trkpt lat="43.75313" lon="6.32842">
        <ele>854.1</ele>
        <time>2021-09-07T08:51:23.000Z</time>
      </trkpt>
      <trkpt lat="43.75316" lon="6.32842">
        <ele>854.2</ele>
        <time>2021-09-07T08:51:26.000Z</time>
      </trkpt>
      <trkpt lat="43.75325" lon="6.32836">
        <ele>854</ele>
        <time>2021-09-07T08:51:27.000Z</time>
      </trkpt>
      <trkpt lat="43.75328" lon="6.32833">
        <ele>854.1</ele>
        <time>2021-09-07T08:51:28.000Z</time>
      </trkpt>
      <trkpt lat="43.7533" lon="6.3283">
        <ele>854</ele>
        <time>2021-09-07T08:51:29.000Z</time>
      </trkpt>
      <trkpt lat="43.75326" lon="6.32834">
        <ele>854</ele>
        <time>2021-09-07T08:51:30.000Z</time>
      </trkpt>
      <trkpt lat="43.75332" lon="6.32821">
        <ele>853.9</ele>
        <time>2021-09-07T08:51:31.000Z</time>
      </trkpt>
      <trkpt lat="43.7533" lon="6.32831">
        <ele>854</ele>
        <time>2021-09-07T08:51:31.000Z</time>
      </trkpt>
      <trkpt lat="43.75333" lon="6.32817">
        <ele>853.9</ele>
        <time>2021-09-07T08:51:32.000Z</time>
      </trkpt>
      <trkpt lat="43.75331" lon="6.32827">
        <ele>854.1</ele>
        <time>2021-09-07T08:51:32.000Z</time>
      </trkpt>
      <trkpt lat="43.75333" lon="6.32813">
        <ele>854.2</ele>
        <time>2021-09-07T08:51:33.000Z</time>
      </trkpt>
      <trkpt lat="43.75334" lon="6.32808">
        <ele>854.2</ele>
        <time>2021-09-07T08:51:34.000Z</time>
      </trkpt>
      <trkpt lat="43.75332" lon="6.32819">
        <ele>853.9</ele>
        <time>2021-09-07T08:51:34.000Z</time>
      </trkpt>
      <trkpt lat="43.75333" lon="6.32814">
        <ele>854.1</ele>
        <time>2021-09-07T08:51:35.000Z</time>
      </trkpt>
      <trkpt lat="43.75334" lon="6.3281">
        <ele>854.2</ele>
        <time>2021-09-07T08:51:36.000Z</time>
      </trkpt>
      <trkpt lat="43.75334" lon="6.32805">
        <ele>854.4</ele>
        <time>2021-09-07T08:51:37.000Z</time>
      </trkpt>
      <trkpt lat="43.75336" lon="6.32785">
        <ele>854.5</ele>
        <time>2021-09-07T08:51:38.000Z</time>
      </trkpt>
      <trkpt lat="43.75337" lon="6.32778">
        <ele>854.4</ele>
        <time>2021-09-07T08:51:39.000Z</time>
      </trkpt>
      <trkpt lat="43.75338" lon="6.32766">
        <ele>854.4</ele>
        <time>2021-09-07T08:51:41.000Z</time>
      </trkpt>
      <trkpt lat="43.75337" lon="6.3278">
        <ele>854.5</ele>
        <time>2021-09-07T08:51:41.000Z</time>
      </trkpt>
      <trkpt lat="43.75337" lon="6.32773">
        <ele>854.3</ele>
        <time>2021-09-07T08:51:42.000Z</time>
      </trkpt>
      <trkpt lat="43.75338" lon="6.32754">
        <ele>854.3</ele>
        <time>2021-09-07T08:51:43.000Z</time>
      </trkpt>
      <trkpt lat="43.75339" lon="6.32748">
        <ele>854.4</ele>
        <time>2021-09-07T08:51:44.000Z</time>
      </trkpt>
      <trkpt lat="43.75338" lon="6.32761">
        <ele>854.3</ele>
        <time>2021-09-07T08:51:44.000Z</time>
      </trkpt>
      <trkpt lat="43.7534" lon="6.32744">
        <ele>854.5</ele>
        <time>2021-09-07T08:51:45.000Z</time>
      </trkpt>
      <trkpt lat="43.75338" lon="6.32751">
        <ele>854.3</ele>
        <time>2021-09-07T08:51:46.000Z</time>
      </trkpt>
      <trkpt lat="43.75341" lon="6.32738">
        <ele>854.2</ele>
        <time>2021-09-07T08:51:46.000Z</time>
      </trkpt>
      <trkpt lat="43.75342" lon="6.32726">
        <ele>854</ele>
        <time>2021-09-07T08:51:48.000Z</time>
      </trkpt>
      <trkpt lat="43.75341" lon="6.32732">
        <ele>854</ele>
        <time>2021-09-07T08:51:49.000Z</time>
      </trkpt>
      <trkpt lat="43.75341" lon="6.32732">
        <ele>854</ele>
        <time>2021-09-07T08:51:49.000Z</time>
      </trkpt>
      <trkpt lat="43.75344" lon="6.32716">
        <ele>854</ele>
        <time>2021-09-07T08:51:50.000Z</time>
      </trkpt>
      <trkpt lat="43.75343" lon="6.32722">
        <ele>854</ele>
        <time>2021-09-07T08:51:51.000Z</time>
      </trkpt>
      <trkpt lat="43.75354" lon="6.32691">
        <ele>854</ele>
        <time>2021-09-07T08:51:55.000Z</time>
      </trkpt>
      <trkpt lat="43.7535" lon="6.32697">
        <ele>853.9</ele>
        <time>2021-09-07T08:51:56.000Z</time>
      </trkpt>
      <trkpt lat="43.75357" lon="6.32689">
        <ele>854.1</ele>
        <time>2021-09-07T08:51:58.000Z</time>
      </trkpt>
      <trkpt lat="43.75365" lon="6.32688">
        <ele>854.3</ele>
        <time>2021-09-07T08:51:58.000Z</time>
      </trkpt>
      <trkpt lat="43.75369" lon="6.32687">
        <ele>854.4</ele>
        <time>2021-09-07T08:51:59.000Z</time>
      </trkpt>
      <trkpt lat="43.75367" lon="6.32688">
        <ele>854.3</ele>
        <time>2021-09-07T08:52:01.000Z</time>
      </trkpt>
      <trkpt lat="43.75372" lon="6.32686">
        <ele>854.3</ele>
        <time>2021-09-07T08:52:02.000Z</time>
      </trkpt>
      <trkpt lat="43.75389" lon="6.32687">
        <ele>854.1</ele>
        <time>2021-09-07T08:52:04.000Z</time>
      </trkpt>
      <trkpt lat="43.75393" lon="6.32687">
        <ele>854.1</ele>
        <time>2021-09-07T08:52:07.000Z</time>
      </trkpt>
      <trkpt lat="43.75404" lon="6.32683">
        <ele>853.9</ele>
        <time>2021-09-07T08:52:08.000Z</time>
      </trkpt>
      <trkpt lat="43.75411" lon="6.32675">
        <ele>853.8</ele>
        <time>2021-09-07T08:52:10.000Z</time>
      </trkpt>
      <trkpt lat="43.75406" lon="6.32681">
        <ele>853.8</ele>
        <time>2021-09-07T08:52:11.000Z</time>
      </trkpt>
      <trkpt lat="43.75413" lon="6.32672">
        <ele>853.9</ele>
        <time>2021-09-07T08:52:13.000Z</time>
      </trkpt>
      <trkpt lat="43.7542" lon="6.32653">
        <ele>853.3</ele>
        <time>2021-09-07T08:52:14.000Z</time>
      </trkpt>
      <trkpt lat="43.75421" lon="6.3265">
        <ele>853.1</ele>
        <time>2021-09-07T08:52:17.000Z</time>
      </trkpt>
      <trkpt lat="43.75418" lon="6.32614">
        <ele>852.2</ele>
        <time>2021-09-07T08:52:18.000Z</time>
      </trkpt>
      <trkpt lat="43.75419" lon="6.32604">
        <ele>851.3</ele>
        <time>2021-09-07T08:52:19.000Z</time>
      </trkpt>
      <trkpt lat="43.75438" lon="6.32573">
        <ele>849.9</ele>
        <time>2021-09-07T08:52:24.000Z</time>
      </trkpt>
      <trkpt lat="43.75471" lon="6.3256">
        <ele>847.8</ele>
        <time>2021-09-07T08:52:29.000Z</time>
      </trkpt>
      <trkpt lat="43.75506" lon="6.32545">
        <ele>845.5</ele>
        <time>2021-09-07T08:52:34.000Z</time>
      </trkpt>
      <trkpt lat="43.75535" lon="6.32507">
        <ele>842.2</ele>
        <time>2021-09-07T08:52:39.000Z</time>
      </trkpt>
      <trkpt lat="43.75567" lon="6.32465">
        <ele>839.5</ele>
        <time>2021-09-07T08:52:44.000Z</time>
      </trkpt>
      <trkpt lat="43.75601" lon="6.32423">
        <ele>836.7</ele>
        <time>2021-09-07T08:52:49.000Z</time>
      </trkpt>
      <trkpt lat="43.75598" lon="6.3236">
        <ele>834.3</ele>
        <time>2021-09-07T08:52:54.000Z</time>
      </trkpt>
      <trkpt lat="43.75608" lon="6.32295">
        <ele>831.9</ele>
        <time>2021-09-07T08:52:59.000Z</time>
      </trkpt>
      <trkpt lat="43.75603" lon="6.32232">
        <ele>829.7</ele>
        <time>2021-09-07T08:53:04.000Z</time>
      </trkpt>
      <trkpt lat="43.75608" lon="6.32167">
        <ele>828.4</ele>
        <time>2021-09-07T08:53:09.000Z</time>
      </trkpt>
      <trkpt lat="43.7561" lon="6.32105">
        <ele>826.8</ele>
        <time>2021-09-07T08:53:14.000Z</time>
      </trkpt>
      <trkpt lat="43.75599" lon="6.32061">
        <ele>825</ele>
        <time>2021-09-07T08:53:19.000Z</time>
      </trkpt>
      <trkpt lat="43.7559" lon="6.32044">
        <ele>823.9</ele>
        <time>2021-09-07T08:53:24.000Z</time>
      </trkpt>
      <trkpt lat="43.75588" lon="6.32044">
        <ele>823.8</ele>
        <time>2021-09-07T08:53:31.000Z</time>
      </trkpt>
      <trkpt lat="43.75588" lon="6.32043">
        <ele>823.7</ele>
        <time>2021-09-07T08:53:32.000Z</time>
      </trkpt>
      <trkpt lat="43.75589" lon="6.32043">
        <ele>823.7</ele>
        <time>2021-09-07T08:53:33.000Z</time>
      </trkpt>
      <trkpt lat="43.75588" lon="6.32045">
        <ele>823.5</ele>
        <time>2021-09-07T08:53:35.000Z</time>
      </trkpt>
      <trkpt lat="43.75588" lon="6.32045">
        <ele>823.5</ele>
        <time>2021-09-07T08:53:37.000Z</time>
      </trkpt>
      <trkpt lat="43.75588" lon="6.32045">
        <ele>823.8</ele>
        <time>2021-09-07T08:53:42.000Z</time>
      </trkpt>
      <trkpt lat="43.75588" lon="6.32045">
        <ele>823.8</ele>
        <time>2021-09-07T08:53:47.000Z</time>
      </trkpt>
      <trkpt lat="43.75588" lon="6.32045">
        <ele>823.6</ele>
        <time>2021-09-07T08:53:52.000Z</time>
      </trkpt>
      <trkpt lat="43.75588" lon="6.32044">
        <ele>823.7</ele>
        <time>2021-09-07T08:53:53.000Z</time>
      </trkpt>
      <trkpt lat="43.75588" lon="6.32044">
        <ele>823.7</ele>
        <time>2021-09-07T08:53:55.000Z</time>
      </trkpt>
      <trkpt lat="43.75588" lon="6.32044">
        <ele>823.5</ele>
        <time>2021-09-07T08:54:00.000Z</time>
      </trkpt>
      <trkpt lat="43.75588" lon="6.32044">
        <ele>823.4</ele>
        <time>2021-09-07T08:54:05.000Z</time>
      </trkpt>
      <trkpt lat="43.75588" lon="6.32044">
        <ele>823.7</ele>
        <time>2021-09-07T08:54:10.000Z</time>
      </trkpt>
      <trkpt lat="43.75588" lon="6.32044">
        <ele>823.8</ele>
        <time>2021-09-07T08:54:15.000Z</time>
      </trkpt>
      <trkpt lat="43.75588" lon="6.32044">
        <ele>823.7</ele>
        <time>2021-09-07T08:54:20.000Z</time>
      </trkpt>
      <trkpt lat="43.75588" lon="6.32045">
        <ele>823.8</ele>
        <time>2021-09-07T08:54:24.000Z</time>
      </trkpt>
      <trkpt lat="43.75588" lon="6.32044">
        <ele>823.8</ele>
        <time>2021-09-07T08:54:25.000Z</time>
      </trkpt>
      <trkpt lat="43.75589" lon="6.32045">
        <ele>824</ele>
        <time>2021-09-07T08:54:30.000Z</time>
      </trkpt>
      <trkpt lat="43.75589" lon="6.32045">
        <ele>823.5</ele>
        <time>2021-09-07T08:54:31.000Z</time>
      </trkpt>
      <trkpt lat="43.75589" lon="6.32044">
        <ele>823.1</ele>
        <time>2021-09-07T08:54:32.000Z</time>
      </trkpt>
      <trkpt lat="43.75589" lon="6.32044">
        <ele>823</ele>
        <time>2021-09-07T08:54:34.000Z</time>
      </trkpt>
      <trkpt lat="43.75589" lon="6.32043">
        <ele>824.2</ele>
        <time>2021-09-07T08:54:41.000Z</time>
      </trkpt>
      <trkpt lat="43.75589" lon="6.32043">
        <ele>824.1</ele>
        <time>2021-09-07T08:54:47.000Z</time>
      </trkpt>
      <trkpt lat="43.75589" lon="6.32043">
        <ele>823.7</ele>
        <time>2021-09-07T08:54:52.000Z</time>
      </trkpt>
      <trkpt lat="43.75589" lon="6.32043">
        <ele>823.9</ele>
        <time>2021-09-07T08:54:57.000Z</time>
      </trkpt>
      <trkpt lat="43.75589" lon="6.32043">
        <ele>823.5</ele>
        <time>2021-09-07T08:55:00.000Z</time>
      </trkpt>
      <trkpt lat="43.75588" lon="6.32044">
        <ele>822.8</ele>
        <time>2021-09-07T08:55:05.000Z</time>
      </trkpt>
      <trkpt lat="43.75588" lon="6.32044">
        <ele>822.8</ele>
        <time>2021-09-07T08:55:05.000Z</time>
      </trkpt>
      <trkpt lat="43.75588" lon="6.32044">
        <ele>822.7</ele>
        <time>2021-09-07T08:55:06.000Z</time>
      </trkpt>
      <trkpt lat="43.75588" lon="6.32044">
        <ele>822.7</ele>
        <time>2021-09-07T08:55:07.000Z</time>
      </trkpt>
      <trkpt lat="43.75588" lon="6.32044">
        <ele>822.8</ele>
        <time>2021-09-07T08:55:10.000Z</time>
      </trkpt>
      <trkpt lat="43.75587" lon="6.32043">
        <ele>823.1</ele>
        <time>2021-09-07T08:55:13.000Z</time>
      </trkpt>
      <trkpt lat="43.75587" lon="6.3204">
        <ele>823.3</ele>
        <time>2021-09-07T08:55:13.000Z</time>
      </trkpt>
      <trkpt lat="43.75588" lon="6.32037">
        <ele>823.2</ele>
        <time>2021-09-07T08:55:14.000Z</time>
      </trkpt>
      <trkpt lat="43.75596" lon="6.32031">
        <ele>822.6</ele>
        <time>2021-09-07T08:55:16.000Z</time>
      </trkpt>
      <trkpt lat="43.75587" lon="6.32039">
        <ele>823.3</ele>
        <time>2021-09-07T08:55:16.000Z</time>
      </trkpt>
      <trkpt lat="43.7559" lon="6.32035">
        <ele>823</ele>
        <time>2021-09-07T08:55:17.000Z</time>
      </trkpt>
      <trkpt lat="43.75608" lon="6.32029">
        <ele>822.4</ele>
        <time>2021-09-07T08:55:18.000Z</time>
      </trkpt>
      <trkpt lat="43.75598" lon="6.3203">
        <ele>822.6</ele>
        <time>2021-09-07T08:55:19.000Z</time>
      </trkpt>
      <trkpt lat="43.75619" lon="6.32033">
        <ele>822.1</ele>
        <time>2021-09-07T08:55:19.000Z</time>
      </trkpt>
      <trkpt lat="43.75654" lon="6.32057">
        <ele>819.9</ele>
        <time>2021-09-07T08:55:24.000Z</time>
      </trkpt>
      <trkpt lat="43.75692" lon="6.32069">
        <ele>817.2</ele>
        <time>2021-09-07T08:55:29.000Z</time>
      </trkpt>
      <trkpt lat="43.7573" lon="6.32081">
        <ele>814</ele>
        <time>2021-09-07T08:55:34.000Z</time>
      </trkpt>
      <trkpt lat="43.75764" lon="6.32059">
        <ele>810.8</ele>
        <time>2021-09-07T08:55:39.000Z</time>
      </trkpt>
      <trkpt lat="43.75795" lon="6.32012">
        <ele>808.4</ele>
        <time>2021-09-07T08:55:44.000Z</time>
      </trkpt>
      <trkpt lat="43.7583" lon="6.31971">
        <ele>804.7</ele>
        <time>2021-09-07T08:55:49.000Z</time>
      </trkpt>
      <trkpt lat="43.75867" lon="6.31943">
        <ele>801.2</ele>
        <time>2021-09-07T08:55:54.000Z</time>
      </trkpt>
      <trkpt lat="43.75902" lon="6.31965">
        <ele>800.3</ele>
        <time>2021-09-07T08:55:59.000Z</time>
      </trkpt>
      <trkpt lat="43.75931" lon="6.31977">
        <ele>800.4</ele>
        <time>2021-09-07T08:56:04.000Z</time>
      </trkpt>
      <trkpt lat="43.75952" lon="6.31948">
        <ele>800.4</ele>
        <time>2021-09-07T08:56:09.000Z</time>
      </trkpt>
      <trkpt lat="43.7598" lon="6.31917">
        <ele>800.3</ele>
        <time>2021-09-07T08:56:14.000Z</time>
      </trkpt>
      <trkpt lat="43.75992" lon="6.31878">
        <ele>800</ele>
        <time>2021-09-07T08:56:19.000Z</time>
      </trkpt>
      <trkpt lat="43.75989" lon="6.31836">
        <ele>798.9</ele>
        <time>2021-09-07T08:56:24.000Z</time>
      </trkpt>
      <trkpt lat="43.75984" lon="6.31786">
        <ele>798.4</ele>
        <time>2021-09-07T08:56:29.000Z</time>
      </trkpt>
      <trkpt lat="43.75972" lon="6.31737">
        <ele>799.4</ele>
        <time>2021-09-07T08:56:34.000Z</time>
      </trkpt>
      <trkpt lat="43.75977" lon="6.31695">
        <ele>800</ele>
        <time>2021-09-07T08:56:39.000Z</time>
      </trkpt>
      <trkpt lat="43.75989" lon="6.3167">
        <ele>801.3</ele>
        <time>2021-09-07T08:56:44.000Z</time>
      </trkpt>
      <trkpt lat="43.75998" lon="6.31652">
        <ele>802</ele>
        <time>2021-09-07T08:56:49.000Z</time>
      </trkpt>
      <trkpt lat="43.76002" lon="6.31641">
        <ele>802</ele>
        <time>2021-09-07T08:56:52.000Z</time>
      </trkpt>
      <trkpt lat="43.76005" lon="6.31638">
        <ele>802.3</ele>
        <time>2021-09-07T08:56:53.000Z</time>
      </trkpt>
      <trkpt lat="43.76007" lon="6.31634">
        <ele>802.5</ele>
        <time>2021-09-07T08:56:54.000Z</time>
      </trkpt>
      <trkpt lat="43.76003" lon="6.3164">
        <ele>802.2</ele>
        <time>2021-09-07T08:56:55.000Z</time>
      </trkpt>
      <trkpt lat="43.76006" lon="6.31636">
        <ele>802.3</ele>
        <time>2021-09-07T08:56:56.000Z</time>
      </trkpt>
      <trkpt lat="43.76009" lon="6.31632">
        <ele>802.5</ele>
        <time>2021-09-07T08:56:57.000Z</time>
      </trkpt>
      <trkpt lat="43.76021" lon="6.31615">
        <ele>803.1</ele>
        <time>2021-09-07T08:56:59.000Z</time>
      </trkpt>
      <trkpt lat="43.76023" lon="6.31611">
        <ele>803.3</ele>
        <time>2021-09-07T08:57:00.000Z</time>
      </trkpt>
      <trkpt lat="43.76029" lon="6.31603">
        <ele>804</ele>
        <time>2021-09-07T08:57:03.000Z</time>
      </trkpt>
      <trkpt lat="43.76031" lon="6.31601">
        <ele>804.2</ele>
        <time>2021-09-07T08:57:04.000Z</time>
      </trkpt>
      <trkpt lat="43.76033" lon="6.31599">
        <ele>804.2</ele>
        <time>2021-09-07T08:57:05.000Z</time>
      </trkpt>
      <trkpt lat="43.76028" lon="6.31604">
        <ele>803.7</ele>
        <time>2021-09-07T08:57:05.000Z</time>
      </trkpt>
      <trkpt lat="43.7603" lon="6.31602">
        <ele>804.1</ele>
        <time>2021-09-07T08:57:06.000Z</time>
      </trkpt>
      <trkpt lat="43.76037" lon="6.31595">
        <ele>804.4</ele>
        <time>2021-09-07T08:57:07.000Z</time>
      </trkpt>
      <trkpt lat="43.76032" lon="6.316">
        <ele>804.2</ele>
        <time>2021-09-07T08:57:07.000Z</time>
      </trkpt>
      <trkpt lat="43.7604" lon="6.31595">
        <ele>804.6</ele>
        <time>2021-09-07T08:57:08.000Z</time>
      </trkpt>
      <trkpt lat="43.76035" lon="6.31598">
        <ele>804.2</ele>
        <time>2021-09-07T08:57:08.000Z</time>
      </trkpt>
      <trkpt lat="43.76042" lon="6.31595">
        <ele>804.9</ele>
        <time>2021-09-07T08:57:09.000Z</time>
      </trkpt>
      <trkpt lat="43.76039" lon="6.31595">
        <ele>804.4</ele>
        <time>2021-09-07T08:57:10.000Z</time>
      </trkpt>
      <trkpt lat="43.76041" lon="6.31595">
        <ele>804.8</ele>
        <time>2021-09-07T08:57:11.000Z</time>
      </trkpt>
      <trkpt lat="43.76044" lon="6.31596">
        <ele>804.9</ele>
        <time>2021-09-07T08:57:12.000Z</time>
      </trkpt>
      <trkpt lat="43.76051" lon="6.316">
        <ele>805.3</ele>
        <time>2021-09-07T08:57:12.000Z</time>
      </trkpt>
      <trkpt lat="43.76054" lon="6.31602">
        <ele>805.5</ele>
        <time>2021-09-07T08:57:13.000Z</time>
      </trkpt>
      <trkpt lat="43.76057" lon="6.31603">
        <ele>805.7</ele>
        <time>2021-09-07T08:57:14.000Z</time>
      </trkpt>
      <trkpt lat="43.76053" lon="6.31601">
        <ele>805.4</ele>
        <time>2021-09-07T08:57:15.000Z</time>
      </trkpt>
      <trkpt lat="43.76064" lon="6.31606">
        <ele>805.8</ele>
        <time>2021-09-07T08:57:16.000Z</time>
      </trkpt>
      <trkpt lat="43.76067" lon="6.31607">
        <ele>805.9</ele>
        <time>2021-09-07T08:57:17.000Z</time>
      </trkpt>
      <trkpt lat="43.76071" lon="6.31608">
        <ele>806.1</ele>
        <time>2021-09-07T08:57:18.000Z</time>
      </trkpt>
      <trkpt lat="43.76074" lon="6.31609">
        <ele>806</ele>
        <time>2021-09-07T08:57:19.000Z</time>
      </trkpt>
      <trkpt lat="43.76084" lon="6.31616">
        <ele>806.3</ele>
        <time>2021-09-07T08:57:22.000Z</time>
      </trkpt>
      <trkpt lat="43.76087" lon="6.31619">
        <ele>806.4</ele>
        <time>2021-09-07T08:57:23.000Z</time>
      </trkpt>
      <trkpt lat="43.76082" lon="6.31615">
        <ele>806.2</ele>
        <time>2021-09-07T08:57:24.000Z</time>
      </trkpt>
      <trkpt lat="43.76093" lon="6.31624">
        <ele>806.5</ele>
        <time>2021-09-07T08:57:25.000Z</time>
      </trkpt>
      <trkpt lat="43.76098" lon="6.31629">
        <ele>806.8</ele>
        <time>2021-09-07T08:57:27.000Z</time>
      </trkpt>
      <trkpt lat="43.76101" lon="6.31632">
        <ele>806.9</ele>
        <time>2021-09-07T08:57:28.000Z</time>
      </trkpt>
      <trkpt lat="43.76095" lon="6.31626">
        <ele>806.7</ele>
        <time>2021-09-07T08:57:28.000Z</time>
      </trkpt>
      <trkpt lat="43.76107" lon="6.31636">
        <ele>806.8</ele>
        <time>2021-09-07T08:57:30.000Z</time>
      </trkpt>
      <trkpt lat="43.76099" lon="6.31631">
        <ele>806.9</ele>
        <time>2021-09-07T08:57:30.000Z</time>
      </trkpt>
      <trkpt lat="43.76104" lon="6.31634">
        <ele>806.8</ele>
        <time>2021-09-07T08:57:31.000Z</time>
      </trkpt>
      <trkpt lat="43.76113" lon="6.31641">
        <ele>807.1</ele>
        <time>2021-09-07T08:57:32.000Z</time>
      </trkpt>
      <trkpt lat="43.7611" lon="6.31639">
        <ele>806.9</ele>
        <time>2021-09-07T08:57:33.000Z</time>
      </trkpt>
      <trkpt lat="43.76116" lon="6.31644">
        <ele>807</ele>
        <time>2021-09-07T08:57:35.000Z</time>
      </trkpt>
      <trkpt lat="43.76124" lon="6.31654">
        <ele>807.3</ele>
        <time>2021-09-07T08:57:36.000Z</time>
      </trkpt>
      <trkpt lat="43.76126" lon="6.31656">
        <ele>807.3</ele>
        <time>2021-09-07T08:57:39.000Z</time>
      </trkpt>
      <trkpt lat="43.76133" lon="6.31663">
        <ele>807.3</ele>
        <time>2021-09-07T08:57:39.000Z</time>
      </trkpt>
      <trkpt lat="43.76136" lon="6.31666">
        <ele>807.4</ele>
        <time>2021-09-07T08:57:40.000Z</time>
      </trkpt>
      <trkpt lat="43.76133" lon="6.31663">
        <ele>807.3</ele>
        <time>2021-09-07T08:57:42.000Z</time>
      </trkpt>
      <trkpt lat="43.76137" lon="6.31667">
        <ele>807.5</ele>
        <time>2021-09-07T08:57:43.000Z</time>
      </trkpt>
      <trkpt lat="43.76145" lon="6.31675">
        <ele>807.8</ele>
        <time>2021-09-07T08:57:43.000Z</time>
      </trkpt>
      <trkpt lat="43.76152" lon="6.31681">
        <ele>807.9</ele>
        <time>2021-09-07T08:57:45.000Z</time>
      </trkpt>
      <trkpt lat="43.76155" lon="6.31683">
        <ele>808.1</ele>
        <time>2021-09-07T08:57:46.000Z</time>
      </trkpt>
      <trkpt lat="43.76146" lon="6.31676">
        <ele>807.9</ele>
        <time>2021-09-07T08:57:46.000Z</time>
      </trkpt>
      <trkpt lat="43.76158" lon="6.31684">
        <ele>808.5</ele>
        <time>2021-09-07T08:57:47.000Z</time>
      </trkpt>
      <trkpt lat="43.76153" lon="6.31682">
        <ele>808</ele>
        <time>2021-09-07T08:57:48.000Z</time>
      </trkpt>
      <trkpt lat="43.76165" lon="6.31687">
        <ele>808.8</ele>
        <time>2021-09-07T08:57:49.000Z</time>
      </trkpt>
      <trkpt lat="43.76156" lon="6.31684">
        <ele>808.3</ele>
        <time>2021-09-07T08:57:49.000Z</time>
      </trkpt>
      <trkpt lat="43.76168" lon="6.31688">
        <ele>808.8</ele>
        <time>2021-09-07T08:57:50.000Z</time>
      </trkpt>
      <trkpt lat="43.76161" lon="6.31686">
        <ele>808.5</ele>
        <time>2021-09-07T08:57:50.000Z</time>
      </trkpt>
      <trkpt lat="43.76171" lon="6.31688">
        <ele>808.8</ele>
        <time>2021-09-07T08:57:51.000Z</time>
      </trkpt>
      <trkpt lat="43.76165" lon="6.31687">
        <ele>808.9</ele>
        <time>2021-09-07T08:57:52.000Z</time>
      </trkpt>
      <trkpt lat="43.76182" lon="6.31691">
        <ele>808.8</ele>
        <time>2021-09-07T08:57:54.000Z</time>
      </trkpt>
      <trkpt lat="43.76184" lon="6.31691">
        <ele>808.9</ele>
        <time>2021-09-07T08:57:57.000Z</time>
      </trkpt>
      <trkpt lat="43.76184" lon="6.31691">
        <ele>808.9</ele>
        <time>2021-09-07T08:57:57.000Z</time>
      </trkpt>
      <trkpt lat="43.76195" lon="6.31692">
        <ele>809.2</ele>
        <time>2021-09-07T08:57:58.000Z</time>
      </trkpt>
      <trkpt lat="43.7619" lon="6.31692">
        <ele>809.3</ele>
        <time>2021-09-07T08:57:59.000Z</time>
      </trkpt>
      <trkpt lat="43.76193" lon="6.31692">
        <ele>809.3</ele>
        <time>2021-09-07T08:58:00.000Z</time>
      </trkpt>
      <trkpt lat="43.76198" lon="6.31692">
        <ele>809.4</ele>
        <time>2021-09-07T08:58:01.000Z</time>
      </trkpt>
      <trkpt lat="43.76204" lon="6.31689">
        <ele>809.6</ele>
        <time>2021-09-07T08:58:01.000Z</time>
      </trkpt>
      <trkpt lat="43.76207" lon="6.31687">
        <ele>809.9</ele>
        <time>2021-09-07T08:58:02.000Z</time>
      </trkpt>
      <trkpt lat="43.7621" lon="6.31686">
        <ele>810.2</ele>
        <time>2021-09-07T08:58:03.000Z</time>
      </trkpt>
      <trkpt lat="43.76213" lon="6.31684">
        <ele>810.1</ele>
        <time>2021-09-07T08:58:04.000Z</time>
      </trkpt>
      <trkpt lat="43.76206" lon="6.31688">
        <ele>809.7</ele>
        <time>2021-09-07T08:58:04.000Z</time>
      </trkpt>
      <trkpt lat="43.76209" lon="6.31686">
        <ele>810.1</ele>
        <time>2021-09-07T08:58:05.000Z</time>
      </trkpt>
      <trkpt lat="43.76219" lon="6.31678">
        <ele>810.2</ele>
        <time>2021-09-07T08:58:06.000Z</time>
      </trkpt>
      <trkpt lat="43.7622" lon="6.31676">
        <ele>810.1</ele>
        <time>2021-09-07T08:58:09.000Z</time>
      </trkpt>
      <trkpt lat="43.76229" lon="6.31668">
        <ele>810.2</ele>
        <time>2021-09-07T08:58:09.000Z</time>
      </trkpt>
      <trkpt lat="43.76232" lon="6.31666">
        <ele>810.1</ele>
        <time>2021-09-07T08:58:12.000Z</time>
      </trkpt>
      <trkpt lat="43.76241" lon="6.31662">
        <ele>810.3</ele>
        <time>2021-09-07T08:58:12.000Z</time>
      </trkpt>
      <trkpt lat="43.76246" lon="6.31661">
        <ele>810.4</ele>
        <time>2021-09-07T08:58:13.000Z</time>
      </trkpt>
      <trkpt lat="43.7625" lon="6.31661">
        <ele>810.4</ele>
        <time>2021-09-07T08:58:14.000Z</time>
      </trkpt>
      <trkpt lat="43.76244" lon="6.31662">
        <ele>810.4</ele>
        <time>2021-09-07T08:58:15.000Z</time>
      </trkpt>
      <trkpt lat="43.76258" lon="6.31666">
        <ele>810.3</ele>
        <time>2021-09-07T08:58:16.000Z</time>
      </trkpt>
      <trkpt lat="43.76263" lon="6.31669">
        <ele>810.4</ele>
        <time>2021-09-07T08:58:17.000Z</time>
      </trkpt>
      <trkpt lat="43.7627" lon="6.31677">
        <ele>810.5</ele>
        <time>2021-09-07T08:58:19.000Z</time>
      </trkpt>
      <trkpt lat="43.76279" lon="6.31689">
        <ele>810.8</ele>
        <time>2021-09-07T08:58:21.000Z</time>
      </trkpt>
      <trkpt lat="43.76271" lon="6.31678">
        <ele>810.5</ele>
        <time>2021-09-07T08:58:22.000Z</time>
      </trkpt>
      <trkpt lat="43.76281" lon="6.31696">
        <ele>810.9</ele>
        <time>2021-09-07T08:58:22.000Z</time>
      </trkpt>
      <trkpt lat="43.76291" lon="6.31727">
        <ele>810.6</ele>
        <time>2021-09-07T08:58:27.000Z</time>
      </trkpt>
      <trkpt lat="43.76306" lon="6.31755">
        <ele>810.5</ele>
        <time>2021-09-07T08:58:33.000Z</time>
      </trkpt>
      <trkpt lat="43.76328" lon="6.31772">
        <ele>810.2</ele>
        <time>2021-09-07T08:58:38.000Z</time>
      </trkpt>
      <trkpt lat="43.76349" lon="6.31777">
        <ele>810.9</ele>
        <time>2021-09-07T08:58:43.000Z</time>
      </trkpt>
      <trkpt lat="43.76376" lon="6.31789">
        <ele>811.3</ele>
        <time>2021-09-07T08:58:48.000Z</time>
      </trkpt>
      <trkpt lat="43.76397" lon="6.31814">
        <ele>811.2</ele>
        <time>2021-09-07T08:58:53.000Z</time>
      </trkpt>
      <trkpt lat="43.76414" lon="6.31842">
        <ele>811.6</ele>
        <time>2021-09-07T08:58:58.000Z</time>
      </trkpt>
      <trkpt lat="43.76427" lon="6.31873">
        <ele>811.8</ele>
        <time>2021-09-07T08:59:03.000Z</time>
      </trkpt>
      <trkpt lat="43.76442" lon="6.319">
        <ele>811.8</ele>
        <time>2021-09-07T08:59:08.000Z</time>
      </trkpt>
      <trkpt lat="43.76462" lon="6.31923">
        <ele>811.8</ele>
        <time>2021-09-07T08:59:13.000Z</time>
      </trkpt>
      <trkpt lat="43.7648" lon="6.31948">
        <ele>812.3</ele>
        <time>2021-09-07T08:59:18.000Z</time>
      </trkpt>
      <trkpt lat="43.76494" lon="6.31979">
        <ele>813.3</ele>
        <time>2021-09-07T08:59:23.000Z</time>
      </trkpt>
      <trkpt lat="43.76503" lon="6.3201">
        <ele>813.2</ele>
        <time>2021-09-07T08:59:28.000Z</time>
      </trkpt>
      <trkpt lat="43.76517" lon="6.32034">
        <ele>814.3</ele>
        <time>2021-09-07T08:59:33.000Z</time>
      </trkpt>
      <trkpt lat="43.76533" lon="6.32059">
        <ele>815.1</ele>
        <time>2021-09-07T08:59:38.000Z</time>
      </trkpt>
      <trkpt lat="43.76549" lon="6.32083">
        <ele>815.8</ele>
        <time>2021-09-07T08:59:43.000Z</time>
      </trkpt>
      <trkpt lat="43.76564" lon="6.32106">
        <ele>816.4</ele>
        <time>2021-09-07T08:59:48.000Z</time>
      </trkpt>
      <trkpt lat="43.76581" lon="6.3213">
        <ele>816.5</ele>
        <time>2021-09-07T08:59:53.000Z</time>
      </trkpt>
      <trkpt lat="43.7659" lon="6.32141">
        <ele>816.9</ele>
        <time>2021-09-07T08:59:56.000Z</time>
      </trkpt>
      <trkpt lat="43.76594" lon="6.32146">
        <ele>816.8</ele>
        <time>2021-09-07T08:59:57.000Z</time>
      </trkpt>
      <trkpt lat="43.76604" lon="6.32165">
        <ele>817.6</ele>
        <time>2021-09-07T09:00:02.000Z</time>
      </trkpt>
      <trkpt lat="43.76604" lon="6.32165">
        <ele>817.6</ele>
        <time>2021-09-07T09:00:02.000Z</time>
      </trkpt>
      <trkpt lat="43.76606" lon="6.3217">
        <ele>817.8</ele>
        <time>2021-09-07T09:00:03.000Z</time>
      </trkpt>
      <trkpt lat="43.76609" lon="6.32175">
        <ele>817.9</ele>
        <time>2021-09-07T09:00:04.000Z</time>
      </trkpt>
      <trkpt lat="43.76616" lon="6.32192">
        <ele>818.2</ele>
        <time>2021-09-07T09:00:06.000Z</time>
      </trkpt>
      <trkpt lat="43.76617" lon="6.32194">
        <ele>818.3</ele>
        <time>2021-09-07T09:00:08.000Z</time>
      </trkpt>
      <trkpt lat="43.76619" lon="6.32201">
        <ele>818.6</ele>
        <time>2021-09-07T09:00:08.000Z</time>
      </trkpt>
      <trkpt lat="43.7662" lon="6.32204">
        <ele>818.6</ele>
        <time>2021-09-07T09:00:10.000Z</time>
      </trkpt>
      <trkpt lat="43.76631" lon="6.32229">
        <ele>818.8</ele>
        <time>2021-09-07T09:00:14.000Z</time>
      </trkpt>
      <trkpt lat="43.76633" lon="6.32233">
        <ele>819</ele>
        <time>2021-09-07T09:00:15.000Z</time>
      </trkpt>
      <trkpt lat="43.7663" lon="6.32227">
        <ele>818.8</ele>
        <time>2021-09-07T09:00:15.000Z</time>
      </trkpt>
      <trkpt lat="43.76632" lon="6.32231">
        <ele>818.8</ele>
        <time>2021-09-07T09:00:16.000Z</time>
      </trkpt>
      <trkpt lat="43.76634" lon="6.32235">
        <ele>819.2</ele>
        <time>2021-09-07T09:00:17.000Z</time>
      </trkpt>
      <trkpt lat="43.76637" lon="6.32243">
        <ele>819.4</ele>
        <time>2021-09-07T09:00:18.000Z</time>
      </trkpt>
      <trkpt lat="43.76638" lon="6.32248">
        <ele>819.5</ele>
        <time>2021-09-07T09:00:19.000Z</time>
      </trkpt>
      <trkpt lat="43.76639" lon="6.32253">
        <ele>819.8</ele>
        <time>2021-09-07T09:00:20.000Z</time>
      </trkpt>
      <trkpt lat="43.7664" lon="6.32258">
        <ele>819.9</ele>
        <time>2021-09-07T09:00:21.000Z</time>
      </trkpt>
      <trkpt lat="43.76642" lon="6.32262">
        <ele>819.7</ele>
        <time>2021-09-07T09:00:22.000Z</time>
      </trkpt>
      <trkpt lat="43.76643" lon="6.32268">
        <ele>819.9</ele>
        <time>2021-09-07T09:00:23.000Z</time>
      </trkpt>
      <trkpt lat="43.76643" lon="6.32265">
        <ele>819.8</ele>
        <time>2021-09-07T09:00:24.000Z</time>
      </trkpt>
      <trkpt lat="43.76643" lon="6.3227">
        <ele>819.9</ele>
        <time>2021-09-07T09:00:25.000Z</time>
      </trkpt>
      <trkpt lat="43.76645" lon="6.32278">
        <ele>820.1</ele>
        <time>2021-09-07T09:00:25.000Z</time>
      </trkpt>
      <trkpt lat="43.76646" lon="6.3228">
        <ele>820</ele>
        <time>2021-09-07T09:00:27.000Z</time>
      </trkpt>
      <trkpt lat="43.76649" lon="6.32284">
        <ele>820.1</ele>
        <time>2021-09-07T09:00:27.000Z</time>
      </trkpt>
      <trkpt lat="43.7665" lon="6.32288">
        <ele>820.3</ele>
        <time>2021-09-07T09:00:28.000Z</time>
      </trkpt>
      <trkpt lat="43.76649" lon="6.32285">
        <ele>820.1</ele>
        <time>2021-09-07T09:00:29.000Z</time>
      </trkpt>
      <trkpt lat="43.7665" lon="6.3229">
        <ele>820.4</ele>
        <time>2021-09-07T09:00:30.000Z</time>
      </trkpt>
      <trkpt lat="43.76653" lon="6.32296">
        <ele>820.5</ele>
        <time>2021-09-07T09:00:30.000Z</time>
      </trkpt>
      <trkpt lat="43.76655" lon="6.32298">
        <ele>820.6</ele>
        <time>2021-09-07T09:00:32.000Z</time>
      </trkpt>
      <trkpt lat="43.76659" lon="6.32309">
        <ele>821.3</ele>
        <time>2021-09-07T09:00:33.000Z</time>
      </trkpt>
      <trkpt lat="43.7666" lon="6.32313">
        <ele>821.4</ele>
        <time>2021-09-07T09:00:34.000Z</time>
      </trkpt>
      <trkpt lat="43.76663" lon="6.32318">
        <ele>821.5</ele>
        <time>2021-09-07T09:00:35.000Z</time>
      </trkpt>
      <trkpt lat="43.7666" lon="6.32312">
        <ele>821.3</ele>
        <time>2021-09-07T09:00:35.000Z</time>
      </trkpt>
      <trkpt lat="43.76665" lon="6.32323">
        <ele>821.6</ele>
        <time>2021-09-07T09:00:36.000Z</time>
      </trkpt>
      <trkpt lat="43.76662" lon="6.32317">
        <ele>821.5</ele>
        <time>2021-09-07T09:00:36.000Z</time>
      </trkpt>
      <trkpt lat="43.76664" lon="6.32321">
        <ele>821.6</ele>
        <time>2021-09-07T09:00:37.000Z</time>
      </trkpt>
      <trkpt lat="43.76668" lon="6.32327">
        <ele>821.8</ele>
        <time>2021-09-07T09:00:38.000Z</time>
      </trkpt>
      <trkpt lat="43.7668" lon="6.32359">
        <ele>822.4</ele>
        <time>2021-09-07T09:00:43.000Z</time>
      </trkpt>
      <trkpt lat="43.76691" lon="6.32385">
        <ele>823.1</ele>
        <time>2021-09-07T09:00:48.000Z</time>
      </trkpt>
      <trkpt lat="43.76698" lon="6.324">
        <ele>823.3</ele>
        <time>2021-09-07T09:00:50.000Z</time>
      </trkpt>
      <trkpt lat="43.76701" lon="6.32404">
        <ele>823.5</ele>
        <time>2021-09-07T09:00:51.000Z</time>
      </trkpt>
      <trkpt lat="43.76699" lon="6.32402">
        <ele>823.4</ele>
        <time>2021-09-07T09:00:52.000Z</time>
      </trkpt>
      <trkpt lat="43.76703" lon="6.32407">
        <ele>823.6</ele>
        <time>2021-09-07T09:00:53.000Z</time>
      </trkpt>
      <trkpt lat="43.76709" lon="6.32417">
        <ele>823.7</ele>
        <time>2021-09-07T09:00:54.000Z</time>
      </trkpt>
      <trkpt lat="43.76712" lon="6.32422">
        <ele>823.9</ele>
        <time>2021-09-07T09:00:55.000Z</time>
      </trkpt>
      <trkpt lat="43.76711" lon="6.3242">
        <ele>823.8</ele>
        <time>2021-09-07T09:00:56.000Z</time>
      </trkpt>
      <trkpt lat="43.76715" lon="6.32426">
        <ele>823.9</ele>
        <time>2021-09-07T09:00:57.000Z</time>
      </trkpt>
      <trkpt lat="43.76718" lon="6.32434">
        <ele>824.1</ele>
        <time>2021-09-07T09:00:57.000Z</time>
      </trkpt>
      <trkpt lat="43.7672" lon="6.32438">
        <ele>824</ele>
        <time>2021-09-07T09:00:59.000Z</time>
      </trkpt>
      <trkpt lat="43.76723" lon="6.32451">
        <ele>824.6</ele>
        <time>2021-09-07T09:01:00.000Z</time>
      </trkpt>
      <trkpt lat="43.76724" lon="6.32456">
        <ele>824.8</ele>
        <time>2021-09-07T09:01:01.000Z</time>
      </trkpt>
      <trkpt lat="43.76725" lon="6.32461">
        <ele>825</ele>
        <time>2021-09-07T09:01:02.000Z</time>
      </trkpt>
      <trkpt lat="43.76726" lon="6.32467">
        <ele>825</ele>
        <time>2021-09-07T09:01:04.000Z</time>
      </trkpt>
      <trkpt lat="43.7673" lon="6.3249">
        <ele>825.4</ele>
        <time>2021-09-07T09:01:07.000Z</time>
      </trkpt>
      <trkpt lat="43.76731" lon="6.32493">
        <ele>825.4</ele>
        <time>2021-09-07T09:01:09.000Z</time>
      </trkpt>
      <trkpt lat="43.76734" lon="6.32501">
        <ele>825.8</ele>
        <time>2021-09-07T09:01:09.000Z</time>
      </trkpt>
      <trkpt lat="43.76736" lon="6.32506">
        <ele>826.2</ele>
        <time>2021-09-07T09:01:10.000Z</time>
      </trkpt>
      <trkpt lat="43.76735" lon="6.32504">
        <ele>826.1</ele>
        <time>2021-09-07T09:01:11.000Z</time>
      </trkpt>
      <trkpt lat="43.76738" lon="6.32509">
        <ele>826</ele>
        <time>2021-09-07T09:01:11.000Z</time>
      </trkpt>
      <trkpt lat="43.76748" lon="6.32521">
        <ele>826.6</ele>
        <time>2021-09-07T09:01:15.000Z</time>
      </trkpt>
      <trkpt lat="43.76749" lon="6.32524">
        <ele>826.9</ele>
        <time>2021-09-07T09:01:16.000Z</time>
      </trkpt>
      <trkpt lat="43.76748" lon="6.3252">
        <ele>826.6</ele>
        <time>2021-09-07T09:01:16.000Z</time>
      </trkpt>
      <trkpt lat="43.76749" lon="6.32522">
        <ele>826.8</ele>
        <time>2021-09-07T09:01:17.000Z</time>
      </trkpt>
      <trkpt lat="43.76751" lon="6.32527">
        <ele>827</ele>
        <time>2021-09-07T09:01:18.000Z</time>
      </trkpt>
      <trkpt lat="43.76755" lon="6.32538">
        <ele>828</ele>
        <time>2021-09-07T09:01:20.000Z</time>
      </trkpt>
      <trkpt lat="43.76757" lon="6.32542">
        <ele>828.4</ele>
        <time>2021-09-07T09:01:21.000Z</time>
      </trkpt>
      <trkpt lat="43.76756" lon="6.3254">
        <ele>828.2</ele>
        <time>2021-09-07T09:01:22.000Z</time>
      </trkpt>
      <trkpt lat="43.76757" lon="6.32544">
        <ele>828.5</ele>
        <time>2021-09-07T09:01:23.000Z</time>
      </trkpt>
      <trkpt lat="43.76762" lon="6.32557">
        <ele>828.5</ele>
        <time>2021-09-07T09:01:25.000Z</time>
      </trkpt>
      <trkpt lat="43.76763" lon="6.32559">
        <ele>828.5</ele>
        <time>2021-09-07T09:01:27.000Z</time>
      </trkpt>
      <trkpt lat="43.76763" lon="6.32565">
        <ele>828.7</ele>
        <time>2021-09-07T09:01:27.000Z</time>
      </trkpt>
      <trkpt lat="43.76764" lon="6.32569">
        <ele>828.8</ele>
        <time>2021-09-07T09:01:29.000Z</time>
      </trkpt>
      <trkpt lat="43.76765" lon="6.32592">
        <ele>829.5</ele>
        <time>2021-09-07T09:01:34.000Z</time>
      </trkpt>
      <trkpt lat="43.76764" lon="6.32598">
        <ele>829.7</ele>
        <time>2021-09-07T09:01:34.000Z</time>
      </trkpt>
      <trkpt lat="43.76764" lon="6.32603">
        <ele>829.7</ele>
        <time>2021-09-07T09:01:35.000Z</time>
      </trkpt>
      <trkpt lat="43.76764" lon="6.32607">
        <ele>829.9</ele>
        <time>2021-09-07T09:01:36.000Z</time>
      </trkpt>
      <trkpt lat="43.76764" lon="6.32601">
        <ele>829.8</ele>
        <time>2021-09-07T09:01:36.000Z</time>
      </trkpt>
      <trkpt lat="43.76764" lon="6.32606">
        <ele>829.8</ele>
        <time>2021-09-07T09:01:37.000Z</time>
      </trkpt>
      <trkpt lat="43.76763" lon="6.32611">
        <ele>830</ele>
        <time>2021-09-07T09:01:37.000Z</time>
      </trkpt>
      <trkpt lat="43.76764" lon="6.32627">
        <ele>830.6</ele>
        <time>2021-09-07T09:01:41.000Z</time>
      </trkpt>
      <trkpt lat="43.76764" lon="6.32625">
        <ele>830.6</ele>
        <time>2021-09-07T09:01:42.000Z</time>
      </trkpt>
      <trkpt lat="43.76764" lon="6.32631">
        <ele>830.6</ele>
        <time>2021-09-07T09:01:42.000Z</time>
      </trkpt>
      <trkpt lat="43.76763" lon="6.32636">
        <ele>830.6</ele>
        <time>2021-09-07T09:01:43.000Z</time>
      </trkpt>
      <trkpt lat="43.76763" lon="6.32639">
        <ele>830.8</ele>
        <time>2021-09-07T09:01:45.000Z</time>
      </trkpt>
      <trkpt lat="43.76764" lon="6.32647">
        <ele>831.3</ele>
        <time>2021-09-07T09:01:46.000Z</time>
      </trkpt>
      <trkpt lat="43.76765" lon="6.32649">
        <ele>831.2</ele>
        <time>2021-09-07T09:01:48.000Z</time>
      </trkpt>
      <trkpt lat="43.76767" lon="6.32658">
        <ele>831.4</ele>
        <time>2021-09-07T09:01:49.000Z</time>
      </trkpt>
      <trkpt lat="43.76768" lon="6.32661">
        <ele>831.4</ele>
        <time>2021-09-07T09:01:51.000Z</time>
      </trkpt>
      <trkpt lat="43.76772" lon="6.32671">
        <ele>831.7</ele>
        <time>2021-09-07T09:01:52.000Z</time>
      </trkpt>
      <trkpt lat="43.76773" lon="6.32676">
        <ele>831.9</ele>
        <time>2021-09-07T09:01:53.000Z</time>
      </trkpt>
      <trkpt lat="43.76772" lon="6.32674">
        <ele>831.9</ele>
        <time>2021-09-07T09:01:54.000Z</time>
      </trkpt>
      <trkpt lat="43.76775" lon="6.32679">
        <ele>832.2</ele>
        <time>2021-09-07T09:01:55.000Z</time>
      </trkpt>
      <trkpt lat="43.76785" lon="6.32695">
        <ele>833</ele>
        <time>2021-09-07T09:02:00.000Z</time>
      </trkpt>
      <trkpt lat="43.76788" lon="6.327">
        <ele>832.9</ele>
        <time>2021-09-07T09:02:00.000Z</time>
      </trkpt>
      <trkpt lat="43.76789" lon="6.32704">
        <ele>833.1</ele>
        <time>2021-09-07T09:02:01.000Z</time>
      </trkpt>
      <trkpt lat="43.76789" lon="6.32702">
        <ele>833.1</ele>
        <time>2021-09-07T09:02:02.000Z</time>
      </trkpt>
      <trkpt lat="43.7679" lon="6.32706">
        <ele>833.2</ele>
        <time>2021-09-07T09:02:03.000Z</time>
      </trkpt>
      <trkpt lat="43.76792" lon="6.32711">
        <ele>833.5</ele>
        <time>2021-09-07T09:02:03.000Z</time>
      </trkpt>
      <trkpt lat="43.76793" lon="6.32713">
        <ele>833.5</ele>
        <time>2021-09-07T09:02:05.000Z</time>
      </trkpt>
      <trkpt lat="43.76794" lon="6.3272">
        <ele>833.7</ele>
        <time>2021-09-07T09:02:05.000Z</time>
      </trkpt>
      <trkpt lat="43.76794" lon="6.32725">
        <ele>834.1</ele>
        <time>2021-09-07T09:02:06.000Z</time>
      </trkpt>
      <trkpt lat="43.76794" lon="6.3273">
        <ele>834.3</ele>
        <time>2021-09-07T09:02:07.000Z</time>
      </trkpt>
      <trkpt lat="43.76794" lon="6.32723">
        <ele>833.9</ele>
        <time>2021-09-07T09:02:07.000Z</time>
      </trkpt>
      <trkpt lat="43.76794" lon="6.32729">
        <ele>834.2</ele>
        <time>2021-09-07T09:02:08.000Z</time>
      </trkpt>
      <trkpt lat="43.76793" lon="6.32735">
        <ele>834.4</ele>
        <time>2021-09-07T09:02:09.000Z</time>
      </trkpt>
      <trkpt lat="43.76789" lon="6.32744">
        <ele>834.7</ele>
        <time>2021-09-07T09:02:10.000Z</time>
      </trkpt>
      <trkpt lat="43.76787" lon="6.32747">
        <ele>834.8</ele>
        <time>2021-09-07T09:02:12.000Z</time>
      </trkpt>
      <trkpt lat="43.76783" lon="6.32749">
        <ele>834.4</ele>
        <time>2021-09-07T09:02:12.000Z</time>
      </trkpt>
      <trkpt lat="43.7678" lon="6.32752">
        <ele>834.3</ele>
        <time>2021-09-07T09:02:13.000Z</time>
      </trkpt>
      <trkpt lat="43.76782" lon="6.32751">
        <ele>834.3</ele>
        <time>2021-09-07T09:02:14.000Z</time>
      </trkpt>
      <trkpt lat="43.76777" lon="6.32756">
        <ele>834.5</ele>
        <time>2021-09-07T09:02:15.000Z</time>
      </trkpt>
      <trkpt lat="43.76775" lon="6.32759">
        <ele>834.6</ele>
        <time>2021-09-07T09:02:15.000Z</time>
      </trkpt>
      <trkpt lat="43.76773" lon="6.32763">
        <ele>834.5</ele>
        <time>2021-09-07T09:02:16.000Z</time>
      </trkpt>
      <trkpt lat="43.76773" lon="6.32762">
        <ele>834.5</ele>
        <time>2021-09-07T09:02:17.000Z</time>
      </trkpt>
      <trkpt lat="43.76772" lon="6.32768">
        <ele>834.8</ele>
        <time>2021-09-07T09:02:17.000Z</time>
      </trkpt>
      <trkpt lat="43.76769" lon="6.32787">
        <ele>835</ele>
        <time>2021-09-07T09:02:21.000Z</time>
      </trkpt>
      <trkpt lat="43.76769" lon="6.32786">
        <ele>834.9</ele>
        <time>2021-09-07T09:02:22.000Z</time>
      </trkpt>
      <trkpt lat="43.76769" lon="6.32791">
        <ele>835.1</ele>
        <time>2021-09-07T09:02:22.000Z</time>
      </trkpt>
      <trkpt lat="43.76771" lon="6.32796">
        <ele>835.6</ele>
        <time>2021-09-07T09:02:23.000Z</time>
      </trkpt>
      <trkpt lat="43.76773" lon="6.32799">
        <ele>835.4</ele>
        <time>2021-09-07T09:02:24.000Z</time>
      </trkpt>
      <trkpt lat="43.76774" lon="6.32802">
        <ele>835.5</ele>
        <time>2021-09-07T09:02:25.000Z</time>
      </trkpt>
      <trkpt lat="43.76772" lon="6.32798">
        <ele>835.5</ele>
        <time>2021-09-07T09:02:25.000Z</time>
      </trkpt>
      <trkpt lat="43.76774" lon="6.32801">
        <ele>835.5</ele>
        <time>2021-09-07T09:02:26.000Z</time>
      </trkpt>
      <trkpt lat="43.76776" lon="6.32804">
        <ele>835.5</ele>
        <time>2021-09-07T09:02:27.000Z</time>
      </trkpt>
      <trkpt lat="43.76779" lon="6.32805">
        <ele>835.6</ele>
        <time>2021-09-07T09:02:27.000Z</time>
      </trkpt>
      <trkpt lat="43.76782" lon="6.32807">
        <ele>835.8</ele>
        <time>2021-09-07T09:02:29.000Z</time>
      </trkpt>
      <trkpt lat="43.76794" lon="6.32807">
        <ele>836.2</ele>
        <time>2021-09-07T09:02:33.000Z</time>
      </trkpt>
      <trkpt lat="43.76794" lon="6.32807">
        <ele>836.2</ele>
        <time>2021-09-07T09:02:34.000Z</time>
      </trkpt>
      <trkpt lat="43.76795" lon="6.32805">
        <ele>836.6</ele>
        <time>2021-09-07T09:02:35.000Z</time>
      </trkpt>
      <trkpt lat="43.76797" lon="6.32802">
        <ele>836.5</ele>
        <time>2021-09-07T09:02:35.000Z</time>
      </trkpt>
      <trkpt lat="43.76798" lon="6.32801">
        <ele>836.8</ele>
        <time>2021-09-07T09:02:37.000Z</time>
      </trkpt>
      <trkpt lat="43.76801" lon="6.32798">
        <ele>836.8</ele>
        <time>2021-09-07T09:02:37.000Z</time>
      </trkpt>
      <trkpt lat="43.76803" lon="6.32795">
        <ele>837</ele>
        <time>2021-09-07T09:02:38.000Z</time>
      </trkpt>
      <trkpt lat="43.76805" lon="6.32791">
        <ele>837.3</ele>
        <time>2021-09-07T09:02:39.000Z</time>
      </trkpt>
      <trkpt lat="43.76802" lon="6.32796">
        <ele>836.9</ele>
        <time>2021-09-07T09:02:39.000Z</time>
      </trkpt>
      <trkpt lat="43.76803" lon="6.32793">
        <ele>837.2</ele>
        <time>2021-09-07T09:02:40.000Z</time>
      </trkpt>
      <trkpt lat="43.76807" lon="6.32787">
        <ele>837.7</ele>
        <time>2021-09-07T09:02:40.000Z</time>
      </trkpt>
      <trkpt lat="43.76808" lon="6.32782">
        <ele>837.8</ele>
        <time>2021-09-07T09:02:41.000Z</time>
      </trkpt>
      <trkpt lat="43.7681" lon="6.32779">
        <ele>838.2</ele>
        <time>2021-09-07T09:02:43.000Z</time>
      </trkpt>
      <trkpt lat="43.76813" lon="6.3277">
        <ele>838.3</ele>
        <time>2021-09-07T09:02:44.000Z</time>
      </trkpt>
      <trkpt lat="43.76814" lon="6.32766">
        <ele>838.4</ele>
        <time>2021-09-07T09:02:46.000Z</time>
      </trkpt>
      <trkpt lat="43.76816" lon="6.32756">
        <ele>838.9</ele>
        <time>2021-09-07T09:02:47.000Z</time>
      </trkpt>
      <trkpt lat="43.76818" lon="6.32752">
        <ele>839.2</ele>
        <time>2021-09-07T09:02:48.000Z</time>
      </trkpt>
      <trkpt lat="43.76817" lon="6.32753">
        <ele>839.2</ele>
        <time>2021-09-07T09:02:49.000Z</time>
      </trkpt>
      <trkpt lat="43.7682" lon="6.32748">
        <ele>839.1</ele>
        <time>2021-09-07T09:02:50.000Z</time>
      </trkpt>
      <trkpt lat="43.76829" lon="6.32742">
        <ele>840.5</ele>
        <time>2021-09-07T09:02:53.000Z</time>
      </trkpt>
      <trkpt lat="43.7683" lon="6.32744">
        <ele>840.4</ele>
        <time>2021-09-07T09:02:55.000Z</time>
      </trkpt>
      <trkpt lat="43.76834" lon="6.3275">
        <ele>841.1</ele>
        <time>2021-09-07T09:02:56.000Z</time>
      </trkpt>
      <trkpt lat="43.76834" lon="6.32752">
        <ele>841.1</ele>
        <time>2021-09-07T09:02:58.000Z</time>
      </trkpt>
      <trkpt lat="43.76832" lon="6.32759">
        <ele>841</ele>
        <time>2021-09-07T09:02:58.000Z</time>
      </trkpt>
      <trkpt lat="43.76831" lon="6.32762">
        <ele>841.1</ele>
        <time>2021-09-07T09:03:00.000Z</time>
      </trkpt>
      <trkpt lat="43.76829" lon="6.32767">
        <ele>841.3</ele>
        <time>2021-09-07T09:03:00.000Z</time>
      </trkpt>
      <trkpt lat="43.76828" lon="6.32768">
        <ele>841.5</ele>
        <time>2021-09-07T09:03:02.000Z</time>
      </trkpt>
      <trkpt lat="43.76827" lon="6.32774">
        <ele>841.8</ele>
        <time>2021-09-07T09:03:02.000Z</time>
      </trkpt>
      <trkpt lat="43.76827" lon="6.32774">
        <ele>841.8</ele>
        <time>2021-09-07T09:03:02.000Z</time>
      </trkpt>
      <trkpt lat="43.76826" lon="6.32777">
        <ele>842.2</ele>
        <time>2021-09-07T09:03:03.000Z</time>
      </trkpt>
      <trkpt lat="43.76826" lon="6.32776">
        <ele>842.1</ele>
        <time>2021-09-07T09:03:04.000Z</time>
      </trkpt>
      <trkpt lat="43.76825" lon="6.32779">
        <ele>842.3</ele>
        <time>2021-09-07T09:03:05.000Z</time>
      </trkpt>
      <trkpt lat="43.7682" lon="6.32798">
        <ele>843.5</ele>
        <time>2021-09-07T09:03:09.000Z</time>
      </trkpt>
      <trkpt lat="43.7682" lon="6.32798">
        <ele>843.3</ele>
        <time>2021-09-07T09:03:10.000Z</time>
      </trkpt>
      <trkpt lat="43.7682" lon="6.32801">
        <ele>843.8</ele>
        <time>2021-09-07T09:03:11.000Z</time>
      </trkpt>
      <trkpt lat="43.7682" lon="6.32806">
        <ele>844.1</ele>
        <time>2021-09-07T09:03:11.000Z</time>
      </trkpt>
      <trkpt lat="43.76819" lon="6.32809">
        <ele>844.4</ele>
        <time>2021-09-07T09:03:13.000Z</time>
      </trkpt>
      <trkpt lat="43.76817" lon="6.32811">
        <ele>844.9</ele>
        <time>2021-09-07T09:03:13.000Z</time>
      </trkpt>
      <trkpt lat="43.76814" lon="6.32814">
        <ele>845</ele>
        <time>2021-09-07T09:03:14.000Z</time>
      </trkpt>
      <trkpt lat="43.76816" lon="6.32812">
        <ele>844.9</ele>
        <time>2021-09-07T09:03:15.000Z</time>
      </trkpt>
      <trkpt lat="43.76812" lon="6.32817">
        <ele>845.1</ele>
        <time>2021-09-07T09:03:15.000Z</time>
      </trkpt>
      <trkpt lat="43.76809" lon="6.32825">
        <ele>845.6</ele>
        <time>2021-09-07T09:03:17.000Z</time>
      </trkpt>
      <trkpt lat="43.76809" lon="6.3283">
        <ele>845.9</ele>
        <time>2021-09-07T09:03:18.000Z</time>
      </trkpt>
      <trkpt lat="43.76809" lon="6.32827">
        <ele>845.6</ele>
        <time>2021-09-07T09:03:19.000Z</time>
      </trkpt>
      <trkpt lat="43.76808" lon="6.32834">
        <ele>846.1</ele>
        <time>2021-09-07T09:03:20.000Z</time>
      </trkpt>
      <trkpt lat="43.76808" lon="6.32839">
        <ele>846.3</ele>
        <time>2021-09-07T09:03:20.000Z</time>
      </trkpt>
      <trkpt lat="43.76807" lon="6.32841">
        <ele>846.4</ele>
        <time>2021-09-07T09:03:22.000Z</time>
      </trkpt>
      <trkpt lat="43.76804" lon="6.32845">
        <ele>846.9</ele>
        <time>2021-09-07T09:03:22.000Z</time>
      </trkpt>
      <trkpt lat="43.76803" lon="6.32848">
        <ele>846.9</ele>
        <time>2021-09-07T09:03:24.000Z</time>
      </trkpt>
      <trkpt lat="43.76801" lon="6.32853">
        <ele>847</ele>
        <time>2021-09-07T09:03:24.000Z</time>
      </trkpt>
      <trkpt lat="43.768" lon="6.32858">
        <ele>847.5</ele>
        <time>2021-09-07T09:03:25.000Z</time>
      </trkpt>
      <trkpt lat="43.76799" lon="6.32863">
        <ele>847.6</ele>
        <time>2021-09-07T09:03:26.000Z</time>
      </trkpt>
      <trkpt lat="43.768" lon="6.32855">
        <ele>847.2</ele>
        <time>2021-09-07T09:03:26.000Z</time>
      </trkpt>
      <trkpt lat="43.76799" lon="6.32861">
        <ele>847.5</ele>
        <time>2021-09-07T09:03:27.000Z</time>
      </trkpt>
      <trkpt lat="43.76798" lon="6.32866">
        <ele>847.8</ele>
        <time>2021-09-07T09:03:28.000Z</time>
      </trkpt>
      <trkpt lat="43.76798" lon="6.32873">
        <ele>848.1</ele>
        <time>2021-09-07T09:03:28.000Z</time>
      </trkpt>
      <trkpt lat="43.76797" lon="6.32877">
        <ele>848.4</ele>
        <time>2021-09-07T09:03:30.000Z</time>
      </trkpt>
      <trkpt lat="43.76797" lon="6.32887">
        <ele>849</ele>
        <time>2021-09-07T09:03:31.000Z</time>
      </trkpt>
      <trkpt lat="43.76797" lon="6.32892">
        <ele>849.2</ele>
        <time>2021-09-07T09:03:32.000Z</time>
      </trkpt>
      <trkpt lat="43.76797" lon="6.3289">
        <ele>849.1</ele>
        <time>2021-09-07T09:03:33.000Z</time>
      </trkpt>
      <trkpt lat="43.76797" lon="6.32896">
        <ele>849</ele>
        <time>2021-09-07T09:03:33.000Z</time>
      </trkpt>
      <trkpt lat="43.76797" lon="6.32905">
        <ele>849.3</ele>
        <time>2021-09-07T09:03:35.000Z</time>
      </trkpt>
      <trkpt lat="43.76798" lon="6.3291">
        <ele>849.7</ele>
        <time>2021-09-07T09:03:36.000Z</time>
      </trkpt>
      <trkpt lat="43.76799" lon="6.32916">
        <ele>849.7</ele>
        <time>2021-09-07T09:03:37.000Z</time>
      </trkpt>
      <trkpt lat="43.76798" lon="6.32909">
        <ele>849.5</ele>
        <time>2021-09-07T09:03:37.000Z</time>
      </trkpt>
      <trkpt lat="43.76799" lon="6.32913">
        <ele>849.9</ele>
        <time>2021-09-07T09:03:38.000Z</time>
      </trkpt>
      <trkpt lat="43.768" lon="6.32919">
        <ele>849.6</ele>
        <time>2021-09-07T09:03:39.000Z</time>
      </trkpt>
      <trkpt lat="43.76804" lon="6.32941">
        <ele>850.9</ele>
        <time>2021-09-07T09:03:42.000Z</time>
      </trkpt>
      <trkpt lat="43.76805" lon="6.32944">
        <ele>850.9</ele>
        <time>2021-09-07T09:03:44.000Z</time>
      </trkpt>
      <trkpt lat="43.76807" lon="6.32957">
        <ele>851.6</ele>
        <time>2021-09-07T09:03:45.000Z</time>
      </trkpt>
      <trkpt lat="43.76809" lon="6.32962">
        <ele>851.9</ele>
        <time>2021-09-07T09:03:46.000Z</time>
      </trkpt>
      <trkpt lat="43.76811" lon="6.32968">
        <ele>852.2</ele>
        <time>2021-09-07T09:03:47.000Z</time>
      </trkpt>
      <trkpt lat="43.76808" lon="6.32959">
        <ele>851.8</ele>
        <time>2021-09-07T09:03:47.000Z</time>
      </trkpt>
      <trkpt lat="43.7681" lon="6.32965">
        <ele>851.9</ele>
        <time>2021-09-07T09:03:48.000Z</time>
      </trkpt>
      <trkpt lat="43.76812" lon="6.32972">
        <ele>852.7</ele>
        <time>2021-09-07T09:03:49.000Z</time>
      </trkpt>
      <trkpt lat="43.76815" lon="6.3298">
        <ele>853.3</ele>
        <time>2021-09-07T09:03:50.000Z</time>
      </trkpt>
      <trkpt lat="43.76816" lon="6.32983">
        <ele>853.4</ele>
        <time>2021-09-07T09:03:52.000Z</time>
      </trkpt>
      <trkpt lat="43.76818" lon="6.32989">
        <ele>853.6</ele>
        <time>2021-09-07T09:03:52.000Z</time>
      </trkpt>
      <trkpt lat="43.76818" lon="6.32993">
        <ele>853.7</ele>
        <time>2021-09-07T09:03:53.000Z</time>
      </trkpt>
      <trkpt lat="43.76818" lon="6.32992">
        <ele>853.5</ele>
        <time>2021-09-07T09:03:54.000Z</time>
      </trkpt>
      <trkpt lat="43.76819" lon="6.32997">
        <ele>853.9</ele>
        <time>2021-09-07T09:03:55.000Z</time>
      </trkpt>
      <trkpt lat="43.76824" lon="6.33003">
        <ele>854</ele>
        <time>2021-09-07T09:03:56.000Z</time>
      </trkpt>
      <trkpt lat="43.76826" lon="6.33006">
        <ele>854.4</ele>
        <time>2021-09-07T09:03:58.000Z</time>
      </trkpt>
      <trkpt lat="43.76833" lon="6.33012">
        <ele>854.8</ele>
        <time>2021-09-07T09:03:59.000Z</time>
      </trkpt>
      <trkpt lat="43.76837" lon="6.33013">
        <ele>855.2</ele>
        <time>2021-09-07T09:04:00.000Z</time>
      </trkpt>
      <trkpt lat="43.76841" lon="6.33015">
        <ele>855.3</ele>
        <time>2021-09-07T09:04:01.000Z</time>
      </trkpt>
      <trkpt lat="43.76836" lon="6.33013">
        <ele>855</ele>
        <time>2021-09-07T09:04:01.000Z</time>
      </trkpt>
      <trkpt lat="43.76839" lon="6.33014">
        <ele>855.3</ele>
        <time>2021-09-07T09:04:02.000Z</time>
      </trkpt>
      <trkpt lat="43.76844" lon="6.33016">
        <ele>855.3</ele>
        <time>2021-09-07T09:04:02.000Z</time>
      </trkpt>
      <trkpt lat="43.76844" lon="6.33016">
        <ele>855.3</ele>
        <time>2021-09-07T09:04:02.000Z</time>
      </trkpt>
      <trkpt lat="43.76848" lon="6.33018">
        <ele>855.2</ele>
        <time>2021-09-07T09:04:03.000Z</time>
      </trkpt>
      <trkpt lat="43.76851" lon="6.3302">
        <ele>855.4</ele>
        <time>2021-09-07T09:04:04.000Z</time>
      </trkpt>
      <trkpt lat="43.76854" lon="6.33023">
        <ele>856.1</ele>
        <time>2021-09-07T09:04:05.000Z</time>
      </trkpt>
      <trkpt lat="43.7685" lon="6.33019">
        <ele>855.2</ele>
        <time>2021-09-07T09:04:05.000Z</time>
      </trkpt>
      <trkpt lat="43.76858" lon="6.33026">
        <ele>856.1</ele>
        <time>2021-09-07T09:04:06.000Z</time>
      </trkpt>
      <trkpt lat="43.76853" lon="6.33022">
        <ele>855.9</ele>
        <time>2021-09-07T09:04:06.000Z</time>
      </trkpt>
      <trkpt lat="43.76856" lon="6.33025">
        <ele>856.1</ele>
        <time>2021-09-07T09:04:07.000Z</time>
      </trkpt>
      <trkpt lat="43.76861" lon="6.33029">
        <ele>856.2</ele>
        <time>2021-09-07T09:04:08.000Z</time>
      </trkpt>
      <trkpt lat="43.76866" lon="6.33036">
        <ele>856.7</ele>
        <time>2021-09-07T09:04:09.000Z</time>
      </trkpt>
      <trkpt lat="43.76867" lon="6.33038">
        <ele>856.9</ele>
        <time>2021-09-07T09:04:11.000Z</time>
      </trkpt>
      <trkpt lat="43.7687" lon="6.33042">
        <ele>857.1</ele>
        <time>2021-09-07T09:04:11.000Z</time>
      </trkpt>
      <trkpt lat="43.76873" lon="6.33045">
        <ele>857</ele>
        <time>2021-09-07T09:04:13.000Z</time>
      </trkpt>
      <trkpt lat="43.76875" lon="6.33048">
        <ele>857.2</ele>
        <time>2021-09-07T09:04:13.000Z</time>
      </trkpt>
      <trkpt lat="43.76878" lon="6.33051">
        <ele>857.3</ele>
        <time>2021-09-07T09:04:15.000Z</time>
      </trkpt>
      <trkpt lat="43.76881" lon="6.33053">
        <ele>857.3</ele>
        <time>2021-09-07T09:04:15.000Z</time>
      </trkpt>
      <trkpt lat="43.76885" lon="6.33055">
        <ele>857.3</ele>
        <time>2021-09-07T09:04:16.000Z</time>
      </trkpt>
      <trkpt lat="43.76888" lon="6.33057">
        <ele>857.8</ele>
        <time>2021-09-07T09:04:17.000Z</time>
      </trkpt>
      <trkpt lat="43.76884" lon="6.33054">
        <ele>857.3</ele>
        <time>2021-09-07T09:04:17.000Z</time>
      </trkpt>
      <trkpt lat="43.76887" lon="6.33056">
        <ele>857.6</ele>
        <time>2021-09-07T09:04:18.000Z</time>
      </trkpt>
      <trkpt lat="43.76891" lon="6.33058">
        <ele>857.7</ele>
        <time>2021-09-07T09:04:19.000Z</time>
      </trkpt>
      <trkpt lat="43.76896" lon="6.33062">
        <ele>857.8</ele>
        <time>2021-09-07T09:04:20.000Z</time>
      </trkpt>
      <trkpt lat="43.76898" lon="6.33063">
        <ele>857.8</ele>
        <time>2021-09-07T09:04:21.000Z</time>
      </trkpt>
      <trkpt lat="43.76897" lon="6.33062">
        <ele>857.8</ele>
        <time>2021-09-07T09:04:22.000Z</time>
      </trkpt>
      <trkpt lat="43.76899" lon="6.33063">
        <ele>857.7</ele>
        <time>2021-09-07T09:04:22.000Z</time>
      </trkpt>
      <trkpt lat="43.76898" lon="6.33064">
        <ele>857.6</ele>
        <time>2021-09-07T09:04:27.000Z</time>
      </trkpt>
      <trkpt lat="43.76898" lon="6.33063">
        <ele>857.5</ele>
        <time>2021-09-07T09:04:28.000Z</time>
      </trkpt>
      <trkpt lat="43.76898" lon="6.33063">
        <ele>857.6</ele>
        <time>2021-09-07T09:04:29.000Z</time>
      </trkpt>
      <trkpt lat="43.76898" lon="6.33063">
        <ele>857.7</ele>
        <time>2021-09-07T09:04:30.000Z</time>
      </trkpt>
      <trkpt lat="43.76898" lon="6.33063">
        <ele>857.6</ele>
        <time>2021-09-07T09:04:31.000Z</time>
      </trkpt>
      <trkpt lat="43.76898" lon="6.33063">
        <ele>857.6</ele>
        <time>2021-09-07T09:04:32.000Z</time>
      </trkpt>
      <trkpt lat="43.76898" lon="6.33063">
        <ele>857.5</ele>
        <time>2021-09-07T09:04:34.000Z</time>
      </trkpt>
      <trkpt lat="43.76898" lon="6.33063">
        <ele>857.5</ele>
        <time>2021-09-07T09:04:35.000Z</time>
      </trkpt>
      <trkpt lat="43.76896" lon="6.33062">
        <ele>857.7</ele>
        <time>2021-09-07T09:04:40.000Z</time>
      </trkpt>
      <trkpt lat="43.76895" lon="6.3306">
        <ele>857.5</ele>
        <time>2021-09-07T09:04:45.000Z</time>
      </trkpt>
      <trkpt lat="43.76895" lon="6.33061">
        <ele>857.6</ele>
        <time>2021-09-07T09:04:46.000Z</time>
      </trkpt>
      <trkpt lat="43.76895" lon="6.3306">
        <ele>857.6</ele>
        <time>2021-09-07T09:04:51.000Z</time>
      </trkpt>
      <trkpt lat="43.76896" lon="6.33061">
        <ele>857.8</ele>
        <time>2021-09-07T09:04:55.000Z</time>
      </trkpt>
      <trkpt lat="43.76897" lon="6.33061">
        <ele>858.2</ele>
        <time>2021-09-07T09:05:00.000Z</time>
      </trkpt>
      <trkpt lat="43.76898" lon="6.33062">
        <ele>858.5</ele>
        <time>2021-09-07T09:05:00.000Z</time>
      </trkpt>
      <trkpt lat="43.76899" lon="6.33063">
        <ele>858.7</ele>
        <time>2021-09-07T09:05:02.000Z</time>
      </trkpt>
      <trkpt lat="43.76916" lon="6.33067">
        <ele>859.4</ele>
        <time>2021-09-07T09:05:08.000Z</time>
      </trkpt>
      <trkpt lat="43.76928" lon="6.3307">
        <ele>859.5</ele>
        <time>2021-09-07T09:05:11.000Z</time>
      </trkpt>
      <trkpt lat="43.76929" lon="6.33071">
        <ele>859.6</ele>
        <time>2021-09-07T09:05:13.000Z</time>
      </trkpt>
      <trkpt lat="43.76934" lon="6.33073">
        <ele>859.9</ele>
        <time>2021-09-07T09:05:13.000Z</time>
      </trkpt>
      <trkpt lat="43.76937" lon="6.33075">
        <ele>860</ele>
        <time>2021-09-07T09:05:14.000Z</time>
      </trkpt>
      <trkpt lat="43.7694" lon="6.33077">
        <ele>860.4</ele>
        <time>2021-09-07T09:05:15.000Z</time>
      </trkpt>
      <trkpt lat="43.76943" lon="6.33078">
        <ele>860.4</ele>
        <time>2021-09-07T09:05:16.000Z</time>
      </trkpt>
      <trkpt lat="43.76951" lon="6.33086">
        <ele>860.9</ele>
        <time>2021-09-07T09:05:19.000Z</time>
      </trkpt>
      <trkpt lat="43.76952" lon="6.33088">
        <ele>860.9</ele>
        <time>2021-09-07T09:05:21.000Z</time>
      </trkpt>
      <trkpt lat="43.76959" lon="6.33095">
        <ele>861.2</ele>
        <time>2021-09-07T09:05:23.000Z</time>
      </trkpt>
      <trkpt lat="43.76961" lon="6.33097">
        <ele>861.4</ele>
        <time>2021-09-07T09:05:24.000Z</time>
      </trkpt>
      <trkpt lat="43.76962" lon="6.33099">
        <ele>861.6</ele>
        <time>2021-09-07T09:05:25.000Z</time>
      </trkpt>
      <trkpt lat="43.76964" lon="6.33101">
        <ele>861.7</ele>
        <time>2021-09-07T09:05:27.000Z</time>
      </trkpt>
      <trkpt lat="43.76967" lon="6.33107">
        <ele>862.2</ele>
        <time>2021-09-07T09:05:28.000Z</time>
      </trkpt>
      <trkpt lat="43.76968" lon="6.3311">
        <ele>862.3</ele>
        <time>2021-09-07T09:05:29.000Z</time>
      </trkpt>
      <trkpt lat="43.76968" lon="6.33109">
        <ele>862.3</ele>
        <time>2021-09-07T09:05:30.000Z</time>
      </trkpt>
      <trkpt lat="43.7697" lon="6.33112">
        <ele>862.6</ele>
        <time>2021-09-07T09:05:30.000Z</time>
      </trkpt>
      <trkpt lat="43.76976" lon="6.33119">
        <ele>863</ele>
        <time>2021-09-07T09:05:33.000Z</time>
      </trkpt>
      <trkpt lat="43.76976" lon="6.3312">
        <ele>863</ele>
        <time>2021-09-07T09:05:35.000Z</time>
      </trkpt>
      <trkpt lat="43.76979" lon="6.33123">
        <ele>863.2</ele>
        <time>2021-09-07T09:05:35.000Z</time>
      </trkpt>
      <trkpt lat="43.76981" lon="6.33126">
        <ele>863.3</ele>
        <time>2021-09-07T09:05:36.000Z</time>
      </trkpt>
      <trkpt lat="43.7698" lon="6.33125">
        <ele>863.2</ele>
        <time>2021-09-07T09:05:37.000Z</time>
      </trkpt>
      <trkpt lat="43.76982" lon="6.33128">
        <ele>863.6</ele>
        <time>2021-09-07T09:05:38.000Z</time>
      </trkpt>
      <trkpt lat="43.76986" lon="6.33134">
        <ele>864.3</ele>
        <time>2021-09-07T09:05:39.000Z</time>
      </trkpt>
      <trkpt lat="43.76987" lon="6.33134">
        <ele>864.5</ele>
        <time>2021-09-07T09:05:41.000Z</time>
      </trkpt>
      <trkpt lat="43.7699" lon="6.33138">
        <ele>864.4</ele>
        <time>2021-09-07T09:05:41.000Z</time>
      </trkpt>
      <trkpt lat="43.76991" lon="6.3314">
        <ele>864.5</ele>
        <time>2021-09-07T09:05:43.000Z</time>
      </trkpt>
      <trkpt lat="43.76993" lon="6.33143">
        <ele>864.7</ele>
        <time>2021-09-07T09:05:43.000Z</time>
      </trkpt>
      <trkpt lat="43.76994" lon="6.33144">
        <ele>864.9</ele>
        <time>2021-09-07T09:05:45.000Z</time>
      </trkpt>
      <trkpt lat="43.76997" lon="6.33148">
        <ele>865.3</ele>
        <time>2021-09-07T09:05:45.000Z</time>
      </trkpt>
      <trkpt lat="43.77" lon="6.33149">
        <ele>865.5</ele>
        <time>2021-09-07T09:05:47.000Z</time>
      </trkpt>
      <trkpt lat="43.7701" lon="6.33161">
        <ele>866.5</ele>
        <time>2021-09-07T09:05:51.000Z</time>
      </trkpt>
      <trkpt lat="43.77009" lon="6.33161">
        <ele>866.3</ele>
        <time>2021-09-07T09:05:52.000Z</time>
      </trkpt>
      <trkpt lat="43.77012" lon="6.33163">
        <ele>866.5</ele>
        <time>2021-09-07T09:05:52.000Z</time>
      </trkpt>
      <trkpt lat="43.77016" lon="6.33168">
        <ele>866.6</ele>
        <time>2021-09-07T09:05:54.000Z</time>
      </trkpt>
      <trkpt lat="43.77017" lon="6.33169">
        <ele>866.7</ele>
        <time>2021-09-07T09:05:56.000Z</time>
      </trkpt>
      <trkpt lat="43.77026" lon="6.33181">
        <ele>867.6</ele>
        <time>2021-09-07T09:05:59.000Z</time>
      </trkpt>
      <trkpt lat="43.77029" lon="6.33184">
        <ele>867.8</ele>
        <time>2021-09-07T09:06:00.000Z</time>
      </trkpt>
      <trkpt lat="43.77031" lon="6.33186">
        <ele>868</ele>
        <time>2021-09-07T09:06:01.000Z</time>
      </trkpt>
      <trkpt lat="43.77033" lon="6.33188">
        <ele>868.3</ele>
        <time>2021-09-07T09:06:02.000Z</time>
      </trkpt>
      <trkpt lat="43.77039" lon="6.33194">
        <ele>868.9</ele>
        <time>2021-09-07T09:06:05.000Z</time>
      </trkpt>
      <trkpt lat="43.77041" lon="6.33197">
        <ele>869.1</ele>
        <time>2021-09-07T09:06:07.000Z</time>
      </trkpt>
      <trkpt lat="43.77043" lon="6.332">
        <ele>869.2</ele>
        <time>2021-09-07T09:06:07.000Z</time>
      </trkpt>
      <trkpt lat="43.77043" lon="6.332">
        <ele>869.2</ele>
        <time>2021-09-07T09:06:07.000Z</time>
      </trkpt>
      <trkpt lat="43.77044" lon="6.33202">
        <ele>869.4</ele>
        <time>2021-09-07T09:06:09.000Z</time>
      </trkpt>
      <trkpt lat="43.77048" lon="6.33209">
        <ele>869.7</ele>
        <time>2021-09-07T09:06:10.000Z</time>
      </trkpt>
      <trkpt lat="43.77048" lon="6.33209">
        <ele>869.9</ele>
        <time>2021-09-07T09:06:12.000Z</time>
      </trkpt>
      <trkpt lat="43.77057" lon="6.33227">
        <ele>870.5</ele>
        <time>2021-09-07T09:06:16.000Z</time>
      </trkpt>
      <trkpt lat="43.77057" lon="6.33226">
        <ele>870.4</ele>
        <time>2021-09-07T09:06:17.000Z</time>
      </trkpt>
      <trkpt lat="43.77058" lon="6.33229">
        <ele>870.3</ele>
        <time>2021-09-07T09:06:18.000Z</time>
      </trkpt>
      <trkpt lat="43.77066" lon="6.33243">
        <ele>870.7</ele>
        <time>2021-09-07T09:06:21.000Z</time>
      </trkpt>
      <trkpt lat="43.77069" lon="6.33247">
        <ele>871</ele>
        <time>2021-09-07T09:06:22.000Z</time>
      </trkpt>
      <trkpt lat="43.77068" lon="6.33245">
        <ele>870.8</ele>
        <time>2021-09-07T09:06:23.000Z</time>
      </trkpt>
      <trkpt lat="43.7707" lon="6.33249">
        <ele>871.2</ele>
        <time>2021-09-07T09:06:24.000Z</time>
      </trkpt>
      <trkpt lat="43.77074" lon="6.33257">
        <ele>871.2</ele>
        <time>2021-09-07T09:06:25.000Z</time>
      </trkpt>
      <trkpt lat="43.77075" lon="6.33261">
        <ele>871.3</ele>
        <time>2021-09-07T09:06:26.000Z</time>
      </trkpt>
      <trkpt lat="43.77077" lon="6.33265">
        <ele>871.5</ele>
        <time>2021-09-07T09:06:27.000Z</time>
      </trkpt>
      <trkpt lat="43.77074" lon="6.33258">
        <ele>871.3</ele>
        <time>2021-09-07T09:06:27.000Z</time>
      </trkpt>
      <trkpt lat="43.77079" lon="6.33268">
        <ele>871.6</ele>
        <time>2021-09-07T09:06:28.000Z</time>
      </trkpt>
      <trkpt lat="43.77076" lon="6.33262">
        <ele>871.2</ele>
        <time>2021-09-07T09:06:28.000Z</time>
      </trkpt>
      <trkpt lat="43.77078" lon="6.33267">
        <ele>871.7</ele>
        <time>2021-09-07T09:06:29.000Z</time>
      </trkpt>
      <trkpt lat="43.77079" lon="6.3327">
        <ele>871.5</ele>
        <time>2021-09-07T09:06:30.000Z</time>
      </trkpt>
      <trkpt lat="43.77086" lon="6.33281">
        <ele>872.3</ele>
        <time>2021-09-07T09:06:32.000Z</time>
      </trkpt>
      <trkpt lat="43.77088" lon="6.33284">
        <ele>872.4</ele>
        <time>2021-09-07T09:06:33.000Z</time>
      </trkpt>
      <trkpt lat="43.7709" lon="6.33287">
        <ele>872.7</ele>
        <time>2021-09-07T09:06:34.000Z</time>
      </trkpt>
      <trkpt lat="43.77087" lon="6.33283">
        <ele>872.3</ele>
        <time>2021-09-07T09:06:34.000Z</time>
      </trkpt>
      <trkpt lat="43.77089" lon="6.33286">
        <ele>872.5</ele>
        <time>2021-09-07T09:06:35.000Z</time>
      </trkpt>
      <trkpt lat="43.77092" lon="6.33289">
        <ele>872.6</ele>
        <time>2021-09-07T09:06:36.000Z</time>
      </trkpt>
      <trkpt lat="43.77096" lon="6.33296">
        <ele>873</ele>
        <time>2021-09-07T09:06:37.000Z</time>
      </trkpt>
      <trkpt lat="43.77098" lon="6.33299">
        <ele>873</ele>
        <time>2021-09-07T09:06:38.000Z</time>
      </trkpt>
      <trkpt lat="43.77101" lon="6.33302">
        <ele>873</ele>
        <time>2021-09-07T09:06:39.000Z</time>
      </trkpt>
      <trkpt lat="43.77103" lon="6.33304">
        <ele>873.2</ele>
        <time>2021-09-07T09:06:40.000Z</time>
      </trkpt>
      <trkpt lat="43.77102" lon="6.33303">
        <ele>873.1</ele>
        <time>2021-09-07T09:06:41.000Z</time>
      </trkpt>
      <trkpt lat="43.77105" lon="6.33306">
        <ele>873.1</ele>
        <time>2021-09-07T09:06:42.000Z</time>
      </trkpt>
      <trkpt lat="43.77107" lon="6.33308">
        <ele>873.7</ele>
        <time>2021-09-07T09:06:42.000Z</time>
      </trkpt>
      <trkpt lat="43.77109" lon="6.3331">
        <ele>873.8</ele>
        <time>2021-09-07T09:06:43.000Z</time>
      </trkpt>
      <trkpt lat="43.77112" lon="6.33313">
        <ele>873.6</ele>
        <time>2021-09-07T09:06:44.000Z</time>
      </trkpt>
      <trkpt lat="43.77109" lon="6.33309">
        <ele>873.8</ele>
        <time>2021-09-07T09:06:44.000Z</time>
      </trkpt>
      <trkpt lat="43.7711" lon="6.33312">
        <ele>873.6</ele>
        <time>2021-09-07T09:06:45.000Z</time>
      </trkpt>
      <trkpt lat="43.77113" lon="6.33316">
        <ele>873.9</ele>
        <time>2021-09-07T09:06:46.000Z</time>
      </trkpt>
      <trkpt lat="43.77115" lon="6.33319">
        <ele>874.1</ele>
        <time>2021-09-07T09:06:46.000Z</time>
      </trkpt>
      <trkpt lat="43.77117" lon="6.3332">
        <ele>874.3</ele>
        <time>2021-09-07T09:06:48.000Z</time>
      </trkpt>
      <trkpt lat="43.77123" lon="6.33327">
        <ele>874.8</ele>
        <time>2021-09-07T09:06:49.000Z</time>
      </trkpt>
      <trkpt lat="43.77124" lon="6.33329">
        <ele>874.9</ele>
        <time>2021-09-07T09:06:51.000Z</time>
      </trkpt>
      <trkpt lat="43.77125" lon="6.33335">
        <ele>875.2</ele>
        <time>2021-09-07T09:06:51.000Z</time>
      </trkpt>
      <trkpt lat="43.77125" lon="6.33339">
        <ele>875.4</ele>
        <time>2021-09-07T09:06:52.000Z</time>
      </trkpt>
      <trkpt lat="43.77125" lon="6.33344">
        <ele>875.4</ele>
        <time>2021-09-07T09:06:53.000Z</time>
      </trkpt>
      <trkpt lat="43.77125" lon="6.33336">
        <ele>875.3</ele>
        <time>2021-09-07T09:06:53.000Z</time>
      </trkpt>
      <trkpt lat="43.77125" lon="6.33342">
        <ele>875.4</ele>
        <time>2021-09-07T09:06:54.000Z</time>
      </trkpt>
      <trkpt lat="43.77127" lon="6.33347">
        <ele>875.2</ele>
        <time>2021-09-07T09:06:55.000Z</time>
      </trkpt>
      <trkpt lat="43.7713" lon="6.33353">
        <ele>875.3</ele>
        <time>2021-09-07T09:06:56.000Z</time>
      </trkpt>
      <trkpt lat="43.77129" lon="6.33357">
        <ele>875.6</ele>
        <time>2021-09-07T09:06:57.000Z</time>
      </trkpt>
      <trkpt lat="43.77129" lon="6.33361">
        <ele>875.4</ele>
        <time>2021-09-07T09:06:58.000Z</time>
      </trkpt>
      <trkpt lat="43.7713" lon="6.33354">
        <ele>875.4</ele>
        <time>2021-09-07T09:06:58.000Z</time>
      </trkpt>
      <trkpt lat="43.7713" lon="6.33365">
        <ele>875.4</ele>
        <time>2021-09-07T09:06:59.000Z</time>
      </trkpt>
      <trkpt lat="43.77129" lon="6.33357">
        <ele>875.6</ele>
        <time>2021-09-07T09:06:59.000Z</time>
      </trkpt>
      <trkpt lat="43.7713" lon="6.33363">
        <ele>875.2</ele>
        <time>2021-09-07T09:07:00.000Z</time>
      </trkpt>
      <trkpt lat="43.77132" lon="6.33368">
        <ele>875.5</ele>
        <time>2021-09-07T09:07:00.000Z</time>
      </trkpt>
      <trkpt lat="43.77133" lon="6.33372">
        <ele>875.7</ele>
        <time>2021-09-07T09:07:01.000Z</time>
      </trkpt>
      <trkpt lat="43.77135" lon="6.33377">
        <ele>875.9</ele>
        <time>2021-09-07T09:07:02.000Z</time>
      </trkpt>
      <trkpt lat="43.77134" lon="6.33375">
        <ele>875.8</ele>
        <time>2021-09-07T09:07:03.000Z</time>
      </trkpt>
      <trkpt lat="43.77137" lon="6.33381">
        <ele>875.6</ele>
        <time>2021-09-07T09:07:03.000Z</time>
      </trkpt>
      <trkpt lat="43.77139" lon="6.33393">
        <ele>876.1</ele>
        <time>2021-09-07T09:07:06.000Z</time>
      </trkpt>
      <trkpt lat="43.7714" lon="6.33397">
        <ele>876.4</ele>
        <time>2021-09-07T09:07:07.000Z</time>
      </trkpt>
      <trkpt lat="43.7714" lon="6.33395">
        <ele>876.3</ele>
        <time>2021-09-07T09:07:08.000Z</time>
      </trkpt>
      <trkpt lat="43.7714" lon="6.33401">
        <ele>876.8</ele>
        <time>2021-09-07T09:07:09.000Z</time>
      </trkpt>
      <trkpt lat="43.7714" lon="6.33415">
        <ele>877</ele>
        <time>2021-09-07T09:07:11.000Z</time>
      </trkpt>
      <trkpt lat="43.7714" lon="6.3342">
        <ele>877.2</ele>
        <time>2021-09-07T09:07:12.000Z</time>
      </trkpt>
      <trkpt lat="43.7714" lon="6.33418">
        <ele>877.1</ele>
        <time>2021-09-07T09:07:13.000Z</time>
      </trkpt>
      <trkpt lat="43.77141" lon="6.33424">
        <ele>877.5</ele>
        <time>2021-09-07T09:07:13.000Z</time>
      </trkpt>
      <trkpt lat="43.77143" lon="6.33438">
        <ele>878.2</ele>
        <time>2021-09-07T09:07:16.000Z</time>
      </trkpt>
      <trkpt lat="43.77144" lon="6.33443">
        <ele>878.5</ele>
        <time>2021-09-07T09:07:17.000Z</time>
      </trkpt>
      <trkpt lat="43.77144" lon="6.33441">
        <ele>878.3</ele>
        <time>2021-09-07T09:07:18.000Z</time>
      </trkpt>
      <trkpt lat="43.77146" lon="6.33446">
        <ele>878.8</ele>
        <time>2021-09-07T09:07:18.000Z</time>
      </trkpt>
      <trkpt lat="43.7715" lon="6.33453">
        <ele>879</ele>
        <time>2021-09-07T09:07:20.000Z</time>
      </trkpt>
      <trkpt lat="43.77152" lon="6.33456">
        <ele>879.3</ele>
        <time>2021-09-07T09:07:21.000Z</time>
      </trkpt>
      <trkpt lat="43.77155" lon="6.33457">
        <ele>879.5</ele>
        <time>2021-09-07T09:07:22.000Z</time>
      </trkpt>
      <trkpt lat="43.77151" lon="6.33454">
        <ele>879.1</ele>
        <time>2021-09-07T09:07:22.000Z</time>
      </trkpt>
      <trkpt lat="43.77154" lon="6.33456">
        <ele>879.3</ele>
        <time>2021-09-07T09:07:23.000Z</time>
      </trkpt>
      <trkpt lat="43.77157" lon="6.33459">
        <ele>879.9</ele>
        <time>2021-09-07T09:07:24.000Z</time>
      </trkpt>
      <trkpt lat="43.77164" lon="6.33461">
        <ele>880.6</ele>
        <time>2021-09-07T09:07:25.000Z</time>
      </trkpt>
      <trkpt lat="43.77167" lon="6.33462">
        <ele>880.4</ele>
        <time>2021-09-07T09:07:26.000Z</time>
      </trkpt>
      <trkpt lat="43.77166" lon="6.33462">
        <ele>880.4</ele>
        <time>2021-09-07T09:07:27.000Z</time>
      </trkpt>
      <trkpt lat="43.7717" lon="6.33463">
        <ele>880.5</ele>
        <time>2021-09-07T09:07:28.000Z</time>
      </trkpt>
      <trkpt lat="43.77172" lon="6.33464">
        <ele>880.6</ele>
        <time>2021-09-07T09:07:28.000Z</time>
      </trkpt>
      <trkpt lat="43.77175" lon="6.33464">
        <ele>880.8</ele>
        <time>2021-09-07T09:07:30.000Z</time>
      </trkpt>
      <trkpt lat="43.77179" lon="6.33465">
        <ele>881.1</ele>
        <time>2021-09-07T09:07:30.000Z</time>
      </trkpt>
      <trkpt lat="43.77182" lon="6.33466">
        <ele>881.5</ele>
        <time>2021-09-07T09:07:31.000Z</time>
      </trkpt>
      <trkpt lat="43.77181" lon="6.33466">
        <ele>881.4</ele>
        <time>2021-09-07T09:07:32.000Z</time>
      </trkpt>
      <trkpt lat="43.77183" lon="6.33467">
        <ele>881.7</ele>
        <time>2021-09-07T09:07:33.000Z</time>
      </trkpt>
      <trkpt lat="43.77189" lon="6.3347">
        <ele>882</ele>
        <time>2021-09-07T09:07:34.000Z</time>
      </trkpt>
      <trkpt lat="43.77192" lon="6.33471">
        <ele>882.2</ele>
        <time>2021-09-07T09:07:35.000Z</time>
      </trkpt>
      <trkpt lat="43.7719" lon="6.33471">
        <ele>882.1</ele>
        <time>2021-09-07T09:07:36.000Z</time>
      </trkpt>
      <trkpt lat="43.77193" lon="6.33472">
        <ele>882.3</ele>
        <time>2021-09-07T09:07:37.000Z</time>
      </trkpt>
      <trkpt lat="43.77197" lon="6.33476">
        <ele>882.7</ele>
        <time>2021-09-07T09:07:37.000Z</time>
      </trkpt>
      <trkpt lat="43.77199" lon="6.3348">
        <ele>883</ele>
        <time>2021-09-07T09:07:38.000Z</time>
      </trkpt>
      <trkpt lat="43.77202" lon="6.33484">
        <ele>882.7</ele>
        <time>2021-09-07T09:07:39.000Z</time>
      </trkpt>
      <trkpt lat="43.77198" lon="6.33478">
        <ele>882.9</ele>
        <time>2021-09-07T09:07:39.000Z</time>
      </trkpt>
      <trkpt lat="43.77201" lon="6.33482">
        <ele>882.7</ele>
        <time>2021-09-07T09:07:40.000Z</time>
      </trkpt>
      <trkpt lat="43.77203" lon="6.33486">
        <ele>882.9</ele>
        <time>2021-09-07T09:07:41.000Z</time>
      </trkpt>
      <trkpt lat="43.77206" lon="6.33491">
        <ele>883</ele>
        <time>2021-09-07T09:07:41.000Z</time>
      </trkpt>
      <trkpt lat="43.77208" lon="6.33495">
        <ele>883.1</ele>
        <time>2021-09-07T09:07:42.000Z</time>
      </trkpt>
      <trkpt lat="43.77207" lon="6.33494">
        <ele>883.1</ele>
        <time>2021-09-07T09:07:43.000Z</time>
      </trkpt>
      <trkpt lat="43.77209" lon="6.33497">
        <ele>883.3</ele>
        <time>2021-09-07T09:07:44.000Z</time>
      </trkpt>
      <trkpt lat="43.77211" lon="6.33504">
        <ele>883.8</ele>
        <time>2021-09-07T09:07:44.000Z</time>
      </trkpt>
      <trkpt lat="43.77213" lon="6.33507">
        <ele>884</ele>
        <time>2021-09-07T09:07:45.000Z</time>
      </trkpt>
      <trkpt lat="43.77215" lon="6.33511">
        <ele>884.1</ele>
        <time>2021-09-07T09:07:46.000Z</time>
      </trkpt>
      <trkpt lat="43.77216" lon="6.33514">
        <ele>884</ele>
        <time>2021-09-07T09:07:47.000Z</time>
      </trkpt>
      <trkpt lat="43.77215" lon="6.33513">
        <ele>884</ele>
        <time>2021-09-07T09:07:48.000Z</time>
      </trkpt>
      <trkpt lat="43.77217" lon="6.33518">
        <ele>884.3</ele>
        <time>2021-09-07T09:07:48.000Z</time>
      </trkpt>
      <trkpt lat="43.77217" lon="6.33521">
        <ele>884.4</ele>
        <time>2021-09-07T09:07:49.000Z</time>
      </trkpt>
      <trkpt lat="43.77218" lon="6.33524">
        <ele>884.4</ele>
        <time>2021-09-07T09:07:51.000Z</time>
      </trkpt>
      <trkpt lat="43.77221" lon="6.33541">
        <ele>885.2</ele>
        <time>2021-09-07T09:07:56.000Z</time>
      </trkpt>
      <trkpt lat="43.77224" lon="6.33548">
        <ele>885.6</ele>
        <time>2021-09-07T09:07:57.000Z</time>
      </trkpt>
      <trkpt lat="43.77225" lon="6.33552">
        <ele>885.6</ele>
        <time>2021-09-07T09:07:58.000Z</time>
      </trkpt>
      <trkpt lat="43.77225" lon="6.33551">
        <ele>885.6</ele>
        <time>2021-09-07T09:07:59.000Z</time>
      </trkpt>
      <trkpt lat="43.77225" lon="6.33554">
        <ele>885.6</ele>
        <time>2021-09-07T09:08:00.000Z</time>
      </trkpt>
      <trkpt lat="43.7723" lon="6.33561">
        <ele>886.1</ele>
        <time>2021-09-07T09:08:01.000Z</time>
      </trkpt>
      <trkpt lat="43.77231" lon="6.33565">
        <ele>886</ele>
        <time>2021-09-07T09:08:02.000Z</time>
      </trkpt>
      <trkpt lat="43.7723" lon="6.33563">
        <ele>886.2</ele>
        <time>2021-09-07T09:08:03.000Z</time>
      </trkpt>
      <trkpt lat="43.77232" lon="6.3357">
        <ele>886.2</ele>
        <time>2021-09-07T09:08:03.000Z</time>
      </trkpt>
      <trkpt lat="43.77233" lon="6.33582">
        <ele>887.1</ele>
        <time>2021-09-07T09:08:06.000Z</time>
      </trkpt>
      <trkpt lat="43.77234" lon="6.33585">
        <ele>887.3</ele>
        <time>2021-09-07T09:08:08.000Z</time>
      </trkpt>
      <trkpt lat="43.77236" lon="6.3359">
        <ele>887.5</ele>
        <time>2021-09-07T09:08:08.000Z</time>
      </trkpt>
      <trkpt lat="43.77236" lon="6.3359">
        <ele>887.5</ele>
        <time>2021-09-07T09:08:08.000Z</time>
      </trkpt>
      <trkpt lat="43.77238" lon="6.33592">
        <ele>887.7</ele>
        <time>2021-09-07T09:08:10.000Z</time>
      </trkpt>
      <trkpt lat="43.77241" lon="6.33598">
        <ele>888.3</ele>
        <time>2021-09-07T09:08:11.000Z</time>
      </trkpt>
      <trkpt lat="43.77242" lon="6.336">
        <ele>888.3</ele>
        <time>2021-09-07T09:08:13.000Z</time>
      </trkpt>
      <trkpt lat="43.77245" lon="6.33605">
        <ele>888.8</ele>
        <time>2021-09-07T09:08:13.000Z</time>
      </trkpt>
      <trkpt lat="43.77246" lon="6.33607">
        <ele>889</ele>
        <time>2021-09-07T09:08:14.000Z</time>
      </trkpt>
      <trkpt lat="43.77254" lon="6.33613">
        <ele>889.5</ele>
        <time>2021-09-07T09:08:17.000Z</time>
      </trkpt>
      <trkpt lat="43.77255" lon="6.33613">
        <ele>889.7</ele>
        <time>2021-09-07T09:08:19.000Z</time>
      </trkpt>
      <trkpt lat="43.7726" lon="6.33614">
        <ele>889.8</ele>
        <time>2021-09-07T09:08:19.000Z</time>
      </trkpt>
      <trkpt lat="43.77262" lon="6.33614">
        <ele>889.9</ele>
        <time>2021-09-07T09:08:21.000Z</time>
      </trkpt>
      <trkpt lat="43.77269" lon="6.33611">
        <ele>890.3</ele>
        <time>2021-09-07T09:08:22.000Z</time>
      </trkpt>
      <trkpt lat="43.77272" lon="6.33609">
        <ele>890.4</ele>
        <time>2021-09-07T09:08:23.000Z</time>
      </trkpt>
      <trkpt lat="43.77271" lon="6.3361">
        <ele>890.3</ele>
        <time>2021-09-07T09:08:24.000Z</time>
      </trkpt>
      <trkpt lat="43.77274" lon="6.33607">
        <ele>890.4</ele>
        <time>2021-09-07T09:08:25.000Z</time>
      </trkpt>
      <trkpt lat="43.77278" lon="6.33604">
        <ele>891.1</ele>
        <time>2021-09-07T09:08:25.000Z</time>
      </trkpt>
      <trkpt lat="43.7728" lon="6.33601">
        <ele>891.3</ele>
        <time>2021-09-07T09:08:27.000Z</time>
      </trkpt>
      <trkpt lat="43.77286" lon="6.33595">
        <ele>891.9</ele>
        <time>2021-09-07T09:08:28.000Z</time>
      </trkpt>
      <trkpt lat="43.77289" lon="6.33592">
        <ele>892.1</ele>
        <time>2021-09-07T09:08:29.000Z</time>
      </trkpt>
      <trkpt lat="43.77287" lon="6.33593">
        <ele>892</ele>
        <time>2021-09-07T09:08:30.000Z</time>
      </trkpt>
      <trkpt lat="43.77291" lon="6.3359">
        <ele>891.9</ele>
        <time>2021-09-07T09:08:30.000Z</time>
      </trkpt>
      <trkpt lat="43.77296" lon="6.33583">
        <ele>892.2</ele>
        <time>2021-09-07T09:08:32.000Z</time>
      </trkpt>
      <trkpt lat="43.77299" lon="6.33582">
        <ele>892.5</ele>
        <time>2021-09-07T09:08:33.000Z</time>
      </trkpt>
      <trkpt lat="43.77303" lon="6.33581">
        <ele>893.3</ele>
        <time>2021-09-07T09:08:35.000Z</time>
      </trkpt>
      <trkpt lat="43.77305" lon="6.3358">
        <ele>893.7</ele>
        <time>2021-09-07T09:08:36.000Z</time>
      </trkpt>
      <trkpt lat="43.77306" lon="6.33579">
        <ele>893.6</ele>
        <time>2021-09-07T09:08:37.000Z</time>
      </trkpt>
      <trkpt lat="43.77303" lon="6.3358">
        <ele>893.5</ele>
        <time>2021-09-07T09:08:37.000Z</time>
      </trkpt>
      <trkpt lat="43.77306" lon="6.33579">
        <ele>893.7</ele>
        <time>2021-09-07T09:08:38.000Z</time>
      </trkpt>
      <trkpt lat="43.77307" lon="6.3358">
        <ele>893.9</ele>
        <time>2021-09-07T09:08:39.000Z</time>
      </trkpt>
      <trkpt lat="43.77309" lon="6.33582">
        <ele>894.3</ele>
        <time>2021-09-07T09:08:39.000Z</time>
      </trkpt>
      <trkpt lat="43.7731" lon="6.33584">
        <ele>894.3</ele>
        <time>2021-09-07T09:08:40.000Z</time>
      </trkpt>
      <trkpt lat="43.77313" lon="6.33585">
        <ele>894.5</ele>
        <time>2021-09-07T09:08:41.000Z</time>
      </trkpt>
      <trkpt lat="43.77309" lon="6.33583">
        <ele>894.3</ele>
        <time>2021-09-07T09:08:41.000Z</time>
      </trkpt>
      <trkpt lat="43.77315" lon="6.33586">
        <ele>894.8</ele>
        <time>2021-09-07T09:08:42.000Z</time>
      </trkpt>
      <trkpt lat="43.77312" lon="6.33585">
        <ele>894.4</ele>
        <time>2021-09-07T09:08:42.000Z</time>
      </trkpt>
      <trkpt lat="43.77314" lon="6.33586">
        <ele>894.7</ele>
        <time>2021-09-07T09:08:43.000Z</time>
      </trkpt>
      <trkpt lat="43.77317" lon="6.33587">
        <ele>894.9</ele>
        <time>2021-09-07T09:08:44.000Z</time>
      </trkpt>
      <trkpt lat="43.77319" lon="6.33589">
        <ele>895.2</ele>
        <time>2021-09-07T09:08:44.000Z</time>
      </trkpt>
      <trkpt lat="43.77321" lon="6.3359">
        <ele>895.4</ele>
        <time>2021-09-07T09:08:45.000Z</time>
      </trkpt>
      <trkpt lat="43.77324" lon="6.33593">
        <ele>895.8</ele>
        <time>2021-09-07T09:08:46.000Z</time>
      </trkpt>
      <trkpt lat="43.7732" lon="6.3359">
        <ele>895.3</ele>
        <time>2021-09-07T09:08:46.000Z</time>
      </trkpt>
      <trkpt lat="43.77326" lon="6.33596">
        <ele>895.8</ele>
        <time>2021-09-07T09:08:47.000Z</time>
      </trkpt>
      <trkpt lat="43.77323" lon="6.33592">
        <ele>895.5</ele>
        <time>2021-09-07T09:08:47.000Z</time>
      </trkpt>
      <trkpt lat="43.77327" lon="6.336">
        <ele>895.8</ele>
        <time>2021-09-07T09:08:48.000Z</time>
      </trkpt>
      <trkpt lat="43.77325" lon="6.33595">
        <ele>895.8</ele>
        <time>2021-09-07T09:08:48.000Z</time>
      </trkpt>
      <trkpt lat="43.77327" lon="6.33598">
        <ele>895.9</ele>
        <time>2021-09-07T09:08:49.000Z</time>
      </trkpt>
      <trkpt lat="43.77328" lon="6.33603">
        <ele>895.8</ele>
        <time>2021-09-07T09:08:50.000Z</time>
      </trkpt>
      <trkpt lat="43.77329" lon="6.33607">
        <ele>896.1</ele>
        <time>2021-09-07T09:08:50.000Z</time>
      </trkpt>
      <trkpt lat="43.77331" lon="6.3361">
        <ele>896.5</ele>
        <time>2021-09-07T09:08:51.000Z</time>
      </trkpt>
      <trkpt lat="43.77333" lon="6.33613">
        <ele>896.7</ele>
        <time>2021-09-07T09:08:52.000Z</time>
      </trkpt>
      <trkpt lat="43.7733" lon="6.33609">
        <ele>896.4</ele>
        <time>2021-09-07T09:08:52.000Z</time>
      </trkpt>
      <trkpt lat="43.77335" lon="6.33615">
        <ele>896.6</ele>
        <time>2021-09-07T09:08:53.000Z</time>
      </trkpt>
      <trkpt lat="43.77332" lon="6.33612">
        <ele>896.6</ele>
        <time>2021-09-07T09:08:53.000Z</time>
      </trkpt>
      <trkpt lat="43.77334" lon="6.33615">
        <ele>896.8</ele>
        <time>2021-09-07T09:08:54.000Z</time>
      </trkpt>
      <trkpt lat="43.77336" lon="6.33617">
        <ele>896.9</ele>
        <time>2021-09-07T09:08:55.000Z</time>
      </trkpt>
      <trkpt lat="43.77338" lon="6.3362">
        <ele>897</ele>
        <time>2021-09-07T09:08:55.000Z</time>
      </trkpt>
      <trkpt lat="43.77339" lon="6.33623">
        <ele>897.2</ele>
        <time>2021-09-07T09:08:57.000Z</time>
      </trkpt>
      <trkpt lat="43.7734" lon="6.33627">
        <ele>897.6</ele>
        <time>2021-09-07T09:08:57.000Z</time>
      </trkpt>
      <trkpt lat="43.77342" lon="6.3363">
        <ele>897.5</ele>
        <time>2021-09-07T09:08:58.000Z</time>
      </trkpt>
      <trkpt lat="43.77341" lon="6.33629">
        <ele>897.6</ele>
        <time>2021-09-07T09:08:59.000Z</time>
      </trkpt>
      <trkpt lat="43.77343" lon="6.33632">
        <ele>897.5</ele>
        <time>2021-09-07T09:09:00.000Z</time>
      </trkpt>
      <trkpt lat="43.77348" lon="6.33642">
        <ele>898.1</ele>
        <time>2021-09-07T09:09:02.000Z</time>
      </trkpt>
      <trkpt lat="43.7735" lon="6.33645">
        <ele>898.5</ele>
        <time>2021-09-07T09:09:03.000Z</time>
      </trkpt>
      <trkpt lat="43.77352" lon="6.33648">
        <ele>899.1</ele>
        <time>2021-09-07T09:09:04.000Z</time>
      </trkpt>
      <trkpt lat="43.77349" lon="6.33644">
        <ele>898.3</ele>
        <time>2021-09-07T09:09:04.000Z</time>
      </trkpt>
      <trkpt lat="43.7735" lon="6.33647">
        <ele>898.8</ele>
        <time>2021-09-07T09:09:05.000Z</time>
      </trkpt>
      <trkpt lat="43.77353" lon="6.3365">
        <ele>898.7</ele>
        <time>2021-09-07T09:09:06.000Z</time>
      </trkpt>
      <trkpt lat="43.77358" lon="6.33657">
        <ele>899.3</ele>
        <time>2021-09-07T09:09:08.000Z</time>
      </trkpt>
      <trkpt lat="43.77358" lon="6.33658">
        <ele>899.4</ele>
        <time>2021-09-07T09:09:10.000Z</time>
      </trkpt>
      <trkpt lat="43.77362" lon="6.33661">
        <ele>899.6</ele>
        <time>2021-09-07T09:09:10.000Z</time>
      </trkpt>
      <trkpt lat="43.77364" lon="6.33662">
        <ele>899.7</ele>
        <time>2021-09-07T09:09:11.000Z</time>
      </trkpt>
      <trkpt lat="43.77366" lon="6.33663">
        <ele>900.1</ele>
        <time>2021-09-07T09:09:13.000Z</time>
      </trkpt>
      <trkpt lat="43.77376" lon="6.33667">
        <ele>900.7</ele>
        <time>2021-09-07T09:09:16.000Z</time>
      </trkpt>
      <trkpt lat="43.77379" lon="6.33668">
        <ele>900.7</ele>
        <time>2021-09-07T09:09:17.000Z</time>
      </trkpt>
      <trkpt lat="43.77378" lon="6.33667">
        <ele>900.7</ele>
        <time>2021-09-07T09:09:18.000Z</time>
      </trkpt>
      <trkpt lat="43.77381" lon="6.33668">
        <ele>900.8</ele>
        <time>2021-09-07T09:09:19.000Z</time>
      </trkpt>
      <trkpt lat="43.7739" lon="6.33671">
        <ele>901.6</ele>
        <time>2021-09-07T09:09:21.000Z</time>
      </trkpt>
      <trkpt lat="43.77392" lon="6.33672">
        <ele>901.6</ele>
        <time>2021-09-07T09:09:23.000Z</time>
      </trkpt>
      <trkpt lat="43.77407" lon="6.33677">
        <ele>902.9</ele>
        <time>2021-09-07T09:09:27.000Z</time>
      </trkpt>
      <trkpt lat="43.77405" lon="6.33676">
        <ele>902.8</ele>
        <time>2021-09-07T09:09:28.000Z</time>
      </trkpt>
      <trkpt lat="43.77409" lon="6.33678">
        <ele>903.1</ele>
        <time>2021-09-07T09:09:29.000Z</time>
      </trkpt>
      <trkpt lat="43.77419" lon="6.33682">
        <ele>903.2</ele>
        <time>2021-09-07T09:09:31.000Z</time>
      </trkpt>
      <trkpt lat="43.77421" lon="6.33683">
        <ele>903.4</ele>
        <time>2021-09-07T09:09:32.000Z</time>
      </trkpt>
      <trkpt lat="43.77424" lon="6.33685">
        <ele>903.6</ele>
        <time>2021-09-07T09:09:33.000Z</time>
      </trkpt>
      <trkpt lat="43.7742" lon="6.33683">
        <ele>903.4</ele>
        <time>2021-09-07T09:09:33.000Z</time>
      </trkpt>
      <trkpt lat="43.77422" lon="6.33684">
        <ele>903.4</ele>
        <time>2021-09-07T09:09:34.000Z</time>
      </trkpt>
      <trkpt lat="43.77426" lon="6.33686">
        <ele>903.7</ele>
        <time>2021-09-07T09:09:34.000Z</time>
      </trkpt>
      <trkpt lat="43.77436" lon="6.3369">
        <ele>904.7</ele>
        <time>2021-09-07T09:09:37.000Z</time>
      </trkpt>
      <trkpt lat="43.77439" lon="6.33691">
        <ele>905</ele>
        <time>2021-09-07T09:09:38.000Z</time>
      </trkpt>
      <trkpt lat="43.77442" lon="6.33692">
        <ele>905.2</ele>
        <time>2021-09-07T09:09:39.000Z</time>
      </trkpt>
      <trkpt lat="43.77437" lon="6.3369">
        <ele>904.8</ele>
        <time>2021-09-07T09:09:39.000Z</time>
      </trkpt>
      <trkpt lat="43.77441" lon="6.33691">
        <ele>905.3</ele>
        <time>2021-09-07T09:09:40.000Z</time>
      </trkpt>
      <trkpt lat="43.77443" lon="6.33693">
        <ele>905.4</ele>
        <time>2021-09-07T09:09:41.000Z</time>
      </trkpt>
      <trkpt lat="43.7745" lon="6.33696">
        <ele>905.9</ele>
        <time>2021-09-07T09:09:42.000Z</time>
      </trkpt>
      <trkpt lat="43.77453" lon="6.33697">
        <ele>905.9</ele>
        <time>2021-09-07T09:09:43.000Z</time>
      </trkpt>
      <trkpt lat="43.77452" lon="6.33696">
        <ele>905.7</ele>
        <time>2021-09-07T09:09:44.000Z</time>
      </trkpt>
      <trkpt lat="43.77456" lon="6.33698">
        <ele>906.3</ele>
        <time>2021-09-07T09:09:44.000Z</time>
      </trkpt>
      <trkpt lat="43.77467" lon="6.33702">
        <ele>907.1</ele>
        <time>2021-09-07T09:09:49.000Z</time>
      </trkpt>
      <trkpt lat="43.77471" lon="6.33704">
        <ele>907.3</ele>
        <time>2021-09-07T09:09:49.000Z</time>
      </trkpt>
      <trkpt lat="43.77474" lon="6.33705">
        <ele>907.2</ele>
        <time>2021-09-07T09:09:50.000Z</time>
      </trkpt>
      <trkpt lat="43.77473" lon="6.33704">
        <ele>907.2</ele>
        <time>2021-09-07T09:09:51.000Z</time>
      </trkpt>
      <trkpt lat="43.77477" lon="6.33706">
        <ele>907.3</ele>
        <time>2021-09-07T09:09:51.000Z</time>
      </trkpt>
      <trkpt lat="43.77483" lon="6.33709">
        <ele>907.6</ele>
        <time>2021-09-07T09:09:53.000Z</time>
      </trkpt>
      <trkpt lat="43.77485" lon="6.3371">
        <ele>907.5</ele>
        <time>2021-09-07T09:09:54.000Z</time>
      </trkpt>
      <trkpt lat="43.7749" lon="6.33716">
        <ele>907.8</ele>
        <time>2021-09-07T09:09:56.000Z</time>
      </trkpt>
      <trkpt lat="43.77493" lon="6.33718">
        <ele>908.1</ele>
        <time>2021-09-07T09:09:57.000Z</time>
      </trkpt>
      <trkpt lat="43.77492" lon="6.33717">
        <ele>908</ele>
        <time>2021-09-07T09:09:58.000Z</time>
      </trkpt>
      <trkpt lat="43.77495" lon="6.3372">
        <ele>908.3</ele>
        <time>2021-09-07T09:09:58.000Z</time>
      </trkpt>
      <trkpt lat="43.77502" lon="6.3373">
        <ele>908.5</ele>
        <time>2021-09-07T09:10:01.000Z</time>
      </trkpt>
      <trkpt lat="43.77502" lon="6.33735">
        <ele>909</ele>
        <time>2021-09-07T09:10:02.000Z</time>
      </trkpt>
      <trkpt lat="43.77503" lon="6.33741">
        <ele>909</ele>
        <time>2021-09-07T09:10:03.000Z</time>
      </trkpt>
      <trkpt lat="43.77502" lon="6.33734">
        <ele>908.8</ele>
        <time>2021-09-07T09:10:03.000Z</time>
      </trkpt>
      <trkpt lat="43.77503" lon="6.33739">
        <ele>909</ele>
        <time>2021-09-07T09:10:04.000Z</time>
      </trkpt>
      <trkpt lat="43.77504" lon="6.33744">
        <ele>909.1</ele>
        <time>2021-09-07T09:10:05.000Z</time>
      </trkpt>
      <trkpt lat="43.77504" lon="6.33758">
        <ele>909.5</ele>
        <time>2021-09-07T09:10:06.000Z</time>
      </trkpt>
      <trkpt lat="43.77503" lon="6.33764">
        <ele>909.4</ele>
        <time>2021-09-07T09:10:07.000Z</time>
      </trkpt>
      <trkpt lat="43.77503" lon="6.33771">
        <ele>909.6</ele>
        <time>2021-09-07T09:10:08.000Z</time>
      </trkpt>
      <trkpt lat="43.77503" lon="6.33761">
        <ele>909.4</ele>
        <time>2021-09-07T09:10:08.000Z</time>
      </trkpt>
      <trkpt lat="43.77503" lon="6.33768">
        <ele>909.6</ele>
        <time>2021-09-07T09:10:09.000Z</time>
      </trkpt>
      <trkpt lat="43.77503" lon="6.33775">
        <ele>909.9</ele>
        <time>2021-09-07T09:10:10.000Z</time>
      </trkpt>
      <trkpt lat="43.775" lon="6.33786">
        <ele>910.3</ele>
        <time>2021-09-07T09:10:12.000Z</time>
      </trkpt>
      <trkpt lat="43.77497" lon="6.33787">
        <ele>910.3</ele>
        <time>2021-09-07T09:10:13.000Z</time>
      </trkpt>
      <trkpt lat="43.77499" lon="6.33786">
        <ele>910.3</ele>
        <time>2021-09-07T09:10:14.000Z</time>
      </trkpt>
      <trkpt lat="43.77495" lon="6.33789">
        <ele>910.4</ele>
        <time>2021-09-07T09:10:14.000Z</time>
      </trkpt>
      <trkpt lat="43.77491" lon="6.33806">
        <ele>911</ele>
        <time>2021-09-07T09:10:19.000Z</time>
      </trkpt>
      <trkpt lat="43.77483" lon="6.33814">
        <ele>911.6</ele>
        <time>2021-09-07T09:10:24.000Z</time>
      </trkpt>
      <trkpt lat="43.77479" lon="6.33818">
        <ele>912.2</ele>
        <time>2021-09-07T09:10:26.000Z</time>
      </trkpt>
      <trkpt lat="43.77477" lon="6.33819">
        <ele>912.5</ele>
        <time>2021-09-07T09:10:28.000Z</time>
      </trkpt>
      <trkpt lat="43.77471" lon="6.33827">
        <ele>913</ele>
        <time>2021-09-07T09:10:30.000Z</time>
      </trkpt>
      <trkpt lat="43.77469" lon="6.3383">
        <ele>913.1</ele>
        <time>2021-09-07T09:10:31.000Z</time>
      </trkpt>
      <trkpt lat="43.77467" lon="6.33833">
        <ele>913.4</ele>
        <time>2021-09-07T09:10:32.000Z</time>
      </trkpt>
      <trkpt lat="43.7747" lon="6.33829">
        <ele>913</ele>
        <time>2021-09-07T09:10:32.000Z</time>
      </trkpt>
      <trkpt lat="43.77468" lon="6.33832">
        <ele>913.3</ele>
        <time>2021-09-07T09:10:33.000Z</time>
      </trkpt>
      <trkpt lat="43.77466" lon="6.33836">
        <ele>913.7</ele>
        <time>2021-09-07T09:10:34.000Z</time>
      </trkpt>
      <trkpt lat="43.77464" lon="6.33839">
        <ele>913.9</ele>
        <time>2021-09-07T09:10:34.000Z</time>
      </trkpt>
      <trkpt lat="43.77463" lon="6.33844">
        <ele>914.2</ele>
        <time>2021-09-07T09:10:35.000Z</time>
      </trkpt>
      <trkpt lat="43.77462" lon="6.33848">
        <ele>914.5</ele>
        <time>2021-09-07T09:10:36.000Z</time>
      </trkpt>
      <trkpt lat="43.77463" lon="6.33842">
        <ele>914</ele>
        <time>2021-09-07T09:10:36.000Z</time>
      </trkpt>
      <trkpt lat="43.77462" lon="6.33846">
        <ele>914.4</ele>
        <time>2021-09-07T09:10:37.000Z</time>
      </trkpt>
      <trkpt lat="43.77461" lon="6.33853">
        <ele>914.5</ele>
        <time>2021-09-07T09:10:37.000Z</time>
      </trkpt>
      <trkpt lat="43.77457" lon="6.33865">
        <ele>915.2</ele>
        <time>2021-09-07T09:10:40.000Z</time>
      </trkpt>
      <trkpt lat="43.77455" lon="6.33869">
        <ele>915.6</ele>
        <time>2021-09-07T09:10:41.000Z</time>
      </trkpt>
      <trkpt lat="43.77456" lon="6.33867">
        <ele>915.6</ele>
        <time>2021-09-07T09:10:42.000Z</time>
      </trkpt>
      <trkpt lat="43.77455" lon="6.33872">
        <ele>915.4</ele>
        <time>2021-09-07T09:10:42.000Z</time>
      </trkpt>
      <trkpt lat="43.77453" lon="6.3388">
        <ele>915.5</ele>
        <time>2021-09-07T09:10:44.000Z</time>
      </trkpt>
      <trkpt lat="43.77452" lon="6.33885">
        <ele>915.6</ele>
        <time>2021-09-07T09:10:45.000Z</time>
      </trkpt>
      <trkpt lat="43.77451" lon="6.3389">
        <ele>915.8</ele>
        <time>2021-09-07T09:10:46.000Z</time>
      </trkpt>
      <trkpt lat="43.77452" lon="6.33883">
        <ele>915.5</ele>
        <time>2021-09-07T09:10:46.000Z</time>
      </trkpt>
      <trkpt lat="43.77451" lon="6.33895">
        <ele>915.9</ele>
        <time>2021-09-07T09:10:47.000Z</time>
      </trkpt>
      <trkpt lat="43.77451" lon="6.33887">
        <ele>915.6</ele>
        <time>2021-09-07T09:10:47.000Z</time>
      </trkpt>
      <trkpt lat="43.77451" lon="6.33893">
        <ele>915.9</ele>
        <time>2021-09-07T09:10:48.000Z</time>
      </trkpt>
      <trkpt lat="43.7745" lon="6.33898">
        <ele>915.9</ele>
        <time>2021-09-07T09:10:49.000Z</time>
      </trkpt>
      <trkpt lat="43.7745" lon="6.33903">
        <ele>916.3</ele>
        <time>2021-09-07T09:10:49.000Z</time>
      </trkpt>
      <trkpt lat="43.7745" lon="6.33907">
        <ele>916.4</ele>
        <time>2021-09-07T09:10:50.000Z</time>
      </trkpt>
      <trkpt lat="43.7745" lon="6.33904">
        <ele>916.4</ele>
        <time>2021-09-07T09:10:51.000Z</time>
      </trkpt>
      <trkpt lat="43.7745" lon="6.3391">
        <ele>916.4</ele>
        <time>2021-09-07T09:10:52.000Z</time>
      </trkpt>
      <trkpt lat="43.7745" lon="6.33922">
        <ele>916.9</ele>
        <time>2021-09-07T09:10:53.000Z</time>
      </trkpt>
      <trkpt lat="43.77451" lon="6.33927">
        <ele>917.1</ele>
        <time>2021-09-07T09:10:54.000Z</time>
      </trkpt>
      <trkpt lat="43.77451" lon="6.33936">
        <ele>917.4</ele>
        <time>2021-09-07T09:10:56.000Z</time>
      </trkpt>
      <trkpt lat="43.77452" lon="6.3394">
        <ele>917.8</ele>
        <time>2021-09-07T09:10:57.000Z</time>
      </trkpt>
      <trkpt lat="43.77452" lon="6.33938">
        <ele>917.6</ele>
        <time>2021-09-07T09:10:58.000Z</time>
      </trkpt>
      <trkpt lat="43.77453" lon="6.33945">
        <ele>917.8</ele>
        <time>2021-09-07T09:10:59.000Z</time>
      </trkpt>
      <trkpt lat="43.77453" lon="6.3395">
        <ele>918</ele>
        <time>2021-09-07T09:10:59.000Z</time>
      </trkpt>
      <trkpt lat="43.77454" lon="6.33954">
        <ele>918.1</ele>
        <time>2021-09-07T09:11:00.000Z</time>
      </trkpt>
      <trkpt lat="43.77458" lon="6.33971">
        <ele>918.3</ele>
        <time>2021-09-07T09:11:05.000Z</time>
      </trkpt>
      <trkpt lat="43.77461" lon="6.3397">
        <ele>918.2</ele>
        <time>2021-09-07T09:11:10.000Z</time>
      </trkpt>
      <trkpt lat="43.77457" lon="6.33953">
        <ele>918.1</ele>
        <time>2021-09-07T09:11:15.000Z</time>
      </trkpt>
      <trkpt lat="43.77456" lon="6.33957">
        <ele>918</ele>
        <time>2021-09-07T09:11:17.000Z</time>
      </trkpt>
      <trkpt lat="43.77458" lon="6.33959">
        <ele>918.1</ele>
        <time>2021-09-07T09:11:18.000Z</time>
      </trkpt>
      <trkpt lat="43.77463" lon="6.33983">
        <ele>918.1</ele>
        <time>2021-09-07T09:11:23.000Z</time>
      </trkpt>
      <trkpt lat="43.77466" lon="6.34">
        <ele>918.7</ele>
        <time>2021-09-07T09:11:28.000Z</time>
      </trkpt>
      <trkpt lat="43.77466" lon="6.33998">
        <ele>918.7</ele>
        <time>2021-09-07T09:11:29.000Z</time>
      </trkpt>
      <trkpt lat="43.77467" lon="6.34003">
        <ele>918.7</ele>
        <time>2021-09-07T09:11:29.000Z</time>
      </trkpt>
      <trkpt lat="43.77469" lon="6.34007">
        <ele>918.9</ele>
        <time>2021-09-07T09:11:30.000Z</time>
      </trkpt>
      <trkpt lat="43.77469" lon="6.3401">
        <ele>919</ele>
        <time>2021-09-07T09:11:32.000Z</time>
      </trkpt>
      <trkpt lat="43.77475" lon="6.34027">
        <ele>919.2</ele>
        <time>2021-09-07T09:11:35.000Z</time>
      </trkpt>
      <trkpt lat="43.77477" lon="6.34031">
        <ele>919.2</ele>
        <time>2021-09-07T09:11:36.000Z</time>
      </trkpt>
      <trkpt lat="43.77482" lon="6.34044">
        <ele>919.7</ele>
        <time>2021-09-07T09:11:39.000Z</time>
      </trkpt>
      <trkpt lat="43.77484" lon="6.34048">
        <ele>919.9</ele>
        <time>2021-09-07T09:11:40.000Z</time>
      </trkpt>
      <trkpt lat="43.77487" lon="6.34052">
        <ele>920</ele>
        <time>2021-09-07T09:11:41.000Z</time>
      </trkpt>
      <trkpt lat="43.77489" lon="6.34056">
        <ele>920</ele>
        <time>2021-09-07T09:11:43.000Z</time>
      </trkpt>
      <trkpt lat="43.77492" lon="6.34063">
        <ele>920.6</ele>
        <time>2021-09-07T09:11:43.000Z</time>
      </trkpt>
      <trkpt lat="43.77495" lon="6.34067">
        <ele>920.7</ele>
        <time>2021-09-07T09:11:45.000Z</time>
      </trkpt>
      <trkpt lat="43.77499" lon="6.34071">
        <ele>920.6</ele>
        <time>2021-09-07T09:11:45.000Z</time>
      </trkpt>
      <trkpt lat="43.77503" lon="6.34075">
        <ele>920.5</ele>
        <time>2021-09-07T09:11:46.000Z</time>
      </trkpt>
      <trkpt lat="43.77501" lon="6.34074">
        <ele>920.5</ele>
        <time>2021-09-07T09:11:47.000Z</time>
      </trkpt>
      <trkpt lat="43.77506" lon="6.34079">
        <ele>921.1</ele>
        <time>2021-09-07T09:11:47.000Z</time>
      </trkpt>
      <trkpt lat="43.77514" lon="6.3409">
        <ele>920.8</ele>
        <time>2021-09-07T09:11:50.000Z</time>
      </trkpt>
      <trkpt lat="43.77516" lon="6.34093">
        <ele>920.9</ele>
        <time>2021-09-07T09:11:52.000Z</time>
      </trkpt>
      <trkpt lat="43.7752" lon="6.341">
        <ele>921.2</ele>
        <time>2021-09-07T09:11:53.000Z</time>
      </trkpt>
      <trkpt lat="43.77522" lon="6.34104">
        <ele>921.3</ele>
        <time>2021-09-07T09:11:54.000Z</time>
      </trkpt>
      <trkpt lat="43.77521" lon="6.34101">
        <ele>921.3</ele>
        <time>2021-09-07T09:11:55.000Z</time>
      </trkpt>
      <trkpt lat="43.77525" lon="6.34107">
        <ele>921</ele>
        <time>2021-09-07T09:11:55.000Z</time>
      </trkpt>
      <trkpt lat="43.77534" lon="6.34116">
        <ele>921.3</ele>
        <time>2021-09-07T09:12:00.000Z</time>
      </trkpt>
      <trkpt lat="43.77542" lon="6.34113">
        <ele>921.9</ele>
        <time>2021-09-07T09:12:03.000Z</time>
      </trkpt>
      <trkpt lat="43.77544" lon="6.34113">
        <ele>921.8</ele>
        <time>2021-09-07T09:12:05.000Z</time>
      </trkpt>
      <trkpt lat="43.77548" lon="6.34113">
        <ele>921.2</ele>
        <time>2021-09-07T09:12:06.000Z</time>
      </trkpt>
      <trkpt lat="43.77548" lon="6.34112">
        <ele>921.1</ele>
        <time>2021-09-07T09:12:07.000Z</time>
      </trkpt>
      <trkpt lat="43.77548" lon="6.34112">
        <ele>921.1</ele>
        <time>2021-09-07T09:12:08.000Z</time>
      </trkpt>
      <trkpt lat="43.77548" lon="6.34112">
        <ele>920.9</ele>
        <time>2021-09-07T09:12:08.000Z</time>
      </trkpt>
      <trkpt lat="43.77544" lon="6.34111">
        <ele>921.1</ele>
        <time>2021-09-07T09:12:13.000Z</time>
      </trkpt>
      <trkpt lat="43.77544" lon="6.34111">
        <ele>921.1</ele>
        <time>2021-09-07T09:12:18.000Z</time>
      </trkpt>
      <trkpt lat="43.77544" lon="6.34111">
        <ele>921.2</ele>
        <time>2021-09-07T09:12:23.000Z</time>
      </trkpt>
      <trkpt lat="43.77543" lon="6.34112">
        <ele>921.1</ele>
        <time>2021-09-07T09:12:26.000Z</time>
      </trkpt>
      <trkpt lat="43.77543" lon="6.34112">
        <ele>920.9</ele>
        <time>2021-09-07T09:12:28.000Z</time>
      </trkpt>
      <trkpt lat="43.77542" lon="6.34112">
        <ele>921.3</ele>
        <time>2021-09-07T09:12:33.000Z</time>
      </trkpt>
      <trkpt lat="43.77543" lon="6.34112">
        <ele>921.3</ele>
        <time>2021-09-07T09:12:38.000Z</time>
      </trkpt>
      <trkpt lat="43.77543" lon="6.34112">
        <ele>921</ele>
        <time>2021-09-07T09:12:42.000Z</time>
      </trkpt>
      <trkpt lat="43.77543" lon="6.34112">
        <ele>921</ele>
        <time>2021-09-07T09:12:43.000Z</time>
      </trkpt>
      <trkpt lat="43.77542" lon="6.34112">
        <ele>921.2</ele>
        <time>2021-09-07T09:12:45.000Z</time>
      </trkpt>
      <trkpt lat="43.77542" lon="6.34113">
        <ele>920.6</ele>
        <time>2021-09-07T09:12:47.000Z</time>
      </trkpt>
      <trkpt lat="43.77543" lon="6.34113">
        <ele>920.7</ele>
        <time>2021-09-07T09:12:48.000Z</time>
      </trkpt>
      <trkpt lat="43.77542" lon="6.34113">
        <ele>920.6</ele>
        <time>2021-09-07T09:12:49.000Z</time>
      </trkpt>
      <trkpt lat="43.77543" lon="6.34113">
        <ele>920.6</ele>
        <time>2021-09-07T09:12:50.000Z</time>
      </trkpt>
      <trkpt lat="43.77545" lon="6.34111">
        <ele>920.3</ele>
        <time>2021-09-07T09:12:50.000Z</time>
      </trkpt>
      <trkpt lat="43.77545" lon="6.34111">
        <ele>920.4</ele>
        <time>2021-09-07T09:12:52.000Z</time>
      </trkpt>
      <trkpt lat="43.77548" lon="6.34108">
        <ele>920.4</ele>
        <time>2021-09-07T09:12:52.000Z</time>
      </trkpt>
      <trkpt lat="43.77549" lon="6.34107">
        <ele>920.4</ele>
        <time>2021-09-07T09:12:54.000Z</time>
      </trkpt>
      <trkpt lat="43.77552" lon="6.34106">
        <ele>920.1</ele>
        <time>2021-09-07T09:12:54.000Z</time>
      </trkpt>
      <trkpt lat="43.77553" lon="6.34105">
        <ele>919.9</ele>
        <time>2021-09-07T09:12:56.000Z</time>
      </trkpt>
      <trkpt lat="43.77557" lon="6.34102">
        <ele>919.6</ele>
        <time>2021-09-07T09:12:58.000Z</time>
      </trkpt>
      <trkpt lat="43.77558" lon="6.34103">
        <ele>919.2</ele>
        <time>2021-09-07T09:12:59.000Z</time>
      </trkpt>
      <trkpt lat="43.77558" lon="6.34103">
        <ele>919.3</ele>
        <time>2021-09-07T09:13:00.000Z</time>
      </trkpt>
      <trkpt lat="43.77559" lon="6.34104">
        <ele>919.1</ele>
        <time>2021-09-07T09:13:01.000Z</time>
      </trkpt>
      <trkpt lat="43.77563" lon="6.34111">
        <ele>918</ele>
        <time>2021-09-07T09:13:04.000Z</time>
      </trkpt>
      <trkpt lat="43.77564" lon="6.34112">
        <ele>918</ele>
        <time>2021-09-07T09:13:06.000Z</time>
      </trkpt>
      <trkpt lat="43.77568" lon="6.34118">
        <ele>917.1</ele>
        <time>2021-09-07T09:13:08.000Z</time>
      </trkpt>
      <trkpt lat="43.77569" lon="6.34119">
        <ele>917</ele>
        <time>2021-09-07T09:13:10.000Z</time>
      </trkpt>
      <trkpt lat="43.77575" lon="6.34124">
        <ele>915.1</ele>
        <time>2021-09-07T09:13:13.000Z</time>
      </trkpt>
      <trkpt lat="43.77576" lon="6.34125">
        <ele>914.9</ele>
        <time>2021-09-07T09:13:15.000Z</time>
      </trkpt>
      <trkpt lat="43.77578" lon="6.34128">
        <ele>914.6</ele>
        <time>2021-09-07T09:13:16.000Z</time>
      </trkpt>
      <trkpt lat="43.77579" lon="6.34128">
        <ele>914.8</ele>
        <time>2021-09-07T09:13:19.000Z</time>
      </trkpt>
      <trkpt lat="43.77579" lon="6.34129">
        <ele>914.3</ele>
        <time>2021-09-07T09:13:20.000Z</time>
      </trkpt>
      <trkpt lat="43.77585" lon="6.34135">
        <ele>913.1</ele>
        <time>2021-09-07T09:13:25.000Z</time>
      </trkpt>
      <trkpt lat="43.77587" lon="6.34135">
        <ele>912.6</ele>
        <time>2021-09-07T09:13:25.000Z</time>
      </trkpt>
      <trkpt lat="43.77587" lon="6.34136">
        <ele>912.4</ele>
        <time>2021-09-07T09:13:27.000Z</time>
      </trkpt>
      <trkpt lat="43.77589" lon="6.34139">
        <ele>911.7</ele>
        <time>2021-09-07T09:13:29.000Z</time>
      </trkpt>
      <trkpt lat="43.77589" lon="6.3414">
        <ele>912</ele>
        <time>2021-09-07T09:13:31.000Z</time>
      </trkpt>
      <trkpt lat="43.77589" lon="6.3414">
        <ele>912</ele>
        <time>2021-09-07T09:13:32.000Z</time>
      </trkpt>
      <trkpt lat="43.77589" lon="6.3414">
        <ele>911.9</ele>
        <time>2021-09-07T09:13:32.000Z</time>
      </trkpt>
      <trkpt lat="43.77589" lon="6.3414">
        <ele>911.8</ele>
        <time>2021-09-07T09:13:34.000Z</time>
      </trkpt>
      <trkpt lat="43.77589" lon="6.3414">
        <ele>911.8</ele>
        <time>2021-09-07T09:13:35.000Z</time>
      </trkpt>
      <trkpt lat="43.77589" lon="6.3414">
        <ele>911.9</ele>
        <time>2021-09-07T09:13:36.000Z</time>
      </trkpt>
      <trkpt lat="43.77589" lon="6.3414">
        <ele>911.9</ele>
        <time>2021-09-07T09:13:41.000Z</time>
      </trkpt>
      <trkpt lat="43.77589" lon="6.34139">
        <ele>911.9</ele>
        <time>2021-09-07T09:13:46.000Z</time>
      </trkpt>
      <trkpt lat="43.77593" lon="6.34145">
        <ele>912.1</ele>
        <time>2021-09-07T09:13:52.000Z</time>
      </trkpt>
      <trkpt lat="43.77608" lon="6.34153">
        <ele>911.4</ele>
        <time>2021-09-07T09:13:54.000Z</time>
      </trkpt>
      <trkpt lat="43.77615" lon="6.34154">
        <ele>911.1</ele>
        <time>2021-09-07T09:13:55.000Z</time>
      </trkpt>
      <trkpt lat="43.77654" lon="6.34159">
        <ele>909.5</ele>
        <time>2021-09-07T09:14:00.000Z</time>
      </trkpt>
      <trkpt lat="43.77696" lon="6.34165">
        <ele>910.2</ele>
        <time>2021-09-07T09:14:05.000Z</time>
      </trkpt>
      <trkpt lat="43.77735" lon="6.34171">
        <ele>909.8</ele>
        <time>2021-09-07T09:14:10.000Z</time>
      </trkpt>
      <trkpt lat="43.77771" lon="6.34175">
        <ele>910</ele>
        <time>2021-09-07T09:14:15.000Z</time>
      </trkpt>
      <trkpt lat="43.77805" lon="6.34178">
        <ele>909.9</ele>
        <time>2021-09-07T09:14:20.000Z</time>
      </trkpt>
      <trkpt lat="43.77837" lon="6.34177">
        <ele>910</ele>
        <time>2021-09-07T09:14:25.000Z</time>
      </trkpt>
      <trkpt lat="43.77867" lon="6.34177">
        <ele>910.6</ele>
        <time>2021-09-07T09:14:30.000Z</time>
      </trkpt>
      <trkpt lat="43.77884" lon="6.34166">
        <ele>911.3</ele>
        <time>2021-09-07T09:14:35.000Z</time>
      </trkpt>
      <trkpt lat="43.77891" lon="6.3415">
        <ele>912.5</ele>
        <time>2021-09-07T09:14:41.000Z</time>
      </trkpt>
      <trkpt lat="43.77892" lon="6.34145">
        <ele>912.7</ele>
        <time>2021-09-07T09:14:41.000Z</time>
      </trkpt>
      <trkpt lat="43.77893" lon="6.34141">
        <ele>912.8</ele>
        <time>2021-09-07T09:14:43.000Z</time>
      </trkpt>
      <trkpt lat="43.77893" lon="6.34136">
        <ele>913</ele>
        <time>2021-09-07T09:14:43.000Z</time>
      </trkpt>
      <trkpt lat="43.77893" lon="6.34131">
        <ele>913.2</ele>
        <time>2021-09-07T09:14:44.000Z</time>
      </trkpt>
      <trkpt lat="43.77894" lon="6.34127">
        <ele>913.2</ele>
        <time>2021-09-07T09:14:45.000Z</time>
      </trkpt>
      <trkpt lat="43.77893" lon="6.34132">
        <ele>913.2</ele>
        <time>2021-09-07T09:14:45.000Z</time>
      </trkpt>
      <trkpt lat="43.77894" lon="6.34128">
        <ele>913.3</ele>
        <time>2021-09-07T09:14:46.000Z</time>
      </trkpt>
      <trkpt lat="43.77894" lon="6.34124">
        <ele>913.3</ele>
        <time>2021-09-07T09:14:47.000Z</time>
      </trkpt>
      <trkpt lat="43.77897" lon="6.34108">
        <ele>914</ele>
        <time>2021-09-07T09:14:50.000Z</time>
      </trkpt>
      <trkpt lat="43.77898" lon="6.34106">
        <ele>914.3</ele>
        <time>2021-09-07T09:14:52.000Z</time>
      </trkpt>
      <trkpt lat="43.779" lon="6.34101">
        <ele>914.5</ele>
        <time>2021-09-07T09:14:52.000Z</time>
      </trkpt>
      <trkpt lat="43.77901" lon="6.34098">
        <ele>914.8</ele>
        <time>2021-09-07T09:14:53.000Z</time>
      </trkpt>
      <trkpt lat="43.77902" lon="6.34095">
        <ele>915.2</ele>
        <time>2021-09-07T09:14:54.000Z</time>
      </trkpt>
      <trkpt lat="43.77903" lon="6.34091">
        <ele>915.3</ele>
        <time>2021-09-07T09:14:55.000Z</time>
      </trkpt>
      <trkpt lat="43.77903" lon="6.34092">
        <ele>915.3</ele>
        <time>2021-09-07T09:14:56.000Z</time>
      </trkpt>
      <trkpt lat="43.77903" lon="6.34088">
        <ele>915.5</ele>
        <time>2021-09-07T09:14:57.000Z</time>
      </trkpt>
      <trkpt lat="43.77903" lon="6.34084">
        <ele>915.9</ele>
        <time>2021-09-07T09:14:57.000Z</time>
      </trkpt>
      <trkpt lat="43.77904" lon="6.34081">
        <ele>916.5</ele>
        <time>2021-09-07T09:14:58.000Z</time>
      </trkpt>
      <trkpt lat="43.77906" lon="6.34077">
        <ele>916.6</ele>
        <time>2021-09-07T09:14:59.000Z</time>
      </trkpt>
      <trkpt lat="43.77904" lon="6.34082">
        <ele>916.3</ele>
        <time>2021-09-07T09:14:59.000Z</time>
      </trkpt>
      <trkpt lat="43.77908" lon="6.34073">
        <ele>916.9</ele>
        <time>2021-09-07T09:15:00.000Z</time>
      </trkpt>
      <trkpt lat="43.77905" lon="6.34078">
        <ele>916.6</ele>
        <time>2021-09-07T09:15:00.000Z</time>
      </trkpt>
      <trkpt lat="43.77907" lon="6.34074">
        <ele>916.7</ele>
        <time>2021-09-07T09:15:01.000Z</time>
      </trkpt>
      <trkpt lat="43.77909" lon="6.3407">
        <ele>917</ele>
        <time>2021-09-07T09:15:02.000Z</time>
      </trkpt>
      <trkpt lat="43.77913" lon="6.34057">
        <ele>917.5</ele>
        <time>2021-09-07T09:15:04.000Z</time>
      </trkpt>
      <trkpt lat="43.77915" lon="6.34053">
        <ele>917.9</ele>
        <time>2021-09-07T09:15:05.000Z</time>
      </trkpt>
      <trkpt lat="43.77914" lon="6.34055">
        <ele>917.8</ele>
        <time>2021-09-07T09:15:06.000Z</time>
      </trkpt>
      <trkpt lat="43.77916" lon="6.34052">
        <ele>918</ele>
        <time>2021-09-07T09:15:07.000Z</time>
      </trkpt>
      <trkpt lat="43.77926" lon="6.34041">
        <ele>919.1</ele>
        <time>2021-09-07T09:15:10.000Z</time>
      </trkpt>
      <trkpt lat="43.77928" lon="6.3404">
        <ele>918.9</ele>
        <time>2021-09-07T09:15:11.000Z</time>
      </trkpt>
      <trkpt lat="43.7794" lon="6.34034">
        <ele>919.6</ele>
        <time>2021-09-07T09:15:15.000Z</time>
      </trkpt>
      <trkpt lat="43.77939" lon="6.34034">
        <ele>919.5</ele>
        <time>2021-09-07T09:15:16.000Z</time>
      </trkpt>
      <trkpt lat="43.77942" lon="6.34033">
        <ele>919.8</ele>
        <time>2021-09-07T09:15:17.000Z</time>
      </trkpt>
      <trkpt lat="43.77948" lon="6.34029">
        <ele>920.6</ele>
        <time>2021-09-07T09:15:19.000Z</time>
      </trkpt>
      <trkpt lat="43.77951" lon="6.34028">
        <ele>920.7</ele>
        <time>2021-09-07T09:15:20.000Z</time>
      </trkpt>
      <trkpt lat="43.77949" lon="6.34028">
        <ele>920.6</ele>
        <time>2021-09-07T09:15:21.000Z</time>
      </trkpt>
      <trkpt lat="43.77952" lon="6.34027">
        <ele>920.8</ele>
        <time>2021-09-07T09:15:22.000Z</time>
      </trkpt>
      <trkpt lat="43.77956" lon="6.34022">
        <ele>921.2</ele>
        <time>2021-09-07T09:15:23.000Z</time>
      </trkpt>
      <trkpt lat="43.77957" lon="6.34019">
        <ele>921.7</ele>
        <time>2021-09-07T09:15:24.000Z</time>
      </trkpt>
      <trkpt lat="43.77959" lon="6.34018">
        <ele>921.8</ele>
        <time>2021-09-07T09:15:25.000Z</time>
      </trkpt>
      <trkpt lat="43.77961" lon="6.34018">
        <ele>921.7</ele>
        <time>2021-09-07T09:15:26.000Z</time>
      </trkpt>
      <trkpt lat="43.77967" lon="6.34019">
        <ele>922.2</ele>
        <time>2021-09-07T09:15:29.000Z</time>
      </trkpt>
      <trkpt lat="43.7797" lon="6.34019">
        <ele>922.2</ele>
        <time>2021-09-07T09:15:30.000Z</time>
      </trkpt>
      <trkpt lat="43.77969" lon="6.3402">
        <ele>922.2</ele>
        <time>2021-09-07T09:15:31.000Z</time>
      </trkpt>
      <trkpt lat="43.77972" lon="6.34019">
        <ele>922.4</ele>
        <time>2021-09-07T09:15:32.000Z</time>
      </trkpt>
      <trkpt lat="43.77977" lon="6.34019">
        <ele>922.3</ele>
        <time>2021-09-07T09:15:35.000Z</time>
      </trkpt>
      <trkpt lat="43.77979" lon="6.34018">
        <ele>922.1</ele>
        <time>2021-09-07T09:15:35.000Z</time>
      </trkpt>
      <trkpt lat="43.77977" lon="6.34019">
        <ele>922.2</ele>
        <time>2021-09-07T09:15:39.000Z</time>
      </trkpt>
      <trkpt lat="43.77977" lon="6.34018">
        <ele>922.3</ele>
        <time>2021-09-07T09:15:45.000Z</time>
      </trkpt>
      <trkpt lat="43.77977" lon="6.34018">
        <ele>922.2</ele>
        <time>2021-09-07T09:15:47.000Z</time>
      </trkpt>
      <trkpt lat="43.77977" lon="6.34018">
        <ele>922.2</ele>
        <time>2021-09-07T09:15:48.000Z</time>
      </trkpt>
      <trkpt lat="43.77977" lon="6.34017">
        <ele>922.2</ele>
        <time>2021-09-07T09:15:53.000Z</time>
      </trkpt>
      <trkpt lat="43.77977" lon="6.34018">
        <ele>922.4</ele>
        <time>2021-09-07T09:15:54.000Z</time>
      </trkpt>
      <trkpt lat="43.77977" lon="6.34018">
        <ele>922.4</ele>
        <time>2021-09-07T09:15:55.000Z</time>
      </trkpt>
      <trkpt lat="43.77977" lon="6.34018">
        <ele>922.4</ele>
        <time>2021-09-07T09:15:56.000Z</time>
      </trkpt>
      <trkpt lat="43.77977" lon="6.34018">
        <ele>922.4</ele>
        <time>2021-09-07T09:15:57.000Z</time>
      </trkpt>
      <trkpt lat="43.77977" lon="6.34018">
        <ele>922.4</ele>
        <time>2021-09-07T09:16:00.000Z</time>
      </trkpt>
      <trkpt lat="43.77977" lon="6.34018">
        <ele>922.6</ele>
        <time>2021-09-07T09:16:01.000Z</time>
      </trkpt>
      <trkpt lat="43.77977" lon="6.34018">
        <ele>922.9</ele>
        <time>2021-09-07T09:16:04.000Z</time>
      </trkpt>
      <trkpt lat="43.77975" lon="6.34014">
        <ele>923.1</ele>
        <time>2021-09-07T09:16:07.000Z</time>
      </trkpt>
      <trkpt lat="43.77977" lon="6.34018">
        <ele>923.1</ele>
        <time>2021-09-07T09:16:07.000Z</time>
      </trkpt>
      <trkpt lat="43.77977" lon="6.34016">
        <ele>923</ele>
        <time>2021-09-07T09:16:08.000Z</time>
      </trkpt>
      <trkpt lat="43.77975" lon="6.34008">
        <ele>923.5</ele>
        <time>2021-09-07T09:16:09.000Z</time>
      </trkpt>
      <trkpt lat="43.77974" lon="6.34004">
        <ele>923.6</ele>
        <time>2021-09-07T09:16:10.000Z</time>
      </trkpt>
      <trkpt lat="43.77975" lon="6.34013">
        <ele>923.1</ele>
        <time>2021-09-07T09:16:10.000Z</time>
      </trkpt>
      <trkpt lat="43.77972" lon="6.33994">
        <ele>923.9</ele>
        <time>2021-09-07T09:16:12.000Z</time>
      </trkpt>
      <trkpt lat="43.77974" lon="6.34005">
        <ele>923.7</ele>
        <time>2021-09-07T09:16:12.000Z</time>
      </trkpt>
      <trkpt lat="43.77974" lon="6.34001">
        <ele>923.6</ele>
        <time>2021-09-07T09:16:13.000Z</time>
      </trkpt>
      <trkpt lat="43.7797" lon="6.33984">
        <ele>924.5</ele>
        <time>2021-09-07T09:16:14.000Z</time>
      </trkpt>
      <trkpt lat="43.77972" lon="6.33991">
        <ele>924</ele>
        <time>2021-09-07T09:16:15.000Z</time>
      </trkpt>
      <trkpt lat="43.77969" lon="6.33982">
        <ele>924.5</ele>
        <time>2021-09-07T09:16:17.000Z</time>
      </trkpt>
      <trkpt lat="43.77963" lon="6.33964">
        <ele>925.4</ele>
        <time>2021-09-07T09:16:19.000Z</time>
      </trkpt>
      <trkpt lat="43.77961" lon="6.33961">
        <ele>925.3</ele>
        <time>2021-09-07T09:16:20.000Z</time>
      </trkpt>
      <trkpt lat="43.77959" lon="6.3396">
        <ele>925.3</ele>
        <time>2021-09-07T09:16:21.000Z</time>
      </trkpt>
      <trkpt lat="43.77962" lon="6.33962">
        <ele>925.4</ele>
        <time>2021-09-07T09:16:22.000Z</time>
      </trkpt>
      <trkpt lat="43.77955" lon="6.33956">
        <ele>925.4</ele>
        <time>2021-09-07T09:16:23.000Z</time>
      </trkpt>
      <trkpt lat="43.77954" lon="6.33954">
        <ele>925.6</ele>
        <time>2021-09-07T09:16:24.000Z</time>
      </trkpt>
      <trkpt lat="43.77952" lon="6.33952">
        <ele>925.7</ele>
        <time>2021-09-07T09:16:25.000Z</time>
      </trkpt>
      <trkpt lat="43.77954" lon="6.33955">
        <ele>925.5</ele>
        <time>2021-09-07T09:16:26.000Z</time>
      </trkpt>
      <trkpt lat="43.77947" lon="6.33946">
        <ele>926</ele>
        <time>2021-09-07T09:16:29.000Z</time>
      </trkpt>
      <trkpt lat="43.77947" lon="6.33946">
        <ele>925.9</ele>
        <time>2021-09-07T09:16:30.000Z</time>
      </trkpt>
      <trkpt lat="43.77947" lon="6.33947">
        <ele>926.2</ele>
        <time>2021-09-07T09:16:31.000Z</time>
      </trkpt>
      <trkpt lat="43.77951" lon="6.33952">
        <ele>926.2</ele>
        <time>2021-09-07T09:16:37.000Z</time>
      </trkpt>
      <trkpt lat="43.7795" lon="6.33952">
        <ele>925.8</ele>
        <time>2021-09-07T09:16:39.000Z</time>
      </trkpt>
      <trkpt lat="43.77949" lon="6.33954">
        <ele>926.1</ele>
        <time>2021-09-07T09:16:42.000Z</time>
      </trkpt>
      <trkpt lat="43.77949" lon="6.33954">
        <ele>926.2</ele>
        <time>2021-09-07T09:16:43.000Z</time>
      </trkpt>
      <trkpt lat="43.77949" lon="6.33953">
        <ele>926.1</ele>
        <time>2021-09-07T09:16:45.000Z</time>
      </trkpt>
      <trkpt lat="43.77949" lon="6.33952">
        <ele>926.1</ele>
        <time>2021-09-07T09:16:46.000Z</time>
      </trkpt>
      <trkpt lat="43.7795" lon="6.33951">
        <ele>926.1</ele>
        <time>2021-09-07T09:16:50.000Z</time>
      </trkpt>
      <trkpt lat="43.7795" lon="6.3395">
        <ele>926</ele>
        <time>2021-09-07T09:16:51.000Z</time>
      </trkpt>
      <trkpt lat="43.7795" lon="6.3395">
        <ele>926</ele>
        <time>2021-09-07T09:16:53.000Z</time>
      </trkpt>
      <trkpt lat="43.7795" lon="6.33949">
        <ele>925.7</ele>
        <time>2021-09-07T09:16:54.000Z</time>
      </trkpt>
      <trkpt lat="43.7795" lon="6.33948">
        <ele>925.8</ele>
        <time>2021-09-07T09:16:54.000Z</time>
      </trkpt>
      <trkpt lat="43.7795" lon="6.33948">
        <ele>925.6</ele>
        <time>2021-09-07T09:16:55.000Z</time>
      </trkpt>
      <trkpt lat="43.7795" lon="6.33949">
        <ele>925.7</ele>
        <time>2021-09-07T09:17:00.000Z</time>
      </trkpt>
      <trkpt lat="43.7795" lon="6.3395">
        <ele>925.6</ele>
        <time>2021-09-07T09:17:02.000Z</time>
      </trkpt>
      <trkpt lat="43.7795" lon="6.33949">
        <ele>925.9</ele>
        <time>2021-09-07T09:17:04.000Z</time>
      </trkpt>
      <trkpt lat="43.77951" lon="6.3395">
        <ele>925.5</ele>
        <time>2021-09-07T09:17:06.000Z</time>
      </trkpt>
      <trkpt lat="43.77952" lon="6.3395">
        <ele>925.5</ele>
        <time>2021-09-07T09:17:07.000Z</time>
      </trkpt>
      <trkpt lat="43.77954" lon="6.33948">
        <ele>925.4</ele>
        <time>2021-09-07T09:17:09.000Z</time>
      </trkpt>
      <trkpt lat="43.77952" lon="6.3395">
        <ele>925.6</ele>
        <time>2021-09-07T09:17:09.000Z</time>
      </trkpt>
      <trkpt lat="43.77953" lon="6.33949">
        <ele>925.4</ele>
        <time>2021-09-07T09:17:10.000Z</time>
      </trkpt>
      <trkpt lat="43.77954" lon="6.33948">
        <ele>925.5</ele>
        <time>2021-09-07T09:17:15.000Z</time>
      </trkpt>
      <trkpt lat="43.77955" lon="6.33947">
        <ele>925</ele>
        <time>2021-09-07T09:17:16.000Z</time>
      </trkpt>
      <trkpt lat="43.77955" lon="6.33947">
        <ele>925.3</ele>
        <time>2021-09-07T09:17:17.000Z</time>
      </trkpt>
      <trkpt lat="43.77955" lon="6.33947">
        <ele>925.4</ele>
        <time>2021-09-07T09:17:19.000Z</time>
      </trkpt>
      <trkpt lat="43.77955" lon="6.33946">
        <ele>925.4</ele>
        <time>2021-09-07T09:17:21.000Z</time>
      </trkpt>
      <trkpt lat="43.77956" lon="6.33945">
        <ele>925.3</ele>
        <time>2021-09-07T09:17:27.000Z</time>
      </trkpt>
      <trkpt lat="43.77956" lon="6.33944">
        <ele>925.5</ele>
        <time>2021-09-07T09:17:29.000Z</time>
      </trkpt>
      <trkpt lat="43.77956" lon="6.33943">
        <ele>925.7</ele>
        <time>2021-09-07T09:17:34.000Z</time>
      </trkpt>
      <trkpt lat="43.77956" lon="6.33943">
        <ele>925.8</ele>
        <time>2021-09-07T09:17:37.000Z</time>
      </trkpt>
      <trkpt lat="43.77957" lon="6.33943">
        <ele>925.5</ele>
        <time>2021-09-07T09:17:37.000Z</time>
      </trkpt>
      <trkpt lat="43.77958" lon="6.33944">
        <ele>925.6</ele>
        <time>2021-09-07T09:17:42.000Z</time>
      </trkpt>
      <trkpt lat="43.77958" lon="6.33944">
        <ele>925.6</ele>
        <time>2021-09-07T09:17:46.000Z</time>
      </trkpt>
      <trkpt lat="43.77958" lon="6.33944">
        <ele>925.5</ele>
        <time>2021-09-07T09:17:47.000Z</time>
      </trkpt>
      <trkpt lat="43.77957" lon="6.33945">
        <ele>925.6</ele>
        <time>2021-09-07T09:17:49.000Z</time>
      </trkpt>
      <trkpt lat="43.77957" lon="6.33945">
        <ele>925.9</ele>
        <time>2021-09-07T09:17:51.000Z</time>
      </trkpt>
      <trkpt lat="43.77957" lon="6.33945">
        <ele>926</ele>
        <time>2021-09-07T09:17:56.000Z</time>
      </trkpt>
      <trkpt lat="43.77957" lon="6.33943">
        <ele>926.3</ele>
        <time>2021-09-07T09:18:01.000Z</time>
      </trkpt>
      <trkpt lat="43.77957" lon="6.33942">
        <ele>925.8</ele>
        <time>2021-09-07T09:18:05.000Z</time>
      </trkpt>
      <trkpt lat="43.77956" lon="6.33942">
        <ele>926</ele>
        <time>2021-09-07T09:18:07.000Z</time>
      </trkpt>
      <trkpt lat="43.77955" lon="6.33941">
        <ele>925.8</ele>
        <time>2021-09-07T09:18:12.000Z</time>
      </trkpt>
      <trkpt lat="43.77956" lon="6.33941">
        <ele>926</ele>
        <time>2021-09-07T09:18:13.000Z</time>
      </trkpt>
      <trkpt lat="43.77956" lon="6.33941">
        <ele>926.1</ele>
        <time>2021-09-07T09:18:14.000Z</time>
      </trkpt>
      <trkpt lat="43.77956" lon="6.33941">
        <ele>926</ele>
        <time>2021-09-07T09:18:16.000Z</time>
      </trkpt>
      <trkpt lat="43.77956" lon="6.3394">
        <ele>925.9</ele>
        <time>2021-09-07T09:18:18.000Z</time>
      </trkpt>
      <trkpt lat="43.77956" lon="6.33941">
        <ele>926.1</ele>
        <time>2021-09-07T09:18:20.000Z</time>
      </trkpt>
      <trkpt lat="43.77956" lon="6.33941">
        <ele>926.1</ele>
        <time>2021-09-07T09:18:22.000Z</time>
      </trkpt>
      <trkpt lat="43.77956" lon="6.33941">
        <ele>925.8</ele>
        <time>2021-09-07T09:18:25.000Z</time>
      </trkpt>
      <trkpt lat="43.77956" lon="6.3394">
        <ele>926</ele>
        <time>2021-09-07T09:18:27.000Z</time>
      </trkpt>
      <trkpt lat="43.77956" lon="6.33941">
        <ele>925.9</ele>
        <time>2021-09-07T09:18:28.000Z</time>
      </trkpt>
      <trkpt lat="43.7795" lon="6.33937">
        <ele>926.1</ele>
        <time>2021-09-07T09:18:33.000Z</time>
      </trkpt>
      <trkpt lat="43.77951" lon="6.33936">
        <ele>926.1</ele>
        <time>2021-09-07T09:18:37.000Z</time>
      </trkpt>
      <trkpt lat="43.7795" lon="6.33936">
        <ele>926.1</ele>
        <time>2021-09-07T09:18:38.000Z</time>
      </trkpt>
      <trkpt lat="43.7796" lon="6.33936">
        <ele>925.6</ele>
        <time>2021-09-07T09:18:43.000Z</time>
      </trkpt>
      <trkpt lat="43.77962" lon="6.33936">
        <ele>925.8</ele>
        <time>2021-09-07T09:18:45.000Z</time>
      </trkpt>
      <trkpt lat="43.77963" lon="6.33935">
        <ele>925.8</ele>
        <time>2021-09-07T09:18:46.000Z</time>
      </trkpt>
      <trkpt lat="43.77963" lon="6.33935">
        <ele>925.7</ele>
        <time>2021-09-07T09:18:52.000Z</time>
      </trkpt>
      <trkpt lat="43.77963" lon="6.33935">
        <ele>925.6</ele>
        <time>2021-09-07T09:18:53.000Z</time>
      </trkpt>
      <trkpt lat="43.77963" lon="6.33935">
        <ele>925.7</ele>
        <time>2021-09-07T09:18:54.000Z</time>
      </trkpt>
      <trkpt lat="43.77963" lon="6.33934">
        <ele>925.9</ele>
        <time>2021-09-07T09:18:55.000Z</time>
      </trkpt>
      <trkpt lat="43.77963" lon="6.33932">
        <ele>925.6</ele>
        <time>2021-09-07T09:19:00.000Z</time>
      </trkpt>
      <trkpt lat="43.77963" lon="6.33931">
        <ele>925.4</ele>
        <time>2021-09-07T09:19:03.000Z</time>
      </trkpt>
      <trkpt lat="43.77963" lon="6.33931">
        <ele>925.5</ele>
        <time>2021-09-07T09:19:04.000Z</time>
      </trkpt>
      <trkpt lat="43.77965" lon="6.33929">
        <ele>925.6</ele>
        <time>2021-09-07T09:19:07.000Z</time>
      </trkpt>
      <trkpt lat="43.77965" lon="6.33929">
        <ele>925.6</ele>
        <time>2021-09-07T09:19:08.000Z</time>
      </trkpt>
      <trkpt lat="43.77965" lon="6.33927">
        <ele>925.9</ele>
        <time>2021-09-07T09:19:13.000Z</time>
      </trkpt>
      <trkpt lat="43.77965" lon="6.33928">
        <ele>925.7</ele>
        <time>2021-09-07T09:19:14.000Z</time>
      </trkpt>
      <trkpt lat="43.77963" lon="6.33927">
        <ele>925.7</ele>
        <time>2021-09-07T09:19:18.000Z</time>
      </trkpt>
      <trkpt lat="43.77963" lon="6.33927">
        <ele>925.6</ele>
        <time>2021-09-07T09:19:24.000Z</time>
      </trkpt>
      <trkpt lat="43.77964" lon="6.33927">
        <ele>925.7</ele>
        <time>2021-09-07T09:19:28.000Z</time>
      </trkpt>
      <trkpt lat="43.77964" lon="6.3393">
        <ele>925.9</ele>
        <time>2021-09-07T09:19:31.000Z</time>
      </trkpt>
      <trkpt lat="43.77963" lon="6.33934">
        <ele>926</ele>
        <time>2021-09-07T09:19:33.000Z</time>
      </trkpt>
      <trkpt lat="43.77963" lon="6.33931">
        <ele>925.9</ele>
        <time>2021-09-07T09:19:34.000Z</time>
      </trkpt>
      <trkpt lat="43.77963" lon="6.33934">
        <ele>925.9</ele>
        <time>2021-09-07T09:19:34.000Z</time>
      </trkpt>
      <trkpt lat="43.77963" lon="6.33937">
        <ele>925.7</ele>
        <time>2021-09-07T09:19:39.000Z</time>
      </trkpt>
      <trkpt lat="43.77962" lon="6.33937">
        <ele>925.6</ele>
        <time>2021-09-07T09:19:43.000Z</time>
      </trkpt>
      <trkpt lat="43.77962" lon="6.33938">
        <ele>925.6</ele>
        <time>2021-09-07T09:19:44.000Z</time>
      </trkpt>
      <trkpt lat="43.77961" lon="6.33938">
        <ele>925.9</ele>
        <time>2021-09-07T09:19:46.000Z</time>
      </trkpt>
      <trkpt lat="43.77962" lon="6.33938">
        <ele>925.6</ele>
        <time>2021-09-07T09:19:47.000Z</time>
      </trkpt>
      <trkpt lat="43.77961" lon="6.33938">
        <ele>925.8</ele>
        <time>2021-09-07T09:19:48.000Z</time>
      </trkpt>
      <trkpt lat="43.7796" lon="6.33939">
        <ele>925.8</ele>
        <time>2021-09-07T09:19:51.000Z</time>
      </trkpt>
      <trkpt lat="43.77959" lon="6.3394">
        <ele>925.8</ele>
        <time>2021-09-07T09:19:51.000Z</time>
      </trkpt>
      <trkpt lat="43.77958" lon="6.33943">
        <ele>925.8</ele>
        <time>2021-09-07T09:19:53.000Z</time>
      </trkpt>
      <trkpt lat="43.77959" lon="6.33941">
        <ele>925.8</ele>
        <time>2021-09-07T09:19:54.000Z</time>
      </trkpt>
      <trkpt lat="43.77957" lon="6.33945">
        <ele>925.8</ele>
        <time>2021-09-07T09:19:55.000Z</time>
      </trkpt>
      <trkpt lat="43.77958" lon="6.33944">
        <ele>925.7</ele>
        <time>2021-09-07T09:19:56.000Z</time>
      </trkpt>
      <trkpt lat="43.77957" lon="6.33946">
        <ele>925.6</ele>
        <time>2021-09-07T09:19:58.000Z</time>
      </trkpt>
      <trkpt lat="43.77954" lon="6.33948">
        <ele>925.6</ele>
        <time>2021-09-07T09:19:58.000Z</time>
      </trkpt>
      <trkpt lat="43.77953" lon="6.33948">
        <ele>925.7</ele>
        <time>2021-09-07T09:19:59.000Z</time>
      </trkpt>
      <trkpt lat="43.77951" lon="6.33951">
        <ele>925.8</ele>
        <time>2021-09-07T09:20:02.000Z</time>
      </trkpt>
      <trkpt lat="43.7795" lon="6.33953">
        <ele>925.9</ele>
        <time>2021-09-07T09:20:03.000Z</time>
      </trkpt>
      <trkpt lat="43.77951" lon="6.3395">
        <ele>925.9</ele>
        <time>2021-09-07T09:20:04.000Z</time>
      </trkpt>
      <trkpt lat="43.77951" lon="6.33953">
        <ele>926</ele>
        <time>2021-09-07T09:20:07.000Z</time>
      </trkpt>
      <trkpt lat="43.77951" lon="6.33954">
        <ele>925.9</ele>
        <time>2021-09-07T09:20:12.000Z</time>
      </trkpt>
      <trkpt lat="43.7795" lon="6.33954">
        <ele>925.6</ele>
        <time>2021-09-07T09:20:14.000Z</time>
      </trkpt>
      <trkpt lat="43.77949" lon="6.33954">
        <ele>925.6</ele>
        <time>2021-09-07T09:20:15.000Z</time>
      </trkpt>
      <trkpt lat="43.7795" lon="6.33954">
        <ele>925.6</ele>
        <time>2021-09-07T09:20:16.000Z</time>
      </trkpt>
      <trkpt lat="43.77948" lon="6.33953">
        <ele>925.7</ele>
        <time>2021-09-07T09:20:17.000Z</time>
      </trkpt>
      <trkpt lat="43.77947" lon="6.33953">
        <ele>925.7</ele>
        <time>2021-09-07T09:20:18.000Z</time>
      </trkpt>
      <trkpt lat="43.77947" lon="6.33953">
        <ele>925.7</ele>
        <time>2021-09-07T09:20:20.000Z</time>
      </trkpt>
      <trkpt lat="43.77947" lon="6.33953">
        <ele>925.7</ele>
        <time>2021-09-07T09:20:21.000Z</time>
      </trkpt>
      <trkpt lat="43.77947" lon="6.33953">
        <ele>926.2</ele>
        <time>2021-09-07T09:20:21.000Z</time>
      </trkpt>
      <trkpt lat="43.77946" lon="6.33953">
        <ele>926</ele>
        <time>2021-09-07T09:20:22.000Z</time>
      </trkpt>
      <trkpt lat="43.77946" lon="6.33953">
        <ele>926.2</ele>
        <time>2021-09-07T09:20:28.000Z</time>
      </trkpt>
      <trkpt lat="43.77945" lon="6.33953">
        <ele>926.2</ele>
        <time>2021-09-07T09:20:31.000Z</time>
      </trkpt>
      <trkpt lat="43.77945" lon="6.33953">
        <ele>926</ele>
        <time>2021-09-07T09:20:35.000Z</time>
      </trkpt>
      <trkpt lat="43.77944" lon="6.33953">
        <ele>926.9</ele>
        <time>2021-09-07T09:20:37.000Z</time>
      </trkpt>
      <trkpt lat="43.77943" lon="6.33953">
        <ele>927.1</ele>
        <time>2021-09-07T09:20:38.000Z</time>
      </trkpt>
      <trkpt lat="43.77944" lon="6.33953">
        <ele>926.6</ele>
        <time>2021-09-07T09:20:39.000Z</time>
      </trkpt>
      <trkpt lat="43.77943" lon="6.33953">
        <ele>927</ele>
        <time>2021-09-07T09:20:40.000Z</time>
      </trkpt>
      <trkpt lat="43.77942" lon="6.33952">
        <ele>926.9</ele>
        <time>2021-09-07T09:20:41.000Z</time>
      </trkpt>
      <trkpt lat="43.77939" lon="6.3395">
        <ele>927.3</ele>
        <time>2021-09-07T09:20:41.000Z</time>
      </trkpt>
      <trkpt lat="43.77937" lon="6.33948">
        <ele>927.5</ele>
        <time>2021-09-07T09:20:42.000Z</time>
      </trkpt>
      <trkpt lat="43.77935" lon="6.33945">
        <ele>927.6</ele>
        <time>2021-09-07T09:20:43.000Z</time>
      </trkpt>
      <trkpt lat="43.77938" lon="6.33949">
        <ele>927.3</ele>
        <time>2021-09-07T09:20:44.000Z</time>
      </trkpt>
      <trkpt lat="43.77935" lon="6.33946">
        <ele>927.5</ele>
        <time>2021-09-07T09:20:45.000Z</time>
      </trkpt>
      <trkpt lat="43.77934" lon="6.33944">
        <ele>927.7</ele>
        <time>2021-09-07T09:20:46.000Z</time>
      </trkpt>
      <trkpt lat="43.77928" lon="6.33936">
        <ele>928.4</ele>
        <time>2021-09-07T09:20:46.000Z</time>
      </trkpt>
      <trkpt lat="43.77923" lon="6.33929">
        <ele>928.7</ele>
        <time>2021-09-07T09:20:48.000Z</time>
      </trkpt>
      <trkpt lat="43.77927" lon="6.33935">
        <ele>928.4</ele>
        <time>2021-09-07T09:20:49.000Z</time>
      </trkpt>
      <trkpt lat="43.77922" lon="6.33926">
        <ele>928.8</ele>
        <time>2021-09-07T09:20:51.000Z</time>
      </trkpt>
      <trkpt lat="43.77914" lon="6.33911">
        <ele>929.4</ele>
        <time>2021-09-07T09:20:53.000Z</time>
      </trkpt>
      <trkpt lat="43.77912" lon="6.33908">
        <ele>929.6</ele>
        <time>2021-09-07T09:20:54.000Z</time>
      </trkpt>
      <trkpt lat="43.77908" lon="6.339">
        <ele>930</ele>
        <time>2021-09-07T09:20:56.000Z</time>
      </trkpt>
      <trkpt lat="43.77904" lon="6.33893">
        <ele>930.1</ele>
        <time>2021-09-07T09:20:58.000Z</time>
      </trkpt>
      <trkpt lat="43.77907" lon="6.33897">
        <ele>930.1</ele>
        <time>2021-09-07T09:20:59.000Z</time>
      </trkpt>
      <trkpt lat="43.77903" lon="6.33889">
        <ele>930.4</ele>
        <time>2021-09-07T09:20:59.000Z</time>
      </trkpt>
      <trkpt lat="43.77899" lon="6.33879">
        <ele>931</ele>
        <time>2021-09-07T09:21:02.000Z</time>
      </trkpt>
      <trkpt lat="43.77898" lon="6.33876">
        <ele>931.3</ele>
        <time>2021-09-07T09:21:03.000Z</time>
      </trkpt>
      <trkpt lat="43.77899" lon="6.33881">
        <ele>931</ele>
        <time>2021-09-07T09:21:04.000Z</time>
      </trkpt>
      <trkpt lat="43.77895" lon="6.3387">
        <ele>931.4</ele>
        <time>2021-09-07T09:21:05.000Z</time>
      </trkpt>
      <trkpt lat="43.77898" lon="6.33877">
        <ele>931.2</ele>
        <time>2021-09-07T09:21:05.000Z</time>
      </trkpt>
      <trkpt lat="43.77893" lon="6.33867">
        <ele>931.8</ele>
        <time>2021-09-07T09:21:06.000Z</time>
      </trkpt>
      <trkpt lat="43.77897" lon="6.33875">
        <ele>931.6</ele>
        <time>2021-09-07T09:21:06.000Z</time>
      </trkpt>
      <trkpt lat="43.77891" lon="6.33865">
        <ele>931.9</ele>
        <time>2021-09-07T09:21:07.000Z</time>
      </trkpt>
      <trkpt lat="43.77894" lon="6.33868">
        <ele>931.6</ele>
        <time>2021-09-07T09:21:08.000Z</time>
      </trkpt>
      <trkpt lat="43.77888" lon="6.33856">
        <ele>932.2</ele>
        <time>2021-09-07T09:21:13.000Z</time>
      </trkpt>
      <trkpt lat="43.77885" lon="6.3385">
        <ele>932.5</ele>
        <time>2021-09-07T09:21:13.000Z</time>
      </trkpt>
      <trkpt lat="43.77883" lon="6.33848">
        <ele>932.5</ele>
        <time>2021-09-07T09:21:14.000Z</time>
      </trkpt>
      <trkpt lat="43.77884" lon="6.33849">
        <ele>932.5</ele>
        <time>2021-09-07T09:21:16.000Z</time>
      </trkpt>
      <trkpt lat="43.77882" lon="6.33845">
        <ele>932.6</ele>
        <time>2021-09-07T09:21:17.000Z</time>
      </trkpt>
      <trkpt lat="43.77879" lon="6.3384">
        <ele>933.1</ele>
        <time>2021-09-07T09:21:17.000Z</time>
      </trkpt>
      <trkpt lat="43.77879" lon="6.33839">
        <ele>933.1</ele>
        <time>2021-09-07T09:21:20.000Z</time>
      </trkpt>
      <trkpt lat="43.77875" lon="6.33831">
        <ele>933.6</ele>
        <time>2021-09-07T09:21:20.000Z</time>
      </trkpt>
      <trkpt lat="43.77874" lon="6.33828">
        <ele>933.4</ele>
        <time>2021-09-07T09:21:21.000Z</time>
      </trkpt>
      <trkpt lat="43.77872" lon="6.33823">
        <ele>934</ele>
        <time>2021-09-07T09:21:23.000Z</time>
      </trkpt>
      <trkpt lat="43.77875" lon="6.33829">
        <ele>933.5</ele>
        <time>2021-09-07T09:21:23.000Z</time>
      </trkpt>
      <trkpt lat="43.77873" lon="6.33825">
        <ele>933.9</ele>
        <time>2021-09-07T09:21:24.000Z</time>
      </trkpt>
      <trkpt lat="43.77871" lon="6.33822">
        <ele>934.1</ele>
        <time>2021-09-07T09:21:26.000Z</time>
      </trkpt>
      <trkpt lat="43.77864" lon="6.33811">
        <ele>934.8</ele>
        <time>2021-09-07T09:21:27.000Z</time>
      </trkpt>
      <trkpt lat="43.77863" lon="6.33809">
        <ele>934.9</ele>
        <time>2021-09-07T09:21:30.000Z</time>
      </trkpt>
      <trkpt lat="43.77857" lon="6.33799">
        <ele>935.3</ele>
        <time>2021-09-07T09:21:31.000Z</time>
      </trkpt>
      <trkpt lat="43.77856" lon="6.33797">
        <ele>935.4</ele>
        <time>2021-09-07T09:21:34.000Z</time>
      </trkpt>
      <trkpt lat="43.77854" lon="6.33793">
        <ele>935.6</ele>
        <time>2021-09-07T09:21:35.000Z</time>
      </trkpt>
      <trkpt lat="43.7785" lon="6.33787">
        <ele>936.2</ele>
        <time>2021-09-07T09:21:35.000Z</time>
      </trkpt>
      <trkpt lat="43.77848" lon="6.33784">
        <ele>936.3</ele>
        <time>2021-09-07T09:21:36.000Z</time>
      </trkpt>
      <trkpt lat="43.77845" lon="6.33779">
        <ele>936.7</ele>
        <time>2021-09-07T09:21:38.000Z</time>
      </trkpt>
      <trkpt lat="43.77849" lon="6.33785">
        <ele>936.3</ele>
        <time>2021-09-07T09:21:38.000Z</time>
      </trkpt>
      <trkpt lat="43.77844" lon="6.33776">
        <ele>936.8</ele>
        <time>2021-09-07T09:21:39.000Z</time>
      </trkpt>
      <trkpt lat="43.77847" lon="6.33783">
        <ele>936.3</ele>
        <time>2021-09-07T09:21:39.000Z</time>
      </trkpt>
      <trkpt lat="43.77843" lon="6.33773">
        <ele>937.2</ele>
        <time>2021-09-07T09:21:40.000Z</time>
      </trkpt>
      <trkpt lat="43.77844" lon="6.33778">
        <ele>936.7</ele>
        <time>2021-09-07T09:21:41.000Z</time>
      </trkpt>
      <trkpt lat="43.77843" lon="6.33774">
        <ele>937.1</ele>
        <time>2021-09-07T09:21:42.000Z</time>
      </trkpt>
      <trkpt lat="43.77841" lon="6.33771">
        <ele>937.3</ele>
        <time>2021-09-07T09:21:43.000Z</time>
      </trkpt>
      <trkpt lat="43.77835" lon="6.33762">
        <ele>937.5</ele>
        <time>2021-09-07T09:21:44.000Z</time>
      </trkpt>
      <trkpt lat="43.77833" lon="6.33759">
        <ele>937.9</ele>
        <time>2021-09-07T09:21:45.000Z</time>
      </trkpt>
      <trkpt lat="43.77831" lon="6.33757">
        <ele>938.1</ele>
        <time>2021-09-07T09:21:46.000Z</time>
      </trkpt>
      <trkpt lat="43.77834" lon="6.3376">
        <ele>937.8</ele>
        <time>2021-09-07T09:21:47.000Z</time>
      </trkpt>
      <trkpt lat="43.7783" lon="6.33754">
        <ele>938.3</ele>
        <time>2021-09-07T09:21:47.000Z</time>
      </trkpt>
      <trkpt lat="43.77829" lon="6.33751">
        <ele>938.6</ele>
        <time>2021-09-07T09:21:48.000Z</time>
      </trkpt>
      <trkpt lat="43.77825" lon="6.33743">
        <ele>939.2</ele>
        <time>2021-09-07T09:21:53.000Z</time>
      </trkpt>
      <trkpt lat="43.7782" lon="6.33734">
        <ele>939.8</ele>
        <time>2021-09-07T09:21:54.000Z</time>
      </trkpt>
      <trkpt lat="43.77818" lon="6.3373">
        <ele>940.3</ele>
        <time>2021-09-07T09:21:56.000Z</time>
      </trkpt>
      <trkpt lat="43.77816" lon="6.33728">
        <ele>940.8</ele>
        <time>2021-09-07T09:21:57.000Z</time>
      </trkpt>
      <trkpt lat="43.77819" lon="6.33733">
        <ele>939.9</ele>
        <time>2021-09-07T09:21:57.000Z</time>
      </trkpt>
      <trkpt lat="43.77813" lon="6.33723">
        <ele>941</ele>
        <time>2021-09-07T09:21:59.000Z</time>
      </trkpt>
      <trkpt lat="43.77817" lon="6.33729">
        <ele>940.5</ele>
        <time>2021-09-07T09:21:59.000Z</time>
      </trkpt>
      <trkpt lat="43.77811" lon="6.3372">
        <ele>941.3</ele>
        <time>2021-09-07T09:22:00.000Z</time>
      </trkpt>
      <trkpt lat="43.77815" lon="6.33726">
        <ele>941</ele>
        <time>2021-09-07T09:22:00.000Z</time>
      </trkpt>
      <trkpt lat="43.77812" lon="6.33721">
        <ele>941.1</ele>
        <time>2021-09-07T09:22:02.000Z</time>
      </trkpt>
      <trkpt lat="43.7781" lon="6.33718">
        <ele>941.6</ele>
        <time>2021-09-07T09:22:03.000Z</time>
      </trkpt>
      <trkpt lat="43.77807" lon="6.33713">
        <ele>942.1</ele>
        <time>2021-09-07T09:22:03.000Z</time>
      </trkpt>
      <trkpt lat="43.77805" lon="6.33712">
        <ele>942.5</ele>
        <time>2021-09-07T09:22:04.000Z</time>
      </trkpt>
      <trkpt lat="43.77805" lon="6.33712">
        <ele>942.4</ele>
        <time>2021-09-07T09:22:06.000Z</time>
      </trkpt>
      <trkpt lat="43.77804" lon="6.3371">
        <ele>942.6</ele>
        <time>2021-09-07T09:22:07.000Z</time>
      </trkpt>
      <trkpt lat="43.77801" lon="6.33704">
        <ele>943.3</ele>
        <time>2021-09-07T09:22:07.000Z</time>
      </trkpt>
      <trkpt lat="43.77799" lon="6.33697">
        <ele>943.5</ele>
        <time>2021-09-07T09:22:09.000Z</time>
      </trkpt>
      <trkpt lat="43.77797" lon="6.33694">
        <ele>943.9</ele>
        <time>2021-09-07T09:22:10.000Z</time>
      </trkpt>
      <trkpt lat="43.778" lon="6.33701">
        <ele>943.3</ele>
        <time>2021-09-07T09:22:10.000Z</time>
      </trkpt>
      <trkpt lat="43.77795" lon="6.3369">
        <ele>944.2</ele>
        <time>2021-09-07T09:22:12.000Z</time>
      </trkpt>
      <trkpt lat="43.77798" lon="6.33696">
        <ele>943.6</ele>
        <time>2021-09-07T09:22:12.000Z</time>
      </trkpt>
      <trkpt lat="43.77793" lon="6.33688">
        <ele>944.5</ele>
        <time>2021-09-07T09:22:13.000Z</time>
      </trkpt>
      <trkpt lat="43.77797" lon="6.33693">
        <ele>944.1</ele>
        <time>2021-09-07T09:22:13.000Z</time>
      </trkpt>
      <trkpt lat="43.77793" lon="6.33685">
        <ele>945.1</ele>
        <time>2021-09-07T09:22:14.000Z</time>
      </trkpt>
      <trkpt lat="43.77794" lon="6.33689">
        <ele>944.4</ele>
        <time>2021-09-07T09:22:15.000Z</time>
      </trkpt>
      <trkpt lat="43.77791" lon="6.33679">
        <ele>946</ele>
        <time>2021-09-07T09:22:16.000Z</time>
      </trkpt>
      <trkpt lat="43.77793" lon="6.33685">
        <ele>945</ele>
        <time>2021-09-07T09:22:16.000Z</time>
      </trkpt>
      <trkpt lat="43.77792" lon="6.33682">
        <ele>945.4</ele>
        <time>2021-09-07T09:22:17.000Z</time>
      </trkpt>
      <trkpt lat="43.7779" lon="6.33676">
        <ele>946.1</ele>
        <time>2021-09-07T09:22:19.000Z</time>
      </trkpt>
      <trkpt lat="43.77786" lon="6.33669">
        <ele>946.3</ele>
        <time>2021-09-07T09:22:19.000Z</time>
      </trkpt>
      <trkpt lat="43.77784" lon="6.33664">
        <ele>946.6</ele>
        <time>2021-09-07T09:22:21.000Z</time>
      </trkpt>
      <trkpt lat="43.77782" lon="6.33661">
        <ele>946.8</ele>
        <time>2021-09-07T09:22:22.000Z</time>
      </trkpt>
      <trkpt lat="43.77786" lon="6.33668">
        <ele>946.4</ele>
        <time>2021-09-07T09:22:22.000Z</time>
      </trkpt>
      <trkpt lat="43.77781" lon="6.33658">
        <ele>946.9</ele>
        <time>2021-09-07T09:22:23.000Z</time>
      </trkpt>
      <trkpt lat="43.77778" lon="6.33655">
        <ele>947</ele>
        <time>2021-09-07T09:22:24.000Z</time>
      </trkpt>
      <trkpt lat="43.77783" lon="6.33663">
        <ele>946.7</ele>
        <time>2021-09-07T09:22:24.000Z</time>
      </trkpt>
      <trkpt lat="43.77782" lon="6.33659">
        <ele>946.9</ele>
        <time>2021-09-07T09:22:25.000Z</time>
      </trkpt>
      <trkpt lat="43.77779" lon="6.33656">
        <ele>947</ele>
        <time>2021-09-07T09:22:26.000Z</time>
      </trkpt>
      <trkpt lat="43.77777" lon="6.33654">
        <ele>947.3</ele>
        <time>2021-09-07T09:22:27.000Z</time>
      </trkpt>
      <trkpt lat="43.77774" lon="6.33647">
        <ele>947.8</ele>
        <time>2021-09-07T09:22:27.000Z</time>
      </trkpt>
      <trkpt lat="43.77772" lon="6.33644">
        <ele>948.1</ele>
        <time>2021-09-07T09:22:30.000Z</time>
      </trkpt>
      <trkpt lat="43.77769" lon="6.33638">
        <ele>948.9</ele>
        <time>2021-09-07T09:22:30.000Z</time>
      </trkpt>
      <trkpt lat="43.77768" lon="6.33636">
        <ele>948.9</ele>
        <time>2021-09-07T09:22:33.000Z</time>
      </trkpt>
      <trkpt lat="43.77765" lon="6.33625">
        <ele>949.4</ele>
        <time>2021-09-07T09:22:34.000Z</time>
      </trkpt>
      <trkpt lat="43.77764" lon="6.33622">
        <ele>949.9</ele>
        <time>2021-09-07T09:22:35.000Z</time>
      </trkpt>
      <trkpt lat="43.77764" lon="6.33623">
        <ele>949.7</ele>
        <time>2021-09-07T09:22:37.000Z</time>
      </trkpt>
      <trkpt lat="43.77763" lon="6.3362">
        <ele>949.9</ele>
        <time>2021-09-07T09:22:38.000Z</time>
      </trkpt>
      <trkpt lat="43.77758" lon="6.33606">
        <ele>950.8</ele>
        <time>2021-09-07T09:22:40.000Z</time>
      </trkpt>
      <trkpt lat="43.77758" lon="6.33602">
        <ele>950.8</ele>
        <time>2021-09-07T09:22:41.000Z</time>
      </trkpt>
      <trkpt lat="43.77756" lon="6.33598">
        <ele>951.3</ele>
        <time>2021-09-07T09:22:42.000Z</time>
      </trkpt>
      <trkpt lat="43.77758" lon="6.33604">
        <ele>950.8</ele>
        <time>2021-09-07T09:22:43.000Z</time>
      </trkpt>
      <trkpt lat="43.77754" lon="6.33592">
        <ele>951.8</ele>
        <time>2021-09-07T09:22:44.000Z</time>
      </trkpt>
      <trkpt lat="43.77757" lon="6.336">
        <ele>951</ele>
        <time>2021-09-07T09:22:44.000Z</time>
      </trkpt>
      <trkpt lat="43.77753" lon="6.33588">
        <ele>952</ele>
        <time>2021-09-07T09:22:45.000Z</time>
      </trkpt>
      <trkpt lat="43.77755" lon="6.33596">
        <ele>951.4</ele>
        <time>2021-09-07T09:22:45.000Z</time>
      </trkpt>
      <trkpt lat="43.77753" lon="6.33584">
        <ele>952.7</ele>
        <time>2021-09-07T09:22:46.000Z</time>
      </trkpt>
      <trkpt lat="43.77751" lon="6.33581">
        <ele>952.7</ele>
        <time>2021-09-07T09:22:47.000Z</time>
      </trkpt>
      <trkpt lat="43.77754" lon="6.3359">
        <ele>951.8</ele>
        <time>2021-09-07T09:22:47.000Z</time>
      </trkpt>
      <trkpt lat="43.7775" lon="6.33578">
        <ele>952.9</ele>
        <time>2021-09-07T09:22:48.000Z</time>
      </trkpt>
      <trkpt lat="43.77753" lon="6.33586">
        <ele>952.5</ele>
        <time>2021-09-07T09:22:48.000Z</time>
      </trkpt>
      <trkpt lat="43.77752" lon="6.33582">
        <ele>952.7</ele>
        <time>2021-09-07T09:22:49.000Z</time>
      </trkpt>
      <trkpt lat="43.7775" lon="6.33579">
        <ele>952.7</ele>
        <time>2021-09-07T09:22:50.000Z</time>
      </trkpt>
      <trkpt lat="43.77748" lon="6.33576">
        <ele>953.1</ele>
        <time>2021-09-07T09:22:51.000Z</time>
      </trkpt>
      <trkpt lat="43.77745" lon="6.33566">
        <ele>953.8</ele>
        <time>2021-09-07T09:22:52.000Z</time>
      </trkpt>
      <trkpt lat="43.77743" lon="6.33564">
        <ele>954.1</ele>
        <time>2021-09-07T09:22:53.000Z</time>
      </trkpt>
      <trkpt lat="43.77744" lon="6.33565">
        <ele>954.1</ele>
        <time>2021-09-07T09:22:55.000Z</time>
      </trkpt>
      <trkpt lat="43.77742" lon="6.33561">
        <ele>954.4</ele>
        <time>2021-09-07T09:22:56.000Z</time>
      </trkpt>
      <trkpt lat="43.77737" lon="6.33553">
        <ele>955</ele>
        <time>2021-09-07T09:22:57.000Z</time>
      </trkpt>
      <trkpt lat="43.77736" lon="6.33551">
        <ele>955.4</ele>
        <time>2021-09-07T09:23:00.000Z</time>
      </trkpt>
      <trkpt lat="43.7773" lon="6.33541">
        <ele>956</ele>
        <time>2021-09-07T09:23:01.000Z</time>
      </trkpt>
      <trkpt lat="43.77729" lon="6.33539">
        <ele>956.1</ele>
        <time>2021-09-07T09:23:04.000Z</time>
      </trkpt>
      <trkpt lat="43.77718" lon="6.33527">
        <ele>957</ele>
        <time>2021-09-07T09:23:07.000Z</time>
      </trkpt>
      <trkpt lat="43.77719" lon="6.33527">
        <ele>957</ele>
        <time>2021-09-07T09:23:09.000Z</time>
      </trkpt>
      <trkpt lat="43.77716" lon="6.33526">
        <ele>957.1</ele>
        <time>2021-09-07T09:23:10.000Z</time>
      </trkpt>
      <trkpt lat="43.77711" lon="6.3352">
        <ele>957.8</ele>
        <time>2021-09-07T09:23:10.000Z</time>
      </trkpt>
      <trkpt lat="43.77709" lon="6.33517">
        <ele>958.2</ele>
        <time>2021-09-07T09:23:11.000Z</time>
      </trkpt>
      <trkpt lat="43.77705" lon="6.33509">
        <ele>958.7</ele>
        <time>2021-09-07T09:23:13.000Z</time>
      </trkpt>
      <trkpt lat="43.7771" lon="6.33518">
        <ele>957.9</ele>
        <time>2021-09-07T09:23:13.000Z</time>
      </trkpt>
      <trkpt lat="43.77707" lon="6.33513">
        <ele>958.3</ele>
        <time>2021-09-07T09:23:14.000Z</time>
      </trkpt>
      <trkpt lat="43.77703" lon="6.33507">
        <ele>958.7</ele>
        <time>2021-09-07T09:23:16.000Z</time>
      </trkpt>
      <trkpt lat="43.77699" lon="6.335">
        <ele>958.9</ele>
        <time>2021-09-07T09:23:16.000Z</time>
      </trkpt>
      <trkpt lat="43.77697" lon="6.33496">
        <ele>959.5</ele>
        <time>2021-09-07T09:23:17.000Z</time>
      </trkpt>
      <trkpt lat="43.77695" lon="6.33493">
        <ele>959.4</ele>
        <time>2021-09-07T09:23:18.000Z</time>
      </trkpt>
      <trkpt lat="43.77698" lon="6.33499">
        <ele>959.1</ele>
        <time>2021-09-07T09:23:19.000Z</time>
      </trkpt>
      <trkpt lat="43.7769" lon="6.33484">
        <ele>959.8</ele>
        <time>2021-09-07T09:23:21.000Z</time>
      </trkpt>
      <trkpt lat="43.77688" lon="6.33481">
        <ele>959.9</ele>
        <time>2021-09-07T09:23:22.000Z</time>
      </trkpt>
      <trkpt lat="43.77687" lon="6.33477">
        <ele>960</ele>
        <time>2021-09-07T09:23:23.000Z</time>
      </trkpt>
      <trkpt lat="43.77686" lon="6.33474">
        <ele>960.2</ele>
        <time>2021-09-07T09:23:24.000Z</time>
      </trkpt>
      <trkpt lat="43.77689" lon="6.33482">
        <ele>959.8</ele>
        <time>2021-09-07T09:23:24.000Z</time>
      </trkpt>
      <trkpt lat="43.77688" lon="6.33479">
        <ele>959.9</ele>
        <time>2021-09-07T09:23:25.000Z</time>
      </trkpt>
      <trkpt lat="43.77683" lon="6.33468">
        <ele>960.4</ele>
        <time>2021-09-07T09:23:26.000Z</time>
      </trkpt>
      <trkpt lat="43.7768" lon="6.33461">
        <ele>960.3</ele>
        <time>2021-09-07T09:23:28.000Z</time>
      </trkpt>
      <trkpt lat="43.77682" lon="6.33465">
        <ele>960.5</ele>
        <time>2021-09-07T09:23:29.000Z</time>
      </trkpt>
      <trkpt lat="43.77679" lon="6.33458">
        <ele>960.5</ele>
        <time>2021-09-07T09:23:31.000Z</time>
      </trkpt>
      <trkpt lat="43.77676" lon="6.33452">
        <ele>960.9</ele>
        <time>2021-09-07T09:23:31.000Z</time>
      </trkpt>
      <trkpt lat="43.77675" lon="6.33449">
        <ele>960.9</ele>
        <time>2021-09-07T09:23:32.000Z</time>
      </trkpt>
      <trkpt lat="43.77674" lon="6.33446">
        <ele>961</ele>
        <time>2021-09-07T09:23:33.000Z</time>
      </trkpt>
      <trkpt lat="43.77676" lon="6.33451">
        <ele>960.9</ele>
        <time>2021-09-07T09:23:34.000Z</time>
      </trkpt>
      <trkpt lat="43.77674" lon="6.33447">
        <ele>961</ele>
        <time>2021-09-07T09:23:35.000Z</time>
      </trkpt>
      <trkpt lat="43.77673" lon="6.33443">
        <ele>961</ele>
        <time>2021-09-07T09:23:36.000Z</time>
      </trkpt>
      <trkpt lat="43.77671" lon="6.33438">
        <ele>961.4</ele>
        <time>2021-09-07T09:23:36.000Z</time>
      </trkpt>
      <trkpt lat="43.77671" lon="6.33438">
        <ele>961.4</ele>
        <time>2021-09-07T09:23:36.000Z</time>
      </trkpt>
      <trkpt lat="43.77668" lon="6.33432">
        <ele>961.5</ele>
        <time>2021-09-07T09:23:38.000Z</time>
      </trkpt>
      <trkpt lat="43.7767" lon="6.33437">
        <ele>961.4</ele>
        <time>2021-09-07T09:23:39.000Z</time>
      </trkpt>
      <trkpt lat="43.77667" lon="6.33429">
        <ele>961.5</ele>
        <time>2021-09-07T09:23:39.000Z</time>
      </trkpt>
      <trkpt lat="43.77665" lon="6.33423">
        <ele>961.6</ele>
        <time>2021-09-07T09:23:41.000Z</time>
      </trkpt>
      <trkpt lat="43.77664" lon="6.3342">
        <ele>961.5</ele>
        <time>2021-09-07T09:23:42.000Z</time>
      </trkpt>
      <trkpt lat="43.77658" lon="6.33407">
        <ele>961.3</ele>
        <time>2021-09-07T09:23:47.000Z</time>
      </trkpt>
      <trkpt lat="43.77651" lon="6.33392">
        <ele>961.2</ele>
        <time>2021-09-07T09:23:52.000Z</time>
      </trkpt>
      <trkpt lat="43.77653" lon="6.33396">
        <ele>961.4</ele>
        <time>2021-09-07T09:23:53.000Z</time>
      </trkpt>
      <trkpt lat="43.7765" lon="6.33389">
        <ele>961.2</ele>
        <time>2021-09-07T09:23:53.000Z</time>
      </trkpt>
      <trkpt lat="43.77648" lon="6.33385">
        <ele>961.4</ele>
        <time>2021-09-07T09:23:54.000Z</time>
      </trkpt>
      <trkpt lat="43.77644" lon="6.33379">
        <ele>961.3</ele>
        <time>2021-09-07T09:23:56.000Z</time>
      </trkpt>
      <trkpt lat="43.77641" lon="6.33376">
        <ele>961.2</ele>
        <time>2021-09-07T09:23:57.000Z</time>
      </trkpt>
      <trkpt lat="43.77647" lon="6.33383">
        <ele>961.3</ele>
        <time>2021-09-07T09:23:57.000Z</time>
      </trkpt>
      <trkpt lat="43.77638" lon="6.33373">
        <ele>961.1</ele>
        <time>2021-09-07T09:23:58.000Z</time>
      </trkpt>
      <trkpt lat="43.77635" lon="6.33369">
        <ele>961.1</ele>
        <time>2021-09-07T09:23:59.000Z</time>
      </trkpt>
      <trkpt lat="43.77642" lon="6.33378">
        <ele>961.2</ele>
        <time>2021-09-07T09:23:59.000Z</time>
      </trkpt>
      <trkpt lat="43.77639" lon="6.33374">
        <ele>961.1</ele>
        <time>2021-09-07T09:24:00.000Z</time>
      </trkpt>
      <trkpt lat="43.77637" lon="6.33371">
        <ele>961</ele>
        <time>2021-09-07T09:24:01.000Z</time>
      </trkpt>
      <trkpt lat="43.77633" lon="6.33366">
        <ele>961.1</ele>
        <time>2021-09-07T09:24:02.000Z</time>
      </trkpt>
      <trkpt lat="43.77626" lon="6.33358">
        <ele>961</ele>
        <time>2021-09-07T09:24:02.000Z</time>
      </trkpt>
      <trkpt lat="43.77617" lon="6.3335">
        <ele>961.3</ele>
        <time>2021-09-07T09:24:04.000Z</time>
      </trkpt>
      <trkpt lat="43.77613" lon="6.33347">
        <ele>961.6</ele>
        <time>2021-09-07T09:24:05.000Z</time>
      </trkpt>
      <trkpt lat="43.77622" lon="6.33354">
        <ele>961.1</ele>
        <time>2021-09-07T09:24:05.000Z</time>
      </trkpt>
      <trkpt lat="43.77608" lon="6.33345">
        <ele>961.6</ele>
        <time>2021-09-07T09:24:06.000Z</time>
      </trkpt>
      <trkpt lat="43.77615" lon="6.33349">
        <ele>961.5</ele>
        <time>2021-09-07T09:24:07.000Z</time>
      </trkpt>
      <trkpt lat="43.77593" lon="6.33338">
        <ele>961.3</ele>
        <time>2021-09-07T09:24:09.000Z</time>
      </trkpt>
      <trkpt lat="43.77577" lon="6.33331">
        <ele>961.8</ele>
        <time>2021-09-07T09:24:11.000Z</time>
      </trkpt>
      <trkpt lat="43.77588" lon="6.33336">
        <ele>961.3</ele>
        <time>2021-09-07T09:24:12.000Z</time>
      </trkpt>
      <trkpt lat="43.77571" lon="6.33329">
        <ele>961.6</ele>
        <time>2021-09-07T09:24:12.000Z</time>
      </trkpt>
      <trkpt lat="43.77549" lon="6.33317">
        <ele>962.3</ele>
        <time>2021-09-07T09:24:17.000Z</time>
      </trkpt>
      <trkpt lat="43.77532" lon="6.33298">
        <ele>963.9</ele>
        <time>2021-09-07T09:24:22.000Z</time>
      </trkpt>
      <trkpt lat="43.77515" lon="6.33277">
        <ele>965.4</ele>
        <time>2021-09-07T09:24:27.000Z</time>
      </trkpt>
      <trkpt lat="43.77495" lon="6.33254">
        <ele>967</ele>
        <time>2021-09-07T09:24:32.000Z</time>
      </trkpt>
      <trkpt lat="43.77477" lon="6.3323">
        <ele>968.2</ele>
        <time>2021-09-07T09:24:37.000Z</time>
      </trkpt>
      <trkpt lat="43.77459" lon="6.33205">
        <ele>968.5</ele>
        <time>2021-09-07T09:24:42.000Z</time>
      </trkpt>
      <trkpt lat="43.77436" lon="6.33187">
        <ele>968.5</ele>
        <time>2021-09-07T09:24:47.000Z</time>
      </trkpt>
      <trkpt lat="43.77412" lon="6.33173">
        <ele>968.9</ele>
        <time>2021-09-07T09:24:52.000Z</time>
      </trkpt>
      <trkpt lat="43.77379" lon="6.33166">
        <ele>968.9</ele>
        <time>2021-09-07T09:24:57.000Z</time>
      </trkpt>
      <trkpt lat="43.7735" lon="6.33156">
        <ele>970</ele>
        <time>2021-09-07T09:25:02.000Z</time>
      </trkpt>
      <trkpt lat="43.77332" lon="6.33138">
        <ele>970.5</ele>
        <time>2021-09-07T09:25:07.000Z</time>
      </trkpt>
      <trkpt lat="43.7732" lon="6.33108">
        <ele>971.5</ele>
        <time>2021-09-07T09:25:12.000Z</time>
      </trkpt>
      <trkpt lat="43.77312" lon="6.33079">
        <ele>972.6</ele>
        <time>2021-09-07T09:25:17.000Z</time>
      </trkpt>
      <trkpt lat="43.77303" lon="6.33052">
        <ele>973.8</ele>
        <time>2021-09-07T09:25:22.000Z</time>
      </trkpt>
      <trkpt lat="43.77294" lon="6.33022">
        <ele>974.9</ele>
        <time>2021-09-07T09:25:27.000Z</time>
      </trkpt>
      <trkpt lat="43.77285" lon="6.32993">
        <ele>975.8</ele>
        <time>2021-09-07T09:25:32.000Z</time>
      </trkpt>
      <trkpt lat="43.77279" lon="6.32966">
        <ele>977</ele>
        <time>2021-09-07T09:25:37.000Z</time>
      </trkpt>
      <trkpt lat="43.77274" lon="6.32942">
        <ele>978</ele>
        <time>2021-09-07T09:25:42.000Z</time>
      </trkpt>
      <trkpt lat="43.77272" lon="6.32931">
        <ele>978.7</ele>
        <time>2021-09-07T09:25:45.000Z</time>
      </trkpt>
      <trkpt lat="43.77272" lon="6.32923">
        <ele>978.8</ele>
        <time>2021-09-07T09:25:46.000Z</time>
      </trkpt>
      <trkpt lat="43.77272" lon="6.32934">
        <ele>978.6</ele>
        <time>2021-09-07T09:25:47.000Z</time>
      </trkpt>
      <trkpt lat="43.77272" lon="6.32909">
        <ele>979.2</ele>
        <time>2021-09-07T09:25:48.000Z</time>
      </trkpt>
      <trkpt lat="43.77272" lon="6.32927">
        <ele>978.7</ele>
        <time>2021-09-07T09:25:48.000Z</time>
      </trkpt>
      <trkpt lat="43.77272" lon="6.32917">
        <ele>979.1</ele>
        <time>2021-09-07T09:25:49.000Z</time>
      </trkpt>
      <trkpt lat="43.77272" lon="6.32904">
        <ele>979.3</ele>
        <time>2021-09-07T09:25:49.000Z</time>
      </trkpt>
      <trkpt lat="43.77272" lon="6.32887">
        <ele>980.3</ele>
        <time>2021-09-07T09:25:52.000Z</time>
      </trkpt>
      <trkpt lat="43.77273" lon="6.32882">
        <ele>980.8</ele>
        <time>2021-09-07T09:25:53.000Z</time>
      </trkpt>
      <trkpt lat="43.77274" lon="6.32877">
        <ele>980.9</ele>
        <time>2021-09-07T09:25:54.000Z</time>
      </trkpt>
      <trkpt lat="43.77272" lon="6.32889">
        <ele>980.2</ele>
        <time>2021-09-07T09:25:54.000Z</time>
      </trkpt>
      <trkpt lat="43.77273" lon="6.32884">
        <ele>980.5</ele>
        <time>2021-09-07T09:25:55.000Z</time>
      </trkpt>
      <trkpt lat="43.77277" lon="6.32863">
        <ele>981.3</ele>
        <time>2021-09-07T09:25:57.000Z</time>
      </trkpt>
      <trkpt lat="43.7728" lon="6.32854">
        <ele>981.4</ele>
        <time>2021-09-07T09:25:59.000Z</time>
      </trkpt>
      <trkpt lat="43.77278" lon="6.32859">
        <ele>981.3</ele>
        <time>2021-09-07T09:26:00.000Z</time>
      </trkpt>
      <trkpt lat="43.77282" lon="6.32845">
        <ele>981.8</ele>
        <time>2021-09-07T09:26:01.000Z</time>
      </trkpt>
      <trkpt lat="43.77283" lon="6.3284">
        <ele>981.5</ele>
        <time>2021-09-07T09:26:02.000Z</time>
      </trkpt>
      <trkpt lat="43.77281" lon="6.32852">
        <ele>981.4</ele>
        <time>2021-09-07T09:26:02.000Z</time>
      </trkpt>
      <trkpt lat="43.77285" lon="6.32836">
        <ele>981.8</ele>
        <time>2021-09-07T09:26:03.000Z</time>
      </trkpt>
      <trkpt lat="43.77283" lon="6.32844">
        <ele>981.7</ele>
        <time>2021-09-07T09:26:04.000Z</time>
      </trkpt>
      <trkpt lat="43.77288" lon="6.32825">
        <ele>982.1</ele>
        <time>2021-09-07T09:26:05.000Z</time>
      </trkpt>
      <trkpt lat="43.7729" lon="6.3282">
        <ele>982.5</ele>
        <time>2021-09-07T09:26:06.000Z</time>
      </trkpt>
      <trkpt lat="43.77291" lon="6.32816">
        <ele>982.6</ele>
        <time>2021-09-07T09:26:07.000Z</time>
      </trkpt>
      <trkpt lat="43.7729" lon="6.32822">
        <ele>982.4</ele>
        <time>2021-09-07T09:26:08.000Z</time>
      </trkpt>
      <trkpt lat="43.77292" lon="6.3281">
        <ele>982.9</ele>
        <time>2021-09-07T09:26:08.000Z</time>
      </trkpt>
      <trkpt lat="43.77294" lon="6.32799">
        <ele>983.4</ele>
        <time>2021-09-07T09:26:10.000Z</time>
      </trkpt>
      <trkpt lat="43.77295" lon="6.32793">
        <ele>983.3</ele>
        <time>2021-09-07T09:26:11.000Z</time>
      </trkpt>
      <trkpt lat="43.77293" lon="6.32805">
        <ele>983.1</ele>
        <time>2021-09-07T09:26:11.000Z</time>
      </trkpt>
      <trkpt lat="43.77296" lon="6.32788">
        <ele>983.4</ele>
        <time>2021-09-07T09:26:12.000Z</time>
      </trkpt>
      <trkpt lat="43.77294" lon="6.32795">
        <ele>983.4</ele>
        <time>2021-09-07T09:26:13.000Z</time>
      </trkpt>
      <trkpt lat="43.77299" lon="6.32771">
        <ele>983.9</ele>
        <time>2021-09-07T09:26:15.000Z</time>
      </trkpt>
      <trkpt lat="43.77299" lon="6.32765">
        <ele>984.1</ele>
        <time>2021-09-07T09:26:16.000Z</time>
      </trkpt>
      <trkpt lat="43.77299" lon="6.3275">
        <ele>984.8</ele>
        <time>2021-09-07T09:26:21.000Z</time>
      </trkpt>
      <trkpt lat="43.77299" lon="6.32737">
        <ele>984.9</ele>
        <time>2021-09-07T09:26:21.000Z</time>
      </trkpt>
      <trkpt lat="43.77299" lon="6.32732">
        <ele>985.1</ele>
        <time>2021-09-07T09:26:22.000Z</time>
      </trkpt>
      <trkpt lat="43.77298" lon="6.32727">
        <ele>985.3</ele>
        <time>2021-09-07T09:26:23.000Z</time>
      </trkpt>
      <trkpt lat="43.77298" lon="6.32722">
        <ele>985.5</ele>
        <time>2021-09-07T09:26:24.000Z</time>
      </trkpt>
      <trkpt lat="43.77299" lon="6.32734">
        <ele>985.1</ele>
        <time>2021-09-07T09:26:24.000Z</time>
      </trkpt>
      <trkpt lat="43.77299" lon="6.32729">
        <ele>985.2</ele>
        <time>2021-09-07T09:26:25.000Z</time>
      </trkpt>
      <trkpt lat="43.77297" lon="6.32712">
        <ele>985.9</ele>
        <time>2021-09-07T09:26:26.000Z</time>
      </trkpt>
      <trkpt lat="43.77298" lon="6.32723">
        <ele>985.4</ele>
        <time>2021-09-07T09:26:26.000Z</time>
      </trkpt>
      <trkpt lat="43.77296" lon="6.32708">
        <ele>985.7</ele>
        <time>2021-09-07T09:26:27.000Z</time>
      </trkpt>
      <trkpt lat="43.77298" lon="6.32718">
        <ele>985.6</ele>
        <time>2021-09-07T09:26:27.000Z</time>
      </trkpt>
      <trkpt lat="43.77294" lon="6.32705">
        <ele>986.1</ele>
        <time>2021-09-07T09:26:28.000Z</time>
      </trkpt>
      <trkpt lat="43.77297" lon="6.32711">
        <ele>985.8</ele>
        <time>2021-09-07T09:26:29.000Z</time>
      </trkpt>
      <trkpt lat="43.77291" lon="6.32696">
        <ele>986.1</ele>
        <time>2021-09-07T09:26:30.000Z</time>
      </trkpt>
      <trkpt lat="43.77295" lon="6.32706">
        <ele>986</ele>
        <time>2021-09-07T09:26:30.000Z</time>
      </trkpt>
      <trkpt lat="43.77293" lon="6.327">
        <ele>986</ele>
        <time>2021-09-07T09:26:31.000Z</time>
      </trkpt>
      <trkpt lat="43.77286" lon="6.32688">
        <ele>986.3</ele>
        <time>2021-09-07T09:26:32.000Z</time>
      </trkpt>
      <trkpt lat="43.77284" lon="6.32682">
        <ele>986.4</ele>
        <time>2021-09-07T09:26:33.000Z</time>
      </trkpt>
      <trkpt lat="43.7729" lon="6.32694">
        <ele>986.1</ele>
        <time>2021-09-07T09:26:33.000Z</time>
      </trkpt>
      <trkpt lat="43.77285" lon="6.32685">
        <ele>986.3</ele>
        <time>2021-09-07T09:26:35.000Z</time>
      </trkpt>
      <trkpt lat="43.77282" lon="6.32678">
        <ele>986.5</ele>
        <time>2021-09-07T09:26:36.000Z</time>
      </trkpt>
      <trkpt lat="43.77276" lon="6.32661">
        <ele>986.9</ele>
        <time>2021-09-07T09:26:37.000Z</time>
      </trkpt>
      <trkpt lat="43.77273" lon="6.32656">
        <ele>987.2</ele>
        <time>2021-09-07T09:26:38.000Z</time>
      </trkpt>
      <trkpt lat="43.77271" lon="6.3265">
        <ele>987</ele>
        <time>2021-09-07T09:26:39.000Z</time>
      </trkpt>
      <trkpt lat="43.77267" lon="6.32639">
        <ele>987.5</ele>
        <time>2021-09-07T09:26:41.000Z</time>
      </trkpt>
      <trkpt lat="43.77266" lon="6.32633">
        <ele>987.7</ele>
        <time>2021-09-07T09:26:42.000Z</time>
      </trkpt>
      <trkpt lat="43.7727" lon="6.32646">
        <ele>987.1</ele>
        <time>2021-09-07T09:26:42.000Z</time>
      </trkpt>
      <trkpt lat="43.77267" lon="6.32638">
        <ele>987.6</ele>
        <time>2021-09-07T09:26:44.000Z</time>
      </trkpt>
      <trkpt lat="43.77265" lon="6.32629">
        <ele>987.7</ele>
        <time>2021-09-07T09:26:45.000Z</time>
      </trkpt>
      <trkpt lat="43.77265" lon="6.32629">
        <ele>987.7</ele>
        <time>2021-09-07T09:26:45.000Z</time>
      </trkpt>
      <trkpt lat="43.77263" lon="6.3262">
        <ele>988.2</ele>
        <time>2021-09-07T09:26:47.000Z</time>
      </trkpt>
      <trkpt lat="43.77263" lon="6.32614">
        <ele>988.4</ele>
        <time>2021-09-07T09:26:48.000Z</time>
      </trkpt>
      <trkpt lat="43.77263" lon="6.326">
        <ele>989.1</ele>
        <time>2021-09-07T09:26:48.000Z</time>
      </trkpt>
      <trkpt lat="43.77264" lon="6.32587">
        <ele>989.4</ele>
        <time>2021-09-07T09:26:50.000Z</time>
      </trkpt>
      <trkpt lat="43.77265" lon="6.3258">
        <ele>989.6</ele>
        <time>2021-09-07T09:26:51.000Z</time>
      </trkpt>
      <trkpt lat="43.77263" lon="6.32594">
        <ele>989.2</ele>
        <time>2021-09-07T09:26:51.000Z</time>
      </trkpt>
      <trkpt lat="43.77264" lon="6.32584">
        <ele>989.6</ele>
        <time>2021-09-07T09:26:53.000Z</time>
      </trkpt>
      <trkpt lat="43.77266" lon="6.32575">
        <ele>989.9</ele>
        <time>2021-09-07T09:26:54.000Z</time>
      </trkpt>
      <trkpt lat="43.77267" lon="6.32563">
        <ele>989.9</ele>
        <time>2021-09-07T09:26:54.000Z</time>
      </trkpt>
      <trkpt lat="43.77268" lon="6.32557">
        <ele>990.2</ele>
        <time>2021-09-07T09:26:55.000Z</time>
      </trkpt>
      <trkpt lat="43.77269" lon="6.32552">
        <ele>990.3</ele>
        <time>2021-09-07T09:26:56.000Z</time>
      </trkpt>
      <trkpt lat="43.77267" lon="6.32561">
        <ele>990</ele>
        <time>2021-09-07T09:26:57.000Z</time>
      </trkpt>
      <trkpt lat="43.7727" lon="6.32542">
        <ele>990.4</ele>
        <time>2021-09-07T09:26:58.000Z</time>
      </trkpt>
      <trkpt lat="43.7727" lon="6.32536">
        <ele>990.3</ele>
        <time>2021-09-07T09:26:59.000Z</time>
      </trkpt>
      <trkpt lat="43.7727" lon="6.32523">
        <ele>990.4</ele>
        <time>2021-09-07T09:27:01.000Z</time>
      </trkpt>
      <trkpt lat="43.7727" lon="6.32538">
        <ele>990.3</ele>
        <time>2021-09-07T09:27:01.000Z</time>
      </trkpt>
      <trkpt lat="43.77271" lon="6.3253">
        <ele>990.4</ele>
        <time>2021-09-07T09:27:02.000Z</time>
      </trkpt>
      <trkpt lat="43.77268" lon="6.32518">
        <ele>990.5</ele>
        <time>2021-09-07T09:27:02.000Z</time>
      </trkpt>
      <trkpt lat="43.77258" lon="6.32502">
        <ele>990.5</ele>
        <time>2021-09-07T09:27:05.000Z</time>
      </trkpt>
      <trkpt lat="43.77254" lon="6.32496">
        <ele>990.6</ele>
        <time>2021-09-07T09:27:06.000Z</time>
      </trkpt>
      <trkpt lat="43.7726" lon="6.32504">
        <ele>990.6</ele>
        <time>2021-09-07T09:27:07.000Z</time>
      </trkpt>
      <trkpt lat="43.77233" lon="6.32467">
        <ele>991.6</ele>
        <time>2021-09-07T09:27:12.000Z</time>
      </trkpt>
      <trkpt lat="43.77219" lon="6.32448">
        <ele>992.8</ele>
        <time>2021-09-07T09:27:17.000Z</time>
      </trkpt>
      <trkpt lat="43.77222" lon="6.32453">
        <ele>992.5</ele>
        <time>2021-09-07T09:27:18.000Z</time>
      </trkpt>
      <trkpt lat="43.77213" lon="6.3244">
        <ele>993.1</ele>
        <time>2021-09-07T09:27:19.000Z</time>
      </trkpt>
      <trkpt lat="43.77215" lon="6.32444">
        <ele>993</ele>
        <time>2021-09-07T09:27:20.000Z</time>
      </trkpt>
      <trkpt lat="43.7721" lon="6.32437">
        <ele>993.5</ele>
        <time>2021-09-07T09:27:20.000Z</time>
      </trkpt>
      <trkpt lat="43.77204" lon="6.32429">
        <ele>994.3</ele>
        <time>2021-09-07T09:27:22.000Z</time>
      </trkpt>
      <trkpt lat="43.77202" lon="6.32426">
        <ele>994.5</ele>
        <time>2021-09-07T09:27:23.000Z</time>
      </trkpt>
      <trkpt lat="43.77199" lon="6.32423">
        <ele>994.7</ele>
        <time>2021-09-07T09:27:24.000Z</time>
      </trkpt>
      <trkpt lat="43.77195" lon="6.3242">
        <ele>994.8</ele>
        <time>2021-09-07T09:27:25.000Z</time>
      </trkpt>
      <trkpt lat="43.77203" lon="6.32428">
        <ele>994.4</ele>
        <time>2021-09-07T09:27:25.000Z</time>
      </trkpt>
      <trkpt lat="43.77201" lon="6.32425">
        <ele>994.5</ele>
        <time>2021-09-07T09:27:26.000Z</time>
      </trkpt>
      <trkpt lat="43.77197" lon="6.32421">
        <ele>994.8</ele>
        <time>2021-09-07T09:27:27.000Z</time>
      </trkpt>
      <trkpt lat="43.77191" lon="6.32418">
        <ele>994.9</ele>
        <time>2021-09-07T09:27:28.000Z</time>
      </trkpt>
      <trkpt lat="43.77177" lon="6.3241">
        <ele>996</ele>
        <time>2021-09-07T09:27:30.000Z</time>
      </trkpt>
      <trkpt lat="43.77174" lon="6.32408">
        <ele>996.2</ele>
        <time>2021-09-07T09:27:31.000Z</time>
      </trkpt>
      <trkpt lat="43.77171" lon="6.32406">
        <ele>996.2</ele>
        <time>2021-09-07T09:27:32.000Z</time>
      </trkpt>
      <trkpt lat="43.77175" lon="6.32408">
        <ele>996.1</ele>
        <time>2021-09-07T09:27:33.000Z</time>
      </trkpt>
      <trkpt lat="43.77172" lon="6.32406">
        <ele>996.1</ele>
        <time>2021-09-07T09:27:34.000Z</time>
      </trkpt>
      <trkpt lat="43.77168" lon="6.32404">
        <ele>996.2</ele>
        <time>2021-09-07T09:27:35.000Z</time>
      </trkpt>
      <trkpt lat="43.77157" lon="6.32394">
        <ele>997.2</ele>
        <time>2021-09-07T09:27:36.000Z</time>
      </trkpt>
      <trkpt lat="43.77153" lon="6.3239">
        <ele>997.4</ele>
        <time>2021-09-07T09:27:37.000Z</time>
      </trkpt>
      <trkpt lat="43.77146" lon="6.3238">
        <ele>997.7</ele>
        <time>2021-09-07T09:27:42.000Z</time>
      </trkpt>
      <trkpt lat="43.7714" lon="6.32369">
        <ele>999.1</ele>
        <time>2021-09-07T09:27:42.000Z</time>
      </trkpt>
      <trkpt lat="43.77137" lon="6.32365">
        <ele>999.5</ele>
        <time>2021-09-07T09:27:43.000Z</time>
      </trkpt>
      <trkpt lat="43.77138" lon="6.32367">
        <ele>999.4</ele>
        <time>2021-09-07T09:27:45.000Z</time>
      </trkpt>
      <trkpt lat="43.77129" lon="6.32356">
        <ele>999.3</ele>
        <time>2021-09-07T09:27:46.000Z</time>
      </trkpt>
      <trkpt lat="43.77135" lon="6.32362">
        <ele>999.5</ele>
        <time>2021-09-07T09:27:46.000Z</time>
      </trkpt>
      <trkpt lat="43.77127" lon="6.32352">
        <ele>999.5</ele>
        <time>2021-09-07T09:27:47.000Z</time>
      </trkpt>
      <trkpt lat="43.77133" lon="6.32359">
        <ele>999.5</ele>
        <time>2021-09-07T09:27:47.000Z</time>
      </trkpt>
      <trkpt lat="43.77122" lon="6.32345">
        <ele>999.9</ele>
        <time>2021-09-07T09:27:49.000Z</time>
      </trkpt>
      <trkpt lat="43.77129" lon="6.32355">
        <ele>999.4</ele>
        <time>2021-09-07T09:27:49.000Z</time>
      </trkpt>
      <trkpt lat="43.77119" lon="6.32342">
        <ele>1000</ele>
        <time>2021-09-07T09:27:50.000Z</time>
      </trkpt>
      <trkpt lat="43.77125" lon="6.32349">
        <ele>999.5</ele>
        <time>2021-09-07T09:27:50.000Z</time>
      </trkpt>
      <trkpt lat="43.77116" lon="6.32339">
        <ele>1000.1</ele>
        <time>2021-09-07T09:27:51.000Z</time>
      </trkpt>
      <trkpt lat="43.7712" lon="6.32343">
        <ele>1000</ele>
        <time>2021-09-07T09:27:52.000Z</time>
      </trkpt>
      <trkpt lat="43.7711" lon="6.32333">
        <ele>1000.6</ele>
        <time>2021-09-07T09:27:53.000Z</time>
      </trkpt>
      <trkpt lat="43.77109" lon="6.32332">
        <ele>1000.7</ele>
        <time>2021-09-07T09:27:56.000Z</time>
      </trkpt>
      <trkpt lat="43.771" lon="6.32324">
        <ele>1000.9</ele>
        <time>2021-09-07T09:27:56.000Z</time>
      </trkpt>
      <trkpt lat="43.77094" lon="6.32318">
        <ele>1000.7</ele>
        <time>2021-09-07T09:27:58.000Z</time>
      </trkpt>
      <trkpt lat="43.77091" lon="6.32315">
        <ele>1000.8</ele>
        <time>2021-09-07T09:27:59.000Z</time>
      </trkpt>
      <trkpt lat="43.77098" lon="6.32322">
        <ele>1000.9</ele>
        <time>2021-09-07T09:27:59.000Z</time>
      </trkpt>
      <trkpt lat="43.77084" lon="6.32308">
        <ele>1000.8</ele>
        <time>2021-09-07T09:28:01.000Z</time>
      </trkpt>
      <trkpt lat="43.77093" lon="6.32317">
        <ele>1000.8</ele>
        <time>2021-09-07T09:28:01.000Z</time>
      </trkpt>
      <trkpt lat="43.77081" lon="6.32304">
        <ele>1001</ele>
        <time>2021-09-07T09:28:02.000Z</time>
      </trkpt>
      <trkpt lat="43.77088" lon="6.32312">
        <ele>1000.7</ele>
        <time>2021-09-07T09:28:02.000Z</time>
      </trkpt>
      <trkpt lat="43.77077" lon="6.32301">
        <ele>1001.1</ele>
        <time>2021-09-07T09:28:03.000Z</time>
      </trkpt>
      <trkpt lat="43.77082" lon="6.32306">
        <ele>1000.9</ele>
        <time>2021-09-07T09:28:04.000Z</time>
      </trkpt>
      <trkpt lat="43.77071" lon="6.32294">
        <ele>1001.5</ele>
        <time>2021-09-07T09:28:05.000Z</time>
      </trkpt>
      <trkpt lat="43.77068" lon="6.3229">
        <ele>1001.7</ele>
        <time>2021-09-07T09:28:06.000Z</time>
      </trkpt>
      <trkpt lat="43.77065" lon="6.32285">
        <ele>1001.9</ele>
        <time>2021-09-07T09:28:07.000Z</time>
      </trkpt>
      <trkpt lat="43.77062" lon="6.32282">
        <ele>1001.9</ele>
        <time>2021-09-07T09:28:08.000Z</time>
      </trkpt>
      <trkpt lat="43.7707" lon="6.32292">
        <ele>1001.5</ele>
        <time>2021-09-07T09:28:08.000Z</time>
      </trkpt>
      <trkpt lat="43.77066" lon="6.32288">
        <ele>1001.8</ele>
        <time>2021-09-07T09:28:09.000Z</time>
      </trkpt>
      <trkpt lat="43.77057" lon="6.32272">
        <ele>1002.3</ele>
        <time>2021-09-07T09:28:10.000Z</time>
      </trkpt>
      <trkpt lat="43.77055" lon="6.32268">
        <ele>1002.6</ele>
        <time>2021-09-07T09:28:11.000Z</time>
      </trkpt>
      <trkpt lat="43.77056" lon="6.3227">
        <ele>1002.4</ele>
        <time>2021-09-07T09:28:13.000Z</time>
      </trkpt>
      <trkpt lat="43.77053" lon="6.32265">
        <ele>1002.8</ele>
        <time>2021-09-07T09:28:14.000Z</time>
      </trkpt>
      <trkpt lat="43.77047" lon="6.32256">
        <ele>1003.2</ele>
        <time>2021-09-07T09:28:14.000Z</time>
      </trkpt>
      <trkpt lat="43.77045" lon="6.32251">
        <ele>1003.2</ele>
        <time>2021-09-07T09:28:15.000Z</time>
      </trkpt>
      <trkpt lat="43.77043" lon="6.32245">
        <ele>1003.4</ele>
        <time>2021-09-07T09:28:16.000Z</time>
      </trkpt>
      <trkpt lat="43.77046" lon="6.32254">
        <ele>1003.3</ele>
        <time>2021-09-07T09:28:17.000Z</time>
      </trkpt>
      <trkpt lat="43.77037" lon="6.32231">
        <ele>1003.9</ele>
        <time>2021-09-07T09:28:19.000Z</time>
      </trkpt>
      <trkpt lat="43.77035" lon="6.32226">
        <ele>1004.1</ele>
        <time>2021-09-07T09:28:20.000Z</time>
      </trkpt>
      <trkpt lat="43.77033" lon="6.32221">
        <ele>1004.5</ele>
        <time>2021-09-07T09:28:21.000Z</time>
      </trkpt>
      <trkpt lat="43.77036" lon="6.32228">
        <ele>1004.1</ele>
        <time>2021-09-07T09:28:22.000Z</time>
      </trkpt>
      <trkpt lat="43.7703" lon="6.32213">
        <ele>1005.3</ele>
        <time>2021-09-07T09:28:23.000Z</time>
      </trkpt>
      <trkpt lat="43.77033" lon="6.32223">
        <ele>1004.3</ele>
        <time>2021-09-07T09:28:23.000Z</time>
      </trkpt>
      <trkpt lat="43.77028" lon="6.32208">
        <ele>1005.5</ele>
        <time>2021-09-07T09:28:24.000Z</time>
      </trkpt>
      <trkpt lat="43.77031" lon="6.32218">
        <ele>1004.8</ele>
        <time>2021-09-07T09:28:24.000Z</time>
      </trkpt>
      <trkpt lat="43.77029" lon="6.32211">
        <ele>1005.4</ele>
        <time>2021-09-07T09:28:26.000Z</time>
      </trkpt>
      <trkpt lat="43.77026" lon="6.32203">
        <ele>1005.7</ele>
        <time>2021-09-07T09:28:27.000Z</time>
      </trkpt>
      <trkpt lat="43.77021" lon="6.3219">
        <ele>1006.5</ele>
        <time>2021-09-07T09:28:28.000Z</time>
      </trkpt>
      <trkpt lat="43.77019" lon="6.32185">
        <ele>1006.8</ele>
        <time>2021-09-07T09:28:29.000Z</time>
      </trkpt>
      <trkpt lat="43.77018" lon="6.3218">
        <ele>1007.1</ele>
        <time>2021-09-07T09:28:30.000Z</time>
      </trkpt>
      <trkpt lat="43.77017" lon="6.32176">
        <ele>1007</ele>
        <time>2021-09-07T09:28:31.000Z</time>
      </trkpt>
      <trkpt lat="43.7702" lon="6.32187">
        <ele>1006.7</ele>
        <time>2021-09-07T09:28:31.000Z</time>
      </trkpt>
      <trkpt lat="43.77018" lon="6.32182">
        <ele>1006.9</ele>
        <time>2021-09-07T09:28:32.000Z</time>
      </trkpt>
      <trkpt lat="43.77015" lon="6.32171">
        <ele>1006.9</ele>
        <time>2021-09-07T09:28:32.000Z</time>
      </trkpt>
      <trkpt lat="43.77014" lon="6.32166">
        <ele>1007.1</ele>
        <time>2021-09-07T09:28:35.000Z</time>
      </trkpt>
      <trkpt lat="43.77011" lon="6.32157">
        <ele>1007.6</ele>
        <time>2021-09-07T09:28:35.000Z</time>
      </trkpt>
      <trkpt lat="43.7701" lon="6.32154">
        <ele>1007.6</ele>
        <time>2021-09-07T09:28:38.000Z</time>
      </trkpt>
      <trkpt lat="43.77007" lon="6.32146">
        <ele>1008.2</ele>
        <time>2021-09-07T09:28:38.000Z</time>
      </trkpt>
      <trkpt lat="43.77007" lon="6.32141">
        <ele>1008.2</ele>
        <time>2021-09-07T09:28:39.000Z</time>
      </trkpt>
      <trkpt lat="43.77006" lon="6.32137">
        <ele>1008.2</ele>
        <time>2021-09-07T09:28:40.000Z</time>
      </trkpt>
      <trkpt lat="43.77007" lon="6.32143">
        <ele>1008.2</ele>
        <time>2021-09-07T09:28:41.000Z</time>
      </trkpt>
      <trkpt lat="43.77004" lon="6.3213">
        <ele>1008.5</ele>
        <time>2021-09-07T09:28:42.000Z</time>
      </trkpt>
      <trkpt lat="43.77007" lon="6.32139">
        <ele>1008.3</ele>
        <time>2021-09-07T09:28:42.000Z</time>
      </trkpt>
      <trkpt lat="43.77005" lon="6.32134">
        <ele>1008.4</ele>
        <time>2021-09-07T09:28:43.000Z</time>
      </trkpt>
      <trkpt lat="43.77003" lon="6.32125">
        <ele>1008.4</ele>
        <time>2021-09-07T09:28:43.000Z</time>
      </trkpt>
      <trkpt lat="43.76998" lon="6.32123">
        <ele>1008.9</ele>
        <time>2021-09-07T09:28:49.000Z</time>
      </trkpt>
      <trkpt lat="43.76998" lon="6.32123">
        <ele>1008.9</ele>
        <time>2021-09-07T09:28:49.000Z</time>
      </trkpt>
      <trkpt lat="43.77002" lon="6.32137">
        <ele>1008.5</ele>
        <time>2021-09-07T09:28:50.000Z</time>
      </trkpt>
      <trkpt lat="43.76998" lon="6.32128">
        <ele>1008.7</ele>
        <time>2021-09-07T09:28:50.000Z</time>
      </trkpt>
      <trkpt lat="43.76999" lon="6.32132">
        <ele>1008.8</ele>
        <time>2021-09-07T09:28:51.000Z</time>
      </trkpt>
      <trkpt lat="43.77009" lon="6.32149">
        <ele>1008.4</ele>
        <time>2021-09-07T09:28:53.000Z</time>
      </trkpt>
      <trkpt lat="43.77012" lon="6.32153">
        <ele>1008.4</ele>
        <time>2021-09-07T09:28:54.000Z</time>
      </trkpt>
      <trkpt lat="43.77015" lon="6.32155">
        <ele>1008.1</ele>
        <time>2021-09-07T09:28:55.000Z</time>
      </trkpt>
      <trkpt lat="43.77018" lon="6.32155">
        <ele>1008.1</ele>
        <time>2021-09-07T09:28:56.000Z</time>
      </trkpt>
      <trkpt lat="43.77011" lon="6.32151">
        <ele>1008.4</ele>
        <time>2021-09-07T09:28:56.000Z</time>
      </trkpt>
      <trkpt lat="43.77013" lon="6.32154">
        <ele>1008.3</ele>
        <time>2021-09-07T09:28:57.000Z</time>
      </trkpt>
      <trkpt lat="43.77021" lon="6.32147">
        <ele>1007.8</ele>
        <time>2021-09-07T09:28:59.000Z</time>
      </trkpt>
      <trkpt lat="43.7702" lon="6.32145">
        <ele>1007.9</ele>
        <time>2021-09-07T09:29:02.000Z</time>
      </trkpt>
      <trkpt lat="43.77019" lon="6.32136">
        <ele>1008.1</ele>
        <time>2021-09-07T09:29:02.000Z</time>
      </trkpt>
      <trkpt lat="43.77019" lon="6.32132">
        <ele>1008.2</ele>
        <time>2021-09-07T09:29:03.000Z</time>
      </trkpt>
      <trkpt lat="43.77018" lon="6.32126">
        <ele>1008</ele>
        <time>2021-09-07T09:29:04.000Z</time>
      </trkpt>
      <trkpt lat="43.77019" lon="6.32135">
        <ele>1008.1</ele>
        <time>2021-09-07T09:29:05.000Z</time>
      </trkpt>
      <trkpt lat="43.77018" lon="6.32129">
        <ele>1008.1</ele>
        <time>2021-09-07T09:29:06.000Z</time>
      </trkpt>
      <trkpt lat="43.77017" lon="6.32123">
        <ele>1008.1</ele>
        <time>2021-09-07T09:29:07.000Z</time>
      </trkpt>
      <trkpt lat="43.77015" lon="6.32111">
        <ele>1008</ele>
        <time>2021-09-07T09:29:07.000Z</time>
      </trkpt>
      <trkpt lat="43.77014" lon="6.32106">
        <ele>1008</ele>
        <time>2021-09-07T09:29:08.000Z</time>
      </trkpt>
      <trkpt lat="43.77012" lon="6.32087">
        <ele>1008.1</ele>
        <time>2021-09-07T09:29:11.000Z</time>
      </trkpt>
      <trkpt lat="43.77012" lon="6.32079">
        <ele>1008.2</ele>
        <time>2021-09-07T09:29:12.000Z</time>
      </trkpt>
      <trkpt lat="43.77011" lon="6.3207">
        <ele>1008.1</ele>
        <time>2021-09-07T09:29:13.000Z</time>
      </trkpt>
      <trkpt lat="43.77012" lon="6.32091">
        <ele>1008.1</ele>
        <time>2021-09-07T09:29:13.000Z</time>
      </trkpt>
      <trkpt lat="43.77012" lon="6.32081">
        <ele>1008.2</ele>
        <time>2021-09-07T09:29:14.000Z</time>
      </trkpt>
      <trkpt lat="43.77011" lon="6.32074">
        <ele>1008</ele>
        <time>2021-09-07T09:29:15.000Z</time>
      </trkpt>
      <trkpt lat="43.7701" lon="6.32063">
        <ele>1007.9</ele>
        <time>2021-09-07T09:29:16.000Z</time>
      </trkpt>
      <trkpt lat="43.77007" lon="6.32038">
        <ele>1008.1</ele>
        <time>2021-09-07T09:29:16.000Z</time>
      </trkpt>
      <trkpt lat="43.77006" lon="6.32029">
        <ele>1008.1</ele>
        <time>2021-09-07T09:29:17.000Z</time>
      </trkpt>
      <trkpt lat="43.77001" lon="6.31986">
        <ele>1009.2</ele>
        <time>2021-09-07T09:29:22.000Z</time>
      </trkpt>
      <trkpt lat="43.76991" lon="6.31954">
        <ele>1010.8</ele>
        <time>2021-09-07T09:29:27.000Z</time>
      </trkpt>
      <trkpt lat="43.76982" lon="6.31925">
        <ele>1012.9</ele>
        <time>2021-09-07T09:29:32.000Z</time>
      </trkpt>
      <trkpt lat="43.76982" lon="6.31889">
        <ele>1014.1</ele>
        <time>2021-09-07T09:29:37.000Z</time>
      </trkpt>
      <trkpt lat="43.76989" lon="6.31852">
        <ele>1014.2</ele>
        <time>2021-09-07T09:29:42.000Z</time>
      </trkpt>
      <trkpt lat="43.76999" lon="6.31817">
        <ele>1014.9</ele>
        <time>2021-09-07T09:29:47.000Z</time>
      </trkpt>
      <trkpt lat="43.7701" lon="6.31781">
        <ele>1014.7</ele>
        <time>2021-09-07T09:29:52.000Z</time>
      </trkpt>
      <trkpt lat="43.77018" lon="6.3174">
        <ele>1015.4</ele>
        <time>2021-09-07T09:29:57.000Z</time>
      </trkpt>
      <trkpt lat="43.77005" lon="6.31706">
        <ele>1016.1</ele>
        <time>2021-09-07T09:30:02.000Z</time>
      </trkpt>
      <trkpt lat="43.76992" lon="6.31678">
        <ele>1017.6</ele>
        <time>2021-09-07T09:30:07.000Z</time>
      </trkpt>
      <trkpt lat="43.76976" lon="6.31658">
        <ele>1018.4</ele>
        <time>2021-09-07T09:30:12.000Z</time>
      </trkpt>
      <trkpt lat="43.76962" lon="6.31644">
        <ele>1019.3</ele>
        <time>2021-09-07T09:30:17.000Z</time>
      </trkpt>
      <trkpt lat="43.76952" lon="6.3163">
        <ele>1019.3</ele>
        <time>2021-09-07T09:30:22.000Z</time>
      </trkpt>
      <trkpt lat="43.76953" lon="6.31623">
        <ele>1019.7</ele>
        <time>2021-09-07T09:30:24.000Z</time>
      </trkpt>
      <trkpt lat="43.76951" lon="6.31619">
        <ele>1019.7</ele>
        <time>2021-09-07T09:30:25.000Z</time>
      </trkpt>
      <trkpt lat="43.76952" lon="6.31621">
        <ele>1019.6</ele>
        <time>2021-09-07T09:30:27.000Z</time>
      </trkpt>
      <trkpt lat="43.7695" lon="6.31617">
        <ele>1019.8</ele>
        <time>2021-09-07T09:30:28.000Z</time>
      </trkpt>
      <trkpt lat="43.76947" lon="6.31606">
        <ele>1019.8</ele>
        <time>2021-09-07T09:30:28.000Z</time>
      </trkpt>
      <trkpt lat="43.76945" lon="6.316">
        <ele>1020</ele>
        <time>2021-09-07T09:30:30.000Z</time>
      </trkpt>
      <trkpt lat="43.76946" lon="6.31604">
        <ele>1019.9</ele>
        <time>2021-09-07T09:30:31.000Z</time>
      </trkpt>
      <trkpt lat="43.76944" lon="6.31596">
        <ele>1020.1</ele>
        <time>2021-09-07T09:30:31.000Z</time>
      </trkpt>
      <trkpt lat="43.76943" lon="6.31593">
        <ele>1020.1</ele>
        <time>2021-09-07T09:30:32.000Z</time>
      </trkpt>
      <trkpt lat="43.76942" lon="6.31589">
        <ele>1020.3</ele>
        <time>2021-09-07T09:30:33.000Z</time>
      </trkpt>
      <trkpt lat="43.76943" lon="6.31592">
        <ele>1020.2</ele>
        <time>2021-09-07T09:30:35.000Z</time>
      </trkpt>
      <trkpt lat="43.76942" lon="6.31587">
        <ele>1020.3</ele>
        <time>2021-09-07T09:30:36.000Z</time>
      </trkpt>
      <trkpt lat="43.76938" lon="6.31581">
        <ele>1020.6</ele>
        <time>2021-09-07T09:30:36.000Z</time>
      </trkpt>
      <trkpt lat="43.76936" lon="6.31578">
        <ele>1020.8</ele>
        <time>2021-09-07T09:30:37.000Z</time>
      </trkpt>
      <trkpt lat="43.76934" lon="6.31575">
        <ele>1020.8</ele>
        <time>2021-09-07T09:30:38.000Z</time>
      </trkpt>
      <trkpt lat="43.76931" lon="6.31572">
        <ele>1020.9</ele>
        <time>2021-09-07T09:30:39.000Z</time>
      </trkpt>
      <trkpt lat="43.76917" lon="6.3156">
        <ele>1020.2</ele>
        <time>2021-09-07T09:30:46.000Z</time>
      </trkpt>
      <trkpt lat="43.76907" lon="6.31553">
        <ele>1019.4</ele>
        <time>2021-09-07T09:30:46.000Z</time>
      </trkpt>
      <trkpt lat="43.76903" lon="6.3155">
        <ele>1019.3</ele>
        <time>2021-09-07T09:30:47.000Z</time>
      </trkpt>
      <trkpt lat="43.76893" lon="6.31542">
        <ele>1018.8</ele>
        <time>2021-09-07T09:30:49.000Z</time>
      </trkpt>
      <trkpt lat="43.76887" lon="6.31539">
        <ele>1018.6</ele>
        <time>2021-09-07T09:30:50.000Z</time>
      </trkpt>
      <trkpt lat="43.76871" lon="6.31526">
        <ele>1017.7</ele>
        <time>2021-09-07T09:30:54.000Z</time>
      </trkpt>
      <trkpt lat="43.76867" lon="6.31523">
        <ele>1017.3</ele>
        <time>2021-09-07T09:30:55.000Z</time>
      </trkpt>
      <trkpt lat="43.76873" lon="6.31527">
        <ele>1018</ele>
        <time>2021-09-07T09:30:56.000Z</time>
      </trkpt>
      <trkpt lat="43.76858" lon="6.31514">
        <ele>1017.1</ele>
        <time>2021-09-07T09:30:58.000Z</time>
      </trkpt>
      <trkpt lat="43.76855" lon="6.31511">
        <ele>1016.9</ele>
        <time>2021-09-07T09:30:59.000Z</time>
      </trkpt>
      <trkpt lat="43.76852" lon="6.31508">
        <ele>1016.9</ele>
        <time>2021-09-07T09:31:00.000Z</time>
      </trkpt>
      <trkpt lat="43.76857" lon="6.31513">
        <ele>1017</ele>
        <time>2021-09-07T09:31:01.000Z</time>
      </trkpt>
      <trkpt lat="43.76846" lon="6.31499">
        <ele>1016.3</ele>
        <time>2021-09-07T09:31:03.000Z</time>
      </trkpt>
      <trkpt lat="43.76844" lon="6.31495">
        <ele>1016.3</ele>
        <time>2021-09-07T09:31:04.000Z</time>
      </trkpt>
      <trkpt lat="43.76841" lon="6.31477">
        <ele>1015.8</ele>
        <time>2021-09-07T09:31:09.000Z</time>
      </trkpt>
      <trkpt lat="43.76835" lon="6.31472">
        <ele>1015.9</ele>
        <time>2021-09-07T09:31:13.000Z</time>
      </trkpt>
      <trkpt lat="43.76836" lon="6.31476">
        <ele>1016.1</ele>
        <time>2021-09-07T09:31:14.000Z</time>
      </trkpt>
      <trkpt lat="43.76839" lon="6.31472">
        <ele>1015.5</ele>
        <time>2021-09-07T09:31:14.000Z</time>
      </trkpt>
      <trkpt lat="43.76836" lon="6.31471">
        <ele>1015.7</ele>
        <time>2021-09-07T09:31:15.000Z</time>
      </trkpt>
      <trkpt lat="43.76849" lon="6.31491">
        <ele>1016.4</ele>
        <time>2021-09-07T09:31:19.000Z</time>
      </trkpt>
      <trkpt lat="43.76852" lon="6.31494">
        <ele>1016.6</ele>
        <time>2021-09-07T09:31:20.000Z</time>
      </trkpt>
      <trkpt lat="43.76845" lon="6.31486">
        <ele>1016.1</ele>
        <time>2021-09-07T09:31:20.000Z</time>
      </trkpt>
      <trkpt lat="43.76856" lon="6.315">
        <ele>1017.1</ele>
        <time>2021-09-07T09:31:22.000Z</time>
      </trkpt>
      <trkpt lat="43.76851" lon="6.31493">
        <ele>1016.5</ele>
        <time>2021-09-07T09:31:22.000Z</time>
      </trkpt>
      <trkpt lat="43.76853" lon="6.31496">
        <ele>1016.8</ele>
        <time>2021-09-07T09:31:23.000Z</time>
      </trkpt>
      <trkpt lat="43.76861" lon="6.31507">
        <ele>1017.5</ele>
        <time>2021-09-07T09:31:24.000Z</time>
      </trkpt>
      <trkpt lat="43.76863" lon="6.31509">
        <ele>1017.5</ele>
        <time>2021-09-07T09:31:25.000Z</time>
      </trkpt>
      <trkpt lat="43.76857" lon="6.31501">
        <ele>1017.1</ele>
        <time>2021-09-07T09:31:25.000Z</time>
      </trkpt>
      <trkpt lat="43.76864" lon="6.31512">
        <ele>1017.8</ele>
        <time>2021-09-07T09:31:26.000Z</time>
      </trkpt>
      <trkpt lat="43.76866" lon="6.31514">
        <ele>1018</ele>
        <time>2021-09-07T09:31:27.000Z</time>
      </trkpt>
      <trkpt lat="43.76862" lon="6.31508">
        <ele>1017.3</ele>
        <time>2021-09-07T09:31:27.000Z</time>
      </trkpt>
      <trkpt lat="43.76863" lon="6.31511">
        <ele>1017.7</ele>
        <time>2021-09-07T09:31:28.000Z</time>
      </trkpt>
      <trkpt lat="43.76877" lon="6.31523">
        <ele>1018.6</ele>
        <time>2021-09-07T09:31:33.000Z</time>
      </trkpt>
      <trkpt lat="43.769" lon="6.31542">
        <ele>1019.3</ele>
        <time>2021-09-07T09:31:36.000Z</time>
      </trkpt>
      <trkpt lat="43.76909" lon="6.3155">
        <ele>1019.7</ele>
        <time>2021-09-07T09:31:38.000Z</time>
      </trkpt>
      <trkpt lat="43.76898" lon="6.31541">
        <ele>1019.7</ele>
        <time>2021-09-07T09:31:38.000Z</time>
      </trkpt>
      <trkpt lat="43.76913" lon="6.31554">
        <ele>1020.4</ele>
        <time>2021-09-07T09:31:39.000Z</time>
      </trkpt>
      <trkpt lat="43.76904" lon="6.31545">
        <ele>1019.1</ele>
        <time>2021-09-07T09:31:39.000Z</time>
      </trkpt>
      <trkpt lat="43.76918" lon="6.31558">
        <ele>1020.5</ele>
        <time>2021-09-07T09:31:40.000Z</time>
      </trkpt>
      <trkpt lat="43.7691" lon="6.31551">
        <ele>1019.9</ele>
        <time>2021-09-07T09:31:41.000Z</time>
      </trkpt>
      <trkpt lat="43.76923" lon="6.31562">
        <ele>1020.6</ele>
        <time>2021-09-07T09:31:41.000Z</time>
      </trkpt>
      <trkpt lat="43.76928" lon="6.31567">
        <ele>1020.4</ele>
        <time>2021-09-07T09:31:42.000Z</time>
      </trkpt>
      <trkpt lat="43.7694" lon="6.31574">
        <ele>1020.5</ele>
        <time>2021-09-07T09:31:44.000Z</time>
      </trkpt>
      <trkpt lat="43.76926" lon="6.31565">
        <ele>1020.5</ele>
        <time>2021-09-07T09:31:44.000Z</time>
      </trkpt>
      <trkpt lat="43.76932" lon="6.3157">
        <ele>1020.3</ele>
        <time>2021-09-07T09:31:45.000Z</time>
      </trkpt>
      <trkpt lat="43.76944" lon="6.31578">
        <ele>1020.5</ele>
        <time>2021-09-07T09:31:45.000Z</time>
      </trkpt>
      <trkpt lat="43.76961" lon="6.31607">
        <ele>1021.2</ele>
        <time>2021-09-07T09:31:50.000Z</time>
      </trkpt>
      <trkpt lat="43.76969" lon="6.31643">
        <ele>1019.8</ele>
        <time>2021-09-07T09:31:55.000Z</time>
      </trkpt>
      <trkpt lat="43.76975" lon="6.31655">
        <ele>1018.8</ele>
        <time>2021-09-07T09:32:00.000Z</time>
      </trkpt>
      <trkpt lat="43.76987" lon="6.31658">
        <ele>1017.9</ele>
        <time>2021-09-07T09:32:05.000Z</time>
      </trkpt>
      <trkpt lat="43.76991" lon="6.31662">
        <ele>1017.8</ele>
        <time>2021-09-07T09:32:06.000Z</time>
      </trkpt>
      <trkpt lat="43.76986" lon="6.31658">
        <ele>1018.3</ele>
        <time>2021-09-07T09:32:07.000Z</time>
      </trkpt>
      <trkpt lat="43.76995" lon="6.31668">
        <ele>1017.6</ele>
        <time>2021-09-07T09:32:07.000Z</time>
      </trkpt>
      <trkpt lat="43.77002" lon="6.31679">
        <ele>1017.2</ele>
        <time>2021-09-07T09:32:09.000Z</time>
      </trkpt>
      <trkpt lat="43.77005" lon="6.31684">
        <ele>1016.7</ele>
        <time>2021-09-07T09:32:10.000Z</time>
      </trkpt>
      <trkpt lat="43.76998" lon="6.31673">
        <ele>1017.4</ele>
        <time>2021-09-07T09:32:10.000Z</time>
      </trkpt>
      <trkpt lat="43.77009" lon="6.31692">
        <ele>1015.8</ele>
        <time>2021-09-07T09:32:12.000Z</time>
      </trkpt>
      <trkpt lat="43.77003" lon="6.31682">
        <ele>1016.9</ele>
        <time>2021-09-07T09:32:12.000Z</time>
      </trkpt>
      <trkpt lat="43.77006" lon="6.31687">
        <ele>1016.4</ele>
        <time>2021-09-07T09:32:13.000Z</time>
      </trkpt>
      <trkpt lat="43.77011" lon="6.31696">
        <ele>1015.7</ele>
        <time>2021-09-07T09:32:13.000Z</time>
      </trkpt>
      <trkpt lat="43.77016" lon="6.31695">
        <ele>1016.3</ele>
        <time>2021-09-07T09:32:15.000Z</time>
      </trkpt>
      <trkpt lat="43.77013" lon="6.31691">
        <ele>1016.2</ele>
        <time>2021-09-07T09:32:16.000Z</time>
      </trkpt>
      <trkpt lat="43.7701" lon="6.31689">
        <ele>1016.3</ele>
        <time>2021-09-07T09:32:17.000Z</time>
      </trkpt>
      <trkpt lat="43.77015" lon="6.31692">
        <ele>1016.3</ele>
        <time>2021-09-07T09:32:18.000Z</time>
      </trkpt>
      <trkpt lat="43.77" lon="6.31672">
        <ele>1016.3</ele>
        <time>2021-09-07T09:32:23.000Z</time>
      </trkpt>
      <trkpt lat="43.76994" lon="6.31664">
        <ele>1016.7</ele>
        <time>2021-09-07T09:32:28.000Z</time>
      </trkpt>
      <trkpt lat="43.76988" lon="6.31661">
        <ele>1017.5</ele>
        <time>2021-09-07T09:32:32.000Z</time>
      </trkpt>
      <trkpt lat="43.76986" lon="6.31659">
        <ele>1017.6</ele>
        <time>2021-09-07T09:32:33.000Z</time>
      </trkpt>
      <trkpt lat="43.7699" lon="6.31662">
        <ele>1017.2</ele>
        <time>2021-09-07T09:32:34.000Z</time>
      </trkpt>
      <trkpt lat="43.7698" lon="6.31656">
        <ele>1017.8</ele>
        <time>2021-09-07T09:32:35.000Z</time>
      </trkpt>
      <trkpt lat="43.76977" lon="6.31654">
        <ele>1017.7</ele>
        <time>2021-09-07T09:32:36.000Z</time>
      </trkpt>
      <trkpt lat="43.7697" lon="6.31645">
        <ele>1018.4</ele>
        <time>2021-09-07T09:32:39.000Z</time>
      </trkpt>
      <trkpt lat="43.76968" lon="6.31642">
        <ele>1018.6</ele>
        <time>2021-09-07T09:32:40.000Z</time>
      </trkpt>
      <trkpt lat="43.7697" lon="6.31647">
        <ele>1018.3</ele>
        <time>2021-09-07T09:32:41.000Z</time>
      </trkpt>
      <trkpt lat="43.76964" lon="6.31636">
        <ele>1018.7</ele>
        <time>2021-09-07T09:32:42.000Z</time>
      </trkpt>
      <trkpt lat="43.76968" lon="6.31643">
        <ele>1018.5</ele>
        <time>2021-09-07T09:32:42.000Z</time>
      </trkpt>
      <trkpt lat="43.76962" lon="6.31632">
        <ele>1019</ele>
        <time>2021-09-07T09:32:43.000Z</time>
      </trkpt>
      <trkpt lat="43.76966" lon="6.3164">
        <ele>1018.7</ele>
        <time>2021-09-07T09:32:43.000Z</time>
      </trkpt>
      <trkpt lat="43.76961" lon="6.31628">
        <ele>1019.2</ele>
        <time>2021-09-07T09:32:44.000Z</time>
      </trkpt>
      <trkpt lat="43.7696" lon="6.31624">
        <ele>1019.3</ele>
        <time>2021-09-07T09:32:45.000Z</time>
      </trkpt>
      <trkpt lat="43.76963" lon="6.31634">
        <ele>1018.8</ele>
        <time>2021-09-07T09:32:45.000Z</time>
      </trkpt>
      <trkpt lat="43.76961" lon="6.3163">
        <ele>1019</ele>
        <time>2021-09-07T09:32:46.000Z</time>
      </trkpt>
      <trkpt lat="43.76959" lon="6.31617">
        <ele>1019.5</ele>
        <time>2021-09-07T09:32:47.000Z</time>
      </trkpt>
      <trkpt lat="43.76958" lon="6.31614">
        <ele>1019.4</ele>
        <time>2021-09-07T09:32:48.000Z</time>
      </trkpt>
      <trkpt lat="43.76956" lon="6.31607">
        <ele>1019.6</ele>
        <time>2021-09-07T09:32:50.000Z</time>
      </trkpt>
      <trkpt lat="43.76956" lon="6.31604">
        <ele>1019.6</ele>
        <time>2021-09-07T09:32:51.000Z</time>
      </trkpt>
      <trkpt lat="43.76953" lon="6.31592">
        <ele>1020</ele>
        <time>2021-09-07T09:32:56.000Z</time>
      </trkpt>
      <trkpt lat="43.76949" lon="6.31584">
        <ele>1019.9</ele>
        <time>2021-09-07T09:33:01.000Z</time>
      </trkpt>
      <trkpt lat="43.76944" lon="6.31577">
        <ele>1019.8</ele>
        <time>2021-09-07T09:33:06.000Z</time>
      </trkpt>
      <trkpt lat="43.76935" lon="6.31571">
        <ele>1020.2</ele>
        <time>2021-09-07T09:33:11.000Z</time>
      </trkpt>
      <trkpt lat="43.76925" lon="6.31561">
        <ele>1019.4</ele>
        <time>2021-09-07T09:33:16.000Z</time>
      </trkpt>
      <trkpt lat="43.76914" lon="6.31551">
        <ele>1019.2</ele>
        <time>2021-09-07T09:33:21.000Z</time>
      </trkpt>
      <trkpt lat="43.76908" lon="6.31545">
        <ele>1018.7</ele>
        <time>2021-09-07T09:33:25.000Z</time>
      </trkpt>
      <trkpt lat="43.76909" lon="6.31546">
        <ele>1018.7</ele>
        <time>2021-09-07T09:33:27.000Z</time>
      </trkpt>
      <trkpt lat="43.76907" lon="6.31545">
        <ele>1018.7</ele>
        <time>2021-09-07T09:33:27.000Z</time>
      </trkpt>
      <trkpt lat="43.76906" lon="6.31545">
        <ele>1018.4</ele>
        <time>2021-09-07T09:33:29.000Z</time>
      </trkpt>
      <trkpt lat="43.76906" lon="6.31546">
        <ele>1018.4</ele>
        <time>2021-09-07T09:33:30.000Z</time>
      </trkpt>
      <trkpt lat="43.76905" lon="6.31544">
        <ele>1018.6</ele>
        <time>2021-09-07T09:33:31.000Z</time>
      </trkpt>
      <trkpt lat="43.76902" lon="6.31542">
        <ele>1018.4</ele>
        <time>2021-09-07T09:33:32.000Z</time>
      </trkpt>
      <trkpt lat="43.76887" lon="6.31531">
        <ele>1017.5</ele>
        <time>2021-09-07T09:33:37.000Z</time>
      </trkpt>
      <trkpt lat="43.76882" lon="6.31527">
        <ele>1017.5</ele>
        <time>2021-09-07T09:33:39.000Z</time>
      </trkpt>
      <trkpt lat="43.76881" lon="6.31527">
        <ele>1017.5</ele>
        <time>2021-09-07T09:33:41.000Z</time>
      </trkpt>
      <trkpt lat="43.76878" lon="6.31526">
        <ele>1017.4</ele>
        <time>2021-09-07T09:33:41.000Z</time>
      </trkpt>
      <trkpt lat="43.76877" lon="6.31526">
        <ele>1017.4</ele>
        <time>2021-09-07T09:33:43.000Z</time>
      </trkpt>
      <trkpt lat="43.76875" lon="6.31524">
        <ele>1017.3</ele>
        <time>2021-09-07T09:33:43.000Z</time>
      </trkpt>
      <trkpt lat="43.76873" lon="6.31523">
        <ele>1017.1</ele>
        <time>2021-09-07T09:33:44.000Z</time>
      </trkpt>
      <trkpt lat="43.76859" lon="6.31509">
        <ele>1016.9</ele>
        <time>2021-09-07T09:33:49.000Z</time>
      </trkpt>
      <trkpt lat="43.76851" lon="6.31485">
        <ele>1015.8</ele>
        <time>2021-09-07T09:33:54.000Z</time>
      </trkpt>
      <trkpt lat="43.76847" lon="6.31466">
        <ele>1014.9</ele>
        <time>2021-09-07T09:33:59.000Z</time>
      </trkpt>
      <trkpt lat="43.76846" lon="6.31462">
        <ele>1015.2</ele>
        <time>2021-09-07T09:34:01.000Z</time>
      </trkpt>
      <trkpt lat="43.76846" lon="6.3146">
        <ele>1015.2</ele>
        <time>2021-09-07T09:34:03.000Z</time>
      </trkpt>
      <trkpt lat="43.76846" lon="6.31465">
        <ele>1014.8</ele>
        <time>2021-09-07T09:34:08.000Z</time>
      </trkpt>
      <trkpt lat="43.76846" lon="6.31466">
        <ele>1014.7</ele>
        <time>2021-09-07T09:34:09.000Z</time>
      </trkpt>
      <trkpt lat="43.76846" lon="6.31467">
        <ele>1014.7</ele>
        <time>2021-09-07T09:34:11.000Z</time>
      </trkpt>
      <trkpt lat="43.76846" lon="6.31467">
        <ele>1014.6</ele>
        <time>2021-09-07T09:34:15.000Z</time>
      </trkpt>
      <trkpt lat="43.76846" lon="6.31467">
        <ele>1014.7</ele>
        <time>2021-09-07T09:34:17.000Z</time>
      </trkpt>
      <trkpt lat="43.76846" lon="6.31466">
        <ele>1015</ele>
        <time>2021-09-07T09:34:22.000Z</time>
      </trkpt>
      <trkpt lat="43.76846" lon="6.31466">
        <ele>1015.1</ele>
        <time>2021-09-07T09:34:26.000Z</time>
      </trkpt>
      <trkpt lat="43.76846" lon="6.31466">
        <ele>1015.1</ele>
        <time>2021-09-07T09:34:27.000Z</time>
      </trkpt>
      <trkpt lat="43.76846" lon="6.31466">
        <ele>1014.8</ele>
        <time>2021-09-07T09:34:31.000Z</time>
      </trkpt>
      <trkpt lat="43.76845" lon="6.31466">
        <ele>1014.8</ele>
        <time>2021-09-07T09:34:33.000Z</time>
      </trkpt>
      <trkpt lat="43.76845" lon="6.31465">
        <ele>1014.9</ele>
        <time>2021-09-07T09:34:37.000Z</time>
      </trkpt>
      <trkpt lat="43.76845" lon="6.31464">
        <ele>1014.6</ele>
        <time>2021-09-07T09:34:39.000Z</time>
      </trkpt>
      <trkpt lat="43.76845" lon="6.31461">
        <ele>1014.4</ele>
        <time>2021-09-07T09:34:43.000Z</time>
      </trkpt>
      <trkpt lat="43.76836" lon="6.31405">
        <ele>1013.4</ele>
        <time>2021-09-07T09:34:48.000Z</time>
      </trkpt>
      <trkpt lat="43.76827" lon="6.3136">
        <ele>1012.8</ele>
        <time>2021-09-07T09:34:53.000Z</time>
      </trkpt>
      <trkpt lat="43.7681" lon="6.31308">
        <ele>1011</ele>
        <time>2021-09-07T09:34:58.000Z</time>
      </trkpt>
      <trkpt lat="43.7679" lon="6.31255">
        <ele>1008.5</ele>
        <time>2021-09-07T09:35:03.000Z</time>
      </trkpt>
      <trkpt lat="43.76771" lon="6.31218">
        <ele>1006.4</ele>
        <time>2021-09-07T09:35:08.000Z</time>
      </trkpt>
      <trkpt lat="43.76769" lon="6.31212">
        <ele>1005.5</ele>
        <time>2021-09-07T09:35:13.000Z</time>
      </trkpt>
      <trkpt lat="43.76769" lon="6.31212">
        <ele>1005.6</ele>
        <time>2021-09-07T09:35:18.000Z</time>
      </trkpt>
      <trkpt lat="43.76769" lon="6.31212">
        <ele>1005.6</ele>
        <time>2021-09-07T09:35:20.000Z</time>
      </trkpt>
      <trkpt lat="43.76769" lon="6.31211">
        <ele>1005.5</ele>
        <time>2021-09-07T09:35:24.000Z</time>
      </trkpt>
      <trkpt lat="43.76769" lon="6.31211">
        <ele>1005.5</ele>
        <time>2021-09-07T09:35:25.000Z</time>
      </trkpt>
      <trkpt lat="43.76769" lon="6.3121">
        <ele>1005.4</ele>
        <time>2021-09-07T09:35:25.000Z</time>
      </trkpt>
      <trkpt lat="43.76769" lon="6.31208">
        <ele>1005.1</ele>
        <time>2021-09-07T09:35:27.000Z</time>
      </trkpt>
      <trkpt lat="43.76767" lon="6.31205">
        <ele>1005.1</ele>
        <time>2021-09-07T09:35:28.000Z</time>
      </trkpt>
      <trkpt lat="43.76768" lon="6.31206">
        <ele>1005.2</ele>
        <time>2021-09-07T09:35:29.000Z</time>
      </trkpt>
      <trkpt lat="43.76765" lon="6.31203">
        <ele>1004.9</ele>
        <time>2021-09-07T09:35:30.000Z</time>
      </trkpt>
      <trkpt lat="43.76761" lon="6.31198">
        <ele>1004.7</ele>
        <time>2021-09-07T09:35:30.000Z</time>
      </trkpt>
      <trkpt lat="43.76758" lon="6.31193">
        <ele>1004.5</ele>
        <time>2021-09-07T09:35:32.000Z</time>
      </trkpt>
      <trkpt lat="43.76733" lon="6.31143">
        <ele>1003.5</ele>
        <time>2021-09-07T09:35:37.000Z</time>
      </trkpt>
      <trkpt lat="43.76729" lon="6.31097">
        <ele>1002.4</ele>
        <time>2021-09-07T09:35:42.000Z</time>
      </trkpt>
      <trkpt lat="43.76739" lon="6.31045">
        <ele>1001.4</ele>
        <time>2021-09-07T09:35:47.000Z</time>
      </trkpt>
      <trkpt lat="43.76756" lon="6.30985">
        <ele>1000.2</ele>
        <time>2021-09-07T09:35:52.000Z</time>
      </trkpt>
      <trkpt lat="43.76783" lon="6.30925">
        <ele>998</ele>
        <time>2021-09-07T09:35:57.000Z</time>
      </trkpt>
      <trkpt lat="43.76823" lon="6.30876">
        <ele>996.7</ele>
        <time>2021-09-07T09:36:02.000Z</time>
      </trkpt>
      <trkpt lat="43.7687" lon="6.30865">
        <ele>995.1</ele>
        <time>2021-09-07T09:36:07.000Z</time>
      </trkpt>
      <trkpt lat="43.76911" lon="6.30895">
        <ele>995.3</ele>
        <time>2021-09-07T09:36:12.000Z</time>
      </trkpt>
      <trkpt lat="43.76946" lon="6.30922">
        <ele>994.8</ele>
        <time>2021-09-07T09:36:17.000Z</time>
      </trkpt>
      <trkpt lat="43.76988" lon="6.30934">
        <ele>994.8</ele>
        <time>2021-09-07T09:36:22.000Z</time>
      </trkpt>
      <trkpt lat="43.77016" lon="6.30888">
        <ele>992.4</ele>
        <time>2021-09-07T09:36:27.000Z</time>
      </trkpt>
      <trkpt lat="43.77014" lon="6.30812">
        <ele>989.5</ele>
        <time>2021-09-07T09:36:32.000Z</time>
      </trkpt>
      <trkpt lat="43.77029" lon="6.30731">
        <ele>986.5</ele>
        <time>2021-09-07T09:36:37.000Z</time>
      </trkpt>
      <trkpt lat="43.77061" lon="6.30659">
        <ele>981.2</ele>
        <time>2021-09-07T09:36:42.000Z</time>
      </trkpt>
      <trkpt lat="43.77075" lon="6.30604">
        <ele>978</ele>
        <time>2021-09-07T09:36:47.000Z</time>
      </trkpt>
      <trkpt lat="43.77034" lon="6.30558">
        <ele>975.5</ele>
        <time>2021-09-07T09:36:52.000Z</time>
      </trkpt>
      <trkpt lat="43.76989" lon="6.30511">
        <ele>972.3</ele>
        <time>2021-09-07T09:36:57.000Z</time>
      </trkpt>
      <trkpt lat="43.76978" lon="6.30431">
        <ele>971.1</ele>
        <time>2021-09-07T09:37:02.000Z</time>
      </trkpt>
      <trkpt lat="43.76997" lon="6.30366">
        <ele>969.6</ele>
        <time>2021-09-07T09:37:07.000Z</time>
      </trkpt>
      <trkpt lat="43.77052" lon="6.30369">
        <ele>967.2</ele>
        <time>2021-09-07T09:37:12.000Z</time>
      </trkpt>
      <trkpt lat="43.771" lon="6.30368">
        <ele>966.4</ele>
        <time>2021-09-07T09:37:17.000Z</time>
      </trkpt>
      <trkpt lat="43.7712" lon="6.30298">
        <ele>963.2</ele>
        <time>2021-09-07T09:37:22.000Z</time>
      </trkpt>
      <trkpt lat="43.77136" lon="6.30212">
        <ele>960.3</ele>
        <time>2021-09-07T09:37:27.000Z</time>
      </trkpt>
      <trkpt lat="43.77183" lon="6.30144">
        <ele>957.7</ele>
        <time>2021-09-07T09:37:32.000Z</time>
      </trkpt>
      <trkpt lat="43.77208" lon="6.30055">
        <ele>954.9</ele>
        <time>2021-09-07T09:37:37.000Z</time>
      </trkpt>
      <trkpt lat="43.77196" lon="6.29962">
        <ele>949.2</ele>
        <time>2021-09-07T09:37:42.000Z</time>
      </trkpt>
      <trkpt lat="43.77212" lon="6.2988">
        <ele>943.4</ele>
        <time>2021-09-07T09:37:47.000Z</time>
      </trkpt>
      <trkpt lat="43.7726" lon="6.29817">
        <ele>940.5</ele>
        <time>2021-09-07T09:37:52.000Z</time>
      </trkpt>
      <trkpt lat="43.77317" lon="6.29776">
        <ele>935.1</ele>
        <time>2021-09-07T09:37:57.000Z</time>
      </trkpt>
      <trkpt lat="43.77343" lon="6.29695">
        <ele>929.8</ele>
        <time>2021-09-07T09:38:02.000Z</time>
      </trkpt>
      <trkpt lat="43.77373" lon="6.29613">
        <ele>926.5</ele>
        <time>2021-09-07T09:38:07.000Z</time>
      </trkpt>
      <trkpt lat="43.77407" lon="6.29527">
        <ele>923.1</ele>
        <time>2021-09-07T09:38:12.000Z</time>
      </trkpt>
      <trkpt lat="43.77447" lon="6.2945">
        <ele>916.8</ele>
        <time>2021-09-07T09:38:17.000Z</time>
      </trkpt>
      <trkpt lat="43.77474" lon="6.2938">
        <ele>914</ele>
        <time>2021-09-07T09:38:22.000Z</time>
      </trkpt>
      <trkpt lat="43.77453" lon="6.29307">
        <ele>908.8</ele>
        <time>2021-09-07T09:38:27.000Z</time>
      </trkpt>
      <trkpt lat="43.77484" lon="6.29237">
        <ele>904.8</ele>
        <time>2021-09-07T09:38:32.000Z</time>
      </trkpt>
      <trkpt lat="43.7754" lon="6.29178">
        <ele>901.5</ele>
        <time>2021-09-07T09:38:37.000Z</time>
      </trkpt>
      <trkpt lat="43.77588" lon="6.29111">
        <ele>897.6</ele>
        <time>2021-09-07T09:38:42.000Z</time>
      </trkpt>
      <trkpt lat="43.77605" lon="6.29025">
        <ele>894.1</ele>
        <time>2021-09-07T09:38:47.000Z</time>
      </trkpt>
      <trkpt lat="43.77595" lon="6.28933">
        <ele>889.4</ele>
        <time>2021-09-07T09:38:52.000Z</time>
      </trkpt>
      <trkpt lat="43.77598" lon="6.28839">
        <ele>884.7</ele>
        <time>2021-09-07T09:38:57.000Z</time>
      </trkpt>
      <trkpt lat="43.77601" lon="6.28739">
        <ele>880.3</ele>
        <time>2021-09-07T09:39:02.000Z</time>
      </trkpt>
      <trkpt lat="43.77586" lon="6.28641">
        <ele>877.1</ele>
        <time>2021-09-07T09:39:07.000Z</time>
      </trkpt>
      <trkpt lat="43.77573" lon="6.28559">
        <ele>871.6</ele>
        <time>2021-09-07T09:39:12.000Z</time>
      </trkpt>
      <trkpt lat="43.77594" lon="6.28475">
        <ele>868.2</ele>
        <time>2021-09-07T09:39:17.000Z</time>
      </trkpt>
      <trkpt lat="43.77636" lon="6.28403">
        <ele>863.1</ele>
        <time>2021-09-07T09:39:22.000Z</time>
      </trkpt>
      <trkpt lat="43.77688" lon="6.28355">
        <ele>858.9</ele>
        <time>2021-09-07T09:39:27.000Z</time>
      </trkpt>
      <trkpt lat="43.77753" lon="6.28366">
        <ele>856.6</ele>
        <time>2021-09-07T09:39:32.000Z</time>
      </trkpt>
      <trkpt lat="43.77822" lon="6.28351">
        <ele>850.9</ele>
        <time>2021-09-07T09:39:37.000Z</time>
      </trkpt>
      <trkpt lat="43.77888" lon="6.28322">
        <ele>847.3</ele>
        <time>2021-09-07T09:39:42.000Z</time>
      </trkpt>
      <trkpt lat="43.77952" lon="6.28283">
        <ele>842.5</ele>
        <time>2021-09-07T09:39:47.000Z</time>
      </trkpt>
      <trkpt lat="43.78014" lon="6.28271">
        <ele>836.1</ele>
        <time>2021-09-07T09:39:52.000Z</time>
      </trkpt>
      <trkpt lat="43.7806" lon="6.28267">
        <ele>832.1</ele>
        <time>2021-09-07T09:39:57.000Z</time>
      </trkpt>
      <trkpt lat="43.78051" lon="6.28232">
        <ele>829.7</ele>
        <time>2021-09-07T09:40:02.000Z</time>
      </trkpt>
      <trkpt lat="43.78009" lon="6.28238">
        <ele>827.8</ele>
        <time>2021-09-07T09:40:07.000Z</time>
      </trkpt>
      <trkpt lat="43.77957" lon="6.28225">
        <ele>826.2</ele>
        <time>2021-09-07T09:40:12.000Z</time>
      </trkpt>
      <trkpt lat="43.779" lon="6.28232">
        <ele>822.9</ele>
        <time>2021-09-07T09:40:17.000Z</time>
      </trkpt>
      <trkpt lat="43.77845" lon="6.28259">
        <ele>819.3</ele>
        <time>2021-09-07T09:40:22.000Z</time>
      </trkpt>
      <trkpt lat="43.77781" lon="6.2826">
        <ele>815.9</ele>
        <time>2021-09-07T09:40:27.000Z</time>
      </trkpt>
      <trkpt lat="43.77716" lon="6.28245">
        <ele>811.7</ele>
        <time>2021-09-07T09:40:32.000Z</time>
      </trkpt>
      <trkpt lat="43.77653" lon="6.28225">
        <ele>808.8</ele>
        <time>2021-09-07T09:40:37.000Z</time>
      </trkpt>
      <trkpt lat="43.77603" lon="6.28232">
        <ele>802.6</ele>
        <time>2021-09-07T09:40:42.000Z</time>
      </trkpt>
      <trkpt lat="43.77607" lon="6.28213">
        <ele>800.8</ele>
        <time>2021-09-07T09:40:47.000Z</time>
      </trkpt>
      <trkpt lat="43.77651" lon="6.2822">
        <ele>798.7</ele>
        <time>2021-09-07T09:40:52.000Z</time>
      </trkpt>
      <trkpt lat="43.77706" lon="6.28219">
        <ele>796.5</ele>
        <time>2021-09-07T09:40:57.000Z</time>
      </trkpt>
      <trkpt lat="43.77766" lon="6.2821">
        <ele>793.7</ele>
        <time>2021-09-07T09:41:02.000Z</time>
      </trkpt>
      <trkpt lat="43.77828" lon="6.28183">
        <ele>790.2</ele>
        <time>2021-09-07T09:41:07.000Z</time>
      </trkpt>
      <trkpt lat="43.77888" lon="6.2814">
        <ele>786.2</ele>
        <time>2021-09-07T09:41:12.000Z</time>
      </trkpt>
      <trkpt lat="43.77949" lon="6.28093">
        <ele>780.8</ele>
        <time>2021-09-07T09:41:17.000Z</time>
      </trkpt>
      <trkpt lat="43.78016" lon="6.28065">
        <ele>776.7</ele>
        <time>2021-09-07T09:41:22.000Z</time>
      </trkpt>
      <trkpt lat="43.78075" lon="6.28014">
        <ele>770.9</ele>
        <time>2021-09-07T09:41:27.000Z</time>
      </trkpt>
      <trkpt lat="43.78096" lon="6.27935">
        <ele>767.4</ele>
        <time>2021-09-07T09:41:32.000Z</time>
      </trkpt>
      <trkpt lat="43.78123" lon="6.27856">
        <ele>762.9</ele>
        <time>2021-09-07T09:41:37.000Z</time>
      </trkpt>
      <trkpt lat="43.78166" lon="6.27779">
        <ele>758.8</ele>
        <time>2021-09-07T09:41:42.000Z</time>
      </trkpt>
      <trkpt lat="43.78212" lon="6.27711">
        <ele>753.5</ele>
        <time>2021-09-07T09:41:47.000Z</time>
      </trkpt>
      <trkpt lat="43.78265" lon="6.27687">
        <ele>749.7</ele>
        <time>2021-09-07T09:41:52.000Z</time>
      </trkpt>
      <trkpt lat="43.78283" lon="6.2762">
        <ele>745.4</ele>
        <time>2021-09-07T09:41:57.000Z</time>
      </trkpt>
      <trkpt lat="43.78309" lon="6.27542">
        <ele>742.1</ele>
        <time>2021-09-07T09:42:02.000Z</time>
      </trkpt>
      <trkpt lat="43.78346" lon="6.27476">
        <ele>739.2</ele>
        <time>2021-09-07T09:42:07.000Z</time>
      </trkpt>
      <trkpt lat="43.78352" lon="6.2739">
        <ele>734</ele>
        <time>2021-09-07T09:42:12.000Z</time>
      </trkpt>
      <trkpt lat="43.7839" lon="6.27315">
        <ele>730.4</ele>
        <time>2021-09-07T09:42:17.000Z</time>
      </trkpt>
      <trkpt lat="43.78434" lon="6.27264">
        <ele>725.9</ele>
        <time>2021-09-07T09:42:22.000Z</time>
      </trkpt>
      <trkpt lat="43.78447" lon="6.27216">
        <ele>724.7</ele>
        <time>2021-09-07T09:42:27.000Z</time>
      </trkpt>
      <trkpt lat="43.78454" lon="6.27156">
        <ele>723.2</ele>
        <time>2021-09-07T09:42:32.000Z</time>
      </trkpt>
      <trkpt lat="43.78463" lon="6.27089">
        <ele>722</ele>
        <time>2021-09-07T09:42:37.000Z</time>
      </trkpt>
      <trkpt lat="43.78444" lon="6.27014">
        <ele>719.8</ele>
        <time>2021-09-07T09:42:42.000Z</time>
      </trkpt>
      <trkpt lat="43.78435" lon="6.26928">
        <ele>718.5</ele>
        <time>2021-09-07T09:42:47.000Z</time>
      </trkpt>
      <trkpt lat="43.78432" lon="6.2684">
        <ele>716.8</ele>
        <time>2021-09-07T09:42:52.000Z</time>
      </trkpt>
      <trkpt lat="43.78442" lon="6.26762">
        <ele>714.3</ele>
        <time>2021-09-07T09:42:57.000Z</time>
      </trkpt>
      <trkpt lat="43.78492" lon="6.26719">
        <ele>712.4</ele>
        <time>2021-09-07T09:43:02.000Z</time>
      </trkpt>
      <trkpt lat="43.78543" lon="6.26676">
        <ele>708.8</ele>
        <time>2021-09-07T09:43:07.000Z</time>
      </trkpt>
      <trkpt lat="43.78597" lon="6.2668">
        <ele>708.8</ele>
        <time>2021-09-07T09:43:12.000Z</time>
      </trkpt>
      <trkpt lat="43.78641" lon="6.2663">
        <ele>704.8</ele>
        <time>2021-09-07T09:43:17.000Z</time>
      </trkpt>
      <trkpt lat="43.78698" lon="6.26593">
        <ele>701.2</ele>
        <time>2021-09-07T09:43:22.000Z</time>
      </trkpt>
      <trkpt lat="43.7875" lon="6.26585">
        <ele>696.6</ele>
        <time>2021-09-07T09:43:27.000Z</time>
      </trkpt>
      <trkpt lat="43.78793" lon="6.26634">
        <ele>694.6</ele>
        <time>2021-09-07T09:43:32.000Z</time>
      </trkpt>
      <trkpt lat="43.78847" lon="6.26657">
        <ele>692</ele>
        <time>2021-09-07T09:43:37.000Z</time>
      </trkpt>
      <trkpt lat="43.78897" lon="6.26661">
        <ele>689.5</ele>
        <time>2021-09-07T09:43:42.000Z</time>
      </trkpt>
      <trkpt lat="43.78915" lon="6.26592">
        <ele>684</ele>
        <time>2021-09-07T09:43:47.000Z</time>
      </trkpt>
      <trkpt lat="43.7895" lon="6.26531">
        <ele>680.4</ele>
        <time>2021-09-07T09:43:52.000Z</time>
      </trkpt>
      <trkpt lat="43.79007" lon="6.26534">
        <ele>678.8</ele>
        <time>2021-09-07T09:43:57.000Z</time>
      </trkpt>
      <trkpt lat="43.79067" lon="6.26506">
        <ele>676</ele>
        <time>2021-09-07T09:44:02.000Z</time>
      </trkpt>
      <trkpt lat="43.79121" lon="6.26514">
        <ele>674.7</ele>
        <time>2021-09-07T09:44:07.000Z</time>
      </trkpt>
      <trkpt lat="43.79176" lon="6.26517">
        <ele>674.4</ele>
        <time>2021-09-07T09:44:12.000Z</time>
      </trkpt>
      <trkpt lat="43.79233" lon="6.26517">
        <ele>672</ele>
        <time>2021-09-07T09:44:17.000Z</time>
      </trkpt>
      <trkpt lat="43.7929" lon="6.2651">
        <ele>671.1</ele>
        <time>2021-09-07T09:44:22.000Z</time>
      </trkpt>
      <trkpt lat="43.79345" lon="6.26493">
        <ele>668.9</ele>
        <time>2021-09-07T09:44:27.000Z</time>
      </trkpt>
      <trkpt lat="43.79391" lon="6.26442">
        <ele>666.2</ele>
        <time>2021-09-07T09:44:32.000Z</time>
      </trkpt>
      <trkpt lat="43.79413" lon="6.26362">
        <ele>662.6</ele>
        <time>2021-09-07T09:44:37.000Z</time>
      </trkpt>
      <trkpt lat="43.7945" lon="6.26296">
        <ele>660</ele>
        <time>2021-09-07T09:44:42.000Z</time>
      </trkpt>
      <trkpt lat="43.79478" lon="6.26241">
        <ele>658.5</ele>
        <time>2021-09-07T09:44:47.000Z</time>
      </trkpt>
      <trkpt lat="43.79514" lon="6.26273">
        <ele>658.1</ele>
        <time>2021-09-07T09:44:52.000Z</time>
      </trkpt>
      <trkpt lat="43.79547" lon="6.2632">
        <ele>659.2</ele>
        <time>2021-09-07T09:44:57.000Z</time>
      </trkpt>
      <trkpt lat="43.79589" lon="6.26333">
        <ele>660.2</ele>
        <time>2021-09-07T09:45:02.000Z</time>
      </trkpt>
      <trkpt lat="43.79632" lon="6.26315">
        <ele>660.1</ele>
        <time>2021-09-07T09:45:07.000Z</time>
      </trkpt>
      <trkpt lat="43.79673" lon="6.26301">
        <ele>659</ele>
        <time>2021-09-07T09:45:12.000Z</time>
      </trkpt>
      <trkpt lat="43.79706" lon="6.26274">
        <ele>657.8</ele>
        <time>2021-09-07T09:45:17.000Z</time>
      </trkpt>
      <trkpt lat="43.79743" lon="6.26255">
        <ele>657.1</ele>
        <time>2021-09-07T09:45:22.000Z</time>
      </trkpt>
      <trkpt lat="43.79775" lon="6.26216">
        <ele>656.3</ele>
        <time>2021-09-07T09:45:27.000Z</time>
      </trkpt>
      <trkpt lat="43.79811" lon="6.26187">
        <ele>656.4</ele>
        <time>2021-09-07T09:45:32.000Z</time>
      </trkpt>
      <trkpt lat="43.79811" lon="6.26142">
        <ele>656.5</ele>
        <time>2021-09-07T09:45:37.000Z</time>
      </trkpt>
      <trkpt lat="43.79788" lon="6.26101">
        <ele>657.7</ele>
        <time>2021-09-07T09:45:42.000Z</time>
      </trkpt>
      <trkpt lat="43.79788" lon="6.26069">
        <ele>658.8</ele>
        <time>2021-09-07T09:45:47.000Z</time>
      </trkpt>
      <trkpt lat="43.79804" lon="6.26048">
        <ele>660.4</ele>
        <time>2021-09-07T09:45:52.000Z</time>
      </trkpt>
      <trkpt lat="43.79816" lon="6.26027">
        <ele>661.4</ele>
        <time>2021-09-07T09:45:57.000Z</time>
      </trkpt>
      <trkpt lat="43.79818" lon="6.26026">
        <ele>661.6</ele>
        <time>2021-09-07T09:45:58.000Z</time>
      </trkpt>
      <trkpt lat="43.79819" lon="6.26023">
        <ele>661.6</ele>
        <time>2021-09-07T09:46:00.000Z</time>
      </trkpt>
      <trkpt lat="43.79827" lon="6.26006">
        <ele>662.3</ele>
        <time>2021-09-07T09:46:01.000Z</time>
      </trkpt>
      <trkpt lat="43.7983" lon="6.26002">
        <ele>662.1</ele>
        <time>2021-09-07T09:46:02.000Z</time>
      </trkpt>
      <trkpt lat="43.79844" lon="6.25988">
        <ele>661.8</ele>
        <time>2021-09-07T09:46:06.000Z</time>
      </trkpt>
      <trkpt lat="43.79842" lon="6.2599">
        <ele>661.8</ele>
        <time>2021-09-07T09:46:07.000Z</time>
      </trkpt>
      <trkpt lat="43.79847" lon="6.25985">
        <ele>661.9</ele>
        <time>2021-09-07T09:46:08.000Z</time>
      </trkpt>
      <trkpt lat="43.79862" lon="6.25981">
        <ele>662.6</ele>
        <time>2021-09-07T09:46:11.000Z</time>
      </trkpt>
      <trkpt lat="43.79866" lon="6.2598">
        <ele>662.8</ele>
        <time>2021-09-07T09:46:12.000Z</time>
      </trkpt>
      <trkpt lat="43.79873" lon="6.25976">
        <ele>662.8</ele>
        <time>2021-09-07T09:46:14.000Z</time>
      </trkpt>
      <trkpt lat="43.79877" lon="6.25974">
        <ele>662.8</ele>
        <time>2021-09-07T09:46:15.000Z</time>
      </trkpt>
      <trkpt lat="43.79881" lon="6.25972">
        <ele>662.7</ele>
        <time>2021-09-07T09:46:16.000Z</time>
      </trkpt>
      <trkpt lat="43.79875" lon="6.25975">
        <ele>662.8</ele>
        <time>2021-09-07T09:46:16.000Z</time>
      </trkpt>
      <trkpt lat="43.7988" lon="6.25973">
        <ele>662.8</ele>
        <time>2021-09-07T09:46:17.000Z</time>
      </trkpt>
      <trkpt lat="43.79884" lon="6.25969">
        <ele>662.5</ele>
        <time>2021-09-07T09:46:17.000Z</time>
      </trkpt>
      <trkpt lat="43.79886" lon="6.25966">
        <ele>662.4</ele>
        <time>2021-09-07T09:46:18.000Z</time>
      </trkpt>
      <trkpt lat="43.79889" lon="6.25964">
        <ele>662.5</ele>
        <time>2021-09-07T09:46:19.000Z</time>
      </trkpt>
      <trkpt lat="43.79889" lon="6.25964">
        <ele>662.5</ele>
        <time>2021-09-07T09:46:24.000Z</time>
      </trkpt>
      <trkpt lat="43.7989" lon="6.25963">
        <ele>662.5</ele>
        <time>2021-09-07T09:46:25.000Z</time>
      </trkpt>
      <trkpt lat="43.79891" lon="6.25962">
        <ele>662.5</ele>
        <time>2021-09-07T09:46:26.000Z</time>
      </trkpt>
      <trkpt lat="43.79891" lon="6.25962">
        <ele>662.5</ele>
        <time>2021-09-07T09:46:27.000Z</time>
      </trkpt>
      <trkpt lat="43.79892" lon="6.25961">
        <ele>662.5</ele>
        <time>2021-09-07T09:46:27.000Z</time>
      </trkpt>
      <trkpt lat="43.79897" lon="6.25959">
        <ele>662.5</ele>
        <time>2021-09-07T09:46:32.000Z</time>
      </trkpt>
      <trkpt lat="43.79899" lon="6.25957">
        <ele>662.4</ele>
        <time>2021-09-07T09:46:33.000Z</time>
      </trkpt>
      <trkpt lat="43.799" lon="6.25956">
        <ele>662.6</ele>
        <time>2021-09-07T09:46:37.000Z</time>
      </trkpt>
      <trkpt lat="43.79901" lon="6.25956">
        <ele>662.3</ele>
        <time>2021-09-07T09:46:42.000Z</time>
      </trkpt>
      <trkpt lat="43.79901" lon="6.25956">
        <ele>662.5</ele>
        <time>2021-09-07T09:46:44.000Z</time>
      </trkpt>
      <trkpt lat="43.79901" lon="6.25956">
        <ele>662.4</ele>
        <time>2021-09-07T09:46:45.000Z</time>
      </trkpt>
      <trkpt lat="43.79901" lon="6.25955">
        <ele>662.4</ele>
        <time>2021-09-07T09:46:50.000Z</time>
      </trkpt>
      <trkpt lat="43.79901" lon="6.25955">
        <ele>662.5</ele>
        <time>2021-09-07T09:46:55.000Z</time>
      </trkpt>
      <trkpt lat="43.79901" lon="6.25956">
        <ele>662.4</ele>
        <time>2021-09-07T09:46:59.000Z</time>
      </trkpt>
      <trkpt lat="43.79901" lon="6.25956">
        <ele>662.5</ele>
        <time>2021-09-07T09:47:04.000Z</time>
      </trkpt>
      <trkpt lat="43.79901" lon="6.25956">
        <ele>662.4</ele>
        <time>2021-09-07T09:47:09.000Z</time>
      </trkpt>
      <trkpt lat="43.79901" lon="6.25956">
        <ele>662.2</ele>
        <time>2021-09-07T09:47:14.000Z</time>
      </trkpt>
      <trkpt lat="43.79901" lon="6.25956">
        <ele>662.1</ele>
        <time>2021-09-07T09:47:15.000Z</time>
      </trkpt>
      <trkpt lat="43.79903" lon="6.25955">
        <ele>662</ele>
        <time>2021-09-07T09:47:21.000Z</time>
      </trkpt>
      <trkpt lat="43.79903" lon="6.25955">
        <ele>662</ele>
        <time>2021-09-07T09:47:22.000Z</time>
      </trkpt>
      <trkpt lat="43.79903" lon="6.25956">
        <ele>662</ele>
        <time>2021-09-07T09:47:25.000Z</time>
      </trkpt>
      <trkpt lat="43.79908" lon="6.25959">
        <ele>662.2</ele>
        <time>2021-09-07T09:47:30.000Z</time>
      </trkpt>
      <trkpt lat="43.79917" lon="6.25958">
        <ele>662.5</ele>
        <time>2021-09-07T09:47:33.000Z</time>
      </trkpt>
      <trkpt lat="43.79921" lon="6.25958">
        <ele>662.5</ele>
        <time>2021-09-07T09:47:34.000Z</time>
      </trkpt>
      <trkpt lat="43.79928" lon="6.25959">
        <ele>662.5</ele>
        <time>2021-09-07T09:47:36.000Z</time>
      </trkpt>
      <trkpt lat="43.7993" lon="6.2596">
        <ele>662.5</ele>
        <time>2021-09-07T09:47:38.000Z</time>
      </trkpt>
      <trkpt lat="43.79934" lon="6.2596">
        <ele>662.6</ele>
        <time>2021-09-07T09:47:38.000Z</time>
      </trkpt>
      <trkpt lat="43.79937" lon="6.25961">
        <ele>662.5</ele>
        <time>2021-09-07T09:47:39.000Z</time>
      </trkpt>
      <trkpt lat="43.79946" lon="6.25966">
        <ele>663</ele>
        <time>2021-09-07T09:47:41.000Z</time>
      </trkpt>
      <trkpt lat="43.79949" lon="6.25967">
        <ele>663</ele>
        <time>2021-09-07T09:47:43.000Z</time>
      </trkpt>
      <trkpt lat="43.79954" lon="6.2597">
        <ele>663</ele>
        <time>2021-09-07T09:47:43.000Z</time>
      </trkpt>
      <trkpt lat="43.79958" lon="6.25973">
        <ele>662.7</ele>
        <time>2021-09-07T09:47:45.000Z</time>
      </trkpt>
      <trkpt lat="43.79963" lon="6.25976">
        <ele>662.9</ele>
        <time>2021-09-07T09:47:45.000Z</time>
      </trkpt>
      <trkpt lat="43.79967" lon="6.25978">
        <ele>662.9</ele>
        <time>2021-09-07T09:47:46.000Z</time>
      </trkpt>
      <trkpt lat="43.79965" lon="6.25978">
        <ele>662.7</ele>
        <time>2021-09-07T09:47:47.000Z</time>
      </trkpt>
      <trkpt lat="43.79971" lon="6.25978">
        <ele>663.2</ele>
        <time>2021-09-07T09:47:47.000Z</time>
      </trkpt>
      <trkpt lat="43.79984" lon="6.25979">
        <ele>663.3</ele>
        <time>2021-09-07T09:47:50.000Z</time>
      </trkpt>
      <trkpt lat="43.79989" lon="6.2598">
        <ele>663.1</ele>
        <time>2021-09-07T09:47:51.000Z</time>
      </trkpt>
      <trkpt lat="43.79994" lon="6.25981">
        <ele>662.9</ele>
        <time>2021-09-07T09:47:52.000Z</time>
      </trkpt>
      <trkpt lat="43.79988" lon="6.2598">
        <ele>663.2</ele>
        <time>2021-09-07T09:47:52.000Z</time>
      </trkpt>
      <trkpt lat="43.79991" lon="6.25981">
        <ele>663</ele>
        <time>2021-09-07T09:47:53.000Z</time>
      </trkpt>
      <trkpt lat="43.79998" lon="6.25982">
        <ele>662.8</ele>
        <time>2021-09-07T09:47:54.000Z</time>
      </trkpt>
      <trkpt lat="43.80005" lon="6.25982">
        <ele>662.9</ele>
        <time>2021-09-07T09:47:54.000Z</time>
      </trkpt>
      <trkpt lat="43.80006" lon="6.25982">
        <ele>662.9</ele>
        <time>2021-09-07T09:47:56.000Z</time>
      </trkpt>
      <trkpt lat="43.80016" lon="6.25984">
        <ele>663.3</ele>
        <time>2021-09-07T09:47:56.000Z</time>
      </trkpt>
      <trkpt lat="43.80021" lon="6.25986">
        <ele>663.2</ele>
        <time>2021-09-07T09:47:58.000Z</time>
      </trkpt>
      <trkpt lat="43.80038" lon="6.25989">
        <ele>662.7</ele>
        <time>2021-09-07T09:47:59.000Z</time>
      </trkpt>
      <trkpt lat="43.80045" lon="6.25988">
        <ele>663</ele>
        <time>2021-09-07T09:48:00.000Z</time>
      </trkpt>
      <trkpt lat="43.80066" lon="6.25953">
        <ele>663.9</ele>
        <time>2021-09-07T09:48:05.000Z</time>
      </trkpt>
      <trkpt lat="43.80075" lon="6.25909">
        <ele>662.9</ele>
        <time>2021-09-07T09:48:10.000Z</time>
      </trkpt>
      <trkpt lat="43.80082" lon="6.25874">
        <ele>662.1</ele>
        <time>2021-09-07T09:48:15.000Z</time>
      </trkpt>
      <trkpt lat="43.80078" lon="6.25837">
        <ele>661.8</ele>
        <time>2021-09-07T09:48:20.000Z</time>
      </trkpt>
      <trkpt lat="43.80072" lon="6.25795">
        <ele>661.6</ele>
        <time>2021-09-07T09:48:25.000Z</time>
      </trkpt>
      <trkpt lat="43.80047" lon="6.25774">
        <ele>661.9</ele>
        <time>2021-09-07T09:48:30.000Z</time>
      </trkpt>
      <trkpt lat="43.80037" lon="6.25754">
        <ele>661.5</ele>
        <time>2021-09-07T09:48:35.000Z</time>
      </trkpt>
      <trkpt lat="43.80036" lon="6.25755">
        <ele>661.5</ele>
        <time>2021-09-07T09:48:36.000Z</time>
      </trkpt>
      <trkpt lat="43.80036" lon="6.25756">
        <ele>661.4</ele>
        <time>2021-09-07T09:48:38.000Z</time>
      </trkpt>
      <trkpt lat="43.80036" lon="6.25758">
        <ele>661.4</ele>
        <time>2021-09-07T09:48:38.000Z</time>
      </trkpt>
      <trkpt lat="43.80036" lon="6.25758">
        <ele>661.6</ele>
        <time>2021-09-07T09:48:41.000Z</time>
      </trkpt>
      <trkpt lat="43.80036" lon="6.25759">
        <ele>661.5</ele>
        <time>2021-09-07T09:48:42.000Z</time>
      </trkpt>
      <trkpt lat="43.80035" lon="6.25759">
        <ele>661.4</ele>
        <time>2021-09-07T09:48:47.000Z</time>
      </trkpt>
      <trkpt lat="43.80035" lon="6.25759">
        <ele>661.3</ele>
        <time>2021-09-07T09:48:49.000Z</time>
      </trkpt>
      <trkpt lat="43.80035" lon="6.25759">
        <ele>661.3</ele>
        <time>2021-09-07T09:48:53.000Z</time>
      </trkpt>
      <trkpt lat="43.80035" lon="6.25758">
        <ele>661.4</ele>
        <time>2021-09-07T09:48:55.000Z</time>
      </trkpt>
      <trkpt lat="43.80035" lon="6.25758">
        <ele>661.5</ele>
        <time>2021-09-07T09:48:59.000Z</time>
      </trkpt>
      <trkpt lat="43.80035" lon="6.25758">
        <ele>661.5</ele>
        <time>2021-09-07T09:49:00.000Z</time>
      </trkpt>
      <trkpt lat="43.80035" lon="6.25759">
        <ele>661.4</ele>
        <time>2021-09-07T09:49:05.000Z</time>
      </trkpt>
      <trkpt lat="43.80035" lon="6.2576">
        <ele>661.3</ele>
        <time>2021-09-07T09:49:07.000Z</time>
      </trkpt>
      <trkpt lat="43.80034" lon="6.25756">
        <ele>661.8</ele>
        <time>2021-09-07T09:49:12.000Z</time>
      </trkpt>
      <trkpt lat="43.80034" lon="6.25753">
        <ele>662</ele>
        <time>2021-09-07T09:49:14.000Z</time>
      </trkpt>
      <trkpt lat="43.80034" lon="6.25753">
        <ele>661.9</ele>
        <time>2021-09-07T09:49:15.000Z</time>
      </trkpt>
      <trkpt lat="43.80034" lon="6.25754">
        <ele>661.8</ele>
        <time>2021-09-07T09:49:17.000Z</time>
      </trkpt>
      <trkpt lat="43.80034" lon="6.25755">
        <ele>661.8</ele>
        <time>2021-09-07T09:49:18.000Z</time>
      </trkpt>
      <trkpt lat="43.80034" lon="6.25755">
        <ele>661.8</ele>
        <time>2021-09-07T09:49:19.000Z</time>
      </trkpt>
      <trkpt lat="43.80033" lon="6.25755">
        <ele>662</ele>
        <time>2021-09-07T09:49:20.000Z</time>
      </trkpt>
      <trkpt lat="43.80032" lon="6.25754">
        <ele>661.9</ele>
        <time>2021-09-07T09:49:25.000Z</time>
      </trkpt>
      <trkpt lat="43.80032" lon="6.25753">
        <ele>661.8</ele>
        <time>2021-09-07T09:49:27.000Z</time>
      </trkpt>
      <trkpt lat="43.80032" lon="6.25753">
        <ele>662</ele>
        <time>2021-09-07T09:49:27.000Z</time>
      </trkpt>
      <trkpt lat="43.80031" lon="6.25753">
        <ele>662</ele>
        <time>2021-09-07T09:49:30.000Z</time>
      </trkpt>
      <trkpt lat="43.80031" lon="6.25752">
        <ele>661.8</ele>
        <time>2021-09-07T09:49:30.000Z</time>
      </trkpt>
      <trkpt lat="43.80031" lon="6.25749">
        <ele>662.3</ele>
        <time>2021-09-07T09:49:31.000Z</time>
      </trkpt>
      <trkpt lat="43.8003" lon="6.25748">
        <ele>662.2</ele>
        <time>2021-09-07T09:49:32.000Z</time>
      </trkpt>
      <trkpt lat="43.80033" lon="6.25735">
        <ele>662.2</ele>
        <time>2021-09-07T09:49:37.000Z</time>
      </trkpt>
      <trkpt lat="43.80036" lon="6.25723">
        <ele>661.8</ele>
        <time>2021-09-07T09:49:42.000Z</time>
      </trkpt>
      <trkpt lat="43.80036" lon="6.25724">
        <ele>661.7</ele>
        <time>2021-09-07T09:49:43.000Z</time>
      </trkpt>
      <trkpt lat="43.80036" lon="6.25722">
        <ele>661.9</ele>
        <time>2021-09-07T09:49:43.000Z</time>
      </trkpt>
      <trkpt lat="43.80036" lon="6.25722">
        <ele>661.9</ele>
        <time>2021-09-07T09:49:44.000Z</time>
      </trkpt>
      <trkpt lat="43.80035" lon="6.25723">
        <ele>661.9</ele>
        <time>2021-09-07T09:49:45.000Z</time>
      </trkpt>
      <trkpt lat="43.80034" lon="6.25723">
        <ele>661.9</ele>
        <time>2021-09-07T09:49:47.000Z</time>
      </trkpt>
      <trkpt lat="43.80034" lon="6.25723">
        <ele>662</ele>
        <time>2021-09-07T09:49:51.000Z</time>
      </trkpt>
      <trkpt lat="43.80034" lon="6.25725">
        <ele>662</ele>
        <time>2021-09-07T09:49:56.000Z</time>
      </trkpt>
      <trkpt lat="43.80034" lon="6.25724">
        <ele>661.5</ele>
        <time>2021-09-07T09:49:58.000Z</time>
      </trkpt>
      <trkpt lat="43.80034" lon="6.25724">
        <ele>661.4</ele>
        <time>2021-09-07T09:49:59.000Z</time>
      </trkpt>
      <trkpt lat="43.80034" lon="6.25725">
        <ele>661.5</ele>
        <time>2021-09-07T09:50:03.000Z</time>
      </trkpt>
      <trkpt lat="43.80034" lon="6.25726">
        <ele>661.5</ele>
        <time>2021-09-07T09:50:04.000Z</time>
      </trkpt>
      <trkpt lat="43.80034" lon="6.25724">
        <ele>661.5</ele>
        <time>2021-09-07T09:50:05.000Z</time>
      </trkpt>
      <trkpt lat="43.80035" lon="6.25724">
        <ele>661.6</ele>
        <time>2021-09-07T09:50:05.000Z</time>
      </trkpt>
      <trkpt lat="43.80035" lon="6.25724">
        <ele>661.6</ele>
        <time>2021-09-07T09:50:06.000Z</time>
      </trkpt>
      <trkpt lat="43.80035" lon="6.25725">
        <ele>661.5</ele>
        <time>2021-09-07T09:50:09.000Z</time>
      </trkpt>
      <trkpt lat="43.80035" lon="6.25725">
        <ele>661.6</ele>
        <time>2021-09-07T09:50:11.000Z</time>
      </trkpt>
      <trkpt lat="43.80035" lon="6.25725">
        <ele>661.5</ele>
        <time>2021-09-07T09:50:16.000Z</time>
      </trkpt>
      <trkpt lat="43.80034" lon="6.25724">
        <ele>661.7</ele>
        <time>2021-09-07T09:50:18.000Z</time>
      </trkpt>
      <trkpt lat="43.80034" lon="6.25724">
        <ele>661.6</ele>
        <time>2021-09-07T09:50:21.000Z</time>
      </trkpt>
      <trkpt lat="43.80034" lon="6.25723">
        <ele>661.6</ele>
        <time>2021-09-07T09:50:22.000Z</time>
      </trkpt>
      <trkpt lat="43.80029" lon="6.25723">
        <ele>661.6</ele>
        <time>2021-09-07T09:50:27.000Z</time>
      </trkpt>
      <trkpt lat="43.80027" lon="6.25726">
        <ele>661.7</ele>
        <time>2021-09-07T09:50:31.000Z</time>
      </trkpt>
      <trkpt lat="43.80027" lon="6.25726">
        <ele>661.6</ele>
        <time>2021-09-07T09:50:32.000Z</time>
      </trkpt>
      <trkpt lat="43.80027" lon="6.25726">
        <ele>661.7</ele>
        <time>2021-09-07T09:50:33.000Z</time>
      </trkpt>
      <trkpt lat="43.80029" lon="6.25724">
        <ele>661.6</ele>
        <time>2021-09-07T09:50:35.000Z</time>
      </trkpt>
      <trkpt lat="43.80029" lon="6.25724">
        <ele>661.6</ele>
        <time>2021-09-07T09:50:36.000Z</time>
      </trkpt>
      <trkpt lat="43.80029" lon="6.25723">
        <ele>661.5</ele>
        <time>2021-09-07T09:50:40.000Z</time>
      </trkpt>
      <trkpt lat="43.80028" lon="6.25723">
        <ele>661.5</ele>
        <time>2021-09-07T09:50:43.000Z</time>
      </trkpt>
      <trkpt lat="43.80028" lon="6.25723">
        <ele>661.6</ele>
        <time>2021-09-07T09:50:44.000Z</time>
      </trkpt>
      <trkpt lat="43.80029" lon="6.25723">
        <ele>661.5</ele>
        <time>2021-09-07T09:50:44.000Z</time>
      </trkpt>
      <trkpt lat="43.80036" lon="6.25719">
        <ele>661.7</ele>
        <time>2021-09-07T09:50:49.000Z</time>
      </trkpt>
      <trkpt lat="43.8005" lon="6.25711">
        <ele>661.8</ele>
        <time>2021-09-07T09:50:54.000Z</time>
      </trkpt>
      <trkpt lat="43.80074" lon="6.25692">
        <ele>661.7</ele>
        <time>2021-09-07T09:50:59.000Z</time>
      </trkpt>
      <trkpt lat="43.80071" lon="6.25696">
        <ele>661.8</ele>
        <time>2021-09-07T09:51:00.000Z</time>
      </trkpt>
      <trkpt lat="43.8008" lon="6.25683">
        <ele>662.1</ele>
        <time>2021-09-07T09:51:01.000Z</time>
      </trkpt>
      <trkpt lat="43.80075" lon="6.25691">
        <ele>661.9</ele>
        <time>2021-09-07T09:51:02.000Z</time>
      </trkpt>
      <trkpt lat="43.80082" lon="6.2568">
        <ele>662.1</ele>
        <time>2021-09-07T09:51:02.000Z</time>
      </trkpt>
      <trkpt lat="43.80094" lon="6.25671">
        <ele>661.9</ele>
        <time>2021-09-07T09:51:07.000Z</time>
      </trkpt>
      <trkpt lat="43.80096" lon="6.25669">
        <ele>661.9</ele>
        <time>2021-09-07T09:51:08.000Z</time>
      </trkpt>
      <trkpt lat="43.80092" lon="6.25673">
        <ele>662.1</ele>
        <time>2021-09-07T09:51:08.000Z</time>
      </trkpt>
      <trkpt lat="43.80097" lon="6.25666">
        <ele>662</ele>
        <time>2021-09-07T09:51:09.000Z</time>
      </trkpt>
      <trkpt lat="43.80097" lon="6.25665">
        <ele>662</ele>
        <time>2021-09-07T09:51:10.000Z</time>
      </trkpt>
      <trkpt lat="43.80095" lon="6.2567">
        <ele>661.9</ele>
        <time>2021-09-07T09:51:10.000Z</time>
      </trkpt>
      <trkpt lat="43.80096" lon="6.25667">
        <ele>661.9</ele>
        <time>2021-09-07T09:51:11.000Z</time>
      </trkpt>
      <trkpt lat="43.80095" lon="6.25668">
        <ele>661.8</ele>
        <time>2021-09-07T09:51:16.000Z</time>
      </trkpt>
      <trkpt lat="43.80095" lon="6.25668">
        <ele>661.8</ele>
        <time>2021-09-07T09:51:17.000Z</time>
      </trkpt>
      <trkpt lat="43.80095" lon="6.25668">
        <ele>661.6</ele>
        <time>2021-09-07T09:51:18.000Z</time>
      </trkpt>
      <trkpt lat="43.80095" lon="6.25668">
        <ele>661.9</ele>
        <time>2021-09-07T09:51:21.000Z</time>
      </trkpt>
      <trkpt lat="43.80094" lon="6.25668">
        <ele>662.2</ele>
        <time>2021-09-07T09:51:23.000Z</time>
      </trkpt>
      <trkpt lat="43.80094" lon="6.25668">
        <ele>662</ele>
        <time>2021-09-07T09:51:24.000Z</time>
      </trkpt>
      <trkpt lat="43.80094" lon="6.25668">
        <ele>662.1</ele>
        <time>2021-09-07T09:51:26.000Z</time>
      </trkpt>
      <trkpt lat="43.80094" lon="6.25668">
        <ele>661.9</ele>
        <time>2021-09-07T09:51:28.000Z</time>
      </trkpt>
      <trkpt lat="43.80094" lon="6.25668">
        <ele>661.8</ele>
        <time>2021-09-07T09:51:29.000Z</time>
      </trkpt>
      <trkpt lat="43.8009" lon="6.25669">
        <ele>661.8</ele>
        <time>2021-09-07T09:51:34.000Z</time>
      </trkpt>
      <trkpt lat="43.80091" lon="6.25668">
        <ele>661.9</ele>
        <time>2021-09-07T09:51:35.000Z</time>
      </trkpt>
      <trkpt lat="43.80089" lon="6.25669">
        <ele>661.6</ele>
        <time>2021-09-07T09:51:39.000Z</time>
      </trkpt>
      <trkpt lat="43.80089" lon="6.25668">
        <ele>661.8</ele>
        <time>2021-09-07T09:51:40.000Z</time>
      </trkpt>
      <trkpt lat="43.80089" lon="6.25667">
        <ele>661.7</ele>
        <time>2021-09-07T09:51:44.000Z</time>
      </trkpt>
      <trkpt lat="43.80089" lon="6.25668">
        <ele>661.4</ele>
        <time>2021-09-07T09:51:45.000Z</time>
      </trkpt>
      <trkpt lat="43.80089" lon="6.25666">
        <ele>661.9</ele>
        <time>2021-09-07T09:51:46.000Z</time>
      </trkpt>
      <trkpt lat="43.80088" lon="6.25667">
        <ele>661.7</ele>
        <time>2021-09-07T09:51:48.000Z</time>
      </trkpt>
      <trkpt lat="43.80088" lon="6.25667">
        <ele>661.8</ele>
        <time>2021-09-07T09:51:51.000Z</time>
      </trkpt>
      <trkpt lat="43.80088" lon="6.25667">
        <ele>662</ele>
        <time>2021-09-07T09:51:52.000Z</time>
      </trkpt>
      <trkpt lat="43.80088" lon="6.25666">
        <ele>661.5</ele>
        <time>2021-09-07T09:51:54.000Z</time>
      </trkpt>
      <trkpt lat="43.80088" lon="6.25667">
        <ele>661.8</ele>
        <time>2021-09-07T09:51:55.000Z</time>
      </trkpt>
      <trkpt lat="43.80087" lon="6.25668">
        <ele>661.8</ele>
        <time>2021-09-07T09:52:00.000Z</time>
      </trkpt>
      <trkpt lat="43.80086" lon="6.25665">
        <ele>661.6</ele>
        <time>2021-09-07T09:52:04.000Z</time>
      </trkpt>
      <trkpt lat="43.80086" lon="6.25666">
        <ele>661.7</ele>
        <time>2021-09-07T09:52:05.000Z</time>
      </trkpt>
      <trkpt lat="43.80085" lon="6.25665">
        <ele>661.6</ele>
        <time>2021-09-07T09:52:10.000Z</time>
      </trkpt>
      <trkpt lat="43.80083" lon="6.25662">
        <ele>661.7</ele>
        <time>2021-09-07T09:52:15.000Z</time>
      </trkpt>
      <trkpt lat="43.80083" lon="6.25662">
        <ele>661.7</ele>
        <time>2021-09-07T09:52:17.000Z</time>
      </trkpt>
      <trkpt lat="43.80083" lon="6.25662">
        <ele>661.7</ele>
        <time>2021-09-07T09:52:18.000Z</time>
      </trkpt>
      <trkpt lat="43.8008" lon="6.25662">
        <ele>661.7</ele>
        <time>2021-09-07T09:52:23.000Z</time>
      </trkpt>
      <trkpt lat="43.80078" lon="6.25664">
        <ele>661.5</ele>
        <time>2021-09-07T09:52:28.000Z</time>
      </trkpt>
      <trkpt lat="43.80077" lon="6.25667">
        <ele>661.5</ele>
        <time>2021-09-07T09:52:33.000Z</time>
      </trkpt>
      <trkpt lat="43.80077" lon="6.25667">
        <ele>661.4</ele>
        <time>2021-09-07T09:52:36.000Z</time>
      </trkpt>
      <trkpt lat="43.80077" lon="6.25667">
        <ele>661.6</ele>
        <time>2021-09-07T09:52:36.000Z</time>
      </trkpt>
      <trkpt lat="43.80078" lon="6.25666">
        <ele>662</ele>
        <time>2021-09-07T09:52:41.000Z</time>
      </trkpt>
      <trkpt lat="43.80078" lon="6.25666">
        <ele>661.7</ele>
        <time>2021-09-07T09:52:46.000Z</time>
      </trkpt>
      <trkpt lat="43.80079" lon="6.25666">
        <ele>661.6</ele>
        <time>2021-09-07T09:52:47.000Z</time>
      </trkpt>
      <trkpt lat="43.80084" lon="6.25667">
        <ele>661.5</ele>
        <time>2021-09-07T09:52:52.000Z</time>
      </trkpt>
      <trkpt lat="43.80086" lon="6.25666">
        <ele>661.8</ele>
        <time>2021-09-07T09:52:55.000Z</time>
      </trkpt>
      <trkpt lat="43.80085" lon="6.25667">
        <ele>662</ele>
        <time>2021-09-07T09:52:56.000Z</time>
      </trkpt>
      <trkpt lat="43.80088" lon="6.25665">
        <ele>662.1</ele>
        <time>2021-09-07T09:53:01.000Z</time>
      </trkpt>
      <trkpt lat="43.80088" lon="6.25665">
        <ele>662</ele>
        <time>2021-09-07T09:53:02.000Z</time>
      </trkpt>
      <trkpt lat="43.80088" lon="6.25666">
        <ele>661.9</ele>
        <time>2021-09-07T09:53:03.000Z</time>
      </trkpt>
      <trkpt lat="43.80089" lon="6.25667">
        <ele>661.7</ele>
        <time>2021-09-07T09:53:05.000Z</time>
      </trkpt>
      <trkpt lat="43.80088" lon="6.25666">
        <ele>662</ele>
        <time>2021-09-07T09:53:06.000Z</time>
      </trkpt>
      <trkpt lat="43.80091" lon="6.25669">
        <ele>661.8</ele>
        <time>2021-09-07T09:53:11.000Z</time>
      </trkpt>
      <trkpt lat="43.80091" lon="6.25667">
        <ele>661.8</ele>
        <time>2021-09-07T09:53:16.000Z</time>
      </trkpt>
      <trkpt lat="43.8009" lon="6.25665">
        <ele>661.7</ele>
        <time>2021-09-07T09:53:16.000Z</time>
      </trkpt>
      <trkpt lat="43.80089" lon="6.25663">
        <ele>661.7</ele>
        <time>2021-09-07T09:53:21.000Z</time>
      </trkpt>
      <trkpt lat="43.80091" lon="6.25661">
        <ele>661.6</ele>
        <time>2021-09-07T09:53:26.000Z</time>
      </trkpt>
      <trkpt lat="43.80092" lon="6.25661">
        <ele>661.7</ele>
        <time>2021-09-07T09:53:30.000Z</time>
      </trkpt>
      <trkpt lat="43.80092" lon="6.25661">
        <ele>661.6</ele>
        <time>2021-09-07T09:53:31.000Z</time>
      </trkpt>
      <trkpt lat="43.80094" lon="6.2566">
        <ele>662.1</ele>
        <time>2021-09-07T09:53:36.000Z</time>
      </trkpt>
      <trkpt lat="43.80103" lon="6.25655">
        <ele>662.2</ele>
        <time>2021-09-07T09:53:41.000Z</time>
      </trkpt>
      <trkpt lat="43.80121" lon="6.25639">
        <ele>662.4</ele>
        <time>2021-09-07T09:53:46.000Z</time>
      </trkpt>
      <trkpt lat="43.80141" lon="6.25626">
        <ele>662.2</ele>
        <time>2021-09-07T09:53:51.000Z</time>
      </trkpt>
      <trkpt lat="43.80159" lon="6.25603">
        <ele>662.4</ele>
        <time>2021-09-07T09:53:56.000Z</time>
      </trkpt>
      <trkpt lat="43.80177" lon="6.25581">
        <ele>662.5</ele>
        <time>2021-09-07T09:54:01.000Z</time>
      </trkpt>
      <trkpt lat="43.80202" lon="6.25568">
        <ele>662.6</ele>
        <time>2021-09-07T09:54:06.000Z</time>
      </trkpt>
      <trkpt lat="43.80224" lon="6.25548">
        <ele>662.9</ele>
        <time>2021-09-07T09:54:11.000Z</time>
      </trkpt>
      <trkpt lat="43.80241" lon="6.25525">
        <ele>662.4</ele>
        <time>2021-09-07T09:54:16.000Z</time>
      </trkpt>
      <trkpt lat="43.80249" lon="6.25493">
        <ele>662.2</ele>
        <time>2021-09-07T09:54:21.000Z</time>
      </trkpt>
      <trkpt lat="43.80259" lon="6.25464">
        <ele>662.4</ele>
        <time>2021-09-07T09:54:26.000Z</time>
      </trkpt>
      <trkpt lat="43.80282" lon="6.25452">
        <ele>662.4</ele>
        <time>2021-09-07T09:54:31.000Z</time>
      </trkpt>
      <trkpt lat="43.80287" lon="6.25451">
        <ele>662</ele>
        <time>2021-09-07T09:54:36.000Z</time>
      </trkpt>
      <trkpt lat="43.80287" lon="6.25452">
        <ele>661.8</ele>
        <time>2021-09-07T09:54:39.000Z</time>
      </trkpt>
      <trkpt lat="43.80287" lon="6.25454">
        <ele>661.7</ele>
        <time>2021-09-07T09:54:40.000Z</time>
      </trkpt>
      <trkpt lat="43.80287" lon="6.25455">
        <ele>662.1</ele>
        <time>2021-09-07T09:54:44.000Z</time>
      </trkpt>
      <trkpt lat="43.80287" lon="6.25454">
        <ele>661.9</ele>
        <time>2021-09-07T09:54:45.000Z</time>
      </trkpt>
      <trkpt lat="43.80288" lon="6.25451">
        <ele>662</ele>
        <time>2021-09-07T09:54:46.000Z</time>
      </trkpt>
      <trkpt lat="43.80288" lon="6.25451">
        <ele>662.3</ele>
        <time>2021-09-07T09:54:47.000Z</time>
      </trkpt>
      <trkpt lat="43.80288" lon="6.25451">
        <ele>662.5</ele>
        <time>2021-09-07T09:54:48.000Z</time>
      </trkpt>
      <trkpt lat="43.80288" lon="6.25451">
        <ele>662.5</ele>
        <time>2021-09-07T09:54:53.000Z</time>
      </trkpt>
      <trkpt lat="43.80287" lon="6.25451">
        <ele>662.4</ele>
        <time>2021-09-07T09:54:55.000Z</time>
      </trkpt>
      <trkpt lat="43.80287" lon="6.25451">
        <ele>662.4</ele>
        <time>2021-09-07T09:54:57.000Z</time>
      </trkpt>
      <trkpt lat="43.80287" lon="6.25451">
        <ele>662.4</ele>
        <time>2021-09-07T09:54:58.000Z</time>
      </trkpt>
      <trkpt lat="43.80285" lon="6.25451">
        <ele>662.3</ele>
        <time>2021-09-07T09:54:59.000Z</time>
      </trkpt>
      <trkpt lat="43.80286" lon="6.25451">
        <ele>662.4</ele>
        <time>2021-09-07T09:55:00.000Z</time>
      </trkpt>
      <trkpt lat="43.80284" lon="6.2545">
        <ele>662.2</ele>
        <time>2021-09-07T09:55:01.000Z</time>
      </trkpt>
      <trkpt lat="43.80285" lon="6.2545">
        <ele>662.2</ele>
        <time>2021-09-07T09:55:02.000Z</time>
      </trkpt>
      <trkpt lat="43.80284" lon="6.25449">
        <ele>662.3</ele>
        <time>2021-09-07T09:55:02.000Z</time>
      </trkpt>
      <trkpt lat="43.80283" lon="6.25449">
        <ele>662.3</ele>
        <time>2021-09-07T09:55:05.000Z</time>
      </trkpt>
      <trkpt lat="43.80284" lon="6.25449">
        <ele>662.3</ele>
        <time>2021-09-07T09:55:06.000Z</time>
      </trkpt>
      <trkpt lat="43.80282" lon="6.25447">
        <ele>662.3</ele>
        <time>2021-09-07T09:55:11.000Z</time>
      </trkpt>
      <trkpt lat="43.8028" lon="6.25445">
        <ele>662.3</ele>
        <time>2021-09-07T09:55:15.000Z</time>
      </trkpt>
      <trkpt lat="43.80279" lon="6.25445">
        <ele>662.3</ele>
        <time>2021-09-07T09:55:16.000Z</time>
      </trkpt>
      <trkpt lat="43.8028" lon="6.25445">
        <ele>662.4</ele>
        <time>2021-09-07T09:55:17.000Z</time>
      </trkpt>
      <trkpt lat="43.80275" lon="6.2544">
        <ele>662.4</ele>
        <time>2021-09-07T09:55:22.000Z</time>
      </trkpt>
      <trkpt lat="43.80275" lon="6.25437">
        <ele>662.3</ele>
        <time>2021-09-07T09:55:27.000Z</time>
      </trkpt>
      <trkpt lat="43.80275" lon="6.25437">
        <ele>662.3</ele>
        <time>2021-09-07T09:55:30.000Z</time>
      </trkpt>
      <trkpt lat="43.80274" lon="6.25436">
        <ele>662.5</ele>
        <time>2021-09-07T09:55:30.000Z</time>
      </trkpt>
      <trkpt lat="43.80274" lon="6.25434">
        <ele>662.3</ele>
        <time>2021-09-07T09:55:35.000Z</time>
      </trkpt>
      <trkpt lat="43.80274" lon="6.25434">
        <ele>662.3</ele>
        <time>2021-09-07T09:55:36.000Z</time>
      </trkpt>
      <trkpt lat="43.80274" lon="6.25434">
        <ele>662</ele>
        <time>2021-09-07T09:55:40.000Z</time>
      </trkpt>
      <trkpt lat="43.80274" lon="6.25434">
        <ele>662.1</ele>
        <time>2021-09-07T09:55:41.000Z</time>
      </trkpt>
      <trkpt lat="43.80276" lon="6.25442">
        <ele>662.1</ele>
        <time>2021-09-07T09:55:46.000Z</time>
      </trkpt>
      <trkpt lat="43.80276" lon="6.25443">
        <ele>662.1</ele>
        <time>2021-09-07T09:55:47.000Z</time>
      </trkpt>
      <trkpt lat="43.80276" lon="6.25443">
        <ele>661.9</ele>
        <time>2021-09-07T09:55:51.000Z</time>
      </trkpt>
      <trkpt lat="43.80276" lon="6.25443">
        <ele>661.9</ele>
        <time>2021-09-07T09:55:52.000Z</time>
      </trkpt>
      <trkpt lat="43.80277" lon="6.25444">
        <ele>662.2</ele>
        <time>2021-09-07T09:55:55.000Z</time>
      </trkpt>
      <trkpt lat="43.80276" lon="6.25443">
        <ele>662</ele>
        <time>2021-09-07T09:55:56.000Z</time>
      </trkpt>
      <trkpt lat="43.80281" lon="6.25449">
        <ele>661.9</ele>
        <time>2021-09-07T09:55:57.000Z</time>
      </trkpt>
      <trkpt lat="43.80277" lon="6.25444">
        <ele>662.2</ele>
        <time>2021-09-07T09:55:57.000Z</time>
      </trkpt>
      <trkpt lat="43.80278" lon="6.25446">
        <ele>662.2</ele>
        <time>2021-09-07T09:55:58.000Z</time>
      </trkpt>
      <trkpt lat="43.80284" lon="6.25451">
        <ele>662.2</ele>
        <time>2021-09-07T09:55:58.000Z</time>
      </trkpt>
      <trkpt lat="43.80287" lon="6.25453">
        <ele>662.7</ele>
        <time>2021-09-07T09:55:59.000Z</time>
      </trkpt>
      <trkpt lat="43.80288" lon="6.25454">
        <ele>662.9</ele>
        <time>2021-09-07T09:56:02.000Z</time>
      </trkpt>
      <trkpt lat="43.803" lon="6.25459">
        <ele>662.9</ele>
        <time>2021-09-07T09:56:02.000Z</time>
      </trkpt>
      <trkpt lat="43.80305" lon="6.2546">
        <ele>663</ele>
        <time>2021-09-07T09:56:03.000Z</time>
      </trkpt>
      <trkpt lat="43.80311" lon="6.25461">
        <ele>662.9</ele>
        <time>2021-09-07T09:56:04.000Z</time>
      </trkpt>
      <trkpt lat="43.80315" lon="6.25461">
        <ele>663</ele>
        <time>2021-09-07T09:56:07.000Z</time>
      </trkpt>
      <trkpt lat="43.80344" lon="6.25456">
        <ele>662.8</ele>
        <time>2021-09-07T09:56:08.000Z</time>
      </trkpt>
      <trkpt lat="43.80351" lon="6.25452">
        <ele>662.9</ele>
        <time>2021-09-07T09:56:09.000Z</time>
      </trkpt>
      <trkpt lat="43.80378" lon="6.25435">
        <ele>662.5</ele>
        <time>2021-09-07T09:56:14.000Z</time>
      </trkpt>
      <trkpt lat="43.80398" lon="6.25421">
        <ele>662.3</ele>
        <time>2021-09-07T09:56:19.000Z</time>
      </trkpt>
      <trkpt lat="43.80419" lon="6.25427">
        <ele>662.4</ele>
        <time>2021-09-07T09:56:24.000Z</time>
      </trkpt>
      <trkpt lat="43.80442" lon="6.25427">
        <ele>662.7</ele>
        <time>2021-09-07T09:56:29.000Z</time>
      </trkpt>
      <trkpt lat="43.80473" lon="6.25423">
        <ele>662.6</ele>
        <time>2021-09-07T09:56:34.000Z</time>
      </trkpt>
      <trkpt lat="43.80503" lon="6.2542">
        <ele>662.6</ele>
        <time>2021-09-07T09:56:39.000Z</time>
      </trkpt>
      <trkpt lat="43.80533" lon="6.25413">
        <ele>662.8</ele>
        <time>2021-09-07T09:56:44.000Z</time>
      </trkpt>
      <trkpt lat="43.80561" lon="6.25414">
        <ele>663.1</ele>
        <time>2021-09-07T09:56:49.000Z</time>
      </trkpt>
      <trkpt lat="43.8059" lon="6.25431">
        <ele>662.9</ele>
        <time>2021-09-07T09:56:54.000Z</time>
      </trkpt>
      <trkpt lat="43.80615" lon="6.25463">
        <ele>663.1</ele>
        <time>2021-09-07T09:56:59.000Z</time>
      </trkpt>
      <trkpt lat="43.80644" lon="6.25468">
        <ele>662.8</ele>
        <time>2021-09-07T09:57:04.000Z</time>
      </trkpt>
      <trkpt lat="43.80676" lon="6.25452">
        <ele>663.2</ele>
        <time>2021-09-07T09:57:09.000Z</time>
      </trkpt>
      <trkpt lat="43.80712" lon="6.25466">
        <ele>663</ele>
        <time>2021-09-07T09:57:14.000Z</time>
      </trkpt>
      <trkpt lat="43.80746" lon="6.25481">
        <ele>661.8</ele>
        <time>2021-09-07T09:57:19.000Z</time>
      </trkpt>
      <trkpt lat="43.80781" lon="6.2549">
        <ele>661.5</ele>
        <time>2021-09-07T09:57:24.000Z</time>
      </trkpt>
      <trkpt lat="43.8082" lon="6.25494">
        <ele>661.1</ele>
        <time>2021-09-07T09:57:29.000Z</time>
      </trkpt>
      <trkpt lat="43.8086" lon="6.25489">
        <ele>660.3</ele>
        <time>2021-09-07T09:57:34.000Z</time>
      </trkpt>
      <trkpt lat="43.80895" lon="6.25453">
        <ele>659.2</ele>
        <time>2021-09-07T09:57:39.000Z</time>
      </trkpt>
      <trkpt lat="43.8094" lon="6.25469">
        <ele>658.8</ele>
        <time>2021-09-07T09:57:44.000Z</time>
      </trkpt>
      <trkpt lat="43.80979" lon="6.25496">
        <ele>657.7</ele>
        <time>2021-09-07T09:57:49.000Z</time>
      </trkpt>
      <trkpt lat="43.81006" lon="6.25547">
        <ele>657.6</ele>
        <time>2021-09-07T09:57:54.000Z</time>
      </trkpt>
      <trkpt lat="43.81046" lon="6.25571">
        <ele>657</ele>
        <time>2021-09-07T09:57:59.000Z</time>
      </trkpt>
      <trkpt lat="43.81076" lon="6.25535">
        <ele>656.1</ele>
        <time>2021-09-07T09:58:04.000Z</time>
      </trkpt>
      <trkpt lat="43.81118" lon="6.25532">
        <ele>655</ele>
        <time>2021-09-07T09:58:09.000Z</time>
      </trkpt>
      <trkpt lat="43.8116" lon="6.25539">
        <ele>655</ele>
        <time>2021-09-07T09:58:14.000Z</time>
      </trkpt>
      <trkpt lat="43.81204" lon="6.25535">
        <ele>654.8</ele>
        <time>2021-09-07T09:58:19.000Z</time>
      </trkpt>
      <trkpt lat="43.81225" lon="6.25494">
        <ele>654</ele>
        <time>2021-09-07T09:58:24.000Z</time>
      </trkpt>
      <trkpt lat="43.8122" lon="6.25438">
        <ele>652.3</ele>
        <time>2021-09-07T09:58:29.000Z</time>
      </trkpt>
      <trkpt lat="43.81251" lon="6.25387">
        <ele>651.7</ele>
        <time>2021-09-07T09:58:34.000Z</time>
      </trkpt>
      <trkpt lat="43.81289" lon="6.25349">
        <ele>651.2</ele>
        <time>2021-09-07T09:58:39.000Z</time>
      </trkpt>
      <trkpt lat="43.81298" lon="6.2529">
        <ele>650.9</ele>
        <time>2021-09-07T09:58:44.000Z</time>
      </trkpt>
      <trkpt lat="43.81293" lon="6.25233">
        <ele>651.2</ele>
        <time>2021-09-07T09:58:49.000Z</time>
      </trkpt>
      <trkpt lat="43.81286" lon="6.25183">
        <ele>651.9</ele>
        <time>2021-09-07T09:58:54.000Z</time>
      </trkpt>
      <trkpt lat="43.81284" lon="6.25136">
        <ele>652.8</ele>
        <time>2021-09-07T09:58:59.000Z</time>
      </trkpt>
      <trkpt lat="43.81279" lon="6.25092">
        <ele>654.1</ele>
        <time>2021-09-07T09:59:04.000Z</time>
      </trkpt>
      <trkpt lat="43.81284" lon="6.2505">
        <ele>655</ele>
        <time>2021-09-07T09:59:09.000Z</time>
      </trkpt>
      <trkpt lat="43.81301" lon="6.25031">
        <ele>656.6</ele>
        <time>2021-09-07T09:59:14.000Z</time>
      </trkpt>
      <trkpt lat="43.81317" lon="6.25047">
        <ele>657.9</ele>
        <time>2021-09-07T09:59:19.000Z</time>
      </trkpt>
      <trkpt lat="43.81324" lon="6.25052">
        <ele>658.6</ele>
        <time>2021-09-07T09:59:24.000Z</time>
      </trkpt>
      <trkpt lat="43.81338" lon="6.25056">
        <ele>659.3</ele>
        <time>2021-09-07T09:59:25.000Z</time>
      </trkpt>
      <trkpt lat="43.81341" lon="6.25055">
        <ele>659.4</ele>
        <time>2021-09-07T09:59:28.000Z</time>
      </trkpt>
      <trkpt lat="43.81349" lon="6.25052">
        <ele>660</ele>
        <time>2021-09-07T09:59:28.000Z</time>
      </trkpt>
      <trkpt lat="43.81357" lon="6.25048">
        <ele>660.2</ele>
        <time>2021-09-07T09:59:30.000Z</time>
      </trkpt>
      <trkpt lat="43.81361" lon="6.25047">
        <ele>660.4</ele>
        <time>2021-09-07T09:59:31.000Z</time>
      </trkpt>
      <trkpt lat="43.81351" lon="6.25051">
        <ele>660</ele>
        <time>2021-09-07T09:59:31.000Z</time>
      </trkpt>
      <trkpt lat="43.81359" lon="6.25047">
        <ele>660.3</ele>
        <time>2021-09-07T09:59:33.000Z</time>
      </trkpt>
      <trkpt lat="43.81363" lon="6.25045">
        <ele>660.5</ele>
        <time>2021-09-07T09:59:34.000Z</time>
      </trkpt>
      <trkpt lat="43.81372" lon="6.2504">
        <ele>661</ele>
        <time>2021-09-07T09:59:34.000Z</time>
      </trkpt>
      <trkpt lat="43.81375" lon="6.25037">
        <ele>661.3</ele>
        <time>2021-09-07T09:59:35.000Z</time>
      </trkpt>
      <trkpt lat="43.81379" lon="6.25034">
        <ele>661.5</ele>
        <time>2021-09-07T09:59:36.000Z</time>
      </trkpt>
      <trkpt lat="43.81374" lon="6.25038">
        <ele>661.3</ele>
        <time>2021-09-07T09:59:37.000Z</time>
      </trkpt>
      <trkpt lat="43.81391" lon="6.25027">
        <ele>662.5</ele>
        <time>2021-09-07T09:59:39.000Z</time>
      </trkpt>
      <trkpt lat="43.81395" lon="6.25026">
        <ele>662.3</ele>
        <time>2021-09-07T09:59:40.000Z</time>
      </trkpt>
      <trkpt lat="43.81394" lon="6.25026">
        <ele>662.4</ele>
        <time>2021-09-07T09:59:42.000Z</time>
      </trkpt>
      <trkpt lat="43.81398" lon="6.25024">
        <ele>662.8</ele>
        <time>2021-09-07T09:59:43.000Z</time>
      </trkpt>
      <trkpt lat="43.81405" lon="6.2502">
        <ele>663.3</ele>
        <time>2021-09-07T09:59:43.000Z</time>
      </trkpt>
      <trkpt lat="43.81408" lon="6.25018">
        <ele>663.3</ele>
        <time>2021-09-07T09:59:44.000Z</time>
      </trkpt>
      <trkpt lat="43.81412" lon="6.25016">
        <ele>663.5</ele>
        <time>2021-09-07T09:59:45.000Z</time>
      </trkpt>
      <trkpt lat="43.81406" lon="6.2502">
        <ele>663.4</ele>
        <time>2021-09-07T09:59:46.000Z</time>
      </trkpt>
      <trkpt lat="43.81422" lon="6.2501">
        <ele>664.4</ele>
        <time>2021-09-07T09:59:48.000Z</time>
      </trkpt>
      <trkpt lat="43.81424" lon="6.25009">
        <ele>664.6</ele>
        <time>2021-09-07T09:59:51.000Z</time>
      </trkpt>
      <trkpt lat="43.8143" lon="6.24999">
        <ele>664.9</ele>
        <time>2021-09-07T09:59:51.000Z</time>
      </trkpt>
      <trkpt lat="43.81431" lon="6.24992">
        <ele>664.9</ele>
        <time>2021-09-07T09:59:52.000Z</time>
      </trkpt>
      <trkpt lat="43.81432" lon="6.24983">
        <ele>665</ele>
        <time>2021-09-07T09:59:53.000Z</time>
      </trkpt>
      <trkpt lat="43.81432" lon="6.24976">
        <ele>665.1</ele>
        <time>2021-09-07T09:59:54.000Z</time>
      </trkpt>
      <trkpt lat="43.8143" lon="6.24996">
        <ele>664.9</ele>
        <time>2021-09-07T09:59:54.000Z</time>
      </trkpt>
      <trkpt lat="43.81432" lon="6.24988">
        <ele>664.9</ele>
        <time>2021-09-07T09:59:55.000Z</time>
      </trkpt>
      <trkpt lat="43.81425" lon="6.24961">
        <ele>665.5</ele>
        <time>2021-09-07T09:59:57.000Z</time>
      </trkpt>
      <trkpt lat="43.81422" lon="6.24956">
        <ele>665.8</ele>
        <time>2021-09-07T10:00:00.000Z</time>
      </trkpt>
      <trkpt lat="43.81422" lon="6.24945">
        <ele>665.7</ele>
        <time>2021-09-07T10:00:00.000Z</time>
      </trkpt>
      <trkpt lat="43.81422" lon="6.24945">
        <ele>665.7</ele>
        <time>2021-09-07T10:00:00.000Z</time>
      </trkpt>
      <trkpt lat="43.81422" lon="6.24939">
        <ele>666</ele>
        <time>2021-09-07T10:00:01.000Z</time>
      </trkpt>
      <trkpt lat="43.81423" lon="6.24926">
        <ele>666.2</ele>
        <time>2021-09-07T10:00:03.000Z</time>
      </trkpt>
      <trkpt lat="43.81422" lon="6.24943">
        <ele>665.7</ele>
        <time>2021-09-07T10:00:03.000Z</time>
      </trkpt>
      <trkpt lat="43.81422" lon="6.24933">
        <ele>666</ele>
        <time>2021-09-07T10:00:04.000Z</time>
      </trkpt>
      <trkpt lat="43.81423" lon="6.24923">
        <ele>666.5</ele>
        <time>2021-09-07T10:00:06.000Z</time>
      </trkpt>
      <trkpt lat="43.81424" lon="6.24907">
        <ele>666.8</ele>
        <time>2021-09-07T10:00:07.000Z</time>
      </trkpt>
      <trkpt lat="43.81425" lon="6.24904">
        <ele>667.1</ele>
        <time>2021-09-07T10:00:10.000Z</time>
      </trkpt>
      <trkpt lat="43.81426" lon="6.24897">
        <ele>667.7</ele>
        <time>2021-09-07T10:00:10.000Z</time>
      </trkpt>
      <trkpt lat="43.81428" lon="6.2489">
        <ele>668.4</ele>
        <time>2021-09-07T10:00:12.000Z</time>
      </trkpt>
      <trkpt lat="43.81426" lon="6.24895">
        <ele>667.8</ele>
        <time>2021-09-07T10:00:13.000Z</time>
      </trkpt>
      <trkpt lat="43.8143" lon="6.24888">
        <ele>668.3</ele>
        <time>2021-09-07T10:00:15.000Z</time>
      </trkpt>
      <trkpt lat="43.81436" lon="6.24876">
        <ele>669.6</ele>
        <time>2021-09-07T10:00:16.000Z</time>
      </trkpt>
      <trkpt lat="43.81438" lon="6.24872">
        <ele>670.1</ele>
        <time>2021-09-07T10:00:17.000Z</time>
      </trkpt>
      <trkpt lat="43.8144" lon="6.24868">
        <ele>670</ele>
        <time>2021-09-07T10:00:18.000Z</time>
      </trkpt>
      <trkpt lat="43.81437" lon="6.24874">
        <ele>669.8</ele>
        <time>2021-09-07T10:00:19.000Z</time>
      </trkpt>
      <trkpt lat="43.81447" lon="6.24859">
        <ele>670.3</ele>
        <time>2021-09-07T10:00:21.000Z</time>
      </trkpt>
      <trkpt lat="43.81449" lon="6.24856">
        <ele>670.5</ele>
        <time>2021-09-07T10:00:22.000Z</time>
      </trkpt>
      <trkpt lat="43.81452" lon="6.24854">
        <ele>670.6</ele>
        <time>2021-09-07T10:00:23.000Z</time>
      </trkpt>
      <trkpt lat="43.81455" lon="6.2485">
        <ele>670.7</ele>
        <time>2021-09-07T10:00:24.000Z</time>
      </trkpt>
      <trkpt lat="43.81447" lon="6.24858">
        <ele>670.3</ele>
        <time>2021-09-07T10:00:24.000Z</time>
      </trkpt>
      <trkpt lat="43.81451" lon="6.24855">
        <ele>670.5</ele>
        <time>2021-09-07T10:00:25.000Z</time>
      </trkpt>
      <trkpt lat="43.81453" lon="6.24852">
        <ele>670.7</ele>
        <time>2021-09-07T10:00:26.000Z</time>
      </trkpt>
      <trkpt lat="43.81456" lon="6.24848">
        <ele>670.9</ele>
        <time>2021-09-07T10:00:27.000Z</time>
      </trkpt>
      <trkpt lat="43.81467" lon="6.24838">
        <ele>671.4</ele>
        <time>2021-09-07T10:00:28.000Z</time>
      </trkpt>
      <trkpt lat="43.81471" lon="6.24835">
        <ele>671.5</ele>
        <time>2021-09-07T10:00:29.000Z</time>
      </trkpt>
      <trkpt lat="43.81469" lon="6.24836">
        <ele>671.5</ele>
        <time>2021-09-07T10:00:31.000Z</time>
      </trkpt>
      <trkpt lat="43.81473" lon="6.24832">
        <ele>671.6</ele>
        <time>2021-09-07T10:00:32.000Z</time>
      </trkpt>
      <trkpt lat="43.81482" lon="6.24827">
        <ele>672.3</ele>
        <time>2021-09-07T10:00:32.000Z</time>
      </trkpt>
      <trkpt lat="43.81491" lon="6.24823">
        <ele>672.8</ele>
        <time>2021-09-07T10:00:34.000Z</time>
      </trkpt>
      <trkpt lat="43.81494" lon="6.24821">
        <ele>673</ele>
        <time>2021-09-07T10:00:35.000Z</time>
      </trkpt>
      <trkpt lat="43.81486" lon="6.24825">
        <ele>672.6</ele>
        <time>2021-09-07T10:00:35.000Z</time>
      </trkpt>
      <trkpt lat="43.81497" lon="6.24818">
        <ele>673.3</ele>
        <time>2021-09-07T10:00:36.000Z</time>
      </trkpt>
      <trkpt lat="43.81493" lon="6.24822">
        <ele>672.9</ele>
        <time>2021-09-07T10:00:37.000Z</time>
      </trkpt>
      <trkpt lat="43.81506" lon="6.24809">
        <ele>673.2</ele>
        <time>2021-09-07T10:00:39.000Z</time>
      </trkpt>
      <trkpt lat="43.81508" lon="6.24804">
        <ele>673.3</ele>
        <time>2021-09-07T10:00:42.000Z</time>
      </trkpt>
      <trkpt lat="43.81511" lon="6.24794">
        <ele>673.2</ele>
        <time>2021-09-07T10:00:42.000Z</time>
      </trkpt>
      <trkpt lat="43.81511" lon="6.24782">
        <ele>673.8</ele>
        <time>2021-09-07T10:00:44.000Z</time>
      </trkpt>
      <trkpt lat="43.81511" lon="6.24789">
        <ele>673.5</ele>
        <time>2021-09-07T10:00:45.000Z</time>
      </trkpt>
      <trkpt lat="43.8151" lon="6.24776">
        <ele>673.9</ele>
        <time>2021-09-07T10:00:45.000Z</time>
      </trkpt>
      <trkpt lat="43.81509" lon="6.24764">
        <ele>673.6</ele>
        <time>2021-09-07T10:00:47.000Z</time>
      </trkpt>
      <trkpt lat="43.81507" lon="6.24759">
        <ele>674.2</ele>
        <time>2021-09-07T10:00:48.000Z</time>
      </trkpt>
      <trkpt lat="43.81508" lon="6.24761">
        <ele>673.9</ele>
        <time>2021-09-07T10:00:50.000Z</time>
      </trkpt>
      <trkpt lat="43.81506" lon="6.24755">
        <ele>674.1</ele>
        <time>2021-09-07T10:00:51.000Z</time>
      </trkpt>
      <trkpt lat="43.81505" lon="6.24738">
        <ele>674.4</ele>
        <time>2021-09-07T10:00:52.000Z</time>
      </trkpt>
      <trkpt lat="43.81505" lon="6.24732">
        <ele>674.9</ele>
        <time>2021-09-07T10:00:53.000Z</time>
      </trkpt>
      <trkpt lat="43.81505" lon="6.24735">
        <ele>674.6</ele>
        <time>2021-09-07T10:00:55.000Z</time>
      </trkpt>
      <trkpt lat="43.81505" lon="6.24727">
        <ele>674.9</ele>
        <time>2021-09-07T10:00:56.000Z</time>
      </trkpt>
      <trkpt lat="43.81509" lon="6.24703">
        <ele>676.1</ele>
        <time>2021-09-07T10:00:58.000Z</time>
      </trkpt>
      <trkpt lat="43.81512" lon="6.24693">
        <ele>676.3</ele>
        <time>2021-09-07T10:01:00.000Z</time>
      </trkpt>
      <trkpt lat="43.8151" lon="6.24699">
        <ele>676.3</ele>
        <time>2021-09-07T10:01:01.000Z</time>
      </trkpt>
      <trkpt lat="43.81514" lon="6.24689">
        <ele>676.5</ele>
        <time>2021-09-07T10:01:03.000Z</time>
      </trkpt>
      <trkpt lat="43.81517" lon="6.2468">
        <ele>677</ele>
        <time>2021-09-07T10:01:03.000Z</time>
      </trkpt>
      <trkpt lat="43.8152" lon="6.24669">
        <ele>676.9</ele>
        <time>2021-09-07T10:01:05.000Z</time>
      </trkpt>
      <trkpt lat="43.81521" lon="6.24657">
        <ele>677.3</ele>
        <time>2021-09-07T10:01:07.000Z</time>
      </trkpt>
      <trkpt lat="43.8152" lon="6.24663">
        <ele>677.1</ele>
        <time>2021-09-07T10:01:08.000Z</time>
      </trkpt>
      <trkpt lat="43.8152" lon="6.24652">
        <ele>677.6</ele>
        <time>2021-09-07T10:01:10.000Z</time>
      </trkpt>
      <trkpt lat="43.81512" lon="6.24632">
        <ele>678.1</ele>
        <time>2021-09-07T10:01:12.000Z</time>
      </trkpt>
      <trkpt lat="43.81509" lon="6.24626">
        <ele>678.1</ele>
        <time>2021-09-07T10:01:13.000Z</time>
      </trkpt>
      <trkpt lat="43.8151" lon="6.24629">
        <ele>678.1</ele>
        <time>2021-09-07T10:01:15.000Z</time>
      </trkpt>
      <trkpt lat="43.81508" lon="6.24622">
        <ele>678.4</ele>
        <time>2021-09-07T10:01:16.000Z</time>
      </trkpt>
      <trkpt lat="43.81497" lon="6.24596">
        <ele>678.7</ele>
        <time>2021-09-07T10:01:17.000Z</time>
      </trkpt>
      <trkpt lat="43.81493" lon="6.2459">
        <ele>678.9</ele>
        <time>2021-09-07T10:01:18.000Z</time>
      </trkpt>
      <trkpt lat="43.81477" lon="6.24556">
        <ele>679</ele>
        <time>2021-09-07T10:01:23.000Z</time>
      </trkpt>
      <trkpt lat="43.81466" lon="6.245">
        <ele>677</ele>
        <time>2021-09-07T10:01:28.000Z</time>
      </trkpt>
      <trkpt lat="43.81468" lon="6.24442">
        <ele>674</ele>
        <time>2021-09-07T10:01:33.000Z</time>
      </trkpt>
      <trkpt lat="43.81481" lon="6.24403">
        <ele>671.4</ele>
        <time>2021-09-07T10:01:38.000Z</time>
      </trkpt>
      <trkpt lat="43.81495" lon="6.24367">
        <ele>669.8</ele>
        <time>2021-09-07T10:01:43.000Z</time>
      </trkpt>
      <trkpt lat="43.81505" lon="6.24333">
        <ele>668.8</ele>
        <time>2021-09-07T10:01:48.000Z</time>
      </trkpt>
      <trkpt lat="43.81528" lon="6.24307">
        <ele>667.9</ele>
        <time>2021-09-07T10:01:53.000Z</time>
      </trkpt>
      <trkpt lat="43.81559" lon="6.24283">
        <ele>667.3</ele>
        <time>2021-09-07T10:01:58.000Z</time>
      </trkpt>
      <trkpt lat="43.81592" lon="6.24277">
        <ele>666.5</ele>
        <time>2021-09-07T10:02:03.000Z</time>
      </trkpt>
      <trkpt lat="43.81622" lon="6.24267">
        <ele>666.6</ele>
        <time>2021-09-07T10:02:08.000Z</time>
      </trkpt>
      <trkpt lat="43.81653" lon="6.24265">
        <ele>665.7</ele>
        <time>2021-09-07T10:02:13.000Z</time>
      </trkpt>
      <trkpt lat="43.81682" lon="6.2428">
        <ele>665.3</ele>
        <time>2021-09-07T10:02:18.000Z</time>
      </trkpt>
      <trkpt lat="43.81702" lon="6.24305">
        <ele>664.5</ele>
        <time>2021-09-07T10:02:23.000Z</time>
      </trkpt>
      <trkpt lat="43.81722" lon="6.24327">
        <ele>664.5</ele>
        <time>2021-09-07T10:02:28.000Z</time>
      </trkpt>
      <trkpt lat="43.81731" lon="6.2435">
        <ele>663.4</ele>
        <time>2021-09-07T10:02:33.000Z</time>
      </trkpt>
      <trkpt lat="43.81733" lon="6.24354">
        <ele>663.4</ele>
        <time>2021-09-07T10:02:38.000Z</time>
      </trkpt>
      <trkpt lat="43.81733" lon="6.24354">
        <ele>663.7</ele>
        <time>2021-09-07T10:02:39.000Z</time>
      </trkpt>
      <trkpt lat="43.81733" lon="6.24354">
        <ele>663.3</ele>
        <time>2021-09-07T10:02:40.000Z</time>
      </trkpt>
      <trkpt lat="43.81733" lon="6.24354">
        <ele>663.3</ele>
        <time>2021-09-07T10:02:43.000Z</time>
      </trkpt>
      <trkpt lat="43.81733" lon="6.24354">
        <ele>663.5</ele>
        <time>2021-09-07T10:02:45.000Z</time>
      </trkpt>
      <trkpt lat="43.81733" lon="6.24355">
        <ele>663.5</ele>
        <time>2021-09-07T10:02:50.000Z</time>
      </trkpt>
      <trkpt lat="43.81733" lon="6.24355">
        <ele>663.4</ele>
        <time>2021-09-07T10:02:53.000Z</time>
      </trkpt>
      <trkpt lat="43.81733" lon="6.24355">
        <ele>663.4</ele>
        <time>2021-09-07T10:02:54.000Z</time>
      </trkpt>
      <trkpt lat="43.81733" lon="6.24355">
        <ele>663.5</ele>
        <time>2021-09-07T10:02:57.000Z</time>
      </trkpt>
      <trkpt lat="43.81733" lon="6.24354">
        <ele>663.5</ele>
        <time>2021-09-07T10:03:01.000Z</time>
      </trkpt>
      <trkpt lat="43.81733" lon="6.24354">
        <ele>663.3</ele>
        <time>2021-09-07T10:03:06.000Z</time>
      </trkpt>
      <trkpt lat="43.81733" lon="6.24354">
        <ele>663</ele>
        <time>2021-09-07T10:03:11.000Z</time>
      </trkpt>
      <trkpt lat="43.81733" lon="6.24354">
        <ele>663</ele>
        <time>2021-09-07T10:03:16.000Z</time>
      </trkpt>
      <trkpt lat="43.81733" lon="6.24354">
        <ele>663.6</ele>
        <time>2021-09-07T10:03:21.000Z</time>
      </trkpt>
      <trkpt lat="43.81733" lon="6.24354">
        <ele>663</ele>
        <time>2021-09-07T10:03:26.000Z</time>
      </trkpt>
      <trkpt lat="43.81733" lon="6.24354">
        <ele>663.2</ele>
        <time>2021-09-07T10:03:31.000Z</time>
      </trkpt>
      <trkpt lat="43.81729" lon="6.24357">
        <ele>663.2</ele>
        <time>2021-09-07T10:03:33.000Z</time>
      </trkpt>
      <trkpt lat="43.81727" lon="6.24359">
        <ele>662.9</ele>
        <time>2021-09-07T10:03:37.000Z</time>
      </trkpt>
      <trkpt lat="43.81726" lon="6.24359">
        <ele>663.4</ele>
        <time>2021-09-07T10:03:42.000Z</time>
      </trkpt>
      <trkpt lat="43.81726" lon="6.24359">
        <ele>663.3</ele>
        <time>2021-09-07T10:03:47.000Z</time>
      </trkpt>
      <trkpt lat="43.81726" lon="6.24359">
        <ele>663.5</ele>
        <time>2021-09-07T10:03:52.000Z</time>
      </trkpt>
      <trkpt lat="43.81726" lon="6.24359">
        <ele>663.8</ele>
        <time>2021-09-07T10:03:57.000Z</time>
      </trkpt>
      <trkpt lat="43.81726" lon="6.24359">
        <ele>663.7</ele>
        <time>2021-09-07T10:04:02.000Z</time>
      </trkpt>
      <trkpt lat="43.81727" lon="6.24361">
        <ele>663.4</ele>
        <time>2021-09-07T10:04:06.000Z</time>
      </trkpt>
      <trkpt lat="43.81732" lon="6.24369">
        <ele>663.6</ele>
        <time>2021-09-07T10:04:10.000Z</time>
      </trkpt>
      <trkpt lat="43.81731" lon="6.24367">
        <ele>663.7</ele>
        <time>2021-09-07T10:04:12.000Z</time>
      </trkpt>
      <trkpt lat="43.81734" lon="6.2437">
        <ele>663.5</ele>
        <time>2021-09-07T10:04:13.000Z</time>
      </trkpt>
      <trkpt lat="43.8174" lon="6.24373">
        <ele>663.6</ele>
        <time>2021-09-07T10:04:13.000Z</time>
      </trkpt>
      <trkpt lat="43.81744" lon="6.24374">
        <ele>663.6</ele>
        <time>2021-09-07T10:04:14.000Z</time>
      </trkpt>
      <trkpt lat="43.81748" lon="6.24374">
        <ele>663.5</ele>
        <time>2021-09-07T10:04:15.000Z</time>
      </trkpt>
      <trkpt lat="43.81742" lon="6.24373">
        <ele>663.5</ele>
        <time>2021-09-07T10:04:16.000Z</time>
      </trkpt>
      <trkpt lat="43.81752" lon="6.2437">
        <ele>663.2</ele>
        <time>2021-09-07T10:04:16.000Z</time>
      </trkpt>
      <trkpt lat="43.81766" lon="6.24354">
        <ele>663.3</ele>
        <time>2021-09-07T10:04:18.000Z</time>
      </trkpt>
      <trkpt lat="43.81754" lon="6.24366">
        <ele>663.5</ele>
        <time>2021-09-07T10:04:19.000Z</time>
      </trkpt>
      <trkpt lat="43.81771" lon="6.24345">
        <ele>663.1</ele>
        <time>2021-09-07T10:04:19.000Z</time>
      </trkpt>
      <trkpt lat="43.81786" lon="6.24295">
        <ele>662.3</ele>
        <time>2021-09-07T10:04:24.000Z</time>
      </trkpt>
      <trkpt lat="43.81802" lon="6.24236">
        <ele>662.7</ele>
        <time>2021-09-07T10:04:29.000Z</time>
      </trkpt>
      <trkpt lat="43.81806" lon="6.24178">
        <ele>661.8</ele>
        <time>2021-09-07T10:04:34.000Z</time>
      </trkpt>
      <trkpt lat="43.81799" lon="6.24111">
        <ele>659.8</ele>
        <time>2021-09-07T10:04:39.000Z</time>
      </trkpt>
      <trkpt lat="43.81812" lon="6.24046">
        <ele>658.2</ele>
        <time>2021-09-07T10:04:44.000Z</time>
      </trkpt>
      <trkpt lat="43.81816" lon="6.23983">
        <ele>657</ele>
        <time>2021-09-07T10:04:49.000Z</time>
      </trkpt>
      <trkpt lat="43.8182" lon="6.23929">
        <ele>656.4</ele>
        <time>2021-09-07T10:04:54.000Z</time>
      </trkpt>
      <trkpt lat="43.81828" lon="6.23885">
        <ele>656.4</ele>
        <time>2021-09-07T10:04:59.000Z</time>
      </trkpt>
      <trkpt lat="43.81838" lon="6.23844">
        <ele>657.3</ele>
        <time>2021-09-07T10:05:04.000Z</time>
      </trkpt>
      <trkpt lat="43.81849" lon="6.23804">
        <ele>657.9</ele>
        <time>2021-09-07T10:05:09.000Z</time>
      </trkpt>
      <trkpt lat="43.81856" lon="6.23765">
        <ele>658.5</ele>
        <time>2021-09-07T10:05:14.000Z</time>
      </trkpt>
      <trkpt lat="43.81858" lon="6.23724">
        <ele>658</ele>
        <time>2021-09-07T10:05:19.000Z</time>
      </trkpt>
      <trkpt lat="43.81846" lon="6.23673">
        <ele>656.2</ele>
        <time>2021-09-07T10:05:24.000Z</time>
      </trkpt>
      <trkpt lat="43.8186" lon="6.2361">
        <ele>654.6</ele>
        <time>2021-09-07T10:05:29.000Z</time>
      </trkpt>
      <trkpt lat="43.81856" lon="6.23542">
        <ele>650.9</ele>
        <time>2021-09-07T10:05:34.000Z</time>
      </trkpt>
      <trkpt lat="43.81849" lon="6.23474">
        <ele>645.9</ele>
        <time>2021-09-07T10:05:39.000Z</time>
      </trkpt>
      <trkpt lat="43.81869" lon="6.23418">
        <ele>643.8</ele>
        <time>2021-09-07T10:05:44.000Z</time>
      </trkpt>
      <trkpt lat="43.81902" lon="6.23352">
        <ele>640.2</ele>
        <time>2021-09-07T10:05:49.000Z</time>
      </trkpt>
      <trkpt lat="43.81981" lon="6.23269">
        <ele>638.2</ele>
        <time>2021-09-07T10:05:54.000Z</time>
      </trkpt>
      <trkpt lat="43.82029" lon="6.23214">
        <ele>633.3</ele>
        <time>2021-09-07T10:05:59.000Z</time>
      </trkpt>
      <trkpt lat="43.8203" lon="6.23206">
        <ele>629.4</ele>
        <time>2021-09-07T10:06:04.000Z</time>
      </trkpt>
      <trkpt lat="43.82036" lon="6.23162">
        <ele>625.2</ele>
        <time>2021-09-07T10:06:09.000Z</time>
      </trkpt>
      <trkpt lat="43.82161" lon="6.23041">
        <ele>618.6</ele>
        <time>2021-09-07T10:06:19.000Z</time>
      </trkpt>
      <trkpt lat="43.82255" lon="6.23013">
        <ele>612.4</ele>
        <time>2021-09-07T10:06:26.000Z</time>
      </trkpt>
      <trkpt lat="43.82337" lon="6.23129">
        <ele>606.1</ele>
        <time>2021-09-07T10:06:31.000Z</time>
      </trkpt>
      <trkpt lat="43.82536" lon="6.23057">
        <ele>601.8</ele>
        <time>2021-09-07T10:06:36.000Z</time>
      </trkpt>
      <trkpt lat="43.8255" lon="6.22959">
        <ele>597.1</ele>
        <time>2021-09-07T10:06:41.000Z</time>
      </trkpt>
      <trkpt lat="43.82599" lon="6.22911">
        <ele>593.4</ele>
        <time>2021-09-07T10:06:46.000Z</time>
      </trkpt>
      <trkpt lat="43.82667" lon="6.22889">
        <ele>590.2</ele>
        <time>2021-09-07T10:06:51.000Z</time>
      </trkpt>
      <trkpt lat="43.82725" lon="6.22843">
        <ele>584.6</ele>
        <time>2021-09-07T10:06:56.000Z</time>
      </trkpt>
      <trkpt lat="43.82783" lon="6.22802">
        <ele>581.4</ele>
        <time>2021-09-07T10:07:01.000Z</time>
      </trkpt>
      <trkpt lat="43.82814" lon="6.22774">
        <ele>575.6</ele>
        <time>2021-09-07T10:07:06.000Z</time>
      </trkpt>
      <trkpt lat="43.82772" lon="6.22757">
        <ele>573.2</ele>
        <time>2021-09-07T10:07:11.000Z</time>
      </trkpt>
      <trkpt lat="43.82735" lon="6.22744">
        <ele>569.7</ele>
        <time>2021-09-07T10:07:16.000Z</time>
      </trkpt>
      <trkpt lat="43.82764" lon="6.2271">
        <ele>567.3</ele>
        <time>2021-09-07T10:07:21.000Z</time>
      </trkpt>
      <trkpt lat="43.82811" lon="6.22669">
        <ele>565.3</ele>
        <time>2021-09-07T10:07:26.000Z</time>
      </trkpt>
      <trkpt lat="43.8286" lon="6.22676">
        <ele>561.6</ele>
        <time>2021-09-07T10:07:31.000Z</time>
      </trkpt>
      <trkpt lat="43.82895" lon="6.22757">
        <ele>558.3</ele>
        <time>2021-09-07T10:07:36.000Z</time>
      </trkpt>
      <trkpt lat="43.8292" lon="6.22819">
        <ele>554.4</ele>
        <time>2021-09-07T10:07:41.000Z</time>
      </trkpt>
      <trkpt lat="43.82919" lon="6.22763">
        <ele>552.9</ele>
        <time>2021-09-07T10:07:46.000Z</time>
      </trkpt>
      <trkpt lat="43.82887" lon="6.22687">
        <ele>550.9</ele>
        <time>2021-09-07T10:07:51.000Z</time>
      </trkpt>
      <trkpt lat="43.82864" lon="6.22611">
        <ele>548.4</ele>
        <time>2021-09-07T10:07:56.000Z</time>
      </trkpt>
      <trkpt lat="43.82829" lon="6.22553">
        <ele>545.9</ele>
        <time>2021-09-07T10:08:01.000Z</time>
      </trkpt>
      <trkpt lat="43.82806" lon="6.22501">
        <ele>542.1</ele>
        <time>2021-09-07T10:08:06.000Z</time>
      </trkpt>
      <trkpt lat="43.82806" lon="6.22464">
        <ele>540.3</ele>
        <time>2021-09-07T10:08:11.000Z</time>
      </trkpt>
      <trkpt lat="43.82784" lon="6.2246">
        <ele>540.8</ele>
        <time>2021-09-07T10:08:16.000Z</time>
      </trkpt>
      <trkpt lat="43.8276" lon="6.22456">
        <ele>540.9</ele>
        <time>2021-09-07T10:08:21.000Z</time>
      </trkpt>
      <trkpt lat="43.82738" lon="6.22456">
        <ele>540.8</ele>
        <time>2021-09-07T10:08:26.000Z</time>
      </trkpt>
      <trkpt lat="43.82712" lon="6.22459">
        <ele>540.3</ele>
        <time>2021-09-07T10:08:31.000Z</time>
      </trkpt>
      <trkpt lat="43.82684" lon="6.22462">
        <ele>540.1</ele>
        <time>2021-09-07T10:08:36.000Z</time>
      </trkpt>
      <trkpt lat="43.82653" lon="6.22467">
        <ele>540.1</ele>
        <time>2021-09-07T10:08:41.000Z</time>
      </trkpt>
      <trkpt lat="43.82618" lon="6.22469">
        <ele>539.4</ele>
        <time>2021-09-07T10:08:46.000Z</time>
      </trkpt>
      <trkpt lat="43.82585" lon="6.22468">
        <ele>538.6</ele>
        <time>2021-09-07T10:08:51.000Z</time>
      </trkpt>
      <trkpt lat="43.8254" lon="6.22466">
        <ele>537.4</ele>
        <time>2021-09-07T10:08:56.000Z</time>
      </trkpt>
      <trkpt lat="43.82493" lon="6.2246">
        <ele>535</ele>
        <time>2021-09-07T10:09:01.000Z</time>
      </trkpt>
      <trkpt lat="43.82444" lon="6.22446">
        <ele>532.4</ele>
        <time>2021-09-07T10:09:06.000Z</time>
      </trkpt>
      <trkpt lat="43.82396" lon="6.22433">
        <ele>531.5</ele>
        <time>2021-09-07T10:09:11.000Z</time>
      </trkpt>
      <trkpt lat="43.82347" lon="6.22447">
        <ele>528.8</ele>
        <time>2021-09-07T10:09:16.000Z</time>
      </trkpt>
      <trkpt lat="43.82299" lon="6.22477">
        <ele>526.2</ele>
        <time>2021-09-07T10:09:21.000Z</time>
      </trkpt>
      <trkpt lat="43.8225" lon="6.22512">
        <ele>525.2</ele>
        <time>2021-09-07T10:09:26.000Z</time>
      </trkpt>
      <trkpt lat="43.82201" lon="6.22542">
        <ele>524.2</ele>
        <time>2021-09-07T10:09:31.000Z</time>
      </trkpt>
      <trkpt lat="43.82155" lon="6.22571">
        <ele>523.6</ele>
        <time>2021-09-07T10:09:36.000Z</time>
      </trkpt>
      <trkpt lat="43.82111" lon="6.22596">
        <ele>523.3</ele>
        <time>2021-09-07T10:09:41.000Z</time>
      </trkpt>
      <trkpt lat="43.8207" lon="6.22624">
        <ele>523.1</ele>
        <time>2021-09-07T10:09:46.000Z</time>
      </trkpt>
      <trkpt lat="43.82028" lon="6.22648">
        <ele>522.6</ele>
        <time>2021-09-07T10:09:51.000Z</time>
      </trkpt>
      <trkpt lat="43.81986" lon="6.22663">
        <ele>521.9</ele>
        <time>2021-09-07T10:09:56.000Z</time>
      </trkpt>
      <trkpt lat="43.8194" lon="6.22659">
        <ele>521.5</ele>
        <time>2021-09-07T10:10:01.000Z</time>
      </trkpt>
      <trkpt lat="43.81895" lon="6.22657">
        <ele>521.3</ele>
        <time>2021-09-07T10:10:06.000Z</time>
      </trkpt>
      <trkpt lat="43.81848" lon="6.22655">
        <ele>519.5</ele>
        <time>2021-09-07T10:10:11.000Z</time>
      </trkpt>
      <trkpt lat="43.81798" lon="6.22653">
        <ele>517.6</ele>
        <time>2021-09-07T10:10:16.000Z</time>
      </trkpt>
      <trkpt lat="43.81746" lon="6.22651">
        <ele>515.6</ele>
        <time>2021-09-07T10:10:21.000Z</time>
      </trkpt>
      <trkpt lat="43.81692" lon="6.22649">
        <ele>513.3</ele>
        <time>2021-09-07T10:10:26.000Z</time>
      </trkpt>
      <trkpt lat="43.81636" lon="6.22645">
        <ele>510.9</ele>
        <time>2021-09-07T10:10:31.000Z</time>
      </trkpt>
      <trkpt lat="43.81583" lon="6.22642">
        <ele>508.8</ele>
        <time>2021-09-07T10:10:36.000Z</time>
      </trkpt>
      <trkpt lat="43.81528" lon="6.2264">
        <ele>507.7</ele>
        <time>2021-09-07T10:10:41.000Z</time>
      </trkpt>
      <trkpt lat="43.81475" lon="6.22636">
        <ele>506.3</ele>
        <time>2021-09-07T10:10:46.000Z</time>
      </trkpt>
      <trkpt lat="43.81418" lon="6.22635">
        <ele>504.1</ele>
        <time>2021-09-07T10:10:51.000Z</time>
      </trkpt>
      <trkpt lat="43.81361" lon="6.22632">
        <ele>502.1</ele>
        <time>2021-09-07T10:10:56.000Z</time>
      </trkpt>
      <trkpt lat="43.81309" lon="6.22648">
        <ele>500.7</ele>
        <time>2021-09-07T10:11:01.000Z</time>
      </trkpt>
      <trkpt lat="43.81263" lon="6.22685">
        <ele>500.2</ele>
        <time>2021-09-07T10:11:06.000Z</time>
      </trkpt>
      <trkpt lat="43.8122" lon="6.22713">
        <ele>500.1</ele>
        <time>2021-09-07T10:11:11.000Z</time>
      </trkpt>
      <trkpt lat="43.81178" lon="6.22732">
        <ele>500.7</ele>
        <time>2021-09-07T10:11:16.000Z</time>
      </trkpt>
      <trkpt lat="43.81139" lon="6.2275">
        <ele>501</ele>
        <time>2021-09-07T10:11:21.000Z</time>
      </trkpt>
      <trkpt lat="43.81102" lon="6.22768">
        <ele>501.4</ele>
        <time>2021-09-07T10:11:26.000Z</time>
      </trkpt>
      <trkpt lat="43.81069" lon="6.2278">
        <ele>501.5</ele>
        <time>2021-09-07T10:11:31.000Z</time>
      </trkpt>
      <trkpt lat="43.81041" lon="6.22792">
        <ele>502.1</ele>
        <time>2021-09-07T10:11:36.000Z</time>
      </trkpt>
      <trkpt lat="43.8101" lon="6.22805">
        <ele>502.5</ele>
        <time>2021-09-07T10:11:41.000Z</time>
      </trkpt>
      <trkpt lat="43.80978" lon="6.22819">
        <ele>502.7</ele>
        <time>2021-09-07T10:11:46.000Z</time>
      </trkpt>
      <trkpt lat="43.80947" lon="6.22831">
        <ele>502.6</ele>
        <time>2021-09-07T10:11:51.000Z</time>
      </trkpt>
      <trkpt lat="43.80917" lon="6.22845">
        <ele>503.3</ele>
        <time>2021-09-07T10:11:56.000Z</time>
      </trkpt>
      <trkpt lat="43.80889" lon="6.22866">
        <ele>503.5</ele>
        <time>2021-09-07T10:12:01.000Z</time>
      </trkpt>
      <trkpt lat="43.80865" lon="6.22893">
        <ele>503.8</ele>
        <time>2021-09-07T10:12:06.000Z</time>
      </trkpt>
      <trkpt lat="43.80843" lon="6.22922">
        <ele>504.2</ele>
        <time>2021-09-07T10:12:11.000Z</time>
      </trkpt>
      <trkpt lat="43.80828" lon="6.22955">
        <ele>505.3</ele>
        <time>2021-09-07T10:12:16.000Z</time>
      </trkpt>
      <trkpt lat="43.80818" lon="6.22984">
        <ele>506.6</ele>
        <time>2021-09-07T10:12:21.000Z</time>
      </trkpt>
      <trkpt lat="43.80811" lon="6.23012">
        <ele>507.7</ele>
        <time>2021-09-07T10:12:26.000Z</time>
      </trkpt>
      <trkpt lat="43.80809" lon="6.23037">
        <ele>508.2</ele>
        <time>2021-09-07T10:12:31.000Z</time>
      </trkpt>
      <trkpt lat="43.80808" lon="6.23039">
        <ele>508.8</ele>
        <time>2021-09-07T10:12:31.000Z</time>
      </trkpt>
      <trkpt lat="43.80807" lon="6.23041">
        <ele>509</ele>
        <time>2021-09-07T10:12:33.000Z</time>
      </trkpt>
      <trkpt lat="43.80807" lon="6.23046">
        <ele>509.2</ele>
        <time>2021-09-07T10:12:33.000Z</time>
      </trkpt>
      <trkpt lat="43.80807" lon="6.23051">
        <ele>509.4</ele>
        <time>2021-09-07T10:12:34.000Z</time>
      </trkpt>
      <trkpt lat="43.80807" lon="6.23049">
        <ele>509.3</ele>
        <time>2021-09-07T10:12:35.000Z</time>
      </trkpt>
      <trkpt lat="43.80807" lon="6.23054">
        <ele>509.7</ele>
        <time>2021-09-07T10:12:36.000Z</time>
      </trkpt>
      <trkpt lat="43.80807" lon="6.23071">
        <ele>510</ele>
        <time>2021-09-07T10:12:38.000Z</time>
      </trkpt>
      <trkpt lat="43.80806" lon="6.23076">
        <ele>510.4</ele>
        <time>2021-09-07T10:12:39.000Z</time>
      </trkpt>
      <trkpt lat="43.80806" lon="6.23074">
        <ele>510</ele>
        <time>2021-09-07T10:12:40.000Z</time>
      </trkpt>
      <trkpt lat="43.80807" lon="6.23081">
        <ele>510.8</ele>
        <time>2021-09-07T10:12:40.000Z</time>
      </trkpt>
      <trkpt lat="43.80807" lon="6.23092">
        <ele>511.1</ele>
        <time>2021-09-07T10:12:42.000Z</time>
      </trkpt>
      <trkpt lat="43.80807" lon="6.23098">
        <ele>511.4</ele>
        <time>2021-09-07T10:12:43.000Z</time>
      </trkpt>
      <trkpt lat="43.80807" lon="6.23096">
        <ele>511.3</ele>
        <time>2021-09-07T10:12:44.000Z</time>
      </trkpt>
      <trkpt lat="43.80807" lon="6.23101">
        <ele>511.4</ele>
        <time>2021-09-07T10:12:45.000Z</time>
      </trkpt>
      <trkpt lat="43.80809" lon="6.23112">
        <ele>512.1</ele>
        <time>2021-09-07T10:12:46.000Z</time>
      </trkpt>
      <trkpt lat="43.80809" lon="6.23116">
        <ele>512.2</ele>
        <time>2021-09-07T10:12:47.000Z</time>
      </trkpt>
      <trkpt lat="43.80809" lon="6.2312">
        <ele>512.7</ele>
        <time>2021-09-07T10:12:48.000Z</time>
      </trkpt>
      <trkpt lat="43.80809" lon="6.23114">
        <ele>512.2</ele>
        <time>2021-09-07T10:12:48.000Z</time>
      </trkpt>
      <trkpt lat="43.8081" lon="6.23125">
        <ele>512.5</ele>
        <time>2021-09-07T10:12:49.000Z</time>
      </trkpt>
      <trkpt lat="43.80809" lon="6.23118">
        <ele>512.6</ele>
        <time>2021-09-07T10:12:49.000Z</time>
      </trkpt>
      <trkpt lat="43.8081" lon="6.2313">
        <ele>512.4</ele>
        <time>2021-09-07T10:12:50.000Z</time>
      </trkpt>
      <trkpt lat="43.80809" lon="6.23122">
        <ele>512.5</ele>
        <time>2021-09-07T10:12:50.000Z</time>
      </trkpt>
      <trkpt lat="43.8081" lon="6.23128">
        <ele>512.4</ele>
        <time>2021-09-07T10:12:51.000Z</time>
      </trkpt>
      <trkpt lat="43.8081" lon="6.23134">
        <ele>512.9</ele>
        <time>2021-09-07T10:12:52.000Z</time>
      </trkpt>
      <trkpt lat="43.80815" lon="6.23158">
        <ele>514.3</ele>
        <time>2021-09-07T10:12:57.000Z</time>
      </trkpt>
      <trkpt lat="43.80816" lon="6.23164">
        <ele>514.3</ele>
        <time>2021-09-07T10:12:57.000Z</time>
      </trkpt>
      <trkpt lat="43.80818" lon="6.23169">
        <ele>514.6</ele>
        <time>2021-09-07T10:12:58.000Z</time>
      </trkpt>
      <trkpt lat="43.80817" lon="6.23167">
        <ele>514.4</ele>
        <time>2021-09-07T10:12:59.000Z</time>
      </trkpt>
      <trkpt lat="43.80819" lon="6.23173">
        <ele>514.9</ele>
        <time>2021-09-07T10:13:00.000Z</time>
      </trkpt>
      <trkpt lat="43.80822" lon="6.23182">
        <ele>515.7</ele>
        <time>2021-09-07T10:13:01.000Z</time>
      </trkpt>
      <trkpt lat="43.80823" lon="6.23186">
        <ele>515.9</ele>
        <time>2021-09-07T10:13:02.000Z</time>
      </trkpt>
      <trkpt lat="43.80823" lon="6.23184">
        <ele>515.9</ele>
        <time>2021-09-07T10:13:03.000Z</time>
      </trkpt>
      <trkpt lat="43.80825" lon="6.2319">
        <ele>516</ele>
        <time>2021-09-07T10:13:03.000Z</time>
      </trkpt>
      <trkpt lat="43.80826" lon="6.23197">
        <ele>516.9</ele>
        <time>2021-09-07T10:13:05.000Z</time>
      </trkpt>
      <trkpt lat="43.80827" lon="6.23202">
        <ele>517.1</ele>
        <time>2021-09-07T10:13:06.000Z</time>
      </trkpt>
      <trkpt lat="43.80828" lon="6.23207">
        <ele>517.1</ele>
        <time>2021-09-07T10:13:07.000Z</time>
      </trkpt>
      <trkpt lat="43.80827" lon="6.232">
        <ele>517.2</ele>
        <time>2021-09-07T10:13:07.000Z</time>
      </trkpt>
      <trkpt lat="43.80827" lon="6.23205">
        <ele>517.2</ele>
        <time>2021-09-07T10:13:08.000Z</time>
      </trkpt>
      <trkpt lat="43.80829" lon="6.2321">
        <ele>517.3</ele>
        <time>2021-09-07T10:13:09.000Z</time>
      </trkpt>
      <trkpt lat="43.80831" lon="6.23221">
        <ele>517.4</ele>
        <time>2021-09-07T10:13:10.000Z</time>
      </trkpt>
      <trkpt lat="43.80832" lon="6.23225">
        <ele>518</ele>
        <time>2021-09-07T10:13:11.000Z</time>
      </trkpt>
      <trkpt lat="43.80834" lon="6.23231">
        <ele>518.1</ele>
        <time>2021-09-07T10:13:12.000Z</time>
      </trkpt>
      <trkpt lat="43.80832" lon="6.23224">
        <ele>517.7</ele>
        <time>2021-09-07T10:13:12.000Z</time>
      </trkpt>
      <trkpt lat="43.80833" lon="6.23228">
        <ele>518.1</ele>
        <time>2021-09-07T10:13:13.000Z</time>
      </trkpt>
      <trkpt lat="43.80835" lon="6.23235">
        <ele>518.2</ele>
        <time>2021-09-07T10:13:13.000Z</time>
      </trkpt>
      <trkpt lat="43.80839" lon="6.23248">
        <ele>518.8</ele>
        <time>2021-09-07T10:13:16.000Z</time>
      </trkpt>
      <trkpt lat="43.8084" lon="6.23252">
        <ele>518.9</ele>
        <time>2021-09-07T10:13:18.000Z</time>
      </trkpt>
      <trkpt lat="43.80842" lon="6.23257">
        <ele>519.1</ele>
        <time>2021-09-07T10:13:18.000Z</time>
      </trkpt>
      <trkpt lat="43.80844" lon="6.23262">
        <ele>519.5</ele>
        <time>2021-09-07T10:13:19.000Z</time>
      </trkpt>
      <trkpt lat="43.80843" lon="6.2326">
        <ele>519.3</ele>
        <time>2021-09-07T10:13:20.000Z</time>
      </trkpt>
      <trkpt lat="43.80844" lon="6.23266">
        <ele>519.5</ele>
        <time>2021-09-07T10:13:21.000Z</time>
      </trkpt>
      <trkpt lat="43.80847" lon="6.23277">
        <ele>520</ele>
        <time>2021-09-07T10:13:22.000Z</time>
      </trkpt>
      <trkpt lat="43.80849" lon="6.23281">
        <ele>520.2</ele>
        <time>2021-09-07T10:13:23.000Z</time>
      </trkpt>
      <trkpt lat="43.8085" lon="6.23286">
        <ele>520.6</ele>
        <time>2021-09-07T10:13:24.000Z</time>
      </trkpt>
      <trkpt lat="43.80848" lon="6.23278">
        <ele>520.2</ele>
        <time>2021-09-07T10:13:24.000Z</time>
      </trkpt>
      <trkpt lat="43.8085" lon="6.23283">
        <ele>520.4</ele>
        <time>2021-09-07T10:13:25.000Z</time>
      </trkpt>
      <trkpt lat="43.80851" lon="6.23289">
        <ele>520.8</ele>
        <time>2021-09-07T10:13:26.000Z</time>
      </trkpt>
      <trkpt lat="43.80852" lon="6.23299">
        <ele>521.2</ele>
        <time>2021-09-07T10:13:27.000Z</time>
      </trkpt>
      <trkpt lat="43.80853" lon="6.23303">
        <ele>521.4</ele>
        <time>2021-09-07T10:13:29.000Z</time>
      </trkpt>
      <trkpt lat="43.80854" lon="6.23308">
        <ele>521.5</ele>
        <time>2021-09-07T10:13:29.000Z</time>
      </trkpt>
      <trkpt lat="43.80855" lon="6.23313">
        <ele>521.6</ele>
        <time>2021-09-07T10:13:30.000Z</time>
      </trkpt>
      <trkpt lat="43.80854" lon="6.23311">
        <ele>521.5</ele>
        <time>2021-09-07T10:13:31.000Z</time>
      </trkpt>
      <trkpt lat="43.80855" lon="6.23317">
        <ele>522</ele>
        <time>2021-09-07T10:13:31.000Z</time>
      </trkpt>
      <trkpt lat="43.80856" lon="6.23331">
        <ele>522.3</ele>
        <time>2021-09-07T10:13:34.000Z</time>
      </trkpt>
      <trkpt lat="43.80856" lon="6.23337">
        <ele>522.6</ele>
        <time>2021-09-07T10:13:35.000Z</time>
      </trkpt>
      <trkpt lat="43.80856" lon="6.23333">
        <ele>522.4</ele>
        <time>2021-09-07T10:13:36.000Z</time>
      </trkpt>
      <trkpt lat="43.80856" lon="6.23342">
        <ele>523</ele>
        <time>2021-09-07T10:13:37.000Z</time>
      </trkpt>
      <trkpt lat="43.80856" lon="6.23352">
        <ele>523.5</ele>
        <time>2021-09-07T10:13:38.000Z</time>
      </trkpt>
      <trkpt lat="43.80856" lon="6.23357">
        <ele>523.5</ele>
        <time>2021-09-07T10:13:39.000Z</time>
      </trkpt>
      <trkpt lat="43.80854" lon="6.2337">
        <ele>524.3</ele>
        <time>2021-09-07T10:13:42.000Z</time>
      </trkpt>
      <trkpt lat="43.80854" lon="6.23375">
        <ele>524.4</ele>
        <time>2021-09-07T10:13:43.000Z</time>
      </trkpt>
      <trkpt lat="43.80854" lon="6.23372">
        <ele>524.5</ele>
        <time>2021-09-07T10:13:44.000Z</time>
      </trkpt>
      <trkpt lat="43.80853" lon="6.23379">
        <ele>524.8</ele>
        <time>2021-09-07T10:13:45.000Z</time>
      </trkpt>
      <trkpt lat="43.80852" lon="6.23384">
        <ele>525.1</ele>
        <time>2021-09-07T10:13:45.000Z</time>
      </trkpt>
      <trkpt lat="43.80852" lon="6.23388">
        <ele>525.1</ele>
        <time>2021-09-07T10:13:46.000Z</time>
      </trkpt>
      <trkpt lat="43.80848" lon="6.23401">
        <ele>525.9</ele>
        <time>2021-09-07T10:13:49.000Z</time>
      </trkpt>
      <trkpt lat="43.80847" lon="6.23405">
        <ele>526.2</ele>
        <time>2021-09-07T10:13:50.000Z</time>
      </trkpt>
      <trkpt lat="43.80848" lon="6.23403">
        <ele>526</ele>
        <time>2021-09-07T10:13:51.000Z</time>
      </trkpt>
      <trkpt lat="43.80846" lon="6.23408">
        <ele>526.2</ele>
        <time>2021-09-07T10:13:52.000Z</time>
      </trkpt>
      <trkpt lat="43.80842" lon="6.23414">
        <ele>526.5</ele>
        <time>2021-09-07T10:13:52.000Z</time>
      </trkpt>
      <trkpt lat="43.8084" lon="6.23418">
        <ele>527.1</ele>
        <time>2021-09-07T10:13:53.000Z</time>
      </trkpt>
      <trkpt lat="43.80831" lon="6.23432">
        <ele>527.4</ele>
        <time>2021-09-07T10:13:57.000Z</time>
      </trkpt>
      <trkpt lat="43.80829" lon="6.23435">
        <ele>527.6</ele>
        <time>2021-09-07T10:13:58.000Z</time>
      </trkpt>
      <trkpt lat="43.80832" lon="6.2343">
        <ele>527.3</ele>
        <time>2021-09-07T10:13:58.000Z</time>
      </trkpt>
      <trkpt lat="43.8083" lon="6.23433">
        <ele>527.5</ele>
        <time>2021-09-07T10:13:59.000Z</time>
      </trkpt>
      <trkpt lat="43.80827" lon="6.23438">
        <ele>527.9</ele>
        <time>2021-09-07T10:14:00.000Z</time>
      </trkpt>
      <trkpt lat="43.80824" lon="6.23443">
        <ele>528.5</ele>
        <time>2021-09-07T10:14:00.000Z</time>
      </trkpt>
      <trkpt lat="43.80822" lon="6.23447">
        <ele>528.3</ele>
        <time>2021-09-07T10:14:01.000Z</time>
      </trkpt>
      <trkpt lat="43.80823" lon="6.23445">
        <ele>528.5</ele>
        <time>2021-09-07T10:14:02.000Z</time>
      </trkpt>
      <trkpt lat="43.80821" lon="6.23449">
        <ele>528.4</ele>
        <time>2021-09-07T10:14:03.000Z</time>
      </trkpt>
      <trkpt lat="43.80817" lon="6.23453">
        <ele>528.5</ele>
        <time>2021-09-07T10:14:03.000Z</time>
      </trkpt>
      <trkpt lat="43.80816" lon="6.23455">
        <ele>528.6</ele>
        <time>2021-09-07T10:14:05.000Z</time>
      </trkpt>
      <trkpt lat="43.8081" lon="6.23461">
        <ele>529.3</ele>
        <time>2021-09-07T10:14:06.000Z</time>
      </trkpt>
      <trkpt lat="43.80808" lon="6.23463">
        <ele>529.4</ele>
        <time>2021-09-07T10:14:08.000Z</time>
      </trkpt>
      <trkpt lat="43.80805" lon="6.23466">
        <ele>529.6</ele>
        <time>2021-09-07T10:14:08.000Z</time>
      </trkpt>
      <trkpt lat="43.80802" lon="6.23468">
        <ele>529.8</ele>
        <time>2021-09-07T10:14:10.000Z</time>
      </trkpt>
      <trkpt lat="43.80793" lon="6.23471">
        <ele>530.4</ele>
        <time>2021-09-07T10:14:12.000Z</time>
      </trkpt>
      <trkpt lat="43.8079" lon="6.23472">
        <ele>530.6</ele>
        <time>2021-09-07T10:14:13.000Z</time>
      </trkpt>
      <trkpt lat="43.80792" lon="6.23472">
        <ele>530.7</ele>
        <time>2021-09-07T10:14:14.000Z</time>
      </trkpt>
      <trkpt lat="43.80788" lon="6.23473">
        <ele>530.8</ele>
        <time>2021-09-07T10:14:15.000Z</time>
      </trkpt>
      <trkpt lat="43.80778" lon="6.23474">
        <ele>531.2</ele>
        <time>2021-09-07T10:14:17.000Z</time>
      </trkpt>
      <trkpt lat="43.80776" lon="6.23474">
        <ele>531.2</ele>
        <time>2021-09-07T10:14:19.000Z</time>
      </trkpt>
      <trkpt lat="43.80772" lon="6.23476">
        <ele>531.7</ele>
        <time>2021-09-07T10:14:19.000Z</time>
      </trkpt>
      <trkpt lat="43.80769" lon="6.23476">
        <ele>532</ele>
        <time>2021-09-07T10:14:21.000Z</time>
      </trkpt>
      <trkpt lat="43.80762" lon="6.23476">
        <ele>532.2</ele>
        <time>2021-09-07T10:14:22.000Z</time>
      </trkpt>
      <trkpt lat="43.80759" lon="6.23475">
        <ele>532.5</ele>
        <time>2021-09-07T10:14:23.000Z</time>
      </trkpt>
      <trkpt lat="43.80761" lon="6.23476">
        <ele>532.5</ele>
        <time>2021-09-07T10:14:24.000Z</time>
      </trkpt>
      <trkpt lat="43.80756" lon="6.23475">
        <ele>532.5</ele>
        <time>2021-09-07T10:14:25.000Z</time>
      </trkpt>
      <trkpt lat="43.80752" lon="6.23474">
        <ele>532.8</ele>
        <time>2021-09-07T10:14:25.000Z</time>
      </trkpt>
      <trkpt lat="43.80749" lon="6.23475">
        <ele>533</ele>
        <time>2021-09-07T10:14:26.000Z</time>
      </trkpt>
      <trkpt lat="43.80739" lon="6.23473">
        <ele>533.4</ele>
        <time>2021-09-07T10:14:29.000Z</time>
      </trkpt>
      <trkpt lat="43.80736" lon="6.23473">
        <ele>533.5</ele>
        <time>2021-09-07T10:14:31.000Z</time>
      </trkpt>
      <trkpt lat="43.80733" lon="6.23472">
        <ele>533.8</ele>
        <time>2021-09-07T10:14:31.000Z</time>
      </trkpt>
      <trkpt lat="43.80731" lon="6.23472">
        <ele>534.1</ele>
        <time>2021-09-07T10:14:33.000Z</time>
      </trkpt>
      <trkpt lat="43.80728" lon="6.23471">
        <ele>534.5</ele>
        <time>2021-09-07T10:14:33.000Z</time>
      </trkpt>
      <trkpt lat="43.80725" lon="6.23469">
        <ele>534.6</ele>
        <time>2021-09-07T10:14:34.000Z</time>
      </trkpt>
      <trkpt lat="43.80715" lon="6.23465">
        <ele>535</ele>
        <time>2021-09-07T10:14:37.000Z</time>
      </trkpt>
      <trkpt lat="43.80712" lon="6.23464">
        <ele>535.3</ele>
        <time>2021-09-07T10:14:38.000Z</time>
      </trkpt>
      <trkpt lat="43.80713" lon="6.23464">
        <ele>535.2</ele>
        <time>2021-09-07T10:14:39.000Z</time>
      </trkpt>
      <trkpt lat="43.8071" lon="6.23463">
        <ele>535.3</ele>
        <time>2021-09-07T10:14:40.000Z</time>
      </trkpt>
      <trkpt lat="43.80705" lon="6.23464">
        <ele>535.7</ele>
        <time>2021-09-07T10:14:41.000Z</time>
      </trkpt>
      <trkpt lat="43.80703" lon="6.23462">
        <ele>535.7</ele>
        <time>2021-09-07T10:14:43.000Z</time>
      </trkpt>
      <trkpt lat="43.80698" lon="6.23459">
        <ele>535.8</ele>
        <time>2021-09-07T10:14:44.000Z</time>
      </trkpt>
      <trkpt lat="43.80695" lon="6.23458">
        <ele>535.8</ele>
        <time>2021-09-07T10:14:45.000Z</time>
      </trkpt>
      <trkpt lat="43.80692" lon="6.23458">
        <ele>535.7</ele>
        <time>2021-09-07T10:14:46.000Z</time>
      </trkpt>
      <trkpt lat="43.8069" lon="6.23457">
        <ele>536</ele>
        <time>2021-09-07T10:14:47.000Z</time>
      </trkpt>
      <trkpt lat="43.80687" lon="6.23455">
        <ele>535.9</ele>
        <time>2021-09-07T10:14:48.000Z</time>
      </trkpt>
      <trkpt lat="43.80684" lon="6.23455">
        <ele>536</ele>
        <time>2021-09-07T10:14:49.000Z</time>
      </trkpt>
      <trkpt lat="43.80675" lon="6.23452">
        <ele>536.6</ele>
        <time>2021-09-07T10:14:52.000Z</time>
      </trkpt>
      <trkpt lat="43.80672" lon="6.23451">
        <ele>536.8</ele>
        <time>2021-09-07T10:14:53.000Z</time>
      </trkpt>
      <trkpt lat="43.80669" lon="6.2345">
        <ele>536.8</ele>
        <time>2021-09-07T10:14:54.000Z</time>
      </trkpt>
      <trkpt lat="43.80674" lon="6.23452">
        <ele>536.8</ele>
        <time>2021-09-07T10:14:54.000Z</time>
      </trkpt>
      <trkpt lat="43.80665" lon="6.23449">
        <ele>536.8</ele>
        <time>2021-09-07T10:14:55.000Z</time>
      </trkpt>
      <trkpt lat="43.80671" lon="6.23451">
        <ele>536.8</ele>
        <time>2021-09-07T10:14:55.000Z</time>
      </trkpt>
      <trkpt lat="43.80661" lon="6.23448">
        <ele>537.1</ele>
        <time>2021-09-07T10:14:56.000Z</time>
      </trkpt>
      <trkpt lat="43.80666" lon="6.2345">
        <ele>536.8</ele>
        <time>2021-09-07T10:14:56.000Z</time>
      </trkpt>
      <trkpt lat="43.80663" lon="6.23449">
        <ele>537</ele>
        <time>2021-09-07T10:14:57.000Z</time>
      </trkpt>
      <trkpt lat="43.80657" lon="6.23447">
        <ele>537</ele>
        <time>2021-09-07T10:14:57.000Z</time>
      </trkpt>
      <trkpt lat="43.80654" lon="6.23446">
        <ele>536.8</ele>
        <time>2021-09-07T10:14:58.000Z</time>
      </trkpt>
      <trkpt lat="43.8065" lon="6.23445">
        <ele>537</ele>
        <time>2021-09-07T10:14:59.000Z</time>
      </trkpt>
      <trkpt lat="43.80651" lon="6.23445">
        <ele>536.8</ele>
        <time>2021-09-07T10:15:00.000Z</time>
      </trkpt>
      <trkpt lat="43.80646" lon="6.23444">
        <ele>537</ele>
        <time>2021-09-07T10:15:00.000Z</time>
      </trkpt>
      <trkpt lat="43.80638" lon="6.23441">
        <ele>537.1</ele>
        <time>2021-09-07T10:15:02.000Z</time>
      </trkpt>
      <trkpt lat="43.80636" lon="6.23441">
        <ele>537.2</ele>
        <time>2021-09-07T10:15:04.000Z</time>
      </trkpt>
      <trkpt lat="43.80625" lon="6.23437">
        <ele>537.3</ele>
        <time>2021-09-07T10:15:05.000Z</time>
      </trkpt>
      <trkpt lat="43.80621" lon="6.23436">
        <ele>537.3</ele>
        <time>2021-09-07T10:15:06.000Z</time>
      </trkpt>
      <trkpt lat="43.80612" lon="6.23433">
        <ele>537.3</ele>
        <time>2021-09-07T10:15:09.000Z</time>
      </trkpt>
      <trkpt lat="43.8061" lon="6.23432">
        <ele>537.1</ele>
        <time>2021-09-07T10:15:10.000Z</time>
      </trkpt>
      <trkpt lat="43.8061" lon="6.23432">
        <ele>537.2</ele>
        <time>2021-09-07T10:15:11.000Z</time>
      </trkpt>
      <trkpt lat="43.80608" lon="6.23431">
        <ele>537.1</ele>
        <time>2021-09-07T10:15:12.000Z</time>
      </trkpt>
      <trkpt lat="43.80602" lon="6.23427">
        <ele>537.3</ele>
        <time>2021-09-07T10:15:15.000Z</time>
      </trkpt>
      <trkpt lat="43.806" lon="6.23426">
        <ele>537.1</ele>
        <time>2021-09-07T10:15:16.000Z</time>
      </trkpt>
      <trkpt lat="43.80601" lon="6.23426">
        <ele>537.3</ele>
        <time>2021-09-07T10:15:17.000Z</time>
      </trkpt>
      <trkpt lat="43.80599" lon="6.23425">
        <ele>537.2</ele>
        <time>2021-09-07T10:15:17.000Z</time>
      </trkpt>
      <trkpt lat="43.80598" lon="6.23424">
        <ele>536.8</ele>
        <time>2021-09-07T10:15:18.000Z</time>
      </trkpt>
      <trkpt lat="43.80596" lon="6.23423">
        <ele>537</ele>
        <time>2021-09-07T10:15:19.000Z</time>
      </trkpt>
      <trkpt lat="43.80597" lon="6.23423">
        <ele>536.9</ele>
        <time>2021-09-07T10:15:20.000Z</time>
      </trkpt>
      <trkpt lat="43.80595" lon="6.23423">
        <ele>537.2</ele>
        <time>2021-09-07T10:15:21.000Z</time>
      </trkpt>
      <trkpt lat="43.80592" lon="6.23423">
        <ele>537.2</ele>
        <time>2021-09-07T10:15:21.000Z</time>
      </trkpt>
      <trkpt lat="43.80591" lon="6.23424">
        <ele>537.2</ele>
        <time>2021-09-07T10:15:23.000Z</time>
      </trkpt>
      <trkpt lat="43.80584" lon="6.2343">
        <ele>537.6</ele>
        <time>2021-09-07T10:15:28.000Z</time>
      </trkpt>
      <trkpt lat="43.80585" lon="6.23434">
        <ele>537.4</ele>
        <time>2021-09-07T10:15:33.000Z</time>
      </trkpt>
      <trkpt lat="43.80585" lon="6.23435">
        <ele>537.3</ele>
        <time>2021-09-07T10:15:34.000Z</time>
      </trkpt>
      <trkpt lat="43.80586" lon="6.23435">
        <ele>537.3</ele>
        <time>2021-09-07T10:15:34.000Z</time>
      </trkpt>
      <trkpt lat="43.80587" lon="6.23435">
        <ele>537.3</ele>
        <time>2021-09-07T10:15:35.000Z</time>
      </trkpt>
      <trkpt lat="43.80587" lon="6.23436">
        <ele>537</ele>
        <time>2021-09-07T10:15:36.000Z</time>
      </trkpt>
      <trkpt lat="43.80588" lon="6.23437">
        <ele>537.1</ele>
        <time>2021-09-07T10:15:37.000Z</time>
      </trkpt>
      <trkpt lat="43.80589" lon="6.23438">
        <ele>537.4</ele>
        <time>2021-09-07T10:15:42.000Z</time>
      </trkpt>
      <trkpt lat="43.80589" lon="6.23438">
        <ele>537.2</ele>
        <time>2021-09-07T10:15:43.000Z</time>
      </trkpt>
      <trkpt lat="43.80589" lon="6.23438">
        <ele>536.9</ele>
        <time>2021-09-07T10:15:44.000Z</time>
      </trkpt>
      <trkpt lat="43.80589" lon="6.23439">
        <ele>536.9</ele>
        <time>2021-09-07T10:15:48.000Z</time>
      </trkpt>
      <trkpt lat="43.80589" lon="6.23439">
        <ele>536.9</ele>
        <time>2021-09-07T10:15:50.000Z</time>
      </trkpt>
      <trkpt lat="43.80589" lon="6.23439">
        <ele>537</ele>
        <time>2021-09-07T10:15:51.000Z</time>
      </trkpt>
      <trkpt lat="43.80588" lon="6.23439">
        <ele>536.9</ele>
        <time>2021-09-07T10:15:55.000Z</time>
      </trkpt>
      <trkpt lat="43.80587" lon="6.23439">
        <ele>536.7</ele>
        <time>2021-09-07T10:15:57.000Z</time>
      </trkpt>
      <trkpt lat="43.80587" lon="6.23439">
        <ele>536.9</ele>
        <time>2021-09-07T10:16:02.000Z</time>
      </trkpt>
      <trkpt lat="43.80587" lon="6.23439">
        <ele>536.9</ele>
        <time>2021-09-07T10:16:04.000Z</time>
      </trkpt>
      <trkpt lat="43.80587" lon="6.23442">
        <ele>536.9</ele>
        <time>2021-09-07T10:16:09.000Z</time>
      </trkpt>
      <trkpt lat="43.80586" lon="6.23443">
        <ele>536.9</ele>
        <time>2021-09-07T10:16:09.000Z</time>
      </trkpt>
      <trkpt lat="43.80586" lon="6.23446">
        <ele>536.9</ele>
        <time>2021-09-07T10:16:14.000Z</time>
      </trkpt>
      <trkpt lat="43.80585" lon="6.23448">
        <ele>536.8</ele>
        <time>2021-09-07T10:16:19.000Z</time>
      </trkpt>
      <trkpt lat="43.80584" lon="6.23449">
        <ele>536.9</ele>
        <time>2021-09-07T10:16:19.000Z</time>
      </trkpt>
      <trkpt lat="43.80584" lon="6.2345">
        <ele>536.9</ele>
        <time>2021-09-07T10:16:23.000Z</time>
      </trkpt>
      <trkpt lat="43.80584" lon="6.2345">
        <ele>537</ele>
        <time>2021-09-07T10:16:25.000Z</time>
      </trkpt>
      <trkpt lat="43.80583" lon="6.23452">
        <ele>536.8</ele>
        <time>2021-09-07T10:16:28.000Z</time>
      </trkpt>
      <trkpt lat="43.80581" lon="6.23454">
        <ele>536.9</ele>
        <time>2021-09-07T10:16:29.000Z</time>
      </trkpt>
      <trkpt lat="43.80579" lon="6.23456">
        <ele>537.1</ele>
        <time>2021-09-07T10:16:34.000Z</time>
      </trkpt>
      <trkpt lat="43.80578" lon="6.23456">
        <ele>537.1</ele>
        <time>2021-09-07T10:16:35.000Z</time>
      </trkpt>
      <trkpt lat="43.80579" lon="6.23456">
        <ele>537.1</ele>
        <time>2021-09-07T10:16:36.000Z</time>
      </trkpt>
      <trkpt lat="43.80578" lon="6.23457">
        <ele>537</ele>
        <time>2021-09-07T10:16:39.000Z</time>
      </trkpt>
      <trkpt lat="43.80578" lon="6.23457">
        <ele>536.9</ele>
        <time>2021-09-07T10:16:39.000Z</time>
      </trkpt>
      <trkpt lat="43.80578" lon="6.23457">
        <ele>537.5</ele>
        <time>2021-09-07T10:16:44.000Z</time>
      </trkpt>
      <trkpt lat="43.80576" lon="6.23456">
        <ele>537.6</ele>
        <time>2021-09-07T10:16:49.000Z</time>
      </trkpt>
      <trkpt lat="43.80577" lon="6.23455">
        <ele>537.3</ele>
        <time>2021-09-07T10:16:54.000Z</time>
      </trkpt>
      <trkpt lat="43.80578" lon="6.23454">
        <ele>537.4</ele>
        <time>2021-09-07T10:16:58.000Z</time>
      </trkpt>
      <trkpt lat="43.80578" lon="6.23454">
        <ele>537.5</ele>
        <time>2021-09-07T10:17:03.000Z</time>
      </trkpt>
      <trkpt lat="43.80578" lon="6.23453">
        <ele>537.6</ele>
        <time>2021-09-07T10:17:08.000Z</time>
      </trkpt>
      <trkpt lat="43.80578" lon="6.2345">
        <ele>538.2</ele>
        <time>2021-09-07T10:17:09.000Z</time>
      </trkpt>
      <trkpt lat="43.80578" lon="6.23451">
        <ele>538</ele>
        <time>2021-09-07T10:17:10.000Z</time>
      </trkpt>
      <trkpt lat="43.80577" lon="6.23447">
        <ele>538</ele>
        <time>2021-09-07T10:17:10.000Z</time>
      </trkpt>
      <trkpt lat="43.80575" lon="6.23445">
        <ele>537.8</ele>
        <time>2021-09-07T10:17:11.000Z</time>
      </trkpt>
      <trkpt lat="43.80572" lon="6.23442">
        <ele>537.9</ele>
        <time>2021-09-07T10:17:12.000Z</time>
      </trkpt>
      <trkpt lat="43.80573" lon="6.23444">
        <ele>537.9</ele>
        <time>2021-09-07T10:17:13.000Z</time>
      </trkpt>
      <trkpt lat="43.80569" lon="6.2344">
        <ele>538.1</ele>
        <time>2021-09-07T10:17:14.000Z</time>
      </trkpt>
      <trkpt lat="43.80566" lon="6.23437">
        <ele>538.1</ele>
        <time>2021-09-07T10:17:14.000Z</time>
      </trkpt>
      <trkpt lat="43.80562" lon="6.23435">
        <ele>538</ele>
        <time>2021-09-07T10:17:15.000Z</time>
      </trkpt>
      <trkpt lat="43.80565" lon="6.23437">
        <ele>538</ele>
        <time>2021-09-07T10:17:16.000Z</time>
      </trkpt>
      <trkpt lat="43.80559" lon="6.23434">
        <ele>538.2</ele>
        <time>2021-09-07T10:17:16.000Z</time>
      </trkpt>
      <trkpt lat="43.80555" lon="6.23432">
        <ele>538.1</ele>
        <time>2021-09-07T10:17:17.000Z</time>
      </trkpt>
      <trkpt lat="43.80553" lon="6.23431">
        <ele>538.1</ele>
        <time>2021-09-07T10:17:19.000Z</time>
      </trkpt>
      <trkpt lat="43.80549" lon="6.23428">
        <ele>538.2</ele>
        <time>2021-09-07T10:17:19.000Z</time>
      </trkpt>
      <trkpt lat="43.80547" lon="6.23427">
        <ele>538.3</ele>
        <time>2021-09-07T10:17:21.000Z</time>
      </trkpt>
      <trkpt lat="43.80543" lon="6.23423">
        <ele>538.4</ele>
        <time>2021-09-07T10:17:21.000Z</time>
      </trkpt>
      <trkpt lat="43.80541" lon="6.23422">
        <ele>538.4</ele>
        <time>2021-09-07T10:17:23.000Z</time>
      </trkpt>
      <trkpt lat="43.8053" lon="6.23414">
        <ele>538.7</ele>
        <time>2021-09-07T10:17:25.000Z</time>
      </trkpt>
      <trkpt lat="43.80526" lon="6.23412">
        <ele>538.8</ele>
        <time>2021-09-07T10:17:26.000Z</time>
      </trkpt>
      <trkpt lat="43.80528" lon="6.23413">
        <ele>538.6</ele>
        <time>2021-09-07T10:17:27.000Z</time>
      </trkpt>
      <trkpt lat="43.80524" lon="6.23411">
        <ele>538.6</ele>
        <time>2021-09-07T10:17:28.000Z</time>
      </trkpt>
      <trkpt lat="43.8051" lon="6.23405">
        <ele>539</ele>
        <time>2021-09-07T10:17:30.000Z</time>
      </trkpt>
      <trkpt lat="43.80505" lon="6.23403">
        <ele>539.1</ele>
        <time>2021-09-07T10:17:31.000Z</time>
      </trkpt>
      <trkpt lat="43.80507" lon="6.23404">
        <ele>539</ele>
        <time>2021-09-07T10:17:32.000Z</time>
      </trkpt>
      <trkpt lat="43.805" lon="6.23401">
        <ele>539.3</ele>
        <time>2021-09-07T10:17:32.000Z</time>
      </trkpt>
      <trkpt lat="43.80478" lon="6.23394">
        <ele>538.9</ele>
        <time>2021-09-07T10:17:37.000Z</time>
      </trkpt>
      <trkpt lat="43.80456" lon="6.23385">
        <ele>539.3</ele>
        <time>2021-09-07T10:17:42.000Z</time>
      </trkpt>
      <trkpt lat="43.80434" lon="6.23376">
        <ele>539.7</ele>
        <time>2021-09-07T10:17:47.000Z</time>
      </trkpt>
      <trkpt lat="43.8041" lon="6.23369">
        <ele>539.9</ele>
        <time>2021-09-07T10:17:52.000Z</time>
      </trkpt>
      <trkpt lat="43.80383" lon="6.23371">
        <ele>540.4</ele>
        <time>2021-09-07T10:17:57.000Z</time>
      </trkpt>
      <trkpt lat="43.80357" lon="6.23385">
        <ele>540.4</ele>
        <time>2021-09-07T10:18:02.000Z</time>
      </trkpt>
      <trkpt lat="43.80334" lon="6.23412">
        <ele>540.1</ele>
        <time>2021-09-07T10:18:07.000Z</time>
      </trkpt>
      <trkpt lat="43.80321" lon="6.23451">
        <ele>539.6</ele>
        <time>2021-09-07T10:18:12.000Z</time>
      </trkpt>
      <trkpt lat="43.80321" lon="6.23498">
        <ele>538.7</ele>
        <time>2021-09-07T10:18:17.000Z</time>
      </trkpt>
      <trkpt lat="43.80337" lon="6.23545">
        <ele>537.2</ele>
        <time>2021-09-07T10:18:22.000Z</time>
      </trkpt>
      <trkpt lat="43.80362" lon="6.23592">
        <ele>536.9</ele>
        <time>2021-09-07T10:18:27.000Z</time>
      </trkpt>
      <trkpt lat="43.80387" lon="6.23641">
        <ele>536</ele>
        <time>2021-09-07T10:18:32.000Z</time>
      </trkpt>
      <trkpt lat="43.80411" lon="6.23694">
        <ele>534.2</ele>
        <time>2021-09-07T10:18:37.000Z</time>
      </trkpt>
      <trkpt lat="43.80424" lon="6.23753">
        <ele>532.7</ele>
        <time>2021-09-07T10:18:42.000Z</time>
      </trkpt>
      <trkpt lat="43.80426" lon="6.23817">
        <ele>531.1</ele>
        <time>2021-09-07T10:18:47.000Z</time>
      </trkpt>
      <trkpt lat="43.80418" lon="6.23884">
        <ele>528.9</ele>
        <time>2021-09-07T10:18:52.000Z</time>
      </trkpt>
      <trkpt lat="43.80414" lon="6.23951">
        <ele>527.4</ele>
        <time>2021-09-07T10:18:57.000Z</time>
      </trkpt>
      <trkpt lat="43.80417" lon="6.24017">
        <ele>526.8</ele>
        <time>2021-09-07T10:19:02.000Z</time>
      </trkpt>
      <trkpt lat="43.80424" lon="6.24082">
        <ele>525</ele>
        <time>2021-09-07T10:19:07.000Z</time>
      </trkpt>
      <trkpt lat="43.80429" lon="6.24149">
        <ele>523</ele>
        <time>2021-09-07T10:19:12.000Z</time>
      </trkpt>
      <trkpt lat="43.80428" lon="6.24221">
        <ele>520.1</ele>
        <time>2021-09-07T10:19:17.000Z</time>
      </trkpt>
      <trkpt lat="43.80421" lon="6.24298">
        <ele>516.7</ele>
        <time>2021-09-07T10:19:22.000Z</time>
      </trkpt>
      <trkpt lat="43.80421" lon="6.24379">
        <ele>513.2</ele>
        <time>2021-09-07T10:19:27.000Z</time>
      </trkpt>
      <trkpt lat="43.80427" lon="6.24465">
        <ele>509.8</ele>
        <time>2021-09-07T10:19:32.000Z</time>
      </trkpt>
      <trkpt lat="43.80419" lon="6.24551">
        <ele>507.3</ele>
        <time>2021-09-07T10:19:37.000Z</time>
      </trkpt>
      <trkpt lat="43.80409" lon="6.24635">
        <ele>505.3</ele>
        <time>2021-09-07T10:19:42.000Z</time>
      </trkpt>
      <trkpt lat="43.80401" lon="6.24708">
        <ele>505</ele>
        <time>2021-09-07T10:19:47.000Z</time>
      </trkpt>
      <trkpt lat="43.80387" lon="6.24768">
        <ele>504.5</ele>
        <time>2021-09-07T10:19:52.000Z</time>
      </trkpt>
      <trkpt lat="43.80363" lon="6.2481">
        <ele>505.3</ele>
        <time>2021-09-07T10:19:57.000Z</time>
      </trkpt>
      <trkpt lat="43.80341" lon="6.24846">
        <ele>505.5</ele>
        <time>2021-09-07T10:20:02.000Z</time>
      </trkpt>
      <trkpt lat="43.80319" lon="6.24881">
        <ele>505.8</ele>
        <time>2021-09-07T10:20:07.000Z</time>
      </trkpt>
      <trkpt lat="43.80302" lon="6.24921">
        <ele>505.9</ele>
        <time>2021-09-07T10:20:12.000Z</time>
      </trkpt>
      <trkpt lat="43.80297" lon="6.2497">
        <ele>505.7</ele>
        <time>2021-09-07T10:20:17.000Z</time>
      </trkpt>
      <trkpt lat="43.80271" lon="6.25001">
        <ele>506.2</ele>
        <time>2021-09-07T10:20:22.000Z</time>
      </trkpt>
      <trkpt lat="43.80241" lon="6.24995">
        <ele>505.3</ele>
        <time>2021-09-07T10:20:27.000Z</time>
      </trkpt>
      <trkpt lat="43.80229" lon="6.24984">
        <ele>505.1</ele>
        <time>2021-09-07T10:20:32.000Z</time>
      </trkpt>
      <trkpt lat="43.80222" lon="6.24983">
        <ele>505.5</ele>
        <time>2021-09-07T10:20:37.000Z</time>
      </trkpt>
      <trkpt lat="43.80213" lon="6.24974">
        <ele>505.4</ele>
        <time>2021-09-07T10:20:42.000Z</time>
      </trkpt>
      <trkpt lat="43.802" lon="6.24963">
        <ele>505.4</ele>
        <time>2021-09-07T10:20:47.000Z</time>
      </trkpt>
      <trkpt lat="43.802" lon="6.24963">
        <ele>505.5</ele>
        <time>2021-09-07T10:20:47.000Z</time>
      </trkpt>
      <trkpt lat="43.80201" lon="6.24964">
        <ele>505.3</ele>
        <time>2021-09-07T10:20:48.000Z</time>
      </trkpt>
      <trkpt lat="43.80201" lon="6.24964">
        <ele>505.2</ele>
        <time>2021-09-07T10:20:50.000Z</time>
      </trkpt>
      <trkpt lat="43.80201" lon="6.24964">
        <ele>505.2</ele>
        <time>2021-09-07T10:20:53.000Z</time>
      </trkpt>
      <trkpt lat="43.80201" lon="6.24964">
        <ele>505.3</ele>
        <time>2021-09-07T10:20:55.000Z</time>
      </trkpt>
      <trkpt lat="43.802" lon="6.24964">
        <ele>505.4</ele>
        <time>2021-09-07T10:20:57.000Z</time>
      </trkpt>
      <trkpt lat="43.80197" lon="6.24964">
        <ele>505.4</ele>
        <time>2021-09-07T10:20:59.000Z</time>
      </trkpt>
      <trkpt lat="43.80196" lon="6.24964">
        <ele>505.4</ele>
        <time>2021-09-07T10:21:00.000Z</time>
      </trkpt>
      <trkpt lat="43.80194" lon="6.24964">
        <ele>505.4</ele>
        <time>2021-09-07T10:21:01.000Z</time>
      </trkpt>
      <trkpt lat="43.80196" lon="6.24964">
        <ele>505.4</ele>
        <time>2021-09-07T10:21:01.000Z</time>
      </trkpt>
      <trkpt lat="43.80193" lon="6.24964">
        <ele>505.2</ele>
        <time>2021-09-07T10:21:02.000Z</time>
      </trkpt>
      <trkpt lat="43.80195" lon="6.24964">
        <ele>505.4</ele>
        <time>2021-09-07T10:21:02.000Z</time>
      </trkpt>
      <trkpt lat="43.80194" lon="6.24964">
        <ele>505.2</ele>
        <time>2021-09-07T10:21:03.000Z</time>
      </trkpt>
      <trkpt lat="43.80192" lon="6.24963">
        <ele>505</ele>
        <time>2021-09-07T10:21:04.000Z</time>
      </trkpt>
      <trkpt lat="43.8019" lon="6.24963">
        <ele>505.1</ele>
        <time>2021-09-07T10:21:05.000Z</time>
      </trkpt>
      <trkpt lat="43.80188" lon="6.24963">
        <ele>505.1</ele>
        <time>2021-09-07T10:21:06.000Z</time>
      </trkpt>
      <trkpt lat="43.80189" lon="6.24963">
        <ele>505.1</ele>
        <time>2021-09-07T10:21:07.000Z</time>
      </trkpt>
      <trkpt lat="43.80188" lon="6.24962">
        <ele>505.1</ele>
        <time>2021-09-07T10:21:08.000Z</time>
      </trkpt>
      <trkpt lat="43.80187" lon="6.24962">
        <ele>505.1</ele>
        <time>2021-09-07T10:21:08.000Z</time>
      </trkpt>
      <trkpt lat="43.80186" lon="6.24961">
        <ele>504.9</ele>
        <time>2021-09-07T10:21:09.000Z</time>
      </trkpt>
      <trkpt lat="43.80186" lon="6.24961">
        <ele>505</ele>
        <time>2021-09-07T10:21:10.000Z</time>
      </trkpt>
      <trkpt lat="43.80185" lon="6.24961">
        <ele>504.8</ele>
        <time>2021-09-07T10:21:11.000Z</time>
      </trkpt>
      <trkpt lat="43.80183" lon="6.24958">
        <ele>504.7</ele>
        <time>2021-09-07T10:21:14.000Z</time>
      </trkpt>
      <trkpt lat="43.80182" lon="6.24957">
        <ele>504.7</ele>
        <time>2021-09-07T10:21:15.000Z</time>
      </trkpt>
      <trkpt lat="43.80182" lon="6.24958">
        <ele>504.6</ele>
        <time>2021-09-07T10:21:16.000Z</time>
      </trkpt>
      <trkpt lat="43.80182" lon="6.24957">
        <ele>504.6</ele>
        <time>2021-09-07T10:21:17.000Z</time>
      </trkpt>
      <trkpt lat="43.80181" lon="6.24956">
        <ele>504.6</ele>
        <time>2021-09-07T10:21:17.000Z</time>
      </trkpt>
      <trkpt lat="43.8018" lon="6.24955">
        <ele>504.7</ele>
        <time>2021-09-07T10:21:18.000Z</time>
      </trkpt>
      <trkpt lat="43.80181" lon="6.24956">
        <ele>504.6</ele>
        <time>2021-09-07T10:21:19.000Z</time>
      </trkpt>
      <trkpt lat="43.80179" lon="6.24955">
        <ele>504.7</ele>
        <time>2021-09-07T10:21:19.000Z</time>
      </trkpt>
      <trkpt lat="43.80176" lon="6.24953">
        <ele>504.8</ele>
        <time>2021-09-07T10:21:24.000Z</time>
      </trkpt>
      <trkpt lat="43.80175" lon="6.24953">
        <ele>504.8</ele>
        <time>2021-09-07T10:21:24.000Z</time>
      </trkpt>
      <trkpt lat="43.80175" lon="6.24954">
        <ele>504.5</ele>
        <time>2021-09-07T10:21:25.000Z</time>
      </trkpt>
      <trkpt lat="43.80175" lon="6.24954">
        <ele>504.6</ele>
        <time>2021-09-07T10:21:29.000Z</time>
      </trkpt>
      <trkpt lat="43.80175" lon="6.24954">
        <ele>505.2</ele>
        <time>2021-09-07T10:21:35.000Z</time>
      </trkpt>
      <trkpt lat="43.80175" lon="6.24955">
        <ele>504.8</ele>
        <time>2021-09-07T10:21:40.000Z</time>
      </trkpt>
      <trkpt lat="43.80174" lon="6.24955">
        <ele>504.9</ele>
        <time>2021-09-07T10:21:45.000Z</time>
      </trkpt>
      <trkpt lat="43.80174" lon="6.24955">
        <ele>505.1</ele>
        <time>2021-09-07T10:21:46.000Z</time>
      </trkpt>
      <trkpt lat="43.80174" lon="6.24955">
        <ele>505.1</ele>
        <time>2021-09-07T10:21:46.000Z</time>
      </trkpt>
      <trkpt lat="43.80174" lon="6.24955">
        <ele>505.1</ele>
        <time>2021-09-07T10:21:46.000Z</time>
      </trkpt>
      <trkpt lat="43.80174" lon="6.24954">
        <ele>504.9</ele>
        <time>2021-09-07T10:21:50.000Z</time>
      </trkpt>
      <trkpt lat="43.80174" lon="6.24954">
        <ele>505.2</ele>
        <time>2021-09-07T10:21:55.000Z</time>
      </trkpt>
      <trkpt lat="43.80173" lon="6.24954">
        <ele>505</ele>
        <time>2021-09-07T10:22:00.000Z</time>
      </trkpt>
      <trkpt lat="43.80173" lon="6.24954">
        <ele>505.1</ele>
        <time>2021-09-07T10:22:05.000Z</time>
      </trkpt>
      <trkpt lat="43.80173" lon="6.24954">
        <ele>505.6</ele>
        <time>2021-09-07T10:22:10.000Z</time>
      </trkpt>
      <trkpt lat="43.80173" lon="6.24954">
        <ele>505.3</ele>
        <time>2021-09-07T10:22:15.000Z</time>
      </trkpt>
      <trkpt lat="43.80173" lon="6.24954">
        <ele>505.6</ele>
        <time>2021-09-07T10:22:18.000Z</time>
      </trkpt>
      <trkpt lat="43.80173" lon="6.24954">
        <ele>505.3</ele>
        <time>2021-09-07T10:22:20.000Z</time>
      </trkpt>
      <trkpt lat="43.80173" lon="6.24954">
        <ele>505.3</ele>
        <time>2021-09-07T10:22:21.000Z</time>
      </trkpt>
      <trkpt lat="43.80172" lon="6.24953">
        <ele>505.5</ele>
        <time>2021-09-07T10:22:22.000Z</time>
      </trkpt>
      <trkpt lat="43.80172" lon="6.24953">
        <ele>505.5</ele>
        <time>2021-09-07T10:22:22.000Z</time>
      </trkpt>
      <trkpt lat="43.80172" lon="6.24952">
        <ele>505.6</ele>
        <time>2021-09-07T10:22:24.000Z</time>
      </trkpt>
      <trkpt lat="43.80171" lon="6.24951">
        <ele>505</ele>
        <time>2021-09-07T10:22:26.000Z</time>
      </trkpt>
      <trkpt lat="43.80172" lon="6.24951">
        <ele>505.4</ele>
        <time>2021-09-07T10:22:31.000Z</time>
      </trkpt>
      <trkpt lat="43.80172" lon="6.24951">
        <ele>505.4</ele>
        <time>2021-09-07T10:22:32.000Z</time>
      </trkpt>
      <trkpt lat="43.80172" lon="6.2495">
        <ele>505.5</ele>
        <time>2021-09-07T10:22:36.000Z</time>
      </trkpt>
      <trkpt lat="43.80163" lon="6.24939">
        <ele>505.5</ele>
        <time>2021-09-07T10:22:41.000Z</time>
      </trkpt>
      <trkpt lat="43.80159" lon="6.24936">
        <ele>505.5</ele>
        <time>2021-09-07T10:22:42.000Z</time>
      </trkpt>
      <trkpt lat="43.80157" lon="6.24934">
        <ele>505.4</ele>
        <time>2021-09-07T10:22:43.000Z</time>
      </trkpt>
      <trkpt lat="43.80142" lon="6.24923">
        <ele>505.4</ele>
        <time>2021-09-07T10:22:48.000Z</time>
      </trkpt>
      <trkpt lat="43.80138" lon="6.2492">
        <ele>505.7</ele>
        <time>2021-09-07T10:22:49.000Z</time>
      </trkpt>
      <trkpt lat="43.80135" lon="6.24917">
        <ele>505.6</ele>
        <time>2021-09-07T10:22:50.000Z</time>
      </trkpt>
      <trkpt lat="43.80132" lon="6.24912">
        <ele>505.4</ele>
        <time>2021-09-07T10:22:51.000Z</time>
      </trkpt>
      <trkpt lat="43.80129" lon="6.24908">
        <ele>505.5</ele>
        <time>2021-09-07T10:22:52.000Z</time>
      </trkpt>
      <trkpt lat="43.8013" lon="6.2491">
        <ele>505.5</ele>
        <time>2021-09-07T10:22:53.000Z</time>
      </trkpt>
      <trkpt lat="43.80125" lon="6.24905">
        <ele>505.6</ele>
        <time>2021-09-07T10:22:53.000Z</time>
      </trkpt>
      <trkpt lat="43.80117" lon="6.249">
        <ele>506</ele>
        <time>2021-09-07T10:22:55.000Z</time>
      </trkpt>
      <trkpt lat="43.80114" lon="6.24896">
        <ele>506</ele>
        <time>2021-09-07T10:22:56.000Z</time>
      </trkpt>
      <trkpt lat="43.80115" lon="6.24897">
        <ele>506.1</ele>
        <time>2021-09-07T10:22:57.000Z</time>
      </trkpt>
      <trkpt lat="43.80111" lon="6.24892">
        <ele>505.9</ele>
        <time>2021-09-07T10:22:58.000Z</time>
      </trkpt>
      <trkpt lat="43.801" lon="6.24875">
        <ele>505.6</ele>
        <time>2021-09-07T10:23:01.000Z</time>
      </trkpt>
      <trkpt lat="43.80098" lon="6.24872">
        <ele>505.7</ele>
        <time>2021-09-07T10:23:03.000Z</time>
      </trkpt>
      <trkpt lat="43.80094" lon="6.24861">
        <ele>506.1</ele>
        <time>2021-09-07T10:23:03.000Z</time>
      </trkpt>
      <trkpt lat="43.80092" lon="6.24857">
        <ele>505.8</ele>
        <time>2021-09-07T10:23:05.000Z</time>
      </trkpt>
      <trkpt lat="43.8009" lon="6.2485">
        <ele>505.9</ele>
        <time>2021-09-07T10:23:05.000Z</time>
      </trkpt>
      <trkpt lat="43.80088" lon="6.24846">
        <ele>506</ele>
        <time>2021-09-07T10:23:06.000Z</time>
      </trkpt>
      <trkpt lat="43.80084" lon="6.24838">
        <ele>506</ele>
        <time>2021-09-07T10:23:08.000Z</time>
      </trkpt>
      <trkpt lat="43.80082" lon="6.24834">
        <ele>506.5</ele>
        <time>2021-09-07T10:23:09.000Z</time>
      </trkpt>
      <trkpt lat="43.80084" lon="6.24837">
        <ele>506.2</ele>
        <time>2021-09-07T10:23:10.000Z</time>
      </trkpt>
      <trkpt lat="43.8008" lon="6.2483">
        <ele>506.4</ele>
        <time>2021-09-07T10:23:10.000Z</time>
      </trkpt>
      <trkpt lat="43.80079" lon="6.24826">
        <ele>506.5</ele>
        <time>2021-09-07T10:23:11.000Z</time>
      </trkpt>
      <trkpt lat="43.80078" lon="6.24822">
        <ele>506.6</ele>
        <time>2021-09-07T10:23:12.000Z</time>
      </trkpt>
      <trkpt lat="43.80075" lon="6.24814">
        <ele>506.8</ele>
        <time>2021-09-07T10:23:14.000Z</time>
      </trkpt>
      <trkpt lat="43.80074" lon="6.24811">
        <ele>506.7</ele>
        <time>2021-09-07T10:23:16.000Z</time>
      </trkpt>
      <trkpt lat="43.80068" lon="6.24799">
        <ele>507.1</ele>
        <time>2021-09-07T10:23:18.000Z</time>
      </trkpt>
      <trkpt lat="43.80067" lon="6.24795">
        <ele>507.1</ele>
        <time>2021-09-07T10:23:19.000Z</time>
      </trkpt>
      <trkpt lat="43.80066" lon="6.2479">
        <ele>507.2</ele>
        <time>2021-09-07T10:23:20.000Z</time>
      </trkpt>
      <trkpt lat="43.80068" lon="6.24797">
        <ele>507.1</ele>
        <time>2021-09-07T10:23:20.000Z</time>
      </trkpt>
      <trkpt lat="43.80067" lon="6.24792">
        <ele>507.1</ele>
        <time>2021-09-07T10:23:21.000Z</time>
      </trkpt>
      <trkpt lat="43.80066" lon="6.24787">
        <ele>507.3</ele>
        <time>2021-09-07T10:23:22.000Z</time>
      </trkpt>
      <trkpt lat="43.80057" lon="6.24767">
        <ele>507.7</ele>
        <time>2021-09-07T10:23:25.000Z</time>
      </trkpt>
      <trkpt lat="43.80056" lon="6.24765">
        <ele>507.7</ele>
        <time>2021-09-07T10:23:27.000Z</time>
      </trkpt>
      <trkpt lat="43.80046" lon="6.2474">
        <ele>508</ele>
        <time>2021-09-07T10:23:33.000Z</time>
      </trkpt>
      <trkpt lat="43.80041" lon="6.24728">
        <ele>508.5</ele>
        <time>2021-09-07T10:23:34.000Z</time>
      </trkpt>
      <trkpt lat="43.8004" lon="6.24724">
        <ele>508.7</ele>
        <time>2021-09-07T10:23:36.000Z</time>
      </trkpt>
      <trkpt lat="43.80032" lon="6.24705">
        <ele>509.2</ele>
        <time>2021-09-07T10:23:39.000Z</time>
      </trkpt>
      <trkpt lat="43.8003" lon="6.24702">
        <ele>509.1</ele>
        <time>2021-09-07T10:23:41.000Z</time>
      </trkpt>
      <trkpt lat="43.80028" lon="6.24696">
        <ele>509.4</ele>
        <time>2021-09-07T10:23:41.000Z</time>
      </trkpt>
      <trkpt lat="43.80026" lon="6.24692">
        <ele>509.4</ele>
        <time>2021-09-07T10:23:43.000Z</time>
      </trkpt>
      <trkpt lat="43.80023" lon="6.24687">
        <ele>509.3</ele>
        <time>2021-09-07T10:23:43.000Z</time>
      </trkpt>
      <trkpt lat="43.80021" lon="6.24683">
        <ele>509.7</ele>
        <time>2021-09-07T10:23:44.000Z</time>
      </trkpt>
      <trkpt lat="43.80021" lon="6.24685">
        <ele>509.6</ele>
        <time>2021-09-07T10:23:45.000Z</time>
      </trkpt>
      <trkpt lat="43.8002" lon="6.24679">
        <ele>509.7</ele>
        <time>2021-09-07T10:23:46.000Z</time>
      </trkpt>
      <trkpt lat="43.80014" lon="6.24669">
        <ele>509.6</ele>
        <time>2021-09-07T10:23:47.000Z</time>
      </trkpt>
      <trkpt lat="43.80012" lon="6.24665">
        <ele>509.9</ele>
        <time>2021-09-07T10:23:48.000Z</time>
      </trkpt>
      <trkpt lat="43.80013" lon="6.24666">
        <ele>509.8</ele>
        <time>2021-09-07T10:23:49.000Z</time>
      </trkpt>
      <trkpt lat="43.8001" lon="6.24662">
        <ele>509.9</ele>
        <time>2021-09-07T10:23:50.000Z</time>
      </trkpt>
      <trkpt lat="43.80007" lon="6.24657">
        <ele>510.2</ele>
        <time>2021-09-07T10:23:50.000Z</time>
      </trkpt>
      <trkpt lat="43.80003" lon="6.24648">
        <ele>509.9</ele>
        <time>2021-09-07T10:23:52.000Z</time>
      </trkpt>
      <trkpt lat="43.80002" lon="6.24646">
        <ele>510.3</ele>
        <time>2021-09-07T10:23:54.000Z</time>
      </trkpt>
      <trkpt lat="43.79987" lon="6.24623">
        <ele>510.7</ele>
        <time>2021-09-07T10:23:58.000Z</time>
      </trkpt>
      <trkpt lat="43.79984" lon="6.24619">
        <ele>510.8</ele>
        <time>2021-09-07T10:23:59.000Z</time>
      </trkpt>
      <trkpt lat="43.79988" lon="6.24624">
        <ele>510.7</ele>
        <time>2021-09-07T10:23:59.000Z</time>
      </trkpt>
      <trkpt lat="43.79985" lon="6.2462">
        <ele>510.9</ele>
        <time>2021-09-07T10:24:00.000Z</time>
      </trkpt>
      <trkpt lat="43.79981" lon="6.24615">
        <ele>510.6</ele>
        <time>2021-09-07T10:24:00.000Z</time>
      </trkpt>
      <trkpt lat="43.7998" lon="6.24611">
        <ele>510.7</ele>
        <time>2021-09-07T10:24:01.000Z</time>
      </trkpt>
      <trkpt lat="43.79977" lon="6.24607">
        <ele>511</ele>
        <time>2021-09-07T10:24:02.000Z</time>
      </trkpt>
      <trkpt lat="43.79978" lon="6.24609">
        <ele>510.8</ele>
        <time>2021-09-07T10:24:03.000Z</time>
      </trkpt>
      <trkpt lat="43.79975" lon="6.24605">
        <ele>511</ele>
        <time>2021-09-07T10:24:04.000Z</time>
      </trkpt>
      <trkpt lat="43.79956" lon="6.2458">
        <ele>512.6</ele>
        <time>2021-09-07T10:24:09.000Z</time>
      </trkpt>
      <trkpt lat="43.79958" lon="6.24583">
        <ele>512.3</ele>
        <time>2021-09-07T10:24:10.000Z</time>
      </trkpt>
      <trkpt lat="43.79955" lon="6.24579">
        <ele>512.6</ele>
        <time>2021-09-07T10:24:11.000Z</time>
      </trkpt>
      <trkpt lat="43.79942" lon="6.24562">
        <ele>512.4</ele>
        <time>2021-09-07T10:24:13.000Z</time>
      </trkpt>
      <trkpt lat="43.7994" lon="6.24559">
        <ele>512.5</ele>
        <time>2021-09-07T10:24:15.000Z</time>
      </trkpt>
      <trkpt lat="43.79926" lon="6.24541">
        <ele>512.8</ele>
        <time>2021-09-07T10:24:19.000Z</time>
      </trkpt>
      <trkpt lat="43.79927" lon="6.24543">
        <ele>512.8</ele>
        <time>2021-09-07T10:24:20.000Z</time>
      </trkpt>
      <trkpt lat="43.79922" lon="6.24538">
        <ele>512.8</ele>
        <time>2021-09-07T10:24:21.000Z</time>
      </trkpt>
      <trkpt lat="43.79919" lon="6.24535">
        <ele>512.8</ele>
        <time>2021-09-07T10:24:21.000Z</time>
      </trkpt>
      <trkpt lat="43.79917" lon="6.24533">
        <ele>512.9</ele>
        <time>2021-09-07T10:24:23.000Z</time>
      </trkpt>
      <trkpt lat="43.79911" lon="6.24526">
        <ele>513.1</ele>
        <time>2021-09-07T10:24:24.000Z</time>
      </trkpt>
      <trkpt lat="43.79908" lon="6.24522">
        <ele>513.1</ele>
        <time>2021-09-07T10:24:26.000Z</time>
      </trkpt>
      <trkpt lat="43.79902" lon="6.24515">
        <ele>513.4</ele>
        <time>2021-09-07T10:24:27.000Z</time>
      </trkpt>
      <trkpt lat="43.79899" lon="6.24511">
        <ele>513.6</ele>
        <time>2021-09-07T10:24:28.000Z</time>
      </trkpt>
      <trkpt lat="43.79896" lon="6.24508">
        <ele>513.4</ele>
        <time>2021-09-07T10:24:29.000Z</time>
      </trkpt>
      <trkpt lat="43.79893" lon="6.24505">
        <ele>513.6</ele>
        <time>2021-09-07T10:24:31.000Z</time>
      </trkpt>
      <trkpt lat="43.7989" lon="6.24501">
        <ele>513.7</ele>
        <time>2021-09-07T10:24:31.000Z</time>
      </trkpt>
      <trkpt lat="43.79887" lon="6.24499">
        <ele>513.7</ele>
        <time>2021-09-07T10:24:33.000Z</time>
      </trkpt>
      <trkpt lat="43.79879" lon="6.24493">
        <ele>513.9</ele>
        <time>2021-09-07T10:24:34.000Z</time>
      </trkpt>
      <trkpt lat="43.79876" lon="6.24491">
        <ele>514</ele>
        <time>2021-09-07T10:24:36.000Z</time>
      </trkpt>
      <trkpt lat="43.79871" lon="6.24487">
        <ele>514.1</ele>
        <time>2021-09-07T10:24:36.000Z</time>
      </trkpt>
      <trkpt lat="43.79869" lon="6.24485">
        <ele>514.1</ele>
        <time>2021-09-07T10:24:38.000Z</time>
      </trkpt>
      <trkpt lat="43.79864" lon="6.24481">
        <ele>514.2</ele>
        <time>2021-09-07T10:24:38.000Z</time>
      </trkpt>
      <trkpt lat="43.79862" lon="6.24479">
        <ele>514.5</ele>
        <time>2021-09-07T10:24:40.000Z</time>
      </trkpt>
      <trkpt lat="43.79856" lon="6.24474">
        <ele>514.5</ele>
        <time>2021-09-07T10:24:40.000Z</time>
      </trkpt>
      <trkpt lat="43.79851" lon="6.24471">
        <ele>514.7</ele>
        <time>2021-09-07T10:24:41.000Z</time>
      </trkpt>
      <trkpt lat="43.79853" lon="6.24472">
        <ele>514.7</ele>
        <time>2021-09-07T10:24:42.000Z</time>
      </trkpt>
      <trkpt lat="43.79848" lon="6.24469">
        <ele>514.6</ele>
        <time>2021-09-07T10:24:43.000Z</time>
      </trkpt>
      <trkpt lat="43.79844" lon="6.24466">
        <ele>514.5</ele>
        <time>2021-09-07T10:24:43.000Z</time>
      </trkpt>
      <trkpt lat="43.7984" lon="6.24462">
        <ele>514.9</ele>
        <time>2021-09-07T10:24:44.000Z</time>
      </trkpt>
      <trkpt lat="43.79836" lon="6.24459">
        <ele>514.9</ele>
        <time>2021-09-07T10:24:45.000Z</time>
      </trkpt>
      <trkpt lat="43.79841" lon="6.24463">
        <ele>514.7</ele>
        <time>2021-09-07T10:24:45.000Z</time>
      </trkpt>
      <trkpt lat="43.79838" lon="6.24461">
        <ele>515.1</ele>
        <time>2021-09-07T10:24:46.000Z</time>
      </trkpt>
      <trkpt lat="43.79833" lon="6.24457">
        <ele>515</ele>
        <time>2021-09-07T10:24:47.000Z</time>
      </trkpt>
      <trkpt lat="43.79827" lon="6.24452">
        <ele>515</ele>
        <time>2021-09-07T10:24:47.000Z</time>
      </trkpt>
      <trkpt lat="43.79823" lon="6.24449">
        <ele>514.8</ele>
        <time>2021-09-07T10:24:48.000Z</time>
      </trkpt>
      <trkpt lat="43.79818" lon="6.24445">
        <ele>515</ele>
        <time>2021-09-07T10:24:49.000Z</time>
      </trkpt>
      <trkpt lat="43.79824" lon="6.2445">
        <ele>514.9</ele>
        <time>2021-09-07T10:24:49.000Z</time>
      </trkpt>
      <trkpt lat="43.7982" lon="6.24447">
        <ele>515</ele>
        <time>2021-09-07T10:24:50.000Z</time>
      </trkpt>
      <trkpt lat="43.79814" lon="6.24442">
        <ele>514.6</ele>
        <time>2021-09-07T10:24:50.000Z</time>
      </trkpt>
      <trkpt lat="43.79808" lon="6.24438">
        <ele>515.1</ele>
        <time>2021-09-07T10:24:51.000Z</time>
      </trkpt>
      <trkpt lat="43.79803" lon="6.24434">
        <ele>514.8</ele>
        <time>2021-09-07T10:24:52.000Z</time>
      </trkpt>
      <trkpt lat="43.79781" lon="6.24418">
        <ele>514.9</ele>
        <time>2021-09-07T10:24:57.000Z</time>
      </trkpt>
      <trkpt lat="43.79759" lon="6.24401">
        <ele>514.3</ele>
        <time>2021-09-07T10:25:02.000Z</time>
      </trkpt>
      <trkpt lat="43.79736" lon="6.24377">
        <ele>513.9</ele>
        <time>2021-09-07T10:25:07.000Z</time>
      </trkpt>
      <trkpt lat="43.79715" lon="6.24347">
        <ele>513.5</ele>
        <time>2021-09-07T10:25:12.000Z</time>
      </trkpt>
      <trkpt lat="43.79698" lon="6.24309">
        <ele>513.3</ele>
        <time>2021-09-07T10:25:17.000Z</time>
      </trkpt>
      <trkpt lat="43.79688" lon="6.24265">
        <ele>512.8</ele>
        <time>2021-09-07T10:25:22.000Z</time>
      </trkpt>
      <trkpt lat="43.79681" lon="6.24219">
        <ele>512.1</ele>
        <time>2021-09-07T10:25:27.000Z</time>
      </trkpt>
      <trkpt lat="43.79681" lon="6.24169">
        <ele>511.7</ele>
        <time>2021-09-07T10:25:32.000Z</time>
      </trkpt>
      <trkpt lat="43.79687" lon="6.2412">
        <ele>511.2</ele>
        <time>2021-09-07T10:25:37.000Z</time>
      </trkpt>
      <trkpt lat="43.79694" lon="6.24069">
        <ele>510.4</ele>
        <time>2021-09-07T10:25:42.000Z</time>
      </trkpt>
      <trkpt lat="43.79701" lon="6.24018">
        <ele>510.3</ele>
        <time>2021-09-07T10:25:47.000Z</time>
      </trkpt>
      <trkpt lat="43.79708" lon="6.23965">
        <ele>510.1</ele>
        <time>2021-09-07T10:25:52.000Z</time>
      </trkpt>
      <trkpt lat="43.79715" lon="6.23912">
        <ele>509.2</ele>
        <time>2021-09-07T10:25:57.000Z</time>
      </trkpt>
      <trkpt lat="43.79721" lon="6.23857">
        <ele>508.6</ele>
        <time>2021-09-07T10:26:02.000Z</time>
      </trkpt>
      <trkpt lat="43.79722" lon="6.23802">
        <ele>508</ele>
        <time>2021-09-07T10:26:07.000Z</time>
      </trkpt>
      <trkpt lat="43.79705" lon="6.23752">
        <ele>507.6</ele>
        <time>2021-09-07T10:26:12.000Z</time>
      </trkpt>
      <trkpt lat="43.79669" lon="6.23726">
        <ele>506.8</ele>
        <time>2021-09-07T10:26:17.000Z</time>
      </trkpt>
      <trkpt lat="43.7963" lon="6.23711">
        <ele>506.3</ele>
        <time>2021-09-07T10:26:22.000Z</time>
      </trkpt>
      <trkpt lat="43.79589" lon="6.23698">
        <ele>507</ele>
        <time>2021-09-07T10:26:27.000Z</time>
      </trkpt>
      <trkpt lat="43.79558" lon="6.23667">
        <ele>505.7</ele>
        <time>2021-09-07T10:26:32.000Z</time>
      </trkpt>
      <trkpt lat="43.79543" lon="6.23622">
        <ele>506</ele>
        <time>2021-09-07T10:26:37.000Z</time>
      </trkpt>
      <trkpt lat="43.79545" lon="6.23576">
        <ele>505.6</ele>
        <time>2021-09-07T10:26:42.000Z</time>
      </trkpt>
      <trkpt lat="43.79559" lon="6.23525">
        <ele>506.7</ele>
        <time>2021-09-07T10:26:47.000Z</time>
      </trkpt>
      <trkpt lat="43.79571" lon="6.23485">
        <ele>508.6</ele>
        <time>2021-09-07T10:26:52.000Z</time>
      </trkpt>
      <trkpt lat="43.79582" lon="6.23448">
        <ele>508.3</ele>
        <time>2021-09-07T10:26:57.000Z</time>
      </trkpt>
      <trkpt lat="43.79591" lon="6.23411">
        <ele>508.2</ele>
        <time>2021-09-07T10:27:02.000Z</time>
      </trkpt>
      <trkpt lat="43.79593" lon="6.23373">
        <ele>509.2</ele>
        <time>2021-09-07T10:27:07.000Z</time>
      </trkpt>
      <trkpt lat="43.79588" lon="6.23335">
        <ele>508.8</ele>
        <time>2021-09-07T10:27:12.000Z</time>
      </trkpt>
      <trkpt lat="43.79578" lon="6.233">
        <ele>508.5</ele>
        <time>2021-09-07T10:27:17.000Z</time>
      </trkpt>
      <trkpt lat="43.79561" lon="6.23268">
        <ele>509.1</ele>
        <time>2021-09-07T10:27:22.000Z</time>
      </trkpt>
      <trkpt lat="43.7954" lon="6.23244">
        <ele>509</ele>
        <time>2021-09-07T10:27:27.000Z</time>
      </trkpt>
      <trkpt lat="43.79514" lon="6.23228">
        <ele>509.4</ele>
        <time>2021-09-07T10:27:32.000Z</time>
      </trkpt>
      <trkpt lat="43.79487" lon="6.23221">
        <ele>510</ele>
        <time>2021-09-07T10:27:37.000Z</time>
      </trkpt>
      <trkpt lat="43.7946" lon="6.23217">
        <ele>510.1</ele>
        <time>2021-09-07T10:27:42.000Z</time>
      </trkpt>
      <trkpt lat="43.7943" lon="6.23214">
        <ele>510.1</ele>
        <time>2021-09-07T10:27:47.000Z</time>
      </trkpt>
      <trkpt lat="43.79402" lon="6.2321">
        <ele>510.5</ele>
        <time>2021-09-07T10:27:52.000Z</time>
      </trkpt>
      <trkpt lat="43.79373" lon="6.23202">
        <ele>511</ele>
        <time>2021-09-07T10:27:57.000Z</time>
      </trkpt>
      <trkpt lat="43.79347" lon="6.23188">
        <ele>511.2</ele>
        <time>2021-09-07T10:28:02.000Z</time>
      </trkpt>
      <trkpt lat="43.79323" lon="6.23179">
        <ele>511.8</ele>
        <time>2021-09-07T10:28:07.000Z</time>
      </trkpt>
      <trkpt lat="43.79303" lon="6.23194">
        <ele>510.9</ele>
        <time>2021-09-07T10:28:12.000Z</time>
      </trkpt>
      <trkpt lat="43.79286" lon="6.23207">
        <ele>511.3</ele>
        <time>2021-09-07T10:28:17.000Z</time>
      </trkpt>
      <trkpt lat="43.7927" lon="6.23213">
        <ele>512.3</ele>
        <time>2021-09-07T10:28:22.000Z</time>
      </trkpt>
      <trkpt lat="43.79256" lon="6.23218">
        <ele>513</ele>
        <time>2021-09-07T10:28:27.000Z</time>
      </trkpt>
      <trkpt lat="43.79253" lon="6.23221">
        <ele>513.1</ele>
        <time>2021-09-07T10:28:28.000Z</time>
      </trkpt>
      <trkpt lat="43.79251" lon="6.23223">
        <ele>513.4</ele>
        <time>2021-09-07T10:28:29.000Z</time>
      </trkpt>
      <trkpt lat="43.79248" lon="6.23222">
        <ele>513.2</ele>
        <time>2021-09-07T10:28:30.000Z</time>
      </trkpt>
      <trkpt lat="43.79247" lon="6.23222">
        <ele>513.4</ele>
        <time>2021-09-07T10:28:33.000Z</time>
      </trkpt>
      <trkpt lat="43.79237" lon="6.23228">
        <ele>514.4</ele>
        <time>2021-09-07T10:28:35.000Z</time>
      </trkpt>
      <trkpt lat="43.79235" lon="6.23229">
        <ele>514.6</ele>
        <time>2021-09-07T10:28:36.000Z</time>
      </trkpt>
      <trkpt lat="43.79232" lon="6.23233">
        <ele>514.5</ele>
        <time>2021-09-07T10:28:38.000Z</time>
      </trkpt>
      <trkpt lat="43.79236" lon="6.23229">
        <ele>514.6</ele>
        <time>2021-09-07T10:28:38.000Z</time>
      </trkpt>
      <trkpt lat="43.7923" lon="6.23235">
        <ele>514.8</ele>
        <time>2021-09-07T10:28:39.000Z</time>
      </trkpt>
      <trkpt lat="43.79234" lon="6.23231">
        <ele>514.6</ele>
        <time>2021-09-07T10:28:39.000Z</time>
      </trkpt>
      <trkpt lat="43.79231" lon="6.23234">
        <ele>514.8</ele>
        <time>2021-09-07T10:28:41.000Z</time>
      </trkpt>
      <trkpt lat="43.79228" lon="6.23238">
        <ele>515</ele>
        <time>2021-09-07T10:28:42.000Z</time>
      </trkpt>
      <trkpt lat="43.79226" lon="6.23244">
        <ele>515.2</ele>
        <time>2021-09-07T10:28:42.000Z</time>
      </trkpt>
      <trkpt lat="43.79225" lon="6.23253">
        <ele>515.5</ele>
        <time>2021-09-07T10:28:44.000Z</time>
      </trkpt>
      <trkpt lat="43.79225" lon="6.23248">
        <ele>515.3</ele>
        <time>2021-09-07T10:28:45.000Z</time>
      </trkpt>
      <trkpt lat="43.79226" lon="6.23257">
        <ele>515.4</ele>
        <time>2021-09-07T10:28:45.000Z</time>
      </trkpt>
      <trkpt lat="43.79227" lon="6.23261">
        <ele>515.5</ele>
        <time>2021-09-07T10:28:46.000Z</time>
      </trkpt>
      <trkpt lat="43.79228" lon="6.23264">
        <ele>515.8</ele>
        <time>2021-09-07T10:28:47.000Z</time>
      </trkpt>
      <trkpt lat="43.79232" lon="6.23271">
        <ele>516.2</ele>
        <time>2021-09-07T10:28:49.000Z</time>
      </trkpt>
      <trkpt lat="43.79235" lon="6.23273">
        <ele>516.4</ele>
        <time>2021-09-07T10:28:50.000Z</time>
      </trkpt>
      <trkpt lat="43.79238" lon="6.23274">
        <ele>516.5</ele>
        <time>2021-09-07T10:28:51.000Z</time>
      </trkpt>
      <trkpt lat="43.79241" lon="6.23276">
        <ele>516.5</ele>
        <time>2021-09-07T10:28:52.000Z</time>
      </trkpt>
      <trkpt lat="43.79234" lon="6.23273">
        <ele>516.3</ele>
        <time>2021-09-07T10:28:52.000Z</time>
      </trkpt>
      <trkpt lat="43.79236" lon="6.23274">
        <ele>516.5</ele>
        <time>2021-09-07T10:28:53.000Z</time>
      </trkpt>
      <trkpt lat="43.79246" lon="6.23279">
        <ele>516.9</ele>
        <time>2021-09-07T10:28:54.000Z</time>
      </trkpt>
      <trkpt lat="43.79249" lon="6.23279">
        <ele>516.9</ele>
        <time>2021-09-07T10:28:55.000Z</time>
      </trkpt>
      <trkpt lat="43.79255" lon="6.23279">
        <ele>516.9</ele>
        <time>2021-09-07T10:28:57.000Z</time>
      </trkpt>
      <trkpt lat="43.79247" lon="6.23279">
        <ele>516.9</ele>
        <time>2021-09-07T10:28:57.000Z</time>
      </trkpt>
      <trkpt lat="43.79252" lon="6.23278">
        <ele>516.8</ele>
        <time>2021-09-07T10:28:58.000Z</time>
      </trkpt>
      <trkpt lat="43.79257" lon="6.23278">
        <ele>516.9</ele>
        <time>2021-09-07T10:29:00.000Z</time>
      </trkpt>
      <trkpt lat="43.79257" lon="6.23278">
        <ele>516.9</ele>
        <time>2021-09-07T10:29:00.000Z</time>
      </trkpt>
      <trkpt lat="43.7926" lon="6.23278">
        <ele>517</ele>
        <time>2021-09-07T10:29:01.000Z</time>
      </trkpt>
      <trkpt lat="43.79268" lon="6.23278">
        <ele>517.4</ele>
        <time>2021-09-07T10:29:01.000Z</time>
      </trkpt>
      <trkpt lat="43.7927" lon="6.23278">
        <ele>517.5</ele>
        <time>2021-09-07T10:29:04.000Z</time>
      </trkpt>
      <trkpt lat="43.79282" lon="6.23277">
        <ele>517.9</ele>
        <time>2021-09-07T10:29:06.000Z</time>
      </trkpt>
      <trkpt lat="43.79284" lon="6.23278">
        <ele>518.1</ele>
        <time>2021-09-07T10:29:09.000Z</time>
      </trkpt>
      <trkpt lat="43.79294" lon="6.23278">
        <ele>518.6</ele>
        <time>2021-09-07T10:29:10.000Z</time>
      </trkpt>
      <trkpt lat="43.79298" lon="6.23279">
        <ele>518.7</ele>
        <time>2021-09-07T10:29:11.000Z</time>
      </trkpt>
      <trkpt lat="43.793" lon="6.2328">
        <ele>518.7</ele>
        <time>2021-09-07T10:29:12.000Z</time>
      </trkpt>
      <trkpt lat="43.79296" lon="6.23279">
        <ele>518.6</ele>
        <time>2021-09-07T10:29:13.000Z</time>
      </trkpt>
      <trkpt lat="43.79299" lon="6.2328">
        <ele>518.8</ele>
        <time>2021-09-07T10:29:14.000Z</time>
      </trkpt>
      <trkpt lat="43.79302" lon="6.23282">
        <ele>518.8</ele>
        <time>2021-09-07T10:29:15.000Z</time>
      </trkpt>
      <trkpt lat="43.79313" lon="6.23287">
        <ele>519.6</ele>
        <time>2021-09-07T10:29:17.000Z</time>
      </trkpt>
      <trkpt lat="43.79316" lon="6.23287">
        <ele>519.9</ele>
        <time>2021-09-07T10:29:18.000Z</time>
      </trkpt>
      <trkpt lat="43.79324" lon="6.23289">
        <ele>520.6</ele>
        <time>2021-09-07T10:29:21.000Z</time>
      </trkpt>
      <trkpt lat="43.79327" lon="6.2329">
        <ele>520.6</ele>
        <time>2021-09-07T10:29:22.000Z</time>
      </trkpt>
      <trkpt lat="43.79329" lon="6.23291">
        <ele>520.6</ele>
        <time>2021-09-07T10:29:23.000Z</time>
      </trkpt>
      <trkpt lat="43.79322" lon="6.23288">
        <ele>520.6</ele>
        <time>2021-09-07T10:29:23.000Z</time>
      </trkpt>
      <trkpt lat="43.79332" lon="6.23293">
        <ele>520.7</ele>
        <time>2021-09-07T10:29:24.000Z</time>
      </trkpt>
      <trkpt lat="43.79326" lon="6.23289">
        <ele>520.6</ele>
        <time>2021-09-07T10:29:24.000Z</time>
      </trkpt>
      <trkpt lat="43.79328" lon="6.23291">
        <ele>520.6</ele>
        <time>2021-09-07T10:29:25.000Z</time>
      </trkpt>
      <trkpt lat="43.79337" lon="6.23296">
        <ele>521</ele>
        <time>2021-09-07T10:29:26.000Z</time>
      </trkpt>
      <trkpt lat="43.79339" lon="6.23297">
        <ele>521.3</ele>
        <time>2021-09-07T10:29:29.000Z</time>
      </trkpt>
      <trkpt lat="43.79344" lon="6.23301">
        <ele>521.8</ele>
        <time>2021-09-07T10:29:29.000Z</time>
      </trkpt>
      <trkpt lat="43.7935" lon="6.23304">
        <ele>521.9</ele>
        <time>2021-09-07T10:29:31.000Z</time>
      </trkpt>
      <trkpt lat="43.79353" lon="6.23305">
        <ele>522.2</ele>
        <time>2021-09-07T10:29:32.000Z</time>
      </trkpt>
      <trkpt lat="43.79346" lon="6.23302">
        <ele>521.8</ele>
        <time>2021-09-07T10:29:32.000Z</time>
      </trkpt>
      <trkpt lat="43.79352" lon="6.23304">
        <ele>522.1</ele>
        <time>2021-09-07T10:29:34.000Z</time>
      </trkpt>
      <trkpt lat="43.79354" lon="6.23305">
        <ele>522.2</ele>
        <time>2021-09-07T10:29:35.000Z</time>
      </trkpt>
      <trkpt lat="43.79361" lon="6.23307">
        <ele>522.6</ele>
        <time>2021-09-07T10:29:35.000Z</time>
      </trkpt>
      <trkpt lat="43.79362" lon="6.23308">
        <ele>522.6</ele>
        <time>2021-09-07T10:29:38.000Z</time>
      </trkpt>
      <trkpt lat="43.79375" lon="6.23314">
        <ele>523.4</ele>
        <time>2021-09-07T10:29:40.000Z</time>
      </trkpt>
      <trkpt lat="43.79378" lon="6.23315">
        <ele>523.6</ele>
        <time>2021-09-07T10:29:41.000Z</time>
      </trkpt>
      <trkpt lat="43.79378" lon="6.23315">
        <ele>523.5</ele>
        <time>2021-09-07T10:29:43.000Z</time>
      </trkpt>
      <trkpt lat="43.79381" lon="6.23316">
        <ele>523.5</ele>
        <time>2021-09-07T10:29:44.000Z</time>
      </trkpt>
      <trkpt lat="43.79391" lon="6.23321">
        <ele>524</ele>
        <time>2021-09-07T10:29:45.000Z</time>
      </trkpt>
      <trkpt lat="43.79393" lon="6.23322">
        <ele>524.1</ele>
        <time>2021-09-07T10:29:46.000Z</time>
      </trkpt>
      <trkpt lat="43.79396" lon="6.23323">
        <ele>524.4</ele>
        <time>2021-09-07T10:29:47.000Z</time>
      </trkpt>
      <trkpt lat="43.794" lon="6.23323">
        <ele>524.6</ele>
        <time>2021-09-07T10:29:48.000Z</time>
      </trkpt>
      <trkpt lat="43.79393" lon="6.23321">
        <ele>524</ele>
        <time>2021-09-07T10:29:48.000Z</time>
      </trkpt>
      <trkpt lat="43.79395" lon="6.23322">
        <ele>524.3</ele>
        <time>2021-09-07T10:29:49.000Z</time>
      </trkpt>
      <trkpt lat="43.79399" lon="6.23323">
        <ele>524.6</ele>
        <time>2021-09-07T10:29:50.000Z</time>
      </trkpt>
      <trkpt lat="43.79401" lon="6.23324">
        <ele>524.6</ele>
        <time>2021-09-07T10:29:51.000Z</time>
      </trkpt>
      <trkpt lat="43.79408" lon="6.23326">
        <ele>525</ele>
        <time>2021-09-07T10:29:51.000Z</time>
      </trkpt>
      <trkpt lat="43.79411" lon="6.23327">
        <ele>525.2</ele>
        <time>2021-09-07T10:29:54.000Z</time>
      </trkpt>
      <trkpt lat="43.79417" lon="6.23331">
        <ele>525.5</ele>
        <time>2021-09-07T10:29:54.000Z</time>
      </trkpt>
      <trkpt lat="43.7942" lon="6.23332">
        <ele>525.6</ele>
        <time>2021-09-07T10:29:55.000Z</time>
      </trkpt>
      <trkpt lat="43.79419" lon="6.23332">
        <ele>525.5</ele>
        <time>2021-09-07T10:29:57.000Z</time>
      </trkpt>
      <trkpt lat="43.79422" lon="6.23333">
        <ele>525.5</ele>
        <time>2021-09-07T10:29:58.000Z</time>
      </trkpt>
      <trkpt lat="43.79434" lon="6.23338">
        <ele>526.3</ele>
        <time>2021-09-07T10:30:00.000Z</time>
      </trkpt>
      <trkpt lat="43.79437" lon="6.23339">
        <ele>526.6</ele>
        <time>2021-09-07T10:30:01.000Z</time>
      </trkpt>
      <trkpt lat="43.79437" lon="6.23339">
        <ele>526.5</ele>
        <time>2021-09-07T10:30:03.000Z</time>
      </trkpt>
      <trkpt lat="43.7944" lon="6.2334">
        <ele>526.6</ele>
        <time>2021-09-07T10:30:04.000Z</time>
      </trkpt>
      <trkpt lat="43.79452" lon="6.2334">
        <ele>527.2</ele>
        <time>2021-09-07T10:30:06.000Z</time>
      </trkpt>
      <trkpt lat="43.79458" lon="6.23339">
        <ele>527.5</ele>
        <time>2021-09-07T10:30:08.000Z</time>
      </trkpt>
      <trkpt lat="43.79454" lon="6.23339">
        <ele>527.2</ele>
        <time>2021-09-07T10:30:09.000Z</time>
      </trkpt>
      <trkpt lat="43.79464" lon="6.23341">
        <ele>527.2</ele>
        <time>2021-09-07T10:30:10.000Z</time>
      </trkpt>
      <trkpt lat="43.7946" lon="6.23339">
        <ele>527.5</ele>
        <time>2021-09-07T10:30:11.000Z</time>
      </trkpt>
      <trkpt lat="43.79469" lon="6.23346">
        <ele>527.6</ele>
        <time>2021-09-07T10:30:12.000Z</time>
      </trkpt>
      <trkpt lat="43.79465" lon="6.23342">
        <ele>527.2</ele>
        <time>2021-09-07T10:30:13.000Z</time>
      </trkpt>
      <trkpt lat="43.79471" lon="6.23348">
        <ele>527.7</ele>
        <time>2021-09-07T10:30:15.000Z</time>
      </trkpt>
      <trkpt lat="43.79474" lon="6.23357">
        <ele>528.1</ele>
        <time>2021-09-07T10:30:15.000Z</time>
      </trkpt>
      <trkpt lat="43.79476" lon="6.23361">
        <ele>528.2</ele>
        <time>2021-09-07T10:30:16.000Z</time>
      </trkpt>
      <trkpt lat="43.79475" lon="6.2337">
        <ele>528.6</ele>
        <time>2021-09-07T10:30:18.000Z</time>
      </trkpt>
      <trkpt lat="43.79475" lon="6.2336">
        <ele>528</ele>
        <time>2021-09-07T10:30:18.000Z</time>
      </trkpt>
      <trkpt lat="43.79476" lon="6.23364">
        <ele>528.3</ele>
        <time>2021-09-07T10:30:19.000Z</time>
      </trkpt>
      <trkpt lat="43.79473" lon="6.23376">
        <ele>528.8</ele>
        <time>2021-09-07T10:30:20.000Z</time>
      </trkpt>
      <trkpt lat="43.79471" lon="6.23379">
        <ele>529</ele>
        <time>2021-09-07T10:30:21.000Z</time>
      </trkpt>
      <trkpt lat="43.79475" lon="6.23372">
        <ele>528.8</ele>
        <time>2021-09-07T10:30:21.000Z</time>
      </trkpt>
      <trkpt lat="43.79468" lon="6.23381">
        <ele>529.4</ele>
        <time>2021-09-07T10:30:22.000Z</time>
      </trkpt>
      <trkpt lat="43.79466" lon="6.23383">
        <ele>529.4</ele>
        <time>2021-09-07T10:30:23.000Z</time>
      </trkpt>
      <trkpt lat="43.79473" lon="6.23377">
        <ele>528.9</ele>
        <time>2021-09-07T10:30:23.000Z</time>
      </trkpt>
      <trkpt lat="43.7947" lon="6.2338">
        <ele>529</ele>
        <time>2021-09-07T10:30:24.000Z</time>
      </trkpt>
      <trkpt lat="43.79467" lon="6.23382">
        <ele>529.5</ele>
        <time>2021-09-07T10:30:25.000Z</time>
      </trkpt>
      <trkpt lat="43.79463" lon="6.23383">
        <ele>529.6</ele>
        <time>2021-09-07T10:30:26.000Z</time>
      </trkpt>
      <trkpt lat="43.79449" lon="6.23384">
        <ele>530.4</ele>
        <time>2021-09-07T10:30:28.000Z</time>
      </trkpt>
      <trkpt lat="43.79448" lon="6.23383">
        <ele>530.4</ele>
        <time>2021-09-07T10:30:31.000Z</time>
      </trkpt>
      <trkpt lat="43.79432" lon="6.2338">
        <ele>531.1</ele>
        <time>2021-09-07T10:30:33.000Z</time>
      </trkpt>
      <trkpt lat="43.79429" lon="6.23379">
        <ele>531.2</ele>
        <time>2021-09-07T10:30:36.000Z</time>
      </trkpt>
      <trkpt lat="43.79414" lon="6.23376">
        <ele>531.7</ele>
        <time>2021-09-07T10:30:38.000Z</time>
      </trkpt>
      <trkpt lat="43.7941" lon="6.23376">
        <ele>531.8</ele>
        <time>2021-09-07T10:30:39.000Z</time>
      </trkpt>
      <trkpt lat="43.79411" lon="6.23376">
        <ele>531.7</ele>
        <time>2021-09-07T10:30:41.000Z</time>
      </trkpt>
      <trkpt lat="43.79407" lon="6.23376">
        <ele>532.1</ele>
        <time>2021-09-07T10:30:42.000Z</time>
      </trkpt>
      <trkpt lat="43.79388" lon="6.23377">
        <ele>532.7</ele>
        <time>2021-09-07T10:30:45.000Z</time>
      </trkpt>
      <trkpt lat="43.79384" lon="6.23377">
        <ele>533</ele>
        <time>2021-09-07T10:30:46.000Z</time>
      </trkpt>
      <trkpt lat="43.79382" lon="6.23378">
        <ele>533.2</ele>
        <time>2021-09-07T10:30:47.000Z</time>
      </trkpt>
      <trkpt lat="43.79389" lon="6.23377">
        <ele>532.7</ele>
        <time>2021-09-07T10:30:47.000Z</time>
      </trkpt>
      <trkpt lat="43.79386" lon="6.23377">
        <ele>532.9</ele>
        <time>2021-09-07T10:30:48.000Z</time>
      </trkpt>
      <trkpt lat="43.79371" lon="6.23379">
        <ele>533.3</ele>
        <time>2021-09-07T10:30:50.000Z</time>
      </trkpt>
      <trkpt lat="43.79367" lon="6.2338">
        <ele>533.6</ele>
        <time>2021-09-07T10:30:51.000Z</time>
      </trkpt>
      <trkpt lat="43.79364" lon="6.23381">
        <ele>533.8</ele>
        <time>2021-09-07T10:30:52.000Z</time>
      </trkpt>
      <trkpt lat="43.79369" lon="6.2338">
        <ele>533.4</ele>
        <time>2021-09-07T10:30:53.000Z</time>
      </trkpt>
      <trkpt lat="43.79354" lon="6.23384">
        <ele>534.1</ele>
        <time>2021-09-07T10:30:55.000Z</time>
      </trkpt>
      <trkpt lat="43.79351" lon="6.23384">
        <ele>534.5</ele>
        <time>2021-09-07T10:30:56.000Z</time>
      </trkpt>
      <trkpt lat="43.79345" lon="6.23385">
        <ele>534.7</ele>
        <time>2021-09-07T10:30:58.000Z</time>
      </trkpt>
      <trkpt lat="43.79353" lon="6.23384">
        <ele>534.4</ele>
        <time>2021-09-07T10:30:58.000Z</time>
      </trkpt>
      <trkpt lat="43.79342" lon="6.23386">
        <ele>534.9</ele>
        <time>2021-09-07T10:30:59.000Z</time>
      </trkpt>
      <trkpt lat="43.7935" lon="6.23385">
        <ele>534.6</ele>
        <time>2021-09-07T10:30:59.000Z</time>
      </trkpt>
      <trkpt lat="43.79339" lon="6.23387">
        <ele>534.9</ele>
        <time>2021-09-07T10:31:00.000Z</time>
      </trkpt>
      <trkpt lat="43.79344" lon="6.23386">
        <ele>534.9</ele>
        <time>2021-09-07T10:31:01.000Z</time>
      </trkpt>
      <trkpt lat="43.7934" lon="6.23387">
        <ele>534.9</ele>
        <time>2021-09-07T10:31:02.000Z</time>
      </trkpt>
      <trkpt lat="43.79338" lon="6.23387">
        <ele>535.1</ele>
        <time>2021-09-07T10:31:03.000Z</time>
      </trkpt>
      <trkpt lat="43.79338" lon="6.23387">
        <ele>535.1</ele>
        <time>2021-09-07T10:31:03.000Z</time>
      </trkpt>
      <trkpt lat="43.79332" lon="6.23388">
        <ele>535.3</ele>
        <time>2021-09-07T10:31:04.000Z</time>
      </trkpt>
      <trkpt lat="43.79328" lon="6.23389">
        <ele>535.5</ele>
        <time>2021-09-07T10:31:06.000Z</time>
      </trkpt>
      <trkpt lat="43.79317" lon="6.23392">
        <ele>536.4</ele>
        <time>2021-09-07T10:31:07.000Z</time>
      </trkpt>
      <trkpt lat="43.79312" lon="6.23394">
        <ele>536.7</ele>
        <time>2021-09-07T10:31:09.000Z</time>
      </trkpt>
      <trkpt lat="43.79315" lon="6.23393">
        <ele>536.7</ele>
        <time>2021-09-07T10:31:10.000Z</time>
      </trkpt>
      <trkpt lat="43.7931" lon="6.23395">
        <ele>536.8</ele>
        <time>2021-09-07T10:31:12.000Z</time>
      </trkpt>
      <trkpt lat="43.79302" lon="6.23397">
        <ele>537.2</ele>
        <time>2021-09-07T10:31:12.000Z</time>
      </trkpt>
      <trkpt lat="43.793" lon="6.23398">
        <ele>537.4</ele>
        <time>2021-09-07T10:31:15.000Z</time>
      </trkpt>
      <trkpt lat="43.79291" lon="6.23402">
        <ele>537.7</ele>
        <time>2021-09-07T10:31:16.000Z</time>
      </trkpt>
      <trkpt lat="43.79289" lon="6.23403">
        <ele>538.1</ele>
        <time>2021-09-07T10:31:17.000Z</time>
      </trkpt>
      <trkpt lat="43.7928" lon="6.23406">
        <ele>538.3</ele>
        <time>2021-09-07T10:31:20.000Z</time>
      </trkpt>
      <trkpt lat="43.79282" lon="6.23406">
        <ele>538.5</ele>
        <time>2021-09-07T10:31:22.000Z</time>
      </trkpt>
      <trkpt lat="43.79277" lon="6.23407">
        <ele>538.5</ele>
        <time>2021-09-07T10:31:23.000Z</time>
      </trkpt>
      <trkpt lat="43.79271" lon="6.2341">
        <ele>538.8</ele>
        <time>2021-09-07T10:31:23.000Z</time>
      </trkpt>
      <trkpt lat="43.79269" lon="6.23411">
        <ele>539</ele>
        <time>2021-09-07T10:31:24.000Z</time>
      </trkpt>
      <trkpt lat="43.7927" lon="6.2341">
        <ele>538.9</ele>
        <time>2021-09-07T10:31:26.000Z</time>
      </trkpt>
      <trkpt lat="43.79266" lon="6.23412">
        <ele>539.3</ele>
        <time>2021-09-07T10:31:27.000Z</time>
      </trkpt>
      <trkpt lat="43.79259" lon="6.23415">
        <ele>539.7</ele>
        <time>2021-09-07T10:31:28.000Z</time>
      </trkpt>
      <trkpt lat="43.79256" lon="6.23416">
        <ele>539.9</ele>
        <time>2021-09-07T10:31:29.000Z</time>
      </trkpt>
      <trkpt lat="43.79253" lon="6.23417">
        <ele>539.8</ele>
        <time>2021-09-07T10:31:30.000Z</time>
      </trkpt>
      <trkpt lat="43.79258" lon="6.23416">
        <ele>539.8</ele>
        <time>2021-09-07T10:31:31.000Z</time>
      </trkpt>
      <trkpt lat="43.79244" lon="6.23421">
        <ele>540.3</ele>
        <time>2021-09-07T10:31:33.000Z</time>
      </trkpt>
      <trkpt lat="43.79241" lon="6.23423">
        <ele>540.3</ele>
        <time>2021-09-07T10:31:34.000Z</time>
      </trkpt>
      <trkpt lat="43.79238" lon="6.23424">
        <ele>540.4</ele>
        <time>2021-09-07T10:31:35.000Z</time>
      </trkpt>
      <trkpt lat="43.79242" lon="6.23422">
        <ele>540.3</ele>
        <time>2021-09-07T10:31:36.000Z</time>
      </trkpt>
      <trkpt lat="43.79235" lon="6.23426">
        <ele>540.9</ele>
        <time>2021-09-07T10:31:36.000Z</time>
      </trkpt>
      <trkpt lat="43.79228" lon="6.23429">
        <ele>541.3</ele>
        <time>2021-09-07T10:31:38.000Z</time>
      </trkpt>
      <trkpt lat="43.79232" lon="6.23427">
        <ele>541</ele>
        <time>2021-09-07T10:31:39.000Z</time>
      </trkpt>
      <trkpt lat="43.79225" lon="6.2343">
        <ele>541.4</ele>
        <time>2021-09-07T10:31:39.000Z</time>
      </trkpt>
      <trkpt lat="43.79212" lon="6.23434">
        <ele>542.2</ele>
        <time>2021-09-07T10:31:43.000Z</time>
      </trkpt>
      <trkpt lat="43.79217" lon="6.23432">
        <ele>541.9</ele>
        <time>2021-09-07T10:31:44.000Z</time>
      </trkpt>
      <trkpt lat="43.79206" lon="6.23436">
        <ele>542.5</ele>
        <time>2021-09-07T10:31:45.000Z</time>
      </trkpt>
      <trkpt lat="43.79203" lon="6.23436">
        <ele>542.8</ele>
        <time>2021-09-07T10:31:46.000Z</time>
      </trkpt>
      <trkpt lat="43.7921" lon="6.23434">
        <ele>542.2</ele>
        <time>2021-09-07T10:31:46.000Z</time>
      </trkpt>
      <trkpt lat="43.79199" lon="6.23437">
        <ele>542.9</ele>
        <time>2021-09-07T10:31:47.000Z</time>
      </trkpt>
      <trkpt lat="43.79196" lon="6.23438">
        <ele>543.2</ele>
        <time>2021-09-07T10:31:48.000Z</time>
      </trkpt>
      <trkpt lat="43.79205" lon="6.23436">
        <ele>542.7</ele>
        <time>2021-09-07T10:31:48.000Z</time>
      </trkpt>
      <trkpt lat="43.79202" lon="6.23437">
        <ele>542.9</ele>
        <time>2021-09-07T10:31:49.000Z</time>
      </trkpt>
      <trkpt lat="43.7919" lon="6.23439">
        <ele>543.8</ele>
        <time>2021-09-07T10:31:50.000Z</time>
      </trkpt>
      <trkpt lat="43.79197" lon="6.23437">
        <ele>543</ele>
        <time>2021-09-07T10:31:50.000Z</time>
      </trkpt>
      <trkpt lat="43.79187" lon="6.23441">
        <ele>544.2</ele>
        <time>2021-09-07T10:31:51.000Z</time>
      </trkpt>
      <trkpt lat="43.79194" lon="6.23438">
        <ele>543.7</ele>
        <time>2021-09-07T10:31:51.000Z</time>
      </trkpt>
      <trkpt lat="43.79185" lon="6.23443">
        <ele>544.9</ele>
        <time>2021-09-07T10:31:52.000Z</time>
      </trkpt>
      <trkpt lat="43.79188" lon="6.2344">
        <ele>544</ele>
        <time>2021-09-07T10:31:53.000Z</time>
      </trkpt>
      <trkpt lat="43.79181" lon="6.23447">
        <ele>546</ele>
        <time>2021-09-07T10:31:54.000Z</time>
      </trkpt>
      <trkpt lat="43.79185" lon="6.23442">
        <ele>544.6</ele>
        <time>2021-09-07T10:31:54.000Z</time>
      </trkpt>
      <trkpt lat="43.7918" lon="6.2345">
        <ele>545.7</ele>
        <time>2021-09-07T10:31:55.000Z</time>
      </trkpt>
      <trkpt lat="43.79183" lon="6.23444">
        <ele>545.1</ele>
        <time>2021-09-07T10:31:55.000Z</time>
      </trkpt>
      <trkpt lat="43.79179" lon="6.23452">
        <ele>545.7</ele>
        <time>2021-09-07T10:31:56.000Z</time>
      </trkpt>
      <trkpt lat="43.7918" lon="6.23448">
        <ele>545.8</ele>
        <time>2021-09-07T10:31:57.000Z</time>
      </trkpt>
      <trkpt lat="43.7918" lon="6.23457">
        <ele>545.6</ele>
        <time>2021-09-07T10:31:58.000Z</time>
      </trkpt>
      <trkpt lat="43.79179" lon="6.23451">
        <ele>545.6</ele>
        <time>2021-09-07T10:31:58.000Z</time>
      </trkpt>
      <trkpt lat="43.79179" lon="6.23455">
        <ele>545.8</ele>
        <time>2021-09-07T10:31:59.000Z</time>
      </trkpt>
      <trkpt lat="43.7918" lon="6.23465">
        <ele>544.9</ele>
        <time>2021-09-07T10:32:00.000Z</time>
      </trkpt>
      <trkpt lat="43.7918" lon="6.2346">
        <ele>545.4</ele>
        <time>2021-09-07T10:32:01.000Z</time>
      </trkpt>
      <trkpt lat="43.7918" lon="6.23468">
        <ele>545.2</ele>
        <time>2021-09-07T10:32:03.000Z</time>
      </trkpt>
      <trkpt lat="43.7918" lon="6.23468">
        <ele>545.2</ele>
        <time>2021-09-07T10:32:03.000Z</time>
      </trkpt>
      <trkpt lat="43.7918" lon="6.23471">
        <ele>545.4</ele>
        <time>2021-09-07T10:32:04.000Z</time>
      </trkpt>
      <trkpt lat="43.79179" lon="6.23486">
        <ele>545.4</ele>
        <time>2021-09-07T10:32:05.000Z</time>
      </trkpt>
      <trkpt lat="43.7918" lon="6.23476">
        <ele>545.5</ele>
        <time>2021-09-07T10:32:05.000Z</time>
      </trkpt>
      <trkpt lat="43.79179" lon="6.2349">
        <ele>545.4</ele>
        <time>2021-09-07T10:32:06.000Z</time>
      </trkpt>
      <trkpt lat="43.7918" lon="6.2348">
        <ele>545.6</ele>
        <time>2021-09-07T10:32:06.000Z</time>
      </trkpt>
      <trkpt lat="43.79179" lon="6.23488">
        <ele>545.3</ele>
        <time>2021-09-07T10:32:08.000Z</time>
      </trkpt>
      <trkpt lat="43.79179" lon="6.23491">
        <ele>545.6</ele>
        <time>2021-09-07T10:32:09.000Z</time>
      </trkpt>
      <trkpt lat="43.7917" lon="6.23505">
        <ele>547.2</ele>
        <time>2021-09-07T10:32:13.000Z</time>
      </trkpt>
      <trkpt lat="43.79168" lon="6.23506">
        <ele>547.3</ele>
        <time>2021-09-07T10:32:14.000Z</time>
      </trkpt>
      <trkpt lat="43.79173" lon="6.23503">
        <ele>547.1</ele>
        <time>2021-09-07T10:32:14.000Z</time>
      </trkpt>
      <trkpt lat="43.79168" lon="6.23506">
        <ele>547.3</ele>
        <time>2021-09-07T10:32:16.000Z</time>
      </trkpt>
      <trkpt lat="43.79166" lon="6.23507">
        <ele>547.2</ele>
        <time>2021-09-07T10:32:17.000Z</time>
      </trkpt>
      <trkpt lat="43.79161" lon="6.2351">
        <ele>547.4</ele>
        <time>2021-09-07T10:32:17.000Z</time>
      </trkpt>
      <trkpt lat="43.7916" lon="6.23511">
        <ele>547.3</ele>
        <time>2021-09-07T10:32:20.000Z</time>
      </trkpt>
      <trkpt lat="43.79152" lon="6.23514">
        <ele>547.8</ele>
        <time>2021-09-07T10:32:21.000Z</time>
      </trkpt>
      <trkpt lat="43.79149" lon="6.23515">
        <ele>547.8</ele>
        <time>2021-09-07T10:32:22.000Z</time>
      </trkpt>
      <trkpt lat="43.79151" lon="6.23514">
        <ele>547.8</ele>
        <time>2021-09-07T10:32:24.000Z</time>
      </trkpt>
      <trkpt lat="43.79148" lon="6.23515">
        <ele>547.8</ele>
        <time>2021-09-07T10:32:25.000Z</time>
      </trkpt>
      <trkpt lat="43.79141" lon="6.23518">
        <ele>548.1</ele>
        <time>2021-09-07T10:32:25.000Z</time>
      </trkpt>
      <trkpt lat="43.79138" lon="6.23519">
        <ele>548.3</ele>
        <time>2021-09-07T10:32:26.000Z</time>
      </trkpt>
      <trkpt lat="43.79135" lon="6.2352">
        <ele>548.3</ele>
        <time>2021-09-07T10:32:27.000Z</time>
      </trkpt>
      <trkpt lat="43.79132" lon="6.23521">
        <ele>548.3</ele>
        <time>2021-09-07T10:32:28.000Z</time>
      </trkpt>
      <trkpt lat="43.7914" lon="6.23518">
        <ele>548.2</ele>
        <time>2021-09-07T10:32:28.000Z</time>
      </trkpt>
      <trkpt lat="43.79137" lon="6.2352">
        <ele>548.3</ele>
        <time>2021-09-07T10:32:29.000Z</time>
      </trkpt>
      <trkpt lat="43.79123" lon="6.23524">
        <ele>549.2</ele>
        <time>2021-09-07T10:32:32.000Z</time>
      </trkpt>
      <trkpt lat="43.79124" lon="6.23523">
        <ele>549.2</ele>
        <time>2021-09-07T10:32:34.000Z</time>
      </trkpt>
      <trkpt lat="43.79122" lon="6.23525">
        <ele>549.2</ele>
        <time>2021-09-07T10:32:35.000Z</time>
      </trkpt>
      <trkpt lat="43.79115" lon="6.2353">
        <ele>549.8</ele>
        <time>2021-09-07T10:32:36.000Z</time>
      </trkpt>
      <trkpt lat="43.79113" lon="6.23532">
        <ele>549.8</ele>
        <time>2021-09-07T10:32:37.000Z</time>
      </trkpt>
      <trkpt lat="43.79111" lon="6.23534">
        <ele>549.9</ele>
        <time>2021-09-07T10:32:38.000Z</time>
      </trkpt>
      <trkpt lat="43.79114" lon="6.23531">
        <ele>549.8</ele>
        <time>2021-09-07T10:32:39.000Z</time>
      </trkpt>
      <trkpt lat="43.79105" lon="6.23538">
        <ele>550.1</ele>
        <time>2021-09-07T10:32:41.000Z</time>
      </trkpt>
      <trkpt lat="43.79103" lon="6.2354">
        <ele>550.3</ele>
        <time>2021-09-07T10:32:42.000Z</time>
      </trkpt>
      <trkpt lat="43.791" lon="6.23542">
        <ele>550.4</ele>
        <time>2021-09-07T10:32:43.000Z</time>
      </trkpt>
      <trkpt lat="43.79098" lon="6.23544">
        <ele>550.7</ele>
        <time>2021-09-07T10:32:44.000Z</time>
      </trkpt>
      <trkpt lat="43.79104" lon="6.23539">
        <ele>550.2</ele>
        <time>2021-09-07T10:32:44.000Z</time>
      </trkpt>
      <trkpt lat="43.79101" lon="6.23541">
        <ele>550.4</ele>
        <time>2021-09-07T10:32:45.000Z</time>
      </trkpt>
      <trkpt lat="43.79099" lon="6.23543">
        <ele>550.5</ele>
        <time>2021-09-07T10:32:46.000Z</time>
      </trkpt>
      <trkpt lat="43.79096" lon="6.23545">
        <ele>550.7</ele>
        <time>2021-09-07T10:32:47.000Z</time>
      </trkpt>
      <trkpt lat="43.79089" lon="6.2355">
        <ele>551</ele>
        <time>2021-09-07T10:32:48.000Z</time>
      </trkpt>
      <trkpt lat="43.79086" lon="6.23551">
        <ele>551.6</ele>
        <time>2021-09-07T10:32:49.000Z</time>
      </trkpt>
      <trkpt lat="43.79083" lon="6.23552">
        <ele>551.4</ele>
        <time>2021-09-07T10:32:50.000Z</time>
      </trkpt>
      <trkpt lat="43.79087" lon="6.2355">
        <ele>551.4</ele>
        <time>2021-09-07T10:32:51.000Z</time>
      </trkpt>
      <trkpt lat="43.79084" lon="6.23551">
        <ele>551.5</ele>
        <time>2021-09-07T10:32:52.000Z</time>
      </trkpt>
      <trkpt lat="43.79081" lon="6.23553">
        <ele>551.6</ele>
        <time>2021-09-07T10:32:53.000Z</time>
      </trkpt>
      <trkpt lat="43.79074" lon="6.23555">
        <ele>551.9</ele>
        <time>2021-09-07T10:32:53.000Z</time>
      </trkpt>
      <trkpt lat="43.79068" lon="6.23556">
        <ele>552.4</ele>
        <time>2021-09-07T10:32:55.000Z</time>
      </trkpt>
      <trkpt lat="43.79071" lon="6.23556">
        <ele>552</ele>
        <time>2021-09-07T10:32:56.000Z</time>
      </trkpt>
      <trkpt lat="43.79066" lon="6.23557">
        <ele>552.5</ele>
        <time>2021-09-07T10:32:58.000Z</time>
      </trkpt>
      <trkpt lat="43.79056" lon="6.23561">
        <ele>552.9</ele>
        <time>2021-09-07T10:32:59.000Z</time>
      </trkpt>
      <trkpt lat="43.79053" lon="6.23561">
        <ele>553</ele>
        <time>2021-09-07T10:33:00.000Z</time>
      </trkpt>
      <trkpt lat="43.7905" lon="6.23562">
        <ele>553.2</ele>
        <time>2021-09-07T10:33:01.000Z</time>
      </trkpt>
      <trkpt lat="43.79054" lon="6.23561">
        <ele>552.9</ele>
        <time>2021-09-07T10:33:02.000Z</time>
      </trkpt>
      <trkpt lat="43.79051" lon="6.23562">
        <ele>553.1</ele>
        <time>2021-09-07T10:33:03.000Z</time>
      </trkpt>
      <trkpt lat="43.79047" lon="6.23562">
        <ele>553.4</ele>
        <time>2021-09-07T10:33:04.000Z</time>
      </trkpt>
      <trkpt lat="43.79041" lon="6.23564">
        <ele>553.5</ele>
        <time>2021-09-07T10:33:04.000Z</time>
      </trkpt>
      <trkpt lat="43.79038" lon="6.23564">
        <ele>553.6</ele>
        <time>2021-09-07T10:33:05.000Z</time>
      </trkpt>
      <trkpt lat="43.79031" lon="6.23566">
        <ele>553.8</ele>
        <time>2021-09-07T10:33:07.000Z</time>
      </trkpt>
      <trkpt lat="43.79039" lon="6.23564">
        <ele>553.4</ele>
        <time>2021-09-07T10:33:07.000Z</time>
      </trkpt>
      <trkpt lat="43.79035" lon="6.23565">
        <ele>553.9</ele>
        <time>2021-09-07T10:33:08.000Z</time>
      </trkpt>
      <trkpt lat="43.79025" lon="6.23567">
        <ele>554.1</ele>
        <time>2021-09-07T10:33:09.000Z</time>
      </trkpt>
      <trkpt lat="43.79022" lon="6.23568">
        <ele>554.3</ele>
        <time>2021-09-07T10:33:10.000Z</time>
      </trkpt>
      <trkpt lat="43.79029" lon="6.23567">
        <ele>553.8</ele>
        <time>2021-09-07T10:33:10.000Z</time>
      </trkpt>
      <trkpt lat="43.79024" lon="6.23567">
        <ele>554.3</ele>
        <time>2021-09-07T10:33:12.000Z</time>
      </trkpt>
      <trkpt lat="43.79019" lon="6.23568">
        <ele>554.5</ele>
        <time>2021-09-07T10:33:13.000Z</time>
      </trkpt>
      <trkpt lat="43.79012" lon="6.23568">
        <ele>554.6</ele>
        <time>2021-09-07T10:33:13.000Z</time>
      </trkpt>
      <trkpt lat="43.79003" lon="6.23568">
        <ele>554.8</ele>
        <time>2021-09-07T10:33:15.000Z</time>
      </trkpt>
      <trkpt lat="43.78999" lon="6.23568">
        <ele>555</ele>
        <time>2021-09-07T10:33:16.000Z</time>
      </trkpt>
      <trkpt lat="43.79009" lon="6.23568">
        <ele>554.6</ele>
        <time>2021-09-07T10:33:16.000Z</time>
      </trkpt>
      <trkpt lat="43.78992" lon="6.23569">
        <ele>555.3</ele>
        <time>2021-09-07T10:33:18.000Z</time>
      </trkpt>
      <trkpt lat="43.79" lon="6.23568">
        <ele>555</ele>
        <time>2021-09-07T10:33:18.000Z</time>
      </trkpt>
      <trkpt lat="43.78996" lon="6.23568">
        <ele>555.1</ele>
        <time>2021-09-07T10:33:19.000Z</time>
      </trkpt>
      <trkpt lat="43.78984" lon="6.23569">
        <ele>555.9</ele>
        <time>2021-09-07T10:33:20.000Z</time>
      </trkpt>
      <trkpt lat="43.78981" lon="6.23569">
        <ele>555.9</ele>
        <time>2021-09-07T10:33:21.000Z</time>
      </trkpt>
      <trkpt lat="43.78988" lon="6.23569">
        <ele>555.5</ele>
        <time>2021-09-07T10:33:21.000Z</time>
      </trkpt>
      <trkpt lat="43.78978" lon="6.2357">
        <ele>556</ele>
        <time>2021-09-07T10:33:22.000Z</time>
      </trkpt>
      <trkpt lat="43.78975" lon="6.23571">
        <ele>556</ele>
        <time>2021-09-07T10:33:23.000Z</time>
      </trkpt>
      <trkpt lat="43.78983" lon="6.23569">
        <ele>556</ele>
        <time>2021-09-07T10:33:23.000Z</time>
      </trkpt>
      <trkpt lat="43.78979" lon="6.2357">
        <ele>555.9</ele>
        <time>2021-09-07T10:33:24.000Z</time>
      </trkpt>
      <trkpt lat="43.78964" lon="6.23571">
        <ele>556.6</ele>
        <time>2021-09-07T10:33:26.000Z</time>
      </trkpt>
      <trkpt lat="43.7896" lon="6.23572">
        <ele>556.6</ele>
        <time>2021-09-07T10:33:27.000Z</time>
      </trkpt>
      <trkpt lat="43.78957" lon="6.23572">
        <ele>556.7</ele>
        <time>2021-09-07T10:33:28.000Z</time>
      </trkpt>
      <trkpt lat="43.78962" lon="6.23571">
        <ele>556.6</ele>
        <time>2021-09-07T10:33:29.000Z</time>
      </trkpt>
      <trkpt lat="43.78958" lon="6.23572">
        <ele>556.7</ele>
        <time>2021-09-07T10:33:30.000Z</time>
      </trkpt>
      <trkpt lat="43.78954" lon="6.23572">
        <ele>556.7</ele>
        <time>2021-09-07T10:33:31.000Z</time>
      </trkpt>
      <trkpt lat="43.78943" lon="6.23573">
        <ele>557.2</ele>
        <time>2021-09-07T10:33:33.000Z</time>
      </trkpt>
      <trkpt lat="43.7894" lon="6.23573">
        <ele>557.2</ele>
        <time>2021-09-07T10:33:34.000Z</time>
      </trkpt>
      <trkpt lat="43.78935" lon="6.23574">
        <ele>557.6</ele>
        <time>2021-09-07T10:33:36.000Z</time>
      </trkpt>
      <trkpt lat="43.78941" lon="6.23573">
        <ele>557.1</ele>
        <time>2021-09-07T10:33:36.000Z</time>
      </trkpt>
      <trkpt lat="43.78938" lon="6.23573">
        <ele>557.4</ele>
        <time>2021-09-07T10:33:37.000Z</time>
      </trkpt>
      <trkpt lat="43.78929" lon="6.23575">
        <ele>557.6</ele>
        <time>2021-09-07T10:33:38.000Z</time>
      </trkpt>
      <trkpt lat="43.78933" lon="6.23574">
        <ele>557.6</ele>
        <time>2021-09-07T10:33:39.000Z</time>
      </trkpt>
      <trkpt lat="43.78927" lon="6.23576">
        <ele>557.8</ele>
        <time>2021-09-07T10:33:41.000Z</time>
      </trkpt>
      <trkpt lat="43.78919" lon="6.23578">
        <ele>558.5</ele>
        <time>2021-09-07T10:33:42.000Z</time>
      </trkpt>
      <trkpt lat="43.78913" lon="6.2358">
        <ele>558.6</ele>
        <time>2021-09-07T10:33:44.000Z</time>
      </trkpt>
      <trkpt lat="43.78911" lon="6.23581">
        <ele>558.6</ele>
        <time>2021-09-07T10:33:45.000Z</time>
      </trkpt>
      <trkpt lat="43.78918" lon="6.23578">
        <ele>558.4</ele>
        <time>2021-09-07T10:33:45.000Z</time>
      </trkpt>
      <trkpt lat="43.78905" lon="6.23583">
        <ele>558.5</ele>
        <time>2021-09-07T10:33:47.000Z</time>
      </trkpt>
      <trkpt lat="43.78911" lon="6.23581">
        <ele>558.6</ele>
        <time>2021-09-07T10:33:47.000Z</time>
      </trkpt>
      <trkpt lat="43.78909" lon="6.23582">
        <ele>558.6</ele>
        <time>2021-09-07T10:33:48.000Z</time>
      </trkpt>
      <trkpt lat="43.78904" lon="6.23583">
        <ele>558.5</ele>
        <time>2021-09-07T10:33:50.000Z</time>
      </trkpt>
      <trkpt lat="43.7889" lon="6.2359">
        <ele>559.1</ele>
        <time>2021-09-07T10:33:52.000Z</time>
      </trkpt>
      <trkpt lat="43.78885" lon="6.23592">
        <ele>559.4</ele>
        <time>2021-09-07T10:33:54.000Z</time>
      </trkpt>
      <trkpt lat="43.78889" lon="6.2359">
        <ele>559.2</ele>
        <time>2021-09-07T10:33:55.000Z</time>
      </trkpt>
      <trkpt lat="43.78883" lon="6.23593">
        <ele>559.8</ele>
        <time>2021-09-07T10:33:55.000Z</time>
      </trkpt>
      <trkpt lat="43.7888" lon="6.23593">
        <ele>559.6</ele>
        <time>2021-09-07T10:33:56.000Z</time>
      </trkpt>
      <trkpt lat="43.78879" lon="6.23593">
        <ele>559.8</ele>
        <time>2021-09-07T10:33:59.000Z</time>
      </trkpt>
      <trkpt lat="43.78867" lon="6.23589">
        <ele>560.7</ele>
        <time>2021-09-07T10:34:04.000Z</time>
      </trkpt>
      <trkpt lat="43.78867" lon="6.23589">
        <ele>560.7</ele>
        <time>2021-09-07T10:34:04.000Z</time>
      </trkpt>
      <trkpt lat="43.78856" lon="6.23579">
        <ele>561.2</ele>
        <time>2021-09-07T10:34:05.000Z</time>
      </trkpt>
      <trkpt lat="43.78863" lon="6.23586">
        <ele>560.8</ele>
        <time>2021-09-07T10:34:05.000Z</time>
      </trkpt>
      <trkpt lat="43.78852" lon="6.23575">
        <ele>561.7</ele>
        <time>2021-09-07T10:34:06.000Z</time>
      </trkpt>
      <trkpt lat="43.7886" lon="6.23583">
        <ele>561.1</ele>
        <time>2021-09-07T10:34:06.000Z</time>
      </trkpt>
      <trkpt lat="43.78857" lon="6.2358">
        <ele>561.2</ele>
        <time>2021-09-07T10:34:07.000Z</time>
      </trkpt>
      <trkpt lat="43.78847" lon="6.23568">
        <ele>561.7</ele>
        <time>2021-09-07T10:34:08.000Z</time>
      </trkpt>
      <trkpt lat="43.78854" lon="6.23576">
        <ele>561.5</ele>
        <time>2021-09-07T10:34:08.000Z</time>
      </trkpt>
      <trkpt lat="43.78851" lon="6.23573">
        <ele>561.6</ele>
        <time>2021-09-07T10:34:09.000Z</time>
      </trkpt>
      <trkpt lat="43.78846" lon="6.23566">
        <ele>561.8</ele>
        <time>2021-09-07T10:34:11.000Z</time>
      </trkpt>
      <trkpt lat="43.78833" lon="6.23543">
        <ele>562.6</ele>
        <time>2021-09-07T10:34:15.000Z</time>
      </trkpt>
      <trkpt lat="43.78831" lon="6.23541">
        <ele>562.7</ele>
        <time>2021-09-07T10:34:16.000Z</time>
      </trkpt>
      <trkpt lat="43.78836" lon="6.23548">
        <ele>562.5</ele>
        <time>2021-09-07T10:34:16.000Z</time>
      </trkpt>
      <trkpt lat="43.78828" lon="6.23539">
        <ele>562.9</ele>
        <time>2021-09-07T10:34:17.000Z</time>
      </trkpt>
      <trkpt lat="43.78826" lon="6.23538">
        <ele>563.2</ele>
        <time>2021-09-07T10:34:18.000Z</time>
      </trkpt>
      <trkpt lat="43.78831" lon="6.23542">
        <ele>562.5</ele>
        <time>2021-09-07T10:34:18.000Z</time>
      </trkpt>
      <trkpt lat="43.78829" lon="6.2354">
        <ele>562.8</ele>
        <time>2021-09-07T10:34:19.000Z</time>
      </trkpt>
      <trkpt lat="43.78821" lon="6.23536">
        <ele>563.4</ele>
        <time>2021-09-07T10:34:20.000Z</time>
      </trkpt>
      <trkpt lat="43.78818" lon="6.23535">
        <ele>563.6</ele>
        <time>2021-09-07T10:34:21.000Z</time>
      </trkpt>
      <trkpt lat="43.78815" lon="6.23534">
        <ele>563.7</ele>
        <time>2021-09-07T10:34:22.000Z</time>
      </trkpt>
      <trkpt lat="43.78814" lon="6.23534">
        <ele>563.8</ele>
        <time>2021-09-07T10:34:25.000Z</time>
      </trkpt>
      <trkpt lat="43.7881" lon="6.23533">
        <ele>563.8</ele>
        <time>2021-09-07T10:34:25.000Z</time>
      </trkpt>
      <trkpt lat="43.78807" lon="6.23533">
        <ele>564.1</ele>
        <time>2021-09-07T10:34:26.000Z</time>
      </trkpt>
      <trkpt lat="43.78805" lon="6.23534">
        <ele>564.3</ele>
        <time>2021-09-07T10:34:27.000Z</time>
      </trkpt>
      <trkpt lat="43.78802" lon="6.23536">
        <ele>564.3</ele>
        <time>2021-09-07T10:34:28.000Z</time>
      </trkpt>
      <trkpt lat="43.78809" lon="6.23533">
        <ele>563.8</ele>
        <time>2021-09-07T10:34:28.000Z</time>
      </trkpt>
      <trkpt lat="43.78806" lon="6.23534">
        <ele>564.3</ele>
        <time>2021-09-07T10:34:29.000Z</time>
      </trkpt>
      <trkpt lat="43.78803" lon="6.23535">
        <ele>564.3</ele>
        <time>2021-09-07T10:34:30.000Z</time>
      </trkpt>
      <trkpt lat="43.788" lon="6.23537">
        <ele>564.4</ele>
        <time>2021-09-07T10:34:31.000Z</time>
      </trkpt>
      <trkpt lat="43.78788" lon="6.23544">
        <ele>564.9</ele>
        <time>2021-09-07T10:34:33.000Z</time>
      </trkpt>
      <trkpt lat="43.78785" lon="6.23545">
        <ele>565.2</ele>
        <time>2021-09-07T10:34:34.000Z</time>
      </trkpt>
      <trkpt lat="43.78786" lon="6.23545">
        <ele>565</ele>
        <time>2021-09-07T10:34:36.000Z</time>
      </trkpt>
      <trkpt lat="43.78783" lon="6.23546">
        <ele>565.4</ele>
        <time>2021-09-07T10:34:37.000Z</time>
      </trkpt>
      <trkpt lat="43.78774" lon="6.23554">
        <ele>565.9</ele>
        <time>2021-09-07T10:34:39.000Z</time>
      </trkpt>
      <trkpt lat="43.78771" lon="6.23556">
        <ele>565.9</ele>
        <time>2021-09-07T10:34:40.000Z</time>
      </trkpt>
      <trkpt lat="43.78772" lon="6.23555">
        <ele>565.8</ele>
        <time>2021-09-07T10:34:42.000Z</time>
      </trkpt>
      <trkpt lat="43.7877" lon="6.23557">
        <ele>565.9</ele>
        <time>2021-09-07T10:34:43.000Z</time>
      </trkpt>
      <trkpt lat="43.78758" lon="6.23568">
        <ele>567.2</ele>
        <time>2021-09-07T10:34:46.000Z</time>
      </trkpt>
      <trkpt lat="43.78756" lon="6.2357">
        <ele>567.5</ele>
        <time>2021-09-07T10:34:49.000Z</time>
      </trkpt>
      <trkpt lat="43.78749" lon="6.23575">
        <ele>567.8</ele>
        <time>2021-09-07T10:34:49.000Z</time>
      </trkpt>
      <trkpt lat="43.78747" lon="6.23577">
        <ele>567.9</ele>
        <time>2021-09-07T10:34:52.000Z</time>
      </trkpt>
      <trkpt lat="43.78742" lon="6.23582">
        <ele>568.2</ele>
        <time>2021-09-07T10:34:52.000Z</time>
      </trkpt>
      <trkpt lat="43.78738" lon="6.23589">
        <ele>568.7</ele>
        <time>2021-09-07T10:34:54.000Z</time>
      </trkpt>
      <trkpt lat="43.78741" lon="6.23584">
        <ele>568.3</ele>
        <time>2021-09-07T10:34:55.000Z</time>
      </trkpt>
      <trkpt lat="43.78735" lon="6.23594">
        <ele>568.9</ele>
        <time>2021-09-07T10:34:56.000Z</time>
      </trkpt>
      <trkpt lat="43.78733" lon="6.23597">
        <ele>569.1</ele>
        <time>2021-09-07T10:34:57.000Z</time>
      </trkpt>
      <trkpt lat="43.78737" lon="6.23591">
        <ele>568.7</ele>
        <time>2021-09-07T10:34:57.000Z</time>
      </trkpt>
      <trkpt lat="43.78731" lon="6.23599">
        <ele>569.2</ele>
        <time>2021-09-07T10:34:58.000Z</time>
      </trkpt>
      <trkpt lat="43.78729" lon="6.23603">
        <ele>569.4</ele>
        <time>2021-09-07T10:34:59.000Z</time>
      </trkpt>
      <trkpt lat="43.78735" lon="6.23594">
        <ele>569.1</ele>
        <time>2021-09-07T10:34:59.000Z</time>
      </trkpt>
      <trkpt lat="43.78732" lon="6.23598">
        <ele>569.1</ele>
        <time>2021-09-07T10:35:00.000Z</time>
      </trkpt>
      <trkpt lat="43.7873" lon="6.23601">
        <ele>569.3</ele>
        <time>2021-09-07T10:35:01.000Z</time>
      </trkpt>
      <trkpt lat="43.78728" lon="6.23605">
        <ele>569.5</ele>
        <time>2021-09-07T10:35:02.000Z</time>
      </trkpt>
      <trkpt lat="43.78721" lon="6.23617">
        <ele>570</ele>
        <time>2021-09-07T10:35:04.000Z</time>
      </trkpt>
      <trkpt lat="43.7872" lon="6.23618">
        <ele>570</ele>
        <time>2021-09-07T10:35:05.000Z</time>
      </trkpt>
      <trkpt lat="43.78716" lon="6.23621">
        <ele>570.3</ele>
        <time>2021-09-07T10:35:07.000Z</time>
      </trkpt>
      <trkpt lat="43.7872" lon="6.23618">
        <ele>570</ele>
        <time>2021-09-07T10:35:07.000Z</time>
      </trkpt>
      <trkpt lat="43.78718" lon="6.2362">
        <ele>570.2</ele>
        <time>2021-09-07T10:35:08.000Z</time>
      </trkpt>
      <trkpt lat="43.7871" lon="6.23624">
        <ele>571</ele>
        <time>2021-09-07T10:35:09.000Z</time>
      </trkpt>
      <trkpt lat="43.78707" lon="6.23625">
        <ele>571.2</ele>
        <time>2021-09-07T10:35:10.000Z</time>
      </trkpt>
      <trkpt lat="43.78715" lon="6.23622">
        <ele>570.5</ele>
        <time>2021-09-07T10:35:10.000Z</time>
      </trkpt>
      <trkpt lat="43.78704" lon="6.23625">
        <ele>571.3</ele>
        <time>2021-09-07T10:35:11.000Z</time>
      </trkpt>
      <trkpt lat="43.78709" lon="6.23624">
        <ele>571</ele>
        <time>2021-09-07T10:35:12.000Z</time>
      </trkpt>
      <trkpt lat="43.78705" lon="6.23625">
        <ele>571.4</ele>
        <time>2021-09-07T10:35:13.000Z</time>
      </trkpt>
      <trkpt lat="43.78701" lon="6.23626">
        <ele>571.4</ele>
        <time>2021-09-07T10:35:14.000Z</time>
      </trkpt>
      <trkpt lat="43.78696" lon="6.23626">
        <ele>571.9</ele>
        <time>2021-09-07T10:35:14.000Z</time>
      </trkpt>
      <trkpt lat="43.78693" lon="6.23626">
        <ele>572</ele>
        <time>2021-09-07T10:35:15.000Z</time>
      </trkpt>
      <trkpt lat="43.78689" lon="6.23625">
        <ele>572</ele>
        <time>2021-09-07T10:35:16.000Z</time>
      </trkpt>
      <trkpt lat="43.78686" lon="6.23624">
        <ele>572.3</ele>
        <time>2021-09-07T10:35:17.000Z</time>
      </trkpt>
      <trkpt lat="43.78694" lon="6.23626">
        <ele>572</ele>
        <time>2021-09-07T10:35:17.000Z</time>
      </trkpt>
      <trkpt lat="43.78691" lon="6.23625">
        <ele>572</ele>
        <time>2021-09-07T10:35:18.000Z</time>
      </trkpt>
      <trkpt lat="43.78688" lon="6.23624">
        <ele>572.1</ele>
        <time>2021-09-07T10:35:19.000Z</time>
      </trkpt>
      <trkpt lat="43.78684" lon="6.23624">
        <ele>572.3</ele>
        <time>2021-09-07T10:35:20.000Z</time>
      </trkpt>
      <trkpt lat="43.78672" lon="6.23623">
        <ele>572.9</ele>
        <time>2021-09-07T10:35:22.000Z</time>
      </trkpt>
      <trkpt lat="43.78669" lon="6.23624">
        <ele>573.2</ele>
        <time>2021-09-07T10:35:23.000Z</time>
      </trkpt>
      <trkpt lat="43.78664" lon="6.23625">
        <ele>573.3</ele>
        <time>2021-09-07T10:35:25.000Z</time>
      </trkpt>
      <trkpt lat="43.78663" lon="6.23625">
        <ele>573.3</ele>
        <time>2021-09-07T10:35:28.000Z</time>
      </trkpt>
      <trkpt lat="43.78657" lon="6.23627">
        <ele>573.6</ele>
        <time>2021-09-07T10:35:28.000Z</time>
      </trkpt>
      <trkpt lat="43.78654" lon="6.23628">
        <ele>573.8</ele>
        <time>2021-09-07T10:35:29.000Z</time>
      </trkpt>
      <trkpt lat="43.78649" lon="6.23631">
        <ele>574.4</ele>
        <time>2021-09-07T10:35:31.000Z</time>
      </trkpt>
      <trkpt lat="43.78644" lon="6.23633">
        <ele>574.5</ele>
        <time>2021-09-07T10:35:33.000Z</time>
      </trkpt>
      <trkpt lat="43.78647" lon="6.23632">
        <ele>574.3</ele>
        <time>2021-09-07T10:35:34.000Z</time>
      </trkpt>
      <trkpt lat="43.78643" lon="6.23634">
        <ele>574.4</ele>
        <time>2021-09-07T10:35:36.000Z</time>
      </trkpt>
      <trkpt lat="43.78631" lon="6.23642">
        <ele>574.3</ele>
        <time>2021-09-07T10:35:39.000Z</time>
      </trkpt>
      <trkpt lat="43.78632" lon="6.23641">
        <ele>574.4</ele>
        <time>2021-09-07T10:35:41.000Z</time>
      </trkpt>
      <trkpt lat="43.78629" lon="6.23643">
        <ele>574.4</ele>
        <time>2021-09-07T10:35:42.000Z</time>
      </trkpt>
      <trkpt lat="43.78618" lon="6.23645">
        <ele>575.3</ele>
        <time>2021-09-07T10:35:45.000Z</time>
      </trkpt>
      <trkpt lat="43.78615" lon="6.23645">
        <ele>575.5</ele>
        <time>2021-09-07T10:35:46.000Z</time>
      </trkpt>
      <trkpt lat="43.78619" lon="6.23645">
        <ele>575.3</ele>
        <time>2021-09-07T10:35:47.000Z</time>
      </trkpt>
      <trkpt lat="43.78616" lon="6.23645">
        <ele>575.4</ele>
        <time>2021-09-07T10:35:48.000Z</time>
      </trkpt>
      <trkpt lat="43.78613" lon="6.23644">
        <ele>575.7</ele>
        <time>2021-09-07T10:35:49.000Z</time>
      </trkpt>
      <trkpt lat="43.78605" lon="6.23643">
        <ele>575.8</ele>
        <time>2021-09-07T10:35:49.000Z</time>
      </trkpt>
      <trkpt lat="43.78602" lon="6.23642">
        <ele>576.2</ele>
        <time>2021-09-07T10:35:52.000Z</time>
      </trkpt>
      <trkpt lat="43.78593" lon="6.23635">
        <ele>576.2</ele>
        <time>2021-09-07T10:35:53.000Z</time>
      </trkpt>
      <trkpt lat="43.7859" lon="6.23633">
        <ele>576.5</ele>
        <time>2021-09-07T10:35:54.000Z</time>
      </trkpt>
      <trkpt lat="43.78582" lon="6.23628">
        <ele>576.6</ele>
        <time>2021-09-07T10:35:56.000Z</time>
      </trkpt>
      <trkpt lat="43.78592" lon="6.23635">
        <ele>576.2</ele>
        <time>2021-09-07T10:35:56.000Z</time>
      </trkpt>
      <trkpt lat="43.7858" lon="6.23625">
        <ele>576.8</ele>
        <time>2021-09-07T10:35:57.000Z</time>
      </trkpt>
      <trkpt lat="43.78588" lon="6.23632">
        <ele>576.5</ele>
        <time>2021-09-07T10:35:57.000Z</time>
      </trkpt>
      <trkpt lat="43.78581" lon="6.23626">
        <ele>576.8</ele>
        <time>2021-09-07T10:35:59.000Z</time>
      </trkpt>
      <trkpt lat="43.78578" lon="6.23623">
        <ele>576.8</ele>
        <time>2021-09-07T10:36:00.000Z</time>
      </trkpt>
      <trkpt lat="43.78572" lon="6.23615">
        <ele>577.3</ele>
        <time>2021-09-07T10:36:00.000Z</time>
      </trkpt>
      <trkpt lat="43.78571" lon="6.23612">
        <ele>577.5</ele>
        <time>2021-09-07T10:36:01.000Z</time>
      </trkpt>
      <trkpt lat="43.78571" lon="6.23613">
        <ele>577.5</ele>
        <time>2021-09-07T10:36:03.000Z</time>
      </trkpt>
      <trkpt lat="43.7857" lon="6.2361">
        <ele>577.6</ele>
        <time>2021-09-07T10:36:04.000Z</time>
      </trkpt>
      <trkpt lat="43.78561" lon="6.23602">
        <ele>578.2</ele>
        <time>2021-09-07T10:36:06.000Z</time>
      </trkpt>
      <trkpt lat="43.78559" lon="6.236">
        <ele>578.3</ele>
        <time>2021-09-07T10:36:07.000Z</time>
      </trkpt>
      <trkpt lat="43.78557" lon="6.23597">
        <ele>578.6</ele>
        <time>2021-09-07T10:36:08.000Z</time>
      </trkpt>
      <trkpt lat="43.78555" lon="6.23595">
        <ele>578.5</ele>
        <time>2021-09-07T10:36:09.000Z</time>
      </trkpt>
      <trkpt lat="43.78559" lon="6.23601">
        <ele>578.2</ele>
        <time>2021-09-07T10:36:09.000Z</time>
      </trkpt>
      <trkpt lat="43.78558" lon="6.23598">
        <ele>578.6</ele>
        <time>2021-09-07T10:36:10.000Z</time>
      </trkpt>
      <trkpt lat="43.78553" lon="6.23588">
        <ele>579.1</ele>
        <time>2021-09-07T10:36:11.000Z</time>
      </trkpt>
      <trkpt lat="43.78555" lon="6.23596">
        <ele>578.5</ele>
        <time>2021-09-07T10:36:11.000Z</time>
      </trkpt>
      <trkpt lat="43.78551" lon="6.23585">
        <ele>579.1</ele>
        <time>2021-09-07T10:36:12.000Z</time>
      </trkpt>
      <trkpt lat="43.78554" lon="6.23593">
        <ele>578.7</ele>
        <time>2021-09-07T10:36:12.000Z</time>
      </trkpt>
      <trkpt lat="43.78549" lon="6.23582">
        <ele>579.1</ele>
        <time>2021-09-07T10:36:13.000Z</time>
      </trkpt>
      <trkpt lat="43.78552" lon="6.23587">
        <ele>579.2</ele>
        <time>2021-09-07T10:36:14.000Z</time>
      </trkpt>
      <trkpt lat="43.7855" lon="6.23584">
        <ele>579</ele>
        <time>2021-09-07T10:36:15.000Z</time>
      </trkpt>
      <trkpt lat="43.78548" lon="6.2358">
        <ele>579.3</ele>
        <time>2021-09-07T10:36:16.000Z</time>
      </trkpt>
      <trkpt lat="43.78543" lon="6.23574">
        <ele>579.5</ele>
        <time>2021-09-07T10:36:16.000Z</time>
      </trkpt>
      <trkpt lat="43.78541" lon="6.23571">
        <ele>579.5</ele>
        <time>2021-09-07T10:36:19.000Z</time>
      </trkpt>
      <trkpt lat="43.78537" lon="6.23565">
        <ele>580.2</ele>
        <time>2021-09-07T10:36:19.000Z</time>
      </trkpt>
      <trkpt lat="43.78535" lon="6.23562">
        <ele>580.3</ele>
        <time>2021-09-07T10:36:22.000Z</time>
      </trkpt>
      <trkpt lat="43.78525" lon="6.23548">
        <ele>580.9</ele>
        <time>2021-09-07T10:36:25.000Z</time>
      </trkpt>
      <trkpt lat="43.78526" lon="6.23549">
        <ele>580.9</ele>
        <time>2021-09-07T10:36:27.000Z</time>
      </trkpt>
      <trkpt lat="43.78523" lon="6.23547">
        <ele>580.9</ele>
        <time>2021-09-07T10:36:28.000Z</time>
      </trkpt>
      <trkpt lat="43.78515" lon="6.23538">
        <ele>581.4</ele>
        <time>2021-09-07T10:36:30.000Z</time>
      </trkpt>
      <trkpt lat="43.78512" lon="6.23537">
        <ele>581.6</ele>
        <time>2021-09-07T10:36:31.000Z</time>
      </trkpt>
      <trkpt lat="43.7851" lon="6.23537">
        <ele>582</ele>
        <time>2021-09-07T10:36:32.000Z</time>
      </trkpt>
      <trkpt lat="43.78514" lon="6.23538">
        <ele>581.5</ele>
        <time>2021-09-07T10:36:33.000Z</time>
      </trkpt>
      <trkpt lat="43.7851" lon="6.23537">
        <ele>581.9</ele>
        <time>2021-09-07T10:36:34.000Z</time>
      </trkpt>
      <trkpt lat="43.78508" lon="6.23536">
        <ele>582.1</ele>
        <time>2021-09-07T10:36:35.000Z</time>
      </trkpt>
      <trkpt lat="43.78503" lon="6.23537">
        <ele>582.4</ele>
        <time>2021-09-07T10:36:35.000Z</time>
      </trkpt>
      <trkpt lat="43.785" lon="6.23537">
        <ele>582.5</ele>
        <time>2021-09-07T10:36:36.000Z</time>
      </trkpt>
      <trkpt lat="43.78498" lon="6.23537">
        <ele>582.5</ele>
        <time>2021-09-07T10:36:37.000Z</time>
      </trkpt>
      <trkpt lat="43.78495" lon="6.23538">
        <ele>582.7</ele>
        <time>2021-09-07T10:36:38.000Z</time>
      </trkpt>
      <trkpt lat="43.78492" lon="6.23541">
        <ele>583</ele>
        <time>2021-09-07T10:36:40.000Z</time>
      </trkpt>
      <trkpt lat="43.78488" lon="6.23544">
        <ele>583.4</ele>
        <time>2021-09-07T10:36:42.000Z</time>
      </trkpt>
      <trkpt lat="43.78485" lon="6.23545">
        <ele>583.8</ele>
        <time>2021-09-07T10:36:43.000Z</time>
      </trkpt>
      <trkpt lat="43.78491" lon="6.23542">
        <ele>583.3</ele>
        <time>2021-09-07T10:36:43.000Z</time>
      </trkpt>
      <trkpt lat="43.78486" lon="6.23544">
        <ele>583.7</ele>
        <time>2021-09-07T10:36:45.000Z</time>
      </trkpt>
      <trkpt lat="43.78484" lon="6.23545">
        <ele>584</ele>
        <time>2021-09-07T10:36:46.000Z</time>
      </trkpt>
      <trkpt lat="43.78476" lon="6.23548">
        <ele>584.6</ele>
        <time>2021-09-07T10:36:47.000Z</time>
      </trkpt>
      <trkpt lat="43.78475" lon="6.23548">
        <ele>584.7</ele>
        <time>2021-09-07T10:36:48.000Z</time>
      </trkpt>
      <trkpt lat="43.78473" lon="6.23547">
        <ele>584.7</ele>
        <time>2021-09-07T10:36:49.000Z</time>
      </trkpt>
      <trkpt lat="43.78472" lon="6.23546">
        <ele>585</ele>
        <time>2021-09-07T10:36:50.000Z</time>
      </trkpt>
      <trkpt lat="43.78476" lon="6.23548">
        <ele>584.6</ele>
        <time>2021-09-07T10:36:50.000Z</time>
      </trkpt>
      <trkpt lat="43.78474" lon="6.23548">
        <ele>584.7</ele>
        <time>2021-09-07T10:36:51.000Z</time>
      </trkpt>
      <trkpt lat="43.78465" lon="6.23543">
        <ele>585.3</ele>
        <time>2021-09-07T10:36:53.000Z</time>
      </trkpt>
      <trkpt lat="43.78463" lon="6.23542">
        <ele>585.2</ele>
        <time>2021-09-07T10:36:54.000Z</time>
      </trkpt>
      <trkpt lat="43.78464" lon="6.23542">
        <ele>585.4</ele>
        <time>2021-09-07T10:36:56.000Z</time>
      </trkpt>
      <trkpt lat="43.78461" lon="6.23541">
        <ele>585.5</ele>
        <time>2021-09-07T10:36:57.000Z</time>
      </trkpt>
      <trkpt lat="43.78456" lon="6.23537">
        <ele>586</ele>
        <time>2021-09-07T10:36:57.000Z</time>
      </trkpt>
      <trkpt lat="43.78453" lon="6.23535">
        <ele>586.2</ele>
        <time>2021-09-07T10:36:58.000Z</time>
      </trkpt>
      <trkpt lat="43.78451" lon="6.23533">
        <ele>586</ele>
        <time>2021-09-07T10:36:59.000Z</time>
      </trkpt>
      <trkpt lat="43.78455" lon="6.23537">
        <ele>586.1</ele>
        <time>2021-09-07T10:37:00.000Z</time>
      </trkpt>
      <trkpt lat="43.78445" lon="6.23527">
        <ele>586.3</ele>
        <time>2021-09-07T10:37:01.000Z</time>
      </trkpt>
      <trkpt lat="43.78452" lon="6.23535">
        <ele>586.2</ele>
        <time>2021-09-07T10:37:01.000Z</time>
      </trkpt>
      <trkpt lat="43.78449" lon="6.23532">
        <ele>585.9</ele>
        <time>2021-09-07T10:37:02.000Z</time>
      </trkpt>
      <trkpt lat="43.78444" lon="6.23525">
        <ele>586.3</ele>
        <time>2021-09-07T10:37:04.000Z</time>
      </trkpt>
      <trkpt lat="43.78431" lon="6.2351">
        <ele>586.7</ele>
        <time>2021-09-07T10:37:09.000Z</time>
      </trkpt>
      <trkpt lat="43.78424" lon="6.23504">
        <ele>586.8</ele>
        <time>2021-09-07T10:37:11.000Z</time>
      </trkpt>
      <trkpt lat="43.78418" lon="6.23497">
        <ele>587.3</ele>
        <time>2021-09-07T10:37:11.000Z</time>
      </trkpt>
      <trkpt lat="43.78416" lon="6.23494">
        <ele>587.6</ele>
        <time>2021-09-07T10:37:12.000Z</time>
      </trkpt>
      <trkpt lat="43.78414" lon="6.23491">
        <ele>587.6</ele>
        <time>2021-09-07T10:37:13.000Z</time>
      </trkpt>
      <trkpt lat="43.78417" lon="6.23495">
        <ele>587.5</ele>
        <time>2021-09-07T10:37:14.000Z</time>
      </trkpt>
      <trkpt lat="43.78412" lon="6.23488">
        <ele>587.6</ele>
        <time>2021-09-07T10:37:14.000Z</time>
      </trkpt>
      <trkpt lat="43.78411" lon="6.23485">
        <ele>587.8</ele>
        <time>2021-09-07T10:37:17.000Z</time>
      </trkpt>
      <trkpt lat="43.78408" lon="6.23477">
        <ele>588</ele>
        <time>2021-09-07T10:37:17.000Z</time>
      </trkpt>
      <trkpt lat="43.78406" lon="6.23473">
        <ele>588.1</ele>
        <time>2021-09-07T10:37:18.000Z</time>
      </trkpt>
      <trkpt lat="43.78404" lon="6.23466">
        <ele>588.1</ele>
        <time>2021-09-07T10:37:20.000Z</time>
      </trkpt>
      <trkpt lat="43.78407" lon="6.23475">
        <ele>588</ele>
        <time>2021-09-07T10:37:20.000Z</time>
      </trkpt>
      <trkpt lat="43.78405" lon="6.23471">
        <ele>588.1</ele>
        <time>2021-09-07T10:37:21.000Z</time>
      </trkpt>
      <trkpt lat="43.78404" lon="6.23465">
        <ele>588.1</ele>
        <time>2021-09-07T10:37:23.000Z</time>
      </trkpt>
      <trkpt lat="43.78405" lon="6.23451">
        <ele>588.3</ele>
        <time>2021-09-07T10:37:24.000Z</time>
      </trkpt>
      <trkpt lat="43.7841" lon="6.23447">
        <ele>588</ele>
        <time>2021-09-07T10:37:26.000Z</time>
      </trkpt>
      <trkpt lat="43.78413" lon="6.23447">
        <ele>588.3</ele>
        <time>2021-09-07T10:37:27.000Z</time>
      </trkpt>
      <trkpt lat="43.78406" lon="6.23449">
        <ele>588.3</ele>
        <time>2021-09-07T10:37:27.000Z</time>
      </trkpt>
      <trkpt lat="43.7842" lon="6.23446">
        <ele>588.4</ele>
        <time>2021-09-07T10:37:29.000Z</time>
      </trkpt>
      <trkpt lat="43.78411" lon="6.23447">
        <ele>588.1</ele>
        <time>2021-09-07T10:37:29.000Z</time>
      </trkpt>
      <trkpt lat="43.78416" lon="6.23447">
        <ele>588.3</ele>
        <time>2021-09-07T10:37:30.000Z</time>
      </trkpt>
      <trkpt lat="43.78423" lon="6.23446">
        <ele>588.2</ele>
        <time>2021-09-07T10:37:30.000Z</time>
      </trkpt>
      <trkpt lat="43.78431" lon="6.23443">
        <ele>588.1</ele>
        <time>2021-09-07T10:37:32.000Z</time>
      </trkpt>
      <trkpt lat="43.78435" lon="6.23443">
        <ele>588</ele>
        <time>2021-09-07T10:37:33.000Z</time>
      </trkpt>
      <trkpt lat="43.78453" lon="6.23437">
        <ele>587.9</ele>
        <time>2021-09-07T10:37:38.000Z</time>
      </trkpt>
      <trkpt lat="43.78447" lon="6.23441">
        <ele>587.9</ele>
        <time>2021-09-07T10:37:39.000Z</time>
      </trkpt>
      <trkpt lat="43.78456" lon="6.23434">
        <ele>588</ele>
        <time>2021-09-07T10:37:41.000Z</time>
      </trkpt>
      <trkpt lat="43.78462" lon="6.23429">
        <ele>588.2</ele>
        <time>2021-09-07T10:37:41.000Z</time>
      </trkpt>
      <trkpt lat="43.78469" lon="6.23423">
        <ele>588.2</ele>
        <time>2021-09-07T10:37:43.000Z</time>
      </trkpt>
      <trkpt lat="43.78472" lon="6.23419">
        <ele>588.2</ele>
        <time>2021-09-07T10:37:44.000Z</time>
      </trkpt>
      <trkpt lat="43.78465" lon="6.23427">
        <ele>588.1</ele>
        <time>2021-09-07T10:37:44.000Z</time>
      </trkpt>
      <trkpt lat="43.78475" lon="6.23417">
        <ele>587.9</ele>
        <time>2021-09-07T10:37:45.000Z</time>
      </trkpt>
      <trkpt lat="43.7847" lon="6.23421">
        <ele>588.2</ele>
        <time>2021-09-07T10:37:46.000Z</time>
      </trkpt>
      <trkpt lat="43.78473" lon="6.23418">
        <ele>588.1</ele>
        <time>2021-09-07T10:37:47.000Z</time>
      </trkpt>
      <trkpt lat="43.78477" lon="6.23415">
        <ele>588</ele>
        <time>2021-09-07T10:37:48.000Z</time>
      </trkpt>
      <trkpt lat="43.7849" lon="6.23402">
        <ele>588.8</ele>
        <time>2021-09-07T10:37:50.000Z</time>
      </trkpt>
      <trkpt lat="43.78493" lon="6.23398">
        <ele>588.9</ele>
        <time>2021-09-07T10:37:51.000Z</time>
      </trkpt>
      <trkpt lat="43.78496" lon="6.23394">
        <ele>588.9</ele>
        <time>2021-09-07T10:37:52.000Z</time>
      </trkpt>
      <trkpt lat="43.78491" lon="6.234">
        <ele>588.8</ele>
        <time>2021-09-07T10:37:53.000Z</time>
      </trkpt>
      <trkpt lat="43.78495" lon="6.23395">
        <ele>588.9</ele>
        <time>2021-09-07T10:37:54.000Z</time>
      </trkpt>
      <trkpt lat="43.78498" lon="6.23392">
        <ele>588.9</ele>
        <time>2021-09-07T10:37:55.000Z</time>
      </trkpt>
      <trkpt lat="43.78507" lon="6.23383">
        <ele>589.2</ele>
        <time>2021-09-07T10:37:56.000Z</time>
      </trkpt>
      <trkpt lat="43.7851" lon="6.2338">
        <ele>589.4</ele>
        <time>2021-09-07T10:37:57.000Z</time>
      </trkpt>
      <trkpt lat="43.78514" lon="6.23377">
        <ele>589.6</ele>
        <time>2021-09-07T10:37:58.000Z</time>
      </trkpt>
      <trkpt lat="43.78517" lon="6.23375">
        <ele>589.5</ele>
        <time>2021-09-07T10:37:59.000Z</time>
      </trkpt>
      <trkpt lat="43.78515" lon="6.23376">
        <ele>589.6</ele>
        <time>2021-09-07T10:38:01.000Z</time>
      </trkpt>
      <trkpt lat="43.7852" lon="6.23372">
        <ele>589.7</ele>
        <time>2021-09-07T10:38:02.000Z</time>
      </trkpt>
      <trkpt lat="43.78526" lon="6.23367">
        <ele>589.9</ele>
        <time>2021-09-07T10:38:02.000Z</time>
      </trkpt>
      <trkpt lat="43.78528" lon="6.23364">
        <ele>590.1</ele>
        <time>2021-09-07T10:38:03.000Z</time>
      </trkpt>
      <trkpt lat="43.78531" lon="6.23361">
        <ele>590.1</ele>
        <time>2021-09-07T10:38:04.000Z</time>
      </trkpt>
      <trkpt lat="43.78534" lon="6.23358">
        <ele>590.2</ele>
        <time>2021-09-07T10:38:05.000Z</time>
      </trkpt>
      <trkpt lat="43.78527" lon="6.23366">
        <ele>590</ele>
        <time>2021-09-07T10:38:05.000Z</time>
      </trkpt>
      <trkpt lat="43.7853" lon="6.23362">
        <ele>590.1</ele>
        <time>2021-09-07T10:38:06.000Z</time>
      </trkpt>
      <trkpt lat="43.78539" lon="6.23352">
        <ele>590.6</ele>
        <time>2021-09-07T10:38:07.000Z</time>
      </trkpt>
      <trkpt lat="43.7854" lon="6.23351">
        <ele>590.7</ele>
        <time>2021-09-07T10:38:10.000Z</time>
      </trkpt>
      <trkpt lat="43.78548" lon="6.23343">
        <ele>591</ele>
        <time>2021-09-07T10:38:11.000Z</time>
      </trkpt>
      <trkpt lat="43.78551" lon="6.2334">
        <ele>591.4</ele>
        <time>2021-09-07T10:38:12.000Z</time>
      </trkpt>
      <trkpt lat="43.78549" lon="6.23341">
        <ele>591.2</ele>
        <time>2021-09-07T10:38:14.000Z</time>
      </trkpt>
      <trkpt lat="43.78552" lon="6.23338">
        <ele>591.5</ele>
        <time>2021-09-07T10:38:15.000Z</time>
      </trkpt>
      <trkpt lat="43.78558" lon="6.23331">
        <ele>591.7</ele>
        <time>2021-09-07T10:38:15.000Z</time>
      </trkpt>
      <trkpt lat="43.78561" lon="6.23328">
        <ele>591.9</ele>
        <time>2021-09-07T10:38:16.000Z</time>
      </trkpt>
      <trkpt lat="43.78563" lon="6.23325">
        <ele>592.1</ele>
        <time>2021-09-07T10:38:17.000Z</time>
      </trkpt>
      <trkpt lat="43.78565" lon="6.23323">
        <ele>592.2</ele>
        <time>2021-09-07T10:38:18.000Z</time>
      </trkpt>
      <trkpt lat="43.78569" lon="6.23317">
        <ele>592.3</ele>
        <time>2021-09-07T10:38:20.000Z</time>
      </trkpt>
      <trkpt lat="43.78571" lon="6.23315">
        <ele>592.6</ele>
        <time>2021-09-07T10:38:21.000Z</time>
      </trkpt>
      <trkpt lat="43.7857" lon="6.23316">
        <ele>592.5</ele>
        <time>2021-09-07T10:38:23.000Z</time>
      </trkpt>
      <trkpt lat="43.78572" lon="6.23314">
        <ele>592.6</ele>
        <time>2021-09-07T10:38:24.000Z</time>
      </trkpt>
      <trkpt lat="43.78578" lon="6.23304">
        <ele>593.1</ele>
        <time>2021-09-07T10:38:25.000Z</time>
      </trkpt>
      <trkpt lat="43.7858" lon="6.233">
        <ele>593.1</ele>
        <time>2021-09-07T10:38:26.000Z</time>
      </trkpt>
      <trkpt lat="43.78579" lon="6.23302">
        <ele>593.1</ele>
        <time>2021-09-07T10:38:28.000Z</time>
      </trkpt>
      <trkpt lat="43.78581" lon="6.23297">
        <ele>593.2</ele>
        <time>2021-09-07T10:38:29.000Z</time>
      </trkpt>
      <trkpt lat="43.78586" lon="6.23287">
        <ele>593.9</ele>
        <time>2021-09-07T10:38:30.000Z</time>
      </trkpt>
      <trkpt lat="43.78589" lon="6.23281">
        <ele>594.5</ele>
        <time>2021-09-07T10:38:32.000Z</time>
      </trkpt>
      <trkpt lat="43.78587" lon="6.23285">
        <ele>593.8</ele>
        <time>2021-09-07T10:38:33.000Z</time>
      </trkpt>
      <trkpt lat="43.78592" lon="6.23276">
        <ele>595.3</ele>
        <time>2021-09-07T10:38:34.000Z</time>
      </trkpt>
      <trkpt lat="43.78594" lon="6.23273">
        <ele>595.1</ele>
        <time>2021-09-07T10:38:35.000Z</time>
      </trkpt>
      <trkpt lat="43.78589" lon="6.2328">
        <ele>594.8</ele>
        <time>2021-09-07T10:38:35.000Z</time>
      </trkpt>
      <trkpt lat="43.78593" lon="6.23274">
        <ele>595.1</ele>
        <time>2021-09-07T10:38:37.000Z</time>
      </trkpt>
      <trkpt lat="43.78595" lon="6.23271">
        <ele>595.3</ele>
        <time>2021-09-07T10:38:38.000Z</time>
      </trkpt>
      <trkpt lat="43.78598" lon="6.23264">
        <ele>595.2</ele>
        <time>2021-09-07T10:38:38.000Z</time>
      </trkpt>
      <trkpt lat="43.786" lon="6.23261">
        <ele>595.4</ele>
        <time>2021-09-07T10:38:39.000Z</time>
      </trkpt>
      <trkpt lat="43.78599" lon="6.23262">
        <ele>595.2</ele>
        <time>2021-09-07T10:38:41.000Z</time>
      </trkpt>
      <trkpt lat="43.78601" lon="6.23258">
        <ele>595.6</ele>
        <time>2021-09-07T10:38:42.000Z</time>
      </trkpt>
      <trkpt lat="43.78604" lon="6.23252">
        <ele>596</ele>
        <time>2021-09-07T10:38:42.000Z</time>
      </trkpt>
      <trkpt lat="43.78605" lon="6.2325">
        <ele>596.1</ele>
        <time>2021-09-07T10:38:43.000Z</time>
      </trkpt>
      <trkpt lat="43.78605" lon="6.23247">
        <ele>596.2</ele>
        <time>2021-09-07T10:38:44.000Z</time>
      </trkpt>
      <trkpt lat="43.78605" lon="6.23244">
        <ele>596.6</ele>
        <time>2021-09-07T10:38:45.000Z</time>
      </trkpt>
      <trkpt lat="43.78604" lon="6.23251">
        <ele>595.9</ele>
        <time>2021-09-07T10:38:45.000Z</time>
      </trkpt>
      <trkpt lat="43.78605" lon="6.23241">
        <ele>597.2</ele>
        <time>2021-09-07T10:38:46.000Z</time>
      </trkpt>
      <trkpt lat="43.78605" lon="6.23248">
        <ele>596.2</ele>
        <time>2021-09-07T10:38:46.000Z</time>
      </trkpt>
      <trkpt lat="43.78606" lon="6.23245">
        <ele>596.5</ele>
        <time>2021-09-07T10:38:47.000Z</time>
      </trkpt>
      <trkpt lat="43.78605" lon="6.23242">
        <ele>596.9</ele>
        <time>2021-09-07T10:38:48.000Z</time>
      </trkpt>
      <trkpt lat="43.78604" lon="6.23238">
        <ele>597.3</ele>
        <time>2021-09-07T10:38:49.000Z</time>
      </trkpt>
      <trkpt lat="43.78602" lon="6.23225">
        <ele>597.4</ele>
        <time>2021-09-07T10:38:50.000Z</time>
      </trkpt>
      <trkpt lat="43.78601" lon="6.23222">
        <ele>597.4</ele>
        <time>2021-09-07T10:38:53.000Z</time>
      </trkpt>
      <trkpt lat="43.78596" lon="6.23213">
        <ele>597.6</ele>
        <time>2021-09-07T10:38:53.000Z</time>
      </trkpt>
      <trkpt lat="43.78595" lon="6.23212">
        <ele>597.8</ele>
        <time>2021-09-07T10:38:56.000Z</time>
      </trkpt>
      <trkpt lat="43.78582" lon="6.23201">
        <ele>598.4</ele>
        <time>2021-09-07T10:38:58.000Z</time>
      </trkpt>
      <trkpt lat="43.78579" lon="6.232">
        <ele>598.4</ele>
        <time>2021-09-07T10:38:59.000Z</time>
      </trkpt>
      <trkpt lat="43.78574" lon="6.23199">
        <ele>598.7</ele>
        <time>2021-09-07T10:39:01.000Z</time>
      </trkpt>
      <trkpt lat="43.7858" lon="6.232">
        <ele>598.4</ele>
        <time>2021-09-07T10:39:01.000Z</time>
      </trkpt>
      <trkpt lat="43.78571" lon="6.232">
        <ele>598.9</ele>
        <time>2021-09-07T10:39:02.000Z</time>
      </trkpt>
      <trkpt lat="43.78577" lon="6.23199">
        <ele>598.5</ele>
        <time>2021-09-07T10:39:02.000Z</time>
      </trkpt>
      <trkpt lat="43.78573" lon="6.23199">
        <ele>598.8</ele>
        <time>2021-09-07T10:39:04.000Z</time>
      </trkpt>
      <trkpt lat="43.78569" lon="6.232">
        <ele>598.8</ele>
        <time>2021-09-07T10:39:05.000Z</time>
      </trkpt>
      <trkpt lat="43.78556" lon="6.23203">
        <ele>599.1</ele>
        <time>2021-09-07T10:39:06.000Z</time>
      </trkpt>
      <trkpt lat="43.78553" lon="6.23204">
        <ele>599.3</ele>
        <time>2021-09-07T10:39:07.000Z</time>
      </trkpt>
      <trkpt lat="43.78554" lon="6.23203">
        <ele>599.1</ele>
        <time>2021-09-07T10:39:09.000Z</time>
      </trkpt>
      <trkpt lat="43.78551" lon="6.23204">
        <ele>599.5</ele>
        <time>2021-09-07T10:39:10.000Z</time>
      </trkpt>
      <trkpt lat="43.78547" lon="6.23205">
        <ele>599.7</ele>
        <time>2021-09-07T10:39:11.000Z</time>
      </trkpt>
      <trkpt lat="43.78539" lon="6.23205">
        <ele>599.8</ele>
        <time>2021-09-07T10:39:12.000Z</time>
      </trkpt>
      <trkpt lat="43.78533" lon="6.23204">
        <ele>600.2</ele>
        <time>2021-09-07T10:39:14.000Z</time>
      </trkpt>
      <trkpt lat="43.78538" lon="6.23205">
        <ele>599.9</ele>
        <time>2021-09-07T10:39:15.000Z</time>
      </trkpt>
      <trkpt lat="43.78528" lon="6.23204">
        <ele>600.5</ele>
        <time>2021-09-07T10:39:16.000Z</time>
      </trkpt>
      <trkpt lat="43.78532" lon="6.23204">
        <ele>600.2</ele>
        <time>2021-09-07T10:39:17.000Z</time>
      </trkpt>
      <trkpt lat="43.78523" lon="6.23201">
        <ele>601.1</ele>
        <time>2021-09-07T10:39:18.000Z</time>
      </trkpt>
      <trkpt lat="43.7852" lon="6.23199">
        <ele>601.2</ele>
        <time>2021-09-07T10:39:19.000Z</time>
      </trkpt>
      <trkpt lat="43.78528" lon="6.23203">
        <ele>600.6</ele>
        <time>2021-09-07T10:39:19.000Z</time>
      </trkpt>
      <trkpt lat="43.78518" lon="6.23197">
        <ele>601.4</ele>
        <time>2021-09-07T10:39:20.000Z</time>
      </trkpt>
      <trkpt lat="43.78522" lon="6.23199">
        <ele>601.2</ele>
        <time>2021-09-07T10:39:21.000Z</time>
      </trkpt>
      <trkpt lat="43.78515" lon="6.23196">
        <ele>601.6</ele>
        <time>2021-09-07T10:39:21.000Z</time>
      </trkpt>
      <trkpt lat="43.7851" lon="6.23192">
        <ele>601.7</ele>
        <time>2021-09-07T10:39:23.000Z</time>
      </trkpt>
      <trkpt lat="43.78515" lon="6.23195">
        <ele>601.7</ele>
        <time>2021-09-07T10:39:24.000Z</time>
      </trkpt>
      <trkpt lat="43.78508" lon="6.23191">
        <ele>601.7</ele>
        <time>2021-09-07T10:39:26.000Z</time>
      </trkpt>
      <trkpt lat="43.7849" lon="6.23191">
        <ele>601.9</ele>
        <time>2021-09-07T10:39:30.000Z</time>
      </trkpt>
      <trkpt lat="43.78495" lon="6.23189">
        <ele>601.9</ele>
        <time>2021-09-07T10:39:31.000Z</time>
      </trkpt>
      <trkpt lat="43.78485" lon="6.23192">
        <ele>602.4</ele>
        <time>2021-09-07T10:39:32.000Z</time>
      </trkpt>
      <trkpt lat="43.78482" lon="6.23193">
        <ele>602.4</ele>
        <time>2021-09-07T10:39:33.000Z</time>
      </trkpt>
      <trkpt lat="43.78489" lon="6.23191">
        <ele>602.1</ele>
        <time>2021-09-07T10:39:33.000Z</time>
      </trkpt>
      <trkpt lat="43.7848" lon="6.23194">
        <ele>602.6</ele>
        <time>2021-09-07T10:39:34.000Z</time>
      </trkpt>
      <trkpt lat="43.78483" lon="6.23193">
        <ele>602.4</ele>
        <time>2021-09-07T10:39:35.000Z</time>
      </trkpt>
      <trkpt lat="43.78475" lon="6.23195">
        <ele>602.7</ele>
        <time>2021-09-07T10:39:36.000Z</time>
      </trkpt>
      <trkpt lat="43.78481" lon="6.23194">
        <ele>602.5</ele>
        <time>2021-09-07T10:39:36.000Z</time>
      </trkpt>
      <trkpt lat="43.78478" lon="6.23195">
        <ele>602.7</ele>
        <time>2021-09-07T10:39:37.000Z</time>
      </trkpt>
      <trkpt lat="43.78473" lon="6.23196">
        <ele>602.8</ele>
        <time>2021-09-07T10:39:37.000Z</time>
      </trkpt>
      <trkpt lat="43.7847" lon="6.23197">
        <ele>603</ele>
        <time>2021-09-07T10:39:38.000Z</time>
      </trkpt>
      <trkpt lat="43.78468" lon="6.23199">
        <ele>603.2</ele>
        <time>2021-09-07T10:39:41.000Z</time>
      </trkpt>
      <trkpt lat="43.78458" lon="6.23206">
        <ele>603.8</ele>
        <time>2021-09-07T10:39:43.000Z</time>
      </trkpt>
      <trkpt lat="43.78456" lon="6.23209">
        <ele>604</ele>
        <time>2021-09-07T10:39:44.000Z</time>
      </trkpt>
      <trkpt lat="43.78451" lon="6.23213">
        <ele>604</ele>
        <time>2021-09-07T10:39:46.000Z</time>
      </trkpt>
      <trkpt lat="43.78456" lon="6.23208">
        <ele>604</ele>
        <time>2021-09-07T10:39:46.000Z</time>
      </trkpt>
      <trkpt lat="43.78454" lon="6.23211">
        <ele>604</ele>
        <time>2021-09-07T10:39:47.000Z</time>
      </trkpt>
      <trkpt lat="43.78449" lon="6.23216">
        <ele>603.8</ele>
        <time>2021-09-07T10:39:49.000Z</time>
      </trkpt>
      <trkpt lat="43.78439" lon="6.23224">
        <ele>604.3</ele>
        <time>2021-09-07T10:39:51.000Z</time>
      </trkpt>
      <trkpt lat="43.78436" lon="6.23227">
        <ele>604.6</ele>
        <time>2021-09-07T10:39:52.000Z</time>
      </trkpt>
      <trkpt lat="43.78432" lon="6.23232">
        <ele>604.9</ele>
        <time>2021-09-07T10:39:54.000Z</time>
      </trkpt>
      <trkpt lat="43.78437" lon="6.23226">
        <ele>604.5</ele>
        <time>2021-09-07T10:39:54.000Z</time>
      </trkpt>
      <trkpt lat="43.78434" lon="6.23228">
        <ele>604.6</ele>
        <time>2021-09-07T10:39:55.000Z</time>
      </trkpt>
      <trkpt lat="43.78429" lon="6.23234">
        <ele>604.9</ele>
        <time>2021-09-07T10:39:57.000Z</time>
      </trkpt>
      <trkpt lat="43.78424" lon="6.23239">
        <ele>605.2</ele>
        <time>2021-09-07T10:39:57.000Z</time>
      </trkpt>
      <trkpt lat="43.78421" lon="6.23242">
        <ele>605.2</ele>
        <time>2021-09-07T10:39:58.000Z</time>
      </trkpt>
      <trkpt lat="43.78419" lon="6.23246">
        <ele>605.8</ele>
        <time>2021-09-07T10:39:59.000Z</time>
      </trkpt>
      <trkpt lat="43.78423" lon="6.23241">
        <ele>605.2</ele>
        <time>2021-09-07T10:40:00.000Z</time>
      </trkpt>
      <trkpt lat="43.78414" lon="6.2325">
        <ele>605.9</ele>
        <time>2021-09-07T10:40:01.000Z</time>
      </trkpt>
      <trkpt lat="43.7842" lon="6.23243">
        <ele>605.3</ele>
        <time>2021-09-07T10:40:01.000Z</time>
      </trkpt>
      <trkpt lat="43.78416" lon="6.23249">
        <ele>605.9</ele>
        <time>2021-09-07T10:40:02.000Z</time>
      </trkpt>
      <trkpt lat="43.78412" lon="6.23251">
        <ele>606.1</ele>
        <time>2021-09-07T10:40:04.000Z</time>
      </trkpt>
      <trkpt lat="43.78407" lon="6.23254">
        <ele>605.9</ele>
        <time>2021-09-07T10:40:04.000Z</time>
      </trkpt>
      <trkpt lat="43.78405" lon="6.23255">
        <ele>606.1</ele>
        <time>2021-09-07T10:40:05.000Z</time>
      </trkpt>
      <trkpt lat="43.78402" lon="6.23255">
        <ele>606</ele>
        <time>2021-09-07T10:40:06.000Z</time>
      </trkpt>
      <trkpt lat="43.78406" lon="6.23254">
        <ele>606</ele>
        <time>2021-09-07T10:40:07.000Z</time>
      </trkpt>
      <trkpt lat="43.78403" lon="6.23255">
        <ele>606</ele>
        <time>2021-09-07T10:40:08.000Z</time>
      </trkpt>
      <trkpt lat="43.78399" lon="6.23256">
        <ele>606.3</ele>
        <time>2021-09-07T10:40:09.000Z</time>
      </trkpt>
      <trkpt lat="43.7839" lon="6.23258">
        <ele>606.6</ele>
        <time>2021-09-07T10:40:10.000Z</time>
      </trkpt>
      <trkpt lat="43.78387" lon="6.23258">
        <ele>606.7</ele>
        <time>2021-09-07T10:40:11.000Z</time>
      </trkpt>
      <trkpt lat="43.78384" lon="6.23258">
        <ele>606.9</ele>
        <time>2021-09-07T10:40:12.000Z</time>
      </trkpt>
      <trkpt lat="43.78389" lon="6.23258">
        <ele>606.6</ele>
        <time>2021-09-07T10:40:13.000Z</time>
      </trkpt>
      <trkpt lat="43.78378" lon="6.23257">
        <ele>607.4</ele>
        <time>2021-09-07T10:40:14.000Z</time>
      </trkpt>
      <trkpt lat="43.78375" lon="6.23256">
        <ele>607.5</ele>
        <time>2021-09-07T10:40:15.000Z</time>
      </trkpt>
      <trkpt lat="43.78371" lon="6.23255">
        <ele>607.8</ele>
        <time>2021-09-07T10:40:16.000Z</time>
      </trkpt>
      <trkpt lat="43.78375" lon="6.23256">
        <ele>607.4</ele>
        <time>2021-09-07T10:40:17.000Z</time>
      </trkpt>
      <trkpt lat="43.78365" lon="6.23252">
        <ele>608</ele>
        <time>2021-09-07T10:40:18.000Z</time>
      </trkpt>
      <trkpt lat="43.78372" lon="6.23255">
        <ele>607.8</ele>
        <time>2021-09-07T10:40:18.000Z</time>
      </trkpt>
      <trkpt lat="43.78369" lon="6.23254">
        <ele>607.7</ele>
        <time>2021-09-07T10:40:19.000Z</time>
      </trkpt>
      <trkpt lat="43.78362" lon="6.2325">
        <ele>608.2</ele>
        <time>2021-09-07T10:40:19.000Z</time>
      </trkpt>
      <trkpt lat="43.78359" lon="6.23248">
        <ele>608.3</ele>
        <time>2021-09-07T10:40:20.000Z</time>
      </trkpt>
      <trkpt lat="43.78356" lon="6.23246">
        <ele>608.5</ele>
        <time>2021-09-07T10:40:21.000Z</time>
      </trkpt>
      <trkpt lat="43.78353" lon="6.23245">
        <ele>608.8</ele>
        <time>2021-09-07T10:40:22.000Z</time>
      </trkpt>
      <trkpt lat="43.78357" lon="6.23247">
        <ele>608.4</ele>
        <time>2021-09-07T10:40:23.000Z</time>
      </trkpt>
      <trkpt lat="43.78354" lon="6.23245">
        <ele>608.7</ele>
        <time>2021-09-07T10:40:24.000Z</time>
      </trkpt>
      <trkpt lat="43.78351" lon="6.23245">
        <ele>609.1</ele>
        <time>2021-09-07T10:40:25.000Z</time>
      </trkpt>
      <trkpt lat="43.78344" lon="6.23242">
        <ele>609.5</ele>
        <time>2021-09-07T10:40:25.000Z</time>
      </trkpt>
      <trkpt lat="43.78341" lon="6.23243">
        <ele>609.8</ele>
        <time>2021-09-07T10:40:26.000Z</time>
      </trkpt>
      <trkpt lat="43.78339" lon="6.23243">
        <ele>609.7</ele>
        <time>2021-09-07T10:40:27.000Z</time>
      </trkpt>
      <trkpt lat="43.78337" lon="6.23243">
        <ele>609.7</ele>
        <time>2021-09-07T10:40:28.000Z</time>
      </trkpt>
      <trkpt lat="43.78342" lon="6.23243">
        <ele>609.8</ele>
        <time>2021-09-07T10:40:28.000Z</time>
      </trkpt>
      <trkpt lat="43.7834" lon="6.23243">
        <ele>609.8</ele>
        <time>2021-09-07T10:40:29.000Z</time>
      </trkpt>
      <trkpt lat="43.7833" lon="6.23248">
        <ele>610.1</ele>
        <time>2021-09-07T10:40:31.000Z</time>
      </trkpt>
      <trkpt lat="43.78328" lon="6.23249">
        <ele>610.1</ele>
        <time>2021-09-07T10:40:32.000Z</time>
      </trkpt>
      <trkpt lat="43.7832" lon="6.23254">
        <ele>610.5</ele>
        <time>2021-09-07T10:40:35.000Z</time>
      </trkpt>
      <trkpt lat="43.78317" lon="6.23255">
        <ele>610.3</ele>
        <time>2021-09-07T10:40:36.000Z</time>
      </trkpt>
      <trkpt lat="43.78314" lon="6.23257">
        <ele>610.7</ele>
        <time>2021-09-07T10:40:37.000Z</time>
      </trkpt>
      <trkpt lat="43.78322" lon="6.23253">
        <ele>610.4</ele>
        <time>2021-09-07T10:40:37.000Z</time>
      </trkpt>
      <trkpt lat="43.78318" lon="6.23255">
        <ele>610.5</ele>
        <time>2021-09-07T10:40:38.000Z</time>
      </trkpt>
      <trkpt lat="43.78315" lon="6.23256">
        <ele>610.5</ele>
        <time>2021-09-07T10:40:39.000Z</time>
      </trkpt>
      <trkpt lat="43.78312" lon="6.23259">
        <ele>611</ele>
        <time>2021-09-07T10:40:40.000Z</time>
      </trkpt>
      <trkpt lat="43.78301" lon="6.23262">
        <ele>611.3</ele>
        <time>2021-09-07T10:40:42.000Z</time>
      </trkpt>
      <trkpt lat="43.78298" lon="6.23262">
        <ele>611.6</ele>
        <time>2021-09-07T10:40:43.000Z</time>
      </trkpt>
      <trkpt lat="43.7829" lon="6.23259">
        <ele>611.8</ele>
        <time>2021-09-07T10:40:48.000Z</time>
      </trkpt>
      <trkpt lat="43.78284" lon="6.2325">
        <ele>612.8</ele>
        <time>2021-09-07T10:40:48.000Z</time>
      </trkpt>
      <trkpt lat="43.78282" lon="6.23245">
        <ele>612.7</ele>
        <time>2021-09-07T10:40:49.000Z</time>
      </trkpt>
      <trkpt lat="43.78282" lon="6.2324">
        <ele>613.1</ele>
        <time>2021-09-07T10:40:50.000Z</time>
      </trkpt>
      <trkpt lat="43.78281" lon="6.23235">
        <ele>613.4</ele>
        <time>2021-09-07T10:40:51.000Z</time>
      </trkpt>
      <trkpt lat="43.78282" lon="6.23247">
        <ele>612.7</ele>
        <time>2021-09-07T10:40:51.000Z</time>
      </trkpt>
      <trkpt lat="43.78282" lon="6.23243">
        <ele>612.9</ele>
        <time>2021-09-07T10:40:52.000Z</time>
      </trkpt>
      <trkpt lat="43.78281" lon="6.23224">
        <ele>613.7</ele>
        <time>2021-09-07T10:40:53.000Z</time>
      </trkpt>
      <trkpt lat="43.7828" lon="6.23221">
        <ele>613.8</ele>
        <time>2021-09-07T10:40:56.000Z</time>
      </trkpt>
      <trkpt lat="43.78269" lon="6.23205">
        <ele>614.6</ele>
        <time>2021-09-07T10:40:58.000Z</time>
      </trkpt>
      <trkpt lat="43.78266" lon="6.23202">
        <ele>614.7</ele>
        <time>2021-09-07T10:40:59.000Z</time>
      </trkpt>
      <trkpt lat="43.78268" lon="6.23204">
        <ele>614.5</ele>
        <time>2021-09-07T10:41:01.000Z</time>
      </trkpt>
      <trkpt lat="43.78263" lon="6.232">
        <ele>614.6</ele>
        <time>2021-09-07T10:41:02.000Z</time>
      </trkpt>
      <trkpt lat="43.78257" lon="6.23196">
        <ele>615.1</ele>
        <time>2021-09-07T10:41:02.000Z</time>
      </trkpt>
      <trkpt lat="43.78251" lon="6.23193">
        <ele>615.5</ele>
        <time>2021-09-07T10:41:04.000Z</time>
      </trkpt>
      <trkpt lat="43.78248" lon="6.23191">
        <ele>615.8</ele>
        <time>2021-09-07T10:41:05.000Z</time>
      </trkpt>
      <trkpt lat="43.78255" lon="6.23194">
        <ele>615.1</ele>
        <time>2021-09-07T10:41:05.000Z</time>
      </trkpt>
      <trkpt lat="43.78245" lon="6.2319">
        <ele>615.6</ele>
        <time>2021-09-07T10:41:06.000Z</time>
      </trkpt>
      <trkpt lat="43.78242" lon="6.23189">
        <ele>615.8</ele>
        <time>2021-09-07T10:41:07.000Z</time>
      </trkpt>
      <trkpt lat="43.7825" lon="6.23192">
        <ele>615.7</ele>
        <time>2021-09-07T10:41:07.000Z</time>
      </trkpt>
      <trkpt lat="43.78247" lon="6.23191">
        <ele>615.7</ele>
        <time>2021-09-07T10:41:08.000Z</time>
      </trkpt>
      <trkpt lat="43.78244" lon="6.23189">
        <ele>615.7</ele>
        <time>2021-09-07T10:41:09.000Z</time>
      </trkpt>
      <trkpt lat="43.78239" lon="6.23187">
        <ele>616</ele>
        <time>2021-09-07T10:41:10.000Z</time>
      </trkpt>
      <trkpt lat="43.78234" lon="6.23184">
        <ele>616.3</ele>
        <time>2021-09-07T10:41:10.000Z</time>
      </trkpt>
      <trkpt lat="43.78232" lon="6.23183">
        <ele>616.5</ele>
        <time>2021-09-07T10:41:13.000Z</time>
      </trkpt>
      <trkpt lat="43.78232" lon="6.23183">
        <ele>616.5</ele>
        <time>2021-09-07T10:41:13.000Z</time>
      </trkpt>
      <trkpt lat="43.78224" lon="6.23179">
        <ele>616.7</ele>
        <time>2021-09-07T10:41:14.000Z</time>
      </trkpt>
      <trkpt lat="43.7823" lon="6.23183">
        <ele>616.9</ele>
        <time>2021-09-07T10:41:14.000Z</time>
      </trkpt>
      <trkpt lat="43.78227" lon="6.23181">
        <ele>617</ele>
        <time>2021-09-07T10:41:15.000Z</time>
      </trkpt>
      <trkpt lat="43.78225" lon="6.23179">
        <ele>616.7</ele>
        <time>2021-09-07T10:41:16.000Z</time>
      </trkpt>
      <trkpt lat="43.78222" lon="6.23178">
        <ele>616.8</ele>
        <time>2021-09-07T10:41:17.000Z</time>
      </trkpt>
      <trkpt lat="43.78211" lon="6.23179">
        <ele>617.3</ele>
        <time>2021-09-07T10:41:19.000Z</time>
      </trkpt>
      <trkpt lat="43.78209" lon="6.2318">
        <ele>617.5</ele>
        <time>2021-09-07T10:41:20.000Z</time>
      </trkpt>
      <trkpt lat="43.78205" lon="6.23182">
        <ele>617.8</ele>
        <time>2021-09-07T10:41:22.000Z</time>
      </trkpt>
      <trkpt lat="43.7821" lon="6.23179">
        <ele>617.4</ele>
        <time>2021-09-07T10:41:22.000Z</time>
      </trkpt>
      <trkpt lat="43.78208" lon="6.2318">
        <ele>617.6</ele>
        <time>2021-09-07T10:41:23.000Z</time>
      </trkpt>
      <trkpt lat="43.78201" lon="6.23185">
        <ele>618.2</ele>
        <time>2021-09-07T10:41:24.000Z</time>
      </trkpt>
      <trkpt lat="43.78204" lon="6.23182">
        <ele>617.9</ele>
        <time>2021-09-07T10:41:25.000Z</time>
      </trkpt>
      <trkpt lat="43.78198" lon="6.23188">
        <ele>618.3</ele>
        <time>2021-09-07T10:41:26.000Z</time>
      </trkpt>
      <trkpt lat="43.78198" lon="6.23189">
        <ele>618.4</ele>
        <time>2021-09-07T10:41:27.000Z</time>
      </trkpt>
      <trkpt lat="43.782" lon="6.23186">
        <ele>618.2</ele>
        <time>2021-09-07T10:41:27.000Z</time>
      </trkpt>
      <trkpt lat="43.78197" lon="6.23191">
        <ele>618.6</ele>
        <time>2021-09-07T10:41:28.000Z</time>
      </trkpt>
      <trkpt lat="43.78195" lon="6.23194">
        <ele>618.7</ele>
        <time>2021-09-07T10:41:29.000Z</time>
      </trkpt>
      <trkpt lat="43.78198" lon="6.23188">
        <ele>618.4</ele>
        <time>2021-09-07T10:41:29.000Z</time>
      </trkpt>
      <trkpt lat="43.78197" lon="6.2319">
        <ele>618.6</ele>
        <time>2021-09-07T10:41:30.000Z</time>
      </trkpt>
      <trkpt lat="43.78196" lon="6.23193">
        <ele>618.6</ele>
        <time>2021-09-07T10:41:31.000Z</time>
      </trkpt>
      <trkpt lat="43.78194" lon="6.23196">
        <ele>618.7</ele>
        <time>2021-09-07T10:41:32.000Z</time>
      </trkpt>
      <trkpt lat="43.78187" lon="6.23205">
        <ele>619.5</ele>
        <time>2021-09-07T10:41:34.000Z</time>
      </trkpt>
      <trkpt lat="43.78187" lon="6.23207">
        <ele>619.5</ele>
        <time>2021-09-07T10:41:35.000Z</time>
      </trkpt>
      <trkpt lat="43.78186" lon="6.23213">
        <ele>619.4</ele>
        <time>2021-09-07T10:41:37.000Z</time>
      </trkpt>
      <trkpt lat="43.78187" lon="6.23206">
        <ele>619.4</ele>
        <time>2021-09-07T10:41:37.000Z</time>
      </trkpt>
      <trkpt lat="43.78187" lon="6.2321">
        <ele>619.5</ele>
        <time>2021-09-07T10:41:38.000Z</time>
      </trkpt>
      <trkpt lat="43.78186" lon="6.23214">
        <ele>619.5</ele>
        <time>2021-09-07T10:41:40.000Z</time>
      </trkpt>
      <trkpt lat="43.78184" lon="6.23227">
        <ele>620.4</ele>
        <time>2021-09-07T10:41:41.000Z</time>
      </trkpt>
      <trkpt lat="43.78183" lon="6.23229">
        <ele>620.7</ele>
        <time>2021-09-07T10:41:44.000Z</time>
      </trkpt>
      <trkpt lat="43.78178" lon="6.23243">
        <ele>620.9</ele>
        <time>2021-09-07T10:41:45.000Z</time>
      </trkpt>
      <trkpt lat="43.78176" lon="6.23247">
        <ele>621.2</ele>
        <time>2021-09-07T10:41:46.000Z</time>
      </trkpt>
      <trkpt lat="43.78174" lon="6.2325">
        <ele>621.3</ele>
        <time>2021-09-07T10:41:47.000Z</time>
      </trkpt>
      <trkpt lat="43.78177" lon="6.23246">
        <ele>621.1</ele>
        <time>2021-09-07T10:41:48.000Z</time>
      </trkpt>
      <trkpt lat="43.78166" lon="6.23257">
        <ele>621.7</ele>
        <time>2021-09-07T10:41:50.000Z</time>
      </trkpt>
      <trkpt lat="43.78164" lon="6.23258">
        <ele>622</ele>
        <time>2021-09-07T10:41:53.000Z</time>
      </trkpt>
      <trkpt lat="43.78159" lon="6.23261">
        <ele>622</ele>
        <time>2021-09-07T10:41:53.000Z</time>
      </trkpt>
      <trkpt lat="43.78156" lon="6.23262">
        <ele>622.3</ele>
        <time>2021-09-07T10:41:54.000Z</time>
      </trkpt>
      <trkpt lat="43.78158" lon="6.23261">
        <ele>622.1</ele>
        <time>2021-09-07T10:41:56.000Z</time>
      </trkpt>
      <trkpt lat="43.78154" lon="6.23263">
        <ele>622.3</ele>
        <time>2021-09-07T10:41:57.000Z</time>
      </trkpt>
      <trkpt lat="43.78149" lon="6.23266">
        <ele>622.6</ele>
        <time>2021-09-07T10:41:57.000Z</time>
      </trkpt>
      <trkpt lat="43.78144" lon="6.23268">
        <ele>622.7</ele>
        <time>2021-09-07T10:41:59.000Z</time>
      </trkpt>
      <trkpt lat="43.78147" lon="6.23267">
        <ele>622.8</ele>
        <time>2021-09-07T10:42:00.000Z</time>
      </trkpt>
      <trkpt lat="43.78142" lon="6.23269">
        <ele>622.8</ele>
        <time>2021-09-07T10:42:02.000Z</time>
      </trkpt>
      <trkpt lat="43.78136" lon="6.23273">
        <ele>623.4</ele>
        <time>2021-09-07T10:42:02.000Z</time>
      </trkpt>
      <trkpt lat="43.78134" lon="6.23274">
        <ele>623.6</ele>
        <time>2021-09-07T10:42:03.000Z</time>
      </trkpt>
      <trkpt lat="43.78131" lon="6.23276">
        <ele>623.4</ele>
        <time>2021-09-07T10:42:04.000Z</time>
      </trkpt>
      <trkpt lat="43.78129" lon="6.23278">
        <ele>623.7</ele>
        <time>2021-09-07T10:42:05.000Z</time>
      </trkpt>
      <trkpt lat="43.78135" lon="6.23274">
        <ele>623.6</ele>
        <time>2021-09-07T10:42:05.000Z</time>
      </trkpt>
      <trkpt lat="43.78133" lon="6.23276">
        <ele>623.4</ele>
        <time>2021-09-07T10:42:06.000Z</time>
      </trkpt>
      <trkpt lat="43.7813" lon="6.23277">
        <ele>623.6</ele>
        <time>2021-09-07T10:42:07.000Z</time>
      </trkpt>
      <trkpt lat="43.78127" lon="6.23279">
        <ele>623.7</ele>
        <time>2021-09-07T10:42:08.000Z</time>
      </trkpt>
      <trkpt lat="43.78121" lon="6.23282">
        <ele>624</ele>
        <time>2021-09-07T10:42:08.000Z</time>
      </trkpt>
      <trkpt lat="43.78118" lon="6.23283">
        <ele>624.2</ele>
        <time>2021-09-07T10:42:09.000Z</time>
      </trkpt>
      <trkpt lat="43.78119" lon="6.23283">
        <ele>624</ele>
        <time>2021-09-07T10:42:11.000Z</time>
      </trkpt>
      <trkpt lat="43.78115" lon="6.23282">
        <ele>624.4</ele>
        <time>2021-09-07T10:42:12.000Z</time>
      </trkpt>
      <trkpt lat="43.78105" lon="6.2328">
        <ele>624.9</ele>
        <time>2021-09-07T10:42:13.000Z</time>
      </trkpt>
      <trkpt lat="43.78102" lon="6.23279">
        <ele>625</ele>
        <time>2021-09-07T10:42:14.000Z</time>
      </trkpt>
      <trkpt lat="43.78104" lon="6.2328">
        <ele>624.9</ele>
        <time>2021-09-07T10:42:16.000Z</time>
      </trkpt>
      <trkpt lat="43.781" lon="6.23277">
        <ele>625</ele>
        <time>2021-09-07T10:42:17.000Z</time>
      </trkpt>
      <trkpt lat="43.78091" lon="6.23268">
        <ele>625.8</ele>
        <time>2021-09-07T10:42:18.000Z</time>
      </trkpt>
      <trkpt lat="43.78089" lon="6.23265">
        <ele>626</ele>
        <time>2021-09-07T10:42:19.000Z</time>
      </trkpt>
      <trkpt lat="43.78087" lon="6.23261">
        <ele>626</ele>
        <time>2021-09-07T10:42:20.000Z</time>
      </trkpt>
      <trkpt lat="43.7809" lon="6.23266">
        <ele>626</ele>
        <time>2021-09-07T10:42:21.000Z</time>
      </trkpt>
      <trkpt lat="43.78083" lon="6.23248">
        <ele>626.4</ele>
        <time>2021-09-07T10:42:23.000Z</time>
      </trkpt>
      <trkpt lat="43.78082" lon="6.23244">
        <ele>626.5</ele>
        <time>2021-09-07T10:42:24.000Z</time>
      </trkpt>
      <trkpt lat="43.78081" lon="6.2324">
        <ele>626.6</ele>
        <time>2021-09-07T10:42:25.000Z</time>
      </trkpt>
      <trkpt lat="43.78083" lon="6.23246">
        <ele>626.4</ele>
        <time>2021-09-07T10:42:26.000Z</time>
      </trkpt>
      <trkpt lat="43.78081" lon="6.23241">
        <ele>626.6</ele>
        <time>2021-09-07T10:42:27.000Z</time>
      </trkpt>
      <trkpt lat="43.7808" lon="6.23236">
        <ele>626.6</ele>
        <time>2021-09-07T10:42:28.000Z</time>
      </trkpt>
      <trkpt lat="43.7808" lon="6.23228">
        <ele>627</ele>
        <time>2021-09-07T10:42:28.000Z</time>
      </trkpt>
      <trkpt lat="43.78079" lon="6.23225">
        <ele>627.3</ele>
        <time>2021-09-07T10:42:29.000Z</time>
      </trkpt>
      <trkpt lat="43.78078" lon="6.23221">
        <ele>627.4</ele>
        <time>2021-09-07T10:42:30.000Z</time>
      </trkpt>
      <trkpt lat="43.78079" lon="6.23226">
        <ele>627.1</ele>
        <time>2021-09-07T10:42:31.000Z</time>
      </trkpt>
      <trkpt lat="43.78078" lon="6.23217">
        <ele>627.6</ele>
        <time>2021-09-07T10:42:31.000Z</time>
      </trkpt>
      <trkpt lat="43.78076" lon="6.23212">
        <ele>628</ele>
        <time>2021-09-07T10:42:33.000Z</time>
      </trkpt>
      <trkpt lat="43.78077" lon="6.23215">
        <ele>627.7</ele>
        <time>2021-09-07T10:42:34.000Z</time>
      </trkpt>
      <trkpt lat="43.78075" lon="6.23205">
        <ele>628.1</ele>
        <time>2021-09-07T10:42:35.000Z</time>
      </trkpt>
      <trkpt lat="43.78076" lon="6.23208">
        <ele>628</ele>
        <time>2021-09-07T10:42:36.000Z</time>
      </trkpt>
      <trkpt lat="43.78073" lon="6.23203">
        <ele>628.2</ele>
        <time>2021-09-07T10:42:36.000Z</time>
      </trkpt>
      <trkpt lat="43.78068" lon="6.23198">
        <ele>629.1</ele>
        <time>2021-09-07T10:42:38.000Z</time>
      </trkpt>
      <trkpt lat="43.78066" lon="6.23196">
        <ele>629.1</ele>
        <time>2021-09-07T10:42:41.000Z</time>
      </trkpt>
      <trkpt lat="43.78061" lon="6.23191">
        <ele>629.4</ele>
        <time>2021-09-07T10:42:41.000Z</time>
      </trkpt>
      <trkpt lat="43.78058" lon="6.2319">
        <ele>629.6</ele>
        <time>2021-09-07T10:42:42.000Z</time>
      </trkpt>
      <trkpt lat="43.78055" lon="6.2319">
        <ele>629.6</ele>
        <time>2021-09-07T10:42:43.000Z</time>
      </trkpt>
      <trkpt lat="43.78059" lon="6.2319">
        <ele>629.5</ele>
        <time>2021-09-07T10:42:44.000Z</time>
      </trkpt>
      <trkpt lat="43.78056" lon="6.2319">
        <ele>629.6</ele>
        <time>2021-09-07T10:42:45.000Z</time>
      </trkpt>
      <trkpt lat="43.78052" lon="6.2319">
        <ele>629.6</ele>
        <time>2021-09-07T10:42:46.000Z</time>
      </trkpt>
      <trkpt lat="43.78043" lon="6.23192">
        <ele>630.2</ele>
        <time>2021-09-07T10:42:47.000Z</time>
      </trkpt>
      <trkpt lat="43.7804" lon="6.23194">
        <ele>630.3</ele>
        <time>2021-09-07T10:42:48.000Z</time>
      </trkpt>
      <trkpt lat="43.78041" lon="6.23193">
        <ele>630.4</ele>
        <time>2021-09-07T10:42:50.000Z</time>
      </trkpt>
      <trkpt lat="43.78038" lon="6.23195">
        <ele>630.2</ele>
        <time>2021-09-07T10:42:51.000Z</time>
      </trkpt>
      <trkpt lat="43.78031" lon="6.23207">
        <ele>630.5</ele>
        <time>2021-09-07T10:42:53.000Z</time>
      </trkpt>
      <trkpt lat="43.7803" lon="6.2321">
        <ele>630.8</ele>
        <time>2021-09-07T10:42:54.000Z</time>
      </trkpt>
      <trkpt lat="43.78029" lon="6.23213">
        <ele>630.9</ele>
        <time>2021-09-07T10:42:55.000Z</time>
      </trkpt>
      <trkpt lat="43.78026" lon="6.23221">
        <ele>631.1</ele>
        <time>2021-09-07T10:42:57.000Z</time>
      </trkpt>
      <trkpt lat="43.78025" lon="6.23225">
        <ele>631.4</ele>
        <time>2021-09-07T10:42:58.000Z</time>
      </trkpt>
      <trkpt lat="43.78028" lon="6.23217">
        <ele>631</ele>
        <time>2021-09-07T10:42:58.000Z</time>
      </trkpt>
      <trkpt lat="43.78023" lon="6.23228">
        <ele>631.7</ele>
        <time>2021-09-07T10:42:59.000Z</time>
      </trkpt>
      <trkpt lat="43.78021" lon="6.23232">
        <ele>631.9</ele>
        <time>2021-09-07T10:43:00.000Z</time>
      </trkpt>
      <trkpt lat="43.78025" lon="6.23224">
        <ele>631.3</ele>
        <time>2021-09-07T10:43:00.000Z</time>
      </trkpt>
      <trkpt lat="43.78024" lon="6.23227">
        <ele>631.5</ele>
        <time>2021-09-07T10:43:01.000Z</time>
      </trkpt>
      <trkpt lat="43.78012" lon="6.23242">
        <ele>632.3</ele>
        <time>2021-09-07T10:43:04.000Z</time>
      </trkpt>
      <trkpt lat="43.78009" lon="6.23244">
        <ele>632.4</ele>
        <time>2021-09-07T10:43:05.000Z</time>
      </trkpt>
      <trkpt lat="43.78006" lon="6.23246">
        <ele>632.1</ele>
        <time>2021-09-07T10:43:06.000Z</time>
      </trkpt>
      <trkpt lat="43.78013" lon="6.23241">
        <ele>632.4</ele>
        <time>2021-09-07T10:43:06.000Z</time>
      </trkpt>
      <trkpt lat="43.7801" lon="6.23243">
        <ele>632.3</ele>
        <time>2021-09-07T10:43:07.000Z</time>
      </trkpt>
      <trkpt lat="43.78008" lon="6.23245">
        <ele>632.4</ele>
        <time>2021-09-07T10:43:08.000Z</time>
      </trkpt>
      <trkpt lat="43.78005" lon="6.23246">
        <ele>632.1</ele>
        <time>2021-09-07T10:43:09.000Z</time>
      </trkpt>
      <trkpt lat="43.77996" lon="6.23244">
        <ele>632.7</ele>
        <time>2021-09-07T10:43:10.000Z</time>
      </trkpt>
      <trkpt lat="43.77993" lon="6.23244">
        <ele>633.1</ele>
        <time>2021-09-07T10:43:11.000Z</time>
      </trkpt>
      <trkpt lat="43.77991" lon="6.23243">
        <ele>633.3</ele>
        <time>2021-09-07T10:43:12.000Z</time>
      </trkpt>
      <trkpt lat="43.77988" lon="6.23242">
        <ele>633.4</ele>
        <time>2021-09-07T10:43:13.000Z</time>
      </trkpt>
      <trkpt lat="43.77994" lon="6.23244">
        <ele>633</ele>
        <time>2021-09-07T10:43:13.000Z</time>
      </trkpt>
      <trkpt lat="43.77992" lon="6.23244">
        <ele>633.2</ele>
        <time>2021-09-07T10:43:14.000Z</time>
      </trkpt>
      <trkpt lat="43.77989" lon="6.23243">
        <ele>633.3</ele>
        <time>2021-09-07T10:43:15.000Z</time>
      </trkpt>
      <trkpt lat="43.7798" lon="6.23239">
        <ele>633.6</ele>
        <time>2021-09-07T10:43:16.000Z</time>
      </trkpt>
      <trkpt lat="43.77978" lon="6.23238">
        <ele>633.9</ele>
        <time>2021-09-07T10:43:19.000Z</time>
      </trkpt>
      <trkpt lat="43.77966" lon="6.23238">
        <ele>634.7</ele>
        <time>2021-09-07T10:43:24.000Z</time>
      </trkpt>
      <trkpt lat="43.77957" lon="6.23242">
        <ele>635.4</ele>
        <time>2021-09-07T10:43:25.000Z</time>
      </trkpt>
      <trkpt lat="43.77955" lon="6.23245">
        <ele>635.2</ele>
        <time>2021-09-07T10:43:26.000Z</time>
      </trkpt>
      <trkpt lat="43.77952" lon="6.23251">
        <ele>635.3</ele>
        <time>2021-09-07T10:43:28.000Z</time>
      </trkpt>
      <trkpt lat="43.77956" lon="6.23244">
        <ele>635.2</ele>
        <time>2021-09-07T10:43:28.000Z</time>
      </trkpt>
      <trkpt lat="43.7795" lon="6.23253">
        <ele>635.4</ele>
        <time>2021-09-07T10:43:29.000Z</time>
      </trkpt>
      <trkpt lat="43.77954" lon="6.23246">
        <ele>635.1</ele>
        <time>2021-09-07T10:43:29.000Z</time>
      </trkpt>
      <trkpt lat="43.77949" lon="6.23256">
        <ele>635.5</ele>
        <time>2021-09-07T10:43:30.000Z</time>
      </trkpt>
      <trkpt lat="43.77948" lon="6.23257">
        <ele>635.6</ele>
        <time>2021-09-07T10:43:31.000Z</time>
      </trkpt>
      <trkpt lat="43.77951" lon="6.23252">
        <ele>635.5</ele>
        <time>2021-09-07T10:43:31.000Z</time>
      </trkpt>
      <trkpt lat="43.7795" lon="6.23254">
        <ele>635.3</ele>
        <time>2021-09-07T10:43:32.000Z</time>
      </trkpt>
      <trkpt lat="43.77948" lon="6.23257">
        <ele>635.6</ele>
        <time>2021-09-07T10:43:33.000Z</time>
      </trkpt>
      <trkpt lat="43.77947" lon="6.23259">
        <ele>635.7</ele>
        <time>2021-09-07T10:43:34.000Z</time>
      </trkpt>
      <trkpt lat="43.77943" lon="6.23266">
        <ele>636.2</ele>
        <time>2021-09-07T10:43:35.000Z</time>
      </trkpt>
      <trkpt lat="43.77941" lon="6.23271">
        <ele>636.5</ele>
        <time>2021-09-07T10:43:37.000Z</time>
      </trkpt>
      <trkpt lat="43.77943" lon="6.23267">
        <ele>636.3</ele>
        <time>2021-09-07T10:43:38.000Z</time>
      </trkpt>
      <trkpt lat="43.77941" lon="6.23273">
        <ele>636.5</ele>
        <time>2021-09-07T10:43:40.000Z</time>
      </trkpt>
      <trkpt lat="43.77937" lon="6.23279">
        <ele>636.9</ele>
        <time>2021-09-07T10:43:40.000Z</time>
      </trkpt>
      <trkpt lat="43.77937" lon="6.2328">
        <ele>637.1</ele>
        <time>2021-09-07T10:43:43.000Z</time>
      </trkpt>
      <trkpt lat="43.77934" lon="6.23289">
        <ele>637.3</ele>
        <time>2021-09-07T10:43:43.000Z</time>
      </trkpt>
      <trkpt lat="43.77931" lon="6.23294">
        <ele>637.5</ele>
        <time>2021-09-07T10:43:45.000Z</time>
      </trkpt>
      <trkpt lat="43.7793" lon="6.23297">
        <ele>637.7</ele>
        <time>2021-09-07T10:43:46.000Z</time>
      </trkpt>
      <trkpt lat="43.77933" lon="6.23291">
        <ele>637.2</ele>
        <time>2021-09-07T10:43:46.000Z</time>
      </trkpt>
      <trkpt lat="43.77929" lon="6.233">
        <ele>637.8</ele>
        <time>2021-09-07T10:43:47.000Z</time>
      </trkpt>
      <trkpt lat="43.7793" lon="6.23296">
        <ele>637.6</ele>
        <time>2021-09-07T10:43:48.000Z</time>
      </trkpt>
      <trkpt lat="43.77926" lon="6.23308">
        <ele>638.1</ele>
        <time>2021-09-07T10:43:49.000Z</time>
      </trkpt>
      <trkpt lat="43.77929" lon="6.23298">
        <ele>637.8</ele>
        <time>2021-09-07T10:43:49.000Z</time>
      </trkpt>
      <trkpt lat="43.77924" lon="6.23311">
        <ele>638</ele>
        <time>2021-09-07T10:43:50.000Z</time>
      </trkpt>
      <trkpt lat="43.77928" lon="6.23302">
        <ele>637.8</ele>
        <time>2021-09-07T10:43:50.000Z</time>
      </trkpt>
      <trkpt lat="43.77925" lon="6.23309">
        <ele>638.1</ele>
        <time>2021-09-07T10:43:52.000Z</time>
      </trkpt>
      <trkpt lat="43.77923" lon="6.23312">
        <ele>638.1</ele>
        <time>2021-09-07T10:43:53.000Z</time>
      </trkpt>
      <trkpt lat="43.77916" lon="6.23318">
        <ele>638.9</ele>
        <time>2021-09-07T10:43:54.000Z</time>
      </trkpt>
      <trkpt lat="43.77914" lon="6.2332">
        <ele>639</ele>
        <time>2021-09-07T10:43:55.000Z</time>
      </trkpt>
      <trkpt lat="43.77911" lon="6.23322">
        <ele>638.9</ele>
        <time>2021-09-07T10:43:56.000Z</time>
      </trkpt>
      <trkpt lat="43.77915" lon="6.23319">
        <ele>639</ele>
        <time>2021-09-07T10:43:57.000Z</time>
      </trkpt>
      <trkpt lat="43.77906" lon="6.23322">
        <ele>639.1</ele>
        <time>2021-09-07T10:43:58.000Z</time>
      </trkpt>
      <trkpt lat="43.77913" lon="6.23321">
        <ele>639</ele>
        <time>2021-09-07T10:43:58.000Z</time>
      </trkpt>
      <trkpt lat="43.77909" lon="6.23322">
        <ele>639</ele>
        <time>2021-09-07T10:43:59.000Z</time>
      </trkpt>
      <trkpt lat="43.77905" lon="6.23322">
        <ele>639.2</ele>
        <time>2021-09-07T10:44:01.000Z</time>
      </trkpt>
      <trkpt lat="43.77895" lon="6.2332">
        <ele>639.8</ele>
        <time>2021-09-07T10:44:01.000Z</time>
      </trkpt>
      <trkpt lat="43.77889" lon="6.23316">
        <ele>640.5</ele>
        <time>2021-09-07T10:44:03.000Z</time>
      </trkpt>
      <trkpt lat="43.77893" lon="6.23319">
        <ele>640</ele>
        <time>2021-09-07T10:44:04.000Z</time>
      </trkpt>
      <trkpt lat="43.77887" lon="6.23313">
        <ele>640.6</ele>
        <time>2021-09-07T10:44:06.000Z</time>
      </trkpt>
      <trkpt lat="43.77883" lon="6.23308">
        <ele>641.2</ele>
        <time>2021-09-07T10:44:06.000Z</time>
      </trkpt>
      <trkpt lat="43.77882" lon="6.23306">
        <ele>641.2</ele>
        <time>2021-09-07T10:44:09.000Z</time>
      </trkpt>
      <trkpt lat="43.77877" lon="6.23291">
        <ele>642</ele>
        <time>2021-09-07T10:44:11.000Z</time>
      </trkpt>
      <trkpt lat="43.77877" lon="6.2329">
        <ele>642.2</ele>
        <time>2021-09-07T10:44:14.000Z</time>
      </trkpt>
      <trkpt lat="43.77876" lon="6.23283">
        <ele>642.5</ele>
        <time>2021-09-07T10:44:14.000Z</time>
      </trkpt>
      <trkpt lat="43.77876" lon="6.23283">
        <ele>642.5</ele>
        <time>2021-09-07T10:44:14.000Z</time>
      </trkpt>
      <trkpt lat="43.77875" lon="6.23281">
        <ele>642.6</ele>
        <time>2021-09-07T10:44:15.000Z</time>
      </trkpt>
      <trkpt lat="43.77874" lon="6.23276">
        <ele>643.1</ele>
        <time>2021-09-07T10:44:17.000Z</time>
      </trkpt>
      <trkpt lat="43.77876" lon="6.23282">
        <ele>642.6</ele>
        <time>2021-09-07T10:44:17.000Z</time>
      </trkpt>
      <trkpt lat="43.77875" lon="6.2328">
        <ele>642.7</ele>
        <time>2021-09-07T10:44:18.000Z</time>
      </trkpt>
      <trkpt lat="43.77875" lon="6.23273">
        <ele>643.1</ele>
        <time>2021-09-07T10:44:18.000Z</time>
      </trkpt>
      <trkpt lat="43.77873" lon="6.2327">
        <ele>643.3</ele>
        <time>2021-09-07T10:44:20.000Z</time>
      </trkpt>
      <trkpt lat="43.77872" lon="6.23269">
        <ele>643.3</ele>
        <time>2021-09-07T10:44:23.000Z</time>
      </trkpt>
      <trkpt lat="43.77868" lon="6.23264">
        <ele>643.8</ele>
        <time>2021-09-07T10:44:23.000Z</time>
      </trkpt>
      <trkpt lat="43.77864" lon="6.2326">
        <ele>643.8</ele>
        <time>2021-09-07T10:44:25.000Z</time>
      </trkpt>
      <trkpt lat="43.77866" lon="6.23262">
        <ele>643.7</ele>
        <time>2021-09-07T10:44:26.000Z</time>
      </trkpt>
      <trkpt lat="43.77862" lon="6.23258">
        <ele>644</ele>
        <time>2021-09-07T10:44:28.000Z</time>
      </trkpt>
      <trkpt lat="43.7785" lon="6.23255">
        <ele>644.5</ele>
        <time>2021-09-07T10:44:30.000Z</time>
      </trkpt>
      <trkpt lat="43.77847" lon="6.23254">
        <ele>644.5</ele>
        <time>2021-09-07T10:44:33.000Z</time>
      </trkpt>
      <trkpt lat="43.7784" lon="6.23253">
        <ele>644.9</ele>
        <time>2021-09-07T10:44:33.000Z</time>
      </trkpt>
      <trkpt lat="43.77837" lon="6.23254">
        <ele>644.9</ele>
        <time>2021-09-07T10:44:34.000Z</time>
      </trkpt>
      <trkpt lat="43.77835" lon="6.23254">
        <ele>644.9</ele>
        <time>2021-09-07T10:44:36.000Z</time>
      </trkpt>
      <trkpt lat="43.77833" lon="6.23255">
        <ele>644.7</ele>
        <time>2021-09-07T10:44:37.000Z</time>
      </trkpt>
      <trkpt lat="43.77831" lon="6.23258">
        <ele>644.9</ele>
        <time>2021-09-07T10:44:38.000Z</time>
      </trkpt>
      <trkpt lat="43.77833" lon="6.23255">
        <ele>644.7</ele>
        <time>2021-09-07T10:44:38.000Z</time>
      </trkpt>
      <trkpt lat="43.77832" lon="6.23256">
        <ele>644.6</ele>
        <time>2021-09-07T10:44:39.000Z</time>
      </trkpt>
      <trkpt lat="43.7783" lon="6.23259">
        <ele>644.9</ele>
        <time>2021-09-07T10:44:40.000Z</time>
      </trkpt>
      <trkpt lat="43.77827" lon="6.23262">
        <ele>645</ele>
        <time>2021-09-07T10:44:41.000Z</time>
      </trkpt>
      <trkpt lat="43.77826" lon="6.23263">
        <ele>644.9</ele>
        <time>2021-09-07T10:44:42.000Z</time>
      </trkpt>
      <trkpt lat="43.77829" lon="6.23263">
        <ele>644.7</ele>
        <time>2021-09-07T10:44:47.000Z</time>
      </trkpt>
      <trkpt lat="43.77829" lon="6.23263">
        <ele>644.7</ele>
        <time>2021-09-07T10:44:49.000Z</time>
      </trkpt>
      <trkpt lat="43.77829" lon="6.23263">
        <ele>644.6</ele>
        <time>2021-09-07T10:44:54.000Z</time>
      </trkpt>
      <trkpt lat="43.77829" lon="6.23264">
        <ele>644.6</ele>
        <time>2021-09-07T10:44:59.000Z</time>
      </trkpt>
      <trkpt lat="43.77828" lon="6.23263">
        <ele>644.4</ele>
        <time>2021-09-07T10:45:04.000Z</time>
      </trkpt>
      <trkpt lat="43.77828" lon="6.23263">
        <ele>644.4</ele>
        <time>2021-09-07T10:45:05.000Z</time>
      </trkpt>
      <trkpt lat="43.77828" lon="6.23263">
        <ele>644.3</ele>
        <time>2021-09-07T10:45:10.000Z</time>
      </trkpt>
      <trkpt lat="43.77828" lon="6.23263">
        <ele>644</ele>
        <time>2021-09-07T10:45:10.000Z</time>
      </trkpt>
      <trkpt lat="43.77829" lon="6.23261">
        <ele>643.9</ele>
        <time>2021-09-07T10:45:11.000Z</time>
      </trkpt>
      <trkpt lat="43.77835" lon="6.23258">
        <ele>643.9</ele>
        <time>2021-09-07T10:45:16.000Z</time>
      </trkpt>
      <trkpt lat="43.77837" lon="6.23258">
        <ele>643.8</ele>
        <time>2021-09-07T10:45:16.000Z</time>
      </trkpt>
      <trkpt lat="43.77837" lon="6.23258">
        <ele>643.8</ele>
        <time>2021-09-07T10:45:16.000Z</time>
      </trkpt>
      <trkpt lat="43.77839" lon="6.23258">
        <ele>643.8</ele>
        <time>2021-09-07T10:45:17.000Z</time>
      </trkpt>
      <trkpt lat="43.77841" lon="6.23258">
        <ele>643.9</ele>
        <time>2021-09-07T10:45:18.000Z</time>
      </trkpt>
      <trkpt lat="43.77838" lon="6.23258">
        <ele>643.8</ele>
        <time>2021-09-07T10:45:18.000Z</time>
      </trkpt>
      <trkpt lat="43.7784" lon="6.23258">
        <ele>643.8</ele>
        <time>2021-09-07T10:45:19.000Z</time>
      </trkpt>
      <trkpt lat="43.77842" lon="6.23259">
        <ele>643.8</ele>
        <time>2021-09-07T10:45:20.000Z</time>
      </trkpt>
      <trkpt lat="43.77845" lon="6.23261">
        <ele>643.6</ele>
        <time>2021-09-07T10:45:22.000Z</time>
      </trkpt>
      <trkpt lat="43.77846" lon="6.23261">
        <ele>643.7</ele>
        <time>2021-09-07T10:45:23.000Z</time>
      </trkpt>
      <trkpt lat="43.77845" lon="6.23261">
        <ele>643.6</ele>
        <time>2021-09-07T10:45:24.000Z</time>
      </trkpt>
      <trkpt lat="43.77846" lon="6.23261">
        <ele>643.7</ele>
        <time>2021-09-07T10:45:25.000Z</time>
      </trkpt>
      <trkpt lat="43.77847" lon="6.23262">
        <ele>643.7</ele>
        <time>2021-09-07T10:45:26.000Z</time>
      </trkpt>
      <trkpt lat="43.7785" lon="6.23263">
        <ele>643.6</ele>
        <time>2021-09-07T10:45:28.000Z</time>
      </trkpt>
      <trkpt lat="43.77851" lon="6.23263">
        <ele>643.6</ele>
        <time>2021-09-07T10:45:29.000Z</time>
      </trkpt>
      <trkpt lat="43.7785" lon="6.23263">
        <ele>643.6</ele>
        <time>2021-09-07T10:45:30.000Z</time>
      </trkpt>
      <trkpt lat="43.77851" lon="6.23264">
        <ele>643.6</ele>
        <time>2021-09-07T10:45:31.000Z</time>
      </trkpt>
      <trkpt lat="43.77852" lon="6.23265">
        <ele>643.5</ele>
        <time>2021-09-07T10:45:32.000Z</time>
      </trkpt>
      <trkpt lat="43.77852" lon="6.23264">
        <ele>643.5</ele>
        <time>2021-09-07T10:45:35.000Z</time>
      </trkpt>
      <trkpt lat="43.77852" lon="6.23263">
        <ele>643.5</ele>
        <time>2021-09-07T10:45:35.000Z</time>
      </trkpt>
      <trkpt lat="43.77852" lon="6.23262">
        <ele>643.7</ele>
        <time>2021-09-07T10:45:37.000Z</time>
      </trkpt>
      <trkpt lat="43.77852" lon="6.23262">
        <ele>643.4</ele>
        <time>2021-09-07T10:45:39.000Z</time>
      </trkpt>
      <trkpt lat="43.77852" lon="6.23262">
        <ele>643.6</ele>
        <time>2021-09-07T10:45:40.000Z</time>
      </trkpt>
      <trkpt lat="43.77852" lon="6.23262">
        <ele>643.4</ele>
        <time>2021-09-07T10:45:42.000Z</time>
      </trkpt>
      <trkpt lat="43.77852" lon="6.23262">
        <ele>643.3</ele>
        <time>2021-09-07T10:45:47.000Z</time>
      </trkpt>
      <trkpt lat="43.77852" lon="6.23262">
        <ele>643.5</ele>
        <time>2021-09-07T10:45:52.000Z</time>
      </trkpt>
      <trkpt lat="43.77852" lon="6.23262">
        <ele>643.7</ele>
        <time>2021-09-07T10:45:53.000Z</time>
      </trkpt>
      <trkpt lat="43.77852" lon="6.23262">
        <ele>643.5</ele>
        <time>2021-09-07T10:45:56.000Z</time>
      </trkpt>
      <trkpt lat="43.77852" lon="6.23262">
        <ele>643.7</ele>
        <time>2021-09-07T10:45:58.000Z</time>
      </trkpt>
      <trkpt lat="43.77852" lon="6.23262">
        <ele>643.6</ele>
        <time>2021-09-07T10:46:01.000Z</time>
      </trkpt>
      <trkpt lat="43.77853" lon="6.23262">
        <ele>643.8</ele>
        <time>2021-09-07T10:46:04.000Z</time>
      </trkpt>
      <trkpt lat="43.77853" lon="6.23262">
        <ele>643.7</ele>
        <time>2021-09-07T10:46:09.000Z</time>
      </trkpt>
      <trkpt lat="43.77853" lon="6.23262">
        <ele>643.7</ele>
        <time>2021-09-07T10:46:14.000Z</time>
      </trkpt>
      <trkpt lat="43.77853" lon="6.23262">
        <ele>643.9</ele>
        <time>2021-09-07T10:46:19.000Z</time>
      </trkpt>
      <trkpt lat="43.77854" lon="6.23262">
        <ele>643.7</ele>
        <time>2021-09-07T10:46:21.000Z</time>
      </trkpt>
      <trkpt lat="43.77854" lon="6.23262">
        <ele>643.7</ele>
        <time>2021-09-07T10:46:22.000Z</time>
      </trkpt>
      <trkpt lat="43.77854" lon="6.23262">
        <ele>643.7</ele>
        <time>2021-09-07T10:46:27.000Z</time>
      </trkpt>
      <trkpt lat="43.77854" lon="6.23262">
        <ele>643.7</ele>
        <time>2021-09-07T10:46:28.000Z</time>
      </trkpt>
      <trkpt lat="43.77854" lon="6.23262">
        <ele>643.6</ele>
        <time>2021-09-07T10:46:33.000Z</time>
      </trkpt>
      <trkpt lat="43.77855" lon="6.23261">
        <ele>643.7</ele>
        <time>2021-09-07T10:46:35.000Z</time>
      </trkpt>
      <trkpt lat="43.77855" lon="6.23261">
        <ele>644.1</ele>
        <time>2021-09-07T10:46:39.000Z</time>
      </trkpt>
      <trkpt lat="43.77855" lon="6.2326">
        <ele>644.3</ele>
        <time>2021-09-07T10:46:44.000Z</time>
      </trkpt>
      <trkpt lat="43.7785" lon="6.23257">
        <ele>643.9</ele>
        <time>2021-09-07T10:46:49.000Z</time>
      </trkpt>
      <trkpt lat="43.77848" lon="6.23256">
        <ele>643.8</ele>
        <time>2021-09-07T10:46:49.000Z</time>
      </trkpt>
      <trkpt lat="43.77847" lon="6.23257">
        <ele>643.9</ele>
        <time>2021-09-07T10:46:51.000Z</time>
      </trkpt>
      <trkpt lat="43.77842" lon="6.23258">
        <ele>644.1</ele>
        <time>2021-09-07T10:46:53.000Z</time>
      </trkpt>
      <trkpt lat="43.77841" lon="6.23258">
        <ele>644.4</ele>
        <time>2021-09-07T10:46:54.000Z</time>
      </trkpt>
      <trkpt lat="43.77841" lon="6.23258">
        <ele>644.3</ele>
        <time>2021-09-07T10:46:55.000Z</time>
      </trkpt>
      <trkpt lat="43.7784" lon="6.23258">
        <ele>644.2</ele>
        <time>2021-09-07T10:46:56.000Z</time>
      </trkpt>
      <trkpt lat="43.77835" lon="6.23258">
        <ele>644.4</ele>
        <time>2021-09-07T10:46:59.000Z</time>
      </trkpt>
      <trkpt lat="43.77833" lon="6.23258">
        <ele>644.4</ele>
        <time>2021-09-07T10:47:00.000Z</time>
      </trkpt>
      <trkpt lat="43.77832" lon="6.23258">
        <ele>644.4</ele>
        <time>2021-09-07T10:47:01.000Z</time>
      </trkpt>
      <trkpt lat="43.77834" lon="6.23258">
        <ele>644.5</ele>
        <time>2021-09-07T10:47:01.000Z</time>
      </trkpt>
      <trkpt lat="43.77832" lon="6.23258">
        <ele>644.4</ele>
        <time>2021-09-07T10:47:02.000Z</time>
      </trkpt>
      <trkpt lat="43.7783" lon="6.23258">
        <ele>644.6</ele>
        <time>2021-09-07T10:47:02.000Z</time>
      </trkpt>
      <trkpt lat="43.77825" lon="6.23258">
        <ele>644.5</ele>
        <time>2021-09-07T10:47:05.000Z</time>
      </trkpt>
      <trkpt lat="43.77823" lon="6.23259">
        <ele>644.8</ele>
        <time>2021-09-07T10:47:06.000Z</time>
      </trkpt>
      <trkpt lat="43.77822" lon="6.23259">
        <ele>644.8</ele>
        <time>2021-09-07T10:47:07.000Z</time>
      </trkpt>
      <trkpt lat="43.7782" lon="6.23259">
        <ele>645</ele>
        <time>2021-09-07T10:47:08.000Z</time>
      </trkpt>
      <trkpt lat="43.77818" lon="6.23259">
        <ele>645.1</ele>
        <time>2021-09-07T10:47:09.000Z</time>
      </trkpt>
      <trkpt lat="43.77817" lon="6.23259">
        <ele>645.2</ele>
        <time>2021-09-07T10:47:10.000Z</time>
      </trkpt>
      <trkpt lat="43.77815" lon="6.23258">
        <ele>645.2</ele>
        <time>2021-09-07T10:47:11.000Z</time>
      </trkpt>
      <trkpt lat="43.77817" lon="6.23258">
        <ele>645.1</ele>
        <time>2021-09-07T10:47:11.000Z</time>
      </trkpt>
      <trkpt lat="43.77813" lon="6.23258">
        <ele>645.2</ele>
        <time>2021-09-07T10:47:12.000Z</time>
      </trkpt>
      <trkpt lat="43.77815" lon="6.23259">
        <ele>645.2</ele>
        <time>2021-09-07T10:47:12.000Z</time>
      </trkpt>
      <trkpt lat="43.77811" lon="6.23257">
        <ele>645.5</ele>
        <time>2021-09-07T10:47:13.000Z</time>
      </trkpt>
      <trkpt lat="43.77814" lon="6.23258">
        <ele>645.1</ele>
        <time>2021-09-07T10:47:13.000Z</time>
      </trkpt>
      <trkpt lat="43.77812" lon="6.23258">
        <ele>645.5</ele>
        <time>2021-09-07T10:47:14.000Z</time>
      </trkpt>
      <trkpt lat="43.77809" lon="6.23257">
        <ele>645.8</ele>
        <time>2021-09-07T10:47:15.000Z</time>
      </trkpt>
      <trkpt lat="43.778" lon="6.23254">
        <ele>646.3</ele>
        <time>2021-09-07T10:47:18.000Z</time>
      </trkpt>
      <trkpt lat="43.77798" lon="6.23253">
        <ele>646.4</ele>
        <time>2021-09-07T10:47:19.000Z</time>
      </trkpt>
      <trkpt lat="43.77791" lon="6.23253">
        <ele>646.7</ele>
        <time>2021-09-07T10:47:22.000Z</time>
      </trkpt>
      <trkpt lat="43.77789" lon="6.23252">
        <ele>646.8</ele>
        <time>2021-09-07T10:47:23.000Z</time>
      </trkpt>
      <trkpt lat="43.7779" lon="6.23252">
        <ele>646.8</ele>
        <time>2021-09-07T10:47:24.000Z</time>
      </trkpt>
      <trkpt lat="43.77787" lon="6.23252">
        <ele>646.9</ele>
        <time>2021-09-07T10:47:25.000Z</time>
      </trkpt>
      <trkpt lat="43.77777" lon="6.23252">
        <ele>647.5</ele>
        <time>2021-09-07T10:47:28.000Z</time>
      </trkpt>
      <trkpt lat="43.77776" lon="6.23252">
        <ele>647.6</ele>
        <time>2021-09-07T10:47:30.000Z</time>
      </trkpt>
      <trkpt lat="43.77769" lon="6.23252">
        <ele>648</ele>
        <time>2021-09-07T10:47:32.000Z</time>
      </trkpt>
      <trkpt lat="43.77768" lon="6.23252">
        <ele>648</ele>
        <time>2021-09-07T10:47:34.000Z</time>
      </trkpt>
      <trkpt lat="43.77763" lon="6.23252">
        <ele>648.2</ele>
        <time>2021-09-07T10:47:35.000Z</time>
      </trkpt>
      <trkpt lat="43.77761" lon="6.23252">
        <ele>648.1</ele>
        <time>2021-09-07T10:47:36.000Z</time>
      </trkpt>
      <trkpt lat="43.77758" lon="6.23253">
        <ele>648.3</ele>
        <time>2021-09-07T10:47:37.000Z</time>
      </trkpt>
      <trkpt lat="43.77761" lon="6.23252">
        <ele>648.2</ele>
        <time>2021-09-07T10:47:37.000Z</time>
      </trkpt>
      <trkpt lat="43.77759" lon="6.23252">
        <ele>648.3</ele>
        <time>2021-09-07T10:47:38.000Z</time>
      </trkpt>
      <trkpt lat="43.77756" lon="6.23253">
        <ele>648.3</ele>
        <time>2021-09-07T10:47:38.000Z</time>
      </trkpt>
      <trkpt lat="43.77747" lon="6.23259">
        <ele>649.5</ele>
        <time>2021-09-07T10:47:42.000Z</time>
      </trkpt>
      <trkpt lat="43.77748" lon="6.23258">
        <ele>649.5</ele>
        <time>2021-09-07T10:47:43.000Z</time>
      </trkpt>
      <trkpt lat="43.77747" lon="6.2326">
        <ele>649.6</ele>
        <time>2021-09-07T10:47:44.000Z</time>
      </trkpt>
      <trkpt lat="43.77743" lon="6.23265">
        <ele>649.7</ele>
        <time>2021-09-07T10:47:45.000Z</time>
      </trkpt>
      <trkpt lat="43.77742" lon="6.23266">
        <ele>649.8</ele>
        <time>2021-09-07T10:47:47.000Z</time>
      </trkpt>
      <trkpt lat="43.77741" lon="6.23274">
        <ele>649.9</ele>
        <time>2021-09-07T10:47:49.000Z</time>
      </trkpt>
      <trkpt lat="43.7774" lon="6.23276">
        <ele>650.1</ele>
        <time>2021-09-07T10:47:50.000Z</time>
      </trkpt>
      <trkpt lat="43.7774" lon="6.23276">
        <ele>650</ele>
        <time>2021-09-07T10:47:51.000Z</time>
      </trkpt>
      <trkpt lat="43.7774" lon="6.23278">
        <ele>650.1</ele>
        <time>2021-09-07T10:47:52.000Z</time>
      </trkpt>
      <trkpt lat="43.7774" lon="6.23285">
        <ele>650.5</ele>
        <time>2021-09-07T10:47:53.000Z</time>
      </trkpt>
      <trkpt lat="43.77739" lon="6.23289">
        <ele>650.5</ele>
        <time>2021-09-07T10:47:54.000Z</time>
      </trkpt>
      <trkpt lat="43.77739" lon="6.23293">
        <ele>650.9</ele>
        <time>2021-09-07T10:47:55.000Z</time>
      </trkpt>
      <trkpt lat="43.77739" lon="6.23288">
        <ele>650.5</ele>
        <time>2021-09-07T10:47:55.000Z</time>
      </trkpt>
      <trkpt lat="43.77739" lon="6.23291">
        <ele>650.8</ele>
        <time>2021-09-07T10:47:56.000Z</time>
      </trkpt>
      <trkpt lat="43.77738" lon="6.23296">
        <ele>651.1</ele>
        <time>2021-09-07T10:47:56.000Z</time>
      </trkpt>
      <trkpt lat="43.77738" lon="6.23306">
        <ele>651.3</ele>
        <time>2021-09-07T10:47:59.000Z</time>
      </trkpt>
      <trkpt lat="43.77737" lon="6.23309">
        <ele>651.4</ele>
        <time>2021-09-07T10:48:01.000Z</time>
      </trkpt>
      <trkpt lat="43.77736" lon="6.23325">
        <ele>651.9</ele>
        <time>2021-09-07T10:48:05.000Z</time>
      </trkpt>
      <trkpt lat="43.77736" lon="6.23328">
        <ele>652.1</ele>
        <time>2021-09-07T10:48:06.000Z</time>
      </trkpt>
      <trkpt lat="43.77736" lon="6.23324">
        <ele>651.8</ele>
        <time>2021-09-07T10:48:06.000Z</time>
      </trkpt>
      <trkpt lat="43.77736" lon="6.23327">
        <ele>652.1</ele>
        <time>2021-09-07T10:48:07.000Z</time>
      </trkpt>
      <trkpt lat="43.77735" lon="6.2333">
        <ele>652</ele>
        <time>2021-09-07T10:48:08.000Z</time>
      </trkpt>
      <trkpt lat="43.77734" lon="6.23332">
        <ele>652</ele>
        <time>2021-09-07T10:48:08.000Z</time>
      </trkpt>
      <trkpt lat="43.77733" lon="6.23333">
        <ele>652.2</ele>
        <time>2021-09-07T10:48:10.000Z</time>
      </trkpt>
      <trkpt lat="43.77731" lon="6.23335">
        <ele>652.4</ele>
        <time>2021-09-07T10:48:10.000Z</time>
      </trkpt>
      <trkpt lat="43.77731" lon="6.23335">
        <ele>652.4</ele>
        <time>2021-09-07T10:48:12.000Z</time>
      </trkpt>
      <trkpt lat="43.77727" lon="6.23337">
        <ele>652.5</ele>
        <time>2021-09-07T10:48:12.000Z</time>
      </trkpt>
      <trkpt lat="43.77725" lon="6.23337">
        <ele>652.8</ele>
        <time>2021-09-07T10:48:13.000Z</time>
      </trkpt>
      <trkpt lat="43.77725" lon="6.23337">
        <ele>652.8</ele>
        <time>2021-09-07T10:48:14.000Z</time>
      </trkpt>
      <trkpt lat="43.77723" lon="6.23337">
        <ele>652.8</ele>
        <time>2021-09-07T10:48:15.000Z</time>
      </trkpt>
      <trkpt lat="43.77718" lon="6.23336">
        <ele>653.5</ele>
        <time>2021-09-07T10:48:16.000Z</time>
      </trkpt>
      <trkpt lat="43.77715" lon="6.23334">
        <ele>653.7</ele>
        <time>2021-09-07T10:48:17.000Z</time>
      </trkpt>
      <trkpt lat="43.77716" lon="6.23335">
        <ele>653.6</ele>
        <time>2021-09-07T10:48:18.000Z</time>
      </trkpt>
      <trkpt lat="43.77713" lon="6.23333">
        <ele>653.9</ele>
        <time>2021-09-07T10:48:18.000Z</time>
      </trkpt>
      <trkpt lat="43.77711" lon="6.23331">
        <ele>654</ele>
        <time>2021-09-07T10:48:19.000Z</time>
      </trkpt>
      <trkpt lat="43.77709" lon="6.23329">
        <ele>654</ele>
        <time>2021-09-07T10:48:20.000Z</time>
      </trkpt>
      <trkpt lat="43.77701" lon="6.23322">
        <ele>654.4</ele>
        <time>2021-09-07T10:48:23.000Z</time>
      </trkpt>
      <trkpt lat="43.77699" lon="6.23321">
        <ele>654.7</ele>
        <time>2021-09-07T10:48:25.000Z</time>
      </trkpt>
      <trkpt lat="43.77694" lon="6.23315">
        <ele>654.8</ele>
        <time>2021-09-07T10:48:26.000Z</time>
      </trkpt>
      <trkpt lat="43.77693" lon="6.23313">
        <ele>655</ele>
        <time>2021-09-07T10:48:28.000Z</time>
      </trkpt>
      <trkpt lat="43.77691" lon="6.2331">
        <ele>655.4</ele>
        <time>2021-09-07T10:48:28.000Z</time>
      </trkpt>
      <trkpt lat="43.7769" lon="6.23309">
        <ele>655.6</ele>
        <time>2021-09-07T10:48:30.000Z</time>
      </trkpt>
      <trkpt lat="43.77686" lon="6.23305">
        <ele>655.8</ele>
        <time>2021-09-07T10:48:30.000Z</time>
      </trkpt>
      <trkpt lat="43.77684" lon="6.23304">
        <ele>655.7</ele>
        <time>2021-09-07T10:48:31.000Z</time>
      </trkpt>
      <trkpt lat="43.77683" lon="6.23302">
        <ele>655.8</ele>
        <time>2021-09-07T10:48:32.000Z</time>
      </trkpt>
      <trkpt lat="43.77685" lon="6.23304">
        <ele>655.7</ele>
        <time>2021-09-07T10:48:32.000Z</time>
      </trkpt>
      <trkpt lat="43.77681" lon="6.23299">
        <ele>655.7</ele>
        <time>2021-09-07T10:48:33.000Z</time>
      </trkpt>
      <trkpt lat="43.77683" lon="6.23302">
        <ele>655.7</ele>
        <time>2021-09-07T10:48:33.000Z</time>
      </trkpt>
      <trkpt lat="43.77679" lon="6.23297">
        <ele>655.7</ele>
        <time>2021-09-07T10:48:34.000Z</time>
      </trkpt>
      <trkpt lat="43.77681" lon="6.233">
        <ele>655.7</ele>
        <time>2021-09-07T10:48:34.000Z</time>
      </trkpt>
      <trkpt lat="43.7768" lon="6.23298">
        <ele>655.7</ele>
        <time>2021-09-07T10:48:35.000Z</time>
      </trkpt>
      <trkpt lat="43.77678" lon="6.23295">
        <ele>655.8</ele>
        <time>2021-09-07T10:48:36.000Z</time>
      </trkpt>
      <trkpt lat="43.77671" lon="6.23283">
        <ele>656.5</ele>
        <time>2021-09-07T10:48:39.000Z</time>
      </trkpt>
      <trkpt lat="43.77671" lon="6.23282">
        <ele>656.7</ele>
        <time>2021-09-07T10:48:41.000Z</time>
      </trkpt>
      <trkpt lat="43.77668" lon="6.23277">
        <ele>656.7</ele>
        <time>2021-09-07T10:48:41.000Z</time>
      </trkpt>
      <trkpt lat="43.77666" lon="6.23275">
        <ele>656.9</ele>
        <time>2021-09-07T10:48:42.000Z</time>
      </trkpt>
      <trkpt lat="43.77667" lon="6.23275">
        <ele>656.7</ele>
        <time>2021-09-07T10:48:43.000Z</time>
      </trkpt>
      <trkpt lat="43.77665" lon="6.23273">
        <ele>657</ele>
        <time>2021-09-07T10:48:44.000Z</time>
      </trkpt>
      <trkpt lat="43.7766" lon="6.23268">
        <ele>657.2</ele>
        <time>2021-09-07T10:48:45.000Z</time>
      </trkpt>
      <trkpt lat="43.7766" lon="6.23267">
        <ele>657.2</ele>
        <time>2021-09-07T10:48:47.000Z</time>
      </trkpt>
      <trkpt lat="43.77655" lon="6.23264">
        <ele>657.6</ele>
        <time>2021-09-07T10:48:47.000Z</time>
      </trkpt>
      <trkpt lat="43.77653" lon="6.23263">
        <ele>657.6</ele>
        <time>2021-09-07T10:48:48.000Z</time>
      </trkpt>
      <trkpt lat="43.77653" lon="6.23263">
        <ele>657.6</ele>
        <time>2021-09-07T10:48:49.000Z</time>
      </trkpt>
      <trkpt lat="43.7765" lon="6.23261">
        <ele>657.7</ele>
        <time>2021-09-07T10:48:50.000Z</time>
      </trkpt>
      <trkpt lat="43.77639" lon="6.23257">
        <ele>658.3</ele>
        <time>2021-09-07T10:48:55.000Z</time>
      </trkpt>
      <trkpt lat="43.77635" lon="6.23257">
        <ele>658.5</ele>
        <time>2021-09-07T10:48:55.000Z</time>
      </trkpt>
      <trkpt lat="43.77632" lon="6.23258">
        <ele>658.6</ele>
        <time>2021-09-07T10:48:56.000Z</time>
      </trkpt>
      <trkpt lat="43.77633" lon="6.23258">
        <ele>658.5</ele>
        <time>2021-09-07T10:48:57.000Z</time>
      </trkpt>
      <trkpt lat="43.77631" lon="6.23258">
        <ele>658.7</ele>
        <time>2021-09-07T10:48:58.000Z</time>
      </trkpt>
      <trkpt lat="43.77626" lon="6.2326">
        <ele>658.9</ele>
        <time>2021-09-07T10:48:59.000Z</time>
      </trkpt>
      <trkpt lat="43.77624" lon="6.2326">
        <ele>659</ele>
        <time>2021-09-07T10:49:00.000Z</time>
      </trkpt>
      <trkpt lat="43.77622" lon="6.23261">
        <ele>659.1</ele>
        <time>2021-09-07T10:49:01.000Z</time>
      </trkpt>
      <trkpt lat="43.77625" lon="6.2326">
        <ele>659</ele>
        <time>2021-09-07T10:49:01.000Z</time>
      </trkpt>
      <trkpt lat="43.77623" lon="6.23261">
        <ele>659.1</ele>
        <time>2021-09-07T10:49:02.000Z</time>
      </trkpt>
      <trkpt lat="43.77621" lon="6.23261">
        <ele>659.2</ele>
        <time>2021-09-07T10:49:03.000Z</time>
      </trkpt>
      <trkpt lat="43.77617" lon="6.23263">
        <ele>659.4</ele>
        <time>2021-09-07T10:49:03.000Z</time>
      </trkpt>
      <trkpt lat="43.77615" lon="6.23264">
        <ele>659.6</ele>
        <time>2021-09-07T10:49:04.000Z</time>
      </trkpt>
      <trkpt lat="43.77616" lon="6.23263">
        <ele>659.5</ele>
        <time>2021-09-07T10:49:05.000Z</time>
      </trkpt>
      <trkpt lat="43.77613" lon="6.23265">
        <ele>659.7</ele>
        <time>2021-09-07T10:49:06.000Z</time>
      </trkpt>
      <trkpt lat="43.77609" lon="6.23267">
        <ele>659.9</ele>
        <time>2021-09-07T10:49:07.000Z</time>
      </trkpt>
      <trkpt lat="43.77608" lon="6.23268">
        <ele>660</ele>
        <time>2021-09-07T10:49:09.000Z</time>
      </trkpt>
      <trkpt lat="43.77595" lon="6.23275">
        <ele>660.7</ele>
        <time>2021-09-07T10:49:13.000Z</time>
      </trkpt>
      <trkpt lat="43.77593" lon="6.23276">
        <ele>660.7</ele>
        <time>2021-09-07T10:49:14.000Z</time>
      </trkpt>
      <trkpt lat="43.77596" lon="6.23275">
        <ele>660.7</ele>
        <time>2021-09-07T10:49:14.000Z</time>
      </trkpt>
      <trkpt lat="43.77591" lon="6.23276">
        <ele>661.2</ele>
        <time>2021-09-07T10:49:15.000Z</time>
      </trkpt>
      <trkpt lat="43.77594" lon="6.23276">
        <ele>660.6</ele>
        <time>2021-09-07T10:49:15.000Z</time>
      </trkpt>
      <trkpt lat="43.77592" lon="6.23276">
        <ele>661</ele>
        <time>2021-09-07T10:49:16.000Z</time>
      </trkpt>
      <trkpt lat="43.7759" lon="6.23276">
        <ele>661.1</ele>
        <time>2021-09-07T10:49:17.000Z</time>
      </trkpt>
      <trkpt lat="43.77585" lon="6.23278">
        <ele>661.4</ele>
        <time>2021-09-07T10:49:18.000Z</time>
      </trkpt>
      <trkpt lat="43.77583" lon="6.23279">
        <ele>661.5</ele>
        <time>2021-09-07T10:49:20.000Z</time>
      </trkpt>
      <trkpt lat="43.77573" lon="6.23284">
        <ele>662.2</ele>
        <time>2021-09-07T10:49:25.000Z</time>
      </trkpt>
      <trkpt lat="43.7757" lon="6.23286">
        <ele>662.5</ele>
        <time>2021-09-07T10:49:25.000Z</time>
      </trkpt>
      <trkpt lat="43.77567" lon="6.23286">
        <ele>662.5</ele>
        <time>2021-09-07T10:49:26.000Z</time>
      </trkpt>
      <trkpt lat="43.77563" lon="6.23286">
        <ele>662.9</ele>
        <time>2021-09-07T10:49:28.000Z</time>
      </trkpt>
      <trkpt lat="43.77562" lon="6.23287">
        <ele>662.9</ele>
        <time>2021-09-07T10:49:30.000Z</time>
      </trkpt>
      <trkpt lat="43.77558" lon="6.23288">
        <ele>663.4</ele>
        <time>2021-09-07T10:49:30.000Z</time>
      </trkpt>
      <trkpt lat="43.77555" lon="6.23289">
        <ele>663.6</ele>
        <time>2021-09-07T10:49:31.000Z</time>
      </trkpt>
      <trkpt lat="43.77556" lon="6.23288">
        <ele>663.7</ele>
        <time>2021-09-07T10:49:32.000Z</time>
      </trkpt>
      <trkpt lat="43.77553" lon="6.2329">
        <ele>663.7</ele>
        <time>2021-09-07T10:49:33.000Z</time>
      </trkpt>
      <trkpt lat="43.77551" lon="6.23291">
        <ele>663.9</ele>
        <time>2021-09-07T10:49:33.000Z</time>
      </trkpt>
      <trkpt lat="43.7755" lon="6.23292">
        <ele>663.9</ele>
        <time>2021-09-07T10:49:35.000Z</time>
      </trkpt>
      <trkpt lat="43.77544" lon="6.23295">
        <ele>664.3</ele>
        <time>2021-09-07T10:49:36.000Z</time>
      </trkpt>
      <trkpt lat="43.77542" lon="6.23297">
        <ele>664.2</ele>
        <time>2021-09-07T10:49:38.000Z</time>
      </trkpt>
      <trkpt lat="43.77534" lon="6.23302">
        <ele>664.8</ele>
        <time>2021-09-07T10:49:40.000Z</time>
      </trkpt>
      <trkpt lat="43.77532" lon="6.23304">
        <ele>664.9</ele>
        <time>2021-09-07T10:49:41.000Z</time>
      </trkpt>
      <trkpt lat="43.77533" lon="6.23303">
        <ele>664.8</ele>
        <time>2021-09-07T10:49:42.000Z</time>
      </trkpt>
      <trkpt lat="43.77529" lon="6.23305">
        <ele>664.9</ele>
        <time>2021-09-07T10:49:42.000Z</time>
      </trkpt>
      <trkpt lat="43.77527" lon="6.23307">
        <ele>665</ele>
        <time>2021-09-07T10:49:43.000Z</time>
      </trkpt>
      <trkpt lat="43.77525" lon="6.2331">
        <ele>665</ele>
        <time>2021-09-07T10:49:44.000Z</time>
      </trkpt>
      <trkpt lat="43.7752" lon="6.23316">
        <ele>665.5</ele>
        <time>2021-09-07T10:49:47.000Z</time>
      </trkpt>
      <trkpt lat="43.77518" lon="6.23318">
        <ele>665.6</ele>
        <time>2021-09-07T10:49:49.000Z</time>
      </trkpt>
      <trkpt lat="43.77514" lon="6.23323">
        <ele>665.9</ele>
        <time>2021-09-07T10:49:50.000Z</time>
      </trkpt>
      <trkpt lat="43.77512" lon="6.23325">
        <ele>665.9</ele>
        <time>2021-09-07T10:49:51.000Z</time>
      </trkpt>
      <trkpt lat="43.77502" lon="6.23334">
        <ele>666.3</ele>
        <time>2021-09-07T10:49:55.000Z</time>
      </trkpt>
      <trkpt lat="43.77503" lon="6.23334">
        <ele>666.2</ele>
        <time>2021-09-07T10:49:56.000Z</time>
      </trkpt>
      <trkpt lat="43.77501" lon="6.23335">
        <ele>666.4</ele>
        <time>2021-09-07T10:49:57.000Z</time>
      </trkpt>
      <trkpt lat="43.7749" lon="6.23344">
        <ele>667</ele>
        <time>2021-09-07T10:50:01.000Z</time>
      </trkpt>
      <trkpt lat="43.77491" lon="6.23343">
        <ele>666.8</ele>
        <time>2021-09-07T10:50:02.000Z</time>
      </trkpt>
      <trkpt lat="43.77488" lon="6.23346">
        <ele>667.3</ele>
        <time>2021-09-07T10:50:03.000Z</time>
      </trkpt>
      <trkpt lat="43.77477" lon="6.23353">
        <ele>667.8</ele>
        <time>2021-09-07T10:50:06.000Z</time>
      </trkpt>
      <trkpt lat="43.77474" lon="6.23354">
        <ele>667.9</ele>
        <time>2021-09-07T10:50:07.000Z</time>
      </trkpt>
      <trkpt lat="43.77475" lon="6.23354">
        <ele>667.8</ele>
        <time>2021-09-07T10:50:08.000Z</time>
      </trkpt>
      <trkpt lat="43.77472" lon="6.23354">
        <ele>668</ele>
        <time>2021-09-07T10:50:09.000Z</time>
      </trkpt>
      <trkpt lat="43.77467" lon="6.23356">
        <ele>668.3</ele>
        <time>2021-09-07T10:50:10.000Z</time>
      </trkpt>
      <trkpt lat="43.77464" lon="6.23357">
        <ele>668.4</ele>
        <time>2021-09-07T10:50:11.000Z</time>
      </trkpt>
      <trkpt lat="43.77462" lon="6.23357">
        <ele>668.6</ele>
        <time>2021-09-07T10:50:12.000Z</time>
      </trkpt>
      <trkpt lat="43.7746" lon="6.23356">
        <ele>668.7</ele>
        <time>2021-09-07T10:50:13.000Z</time>
      </trkpt>
      <trkpt lat="43.77455" lon="6.23357">
        <ele>668.9</ele>
        <time>2021-09-07T10:50:15.000Z</time>
      </trkpt>
      <trkpt lat="43.77454" lon="6.23356">
        <ele>669.1</ele>
        <time>2021-09-07T10:50:17.000Z</time>
      </trkpt>
      <trkpt lat="43.77449" lon="6.23355">
        <ele>669.1</ele>
        <time>2021-09-07T10:50:17.000Z</time>
      </trkpt>
      <trkpt lat="43.77447" lon="6.23355">
        <ele>669.1</ele>
        <time>2021-09-07T10:50:19.000Z</time>
      </trkpt>
      <trkpt lat="43.77436" lon="6.23351">
        <ele>669.4</ele>
        <time>2021-09-07T10:50:21.000Z</time>
      </trkpt>
      <trkpt lat="43.77435" lon="6.2335">
        <ele>669.4</ele>
        <time>2021-09-07T10:50:23.000Z</time>
      </trkpt>
      <trkpt lat="43.7743" lon="6.23347">
        <ele>669.4</ele>
        <time>2021-09-07T10:50:23.000Z</time>
      </trkpt>
      <trkpt lat="43.77428" lon="6.23346">
        <ele>669.4</ele>
        <time>2021-09-07T10:50:25.000Z</time>
      </trkpt>
      <trkpt lat="43.77416" lon="6.23339">
        <ele>670</ele>
        <time>2021-09-07T10:50:28.000Z</time>
      </trkpt>
      <trkpt lat="43.77413" lon="6.23337">
        <ele>670</ele>
        <time>2021-09-07T10:50:29.000Z</time>
      </trkpt>
      <trkpt lat="43.7741" lon="6.23335">
        <ele>670.2</ele>
        <time>2021-09-07T10:50:30.000Z</time>
      </trkpt>
      <trkpt lat="43.77414" lon="6.23338">
        <ele>670</ele>
        <time>2021-09-07T10:50:30.000Z</time>
      </trkpt>
      <trkpt lat="43.77412" lon="6.23336">
        <ele>670.1</ele>
        <time>2021-09-07T10:50:31.000Z</time>
      </trkpt>
      <trkpt lat="43.77409" lon="6.23334">
        <ele>670.4</ele>
        <time>2021-09-07T10:50:32.000Z</time>
      </trkpt>
      <trkpt lat="43.77405" lon="6.23332">
        <ele>670.5</ele>
        <time>2021-09-07T10:50:32.000Z</time>
      </trkpt>
      <trkpt lat="43.77404" lon="6.23332">
        <ele>670.5</ele>
        <time>2021-09-07T10:50:34.000Z</time>
      </trkpt>
      <trkpt lat="43.774" lon="6.2333">
        <ele>671</ele>
        <time>2021-09-07T10:50:34.000Z</time>
      </trkpt>
      <trkpt lat="43.77398" lon="6.23329">
        <ele>671.1</ele>
        <time>2021-09-07T10:50:36.000Z</time>
      </trkpt>
      <trkpt lat="43.77393" lon="6.23327">
        <ele>671.3</ele>
        <time>2021-09-07T10:50:37.000Z</time>
      </trkpt>
      <trkpt lat="43.77391" lon="6.23325">
        <ele>671.5</ele>
        <time>2021-09-07T10:50:38.000Z</time>
      </trkpt>
      <trkpt lat="43.77392" lon="6.23326">
        <ele>671.5</ele>
        <time>2021-09-07T10:50:39.000Z</time>
      </trkpt>
      <trkpt lat="43.77389" lon="6.23324">
        <ele>671.6</ele>
        <time>2021-09-07T10:50:39.000Z</time>
      </trkpt>
      <trkpt lat="43.77384" lon="6.23319">
        <ele>672.1</ele>
        <time>2021-09-07T10:50:44.000Z</time>
      </trkpt>
      <trkpt lat="43.77376" lon="6.23313">
        <ele>672.6</ele>
        <time>2021-09-07T10:50:47.000Z</time>
      </trkpt>
      <trkpt lat="43.77374" lon="6.23312">
        <ele>672.8</ele>
        <time>2021-09-07T10:50:49.000Z</time>
      </trkpt>
      <trkpt lat="43.77371" lon="6.23311">
        <ele>673</ele>
        <time>2021-09-07T10:50:49.000Z</time>
      </trkpt>
      <trkpt lat="43.77369" lon="6.23309">
        <ele>672.8</ele>
        <time>2021-09-07T10:50:50.000Z</time>
      </trkpt>
      <trkpt lat="43.77362" lon="6.23305">
        <ele>673.6</ele>
        <time>2021-09-07T10:50:53.000Z</time>
      </trkpt>
      <trkpt lat="43.7736" lon="6.23304">
        <ele>673.8</ele>
        <time>2021-09-07T10:50:55.000Z</time>
      </trkpt>
      <trkpt lat="43.77356" lon="6.23302">
        <ele>673.7</ele>
        <time>2021-09-07T10:50:56.000Z</time>
      </trkpt>
      <trkpt lat="43.77354" lon="6.23301">
        <ele>674</ele>
        <time>2021-09-07T10:50:58.000Z</time>
      </trkpt>
      <trkpt lat="43.77351" lon="6.23299">
        <ele>673.9</ele>
        <time>2021-09-07T10:50:58.000Z</time>
      </trkpt>
      <trkpt lat="43.77348" lon="6.23298">
        <ele>674.3</ele>
        <time>2021-09-07T10:50:59.000Z</time>
      </trkpt>
      <trkpt lat="43.77345" lon="6.23296">
        <ele>674.4</ele>
        <time>2021-09-07T10:51:00.000Z</time>
      </trkpt>
      <trkpt lat="43.77349" lon="6.23298">
        <ele>674.1</ele>
        <time>2021-09-07T10:51:00.000Z</time>
      </trkpt>
      <trkpt lat="43.77346" lon="6.23297">
        <ele>674.3</ele>
        <time>2021-09-07T10:51:01.000Z</time>
      </trkpt>
      <trkpt lat="43.77343" lon="6.23294">
        <ele>674.3</ele>
        <time>2021-09-07T10:51:01.000Z</time>
      </trkpt>
      <trkpt lat="43.7734" lon="6.23289">
        <ele>674.5</ele>
        <time>2021-09-07T10:51:03.000Z</time>
      </trkpt>
      <trkpt lat="43.77338" lon="6.23287">
        <ele>675</ele>
        <time>2021-09-07T10:51:04.000Z</time>
      </trkpt>
      <trkpt lat="43.77339" lon="6.23288">
        <ele>674.7</ele>
        <time>2021-09-07T10:51:05.000Z</time>
      </trkpt>
      <trkpt lat="43.77337" lon="6.23285">
        <ele>675.1</ele>
        <time>2021-09-07T10:51:06.000Z</time>
      </trkpt>
      <trkpt lat="43.77334" lon="6.23276">
        <ele>675.2</ele>
        <time>2021-09-07T10:51:08.000Z</time>
      </trkpt>
      <trkpt lat="43.77335" lon="6.23274">
        <ele>675.4</ele>
        <time>2021-09-07T10:51:10.000Z</time>
      </trkpt>
      <trkpt lat="43.77331" lon="6.23256">
        <ele>676.6</ele>
        <time>2021-09-07T10:51:14.000Z</time>
      </trkpt>
      <trkpt lat="43.7733" lon="6.23254">
        <ele>676.8</ele>
        <time>2021-09-07T10:51:15.000Z</time>
      </trkpt>
      <trkpt lat="43.77332" lon="6.23258">
        <ele>676.4</ele>
        <time>2021-09-07T10:51:15.000Z</time>
      </trkpt>
      <trkpt lat="43.7733" lon="6.23251">
        <ele>677</ele>
        <time>2021-09-07T10:51:16.000Z</time>
      </trkpt>
      <trkpt lat="43.77331" lon="6.23255">
        <ele>676.8</ele>
        <time>2021-09-07T10:51:16.000Z</time>
      </trkpt>
      <trkpt lat="43.7733" lon="6.23252">
        <ele>676.9</ele>
        <time>2021-09-07T10:51:17.000Z</time>
      </trkpt>
      <trkpt lat="43.77329" lon="6.2325">
        <ele>677.1</ele>
        <time>2021-09-07T10:51:18.000Z</time>
      </trkpt>
      <trkpt lat="43.77326" lon="6.23244">
        <ele>677.6</ele>
        <time>2021-09-07T10:51:19.000Z</time>
      </trkpt>
      <trkpt lat="43.77325" lon="6.23241">
        <ele>677.8</ele>
        <time>2021-09-07T10:51:20.000Z</time>
      </trkpt>
      <trkpt lat="43.77326" lon="6.23243">
        <ele>677.6</ele>
        <time>2021-09-07T10:51:21.000Z</time>
      </trkpt>
      <trkpt lat="43.77324" lon="6.23239">
        <ele>677.7</ele>
        <time>2021-09-07T10:51:22.000Z</time>
      </trkpt>
      <trkpt lat="43.7732" lon="6.2323">
        <ele>678.3</ele>
        <time>2021-09-07T10:51:23.000Z</time>
      </trkpt>
      <trkpt lat="43.77319" lon="6.23226">
        <ele>678.4</ele>
        <time>2021-09-07T10:51:24.000Z</time>
      </trkpt>
      <trkpt lat="43.7732" lon="6.23228">
        <ele>678.4</ele>
        <time>2021-09-07T10:51:25.000Z</time>
      </trkpt>
      <trkpt lat="43.77318" lon="6.23223">
        <ele>678.6</ele>
        <time>2021-09-07T10:51:25.000Z</time>
      </trkpt>
      <trkpt lat="43.77314" lon="6.23217">
        <ele>678.9</ele>
        <time>2021-09-07T10:51:27.000Z</time>
      </trkpt>
      <trkpt lat="43.77312" lon="6.23216">
        <ele>679</ele>
        <time>2021-09-07T10:51:28.000Z</time>
      </trkpt>
      <trkpt lat="43.77308" lon="6.23216">
        <ele>679.4</ele>
        <time>2021-09-07T10:51:29.000Z</time>
      </trkpt>
      <trkpt lat="43.77313" lon="6.23216">
        <ele>679</ele>
        <time>2021-09-07T10:51:29.000Z</time>
      </trkpt>
      <trkpt lat="43.7731" lon="6.23216">
        <ele>679.1</ele>
        <time>2021-09-07T10:51:30.000Z</time>
      </trkpt>
      <trkpt lat="43.77306" lon="6.23216">
        <ele>679.6</ele>
        <time>2021-09-07T10:51:31.000Z</time>
      </trkpt>
      <trkpt lat="43.77302" lon="6.23215">
        <ele>679.4</ele>
        <time>2021-09-07T10:51:31.000Z</time>
      </trkpt>
      <trkpt lat="43.77301" lon="6.23215">
        <ele>679.4</ele>
        <time>2021-09-07T10:51:33.000Z</time>
      </trkpt>
      <trkpt lat="43.77297" lon="6.23215">
        <ele>679.5</ele>
        <time>2021-09-07T10:51:33.000Z</time>
      </trkpt>
      <trkpt lat="43.77295" lon="6.23216">
        <ele>679.5</ele>
        <time>2021-09-07T10:51:35.000Z</time>
      </trkpt>
      <trkpt lat="43.77292" lon="6.23217">
        <ele>679.7</ele>
        <time>2021-09-07T10:51:35.000Z</time>
      </trkpt>
      <trkpt lat="43.77289" lon="6.23218">
        <ele>679.9</ele>
        <time>2021-09-07T10:51:36.000Z</time>
      </trkpt>
      <trkpt lat="43.77287" lon="6.2322">
        <ele>680.1</ele>
        <time>2021-09-07T10:51:37.000Z</time>
      </trkpt>
      <trkpt lat="43.7729" lon="6.23218">
        <ele>679.8</ele>
        <time>2021-09-07T10:51:37.000Z</time>
      </trkpt>
      <trkpt lat="43.77288" lon="6.23219">
        <ele>680</ele>
        <time>2021-09-07T10:51:38.000Z</time>
      </trkpt>
      <trkpt lat="43.77286" lon="6.23222">
        <ele>680.2</ele>
        <time>2021-09-07T10:51:38.000Z</time>
      </trkpt>
      <trkpt lat="43.77282" lon="6.23225">
        <ele>680.8</ele>
        <time>2021-09-07T10:51:40.000Z</time>
      </trkpt>
      <trkpt lat="43.77281" lon="6.23226">
        <ele>680.9</ele>
        <time>2021-09-07T10:51:42.000Z</time>
      </trkpt>
      <trkpt lat="43.77281" lon="6.2323">
        <ele>680.8</ele>
        <time>2021-09-07T10:51:42.000Z</time>
      </trkpt>
      <trkpt lat="43.77281" lon="6.23232">
        <ele>680.9</ele>
        <time>2021-09-07T10:51:44.000Z</time>
      </trkpt>
      <trkpt lat="43.77281" lon="6.23235">
        <ele>681.1</ele>
        <time>2021-09-07T10:51:44.000Z</time>
      </trkpt>
      <trkpt lat="43.77281" lon="6.23239">
        <ele>681.3</ele>
        <time>2021-09-07T10:51:45.000Z</time>
      </trkpt>
      <trkpt lat="43.77281" lon="6.23243">
        <ele>681.3</ele>
        <time>2021-09-07T10:51:46.000Z</time>
      </trkpt>
      <trkpt lat="43.77281" lon="6.23237">
        <ele>681.1</ele>
        <time>2021-09-07T10:51:46.000Z</time>
      </trkpt>
      <trkpt lat="43.77282" lon="6.23247">
        <ele>681.5</ele>
        <time>2021-09-07T10:51:47.000Z</time>
      </trkpt>
      <trkpt lat="43.77281" lon="6.23242">
        <ele>681.2</ele>
        <time>2021-09-07T10:51:47.000Z</time>
      </trkpt>
      <trkpt lat="43.77281" lon="6.23245">
        <ele>681.3</ele>
        <time>2021-09-07T10:51:48.000Z</time>
      </trkpt>
      <trkpt lat="43.77283" lon="6.23251">
        <ele>681.6</ele>
        <time>2021-09-07T10:51:49.000Z</time>
      </trkpt>
      <trkpt lat="43.77285" lon="6.23258">
        <ele>681.9</ele>
        <time>2021-09-07T10:51:50.000Z</time>
      </trkpt>
      <trkpt lat="43.77286" lon="6.23262">
        <ele>682</ele>
        <time>2021-09-07T10:51:51.000Z</time>
      </trkpt>
      <trkpt lat="43.77287" lon="6.23266">
        <ele>682.1</ele>
        <time>2021-09-07T10:51:52.000Z</time>
      </trkpt>
      <trkpt lat="43.77286" lon="6.2326">
        <ele>681.9</ele>
        <time>2021-09-07T10:51:52.000Z</time>
      </trkpt>
      <trkpt lat="43.77289" lon="6.23269">
        <ele>682.1</ele>
        <time>2021-09-07T10:51:53.000Z</time>
      </trkpt>
      <trkpt lat="43.77287" lon="6.23265">
        <ele>681.9</ele>
        <time>2021-09-07T10:51:53.000Z</time>
      </trkpt>
      <trkpt lat="43.77288" lon="6.23268">
        <ele>682</ele>
        <time>2021-09-07T10:51:54.000Z</time>
      </trkpt>
      <trkpt lat="43.7729" lon="6.23273">
        <ele>682.2</ele>
        <time>2021-09-07T10:51:55.000Z</time>
      </trkpt>
      <trkpt lat="43.77294" lon="6.2329">
        <ele>682.8</ele>
        <time>2021-09-07T10:51:59.000Z</time>
      </trkpt>
      <trkpt lat="43.77295" lon="6.23294">
        <ele>683.2</ele>
        <time>2021-09-07T10:52:00.000Z</time>
      </trkpt>
      <trkpt lat="43.77294" lon="6.23289">
        <ele>682.8</ele>
        <time>2021-09-07T10:52:00.000Z</time>
      </trkpt>
      <trkpt lat="43.77295" lon="6.23292">
        <ele>683.1</ele>
        <time>2021-09-07T10:52:01.000Z</time>
      </trkpt>
      <trkpt lat="43.77296" lon="6.23296">
        <ele>683.2</ele>
        <time>2021-09-07T10:52:02.000Z</time>
      </trkpt>
      <trkpt lat="43.77298" lon="6.23314">
        <ele>683.9</ele>
        <time>2021-09-07T10:52:05.000Z</time>
      </trkpt>
      <trkpt lat="43.77298" lon="6.23318">
        <ele>684</ele>
        <time>2021-09-07T10:52:06.000Z</time>
      </trkpt>
      <trkpt lat="43.77299" lon="6.23335">
        <ele>684.6</ele>
        <time>2021-09-07T10:52:10.000Z</time>
      </trkpt>
      <trkpt lat="43.77299" lon="6.23333">
        <ele>684.6</ele>
        <time>2021-09-07T10:52:11.000Z</time>
      </trkpt>
      <trkpt lat="43.773" lon="6.23338">
        <ele>684.5</ele>
        <time>2021-09-07T10:52:12.000Z</time>
      </trkpt>
      <trkpt lat="43.77305" lon="6.2336">
        <ele>684.9</ele>
        <time>2021-09-07T10:52:16.000Z</time>
      </trkpt>
      <trkpt lat="43.77306" lon="6.23364">
        <ele>685.2</ele>
        <time>2021-09-07T10:52:17.000Z</time>
      </trkpt>
      <trkpt lat="43.77304" lon="6.23358">
        <ele>684.9</ele>
        <time>2021-09-07T10:52:17.000Z</time>
      </trkpt>
      <trkpt lat="43.77306" lon="6.23363">
        <ele>685.1</ele>
        <time>2021-09-07T10:52:18.000Z</time>
      </trkpt>
      <trkpt lat="43.77307" lon="6.23366">
        <ele>685.3</ele>
        <time>2021-09-07T10:52:19.000Z</time>
      </trkpt>
      <trkpt lat="43.77311" lon="6.23373">
        <ele>685.5</ele>
        <time>2021-09-07T10:52:20.000Z</time>
      </trkpt>
      <trkpt lat="43.77313" lon="6.23377">
        <ele>685.5</ele>
        <time>2021-09-07T10:52:21.000Z</time>
      </trkpt>
      <trkpt lat="43.77315" lon="6.2338">
        <ele>685.7</ele>
        <time>2021-09-07T10:52:22.000Z</time>
      </trkpt>
      <trkpt lat="43.77312" lon="6.23375">
        <ele>685.5</ele>
        <time>2021-09-07T10:52:22.000Z</time>
      </trkpt>
      <trkpt lat="43.77314" lon="6.23379">
        <ele>685.6</ele>
        <time>2021-09-07T10:52:23.000Z</time>
      </trkpt>
      <trkpt lat="43.77316" lon="6.23382">
        <ele>685.8</ele>
        <time>2021-09-07T10:52:24.000Z</time>
      </trkpt>
      <trkpt lat="43.77323" lon="6.23393">
        <ele>686</ele>
        <time>2021-09-07T10:52:26.000Z</time>
      </trkpt>
      <trkpt lat="43.77325" lon="6.23397">
        <ele>686.4</ele>
        <time>2021-09-07T10:52:27.000Z</time>
      </trkpt>
      <trkpt lat="43.77326" lon="6.23401">
        <ele>686.3</ele>
        <time>2021-09-07T10:52:28.000Z</time>
      </trkpt>
      <trkpt lat="43.77325" lon="6.23395">
        <ele>686.2</ele>
        <time>2021-09-07T10:52:28.000Z</time>
      </trkpt>
      <trkpt lat="43.77328" lon="6.23405">
        <ele>686.3</ele>
        <time>2021-09-07T10:52:29.000Z</time>
      </trkpt>
      <trkpt lat="43.77326" lon="6.23399">
        <ele>686.4</ele>
        <time>2021-09-07T10:52:29.000Z</time>
      </trkpt>
      <trkpt lat="43.77327" lon="6.23404">
        <ele>686.3</ele>
        <time>2021-09-07T10:52:30.000Z</time>
      </trkpt>
      <trkpt lat="43.77329" lon="6.23408">
        <ele>686.7</ele>
        <time>2021-09-07T10:52:30.000Z</time>
      </trkpt>
      <trkpt lat="43.77331" lon="6.23414">
        <ele>686.7</ele>
        <time>2021-09-07T10:52:32.000Z</time>
      </trkpt>
      <trkpt lat="43.77331" lon="6.23416">
        <ele>686.8</ele>
        <time>2021-09-07T10:52:34.000Z</time>
      </trkpt>
      <trkpt lat="43.77333" lon="6.23425">
        <ele>687.1</ele>
        <time>2021-09-07T10:52:35.000Z</time>
      </trkpt>
      <trkpt lat="43.77334" lon="6.23427">
        <ele>687.3</ele>
        <time>2021-09-07T10:52:37.000Z</time>
      </trkpt>
      <trkpt lat="43.77339" lon="6.23436">
        <ele>687.7</ele>
        <time>2021-09-07T10:52:39.000Z</time>
      </trkpt>
      <trkpt lat="43.7734" lon="6.23438">
        <ele>687.7</ele>
        <time>2021-09-07T10:52:40.000Z</time>
      </trkpt>
      <trkpt lat="43.77341" lon="6.23441">
        <ele>688.1</ele>
        <time>2021-09-07T10:52:41.000Z</time>
      </trkpt>
      <trkpt lat="43.7734" lon="6.23437">
        <ele>687.7</ele>
        <time>2021-09-07T10:52:41.000Z</time>
      </trkpt>
      <trkpt lat="43.77341" lon="6.2344">
        <ele>687.8</ele>
        <time>2021-09-07T10:52:42.000Z</time>
      </trkpt>
      <trkpt lat="43.77342" lon="6.23443">
        <ele>688.2</ele>
        <time>2021-09-07T10:52:43.000Z</time>
      </trkpt>
      <trkpt lat="43.77345" lon="6.23449">
        <ele>688.3</ele>
        <time>2021-09-07T10:52:44.000Z</time>
      </trkpt>
      <trkpt lat="43.77347" lon="6.23452">
        <ele>688.4</ele>
        <time>2021-09-07T10:52:45.000Z</time>
      </trkpt>
      <trkpt lat="43.77346" lon="6.23451">
        <ele>688.4</ele>
        <time>2021-09-07T10:52:46.000Z</time>
      </trkpt>
      <trkpt lat="43.77347" lon="6.23453">
        <ele>688.5</ele>
        <time>2021-09-07T10:52:47.000Z</time>
      </trkpt>
      <trkpt lat="43.7735" lon="6.23457">
        <ele>688.9</ele>
        <time>2021-09-07T10:52:47.000Z</time>
      </trkpt>
      <trkpt lat="43.77352" lon="6.2346">
        <ele>688.9</ele>
        <time>2021-09-07T10:52:48.000Z</time>
      </trkpt>
      <trkpt lat="43.77351" lon="6.23459">
        <ele>688.9</ele>
        <time>2021-09-07T10:52:49.000Z</time>
      </trkpt>
      <trkpt lat="43.77353" lon="6.23461">
        <ele>689.1</ele>
        <time>2021-09-07T10:52:50.000Z</time>
      </trkpt>
      <trkpt lat="43.77355" lon="6.23467">
        <ele>689.3</ele>
        <time>2021-09-07T10:52:51.000Z</time>
      </trkpt>
      <trkpt lat="43.77357" lon="6.23469">
        <ele>689.5</ele>
        <time>2021-09-07T10:52:52.000Z</time>
      </trkpt>
      <trkpt lat="43.77358" lon="6.23471">
        <ele>689.5</ele>
        <time>2021-09-07T10:52:53.000Z</time>
      </trkpt>
      <trkpt lat="43.77356" lon="6.23468">
        <ele>689.5</ele>
        <time>2021-09-07T10:52:53.000Z</time>
      </trkpt>
      <trkpt lat="43.77359" lon="6.23475">
        <ele>689.6</ele>
        <time>2021-09-07T10:52:54.000Z</time>
      </trkpt>
      <trkpt lat="43.77358" lon="6.2347">
        <ele>689.5</ele>
        <time>2021-09-07T10:52:54.000Z</time>
      </trkpt>
      <trkpt lat="43.77359" lon="6.23473">
        <ele>689.5</ele>
        <time>2021-09-07T10:52:55.000Z</time>
      </trkpt>
      <trkpt lat="43.7736" lon="6.23477">
        <ele>689.8</ele>
        <time>2021-09-07T10:52:55.000Z</time>
      </trkpt>
      <trkpt lat="43.77364" lon="6.23485">
        <ele>690.3</ele>
        <time>2021-09-07T10:52:58.000Z</time>
      </trkpt>
      <trkpt lat="43.77365" lon="6.23486">
        <ele>690.3</ele>
        <time>2021-09-07T10:53:00.000Z</time>
      </trkpt>
      <trkpt lat="43.77367" lon="6.23491">
        <ele>690.5</ele>
        <time>2021-09-07T10:53:00.000Z</time>
      </trkpt>
      <trkpt lat="43.77369" lon="6.23494">
        <ele>690.6</ele>
        <time>2021-09-07T10:53:01.000Z</time>
      </trkpt>
      <trkpt lat="43.7737" lon="6.23498">
        <ele>691</ele>
        <time>2021-09-07T10:53:02.000Z</time>
      </trkpt>
      <trkpt lat="43.77368" lon="6.23493">
        <ele>690.5</ele>
        <time>2021-09-07T10:53:02.000Z</time>
      </trkpt>
      <trkpt lat="43.77369" lon="6.23497">
        <ele>690.9</ele>
        <time>2021-09-07T10:53:03.000Z</time>
      </trkpt>
      <trkpt lat="43.77371" lon="6.23501">
        <ele>691.2</ele>
        <time>2021-09-07T10:53:04.000Z</time>
      </trkpt>
      <trkpt lat="43.77375" lon="6.23511">
        <ele>691.6</ele>
        <time>2021-09-07T10:53:06.000Z</time>
      </trkpt>
      <trkpt lat="43.77377" lon="6.23515">
        <ele>692</ele>
        <time>2021-09-07T10:53:07.000Z</time>
      </trkpt>
      <trkpt lat="43.77376" lon="6.23513">
        <ele>691.8</ele>
        <time>2021-09-07T10:53:08.000Z</time>
      </trkpt>
      <trkpt lat="43.77378" lon="6.23517">
        <ele>691.9</ele>
        <time>2021-09-07T10:53:09.000Z</time>
      </trkpt>
      <trkpt lat="43.77386" lon="6.23535">
        <ele>693.6</ele>
        <time>2021-09-07T10:53:15.000Z</time>
      </trkpt>
      <trkpt lat="43.77389" lon="6.23542">
        <ele>693.7</ele>
        <time>2021-09-07T10:53:16.000Z</time>
      </trkpt>
      <trkpt lat="43.77389" lon="6.23542">
        <ele>693.7</ele>
        <time>2021-09-07T10:53:18.000Z</time>
      </trkpt>
      <trkpt lat="43.77392" lon="6.23547">
        <ele>693.9</ele>
        <time>2021-09-07T10:53:18.000Z</time>
      </trkpt>
      <trkpt lat="43.77393" lon="6.23551">
        <ele>693.9</ele>
        <time>2021-09-07T10:53:19.000Z</time>
      </trkpt>
      <trkpt lat="43.77395" lon="6.23554">
        <ele>694.2</ele>
        <time>2021-09-07T10:53:20.000Z</time>
      </trkpt>
      <trkpt lat="43.77393" lon="6.2355">
        <ele>693.9</ele>
        <time>2021-09-07T10:53:20.000Z</time>
      </trkpt>
      <trkpt lat="43.77394" lon="6.23553">
        <ele>694.1</ele>
        <time>2021-09-07T10:53:21.000Z</time>
      </trkpt>
      <trkpt lat="43.77396" lon="6.23556">
        <ele>694.3</ele>
        <time>2021-09-07T10:53:22.000Z</time>
      </trkpt>
      <trkpt lat="43.77398" lon="6.2356">
        <ele>694.3</ele>
        <time>2021-09-07T10:53:22.000Z</time>
      </trkpt>
      <trkpt lat="43.77399" lon="6.23562">
        <ele>694.4</ele>
        <time>2021-09-07T10:53:24.000Z</time>
      </trkpt>
      <trkpt lat="43.77401" lon="6.23565">
        <ele>694.6</ele>
        <time>2021-09-07T10:53:24.000Z</time>
      </trkpt>
      <trkpt lat="43.77402" lon="6.23568">
        <ele>694.7</ele>
        <time>2021-09-07T10:53:25.000Z</time>
      </trkpt>
      <trkpt lat="43.77402" lon="6.23567">
        <ele>694.7</ele>
        <time>2021-09-07T10:53:26.000Z</time>
      </trkpt>
      <trkpt lat="43.77404" lon="6.23571">
        <ele>694.8</ele>
        <time>2021-09-07T10:53:27.000Z</time>
      </trkpt>
      <trkpt lat="43.77409" lon="6.23584">
        <ele>695.3</ele>
        <time>2021-09-07T10:53:30.000Z</time>
      </trkpt>
      <trkpt lat="43.77409" lon="6.23585">
        <ele>695.3</ele>
        <time>2021-09-07T10:53:32.000Z</time>
      </trkpt>
      <trkpt lat="43.77414" lon="6.23594">
        <ele>696</ele>
        <time>2021-09-07T10:53:34.000Z</time>
      </trkpt>
      <trkpt lat="43.77415" lon="6.23596">
        <ele>696</ele>
        <time>2021-09-07T10:53:36.000Z</time>
      </trkpt>
      <trkpt lat="43.77416" lon="6.23599">
        <ele>696.3</ele>
        <time>2021-09-07T10:53:36.000Z</time>
      </trkpt>
      <trkpt lat="43.77416" lon="6.23601">
        <ele>696.5</ele>
        <time>2021-09-07T10:53:38.000Z</time>
      </trkpt>
      <trkpt lat="43.77419" lon="6.23604">
        <ele>696.5</ele>
        <time>2021-09-07T10:53:38.000Z</time>
      </trkpt>
      <trkpt lat="43.77421" lon="6.23606">
        <ele>696.7</ele>
        <time>2021-09-07T10:53:39.000Z</time>
      </trkpt>
      <trkpt lat="43.77424" lon="6.23609">
        <ele>696.6</ele>
        <time>2021-09-07T10:53:40.000Z</time>
      </trkpt>
      <trkpt lat="43.7742" lon="6.23605">
        <ele>696.7</ele>
        <time>2021-09-07T10:53:40.000Z</time>
      </trkpt>
      <trkpt lat="43.77423" lon="6.23607">
        <ele>696.6</ele>
        <time>2021-09-07T10:53:41.000Z</time>
      </trkpt>
      <trkpt lat="43.77426" lon="6.23611">
        <ele>696.7</ele>
        <time>2021-09-07T10:53:42.000Z</time>
      </trkpt>
      <trkpt lat="43.77433" lon="6.23622">
        <ele>697.4</ele>
        <time>2021-09-07T10:53:44.000Z</time>
      </trkpt>
      <trkpt lat="43.77434" lon="6.23624">
        <ele>697.6</ele>
        <time>2021-09-07T10:53:45.000Z</time>
      </trkpt>
      <trkpt lat="43.77436" lon="6.23627">
        <ele>697.6</ele>
        <time>2021-09-07T10:53:46.000Z</time>
      </trkpt>
      <trkpt lat="43.77434" lon="6.23623">
        <ele>697.5</ele>
        <time>2021-09-07T10:53:46.000Z</time>
      </trkpt>
      <trkpt lat="43.77435" lon="6.23626">
        <ele>697.7</ele>
        <time>2021-09-07T10:53:47.000Z</time>
      </trkpt>
      <trkpt lat="43.77437" lon="6.23628">
        <ele>697.6</ele>
        <time>2021-09-07T10:53:48.000Z</time>
      </trkpt>
      <trkpt lat="43.77438" lon="6.2363">
        <ele>697.8</ele>
        <time>2021-09-07T10:53:48.000Z</time>
      </trkpt>
      <trkpt lat="43.7744" lon="6.23632">
        <ele>697.8</ele>
        <time>2021-09-07T10:53:50.000Z</time>
      </trkpt>
      <trkpt lat="43.77441" lon="6.23635">
        <ele>698.1</ele>
        <time>2021-09-07T10:53:50.000Z</time>
      </trkpt>
      <trkpt lat="43.77443" lon="6.23637">
        <ele>698.4</ele>
        <time>2021-09-07T10:53:52.000Z</time>
      </trkpt>
      <trkpt lat="43.77447" lon="6.23645">
        <ele>699</ele>
        <time>2021-09-07T10:53:54.000Z</time>
      </trkpt>
      <trkpt lat="43.77448" lon="6.23647">
        <ele>699</ele>
        <time>2021-09-07T10:53:55.000Z</time>
      </trkpt>
      <trkpt lat="43.77447" lon="6.23646">
        <ele>699</ele>
        <time>2021-09-07T10:53:56.000Z</time>
      </trkpt>
      <trkpt lat="43.77449" lon="6.23649">
        <ele>699</ele>
        <time>2021-09-07T10:53:57.000Z</time>
      </trkpt>
      <trkpt lat="43.77451" lon="6.23652">
        <ele>699.3</ele>
        <time>2021-09-07T10:53:57.000Z</time>
      </trkpt>
      <trkpt lat="43.77451" lon="6.23654">
        <ele>699.3</ele>
        <time>2021-09-07T10:53:59.000Z</time>
      </trkpt>
      <trkpt lat="43.7746" lon="6.23665">
        <ele>699.4</ele>
        <time>2021-09-07T10:54:04.000Z</time>
      </trkpt>
      <trkpt lat="43.77463" lon="6.2367">
        <ele>699.5</ele>
        <time>2021-09-07T10:54:04.000Z</time>
      </trkpt>
      <trkpt lat="43.77465" lon="6.23673">
        <ele>699.7</ele>
        <time>2021-09-07T10:54:05.000Z</time>
      </trkpt>
      <trkpt lat="43.77468" lon="6.23676">
        <ele>699.9</ele>
        <time>2021-09-07T10:54:06.000Z</time>
      </trkpt>
      <trkpt lat="43.7747" lon="6.23677">
        <ele>700</ele>
        <time>2021-09-07T10:54:07.000Z</time>
      </trkpt>
      <trkpt lat="43.77478" lon="6.2368">
        <ele>700.4</ele>
        <time>2021-09-07T10:54:10.000Z</time>
      </trkpt>
      <trkpt lat="43.77481" lon="6.2368">
        <ele>700.5</ele>
        <time>2021-09-07T10:54:11.000Z</time>
      </trkpt>
      <trkpt lat="43.7748" lon="6.2368">
        <ele>700.5</ele>
        <time>2021-09-07T10:54:12.000Z</time>
      </trkpt>
      <trkpt lat="43.77484" lon="6.2368">
        <ele>700.8</ele>
        <time>2021-09-07T10:54:13.000Z</time>
      </trkpt>
      <trkpt lat="43.77494" lon="6.23677">
        <ele>701.1</ele>
        <time>2021-09-07T10:54:16.000Z</time>
      </trkpt>
      <trkpt lat="43.77495" lon="6.23676">
        <ele>701.2</ele>
        <time>2021-09-07T10:54:18.000Z</time>
      </trkpt>
      <trkpt lat="43.77499" lon="6.23674">
        <ele>701.6</ele>
        <time>2021-09-07T10:54:19.000Z</time>
      </trkpt>
      <trkpt lat="43.77501" lon="6.23671">
        <ele>701.5</ele>
        <time>2021-09-07T10:54:21.000Z</time>
      </trkpt>
      <trkpt lat="43.77503" lon="6.23668">
        <ele>701.6</ele>
        <time>2021-09-07T10:54:21.000Z</time>
      </trkpt>
      <trkpt lat="43.77504" lon="6.23666">
        <ele>701.6</ele>
        <time>2021-09-07T10:54:23.000Z</time>
      </trkpt>
      <trkpt lat="43.77508" lon="6.23661">
        <ele>702</ele>
        <time>2021-09-07T10:54:24.000Z</time>
      </trkpt>
      <trkpt lat="43.77511" lon="6.23659">
        <ele>702.6</ele>
        <time>2021-09-07T10:54:25.000Z</time>
      </trkpt>
      <trkpt lat="43.77513" lon="6.23657">
        <ele>702.7</ele>
        <time>2021-09-07T10:54:26.000Z</time>
      </trkpt>
      <trkpt lat="43.77509" lon="6.2366">
        <ele>702.1</ele>
        <time>2021-09-07T10:54:26.000Z</time>
      </trkpt>
      <trkpt lat="43.77512" lon="6.23657">
        <ele>702.6</ele>
        <time>2021-09-07T10:54:27.000Z</time>
      </trkpt>
      <trkpt lat="43.77515" lon="6.23655">
        <ele>702.7</ele>
        <time>2021-09-07T10:54:28.000Z</time>
      </trkpt>
      <trkpt lat="43.77517" lon="6.23654">
        <ele>702.6</ele>
        <time>2021-09-07T10:54:28.000Z</time>
      </trkpt>
      <trkpt lat="43.77519" lon="6.23653">
        <ele>702.7</ele>
        <time>2021-09-07T10:54:30.000Z</time>
      </trkpt>
      <trkpt lat="43.77522" lon="6.23651">
        <ele>703.2</ele>
        <time>2021-09-07T10:54:30.000Z</time>
      </trkpt>
      <trkpt lat="43.77525" lon="6.2365">
        <ele>703.3</ele>
        <time>2021-09-07T10:54:32.000Z</time>
      </trkpt>
      <trkpt lat="43.77529" lon="6.2365">
        <ele>703.3</ele>
        <time>2021-09-07T10:54:33.000Z</time>
      </trkpt>
      <trkpt lat="43.77539" lon="6.23655">
        <ele>703.5</ele>
        <time>2021-09-07T10:54:35.000Z</time>
      </trkpt>
      <trkpt lat="43.7754" lon="6.23655">
        <ele>703.6</ele>
        <time>2021-09-07T10:54:37.000Z</time>
      </trkpt>
      <trkpt lat="43.77545" lon="6.2366">
        <ele>703.9</ele>
        <time>2021-09-07T10:54:37.000Z</time>
      </trkpt>
      <trkpt lat="43.77547" lon="6.23663">
        <ele>704</ele>
        <time>2021-09-07T10:54:38.000Z</time>
      </trkpt>
      <trkpt lat="43.77546" lon="6.23662">
        <ele>703.9</ele>
        <time>2021-09-07T10:54:39.000Z</time>
      </trkpt>
      <trkpt lat="43.77548" lon="6.23665">
        <ele>704</ele>
        <time>2021-09-07T10:54:40.000Z</time>
      </trkpt>
      <trkpt lat="43.77548" lon="6.23669">
        <ele>704.2</ele>
        <time>2021-09-07T10:54:40.000Z</time>
      </trkpt>
      <trkpt lat="43.77548" lon="6.23671">
        <ele>704.2</ele>
        <time>2021-09-07T10:54:42.000Z</time>
      </trkpt>
      <trkpt lat="43.77544" lon="6.23683">
        <ele>704.5</ele>
        <time>2021-09-07T10:54:44.000Z</time>
      </trkpt>
      <trkpt lat="43.77542" lon="6.23686">
        <ele>704.6</ele>
        <time>2021-09-07T10:54:46.000Z</time>
      </trkpt>
      <trkpt lat="43.77535" lon="6.2369">
        <ele>705.2</ele>
        <time>2021-09-07T10:54:48.000Z</time>
      </trkpt>
      <trkpt lat="43.77533" lon="6.23692">
        <ele>705.2</ele>
        <time>2021-09-07T10:54:49.000Z</time>
      </trkpt>
      <trkpt lat="43.7753" lon="6.23694">
        <ele>705.2</ele>
        <time>2021-09-07T10:54:50.000Z</time>
      </trkpt>
      <trkpt lat="43.77534" lon="6.23691">
        <ele>705.3</ele>
        <time>2021-09-07T10:54:50.000Z</time>
      </trkpt>
      <trkpt lat="43.77527" lon="6.23695">
        <ele>705.7</ele>
        <time>2021-09-07T10:54:51.000Z</time>
      </trkpt>
      <trkpt lat="43.77531" lon="6.23693">
        <ele>705.1</ele>
        <time>2021-09-07T10:54:51.000Z</time>
      </trkpt>
      <trkpt lat="43.77528" lon="6.23694">
        <ele>705.3</ele>
        <time>2021-09-07T10:54:52.000Z</time>
      </trkpt>
      <trkpt lat="43.77525" lon="6.23697">
        <ele>705.8</ele>
        <time>2021-09-07T10:54:52.000Z</time>
      </trkpt>
      <trkpt lat="43.77516" lon="6.23701">
        <ele>706.2</ele>
        <time>2021-09-07T10:54:55.000Z</time>
      </trkpt>
      <trkpt lat="43.77513" lon="6.23702">
        <ele>706.4</ele>
        <time>2021-09-07T10:54:56.000Z</time>
      </trkpt>
      <trkpt lat="43.7751" lon="6.23704">
        <ele>706.5</ele>
        <time>2021-09-07T10:54:57.000Z</time>
      </trkpt>
      <trkpt lat="43.77514" lon="6.23702">
        <ele>706.2</ele>
        <time>2021-09-07T10:54:57.000Z</time>
      </trkpt>
      <trkpt lat="43.77511" lon="6.23704">
        <ele>706.4</ele>
        <time>2021-09-07T10:54:58.000Z</time>
      </trkpt>
      <trkpt lat="43.77508" lon="6.23705">
        <ele>706.5</ele>
        <time>2021-09-07T10:54:58.000Z</time>
      </trkpt>
      <trkpt lat="43.77503" lon="6.23707">
        <ele>706.6</ele>
        <time>2021-09-07T10:55:00.000Z</time>
      </trkpt>
      <trkpt lat="43.77502" lon="6.23708">
        <ele>706.6</ele>
        <time>2021-09-07T10:55:02.000Z</time>
      </trkpt>
      <trkpt lat="43.77499" lon="6.23711">
        <ele>707</ele>
        <time>2021-09-07T10:55:02.000Z</time>
      </trkpt>
      <trkpt lat="43.77497" lon="6.23712">
        <ele>707.1</ele>
        <time>2021-09-07T10:55:03.000Z</time>
      </trkpt>
      <trkpt lat="43.77498" lon="6.23711">
        <ele>707.2</ele>
        <time>2021-09-07T10:55:04.000Z</time>
      </trkpt>
      <trkpt lat="43.77496" lon="6.23712">
        <ele>707.3</ele>
        <time>2021-09-07T10:55:05.000Z</time>
      </trkpt>
      <trkpt lat="43.77492" lon="6.23711">
        <ele>707.5</ele>
        <time>2021-09-07T10:55:05.000Z</time>
      </trkpt>
      <trkpt lat="43.77491" lon="6.2371">
        <ele>707.5</ele>
        <time>2021-09-07T10:55:07.000Z</time>
      </trkpt>
      <trkpt lat="43.77481" lon="6.23712">
        <ele>708.1</ele>
        <time>2021-09-07T10:55:09.000Z</time>
      </trkpt>
      <trkpt lat="43.77479" lon="6.23712">
        <ele>708</ele>
        <time>2021-09-07T10:55:10.000Z</time>
      </trkpt>
      <trkpt lat="43.77476" lon="6.23713">
        <ele>708.2</ele>
        <time>2021-09-07T10:55:11.000Z</time>
      </trkpt>
      <trkpt lat="43.7748" lon="6.23712">
        <ele>708</ele>
        <time>2021-09-07T10:55:11.000Z</time>
      </trkpt>
      <trkpt lat="43.77473" lon="6.23714">
        <ele>708.5</ele>
        <time>2021-09-07T10:55:12.000Z</time>
      </trkpt>
      <trkpt lat="43.77477" lon="6.23713">
        <ele>708.1</ele>
        <time>2021-09-07T10:55:12.000Z</time>
      </trkpt>
      <trkpt lat="43.77474" lon="6.23713">
        <ele>708.3</ele>
        <time>2021-09-07T10:55:13.000Z</time>
      </trkpt>
      <trkpt lat="43.7747" lon="6.23714">
        <ele>708.7</ele>
        <time>2021-09-07T10:55:14.000Z</time>
      </trkpt>
      <trkpt lat="43.77462" lon="6.23717">
        <ele>708.9</ele>
        <time>2021-09-07T10:55:16.000Z</time>
      </trkpt>
      <trkpt lat="43.7746" lon="6.23717">
        <ele>708.9</ele>
        <time>2021-09-07T10:55:18.000Z</time>
      </trkpt>
      <trkpt lat="43.77455" lon="6.23714">
        <ele>709.4</ele>
        <time>2021-09-07T10:55:19.000Z</time>
      </trkpt>
      <trkpt lat="43.77452" lon="6.23712">
        <ele>709.6</ele>
        <time>2021-09-07T10:55:20.000Z</time>
      </trkpt>
      <trkpt lat="43.7745" lon="6.23709">
        <ele>709.6</ele>
        <time>2021-09-07T10:55:21.000Z</time>
      </trkpt>
      <trkpt lat="43.77453" lon="6.23713">
        <ele>709.4</ele>
        <time>2021-09-07T10:55:21.000Z</time>
      </trkpt>
      <trkpt lat="43.77451" lon="6.23711">
        <ele>709.6</ele>
        <time>2021-09-07T10:55:22.000Z</time>
      </trkpt>
      <trkpt lat="43.77448" lon="6.23708">
        <ele>709.6</ele>
        <time>2021-09-07T10:55:23.000Z</time>
      </trkpt>
      <trkpt lat="43.77445" lon="6.23705">
        <ele>709.9</ele>
        <time>2021-09-07T10:55:23.000Z</time>
      </trkpt>
      <trkpt lat="43.77443" lon="6.23703">
        <ele>710</ele>
        <time>2021-09-07T10:55:25.000Z</time>
      </trkpt>
      <trkpt lat="43.77437" lon="6.23697">
        <ele>710.7</ele>
        <time>2021-09-07T10:55:26.000Z</time>
      </trkpt>
      <trkpt lat="43.77436" lon="6.23695">
        <ele>710.8</ele>
        <time>2021-09-07T10:55:28.000Z</time>
      </trkpt>
      <trkpt lat="43.77432" lon="6.23689">
        <ele>711.3</ele>
        <time>2021-09-07T10:55:29.000Z</time>
      </trkpt>
      <trkpt lat="43.7743" lon="6.23687">
        <ele>711.1</ele>
        <time>2021-09-07T10:55:30.000Z</time>
      </trkpt>
      <trkpt lat="43.77431" lon="6.23688">
        <ele>711.3</ele>
        <time>2021-09-07T10:55:31.000Z</time>
      </trkpt>
      <trkpt lat="43.77429" lon="6.23685">
        <ele>711.1</ele>
        <time>2021-09-07T10:55:32.000Z</time>
      </trkpt>
      <trkpt lat="43.77427" lon="6.23682">
        <ele>711.4</ele>
        <time>2021-09-07T10:55:32.000Z</time>
      </trkpt>
      <trkpt lat="43.77425" lon="6.2368">
        <ele>711.6</ele>
        <time>2021-09-07T10:55:33.000Z</time>
      </trkpt>
      <trkpt lat="43.77425" lon="6.23681">
        <ele>711.5</ele>
        <time>2021-09-07T10:55:34.000Z</time>
      </trkpt>
      <trkpt lat="43.77423" lon="6.23678">
        <ele>711.5</ele>
        <time>2021-09-07T10:55:35.000Z</time>
      </trkpt>
      <trkpt lat="43.77421" lon="6.23675">
        <ele>711.6</ele>
        <time>2021-09-07T10:55:35.000Z</time>
      </trkpt>
      <trkpt lat="43.77418" lon="6.23672">
        <ele>711.5</ele>
        <time>2021-09-07T10:55:36.000Z</time>
      </trkpt>
      <trkpt lat="43.77407" lon="6.23663">
        <ele>711.7</ele>
        <time>2021-09-07T10:55:40.000Z</time>
      </trkpt>
      <trkpt lat="43.77408" lon="6.23664">
        <ele>711.6</ele>
        <time>2021-09-07T10:55:41.000Z</time>
      </trkpt>
      <trkpt lat="43.77404" lon="6.2366">
        <ele>711.8</ele>
        <time>2021-09-07T10:55:41.000Z</time>
      </trkpt>
      <trkpt lat="43.77393" lon="6.2365">
        <ele>712.4</ele>
        <time>2021-09-07T10:55:46.000Z</time>
      </trkpt>
      <trkpt lat="43.77386" lon="6.23642">
        <ele>712.8</ele>
        <time>2021-09-07T10:55:47.000Z</time>
      </trkpt>
      <trkpt lat="43.77382" lon="6.2364">
        <ele>713</ele>
        <time>2021-09-07T10:55:48.000Z</time>
      </trkpt>
      <trkpt lat="43.77384" lon="6.23641">
        <ele>712.9</ele>
        <time>2021-09-07T10:55:49.000Z</time>
      </trkpt>
      <trkpt lat="43.7738" lon="6.23638">
        <ele>712.9</ele>
        <time>2021-09-07T10:55:50.000Z</time>
      </trkpt>
      <trkpt lat="43.77377" lon="6.23635">
        <ele>713.2</ele>
        <time>2021-09-07T10:55:50.000Z</time>
      </trkpt>
      <trkpt lat="43.77376" lon="6.23635">
        <ele>713.1</ele>
        <time>2021-09-07T10:55:52.000Z</time>
      </trkpt>
      <trkpt lat="43.77372" lon="6.23631">
        <ele>713.4</ele>
        <time>2021-09-07T10:55:52.000Z</time>
      </trkpt>
      <trkpt lat="43.7737" lon="6.23629">
        <ele>713.3</ele>
        <time>2021-09-07T10:55:54.000Z</time>
      </trkpt>
      <trkpt lat="43.77366" lon="6.23622">
        <ele>713.5</ele>
        <time>2021-09-07T10:55:55.000Z</time>
      </trkpt>
      <trkpt lat="43.77364" lon="6.23619">
        <ele>713.4</ele>
        <time>2021-09-07T10:55:56.000Z</time>
      </trkpt>
      <trkpt lat="43.77362" lon="6.23616">
        <ele>713.3</ele>
        <time>2021-09-07T10:55:57.000Z</time>
      </trkpt>
      <trkpt lat="43.77365" lon="6.23621">
        <ele>713.4</ele>
        <time>2021-09-07T10:55:57.000Z</time>
      </trkpt>
      <trkpt lat="43.77363" lon="6.23616">
        <ele>713.3</ele>
        <time>2021-09-07T10:55:58.000Z</time>
      </trkpt>
      <trkpt lat="43.77361" lon="6.23614">
        <ele>713.3</ele>
        <time>2021-09-07T10:55:59.000Z</time>
      </trkpt>
      <trkpt lat="43.77356" lon="6.23598">
        <ele>714.3</ele>
        <time>2021-09-07T10:56:03.000Z</time>
      </trkpt>
      <trkpt lat="43.77357" lon="6.23599">
        <ele>714.2</ele>
        <time>2021-09-07T10:56:04.000Z</time>
      </trkpt>
      <trkpt lat="43.77355" lon="6.23596">
        <ele>714.5</ele>
        <time>2021-09-07T10:56:05.000Z</time>
      </trkpt>
      <trkpt lat="43.77355" lon="6.23592">
        <ele>714.4</ele>
        <time>2021-09-07T10:56:05.000Z</time>
      </trkpt>
      <trkpt lat="43.77355" lon="6.2359">
        <ele>714.7</ele>
        <time>2021-09-07T10:56:07.000Z</time>
      </trkpt>
      <trkpt lat="43.77353" lon="6.23586">
        <ele>715.2</ele>
        <time>2021-09-07T10:56:08.000Z</time>
      </trkpt>
      <trkpt lat="43.77352" lon="6.23585">
        <ele>715.2</ele>
        <time>2021-09-07T10:56:10.000Z</time>
      </trkpt>
      <trkpt lat="43.7735" lon="6.23576">
        <ele>715.6</ele>
        <time>2021-09-07T10:56:11.000Z</time>
      </trkpt>
      <trkpt lat="43.77349" lon="6.23573">
        <ele>715.6</ele>
        <time>2021-09-07T10:56:13.000Z</time>
      </trkpt>
      <trkpt lat="43.77346" lon="6.23565">
        <ele>716.2</ele>
        <time>2021-09-07T10:56:15.000Z</time>
      </trkpt>
      <trkpt lat="43.77344" lon="6.23562">
        <ele>716.5</ele>
        <time>2021-09-07T10:56:16.000Z</time>
      </trkpt>
      <trkpt lat="43.77342" lon="6.23559">
        <ele>716.7</ele>
        <time>2021-09-07T10:56:17.000Z</time>
      </trkpt>
      <trkpt lat="43.77345" lon="6.23563">
        <ele>716.4</ele>
        <time>2021-09-07T10:56:17.000Z</time>
      </trkpt>
      <trkpt lat="43.7734" lon="6.23556">
        <ele>716.8</ele>
        <time>2021-09-07T10:56:18.000Z</time>
      </trkpt>
      <trkpt lat="43.77343" lon="6.23561">
        <ele>716.6</ele>
        <time>2021-09-07T10:56:18.000Z</time>
      </trkpt>
      <trkpt lat="43.77338" lon="6.23552">
        <ele>716.9</ele>
        <time>2021-09-07T10:56:19.000Z</time>
      </trkpt>
      <trkpt lat="43.77341" lon="6.23558">
        <ele>716.8</ele>
        <time>2021-09-07T10:56:19.000Z</time>
      </trkpt>
      <trkpt lat="43.77339" lon="6.23554">
        <ele>716.7</ele>
        <time>2021-09-07T10:56:20.000Z</time>
      </trkpt>
      <trkpt lat="43.77336" lon="6.23549">
        <ele>717.2</ele>
        <time>2021-09-07T10:56:21.000Z</time>
      </trkpt>
      <trkpt lat="43.77331" lon="6.23542">
        <ele>717.5</ele>
        <time>2021-09-07T10:56:22.000Z</time>
      </trkpt>
      <trkpt lat="43.77329" lon="6.2354">
        <ele>717.5</ele>
        <time>2021-09-07T10:56:24.000Z</time>
      </trkpt>
      <trkpt lat="43.77326" lon="6.23538">
        <ele>717.6</ele>
        <time>2021-09-07T10:56:24.000Z</time>
      </trkpt>
      <trkpt lat="43.77324" lon="6.23537">
        <ele>717.7</ele>
        <time>2021-09-07T10:56:26.000Z</time>
      </trkpt>
      <trkpt lat="43.77315" lon="6.23535">
        <ele>718.3</ele>
        <time>2021-09-07T10:56:28.000Z</time>
      </trkpt>
      <trkpt lat="43.77313" lon="6.23536">
        <ele>718.4</ele>
        <time>2021-09-07T10:56:29.000Z</time>
      </trkpt>
      <trkpt lat="43.77314" lon="6.23536">
        <ele>718.3</ele>
        <time>2021-09-07T10:56:30.000Z</time>
      </trkpt>
      <trkpt lat="43.77311" lon="6.23537">
        <ele>718.4</ele>
        <time>2021-09-07T10:56:31.000Z</time>
      </trkpt>
      <trkpt lat="43.77303" lon="6.23541">
        <ele>718.8</ele>
        <time>2021-09-07T10:56:33.000Z</time>
      </trkpt>
      <trkpt lat="43.77302" lon="6.23542">
        <ele>718.7</ele>
        <time>2021-09-07T10:56:35.000Z</time>
      </trkpt>
      <trkpt lat="43.77299" lon="6.23547">
        <ele>718.9</ele>
        <time>2021-09-07T10:56:35.000Z</time>
      </trkpt>
      <trkpt lat="43.77297" lon="6.2355">
        <ele>719</ele>
        <time>2021-09-07T10:56:36.000Z</time>
      </trkpt>
      <trkpt lat="43.77296" lon="6.23552">
        <ele>719.3</ele>
        <time>2021-09-07T10:56:37.000Z</time>
      </trkpt>
      <trkpt lat="43.77298" lon="6.23548">
        <ele>718.9</ele>
        <time>2021-09-07T10:56:37.000Z</time>
      </trkpt>
      <trkpt lat="43.77294" lon="6.23555">
        <ele>719.5</ele>
        <time>2021-09-07T10:56:38.000Z</time>
      </trkpt>
      <trkpt lat="43.77296" lon="6.23551">
        <ele>719.3</ele>
        <time>2021-09-07T10:56:38.000Z</time>
      </trkpt>
      <trkpt lat="43.77295" lon="6.23553">
        <ele>719.4</ele>
        <time>2021-09-07T10:56:39.000Z</time>
      </trkpt>
      <trkpt lat="43.77293" lon="6.23557">
        <ele>719.6</ele>
        <time>2021-09-07T10:56:39.000Z</time>
      </trkpt>
      <trkpt lat="43.7729" lon="6.23564">
        <ele>720.1</ele>
        <time>2021-09-07T10:56:41.000Z</time>
      </trkpt>
      <trkpt lat="43.77288" lon="6.23566">
        <ele>720</ele>
        <time>2021-09-07T10:56:42.000Z</time>
      </trkpt>
      <trkpt lat="43.77288" lon="6.23566">
        <ele>720.1</ele>
        <time>2021-09-07T10:56:43.000Z</time>
      </trkpt>
      <trkpt lat="43.77285" lon="6.23568">
        <ele>720.4</ele>
        <time>2021-09-07T10:56:43.000Z</time>
      </trkpt>
      <trkpt lat="43.77282" lon="6.23572">
        <ele>720.7</ele>
        <time>2021-09-07T10:56:45.000Z</time>
      </trkpt>
      <trkpt lat="43.77281" lon="6.23573">
        <ele>720.8</ele>
        <time>2021-09-07T10:56:47.000Z</time>
      </trkpt>
      <trkpt lat="43.77273" lon="6.23584">
        <ele>720.9</ele>
        <time>2021-09-07T10:56:50.000Z</time>
      </trkpt>
      <trkpt lat="43.77271" lon="6.23586">
        <ele>721</ele>
        <time>2021-09-07T10:56:52.000Z</time>
      </trkpt>
      <trkpt lat="43.77268" lon="6.23589">
        <ele>721.4</ele>
        <time>2021-09-07T10:56:52.000Z</time>
      </trkpt>
      <trkpt lat="43.77267" lon="6.23591">
        <ele>721.4</ele>
        <time>2021-09-07T10:56:54.000Z</time>
      </trkpt>
      <trkpt lat="43.77264" lon="6.23593">
        <ele>721.6</ele>
        <time>2021-09-07T10:56:54.000Z</time>
      </trkpt>
      <trkpt lat="43.77263" lon="6.23593">
        <ele>721.8</ele>
        <time>2021-09-07T10:56:56.000Z</time>
      </trkpt>
      <trkpt lat="43.77259" lon="6.23596">
        <ele>722.6</ele>
        <time>2021-09-07T10:56:56.000Z</time>
      </trkpt>
      <trkpt lat="43.77258" lon="6.23596">
        <ele>722.8</ele>
        <time>2021-09-07T10:56:58.000Z</time>
      </trkpt>
      <trkpt lat="43.77245" lon="6.23604">
        <ele>723.4</ele>
        <time>2021-09-07T10:57:03.000Z</time>
      </trkpt>
      <trkpt lat="43.77246" lon="6.23604">
        <ele>723.4</ele>
        <time>2021-09-07T10:57:04.000Z</time>
      </trkpt>
      <trkpt lat="43.77244" lon="6.23604">
        <ele>723.5</ele>
        <time>2021-09-07T10:57:05.000Z</time>
      </trkpt>
      <trkpt lat="43.77237" lon="6.23606">
        <ele>724.1</ele>
        <time>2021-09-07T10:57:07.000Z</time>
      </trkpt>
      <trkpt lat="43.77235" lon="6.23607">
        <ele>724.4</ele>
        <time>2021-09-07T10:57:08.000Z</time>
      </trkpt>
      <trkpt lat="43.77233" lon="6.23608">
        <ele>724.5</ele>
        <time>2021-09-07T10:57:09.000Z</time>
      </trkpt>
      <trkpt lat="43.77236" lon="6.23606">
        <ele>724.3</ele>
        <time>2021-09-07T10:57:09.000Z</time>
      </trkpt>
      <trkpt lat="43.77234" lon="6.23608">
        <ele>724.4</ele>
        <time>2021-09-07T10:57:10.000Z</time>
      </trkpt>
      <trkpt lat="43.77232" lon="6.23608">
        <ele>724.6</ele>
        <time>2021-09-07T10:57:11.000Z</time>
      </trkpt>
      <trkpt lat="43.77219" lon="6.23612">
        <ele>725.3</ele>
        <time>2021-09-07T10:57:15.000Z</time>
      </trkpt>
      <trkpt lat="43.7722" lon="6.23612">
        <ele>725.3</ele>
        <time>2021-09-07T10:57:16.000Z</time>
      </trkpt>
      <trkpt lat="43.77216" lon="6.23614">
        <ele>725.5</ele>
        <time>2021-09-07T10:57:17.000Z</time>
      </trkpt>
      <trkpt lat="43.77214" lon="6.23616">
        <ele>725.9</ele>
        <time>2021-09-07T10:57:17.000Z</time>
      </trkpt>
      <trkpt lat="43.77212" lon="6.23618">
        <ele>726.1</ele>
        <time>2021-09-07T10:57:19.000Z</time>
      </trkpt>
      <trkpt lat="43.77207" lon="6.23621">
        <ele>726.3</ele>
        <time>2021-09-07T10:57:20.000Z</time>
      </trkpt>
      <trkpt lat="43.77205" lon="6.23623">
        <ele>726.2</ele>
        <time>2021-09-07T10:57:21.000Z</time>
      </trkpt>
      <trkpt lat="43.77203" lon="6.23626">
        <ele>726.7</ele>
        <time>2021-09-07T10:57:22.000Z</time>
      </trkpt>
      <trkpt lat="43.77206" lon="6.23622">
        <ele>726.2</ele>
        <time>2021-09-07T10:57:22.000Z</time>
      </trkpt>
      <trkpt lat="43.77203" lon="6.23625">
        <ele>726.5</ele>
        <time>2021-09-07T10:57:23.000Z</time>
      </trkpt>
      <trkpt lat="43.772" lon="6.23628">
        <ele>726.5</ele>
        <time>2021-09-07T10:57:23.000Z</time>
      </trkpt>
      <trkpt lat="43.77198" lon="6.2363">
        <ele>726.7</ele>
        <time>2021-09-07T10:57:24.000Z</time>
      </trkpt>
      <trkpt lat="43.77196" lon="6.23632">
        <ele>726.9</ele>
        <time>2021-09-07T10:57:26.000Z</time>
      </trkpt>
      <trkpt lat="43.77192" lon="6.23637">
        <ele>727.1</ele>
        <time>2021-09-07T10:57:27.000Z</time>
      </trkpt>
      <trkpt lat="43.7719" lon="6.23639">
        <ele>727.3</ele>
        <time>2021-09-07T10:57:28.000Z</time>
      </trkpt>
      <trkpt lat="43.77186" lon="6.23644">
        <ele>727.7</ele>
        <time>2021-09-07T10:57:30.000Z</time>
      </trkpt>
      <trkpt lat="43.77184" lon="6.23645">
        <ele>727.9</ele>
        <time>2021-09-07T10:57:31.000Z</time>
      </trkpt>
      <trkpt lat="43.77182" lon="6.23647">
        <ele>728.1</ele>
        <time>2021-09-07T10:57:32.000Z</time>
      </trkpt>
      <trkpt lat="43.77185" lon="6.23644">
        <ele>727.9</ele>
        <time>2021-09-07T10:57:32.000Z</time>
      </trkpt>
      <trkpt lat="43.7718" lon="6.23649">
        <ele>728.1</ele>
        <time>2021-09-07T10:57:33.000Z</time>
      </trkpt>
      <trkpt lat="43.77182" lon="6.23646">
        <ele>728</ele>
        <time>2021-09-07T10:57:33.000Z</time>
      </trkpt>
      <trkpt lat="43.7718" lon="6.23648">
        <ele>728.1</ele>
        <time>2021-09-07T10:57:34.000Z</time>
      </trkpt>
      <trkpt lat="43.77179" lon="6.2365">
        <ele>728.2</ele>
        <time>2021-09-07T10:57:35.000Z</time>
      </trkpt>
      <trkpt lat="43.77177" lon="6.23653">
        <ele>728.2</ele>
        <time>2021-09-07T10:57:36.000Z</time>
      </trkpt>
      <trkpt lat="43.7717" lon="6.2366">
        <ele>729</ele>
        <time>2021-09-07T10:57:38.000Z</time>
      </trkpt>
      <trkpt lat="43.77169" lon="6.23662">
        <ele>729.3</ele>
        <time>2021-09-07T10:57:39.000Z</time>
      </trkpt>
      <trkpt lat="43.77167" lon="6.23665">
        <ele>729.4</ele>
        <time>2021-09-07T10:57:40.000Z</time>
      </trkpt>
      <trkpt lat="43.77169" lon="6.23662">
        <ele>729.3</ele>
        <time>2021-09-07T10:57:40.000Z</time>
      </trkpt>
      <trkpt lat="43.77168" lon="6.23663">
        <ele>729.3</ele>
        <time>2021-09-07T10:57:41.000Z</time>
      </trkpt>
      <trkpt lat="43.77165" lon="6.23666">
        <ele>729.5</ele>
        <time>2021-09-07T10:57:42.000Z</time>
      </trkpt>
      <trkpt lat="43.77157" lon="6.23674">
        <ele>730.2</ele>
        <time>2021-09-07T10:57:44.000Z</time>
      </trkpt>
      <trkpt lat="43.77154" lon="6.23676">
        <ele>730.4</ele>
        <time>2021-09-07T10:57:45.000Z</time>
      </trkpt>
      <trkpt lat="43.77152" lon="6.23679">
        <ele>730.7</ele>
        <time>2021-09-07T10:57:46.000Z</time>
      </trkpt>
      <trkpt lat="43.77155" lon="6.23675">
        <ele>730.3</ele>
        <time>2021-09-07T10:57:46.000Z</time>
      </trkpt>
      <trkpt lat="43.77153" lon="6.23678">
        <ele>730.6</ele>
        <time>2021-09-07T10:57:47.000Z</time>
      </trkpt>
      <trkpt lat="43.7715" lon="6.23681">
        <ele>730.8</ele>
        <time>2021-09-07T10:57:48.000Z</time>
      </trkpt>
      <trkpt lat="43.77146" lon="6.23686">
        <ele>730.6</ele>
        <time>2021-09-07T10:57:49.000Z</time>
      </trkpt>
      <trkpt lat="43.77145" lon="6.23687">
        <ele>730.7</ele>
        <time>2021-09-07T10:57:51.000Z</time>
      </trkpt>
      <trkpt lat="43.77142" lon="6.23692">
        <ele>730.9</ele>
        <time>2021-09-07T10:57:51.000Z</time>
      </trkpt>
      <trkpt lat="43.77141" lon="6.23695">
        <ele>731.2</ele>
        <time>2021-09-07T10:57:52.000Z</time>
      </trkpt>
      <trkpt lat="43.77141" lon="6.23694">
        <ele>731</ele>
        <time>2021-09-07T10:57:53.000Z</time>
      </trkpt>
      <trkpt lat="43.77141" lon="6.23698">
        <ele>731.1</ele>
        <time>2021-09-07T10:57:54.000Z</time>
      </trkpt>
      <trkpt lat="43.7714" lon="6.23706">
        <ele>731.6</ele>
        <time>2021-09-07T10:57:55.000Z</time>
      </trkpt>
      <trkpt lat="43.7714" lon="6.23709">
        <ele>731.7</ele>
        <time>2021-09-07T10:57:56.000Z</time>
      </trkpt>
      <trkpt lat="43.7714" lon="6.23712">
        <ele>731.9</ele>
        <time>2021-09-07T10:57:57.000Z</time>
      </trkpt>
      <trkpt lat="43.77141" lon="6.23716">
        <ele>731.9</ele>
        <time>2021-09-07T10:57:58.000Z</time>
      </trkpt>
      <trkpt lat="43.77142" lon="6.23732">
        <ele>732.6</ele>
        <time>2021-09-07T10:58:03.000Z</time>
      </trkpt>
      <trkpt lat="43.77142" lon="6.23732">
        <ele>732.6</ele>
        <time>2021-09-07T10:58:04.000Z</time>
      </trkpt>
      <trkpt lat="43.77143" lon="6.23734">
        <ele>732.6</ele>
        <time>2021-09-07T10:58:05.000Z</time>
      </trkpt>
      <trkpt lat="43.77144" lon="6.23741">
        <ele>733</ele>
        <time>2021-09-07T10:58:07.000Z</time>
      </trkpt>
      <trkpt lat="43.77144" lon="6.23743">
        <ele>732.9</ele>
        <time>2021-09-07T10:58:09.000Z</time>
      </trkpt>
      <trkpt lat="43.77146" lon="6.23753">
        <ele>733.4</ele>
        <time>2021-09-07T10:58:11.000Z</time>
      </trkpt>
      <trkpt lat="43.77146" lon="6.23756">
        <ele>733.4</ele>
        <time>2021-09-07T10:58:12.000Z</time>
      </trkpt>
      <trkpt lat="43.77146" lon="6.23755">
        <ele>733.3</ele>
        <time>2021-09-07T10:58:13.000Z</time>
      </trkpt>
      <trkpt lat="43.77147" lon="6.2376">
        <ele>733.7</ele>
        <time>2021-09-07T10:58:13.000Z</time>
      </trkpt>
      <trkpt lat="43.77148" lon="6.23772">
        <ele>734.4</ele>
        <time>2021-09-07T10:58:18.000Z</time>
      </trkpt>
      <trkpt lat="43.77149" lon="6.23778">
        <ele>734.7</ele>
        <time>2021-09-07T10:58:18.000Z</time>
      </trkpt>
      <trkpt lat="43.77149" lon="6.23781">
        <ele>734.8</ele>
        <time>2021-09-07T10:58:19.000Z</time>
      </trkpt>
      <trkpt lat="43.77149" lon="6.2378">
        <ele>734.6</ele>
        <time>2021-09-07T10:58:20.000Z</time>
      </trkpt>
      <trkpt lat="43.77149" lon="6.23783">
        <ele>734.7</ele>
        <time>2021-09-07T10:58:21.000Z</time>
      </trkpt>
      <trkpt lat="43.77149" lon="6.23787">
        <ele>735</ele>
        <time>2021-09-07T10:58:21.000Z</time>
      </trkpt>
      <trkpt lat="43.77149" lon="6.2379">
        <ele>735.4</ele>
        <time>2021-09-07T10:58:22.000Z</time>
      </trkpt>
      <trkpt lat="43.7715" lon="6.23793">
        <ele>735.4</ele>
        <time>2021-09-07T10:58:23.000Z</time>
      </trkpt>
      <trkpt lat="43.77149" lon="6.23789">
        <ele>735.1</ele>
        <time>2021-09-07T10:58:23.000Z</time>
      </trkpt>
      <trkpt lat="43.77151" lon="6.23797">
        <ele>735.4</ele>
        <time>2021-09-07T10:58:24.000Z</time>
      </trkpt>
      <trkpt lat="43.7715" lon="6.23792">
        <ele>735.5</ele>
        <time>2021-09-07T10:58:24.000Z</time>
      </trkpt>
      <trkpt lat="43.7715" lon="6.23796">
        <ele>735.4</ele>
        <time>2021-09-07T10:58:25.000Z</time>
      </trkpt>
      <trkpt lat="43.77151" lon="6.23799">
        <ele>735.6</ele>
        <time>2021-09-07T10:58:26.000Z</time>
      </trkpt>
      <trkpt lat="43.77152" lon="6.23809">
        <ele>736</ele>
        <time>2021-09-07T10:58:27.000Z</time>
      </trkpt>
      <trkpt lat="43.77152" lon="6.23811">
        <ele>735.9</ele>
        <time>2021-09-07T10:58:29.000Z</time>
      </trkpt>
      <trkpt lat="43.77153" lon="6.23819">
        <ele>736.5</ele>
        <time>2021-09-07T10:58:30.000Z</time>
      </trkpt>
      <trkpt lat="43.77154" lon="6.23822">
        <ele>736.3</ele>
        <time>2021-09-07T10:58:31.000Z</time>
      </trkpt>
      <trkpt lat="43.77157" lon="6.23832">
        <ele>737</ele>
        <time>2021-09-07T10:58:34.000Z</time>
      </trkpt>
      <trkpt lat="43.77158" lon="6.23835">
        <ele>737.1</ele>
        <time>2021-09-07T10:58:35.000Z</time>
      </trkpt>
      <trkpt lat="43.77158" lon="6.23834">
        <ele>737</ele>
        <time>2021-09-07T10:58:36.000Z</time>
      </trkpt>
      <trkpt lat="43.77159" lon="6.23837">
        <ele>737.2</ele>
        <time>2021-09-07T10:58:37.000Z</time>
      </trkpt>
      <trkpt lat="43.77161" lon="6.23841">
        <ele>737.3</ele>
        <time>2021-09-07T10:58:37.000Z</time>
      </trkpt>
      <trkpt lat="43.77163" lon="6.23843">
        <ele>737.4</ele>
        <time>2021-09-07T10:58:39.000Z</time>
      </trkpt>
      <trkpt lat="43.77165" lon="6.23847">
        <ele>737.7</ele>
        <time>2021-09-07T10:58:39.000Z</time>
      </trkpt>
      <trkpt lat="43.77167" lon="6.23849">
        <ele>737.6</ele>
        <time>2021-09-07T10:58:41.000Z</time>
      </trkpt>
      <trkpt lat="43.77174" lon="6.23855">
        <ele>738.1</ele>
        <time>2021-09-07T10:58:43.000Z</time>
      </trkpt>
      <trkpt lat="43.77177" lon="6.23856">
        <ele>738.3</ele>
        <time>2021-09-07T10:58:44.000Z</time>
      </trkpt>
      <trkpt lat="43.77176" lon="6.23856">
        <ele>738.2</ele>
        <time>2021-09-07T10:58:45.000Z</time>
      </trkpt>
      <trkpt lat="43.77178" lon="6.23856">
        <ele>738.3</ele>
        <time>2021-09-07T10:58:46.000Z</time>
      </trkpt>
      <trkpt lat="43.77192" lon="6.23863">
        <ele>739.2</ele>
        <time>2021-09-07T10:58:51.000Z</time>
      </trkpt>
      <trkpt lat="43.77197" lon="6.23865">
        <ele>739.2</ele>
        <time>2021-09-07T10:58:51.000Z</time>
      </trkpt>
      <trkpt lat="43.772" lon="6.23866">
        <ele>739.6</ele>
        <time>2021-09-07T10:58:52.000Z</time>
      </trkpt>
      <trkpt lat="43.77198" lon="6.23866">
        <ele>739.3</ele>
        <time>2021-09-07T10:58:53.000Z</time>
      </trkpt>
      <trkpt lat="43.77201" lon="6.23868">
        <ele>739.6</ele>
        <time>2021-09-07T10:58:54.000Z</time>
      </trkpt>
      <trkpt lat="43.77207" lon="6.23872">
        <ele>739.8</ele>
        <time>2021-09-07T10:58:55.000Z</time>
      </trkpt>
      <trkpt lat="43.77209" lon="6.23874">
        <ele>740</ele>
        <time>2021-09-07T10:58:56.000Z</time>
      </trkpt>
      <trkpt lat="43.77207" lon="6.23873">
        <ele>739.9</ele>
        <time>2021-09-07T10:58:57.000Z</time>
      </trkpt>
      <trkpt lat="43.7721" lon="6.23876">
        <ele>740.1</ele>
        <time>2021-09-07T10:58:58.000Z</time>
      </trkpt>
      <trkpt lat="43.77217" lon="6.23881">
        <ele>740.7</ele>
        <time>2021-09-07T10:59:00.000Z</time>
      </trkpt>
      <trkpt lat="43.7722" lon="6.23883">
        <ele>740.6</ele>
        <time>2021-09-07T10:59:01.000Z</time>
      </trkpt>
      <trkpt lat="43.77219" lon="6.23882">
        <ele>740.6</ele>
        <time>2021-09-07T10:59:02.000Z</time>
      </trkpt>
      <trkpt lat="43.77222" lon="6.23883">
        <ele>740.7</ele>
        <time>2021-09-07T10:59:03.000Z</time>
      </trkpt>
      <trkpt lat="43.77228" lon="6.23887">
        <ele>741</ele>
        <time>2021-09-07T10:59:04.000Z</time>
      </trkpt>
      <trkpt lat="43.7723" lon="6.23889">
        <ele>741.1</ele>
        <time>2021-09-07T10:59:06.000Z</time>
      </trkpt>
      <trkpt lat="43.77239" lon="6.23896">
        <ele>741.7</ele>
        <time>2021-09-07T10:59:08.000Z</time>
      </trkpt>
      <trkpt lat="43.77241" lon="6.23898">
        <ele>741.7</ele>
        <time>2021-09-07T10:59:10.000Z</time>
      </trkpt>
      <trkpt lat="43.77244" lon="6.239">
        <ele>742.1</ele>
        <time>2021-09-07T10:59:10.000Z</time>
      </trkpt>
      <trkpt lat="43.77247" lon="6.23901">
        <ele>742.3</ele>
        <time>2021-09-07T10:59:12.000Z</time>
      </trkpt>
      <trkpt lat="43.77251" lon="6.23903">
        <ele>742.3</ele>
        <time>2021-09-07T10:59:12.000Z</time>
      </trkpt>
      <trkpt lat="43.77254" lon="6.23904">
        <ele>742.6</ele>
        <time>2021-09-07T10:59:13.000Z</time>
      </trkpt>
      <trkpt lat="43.77263" lon="6.23907">
        <ele>742.9</ele>
        <time>2021-09-07T10:59:16.000Z</time>
      </trkpt>
      <trkpt lat="43.77264" lon="6.23908">
        <ele>743.1</ele>
        <time>2021-09-07T10:59:18.000Z</time>
      </trkpt>
      <trkpt lat="43.77269" lon="6.2391">
        <ele>743.3</ele>
        <time>2021-09-07T10:59:18.000Z</time>
      </trkpt>
      <trkpt lat="43.77272" lon="6.2391">
        <ele>743.7</ele>
        <time>2021-09-07T10:59:19.000Z</time>
      </trkpt>
      <trkpt lat="43.77271" lon="6.2391">
        <ele>743.6</ele>
        <time>2021-09-07T10:59:20.000Z</time>
      </trkpt>
      <trkpt lat="43.77274" lon="6.2391">
        <ele>743.6</ele>
        <time>2021-09-07T10:59:21.000Z</time>
      </trkpt>
      <trkpt lat="43.77281" lon="6.23911">
        <ele>743.9</ele>
        <time>2021-09-07T10:59:22.000Z</time>
      </trkpt>
      <trkpt lat="43.77282" lon="6.23911">
        <ele>743.9</ele>
        <time>2021-09-07T10:59:24.000Z</time>
      </trkpt>
      <trkpt lat="43.77287" lon="6.23912">
        <ele>744.3</ele>
        <time>2021-09-07T10:59:24.000Z</time>
      </trkpt>
      <trkpt lat="43.7729" lon="6.23912">
        <ele>744.4</ele>
        <time>2021-09-07T10:59:25.000Z</time>
      </trkpt>
      <trkpt lat="43.77289" lon="6.23912">
        <ele>744.4</ele>
        <time>2021-09-07T10:59:26.000Z</time>
      </trkpt>
      <trkpt lat="43.77292" lon="6.23912">
        <ele>744.4</ele>
        <time>2021-09-07T10:59:27.000Z</time>
      </trkpt>
      <trkpt lat="43.77297" lon="6.23914">
        <ele>744.8</ele>
        <time>2021-09-07T10:59:28.000Z</time>
      </trkpt>
      <trkpt lat="43.77299" lon="6.23915">
        <ele>745.1</ele>
        <time>2021-09-07T10:59:29.000Z</time>
      </trkpt>
      <trkpt lat="43.77302" lon="6.23915">
        <ele>744.8</ele>
        <time>2021-09-07T10:59:30.000Z</time>
      </trkpt>
      <trkpt lat="43.77298" lon="6.23914">
        <ele>745</ele>
        <time>2021-09-07T10:59:30.000Z</time>
      </trkpt>
      <trkpt lat="43.77304" lon="6.23916">
        <ele>745.2</ele>
        <time>2021-09-07T10:59:31.000Z</time>
      </trkpt>
      <trkpt lat="43.77301" lon="6.23915">
        <ele>744.9</ele>
        <time>2021-09-07T10:59:31.000Z</time>
      </trkpt>
      <trkpt lat="43.77303" lon="6.23916">
        <ele>745</ele>
        <time>2021-09-07T10:59:32.000Z</time>
      </trkpt>
      <trkpt lat="43.77306" lon="6.23916">
        <ele>745.2</ele>
        <time>2021-09-07T10:59:33.000Z</time>
      </trkpt>
      <trkpt lat="43.77309" lon="6.23916">
        <ele>745.5</ele>
        <time>2021-09-07T10:59:33.000Z</time>
      </trkpt>
      <trkpt lat="43.7731" lon="6.23916">
        <ele>745.6</ele>
        <time>2021-09-07T10:59:35.000Z</time>
      </trkpt>
      <trkpt lat="43.77318" lon="6.23915">
        <ele>745.7</ele>
        <time>2021-09-07T10:59:36.000Z</time>
      </trkpt>
      <trkpt lat="43.7732" lon="6.23915">
        <ele>745.7</ele>
        <time>2021-09-07T10:59:38.000Z</time>
      </trkpt>
      <trkpt lat="43.7733" lon="6.23916">
        <ele>746.4</ele>
        <time>2021-09-07T10:59:40.000Z</time>
      </trkpt>
      <trkpt lat="43.77332" lon="6.23916">
        <ele>746.2</ele>
        <time>2021-09-07T10:59:42.000Z</time>
      </trkpt>
      <trkpt lat="43.77336" lon="6.23915">
        <ele>746.2</ele>
        <time>2021-09-07T10:59:42.000Z</time>
      </trkpt>
      <trkpt lat="43.77337" lon="6.23915">
        <ele>746.3</ele>
        <time>2021-09-07T10:59:44.000Z</time>
      </trkpt>
      <trkpt lat="43.77342" lon="6.23912">
        <ele>746.5</ele>
        <time>2021-09-07T10:59:44.000Z</time>
      </trkpt>
      <trkpt lat="43.77345" lon="6.2391">
        <ele>746.6</ele>
        <time>2021-09-07T10:59:45.000Z</time>
      </trkpt>
      <trkpt lat="43.77344" lon="6.2391">
        <ele>746.5</ele>
        <time>2021-09-07T10:59:46.000Z</time>
      </trkpt>
      <trkpt lat="43.77348" lon="6.23909">
        <ele>746.8</ele>
        <time>2021-09-07T10:59:47.000Z</time>
      </trkpt>
      <trkpt lat="43.77351" lon="6.23907">
        <ele>747</ele>
        <time>2021-09-07T10:59:47.000Z</time>
      </trkpt>
      <trkpt lat="43.77352" lon="6.23906">
        <ele>747.1</ele>
        <time>2021-09-07T10:59:49.000Z</time>
      </trkpt>
      <trkpt lat="43.77359" lon="6.23902">
        <ele>747.1</ele>
        <time>2021-09-07T10:59:50.000Z</time>
      </trkpt>
      <trkpt lat="43.77361" lon="6.23901">
        <ele>747.2</ele>
        <time>2021-09-07T10:59:52.000Z</time>
      </trkpt>
      <trkpt lat="43.77374" lon="6.23889">
        <ele>748.1</ele>
        <time>2021-09-07T10:59:56.000Z</time>
      </trkpt>
      <trkpt lat="43.77373" lon="6.2389">
        <ele>748.1</ele>
        <time>2021-09-07T10:59:57.000Z</time>
      </trkpt>
      <trkpt lat="43.77376" lon="6.23886">
        <ele>748.2</ele>
        <time>2021-09-07T10:59:57.000Z</time>
      </trkpt>
      <trkpt lat="43.77382" lon="6.23877">
        <ele>748.6</ele>
        <time>2021-09-07T11:00:00.000Z</time>
      </trkpt>
      <trkpt lat="43.77383" lon="6.23874">
        <ele>748.9</ele>
        <time>2021-09-07T11:00:01.000Z</time>
      </trkpt>
      <trkpt lat="43.77385" lon="6.23871">
        <ele>749.2</ele>
        <time>2021-09-07T11:00:02.000Z</time>
      </trkpt>
      <trkpt lat="43.77382" lon="6.23877">
        <ele>748.6</ele>
        <time>2021-09-07T11:00:02.000Z</time>
      </trkpt>
      <trkpt lat="43.77386" lon="6.23867">
        <ele>749.2</ele>
        <time>2021-09-07T11:00:03.000Z</time>
      </trkpt>
      <trkpt lat="43.77384" lon="6.23873">
        <ele>749.1</ele>
        <time>2021-09-07T11:00:03.000Z</time>
      </trkpt>
      <trkpt lat="43.77386" lon="6.23868">
        <ele>749.2</ele>
        <time>2021-09-07T11:00:04.000Z</time>
      </trkpt>
      <trkpt lat="43.77387" lon="6.23863">
        <ele>749.2</ele>
        <time>2021-09-07T11:00:04.000Z</time>
      </trkpt>
      <trkpt lat="43.77382" lon="6.2385">
        <ele>749.7</ele>
        <time>2021-09-07T11:00:07.000Z</time>
      </trkpt>
      <trkpt lat="43.7738" lon="6.23846">
        <ele>749.7</ele>
        <time>2021-09-07T11:00:08.000Z</time>
      </trkpt>
      <trkpt lat="43.77381" lon="6.23847">
        <ele>749.7</ele>
        <time>2021-09-07T11:00:09.000Z</time>
      </trkpt>
      <trkpt lat="43.77379" lon="6.23842">
        <ele>749.7</ele>
        <time>2021-09-07T11:00:09.000Z</time>
      </trkpt>
      <trkpt lat="43.77376" lon="6.23833">
        <ele>749.7</ele>
        <time>2021-09-07T11:00:11.000Z</time>
      </trkpt>
      <trkpt lat="43.77375" lon="6.23831">
        <ele>749.9</ele>
        <time>2021-09-07T11:00:13.000Z</time>
      </trkpt>
      <trkpt lat="43.7737" lon="6.23808">
        <ele>750.8</ele>
        <time>2021-09-07T11:00:18.000Z</time>
      </trkpt>
      <trkpt lat="43.77372" lon="6.23802">
        <ele>751.1</ele>
        <time>2021-09-07T11:00:18.000Z</time>
      </trkpt>
      <trkpt lat="43.77374" lon="6.23799">
        <ele>751.1</ele>
        <time>2021-09-07T11:00:19.000Z</time>
      </trkpt>
      <trkpt lat="43.77373" lon="6.238">
        <ele>751</ele>
        <time>2021-09-07T11:00:20.000Z</time>
      </trkpt>
      <trkpt lat="43.77376" lon="6.23797">
        <ele>751.3</ele>
        <time>2021-09-07T11:00:21.000Z</time>
      </trkpt>
      <trkpt lat="43.77379" lon="6.23795">
        <ele>751.6</ele>
        <time>2021-09-07T11:00:21.000Z</time>
      </trkpt>
      <trkpt lat="43.77381" lon="6.23795">
        <ele>751.7</ele>
        <time>2021-09-07T11:00:23.000Z</time>
      </trkpt>
      <trkpt lat="43.77386" lon="6.23796">
        <ele>751.5</ele>
        <time>2021-09-07T11:00:23.000Z</time>
      </trkpt>
      <trkpt lat="43.77388" lon="6.23797">
        <ele>751.8</ele>
        <time>2021-09-07T11:00:25.000Z</time>
      </trkpt>
      <trkpt lat="43.77393" lon="6.238">
        <ele>752.2</ele>
        <time>2021-09-07T11:00:25.000Z</time>
      </trkpt>
      <trkpt lat="43.77395" lon="6.23801">
        <ele>752.3</ele>
        <time>2021-09-07T11:00:27.000Z</time>
      </trkpt>
      <trkpt lat="43.77401" lon="6.23809">
        <ele>752.7</ele>
        <time>2021-09-07T11:00:28.000Z</time>
      </trkpt>
      <trkpt lat="43.77402" lon="6.23812">
        <ele>752.7</ele>
        <time>2021-09-07T11:00:30.000Z</time>
      </trkpt>
      <trkpt lat="43.77405" lon="6.23829">
        <ele>753.4</ele>
        <time>2021-09-07T11:00:35.000Z</time>
      </trkpt>
      <trkpt lat="43.77406" lon="6.23836">
        <ele>753.6</ele>
        <time>2021-09-07T11:00:35.000Z</time>
      </trkpt>
      <trkpt lat="43.77406" lon="6.2384">
        <ele>753.9</ele>
        <time>2021-09-07T11:00:36.000Z</time>
      </trkpt>
      <trkpt lat="43.77406" lon="6.23838">
        <ele>753.7</ele>
        <time>2021-09-07T11:00:37.000Z</time>
      </trkpt>
      <trkpt lat="43.77407" lon="6.23843">
        <ele>754</ele>
        <time>2021-09-07T11:00:38.000Z</time>
      </trkpt>
      <trkpt lat="43.77407" lon="6.23847">
        <ele>754.1</ele>
        <time>2021-09-07T11:00:38.000Z</time>
      </trkpt>
      <trkpt lat="43.77408" lon="6.2385">
        <ele>754.5</ele>
        <time>2021-09-07T11:00:40.000Z</time>
      </trkpt>
      <trkpt lat="43.7741" lon="6.23853">
        <ele>754.6</ele>
        <time>2021-09-07T11:00:40.000Z</time>
      </trkpt>
      <trkpt lat="43.77411" lon="6.23856">
        <ele>754.9</ele>
        <time>2021-09-07T11:00:41.000Z</time>
      </trkpt>
      <trkpt lat="43.7741" lon="6.23855">
        <ele>754.7</ele>
        <time>2021-09-07T11:00:42.000Z</time>
      </trkpt>
      <trkpt lat="43.77412" lon="6.23858">
        <ele>754.9</ele>
        <time>2021-09-07T11:00:43.000Z</time>
      </trkpt>
      <trkpt lat="43.77414" lon="6.23864">
        <ele>755.2</ele>
        <time>2021-09-07T11:00:44.000Z</time>
      </trkpt>
      <trkpt lat="43.77415" lon="6.23867">
        <ele>755.4</ele>
        <time>2021-09-07T11:00:45.000Z</time>
      </trkpt>
      <trkpt lat="43.77416" lon="6.2387">
        <ele>755.5</ele>
        <time>2021-09-07T11:00:46.000Z</time>
      </trkpt>
      <trkpt lat="43.77414" lon="6.23866">
        <ele>755.4</ele>
        <time>2021-09-07T11:00:46.000Z</time>
      </trkpt>
      <trkpt lat="43.77416" lon="6.23869">
        <ele>755.4</ele>
        <time>2021-09-07T11:00:47.000Z</time>
      </trkpt>
      <trkpt lat="43.77417" lon="6.23872">
        <ele>755.7</ele>
        <time>2021-09-07T11:00:48.000Z</time>
      </trkpt>
      <trkpt lat="43.77419" lon="6.23877">
        <ele>755.7</ele>
        <time>2021-09-07T11:00:48.000Z</time>
      </trkpt>
      <trkpt lat="43.7742" lon="6.23879">
        <ele>755.9</ele>
        <time>2021-09-07T11:00:50.000Z</time>
      </trkpt>
      <trkpt lat="43.77423" lon="6.23885">
        <ele>756.2</ele>
        <time>2021-09-07T11:00:51.000Z</time>
      </trkpt>
      <trkpt lat="43.77423" lon="6.23886">
        <ele>756.3</ele>
        <time>2021-09-07T11:00:53.000Z</time>
      </trkpt>
      <trkpt lat="43.77425" lon="6.23891">
        <ele>756.5</ele>
        <time>2021-09-07T11:00:53.000Z</time>
      </trkpt>
      <trkpt lat="43.77426" lon="6.23894">
        <ele>756.7</ele>
        <time>2021-09-07T11:00:55.000Z</time>
      </trkpt>
      <trkpt lat="43.77429" lon="6.23901">
        <ele>757.3</ele>
        <time>2021-09-07T11:00:57.000Z</time>
      </trkpt>
      <trkpt lat="43.7743" lon="6.23903">
        <ele>757.3</ele>
        <time>2021-09-07T11:00:58.000Z</time>
      </trkpt>
      <trkpt lat="43.7743" lon="6.23903">
        <ele>757.3</ele>
        <time>2021-09-07T11:00:59.000Z</time>
      </trkpt>
      <trkpt lat="43.77431" lon="6.23906">
        <ele>757.5</ele>
        <time>2021-09-07T11:00:59.000Z</time>
      </trkpt>
      <trkpt lat="43.77433" lon="6.23912">
        <ele>758.1</ele>
        <time>2021-09-07T11:01:01.000Z</time>
      </trkpt>
      <trkpt lat="43.77435" lon="6.23914">
        <ele>758.2</ele>
        <time>2021-09-07T11:01:02.000Z</time>
      </trkpt>
      <trkpt lat="43.77436" lon="6.23917">
        <ele>758.3</ele>
        <time>2021-09-07T11:01:03.000Z</time>
      </trkpt>
      <trkpt lat="43.77434" lon="6.23913">
        <ele>758.1</ele>
        <time>2021-09-07T11:01:03.000Z</time>
      </trkpt>
      <trkpt lat="43.77438" lon="6.23919">
        <ele>758.5</ele>
        <time>2021-09-07T11:01:04.000Z</time>
      </trkpt>
      <trkpt lat="43.77436" lon="6.23916">
        <ele>758.3</ele>
        <time>2021-09-07T11:01:04.000Z</time>
      </trkpt>
      <trkpt lat="43.77437" lon="6.23918">
        <ele>758.5</ele>
        <time>2021-09-07T11:01:05.000Z</time>
      </trkpt>
      <trkpt lat="43.77439" lon="6.23921">
        <ele>758.5</ele>
        <time>2021-09-07T11:01:06.000Z</time>
      </trkpt>
      <trkpt lat="43.77442" lon="6.23926">
        <ele>759.3</ele>
        <time>2021-09-07T11:01:07.000Z</time>
      </trkpt>
      <trkpt lat="43.77443" lon="6.23928">
        <ele>759.3</ele>
        <time>2021-09-07T11:01:08.000Z</time>
      </trkpt>
      <trkpt lat="43.77442" lon="6.23927">
        <ele>759.3</ele>
        <time>2021-09-07T11:01:09.000Z</time>
      </trkpt>
      <trkpt lat="43.77444" lon="6.2393">
        <ele>759.6</ele>
        <time>2021-09-07T11:01:10.000Z</time>
      </trkpt>
      <trkpt lat="43.77447" lon="6.23937">
        <ele>760.2</ele>
        <time>2021-09-07T11:01:12.000Z</time>
      </trkpt>
      <trkpt lat="43.77448" lon="6.23939">
        <ele>760.4</ele>
        <time>2021-09-07T11:01:14.000Z</time>
      </trkpt>
      <trkpt lat="43.7745" lon="6.23942">
        <ele>760.5</ele>
        <time>2021-09-07T11:01:14.000Z</time>
      </trkpt>
      <trkpt lat="43.77451" lon="6.23943">
        <ele>760.6</ele>
        <time>2021-09-07T11:01:15.000Z</time>
      </trkpt>
      <trkpt lat="43.77454" lon="6.2395">
        <ele>761.4</ele>
        <time>2021-09-07T11:01:18.000Z</time>
      </trkpt>
      <trkpt lat="43.77455" lon="6.23953">
        <ele>761.6</ele>
        <time>2021-09-07T11:01:19.000Z</time>
      </trkpt>
      <trkpt lat="43.77454" lon="6.23952">
        <ele>761.4</ele>
        <time>2021-09-07T11:01:20.000Z</time>
      </trkpt>
      <trkpt lat="43.77456" lon="6.23954">
        <ele>761.9</ele>
        <time>2021-09-07T11:01:21.000Z</time>
      </trkpt>
      <trkpt lat="43.77459" lon="6.23959">
        <ele>762.3</ele>
        <time>2021-09-07T11:01:22.000Z</time>
      </trkpt>
      <trkpt lat="43.7746" lon="6.23962">
        <ele>762.5</ele>
        <time>2021-09-07T11:01:23.000Z</time>
      </trkpt>
      <trkpt lat="43.77461" lon="6.23964">
        <ele>762.6</ele>
        <time>2021-09-07T11:01:24.000Z</time>
      </trkpt>
      <trkpt lat="43.77459" lon="6.2396">
        <ele>762.4</ele>
        <time>2021-09-07T11:01:24.000Z</time>
      </trkpt>
      <trkpt lat="43.77461" lon="6.23963">
        <ele>762.6</ele>
        <time>2021-09-07T11:01:25.000Z</time>
      </trkpt>
      <trkpt lat="43.77463" lon="6.23967">
        <ele>762.6</ele>
        <time>2021-09-07T11:01:25.000Z</time>
      </trkpt>
      <trkpt lat="43.77464" lon="6.23969">
        <ele>763.1</ele>
        <time>2021-09-07T11:01:26.000Z</time>
      </trkpt>
      <trkpt lat="43.77465" lon="6.2397">
        <ele>763</ele>
        <time>2021-09-07T11:01:28.000Z</time>
      </trkpt>
      <trkpt lat="43.7747" lon="6.23976">
        <ele>764</ele>
        <time>2021-09-07T11:01:29.000Z</time>
      </trkpt>
      <trkpt lat="43.77471" lon="6.23978">
        <ele>764</ele>
        <time>2021-09-07T11:01:31.000Z</time>
      </trkpt>
      <trkpt lat="43.77476" lon="6.23981">
        <ele>764.3</ele>
        <time>2021-09-07T11:01:32.000Z</time>
      </trkpt>
      <trkpt lat="43.77478" lon="6.23983">
        <ele>764</ele>
        <time>2021-09-07T11:01:33.000Z</time>
      </trkpt>
      <trkpt lat="43.77477" lon="6.23982">
        <ele>764.1</ele>
        <time>2021-09-07T11:01:34.000Z</time>
      </trkpt>
      <trkpt lat="43.7748" lon="6.23983">
        <ele>764.1</ele>
        <time>2021-09-07T11:01:35.000Z</time>
      </trkpt>
      <trkpt lat="43.77483" lon="6.23985">
        <ele>764.1</ele>
        <time>2021-09-07T11:01:35.000Z</time>
      </trkpt>
      <trkpt lat="43.77486" lon="6.23987">
        <ele>764.3</ele>
        <time>2021-09-07T11:01:36.000Z</time>
      </trkpt>
      <trkpt lat="43.77485" lon="6.23986">
        <ele>764.1</ele>
        <time>2021-09-07T11:01:37.000Z</time>
      </trkpt>
      <trkpt lat="43.77487" lon="6.23988">
        <ele>764.6</ele>
        <time>2021-09-07T11:01:38.000Z</time>
      </trkpt>
      <trkpt lat="43.77494" lon="6.23991">
        <ele>765.2</ele>
        <time>2021-09-07T11:01:40.000Z</time>
      </trkpt>
      <trkpt lat="43.77496" lon="6.23991">
        <ele>765.3</ele>
        <time>2021-09-07T11:01:41.000Z</time>
      </trkpt>
      <trkpt lat="43.77495" lon="6.2399">
        <ele>765.3</ele>
        <time>2021-09-07T11:01:42.000Z</time>
      </trkpt>
      <trkpt lat="43.77498" lon="6.23993">
        <ele>765.2</ele>
        <time>2021-09-07T11:01:42.000Z</time>
      </trkpt>
      <trkpt lat="43.77502" lon="6.23996">
        <ele>765.6</ele>
        <time>2021-09-07T11:01:44.000Z</time>
      </trkpt>
      <trkpt lat="43.77504" lon="6.23997">
        <ele>765.8</ele>
        <time>2021-09-07T11:01:45.000Z</time>
      </trkpt>
      <trkpt lat="43.77504" lon="6.23997">
        <ele>765.8</ele>
        <time>2021-09-07T11:01:46.000Z</time>
      </trkpt>
      <trkpt lat="43.77507" lon="6.23998">
        <ele>765.9</ele>
        <time>2021-09-07T11:01:46.000Z</time>
      </trkpt>
      <trkpt lat="43.77509" lon="6.23998">
        <ele>766.1</ele>
        <time>2021-09-07T11:01:47.000Z</time>
      </trkpt>
      <trkpt lat="43.77511" lon="6.23998">
        <ele>765.9</ele>
        <time>2021-09-07T11:01:48.000Z</time>
      </trkpt>
      <trkpt lat="43.7751" lon="6.23998">
        <ele>765.9</ele>
        <time>2021-09-07T11:01:49.000Z</time>
      </trkpt>
      <trkpt lat="43.77512" lon="6.23999">
        <ele>766</ele>
        <time>2021-09-07T11:01:50.000Z</time>
      </trkpt>
      <trkpt lat="43.77514" lon="6.24">
        <ele>766.3</ele>
        <time>2021-09-07T11:01:50.000Z</time>
      </trkpt>
      <trkpt lat="43.77515" lon="6.24002">
        <ele>766.5</ele>
        <time>2021-09-07T11:01:52.000Z</time>
      </trkpt>
      <trkpt lat="43.77515" lon="6.24004">
        <ele>766.6</ele>
        <time>2021-09-07T11:01:52.000Z</time>
      </trkpt>
      <trkpt lat="43.77515" lon="6.24005">
        <ele>766.7</ele>
        <time>2021-09-07T11:01:54.000Z</time>
      </trkpt>
      <trkpt lat="43.77513" lon="6.24007">
        <ele>767</ele>
        <time>2021-09-07T11:01:54.000Z</time>
      </trkpt>
      <trkpt lat="43.77512" lon="6.24009">
        <ele>766.9</ele>
        <time>2021-09-07T11:01:55.000Z</time>
      </trkpt>
      <trkpt lat="43.77513" lon="6.24008">
        <ele>766.9</ele>
        <time>2021-09-07T11:01:56.000Z</time>
      </trkpt>
      <trkpt lat="43.77511" lon="6.24012">
        <ele>766.9</ele>
        <time>2021-09-07T11:01:56.000Z</time>
      </trkpt>
      <trkpt lat="43.77511" lon="6.24025">
        <ele>767.9</ele>
        <time>2021-09-07T11:02:00.000Z</time>
      </trkpt>
      <trkpt lat="43.77509" lon="6.24029">
        <ele>768</ele>
        <time>2021-09-07T11:02:01.000Z</time>
      </trkpt>
      <trkpt lat="43.77511" lon="6.24023">
        <ele>767.7</ele>
        <time>2021-09-07T11:02:01.000Z</time>
      </trkpt>
      <trkpt lat="43.7751" lon="6.24028">
        <ele>768</ele>
        <time>2021-09-07T11:02:02.000Z</time>
      </trkpt>
      <trkpt lat="43.77508" lon="6.2403">
        <ele>768.2</ele>
        <time>2021-09-07T11:02:03.000Z</time>
      </trkpt>
      <trkpt lat="43.77504" lon="6.2404">
        <ele>769</ele>
        <time>2021-09-07T11:02:05.000Z</time>
      </trkpt>
      <trkpt lat="43.77503" lon="6.24043">
        <ele>769.1</ele>
        <time>2021-09-07T11:02:06.000Z</time>
      </trkpt>
      <trkpt lat="43.77502" lon="6.24047">
        <ele>769.3</ele>
        <time>2021-09-07T11:02:07.000Z</time>
      </trkpt>
      <trkpt lat="43.77504" lon="6.24042">
        <ele>769</ele>
        <time>2021-09-07T11:02:07.000Z</time>
      </trkpt>
      <trkpt lat="43.77502" lon="6.2405">
        <ele>769.2</ele>
        <time>2021-09-07T11:02:08.000Z</time>
      </trkpt>
      <trkpt lat="43.77503" lon="6.24045">
        <ele>769.2</ele>
        <time>2021-09-07T11:02:08.000Z</time>
      </trkpt>
      <trkpt lat="43.77502" lon="6.24049">
        <ele>769.2</ele>
        <time>2021-09-07T11:02:09.000Z</time>
      </trkpt>
      <trkpt lat="43.77501" lon="6.24053">
        <ele>769.3</ele>
        <time>2021-09-07T11:02:09.000Z</time>
      </trkpt>
      <trkpt lat="43.77501" lon="6.24058">
        <ele>769.5</ele>
        <time>2021-09-07T11:02:11.000Z</time>
      </trkpt>
      <trkpt lat="43.77501" lon="6.24061">
        <ele>769.5</ele>
        <time>2021-09-07T11:02:13.000Z</time>
      </trkpt>
      <trkpt lat="43.77502" lon="6.24071">
        <ele>770</ele>
        <time>2021-09-07T11:02:15.000Z</time>
      </trkpt>
      <trkpt lat="43.77502" lon="6.24073">
        <ele>770</ele>
        <time>2021-09-07T11:02:16.000Z</time>
      </trkpt>
      <trkpt lat="43.77503" lon="6.24076">
        <ele>770.2</ele>
        <time>2021-09-07T11:02:17.000Z</time>
      </trkpt>
      <trkpt lat="43.77502" lon="6.24071">
        <ele>770</ele>
        <time>2021-09-07T11:02:17.000Z</time>
      </trkpt>
      <trkpt lat="43.77503" lon="6.24079">
        <ele>770.4</ele>
        <time>2021-09-07T11:02:18.000Z</time>
      </trkpt>
      <trkpt lat="43.77502" lon="6.24076">
        <ele>770.1</ele>
        <time>2021-09-07T11:02:18.000Z</time>
      </trkpt>
      <trkpt lat="43.77503" lon="6.24078">
        <ele>770.3</ele>
        <time>2021-09-07T11:02:19.000Z</time>
      </trkpt>
      <trkpt lat="43.77504" lon="6.24082">
        <ele>770.6</ele>
        <time>2021-09-07T11:02:20.000Z</time>
      </trkpt>
      <trkpt lat="43.77506" lon="6.24089">
        <ele>770.3</ele>
        <time>2021-09-07T11:02:21.000Z</time>
      </trkpt>
      <trkpt lat="43.77507" lon="6.24092">
        <ele>770.8</ele>
        <time>2021-09-07T11:02:22.000Z</time>
      </trkpt>
      <trkpt lat="43.77506" lon="6.24091">
        <ele>770.6</ele>
        <time>2021-09-07T11:02:23.000Z</time>
      </trkpt>
      <trkpt lat="43.77508" lon="6.24094">
        <ele>770.8</ele>
        <time>2021-09-07T11:02:24.000Z</time>
      </trkpt>
      <trkpt lat="43.77509" lon="6.24101">
        <ele>770.9</ele>
        <time>2021-09-07T11:02:25.000Z</time>
      </trkpt>
      <trkpt lat="43.7751" lon="6.24103">
        <ele>771</ele>
        <time>2021-09-07T11:02:26.000Z</time>
      </trkpt>
      <trkpt lat="43.77511" lon="6.24106">
        <ele>771</ele>
        <time>2021-09-07T11:02:27.000Z</time>
      </trkpt>
      <trkpt lat="43.7751" lon="6.24102">
        <ele>770.9</ele>
        <time>2021-09-07T11:02:27.000Z</time>
      </trkpt>
      <trkpt lat="43.77511" lon="6.24105">
        <ele>770.9</ele>
        <time>2021-09-07T11:02:28.000Z</time>
      </trkpt>
      <trkpt lat="43.77512" lon="6.24109">
        <ele>771.2</ele>
        <time>2021-09-07T11:02:28.000Z</time>
      </trkpt>
      <trkpt lat="43.77512" lon="6.24115">
        <ele>771.8</ele>
        <time>2021-09-07T11:02:29.000Z</time>
      </trkpt>
      <trkpt lat="43.77514" lon="6.24122">
        <ele>772.2</ele>
        <time>2021-09-07T11:02:31.000Z</time>
      </trkpt>
      <trkpt lat="43.77513" lon="6.24116">
        <ele>771.9</ele>
        <time>2021-09-07T11:02:32.000Z</time>
      </trkpt>
      <trkpt lat="43.77514" lon="6.24127">
        <ele>772.7</ele>
        <time>2021-09-07T11:02:33.000Z</time>
      </trkpt>
      <trkpt lat="43.77514" lon="6.24124">
        <ele>772.3</ele>
        <time>2021-09-07T11:02:34.000Z</time>
      </trkpt>
      <trkpt lat="43.77514" lon="6.24132">
        <ele>772.9</ele>
        <time>2021-09-07T11:02:35.000Z</time>
      </trkpt>
      <trkpt lat="43.77515" lon="6.24129">
        <ele>772.9</ele>
        <time>2021-09-07T11:02:36.000Z</time>
      </trkpt>
      <trkpt lat="43.77514" lon="6.24134">
        <ele>773.1</ele>
        <time>2021-09-07T11:02:36.000Z</time>
      </trkpt>
      <trkpt lat="43.77513" lon="6.2414">
        <ele>773.5</ele>
        <time>2021-09-07T11:02:38.000Z</time>
      </trkpt>
      <trkpt lat="43.77513" lon="6.24142">
        <ele>773.3</ele>
        <time>2021-09-07T11:02:41.000Z</time>
      </trkpt>
      <trkpt lat="43.77508" lon="6.24155">
        <ele>774</ele>
        <time>2021-09-07T11:02:43.000Z</time>
      </trkpt>
      <trkpt lat="43.77507" lon="6.24157">
        <ele>774</ele>
        <time>2021-09-07T11:02:46.000Z</time>
      </trkpt>
      <trkpt lat="43.77501" lon="6.24171">
        <ele>774.6</ele>
        <time>2021-09-07T11:02:48.000Z</time>
      </trkpt>
      <trkpt lat="43.775" lon="6.24174">
        <ele>774.7</ele>
        <time>2021-09-07T11:02:49.000Z</time>
      </trkpt>
      <trkpt lat="43.77498" lon="6.24179">
        <ele>774.9</ele>
        <time>2021-09-07T11:02:51.000Z</time>
      </trkpt>
      <trkpt lat="43.77496" lon="6.24184">
        <ele>775.3</ele>
        <time>2021-09-07T11:02:53.000Z</time>
      </trkpt>
      <trkpt lat="43.77497" lon="6.24181">
        <ele>775.1</ele>
        <time>2021-09-07T11:02:54.000Z</time>
      </trkpt>
      <trkpt lat="43.77495" lon="6.24186">
        <ele>775.3</ele>
        <time>2021-09-07T11:02:56.000Z</time>
      </trkpt>
      <trkpt lat="43.77492" lon="6.24197">
        <ele>776.1</ele>
        <time>2021-09-07T11:02:58.000Z</time>
      </trkpt>
      <trkpt lat="43.77492" lon="6.242">
        <ele>776.1</ele>
        <time>2021-09-07T11:02:59.000Z</time>
      </trkpt>
      <trkpt lat="43.77492" lon="6.24207">
        <ele>776</ele>
        <time>2021-09-07T11:03:01.000Z</time>
      </trkpt>
      <trkpt lat="43.77492" lon="6.24199">
        <ele>776.1</ele>
        <time>2021-09-07T11:03:01.000Z</time>
      </trkpt>
      <trkpt lat="43.77492" lon="6.24203">
        <ele>776.1</ele>
        <time>2021-09-07T11:03:02.000Z</time>
      </trkpt>
      <trkpt lat="43.77492" lon="6.24209">
        <ele>776.1</ele>
        <time>2021-09-07T11:03:04.000Z</time>
      </trkpt>
      <trkpt lat="43.77491" lon="6.24218">
        <ele>776.5</ele>
        <time>2021-09-07T11:03:04.000Z</time>
      </trkpt>
      <trkpt lat="43.77491" lon="6.24222">
        <ele>776.8</ele>
        <time>2021-09-07T11:03:05.000Z</time>
      </trkpt>
      <trkpt lat="43.77492" lon="6.24226">
        <ele>777</ele>
        <time>2021-09-07T11:03:06.000Z</time>
      </trkpt>
      <trkpt lat="43.77491" lon="6.2423">
        <ele>777.1</ele>
        <time>2021-09-07T11:03:07.000Z</time>
      </trkpt>
      <trkpt lat="43.77492" lon="6.24234">
        <ele>777.2</ele>
        <time>2021-09-07T11:03:08.000Z</time>
      </trkpt>
      <trkpt lat="43.77492" lon="6.24238">
        <ele>777.5</ele>
        <time>2021-09-07T11:03:09.000Z</time>
      </trkpt>
      <trkpt lat="43.77492" lon="6.24228">
        <ele>777.1</ele>
        <time>2021-09-07T11:03:09.000Z</time>
      </trkpt>
      <trkpt lat="43.77491" lon="6.24232">
        <ele>777.1</ele>
        <time>2021-09-07T11:03:10.000Z</time>
      </trkpt>
      <trkpt lat="43.77492" lon="6.24236">
        <ele>777.4</ele>
        <time>2021-09-07T11:03:11.000Z</time>
      </trkpt>
      <trkpt lat="43.77492" lon="6.24241">
        <ele>777.8</ele>
        <time>2021-09-07T11:03:12.000Z</time>
      </trkpt>
      <trkpt lat="43.77493" lon="6.24254">
        <ele>778.1</ele>
        <time>2021-09-07T11:03:13.000Z</time>
      </trkpt>
      <trkpt lat="43.77494" lon="6.24257">
        <ele>778.2</ele>
        <time>2021-09-07T11:03:14.000Z</time>
      </trkpt>
      <trkpt lat="43.77496" lon="6.24264">
        <ele>778.5</ele>
        <time>2021-09-07T11:03:16.000Z</time>
      </trkpt>
      <trkpt lat="43.77493" lon="6.24255">
        <ele>778.1</ele>
        <time>2021-09-07T11:03:16.000Z</time>
      </trkpt>
      <trkpt lat="43.77495" lon="6.2426">
        <ele>778.4</ele>
        <time>2021-09-07T11:03:17.000Z</time>
      </trkpt>
      <trkpt lat="43.77498" lon="6.24267">
        <ele>778.6</ele>
        <time>2021-09-07T11:03:17.000Z</time>
      </trkpt>
      <trkpt lat="43.77502" lon="6.24273">
        <ele>779.1</ele>
        <time>2021-09-07T11:03:19.000Z</time>
      </trkpt>
      <trkpt lat="43.77506" lon="6.24279">
        <ele>779.3</ele>
        <time>2021-09-07T11:03:21.000Z</time>
      </trkpt>
      <trkpt lat="43.77508" lon="6.24281">
        <ele>779.5</ele>
        <time>2021-09-07T11:03:22.000Z</time>
      </trkpt>
      <trkpt lat="43.77504" lon="6.24275">
        <ele>779.2</ele>
        <time>2021-09-07T11:03:22.000Z</time>
      </trkpt>
      <trkpt lat="43.77511" lon="6.24285">
        <ele>779.6</ele>
        <time>2021-09-07T11:03:23.000Z</time>
      </trkpt>
      <trkpt lat="43.77507" lon="6.2428">
        <ele>779.4</ele>
        <time>2021-09-07T11:03:24.000Z</time>
      </trkpt>
      <trkpt lat="43.77517" lon="6.24285">
        <ele>779.2</ele>
        <time>2021-09-07T11:03:25.000Z</time>
      </trkpt>
      <trkpt lat="43.7751" lon="6.24284">
        <ele>779.6</ele>
        <time>2021-09-07T11:03:25.000Z</time>
      </trkpt>
      <trkpt lat="43.77513" lon="6.24286">
        <ele>779.6</ele>
        <time>2021-09-07T11:03:26.000Z</time>
      </trkpt>
      <trkpt lat="43.77523" lon="6.24284">
        <ele>779.5</ele>
        <time>2021-09-07T11:03:27.000Z</time>
      </trkpt>
      <trkpt lat="43.7752" lon="6.24284">
        <ele>779.4</ele>
        <time>2021-09-07T11:03:28.000Z</time>
      </trkpt>
      <trkpt lat="43.77529" lon="6.24286">
        <ele>779.6</ele>
        <time>2021-09-07T11:03:29.000Z</time>
      </trkpt>
      <trkpt lat="43.77525" lon="6.24285">
        <ele>779.5</ele>
        <time>2021-09-07T11:03:30.000Z</time>
      </trkpt>
      <trkpt lat="43.77531" lon="6.24286">
        <ele>779.7</ele>
        <time>2021-09-07T11:03:32.000Z</time>
      </trkpt>
      <trkpt lat="43.77536" lon="6.24287">
        <ele>780.3</ele>
        <time>2021-09-07T11:03:32.000Z</time>
      </trkpt>
      <trkpt lat="43.77539" lon="6.24288">
        <ele>780.5</ele>
        <time>2021-09-07T11:03:33.000Z</time>
      </trkpt>
      <trkpt lat="43.77538" lon="6.24287">
        <ele>780.4</ele>
        <time>2021-09-07T11:03:35.000Z</time>
      </trkpt>
      <trkpt lat="43.77542" lon="6.24288">
        <ele>780.6</ele>
        <time>2021-09-07T11:03:36.000Z</time>
      </trkpt>
      <trkpt lat="43.77551" lon="6.24288">
        <ele>780.9</ele>
        <time>2021-09-07T11:03:37.000Z</time>
      </trkpt>
      <trkpt lat="43.77555" lon="6.24288">
        <ele>781.1</ele>
        <time>2021-09-07T11:03:38.000Z</time>
      </trkpt>
      <trkpt lat="43.77558" lon="6.24288">
        <ele>781.1</ele>
        <time>2021-09-07T11:03:39.000Z</time>
      </trkpt>
      <trkpt lat="43.77553" lon="6.24288">
        <ele>780.9</ele>
        <time>2021-09-07T11:03:40.000Z</time>
      </trkpt>
      <trkpt lat="43.77557" lon="6.24288">
        <ele>781.2</ele>
        <time>2021-09-07T11:03:41.000Z</time>
      </trkpt>
      <trkpt lat="43.77561" lon="6.24287">
        <ele>781.4</ele>
        <time>2021-09-07T11:03:42.000Z</time>
      </trkpt>
      <trkpt lat="43.77568" lon="6.24287">
        <ele>781.6</ele>
        <time>2021-09-07T11:03:42.000Z</time>
      </trkpt>
      <trkpt lat="43.77571" lon="6.24287">
        <ele>781.8</ele>
        <time>2021-09-07T11:03:43.000Z</time>
      </trkpt>
      <trkpt lat="43.77569" lon="6.24287">
        <ele>781.7</ele>
        <time>2021-09-07T11:03:45.000Z</time>
      </trkpt>
      <trkpt lat="43.77573" lon="6.24287">
        <ele>782</ele>
        <time>2021-09-07T11:03:46.000Z</time>
      </trkpt>
      <trkpt lat="43.77578" lon="6.24288">
        <ele>782.3</ele>
        <time>2021-09-07T11:03:46.000Z</time>
      </trkpt>
      <trkpt lat="43.77581" lon="6.24287">
        <ele>782.4</ele>
        <time>2021-09-07T11:03:47.000Z</time>
      </trkpt>
      <trkpt lat="43.77584" lon="6.24287">
        <ele>782.7</ele>
        <time>2021-09-07T11:03:48.000Z</time>
      </trkpt>
      <trkpt lat="43.77586" lon="6.24286">
        <ele>782.8</ele>
        <time>2021-09-07T11:03:49.000Z</time>
      </trkpt>
      <trkpt lat="43.7758" lon="6.24287">
        <ele>782.3</ele>
        <time>2021-09-07T11:03:49.000Z</time>
      </trkpt>
      <trkpt lat="43.77583" lon="6.24287">
        <ele>782.4</ele>
        <time>2021-09-07T11:03:50.000Z</time>
      </trkpt>
      <trkpt lat="43.77595" lon="6.24283">
        <ele>783.3</ele>
        <time>2021-09-07T11:03:52.000Z</time>
      </trkpt>
      <trkpt lat="43.77598" lon="6.24282">
        <ele>783.5</ele>
        <time>2021-09-07T11:03:53.000Z</time>
      </trkpt>
      <trkpt lat="43.77601" lon="6.2428">
        <ele>783.4</ele>
        <time>2021-09-07T11:03:54.000Z</time>
      </trkpt>
      <trkpt lat="43.77597" lon="6.24283">
        <ele>783.4</ele>
        <time>2021-09-07T11:03:55.000Z</time>
      </trkpt>
      <trkpt lat="43.77606" lon="6.24275">
        <ele>783.6</ele>
        <time>2021-09-07T11:03:56.000Z</time>
      </trkpt>
      <trkpt lat="43.776" lon="6.2428">
        <ele>783.4</ele>
        <time>2021-09-07T11:03:56.000Z</time>
      </trkpt>
      <trkpt lat="43.77604" lon="6.24278">
        <ele>783.6</ele>
        <time>2021-09-07T11:03:57.000Z</time>
      </trkpt>
      <trkpt lat="43.77613" lon="6.24271">
        <ele>783.9</ele>
        <time>2021-09-07T11:03:58.000Z</time>
      </trkpt>
      <trkpt lat="43.77609" lon="6.24273">
        <ele>783.9</ele>
        <time>2021-09-07T11:03:59.000Z</time>
      </trkpt>
      <trkpt lat="43.77616" lon="6.24268">
        <ele>783.9</ele>
        <time>2021-09-07T11:03:59.000Z</time>
      </trkpt>
      <trkpt lat="43.77623" lon="6.24264">
        <ele>784.4</ele>
        <time>2021-09-07T11:04:01.000Z</time>
      </trkpt>
      <trkpt lat="43.77629" lon="6.24261">
        <ele>784.5</ele>
        <time>2021-09-07T11:04:03.000Z</time>
      </trkpt>
      <trkpt lat="43.77632" lon="6.2426">
        <ele>784.5</ele>
        <time>2021-09-07T11:04:04.000Z</time>
      </trkpt>
      <trkpt lat="43.77624" lon="6.24263">
        <ele>784.4</ele>
        <time>2021-09-07T11:04:04.000Z</time>
      </trkpt>
      <trkpt lat="43.77637" lon="6.24258">
        <ele>785</ele>
        <time>2021-09-07T11:04:06.000Z</time>
      </trkpt>
      <trkpt lat="43.77631" lon="6.2426">
        <ele>784.5</ele>
        <time>2021-09-07T11:04:06.000Z</time>
      </trkpt>
      <trkpt lat="43.7764" lon="6.24258">
        <ele>785.3</ele>
        <time>2021-09-07T11:04:07.000Z</time>
      </trkpt>
      <trkpt lat="43.77634" lon="6.24259">
        <ele>784.6</ele>
        <time>2021-09-07T11:04:07.000Z</time>
      </trkpt>
      <trkpt lat="43.77645" lon="6.24261">
        <ele>785.4</ele>
        <time>2021-09-07T11:04:09.000Z</time>
      </trkpt>
      <trkpt lat="43.77638" lon="6.24258">
        <ele>785</ele>
        <time>2021-09-07T11:04:09.000Z</time>
      </trkpt>
      <trkpt lat="43.77641" lon="6.24258">
        <ele>785.3</ele>
        <time>2021-09-07T11:04:10.000Z</time>
      </trkpt>
      <trkpt lat="43.77648" lon="6.24263">
        <ele>785.6</ele>
        <time>2021-09-07T11:04:12.000Z</time>
      </trkpt>
      <trkpt lat="43.77654" lon="6.24274">
        <ele>786.1</ele>
        <time>2021-09-07T11:04:13.000Z</time>
      </trkpt>
      <trkpt lat="43.77654" lon="6.24278">
        <ele>786.2</ele>
        <time>2021-09-07T11:04:14.000Z</time>
      </trkpt>
      <trkpt lat="43.77653" lon="6.24282">
        <ele>786.3</ele>
        <time>2021-09-07T11:04:15.000Z</time>
      </trkpt>
      <trkpt lat="43.77652" lon="6.24287">
        <ele>786.3</ele>
        <time>2021-09-07T11:04:16.000Z</time>
      </trkpt>
      <trkpt lat="43.77654" lon="6.24275">
        <ele>786.2</ele>
        <time>2021-09-07T11:04:16.000Z</time>
      </trkpt>
      <trkpt lat="43.77654" lon="6.24279">
        <ele>786.2</ele>
        <time>2021-09-07T11:04:17.000Z</time>
      </trkpt>
      <trkpt lat="43.77647" lon="6.24296">
        <ele>786.7</ele>
        <time>2021-09-07T11:04:18.000Z</time>
      </trkpt>
      <trkpt lat="43.77653" lon="6.24285">
        <ele>786.4</ele>
        <time>2021-09-07T11:04:18.000Z</time>
      </trkpt>
      <trkpt lat="43.7765" lon="6.2429">
        <ele>786.3</ele>
        <time>2021-09-07T11:04:19.000Z</time>
      </trkpt>
      <trkpt lat="43.77644" lon="6.24307">
        <ele>787.2</ele>
        <time>2021-09-07T11:04:20.000Z</time>
      </trkpt>
      <trkpt lat="43.77642" lon="6.24311">
        <ele>787.6</ele>
        <time>2021-09-07T11:04:21.000Z</time>
      </trkpt>
      <trkpt lat="43.77647" lon="6.24298">
        <ele>786.9</ele>
        <time>2021-09-07T11:04:21.000Z</time>
      </trkpt>
      <trkpt lat="43.77636" lon="6.24316">
        <ele>787.9</ele>
        <time>2021-09-07T11:04:23.000Z</time>
      </trkpt>
      <trkpt lat="43.77643" lon="6.24309">
        <ele>787.2</ele>
        <time>2021-09-07T11:04:23.000Z</time>
      </trkpt>
      <trkpt lat="43.7764" lon="6.24313">
        <ele>787.9</ele>
        <time>2021-09-07T11:04:24.000Z</time>
      </trkpt>
      <trkpt lat="43.77629" lon="6.24318">
        <ele>788.2</ele>
        <time>2021-09-07T11:04:25.000Z</time>
      </trkpt>
      <trkpt lat="43.77626" lon="6.2432">
        <ele>788.1</ele>
        <time>2021-09-07T11:04:26.000Z</time>
      </trkpt>
      <trkpt lat="43.77633" lon="6.24316">
        <ele>788</ele>
        <time>2021-09-07T11:04:26.000Z</time>
      </trkpt>
      <trkpt lat="43.77628" lon="6.24319">
        <ele>788.1</ele>
        <time>2021-09-07T11:04:28.000Z</time>
      </trkpt>
      <trkpt lat="43.77624" lon="6.24322">
        <ele>788.1</ele>
        <time>2021-09-07T11:04:29.000Z</time>
      </trkpt>
      <trkpt lat="43.77617" lon="6.24325">
        <ele>788.2</ele>
        <time>2021-09-07T11:04:29.000Z</time>
      </trkpt>
      <trkpt lat="43.77613" lon="6.24327">
        <ele>788.3</ele>
        <time>2021-09-07T11:04:30.000Z</time>
      </trkpt>
      <trkpt lat="43.77609" lon="6.24329">
        <ele>788.7</ele>
        <time>2021-09-07T11:04:31.000Z</time>
      </trkpt>
      <trkpt lat="43.77615" lon="6.24326">
        <ele>788.2</ele>
        <time>2021-09-07T11:04:32.000Z</time>
      </trkpt>
      <trkpt lat="43.7761" lon="6.24328">
        <ele>788.5</ele>
        <time>2021-09-07T11:04:33.000Z</time>
      </trkpt>
      <trkpt lat="43.77606" lon="6.2433">
        <ele>788.8</ele>
        <time>2021-09-07T11:04:34.000Z</time>
      </trkpt>
      <trkpt lat="43.77598" lon="6.24334">
        <ele>789</ele>
        <time>2021-09-07T11:04:34.000Z</time>
      </trkpt>
      <trkpt lat="43.77595" lon="6.24335">
        <ele>789.3</ele>
        <time>2021-09-07T11:04:35.000Z</time>
      </trkpt>
      <trkpt lat="43.77596" lon="6.24335">
        <ele>789.2</ele>
        <time>2021-09-07T11:04:37.000Z</time>
      </trkpt>
      <trkpt lat="43.77592" lon="6.24335">
        <ele>789.3</ele>
        <time>2021-09-07T11:04:38.000Z</time>
      </trkpt>
      <trkpt lat="43.77583" lon="6.24336">
        <ele>789.7</ele>
        <time>2021-09-07T11:04:38.000Z</time>
      </trkpt>
      <trkpt lat="43.77574" lon="6.24336">
        <ele>789.3</ele>
        <time>2021-09-07T11:04:40.000Z</time>
      </trkpt>
      <trkpt lat="43.77571" lon="6.24335">
        <ele>789.5</ele>
        <time>2021-09-07T11:04:41.000Z</time>
      </trkpt>
      <trkpt lat="43.77581" lon="6.24336">
        <ele>789.7</ele>
        <time>2021-09-07T11:04:41.000Z</time>
      </trkpt>
      <trkpt lat="43.77568" lon="6.24335">
        <ele>789.6</ele>
        <time>2021-09-07T11:04:42.000Z</time>
      </trkpt>
      <trkpt lat="43.77572" lon="6.24336">
        <ele>789.4</ele>
        <time>2021-09-07T11:04:43.000Z</time>
      </trkpt>
      <trkpt lat="43.77554" lon="6.24335">
        <ele>790.2</ele>
        <time>2021-09-07T11:04:49.000Z</time>
      </trkpt>
      <trkpt lat="43.77543" lon="6.24334">
        <ele>789.8</ele>
        <time>2021-09-07T11:04:51.000Z</time>
      </trkpt>
      <trkpt lat="43.7754" lon="6.24334">
        <ele>789.8</ele>
        <time>2021-09-07T11:04:52.000Z</time>
      </trkpt>
      <trkpt lat="43.77538" lon="6.24337">
        <ele>789.6</ele>
        <time>2021-09-07T11:04:55.000Z</time>
      </trkpt>
      <trkpt lat="43.77538" lon="6.24336">
        <ele>789.4</ele>
        <time>2021-09-07T11:04:57.000Z</time>
      </trkpt>
      <trkpt lat="43.77542" lon="6.24334">
        <ele>789.4</ele>
        <time>2021-09-07T11:04:58.000Z</time>
      </trkpt>
      <trkpt lat="43.77547" lon="6.24332">
        <ele>789.4</ele>
        <time>2021-09-07T11:05:02.000Z</time>
      </trkpt>
      <trkpt lat="43.77548" lon="6.24332">
        <ele>789.3</ele>
        <time>2021-09-07T11:05:03.000Z</time>
      </trkpt>
      <trkpt lat="43.77545" lon="6.24332">
        <ele>789.2</ele>
        <time>2021-09-07T11:05:03.000Z</time>
      </trkpt>
      <trkpt lat="43.77549" lon="6.24332">
        <ele>789.2</ele>
        <time>2021-09-07T11:05:04.000Z</time>
      </trkpt>
      <trkpt lat="43.77548" lon="6.24332">
        <ele>789.4</ele>
        <time>2021-09-07T11:05:05.000Z</time>
      </trkpt>
      <trkpt lat="43.77549" lon="6.24332">
        <ele>789.2</ele>
        <time>2021-09-07T11:05:06.000Z</time>
      </trkpt>
      <trkpt lat="43.7755" lon="6.24332">
        <ele>789.4</ele>
        <time>2021-09-07T11:05:07.000Z</time>
      </trkpt>
      <trkpt lat="43.77551" lon="6.24333">
        <ele>789.6</ele>
        <time>2021-09-07T11:05:08.000Z</time>
      </trkpt>
      <trkpt lat="43.77551" lon="6.24332">
        <ele>789.6</ele>
        <time>2021-09-07T11:05:09.000Z</time>
      </trkpt>
      <trkpt lat="43.77551" lon="6.24333">
        <ele>789.5</ele>
        <time>2021-09-07T11:05:10.000Z</time>
      </trkpt>
      <trkpt lat="43.77553" lon="6.24332">
        <ele>789.9</ele>
        <time>2021-09-07T11:05:11.000Z</time>
      </trkpt>
      <trkpt lat="43.77555" lon="6.24332">
        <ele>789.8</ele>
        <time>2021-09-07T11:05:13.000Z</time>
      </trkpt>
      <trkpt lat="43.77554" lon="6.24332">
        <ele>789.7</ele>
        <time>2021-09-07T11:05:14.000Z</time>
      </trkpt>
      <trkpt lat="43.77556" lon="6.24333">
        <ele>789.1</ele>
        <time>2021-09-07T11:05:15.000Z</time>
      </trkpt>
      <trkpt lat="43.77559" lon="6.24338">
        <ele>789.3</ele>
        <time>2021-09-07T11:05:20.000Z</time>
      </trkpt>
      <trkpt lat="43.77558" lon="6.2434">
        <ele>789.5</ele>
        <time>2021-09-07T11:05:26.000Z</time>
      </trkpt>
      <trkpt lat="43.77558" lon="6.24339">
        <ele>789.2</ele>
        <time>2021-09-07T11:05:27.000Z</time>
      </trkpt>
      <trkpt lat="43.77557" lon="6.24341">
        <ele>789.5</ele>
        <time>2021-09-07T11:05:29.000Z</time>
      </trkpt>
      <trkpt lat="43.77557" lon="6.24341">
        <ele>789.5</ele>
        <time>2021-09-07T11:05:30.000Z</time>
      </trkpt>
      <trkpt lat="43.77557" lon="6.24341">
        <ele>789.6</ele>
        <time>2021-09-07T11:05:31.000Z</time>
      </trkpt>
      <trkpt lat="43.77558" lon="6.24342">
        <ele>789.6</ele>
        <time>2021-09-07T11:05:33.000Z</time>
      </trkpt>
      <trkpt lat="43.77558" lon="6.24341">
        <ele>789.6</ele>
        <time>2021-09-07T11:05:34.000Z</time>
      </trkpt>
      <trkpt lat="43.77558" lon="6.24342">
        <ele>789.6</ele>
        <time>2021-09-07T11:05:34.000Z</time>
      </trkpt>
      <trkpt lat="43.77559" lon="6.24342">
        <ele>789.5</ele>
        <time>2021-09-07T11:05:37.000Z</time>
      </trkpt>
      <trkpt lat="43.77558" lon="6.24342">
        <ele>789.8</ele>
        <time>2021-09-07T11:05:39.000Z</time>
      </trkpt>
      <trkpt lat="43.77558" lon="6.24342">
        <ele>789.8</ele>
        <time>2021-09-07T11:05:40.000Z</time>
      </trkpt>
      <trkpt lat="43.77558" lon="6.24342">
        <ele>789.6</ele>
        <time>2021-09-07T11:05:45.000Z</time>
      </trkpt>
      <trkpt lat="43.77558" lon="6.24342">
        <ele>789.5</ele>
        <time>2021-09-07T11:05:47.000Z</time>
      </trkpt>
      <trkpt lat="43.77558" lon="6.24342">
        <ele>789.6</ele>
        <time>2021-09-07T11:05:50.000Z</time>
      </trkpt>
      <trkpt lat="43.77558" lon="6.24342">
        <ele>789.4</ele>
        <time>2021-09-07T11:05:51.000Z</time>
      </trkpt>
      <trkpt lat="43.77555" lon="6.24341">
        <ele>789.6</ele>
        <time>2021-09-07T11:05:56.000Z</time>
      </trkpt>
      <trkpt lat="43.77553" lon="6.24341">
        <ele>789.6</ele>
        <time>2021-09-07T11:06:01.000Z</time>
      </trkpt>
      <trkpt lat="43.77553" lon="6.24341">
        <ele>789.7</ele>
        <time>2021-09-07T11:06:02.000Z</time>
      </trkpt>
      <trkpt lat="43.77553" lon="6.24341">
        <ele>789.7</ele>
        <time>2021-09-07T11:06:03.000Z</time>
      </trkpt>
      <trkpt lat="43.77553" lon="6.2434">
        <ele>789.6</ele>
        <time>2021-09-07T11:06:07.000Z</time>
      </trkpt>
      <trkpt lat="43.77553" lon="6.2434">
        <ele>789.5</ele>
        <time>2021-09-07T11:06:08.000Z</time>
      </trkpt>
      <trkpt lat="43.77553" lon="6.2434">
        <ele>789.8</ele>
        <time>2021-09-07T11:06:13.000Z</time>
      </trkpt>
      <trkpt lat="43.77553" lon="6.2434">
        <ele>789.6</ele>
        <time>2021-09-07T11:06:18.000Z</time>
      </trkpt>
      <trkpt lat="43.77553" lon="6.2434">
        <ele>789.8</ele>
        <time>2021-09-07T11:06:18.000Z</time>
      </trkpt>
      <trkpt lat="43.77553" lon="6.2434">
        <ele>790</ele>
        <time>2021-09-07T11:06:23.000Z</time>
      </trkpt>
      <trkpt lat="43.77553" lon="6.2434">
        <ele>790</ele>
        <time>2021-09-07T11:06:25.000Z</time>
      </trkpt>
      <trkpt lat="43.77553" lon="6.24338">
        <ele>790.1</ele>
        <time>2021-09-07T11:06:25.000Z</time>
      </trkpt>
      <trkpt lat="43.77554" lon="6.24337">
        <ele>790.2</ele>
        <time>2021-09-07T11:06:27.000Z</time>
      </trkpt>
      <trkpt lat="43.77553" lon="6.24338">
        <ele>790.2</ele>
        <time>2021-09-07T11:06:28.000Z</time>
      </trkpt>
      <trkpt lat="43.77563" lon="6.24336">
        <ele>790.5</ele>
        <time>2021-09-07T11:06:30.000Z</time>
      </trkpt>
      <trkpt lat="43.77566" lon="6.24335">
        <ele>790.3</ele>
        <time>2021-09-07T11:06:31.000Z</time>
      </trkpt>
      <trkpt lat="43.77569" lon="6.24334">
        <ele>790.3</ele>
        <time>2021-09-07T11:06:32.000Z</time>
      </trkpt>
      <trkpt lat="43.77565" lon="6.24336">
        <ele>790.3</ele>
        <time>2021-09-07T11:06:33.000Z</time>
      </trkpt>
      <trkpt lat="43.77589" lon="6.24326">
        <ele>789.5</ele>
        <time>2021-09-07T11:06:37.000Z</time>
      </trkpt>
      <trkpt lat="43.77584" lon="6.24329">
        <ele>789.5</ele>
        <time>2021-09-07T11:06:38.000Z</time>
      </trkpt>
      <trkpt lat="43.77593" lon="6.24325">
        <ele>789.1</ele>
        <time>2021-09-07T11:06:40.000Z</time>
      </trkpt>
      <trkpt lat="43.77608" lon="6.24317">
        <ele>788.7</ele>
        <time>2021-09-07T11:06:41.000Z</time>
      </trkpt>
      <trkpt lat="43.77613" lon="6.24315">
        <ele>788.5</ele>
        <time>2021-09-07T11:06:42.000Z</time>
      </trkpt>
      <trkpt lat="43.77621" lon="6.24309">
        <ele>788.1</ele>
        <time>2021-09-07T11:06:44.000Z</time>
      </trkpt>
      <trkpt lat="43.7761" lon="6.24316">
        <ele>788.7</ele>
        <time>2021-09-07T11:06:44.000Z</time>
      </trkpt>
      <trkpt lat="43.77626" lon="6.24306">
        <ele>788</ele>
        <time>2021-09-07T11:06:45.000Z</time>
      </trkpt>
      <trkpt lat="43.77615" lon="6.24313">
        <ele>788.4</ele>
        <time>2021-09-07T11:06:45.000Z</time>
      </trkpt>
      <trkpt lat="43.77636" lon="6.24303">
        <ele>786.8</ele>
        <time>2021-09-07T11:06:47.000Z</time>
      </trkpt>
      <trkpt lat="43.77623" lon="6.24308">
        <ele>788.1</ele>
        <time>2021-09-07T11:06:47.000Z</time>
      </trkpt>
      <trkpt lat="43.77628" lon="6.24306">
        <ele>787.8</ele>
        <time>2021-09-07T11:06:48.000Z</time>
      </trkpt>
      <trkpt lat="43.77638" lon="6.24301">
        <ele>786.8</ele>
        <time>2021-09-07T11:06:50.000Z</time>
      </trkpt>
      <trkpt lat="43.77648" lon="6.24271">
        <ele>786.1</ele>
        <time>2021-09-07T11:06:53.000Z</time>
      </trkpt>
      <trkpt lat="43.77649" lon="6.24264">
        <ele>786</ele>
        <time>2021-09-07T11:06:54.000Z</time>
      </trkpt>
      <trkpt lat="43.77648" lon="6.24259">
        <ele>786</ele>
        <time>2021-09-07T11:06:55.000Z</time>
      </trkpt>
      <trkpt lat="43.77648" lon="6.24274">
        <ele>786.4</ele>
        <time>2021-09-07T11:06:55.000Z</time>
      </trkpt>
      <trkpt lat="43.77649" lon="6.24268">
        <ele>786</ele>
        <time>2021-09-07T11:06:56.000Z</time>
      </trkpt>
      <trkpt lat="43.77644" lon="6.24252">
        <ele>785.7</ele>
        <time>2021-09-07T11:06:58.000Z</time>
      </trkpt>
      <trkpt lat="43.77643" lon="6.2425">
        <ele>785.4</ele>
        <time>2021-09-07T11:06:59.000Z</time>
      </trkpt>
      <trkpt lat="43.77643" lon="6.2425">
        <ele>785.7</ele>
        <time>2021-09-07T11:07:01.000Z</time>
      </trkpt>
      <trkpt lat="43.77642" lon="6.24249">
        <ele>785.8</ele>
        <time>2021-09-07T11:07:02.000Z</time>
      </trkpt>
      <trkpt lat="43.77635" lon="6.24244">
        <ele>785.1</ele>
        <time>2021-09-07T11:07:07.000Z</time>
      </trkpt>
      <trkpt lat="43.77627" lon="6.24245">
        <ele>784.9</ele>
        <time>2021-09-07T11:07:12.000Z</time>
      </trkpt>
      <trkpt lat="43.77625" lon="6.24248">
        <ele>784.5</ele>
        <time>2021-09-07T11:07:14.000Z</time>
      </trkpt>
      <trkpt lat="43.77628" lon="6.24249">
        <ele>784.7</ele>
        <time>2021-09-07T11:07:16.000Z</time>
      </trkpt>
      <trkpt lat="43.77625" lon="6.24249">
        <ele>784.6</ele>
        <time>2021-09-07T11:07:17.000Z</time>
      </trkpt>
      <trkpt lat="43.77629" lon="6.24249">
        <ele>784.9</ele>
        <time>2021-09-07T11:07:17.000Z</time>
      </trkpt>
      <trkpt lat="43.77632" lon="6.2425">
        <ele>785.1</ele>
        <time>2021-09-07T11:07:19.000Z</time>
      </trkpt>
      <trkpt lat="43.77633" lon="6.24253">
        <ele>785.1</ele>
        <time>2021-09-07T11:07:20.000Z</time>
      </trkpt>
      <trkpt lat="43.77636" lon="6.24256">
        <ele>785</ele>
        <time>2021-09-07T11:07:22.000Z</time>
      </trkpt>
      <trkpt lat="43.77637" lon="6.24256">
        <ele>785.2</ele>
        <time>2021-09-07T11:07:23.000Z</time>
      </trkpt>
      <trkpt lat="43.77638" lon="6.24257">
        <ele>785</ele>
        <time>2021-09-07T11:07:26.000Z</time>
      </trkpt>
      <trkpt lat="43.77639" lon="6.24257">
        <ele>785</ele>
        <time>2021-09-07T11:07:31.000Z</time>
      </trkpt>
      <trkpt lat="43.77639" lon="6.24258">
        <ele>785.3</ele>
        <time>2021-09-07T11:07:33.000Z</time>
      </trkpt>
      <trkpt lat="43.77639" lon="6.24258">
        <ele>785.3</ele>
        <time>2021-09-07T11:07:34.000Z</time>
      </trkpt>
      <trkpt lat="43.77639" lon="6.24258">
        <ele>785.1</ele>
        <time>2021-09-07T11:07:35.000Z</time>
      </trkpt>
      <trkpt lat="43.77639" lon="6.24258">
        <ele>785.1</ele>
        <time>2021-09-07T11:07:36.000Z</time>
      </trkpt>
      <trkpt lat="43.77639" lon="6.24258">
        <ele>785.2</ele>
        <time>2021-09-07T11:07:37.000Z</time>
      </trkpt>
      <trkpt lat="43.77637" lon="6.24259">
        <ele>785.2</ele>
        <time>2021-09-07T11:07:39.000Z</time>
      </trkpt>
      <trkpt lat="43.77638" lon="6.24258">
        <ele>785.1</ele>
        <time>2021-09-07T11:07:40.000Z</time>
      </trkpt>
      <trkpt lat="43.77637" lon="6.24258">
        <ele>784.9</ele>
        <time>2021-09-07T11:07:41.000Z</time>
      </trkpt>
      <trkpt lat="43.77637" lon="6.24258">
        <ele>785</ele>
        <time>2021-09-07T11:07:43.000Z</time>
      </trkpt>
      <trkpt lat="43.77636" lon="6.24258">
        <ele>785</ele>
        <time>2021-09-07T11:07:45.000Z</time>
      </trkpt>
      <trkpt lat="43.77636" lon="6.24258">
        <ele>785.1</ele>
        <time>2021-09-07T11:07:47.000Z</time>
      </trkpt>
      <trkpt lat="43.77636" lon="6.24258">
        <ele>784.9</ele>
        <time>2021-09-07T11:07:52.000Z</time>
      </trkpt>
      <trkpt lat="43.77635" lon="6.24258">
        <ele>785.1</ele>
        <time>2021-09-07T11:07:52.000Z</time>
      </trkpt>
      <trkpt lat="43.77635" lon="6.24259">
        <ele>785.2</ele>
        <time>2021-09-07T11:07:57.000Z</time>
      </trkpt>
      <trkpt lat="43.77635" lon="6.2426">
        <ele>785.7</ele>
        <time>2021-09-07T11:08:03.000Z</time>
      </trkpt>
      <trkpt lat="43.77634" lon="6.24258">
        <ele>785.5</ele>
        <time>2021-09-07T11:08:04.000Z</time>
      </trkpt>
      <trkpt lat="43.77634" lon="6.24258">
        <ele>785.6</ele>
        <time>2021-09-07T11:08:06.000Z</time>
      </trkpt>
      <trkpt lat="43.77635" lon="6.24258">
        <ele>785.6</ele>
        <time>2021-09-07T11:08:07.000Z</time>
      </trkpt>
      <trkpt lat="43.77635" lon="6.24258">
        <ele>785.6</ele>
        <time>2021-09-07T11:08:09.000Z</time>
      </trkpt>
      <trkpt lat="43.77637" lon="6.24258">
        <ele>785.6</ele>
        <time>2021-09-07T11:08:11.000Z</time>
      </trkpt>
      <trkpt lat="43.77638" lon="6.24259">
        <ele>785.8</ele>
        <time>2021-09-07T11:08:11.000Z</time>
      </trkpt>
      <trkpt lat="43.77638" lon="6.24257">
        <ele>785.6</ele>
        <time>2021-09-07T11:08:14.000Z</time>
      </trkpt>
      <trkpt lat="43.77638" lon="6.24258">
        <ele>785.6</ele>
        <time>2021-09-07T11:08:15.000Z</time>
      </trkpt>
      <trkpt lat="43.77637" lon="6.24257">
        <ele>785.5</ele>
        <time>2021-09-07T11:08:17.000Z</time>
      </trkpt>
      <trkpt lat="43.77637" lon="6.24256">
        <ele>785.8</ele>
        <time>2021-09-07T11:08:17.000Z</time>
      </trkpt>
      <trkpt lat="43.77637" lon="6.24255">
        <ele>785.8</ele>
        <time>2021-09-07T11:08:18.000Z</time>
      </trkpt>
      <trkpt lat="43.77638" lon="6.24255">
        <ele>785.8</ele>
        <time>2021-09-07T11:08:21.000Z</time>
      </trkpt>
      <trkpt lat="43.77638" lon="6.24254">
        <ele>785.9</ele>
        <time>2021-09-07T11:08:22.000Z</time>
      </trkpt>
      <trkpt lat="43.77639" lon="6.24253">
        <ele>785.9</ele>
        <time>2021-09-07T11:08:22.000Z</time>
      </trkpt>
      <trkpt lat="43.77641" lon="6.24253">
        <ele>785.9</ele>
        <time>2021-09-07T11:08:26.000Z</time>
      </trkpt>
      <trkpt lat="43.7764" lon="6.24253">
        <ele>785.5</ele>
        <time>2021-09-07T11:08:27.000Z</time>
      </trkpt>
      <trkpt lat="43.77641" lon="6.24253">
        <ele>785.6</ele>
        <time>2021-09-07T11:08:28.000Z</time>
      </trkpt>
      <trkpt lat="43.77641" lon="6.24253">
        <ele>786</ele>
        <time>2021-09-07T11:08:29.000Z</time>
      </trkpt>
      <trkpt lat="43.77641" lon="6.24253">
        <ele>785.7</ele>
        <time>2021-09-07T11:08:29.000Z</time>
      </trkpt>
      <trkpt lat="43.77642" lon="6.24253">
        <ele>785.7</ele>
        <time>2021-09-07T11:08:36.000Z</time>
      </trkpt>
      <trkpt lat="43.77642" lon="6.24253">
        <ele>785.7</ele>
        <time>2021-09-07T11:08:36.000Z</time>
      </trkpt>
      <trkpt lat="43.77638" lon="6.24251">
        <ele>785.6</ele>
        <time>2021-09-07T11:08:41.000Z</time>
      </trkpt>
      <trkpt lat="43.77635" lon="6.24252">
        <ele>785.5</ele>
        <time>2021-09-07T11:08:42.000Z</time>
      </trkpt>
      <trkpt lat="43.77639" lon="6.24251">
        <ele>785.6</ele>
        <time>2021-09-07T11:08:43.000Z</time>
      </trkpt>
      <trkpt lat="43.77631" lon="6.24253">
        <ele>785.1</ele>
        <time>2021-09-07T11:08:44.000Z</time>
      </trkpt>
      <trkpt lat="43.77628" lon="6.24253">
        <ele>785.2</ele>
        <time>2021-09-07T11:08:45.000Z</time>
      </trkpt>
      <trkpt lat="43.77625" lon="6.24253">
        <ele>785.1</ele>
        <time>2021-09-07T11:08:46.000Z</time>
      </trkpt>
      <trkpt lat="43.77629" lon="6.24253">
        <ele>785.2</ele>
        <time>2021-09-07T11:08:47.000Z</time>
      </trkpt>
      <trkpt lat="43.77621" lon="6.24254">
        <ele>785.1</ele>
        <time>2021-09-07T11:08:48.000Z</time>
      </trkpt>
      <trkpt lat="43.77619" lon="6.24255">
        <ele>785.3</ele>
        <time>2021-09-07T11:08:49.000Z</time>
      </trkpt>
      <trkpt lat="43.77612" lon="6.24258">
        <ele>784.8</ele>
        <time>2021-09-07T11:08:54.000Z</time>
      </trkpt>
      <trkpt lat="43.77612" lon="6.24258">
        <ele>784.8</ele>
        <time>2021-09-07T11:08:54.000Z</time>
      </trkpt>
      <trkpt lat="43.77601" lon="6.24264">
        <ele>783.5</ele>
        <time>2021-09-07T11:08:55.000Z</time>
      </trkpt>
      <trkpt lat="43.77609" lon="6.24259">
        <ele>784.3</ele>
        <time>2021-09-07T11:08:55.000Z</time>
      </trkpt>
      <trkpt lat="43.77606" lon="6.24261">
        <ele>783.8</ele>
        <time>2021-09-07T11:08:56.000Z</time>
      </trkpt>
      <trkpt lat="43.77588" lon="6.24275">
        <ele>782.7</ele>
        <time>2021-09-07T11:09:02.000Z</time>
      </trkpt>
      <trkpt lat="43.77589" lon="6.24273">
        <ele>782.8</ele>
        <time>2021-09-07T11:09:03.000Z</time>
      </trkpt>
      <trkpt lat="43.77587" lon="6.24275">
        <ele>782.8</ele>
        <time>2021-09-07T11:09:03.000Z</time>
      </trkpt>
      <trkpt lat="43.77588" lon="6.24273">
        <ele>782.8</ele>
        <time>2021-09-07T11:09:04.000Z</time>
      </trkpt>
      <trkpt lat="43.77588" lon="6.24271">
        <ele>782.9</ele>
        <time>2021-09-07T11:09:07.000Z</time>
      </trkpt>
      <trkpt lat="43.77588" lon="6.2427">
        <ele>782.8</ele>
        <time>2021-09-07T11:09:07.000Z</time>
      </trkpt>
      <trkpt lat="43.77589" lon="6.2427">
        <ele>782.6</ele>
        <time>2021-09-07T11:09:11.000Z</time>
      </trkpt>
      <trkpt lat="43.77588" lon="6.2427">
        <ele>782.8</ele>
        <time>2021-09-07T11:09:12.000Z</time>
      </trkpt>
      <trkpt lat="43.77588" lon="6.2427">
        <ele>782.7</ele>
        <time>2021-09-07T11:09:13.000Z</time>
      </trkpt>
      <trkpt lat="43.77589" lon="6.24271">
        <ele>782.7</ele>
        <time>2021-09-07T11:09:15.000Z</time>
      </trkpt>
      <trkpt lat="43.7759" lon="6.24271">
        <ele>782.8</ele>
        <time>2021-09-07T11:09:15.000Z</time>
      </trkpt>
      <trkpt lat="43.7759" lon="6.24271">
        <ele>782.9</ele>
        <time>2021-09-07T11:09:16.000Z</time>
      </trkpt>
      <trkpt lat="43.7759" lon="6.24271">
        <ele>782.9</ele>
        <time>2021-09-07T11:09:21.000Z</time>
      </trkpt>
      <trkpt lat="43.7759" lon="6.24271">
        <ele>783</ele>
        <time>2021-09-07T11:09:25.000Z</time>
      </trkpt>
      <trkpt lat="43.7759" lon="6.24271">
        <ele>783</ele>
        <time>2021-09-07T11:09:26.000Z</time>
      </trkpt>
      <trkpt lat="43.7759" lon="6.24272">
        <ele>783.1</ele>
        <time>2021-09-07T11:09:27.000Z</time>
      </trkpt>
      <trkpt lat="43.7759" lon="6.24271">
        <ele>783</ele>
        <time>2021-09-07T11:09:28.000Z</time>
      </trkpt>
      <trkpt lat="43.7759" lon="6.24272">
        <ele>783.2</ele>
        <time>2021-09-07T11:09:28.000Z</time>
      </trkpt>
      <trkpt lat="43.7759" lon="6.24272">
        <ele>783.2</ele>
        <time>2021-09-07T11:09:31.000Z</time>
      </trkpt>
      <trkpt lat="43.77591" lon="6.24273">
        <ele>783</ele>
        <time>2021-09-07T11:09:35.000Z</time>
      </trkpt>
      <trkpt lat="43.77591" lon="6.24273">
        <ele>783.1</ele>
        <time>2021-09-07T11:09:36.000Z</time>
      </trkpt>
      <trkpt lat="43.77591" lon="6.24274">
        <ele>783.3</ele>
        <time>2021-09-07T11:09:38.000Z</time>
      </trkpt>
      <trkpt lat="43.77591" lon="6.24274">
        <ele>783.3</ele>
        <time>2021-09-07T11:09:39.000Z</time>
      </trkpt>
      <trkpt lat="43.77591" lon="6.24274">
        <ele>783.3</ele>
        <time>2021-09-07T11:09:44.000Z</time>
      </trkpt>
      <trkpt lat="43.77591" lon="6.24275">
        <ele>783.3</ele>
        <time>2021-09-07T11:09:44.000Z</time>
      </trkpt>
      <trkpt lat="43.77591" lon="6.24276">
        <ele>783.1</ele>
        <time>2021-09-07T11:09:49.000Z</time>
      </trkpt>
      <trkpt lat="43.77591" lon="6.24276">
        <ele>783.5</ele>
        <time>2021-09-07T11:09:50.000Z</time>
      </trkpt>
      <trkpt lat="43.77591" lon="6.24276">
        <ele>783.8</ele>
        <time>2021-09-07T11:09:55.000Z</time>
      </trkpt>
      <trkpt lat="43.77591" lon="6.24277">
        <ele>783.4</ele>
        <time>2021-09-07T11:09:58.000Z</time>
      </trkpt>
      <trkpt lat="43.77591" lon="6.24277">
        <ele>783.6</ele>
        <time>2021-09-07T11:10:00.000Z</time>
      </trkpt>
      <trkpt lat="43.7759" lon="6.24278">
        <ele>783.2</ele>
        <time>2021-09-07T11:10:01.000Z</time>
      </trkpt>
      <trkpt lat="43.77591" lon="6.24278">
        <ele>783.2</ele>
        <time>2021-09-07T11:10:03.000Z</time>
      </trkpt>
      <trkpt lat="43.77591" lon="6.24276">
        <ele>783.4</ele>
        <time>2021-09-07T11:10:05.000Z</time>
      </trkpt>
      <trkpt lat="43.77591" lon="6.24276">
        <ele>783.7</ele>
        <time>2021-09-07T11:10:08.000Z</time>
      </trkpt>
      <trkpt lat="43.7759" lon="6.24275">
        <ele>783.5</ele>
        <time>2021-09-07T11:10:10.000Z</time>
      </trkpt>
      <trkpt lat="43.7759" lon="6.24275">
        <ele>783</ele>
        <time>2021-09-07T11:10:11.000Z</time>
      </trkpt>
      <trkpt lat="43.7759" lon="6.24276">
        <ele>783</ele>
        <time>2021-09-07T11:10:13.000Z</time>
      </trkpt>
      <trkpt lat="43.77588" lon="6.24275">
        <ele>783.1</ele>
        <time>2021-09-07T11:10:14.000Z</time>
      </trkpt>
      <trkpt lat="43.77589" lon="6.24275">
        <ele>783</ele>
        <time>2021-09-07T11:10:15.000Z</time>
      </trkpt>
      <trkpt lat="43.77588" lon="6.24275">
        <ele>783.5</ele>
        <time>2021-09-07T11:10:15.000Z</time>
      </trkpt>
      <trkpt lat="43.77588" lon="6.24275">
        <ele>783.3</ele>
        <time>2021-09-07T11:10:16.000Z</time>
      </trkpt>
      <trkpt lat="43.77587" lon="6.24275">
        <ele>783</ele>
        <time>2021-09-07T11:10:19.000Z</time>
      </trkpt>
      <trkpt lat="43.77587" lon="6.24275">
        <ele>783</ele>
        <time>2021-09-07T11:10:20.000Z</time>
      </trkpt>
      <trkpt lat="43.77587" lon="6.24275">
        <ele>783.1</ele>
        <time>2021-09-07T11:10:22.000Z</time>
      </trkpt>
      <trkpt lat="43.77587" lon="6.24276">
        <ele>782.9</ele>
        <time>2021-09-07T11:10:28.000Z</time>
      </trkpt>
      <trkpt lat="43.77587" lon="6.24276">
        <ele>782.9</ele>
        <time>2021-09-07T11:10:29.000Z</time>
      </trkpt>
      <trkpt lat="43.77587" lon="6.24276">
        <ele>783</ele>
        <time>2021-09-07T11:10:29.000Z</time>
      </trkpt>
      <trkpt lat="43.77588" lon="6.24273">
        <ele>783.1</ele>
        <time>2021-09-07T11:10:34.000Z</time>
      </trkpt>
      <trkpt lat="43.77587" lon="6.24276">
        <ele>783.2</ele>
        <time>2021-09-07T11:10:34.000Z</time>
      </trkpt>
      <trkpt lat="43.77589" lon="6.24273">
        <ele>783.4</ele>
        <time>2021-09-07T11:10:35.000Z</time>
      </trkpt>
      <trkpt lat="43.77588" lon="6.24274">
        <ele>783.2</ele>
        <time>2021-09-07T11:10:35.000Z</time>
      </trkpt>
      <trkpt lat="43.7759" lon="6.24272">
        <ele>783.2</ele>
        <time>2021-09-07T11:10:36.000Z</time>
      </trkpt>
      <trkpt lat="43.77589" lon="6.24273">
        <ele>783.2</ele>
        <time>2021-09-07T11:10:37.000Z</time>
      </trkpt>
      <trkpt lat="43.7759" lon="6.24272">
        <ele>783.2</ele>
        <time>2021-09-07T11:10:38.000Z</time>
      </trkpt>
      <trkpt lat="43.77591" lon="6.24272">
        <ele>783.2</ele>
        <time>2021-09-07T11:10:39.000Z</time>
      </trkpt>
      <trkpt lat="43.77591" lon="6.24273">
        <ele>783.6</ele>
        <time>2021-09-07T11:10:39.000Z</time>
      </trkpt>
      <trkpt lat="43.77593" lon="6.24272">
        <ele>783.3</ele>
        <time>2021-09-07T11:10:41.000Z</time>
      </trkpt>
      <trkpt lat="43.77594" lon="6.24272">
        <ele>783.2</ele>
        <time>2021-09-07T11:10:42.000Z</time>
      </trkpt>
      <trkpt lat="43.77592" lon="6.24273">
        <ele>783.4</ele>
        <time>2021-09-07T11:10:43.000Z</time>
      </trkpt>
      <trkpt lat="43.77593" lon="6.24272">
        <ele>783.2</ele>
        <time>2021-09-07T11:10:44.000Z</time>
      </trkpt>
      <trkpt lat="43.77594" lon="6.24272">
        <ele>783.2</ele>
        <time>2021-09-07T11:10:45.000Z</time>
      </trkpt>
      <trkpt lat="43.77595" lon="6.24272">
        <ele>783</ele>
        <time>2021-09-07T11:10:45.000Z</time>
      </trkpt>
      <trkpt lat="43.77596" lon="6.24273">
        <ele>783</ele>
        <time>2021-09-07T11:10:49.000Z</time>
      </trkpt>
      <trkpt lat="43.77596" lon="6.24273">
        <ele>782.8</ele>
        <time>2021-09-07T11:10:50.000Z</time>
      </trkpt>
      <trkpt lat="43.77596" lon="6.24273">
        <ele>783.1</ele>
        <time>2021-09-07T11:10:52.000Z</time>
      </trkpt>
      <trkpt lat="43.77596" lon="6.24273">
        <ele>783</ele>
        <time>2021-09-07T11:10:52.000Z</time>
      </trkpt>
      <trkpt lat="43.77597" lon="6.24273">
        <ele>783.1</ele>
        <time>2021-09-07T11:10:54.000Z</time>
      </trkpt>
      <trkpt lat="43.77596" lon="6.24273">
        <ele>783.2</ele>
        <time>2021-09-07T11:10:55.000Z</time>
      </trkpt>
      <trkpt lat="43.77597" lon="6.24273">
        <ele>783.3</ele>
        <time>2021-09-07T11:10:56.000Z</time>
      </trkpt>
      <trkpt lat="43.77597" lon="6.24273">
        <ele>783.2</ele>
        <time>2021-09-07T11:10:57.000Z</time>
      </trkpt>
      <trkpt lat="43.77598" lon="6.24272">
        <ele>783.7</ele>
        <time>2021-09-07T11:10:58.000Z</time>
      </trkpt>
      <trkpt lat="43.77597" lon="6.24273">
        <ele>783.4</ele>
        <time>2021-09-07T11:10:59.000Z</time>
      </trkpt>
      <trkpt lat="43.77601" lon="6.24271">
        <ele>784</ele>
        <time>2021-09-07T11:11:04.000Z</time>
      </trkpt>
      <trkpt lat="43.77603" lon="6.2427">
        <ele>784.1</ele>
        <time>2021-09-07T11:11:05.000Z</time>
      </trkpt>
      <trkpt lat="43.77604" lon="6.24269">
        <ele>784.3</ele>
        <time>2021-09-07T11:11:06.000Z</time>
      </trkpt>
      <trkpt lat="43.77611" lon="6.24266">
        <ele>784.2</ele>
        <time>2021-09-07T11:11:09.000Z</time>
      </trkpt>
      <trkpt lat="43.77614" lon="6.24264">
        <ele>784.3</ele>
        <time>2021-09-07T11:11:10.000Z</time>
      </trkpt>
      <trkpt lat="43.77617" lon="6.24262">
        <ele>784.8</ele>
        <time>2021-09-07T11:11:11.000Z</time>
      </trkpt>
      <trkpt lat="43.7762" lon="6.24259">
        <ele>784.8</ele>
        <time>2021-09-07T11:11:12.000Z</time>
      </trkpt>
      <trkpt lat="43.77612" lon="6.24265">
        <ele>784.2</ele>
        <time>2021-09-07T11:11:12.000Z</time>
      </trkpt>
      <trkpt lat="43.77615" lon="6.24263">
        <ele>784.5</ele>
        <time>2021-09-07T11:11:13.000Z</time>
      </trkpt>
      <trkpt lat="43.77619" lon="6.2426">
        <ele>784.9</ele>
        <time>2021-09-07T11:11:14.000Z</time>
      </trkpt>
      <trkpt lat="43.77623" lon="6.24259">
        <ele>784.8</ele>
        <time>2021-09-07T11:11:15.000Z</time>
      </trkpt>
      <trkpt lat="43.77628" lon="6.24258">
        <ele>785.2</ele>
        <time>2021-09-07T11:11:15.000Z</time>
      </trkpt>
      <trkpt lat="43.77634" lon="6.24259">
        <ele>785.8</ele>
        <time>2021-09-07T11:11:17.000Z</time>
      </trkpt>
      <trkpt lat="43.77637" lon="6.2426">
        <ele>785.7</ele>
        <time>2021-09-07T11:11:18.000Z</time>
      </trkpt>
      <trkpt lat="43.7763" lon="6.24258">
        <ele>785.2</ele>
        <time>2021-09-07T11:11:18.000Z</time>
      </trkpt>
      <trkpt lat="43.77639" lon="6.24263">
        <ele>786.2</ele>
        <time>2021-09-07T11:11:19.000Z</time>
      </trkpt>
      <trkpt lat="43.77641" lon="6.24265">
        <ele>786.2</ele>
        <time>2021-09-07T11:11:20.000Z</time>
      </trkpt>
      <trkpt lat="43.77636" lon="6.2426">
        <ele>785.7</ele>
        <time>2021-09-07T11:11:20.000Z</time>
      </trkpt>
      <trkpt lat="43.77638" lon="6.24261">
        <ele>785.9</ele>
        <time>2021-09-07T11:11:21.000Z</time>
      </trkpt>
      <trkpt lat="43.77644" lon="6.24272">
        <ele>786.1</ele>
        <time>2021-09-07T11:11:22.000Z</time>
      </trkpt>
      <trkpt lat="43.7764" lon="6.24264">
        <ele>786.3</ele>
        <time>2021-09-07T11:11:22.000Z</time>
      </trkpt>
      <trkpt lat="43.77643" lon="6.24267">
        <ele>786.1</ele>
        <time>2021-09-07T11:11:23.000Z</time>
      </trkpt>
      <trkpt lat="43.77644" lon="6.2428">
        <ele>786.5</ele>
        <time>2021-09-07T11:11:24.000Z</time>
      </trkpt>
      <trkpt lat="43.77644" lon="6.24284">
        <ele>786.6</ele>
        <time>2021-09-07T11:11:25.000Z</time>
      </trkpt>
      <trkpt lat="43.77645" lon="6.24274">
        <ele>786.2</ele>
        <time>2021-09-07T11:11:25.000Z</time>
      </trkpt>
      <trkpt lat="43.7764" lon="6.2429">
        <ele>787</ele>
        <time>2021-09-07T11:11:27.000Z</time>
      </trkpt>
      <trkpt lat="43.77644" lon="6.24283">
        <ele>786.6</ele>
        <time>2021-09-07T11:11:27.000Z</time>
      </trkpt>
      <trkpt lat="43.77642" lon="6.24288">
        <ele>786.8</ele>
        <time>2021-09-07T11:11:28.000Z</time>
      </trkpt>
      <trkpt lat="43.77638" lon="6.24291">
        <ele>787.5</ele>
        <time>2021-09-07T11:11:28.000Z</time>
      </trkpt>
      <trkpt lat="43.77632" lon="6.24295">
        <ele>787.7</ele>
        <time>2021-09-07T11:11:30.000Z</time>
      </trkpt>
      <trkpt lat="43.77629" lon="6.24297">
        <ele>787.7</ele>
        <time>2021-09-07T11:11:31.000Z</time>
      </trkpt>
      <trkpt lat="43.77625" lon="6.24302">
        <ele>787.8</ele>
        <time>2021-09-07T11:11:33.000Z</time>
      </trkpt>
      <trkpt lat="43.77622" lon="6.24305">
        <ele>787.9</ele>
        <time>2021-09-07T11:11:34.000Z</time>
      </trkpt>
      <trkpt lat="43.77617" lon="6.24304">
        <ele>787.8</ele>
        <time>2021-09-07T11:11:36.000Z</time>
      </trkpt>
      <trkpt lat="43.77614" lon="6.24305">
        <ele>788.1</ele>
        <time>2021-09-07T11:11:37.000Z</time>
      </trkpt>
      <trkpt lat="43.77606" lon="6.2431">
        <ele>788.8</ele>
        <time>2021-09-07T11:11:40.000Z</time>
      </trkpt>
      <trkpt lat="43.77604" lon="6.2431">
        <ele>788.9</ele>
        <time>2021-09-07T11:11:41.000Z</time>
      </trkpt>
      <trkpt lat="43.77608" lon="6.24309">
        <ele>788.9</ele>
        <time>2021-09-07T11:11:42.000Z</time>
      </trkpt>
      <trkpt lat="43.77601" lon="6.24311">
        <ele>789.1</ele>
        <time>2021-09-07T11:11:42.000Z</time>
      </trkpt>
      <trkpt lat="43.77599" lon="6.24312">
        <ele>789.1</ele>
        <time>2021-09-07T11:11:45.000Z</time>
      </trkpt>
      <trkpt lat="43.77594" lon="6.24315">
        <ele>789.4</ele>
        <time>2021-09-07T11:11:45.000Z</time>
      </trkpt>
      <trkpt lat="43.77591" lon="6.24317">
        <ele>789.4</ele>
        <time>2021-09-07T11:11:46.000Z</time>
      </trkpt>
      <trkpt lat="43.77589" lon="6.24319">
        <ele>789.4</ele>
        <time>2021-09-07T11:11:47.000Z</time>
      </trkpt>
      <trkpt lat="43.77586" lon="6.24319">
        <ele>789.2</ele>
        <time>2021-09-07T11:11:48.000Z</time>
      </trkpt>
      <trkpt lat="43.77593" lon="6.24316">
        <ele>789.4</ele>
        <time>2021-09-07T11:11:48.000Z</time>
      </trkpt>
      <trkpt lat="43.77583" lon="6.24318">
        <ele>789.4</ele>
        <time>2021-09-07T11:11:49.000Z</time>
      </trkpt>
      <trkpt lat="43.7759" lon="6.24318">
        <ele>789.3</ele>
        <time>2021-09-07T11:11:49.000Z</time>
      </trkpt>
      <trkpt lat="43.77587" lon="6.2432">
        <ele>789.2</ele>
        <time>2021-09-07T11:11:50.000Z</time>
      </trkpt>
      <trkpt lat="43.77574" lon="6.24317">
        <ele>789.8</ele>
        <time>2021-09-07T11:11:52.000Z</time>
      </trkpt>
      <trkpt lat="43.77571" lon="6.24316">
        <ele>790</ele>
        <time>2021-09-07T11:11:55.000Z</time>
      </trkpt>
      <trkpt lat="43.77567" lon="6.24315">
        <ele>790.1</ele>
        <time>2021-09-07T11:11:55.000Z</time>
      </trkpt>
      <trkpt lat="43.77567" lon="6.24315">
        <ele>790.1</ele>
        <time>2021-09-07T11:11:55.000Z</time>
      </trkpt>
      <trkpt lat="43.77566" lon="6.24315">
        <ele>790</ele>
        <time>2021-09-07T11:11:58.000Z</time>
      </trkpt>
      <trkpt lat="43.77559" lon="6.24312">
        <ele>790.4</ele>
        <time>2021-09-07T11:11:58.000Z</time>
      </trkpt>
      <trkpt lat="43.77557" lon="6.24311">
        <ele>790.6</ele>
        <time>2021-09-07T11:11:59.000Z</time>
      </trkpt>
      <trkpt lat="43.77551" lon="6.24311">
        <ele>790.4</ele>
        <time>2021-09-07T11:12:02.000Z</time>
      </trkpt>
      <trkpt lat="43.7755" lon="6.24311">
        <ele>790.3</ele>
        <time>2021-09-07T11:12:03.000Z</time>
      </trkpt>
      <trkpt lat="43.77553" lon="6.24311">
        <ele>790.4</ele>
        <time>2021-09-07T11:12:04.000Z</time>
      </trkpt>
      <trkpt lat="43.77548" lon="6.2431">
        <ele>790.3</ele>
        <time>2021-09-07T11:12:05.000Z</time>
      </trkpt>
      <trkpt lat="43.7755" lon="6.24311">
        <ele>790.3</ele>
        <time>2021-09-07T11:12:05.000Z</time>
      </trkpt>
      <trkpt lat="43.77549" lon="6.24311">
        <ele>790.2</ele>
        <time>2021-09-07T11:12:06.000Z</time>
      </trkpt>
      <trkpt lat="43.77546" lon="6.24309">
        <ele>790</ele>
        <time>2021-09-07T11:12:07.000Z</time>
      </trkpt>
      <trkpt lat="43.77544" lon="6.2431">
        <ele>790.1</ele>
        <time>2021-09-07T11:12:08.000Z</time>
      </trkpt>
      <trkpt lat="43.77546" lon="6.24309">
        <ele>790</ele>
        <time>2021-09-07T11:12:09.000Z</time>
      </trkpt>
      <trkpt lat="43.7754" lon="6.2431">
        <ele>789.9</ele>
        <time>2021-09-07T11:12:10.000Z</time>
      </trkpt>
      <trkpt lat="43.77535" lon="6.2431">
        <ele>789.8</ele>
        <time>2021-09-07T11:12:12.000Z</time>
      </trkpt>
      <trkpt lat="43.77539" lon="6.2431">
        <ele>790</ele>
        <time>2021-09-07T11:12:13.000Z</time>
      </trkpt>
      <trkpt lat="43.77533" lon="6.2431">
        <ele>789.9</ele>
        <time>2021-09-07T11:12:13.000Z</time>
      </trkpt>
      <trkpt lat="43.7753" lon="6.24312">
        <ele>789.8</ele>
        <time>2021-09-07T11:12:15.000Z</time>
      </trkpt>
      <trkpt lat="43.77527" lon="6.24315">
        <ele>789.5</ele>
        <time>2021-09-07T11:12:17.000Z</time>
      </trkpt>
      <trkpt lat="43.77529" lon="6.24313">
        <ele>789.6</ele>
        <time>2021-09-07T11:12:18.000Z</time>
      </trkpt>
      <trkpt lat="43.77526" lon="6.24317">
        <ele>789.2</ele>
        <time>2021-09-07T11:12:18.000Z</time>
      </trkpt>
      <trkpt lat="43.77527" lon="6.24318">
        <ele>789.4</ele>
        <time>2021-09-07T11:12:22.000Z</time>
      </trkpt>
      <trkpt lat="43.77527" lon="6.24318">
        <ele>789.4</ele>
        <time>2021-09-07T11:12:25.000Z</time>
      </trkpt>
      <trkpt lat="43.77525" lon="6.2432">
        <ele>789.1</ele>
        <time>2021-09-07T11:12:30.000Z</time>
      </trkpt>
      <trkpt lat="43.77525" lon="6.24322">
        <ele>789</ele>
        <time>2021-09-07T11:12:35.000Z</time>
      </trkpt>
      <trkpt lat="43.77525" lon="6.24323">
        <ele>789</ele>
        <time>2021-09-07T11:12:37.000Z</time>
      </trkpt>
      <trkpt lat="43.77525" lon="6.24322">
        <ele>789</ele>
        <time>2021-09-07T11:12:38.000Z</time>
      </trkpt>
      <trkpt lat="43.77523" lon="6.24331">
        <ele>788.9</ele>
        <time>2021-09-07T11:12:42.000Z</time>
      </trkpt>
      <trkpt lat="43.77523" lon="6.24331">
        <ele>789</ele>
        <time>2021-09-07T11:12:43.000Z</time>
      </trkpt>
      <trkpt lat="43.77522" lon="6.24331">
        <ele>788.8</ele>
        <time>2021-09-07T11:12:47.000Z</time>
      </trkpt>
      <trkpt lat="43.77523" lon="6.24332">
        <ele>788.7</ele>
        <time>2021-09-07T11:12:48.000Z</time>
      </trkpt>
      <trkpt lat="43.7752" lon="6.24331">
        <ele>789</ele>
        <time>2021-09-07T11:12:52.000Z</time>
      </trkpt>
      <trkpt lat="43.7752" lon="6.24331">
        <ele>789</ele>
        <time>2021-09-07T11:12:57.000Z</time>
      </trkpt>
      <trkpt lat="43.77521" lon="6.24331">
        <ele>789.1</ele>
        <time>2021-09-07T11:12:58.000Z</time>
      </trkpt>
      <trkpt lat="43.77522" lon="6.24331">
        <ele>789</ele>
        <time>2021-09-07T11:13:02.000Z</time>
      </trkpt>
      <trkpt lat="43.77522" lon="6.24331">
        <ele>789</ele>
        <time>2021-09-07T11:13:03.000Z</time>
      </trkpt>
      <trkpt lat="43.77522" lon="6.24331">
        <ele>789</ele>
        <time>2021-09-07T11:13:04.000Z</time>
      </trkpt>
      <trkpt lat="43.77522" lon="6.24332">
        <ele>788.9</ele>
        <time>2021-09-07T11:13:08.000Z</time>
      </trkpt>
      <trkpt lat="43.77523" lon="6.24331">
        <ele>789.2</ele>
        <time>2021-09-07T11:13:12.000Z</time>
      </trkpt>
      <trkpt lat="43.77522" lon="6.24331">
        <ele>789</ele>
        <time>2021-09-07T11:13:13.000Z</time>
      </trkpt>
      <trkpt lat="43.77523" lon="6.2433">
        <ele>789.3</ele>
        <time>2021-09-07T11:13:15.000Z</time>
      </trkpt>
      <trkpt lat="43.77523" lon="6.24329">
        <ele>789.4</ele>
        <time>2021-09-07T11:13:15.000Z</time>
      </trkpt>
      <trkpt lat="43.77523" lon="6.24329">
        <ele>789.3</ele>
        <time>2021-09-07T11:13:17.000Z</time>
      </trkpt>
      <trkpt lat="43.77523" lon="6.24329">
        <ele>789.3</ele>
        <time>2021-09-07T11:13:18.000Z</time>
      </trkpt>
      <trkpt lat="43.77523" lon="6.24329">
        <ele>789.4</ele>
        <time>2021-09-07T11:13:19.000Z</time>
      </trkpt>
      <trkpt lat="43.77523" lon="6.24329">
        <ele>789.1</ele>
        <time>2021-09-07T11:13:21.000Z</time>
      </trkpt>
      <trkpt lat="43.77523" lon="6.24328">
        <ele>789.1</ele>
        <time>2021-09-07T11:13:22.000Z</time>
      </trkpt>
      <trkpt lat="43.77523" lon="6.24328">
        <ele>789</ele>
        <time>2021-09-07T11:13:23.000Z</time>
      </trkpt>
      <trkpt lat="43.77523" lon="6.24329">
        <ele>789.3</ele>
        <time>2021-09-07T11:13:28.000Z</time>
      </trkpt>
      <trkpt lat="43.77523" lon="6.24329">
        <ele>789.5</ele>
        <time>2021-09-07T11:13:30.000Z</time>
      </trkpt>
      <trkpt lat="43.77524" lon="6.24329">
        <ele>789.3</ele>
        <time>2021-09-07T11:13:33.000Z</time>
      </trkpt>
      <trkpt lat="43.77524" lon="6.24329">
        <ele>789.4</ele>
        <time>2021-09-07T11:13:38.000Z</time>
      </trkpt>
      <trkpt lat="43.77524" lon="6.24329">
        <ele>789.3</ele>
        <time>2021-09-07T11:13:40.000Z</time>
      </trkpt>
      <trkpt lat="43.77523" lon="6.24329">
        <ele>789.4</ele>
        <time>2021-09-07T11:13:43.000Z</time>
      </trkpt>
      <trkpt lat="43.77523" lon="6.24328">
        <ele>789.4</ele>
        <time>2021-09-07T11:13:45.000Z</time>
      </trkpt>
      <trkpt lat="43.77522" lon="6.24326">
        <ele>789.6</ele>
        <time>2021-09-07T11:13:48.000Z</time>
      </trkpt>
      <trkpt lat="43.77521" lon="6.24326">
        <ele>789.8</ele>
        <time>2021-09-07T11:13:50.000Z</time>
      </trkpt>
      <trkpt lat="43.77522" lon="6.24325">
        <ele>789.4</ele>
        <time>2021-09-07T11:13:52.000Z</time>
      </trkpt>
      <trkpt lat="43.77523" lon="6.24325">
        <ele>789.3</ele>
        <time>2021-09-07T11:13:53.000Z</time>
      </trkpt>
      <trkpt lat="43.77523" lon="6.24324">
        <ele>789.3</ele>
        <time>2021-09-07T11:13:53.000Z</time>
      </trkpt>
      <trkpt lat="43.77524" lon="6.24324">
        <ele>789.3</ele>
        <time>2021-09-07T11:13:56.000Z</time>
      </trkpt>
      <trkpt lat="43.77524" lon="6.24324">
        <ele>789.3</ele>
        <time>2021-09-07T11:13:57.000Z</time>
      </trkpt>
      <trkpt lat="43.77523" lon="6.24324">
        <ele>789.2</ele>
        <time>2021-09-07T11:14:03.000Z</time>
      </trkpt>
      <trkpt lat="43.77523" lon="6.24324">
        <ele>789.1</ele>
        <time>2021-09-07T11:14:07.000Z</time>
      </trkpt>
      <trkpt lat="43.77523" lon="6.24324">
        <ele>789.3</ele>
        <time>2021-09-07T11:14:10.000Z</time>
      </trkpt>
      <trkpt lat="43.77523" lon="6.24327">
        <ele>789.3</ele>
        <time>2021-09-07T11:14:13.000Z</time>
      </trkpt>
      <trkpt lat="43.77523" lon="6.24329">
        <ele>788.9</ele>
        <time>2021-09-07T11:14:18.000Z</time>
      </trkpt>
      <trkpt lat="43.77523" lon="6.24329">
        <ele>789.1</ele>
        <time>2021-09-07T11:14:19.000Z</time>
      </trkpt>
      <trkpt lat="43.77522" lon="6.24329">
        <ele>788.9</ele>
        <time>2021-09-07T11:14:20.000Z</time>
      </trkpt>
      <trkpt lat="43.77522" lon="6.24329">
        <ele>789.1</ele>
        <time>2021-09-07T11:14:21.000Z</time>
      </trkpt>
      <trkpt lat="43.77522" lon="6.24328">
        <ele>788.9</ele>
        <time>2021-09-07T11:14:26.000Z</time>
      </trkpt>
      <trkpt lat="43.77522" lon="6.24326">
        <ele>789</ele>
        <time>2021-09-07T11:14:28.000Z</time>
      </trkpt>
      <trkpt lat="43.77522" lon="6.24328">
        <ele>788.9</ele>
        <time>2021-09-07T11:14:29.000Z</time>
      </trkpt>
      <trkpt lat="43.77522" lon="6.24326">
        <ele>788.9</ele>
        <time>2021-09-07T11:14:29.000Z</time>
      </trkpt>
      <trkpt lat="43.77522" lon="6.24326">
        <ele>788.9</ele>
        <time>2021-09-07T11:14:30.000Z</time>
      </trkpt>
      <trkpt lat="43.77522" lon="6.24326">
        <ele>788.8</ele>
        <time>2021-09-07T11:14:31.000Z</time>
      </trkpt>
      <trkpt lat="43.77523" lon="6.24327">
        <ele>788.6</ele>
        <time>2021-09-07T11:14:35.000Z</time>
      </trkpt>
      <trkpt lat="43.77524" lon="6.24327">
        <ele>788.7</ele>
        <time>2021-09-07T11:14:35.000Z</time>
      </trkpt>
      <trkpt lat="43.77524" lon="6.24329">
        <ele>788.8</ele>
        <time>2021-09-07T11:14:37.000Z</time>
      </trkpt>
      <trkpt lat="43.77524" lon="6.24328">
        <ele>788.8</ele>
        <time>2021-09-07T11:14:39.000Z</time>
      </trkpt>
      <trkpt lat="43.77523" lon="6.24329">
        <ele>788.8</ele>
        <time>2021-09-07T11:14:40.000Z</time>
      </trkpt>
      <trkpt lat="43.77522" lon="6.24333">
        <ele>789.1</ele>
        <time>2021-09-07T11:14:42.000Z</time>
      </trkpt>
      <trkpt lat="43.77523" lon="6.24331">
        <ele>788.7</ele>
        <time>2021-09-07T11:14:42.000Z</time>
      </trkpt>
      <trkpt lat="43.77522" lon="6.24333">
        <ele>789.2</ele>
        <time>2021-09-07T11:14:44.000Z</time>
      </trkpt>
      <trkpt lat="43.77522" lon="6.24334">
        <ele>789</ele>
        <time>2021-09-07T11:14:45.000Z</time>
      </trkpt>
      <trkpt lat="43.7752" lon="6.24337">
        <ele>789.3</ele>
        <time>2021-09-07T11:14:47.000Z</time>
      </trkpt>
      <trkpt lat="43.77522" lon="6.24336">
        <ele>789</ele>
        <time>2021-09-07T11:14:47.000Z</time>
      </trkpt>
      <trkpt lat="43.77522" lon="6.24337">
        <ele>789</ele>
        <time>2021-09-07T11:14:48.000Z</time>
      </trkpt>
      <trkpt lat="43.77518" lon="6.24338">
        <ele>789.4</ele>
        <time>2021-09-07T11:14:49.000Z</time>
      </trkpt>
      <trkpt lat="43.7752" lon="6.24338">
        <ele>789.4</ele>
        <time>2021-09-07T11:14:50.000Z</time>
      </trkpt>
      <trkpt lat="43.77517" lon="6.24338">
        <ele>789.5</ele>
        <time>2021-09-07T11:14:50.000Z</time>
      </trkpt>
      <trkpt lat="43.77517" lon="6.24338">
        <ele>789.3</ele>
        <time>2021-09-07T11:14:53.000Z</time>
      </trkpt>
      <trkpt lat="43.77518" lon="6.24338">
        <ele>789.5</ele>
        <time>2021-09-07T11:14:56.000Z</time>
      </trkpt>
      <trkpt lat="43.77518" lon="6.24338">
        <ele>789.4</ele>
        <time>2021-09-07T11:14:58.000Z</time>
      </trkpt>
      <trkpt lat="43.77518" lon="6.24338">
        <ele>789.2</ele>
        <time>2021-09-07T11:14:58.000Z</time>
      </trkpt>
      <trkpt lat="43.77519" lon="6.24338">
        <ele>789.2</ele>
        <time>2021-09-07T11:15:02.000Z</time>
      </trkpt>
      <trkpt lat="43.77519" lon="6.24338">
        <ele>789.3</ele>
        <time>2021-09-07T11:15:03.000Z</time>
      </trkpt>
      <trkpt lat="43.77519" lon="6.24338">
        <ele>789.2</ele>
        <time>2021-09-07T11:15:04.000Z</time>
      </trkpt>
      <trkpt lat="43.77519" lon="6.24338">
        <ele>789.2</ele>
        <time>2021-09-07T11:15:08.000Z</time>
      </trkpt>
      <trkpt lat="43.77521" lon="6.24336">
        <ele>789.6</ele>
        <time>2021-09-07T11:15:13.000Z</time>
      </trkpt>
      <trkpt lat="43.77521" lon="6.24335">
        <ele>789.5</ele>
        <time>2021-09-07T11:15:19.000Z</time>
      </trkpt>
      <trkpt lat="43.77521" lon="6.24335">
        <ele>789.8</ele>
        <time>2021-09-07T11:15:20.000Z</time>
      </trkpt>
      <trkpt lat="43.77521" lon="6.24335">
        <ele>789.6</ele>
        <time>2021-09-07T11:15:21.000Z</time>
      </trkpt>
      <trkpt lat="43.7752" lon="6.24335">
        <ele>789.6</ele>
        <time>2021-09-07T11:15:23.000Z</time>
      </trkpt>
      <trkpt lat="43.7752" lon="6.24336">
        <ele>789.7</ele>
        <time>2021-09-07T11:15:29.000Z</time>
      </trkpt>
      <trkpt lat="43.7752" lon="6.24337">
        <ele>789.8</ele>
        <time>2021-09-07T11:15:30.000Z</time>
      </trkpt>
      <trkpt lat="43.7752" lon="6.24336">
        <ele>789.5</ele>
        <time>2021-09-07T11:15:32.000Z</time>
      </trkpt>
      <trkpt lat="43.77521" lon="6.24336">
        <ele>789.5</ele>
        <time>2021-09-07T11:15:37.000Z</time>
      </trkpt>
      <trkpt lat="43.77521" lon="6.24335">
        <ele>789.7</ele>
        <time>2021-09-07T11:15:39.000Z</time>
      </trkpt>
      <trkpt lat="43.77521" lon="6.24336">
        <ele>789.8</ele>
        <time>2021-09-07T11:15:40.000Z</time>
      </trkpt>
      <trkpt lat="43.77522" lon="6.24337">
        <ele>789.5</ele>
        <time>2021-09-07T11:15:45.000Z</time>
      </trkpt>
      <trkpt lat="43.77522" lon="6.24337">
        <ele>789.7</ele>
        <time>2021-09-07T11:15:49.000Z</time>
      </trkpt>
      <trkpt lat="43.77522" lon="6.24337">
        <ele>789.7</ele>
        <time>2021-09-07T11:15:50.000Z</time>
      </trkpt>
      <trkpt lat="43.77522" lon="6.24338">
        <ele>789.9</ele>
        <time>2021-09-07T11:15:53.000Z</time>
      </trkpt>
      <trkpt lat="43.77522" lon="6.24338">
        <ele>789.7</ele>
        <time>2021-09-07T11:15:55.000Z</time>
      </trkpt>
      <trkpt lat="43.77522" lon="6.24338">
        <ele>789.8</ele>
        <time>2021-09-07T11:15:56.000Z</time>
      </trkpt>
      <trkpt lat="43.77522" lon="6.24338">
        <ele>789.9</ele>
        <time>2021-09-07T11:16:00.000Z</time>
      </trkpt>
      <trkpt lat="43.77522" lon="6.24337">
        <ele>789.9</ele>
        <time>2021-09-07T11:16:03.000Z</time>
      </trkpt>
      <trkpt lat="43.77522" lon="6.24337">
        <ele>789.6</ele>
        <time>2021-09-07T11:16:04.000Z</time>
      </trkpt>
      <trkpt lat="43.77523" lon="6.24337">
        <ele>789.4</ele>
        <time>2021-09-07T11:16:08.000Z</time>
      </trkpt>
      <trkpt lat="43.77523" lon="6.24336">
        <ele>789.4</ele>
        <time>2021-09-07T11:16:10.000Z</time>
      </trkpt>
      <trkpt lat="43.77523" lon="6.24335">
        <ele>789.2</ele>
        <time>2021-09-07T11:16:15.000Z</time>
      </trkpt>
      <trkpt lat="43.77522" lon="6.24332">
        <ele>789.4</ele>
        <time>2021-09-07T11:16:20.000Z</time>
      </trkpt>
      <trkpt lat="43.77521" lon="6.24329">
        <ele>789.4</ele>
        <time>2021-09-07T11:16:25.000Z</time>
      </trkpt>
      <trkpt lat="43.77521" lon="6.24329">
        <ele>789.5</ele>
        <time>2021-09-07T11:16:27.000Z</time>
      </trkpt>
      <trkpt lat="43.77521" lon="6.24329">
        <ele>789.6</ele>
        <time>2021-09-07T11:16:28.000Z</time>
      </trkpt>
      <trkpt lat="43.77521" lon="6.24329">
        <ele>789.6</ele>
        <time>2021-09-07T11:16:30.000Z</time>
      </trkpt>
      <trkpt lat="43.77521" lon="6.24329">
        <ele>789.6</ele>
        <time>2021-09-07T11:16:31.000Z</time>
      </trkpt>
      <trkpt lat="43.77521" lon="6.24329">
        <ele>789.6</ele>
        <time>2021-09-07T11:16:31.000Z</time>
      </trkpt>
      <trkpt lat="43.7752" lon="6.2433">
        <ele>789.4</ele>
        <time>2021-09-07T11:16:34.000Z</time>
      </trkpt>
      <trkpt lat="43.77518" lon="6.24328">
        <ele>789.4</ele>
        <time>2021-09-07T11:16:40.000Z</time>
      </trkpt>
      <trkpt lat="43.77519" lon="6.24329">
        <ele>789.4</ele>
        <time>2021-09-07T11:16:41.000Z</time>
      </trkpt>
      <trkpt lat="43.77517" lon="6.24329">
        <ele>789.6</ele>
        <time>2021-09-07T11:16:44.000Z</time>
      </trkpt>
      <trkpt lat="43.77517" lon="6.24329">
        <ele>789.4</ele>
        <time>2021-09-07T11:16:46.000Z</time>
      </trkpt>
      <trkpt lat="43.77516" lon="6.24327">
        <ele>789.5</ele>
        <time>2021-09-07T11:16:50.000Z</time>
      </trkpt>
      <trkpt lat="43.77517" lon="6.24327">
        <ele>789.5</ele>
        <time>2021-09-07T11:16:51.000Z</time>
      </trkpt>
      <trkpt lat="43.77516" lon="6.24327">
        <ele>789.5</ele>
        <time>2021-09-07T11:16:55.000Z</time>
      </trkpt>
      <trkpt lat="43.77516" lon="6.24327">
        <ele>789.6</ele>
        <time>2021-09-07T11:16:57.000Z</time>
      </trkpt>
      <trkpt lat="43.77516" lon="6.24327">
        <ele>789.7</ele>
        <time>2021-09-07T11:16:59.000Z</time>
      </trkpt>
      <trkpt lat="43.77516" lon="6.24327">
        <ele>789.9</ele>
        <time>2021-09-07T11:17:01.000Z</time>
      </trkpt>
      <trkpt lat="43.77515" lon="6.24327">
        <ele>789.9</ele>
        <time>2021-09-07T11:17:04.000Z</time>
      </trkpt>
      <trkpt lat="43.77516" lon="6.24327">
        <ele>790</ele>
        <time>2021-09-07T11:17:09.000Z</time>
      </trkpt>
      <trkpt lat="43.77516" lon="6.24327">
        <ele>790</ele>
        <time>2021-09-07T11:17:14.000Z</time>
      </trkpt>
      <trkpt lat="43.77516" lon="6.24327">
        <ele>790</ele>
        <time>2021-09-07T11:17:15.000Z</time>
      </trkpt>
      <trkpt lat="43.77517" lon="6.24328">
        <ele>790</ele>
        <time>2021-09-07T11:17:19.000Z</time>
      </trkpt>
      <trkpt lat="43.77517" lon="6.24327">
        <ele>790.2</ele>
        <time>2021-09-07T11:17:21.000Z</time>
      </trkpt>
      <trkpt lat="43.77515" lon="6.24325">
        <ele>789.9</ele>
        <time>2021-09-07T11:17:26.000Z</time>
      </trkpt>
      <trkpt lat="43.77515" lon="6.24325">
        <ele>790.2</ele>
        <time>2021-09-07T11:17:27.000Z</time>
      </trkpt>
      <trkpt lat="43.77515" lon="6.24325">
        <ele>790.6</ele>
        <time>2021-09-07T11:17:28.000Z</time>
      </trkpt>
      <trkpt lat="43.77515" lon="6.24325">
        <ele>790.2</ele>
        <time>2021-09-07T11:17:33.000Z</time>
      </trkpt>
      <trkpt lat="43.77516" lon="6.24325">
        <ele>789.9</ele>
        <time>2021-09-07T11:17:38.000Z</time>
      </trkpt>
      <trkpt lat="43.77515" lon="6.24326">
        <ele>790</ele>
        <time>2021-09-07T11:17:43.000Z</time>
      </trkpt>
      <trkpt lat="43.77515" lon="6.24326">
        <ele>790</ele>
        <time>2021-09-07T11:17:44.000Z</time>
      </trkpt>
      <trkpt lat="43.77516" lon="6.24328">
        <ele>790</ele>
        <time>2021-09-07T11:17:49.000Z</time>
      </trkpt>
      <trkpt lat="43.77516" lon="6.24328">
        <ele>789.9</ele>
        <time>2021-09-07T11:17:52.000Z</time>
      </trkpt>
      <trkpt lat="43.77517" lon="6.24329">
        <ele>790</ele>
        <time>2021-09-07T11:17:52.000Z</time>
      </trkpt>
      <trkpt lat="43.77518" lon="6.24329">
        <ele>790</ele>
        <time>2021-09-07T11:17:57.000Z</time>
      </trkpt>
      <trkpt lat="43.77519" lon="6.2433">
        <ele>789.9</ele>
        <time>2021-09-07T11:18:02.000Z</time>
      </trkpt>
      <trkpt lat="43.7752" lon="6.24329">
        <ele>789.7</ele>
        <time>2021-09-07T11:18:07.000Z</time>
      </trkpt>
      <trkpt lat="43.7752" lon="6.24329">
        <ele>789.7</ele>
        <time>2021-09-07T11:18:08.000Z</time>
      </trkpt>
      <trkpt lat="43.7752" lon="6.24329">
        <ele>789.7</ele>
        <time>2021-09-07T11:18:12.000Z</time>
      </trkpt>
      <trkpt lat="43.7752" lon="6.24329">
        <ele>789.7</ele>
        <time>2021-09-07T11:18:13.000Z</time>
      </trkpt>
      <trkpt lat="43.77519" lon="6.2433">
        <ele>789.9</ele>
        <time>2021-09-07T11:18:18.000Z</time>
      </trkpt>
      <trkpt lat="43.77519" lon="6.2433">
        <ele>789.7</ele>
        <time>2021-09-07T11:18:19.000Z</time>
      </trkpt>
      <trkpt lat="43.77518" lon="6.24331">
        <ele>789.8</ele>
        <time>2021-09-07T11:18:23.000Z</time>
      </trkpt>
      <trkpt lat="43.77518" lon="6.24331">
        <ele>789.9</ele>
        <time>2021-09-07T11:18:24.000Z</time>
      </trkpt>
      <trkpt lat="43.77518" lon="6.24331">
        <ele>789.8</ele>
        <time>2021-09-07T11:18:25.000Z</time>
      </trkpt>
      <trkpt lat="43.77519" lon="6.2433">
        <ele>789.7</ele>
        <time>2021-09-07T11:18:30.000Z</time>
      </trkpt>
      <trkpt lat="43.77519" lon="6.2433">
        <ele>789.6</ele>
        <time>2021-09-07T11:18:33.000Z</time>
      </trkpt>
      <trkpt lat="43.77519" lon="6.2433">
        <ele>790</ele>
        <time>2021-09-07T11:18:37.000Z</time>
      </trkpt>
      <trkpt lat="43.77518" lon="6.24333">
        <ele>789.6</ele>
        <time>2021-09-07T11:18:42.000Z</time>
      </trkpt>
      <trkpt lat="43.77519" lon="6.24333">
        <ele>789.9</ele>
        <time>2021-09-07T11:18:45.000Z</time>
      </trkpt>
      <trkpt lat="43.77519" lon="6.24334">
        <ele>789.7</ele>
        <time>2021-09-07T11:18:50.000Z</time>
      </trkpt>
      <trkpt lat="43.77519" lon="6.24334">
        <ele>790.2</ele>
        <time>2021-09-07T11:18:55.000Z</time>
      </trkpt>
      <trkpt lat="43.77519" lon="6.24334">
        <ele>790.2</ele>
        <time>2021-09-07T11:19:00.000Z</time>
      </trkpt>
      <trkpt lat="43.7752" lon="6.24334">
        <ele>790.1</ele>
        <time>2021-09-07T11:19:05.000Z</time>
      </trkpt>
      <trkpt lat="43.7752" lon="6.24334">
        <ele>790.2</ele>
        <time>2021-09-07T11:19:09.000Z</time>
      </trkpt>
      <trkpt lat="43.7752" lon="6.24333">
        <ele>790</ele>
        <time>2021-09-07T11:19:13.000Z</time>
      </trkpt>
      <trkpt lat="43.7752" lon="6.24333">
        <ele>790.2</ele>
        <time>2021-09-07T11:19:18.000Z</time>
      </trkpt>
      <trkpt lat="43.7752" lon="6.24333">
        <ele>790.2</ele>
        <time>2021-09-07T11:19:19.000Z</time>
      </trkpt>
      <trkpt lat="43.7752" lon="6.24331">
        <ele>790.2</ele>
        <time>2021-09-07T11:19:24.000Z</time>
      </trkpt>
      <trkpt lat="43.77519" lon="6.2433">
        <ele>790.4</ele>
        <time>2021-09-07T11:19:26.000Z</time>
      </trkpt>
      <trkpt lat="43.77519" lon="6.2433">
        <ele>790.4</ele>
        <time>2021-09-07T11:19:27.000Z</time>
      </trkpt>
      <trkpt lat="43.77519" lon="6.2433">
        <ele>790.3</ele>
        <time>2021-09-07T11:19:28.000Z</time>
      </trkpt>
      <trkpt lat="43.77519" lon="6.2433">
        <ele>790.2</ele>
        <time>2021-09-07T11:19:30.000Z</time>
      </trkpt>
      <trkpt lat="43.7752" lon="6.2433">
        <ele>790.2</ele>
        <time>2021-09-07T11:19:34.000Z</time>
      </trkpt>
      <trkpt lat="43.7752" lon="6.2433">
        <ele>790.2</ele>
        <time>2021-09-07T11:19:36.000Z</time>
      </trkpt>
      <trkpt lat="43.77521" lon="6.2433">
        <ele>790.3</ele>
        <time>2021-09-07T11:19:40.000Z</time>
      </trkpt>
      <trkpt lat="43.77521" lon="6.2433">
        <ele>790.6</ele>
        <time>2021-09-07T11:19:44.000Z</time>
      </trkpt>
      <trkpt lat="43.77521" lon="6.2433">
        <ele>790.3</ele>
        <time>2021-09-07T11:19:45.000Z</time>
      </trkpt>
      <trkpt lat="43.77521" lon="6.24329">
        <ele>790.4</ele>
        <time>2021-09-07T11:19:47.000Z</time>
      </trkpt>
      <trkpt lat="43.77521" lon="6.24329">
        <ele>790</ele>
        <time>2021-09-07T11:19:51.000Z</time>
      </trkpt>
      <trkpt lat="43.77521" lon="6.24329">
        <ele>790</ele>
        <time>2021-09-07T11:19:52.000Z</time>
      </trkpt>
      <trkpt lat="43.77521" lon="6.24329">
        <ele>789.9</ele>
        <time>2021-09-07T11:19:56.000Z</time>
      </trkpt>
      <trkpt lat="43.7752" lon="6.2433">
        <ele>789.8</ele>
        <time>2021-09-07T11:20:00.000Z</time>
      </trkpt>
      <trkpt lat="43.7752" lon="6.2433">
        <ele>789.9</ele>
        <time>2021-09-07T11:20:01.000Z</time>
      </trkpt>
      <trkpt lat="43.7752" lon="6.24331">
        <ele>790</ele>
        <time>2021-09-07T11:20:04.000Z</time>
      </trkpt>
      <trkpt lat="43.7752" lon="6.2433">
        <ele>790</ele>
        <time>2021-09-07T11:20:05.000Z</time>
      </trkpt>
      <trkpt lat="43.7752" lon="6.24331">
        <ele>789.9</ele>
        <time>2021-09-07T11:20:07.000Z</time>
      </trkpt>
      <trkpt lat="43.7752" lon="6.24331">
        <ele>790</ele>
        <time>2021-09-07T11:20:12.000Z</time>
      </trkpt>
      <trkpt lat="43.77521" lon="6.24332">
        <ele>789.9</ele>
        <time>2021-09-07T11:20:16.000Z</time>
      </trkpt>
      <trkpt lat="43.77521" lon="6.24332">
        <ele>789.9</ele>
        <time>2021-09-07T11:20:17.000Z</time>
      </trkpt>
      <trkpt lat="43.77521" lon="6.24332">
        <ele>789.8</ele>
        <time>2021-09-07T11:20:18.000Z</time>
      </trkpt>
      <trkpt lat="43.77521" lon="6.24332">
        <ele>789.9</ele>
        <time>2021-09-07T11:20:19.000Z</time>
      </trkpt>
      <trkpt lat="43.77521" lon="6.24332">
        <ele>789.9</ele>
        <time>2021-09-07T11:20:25.000Z</time>
      </trkpt>
      <trkpt lat="43.7752" lon="6.24333">
        <ele>790.1</ele>
        <time>2021-09-07T11:20:27.000Z</time>
      </trkpt>
      <trkpt lat="43.7752" lon="6.24333">
        <ele>789.8</ele>
        <time>2021-09-07T11:20:29.000Z</time>
      </trkpt>
      <trkpt lat="43.77521" lon="6.24333">
        <ele>789.8</ele>
        <time>2021-09-07T11:20:30.000Z</time>
      </trkpt>
      <trkpt lat="43.77521" lon="6.24331">
        <ele>789.8</ele>
        <time>2021-09-07T11:20:35.000Z</time>
      </trkpt>
      <trkpt lat="43.77521" lon="6.24331">
        <ele>790.2</ele>
        <time>2021-09-07T11:20:40.000Z</time>
      </trkpt>
      <trkpt lat="43.77521" lon="6.24331">
        <ele>790</ele>
        <time>2021-09-07T11:20:42.000Z</time>
      </trkpt>
      <trkpt lat="43.77524" lon="6.24336">
        <ele>790.2</ele>
        <time>2021-09-07T11:20:47.000Z</time>
      </trkpt>
      <trkpt lat="43.77528" lon="6.24338">
        <ele>790.1</ele>
        <time>2021-09-07T11:20:52.000Z</time>
      </trkpt>
      <trkpt lat="43.7753" lon="6.24337">
        <ele>790.1</ele>
        <time>2021-09-07T11:20:55.000Z</time>
      </trkpt>
      <trkpt lat="43.7753" lon="6.24337">
        <ele>790.4</ele>
        <time>2021-09-07T11:20:56.000Z</time>
      </trkpt>
      <trkpt lat="43.77531" lon="6.24337">
        <ele>790.6</ele>
        <time>2021-09-07T11:20:59.000Z</time>
      </trkpt>
      <trkpt lat="43.77531" lon="6.24337">
        <ele>790.4</ele>
        <time>2021-09-07T11:21:00.000Z</time>
      </trkpt>
      <trkpt lat="43.7753" lon="6.24337">
        <ele>790.5</ele>
        <time>2021-09-07T11:21:06.000Z</time>
      </trkpt>
      <trkpt lat="43.7753" lon="6.24338">
        <ele>790.4</ele>
        <time>2021-09-07T11:21:09.000Z</time>
      </trkpt>
      <trkpt lat="43.7753" lon="6.24339">
        <ele>790.4</ele>
        <time>2021-09-07T11:21:14.000Z</time>
      </trkpt>
      <trkpt lat="43.7753" lon="6.2434">
        <ele>790.3</ele>
        <time>2021-09-07T11:21:16.000Z</time>
      </trkpt>
      <trkpt lat="43.7753" lon="6.2434">
        <ele>790.5</ele>
        <time>2021-09-07T11:21:16.000Z</time>
      </trkpt>
      <trkpt lat="43.77531" lon="6.24341">
        <ele>790.5</ele>
        <time>2021-09-07T11:21:20.000Z</time>
      </trkpt>
      <trkpt lat="43.77531" lon="6.24341">
        <ele>790.4</ele>
        <time>2021-09-07T11:21:21.000Z</time>
      </trkpt>
      <trkpt lat="43.77531" lon="6.24337">
        <ele>790.7</ele>
        <time>2021-09-07T11:21:26.000Z</time>
      </trkpt>
      <trkpt lat="43.77531" lon="6.24337">
        <ele>790.4</ele>
        <time>2021-09-07T11:21:26.000Z</time>
      </trkpt>
      <trkpt lat="43.77531" lon="6.24335">
        <ele>790.4</ele>
        <time>2021-09-07T11:21:31.000Z</time>
      </trkpt>
      <trkpt lat="43.77531" lon="6.24335">
        <ele>790.7</ele>
        <time>2021-09-07T11:21:33.000Z</time>
      </trkpt>
      <trkpt lat="43.77531" lon="6.24335">
        <ele>790.5</ele>
        <time>2021-09-07T11:21:34.000Z</time>
      </trkpt>
      <trkpt lat="43.77531" lon="6.24335">
        <ele>790.5</ele>
        <time>2021-09-07T11:21:36.000Z</time>
      </trkpt>
      <trkpt lat="43.77531" lon="6.24336">
        <ele>790.7</ele>
        <time>2021-09-07T11:21:37.000Z</time>
      </trkpt>
      <trkpt lat="43.77531" lon="6.24339">
        <ele>790.4</ele>
        <time>2021-09-07T11:21:42.000Z</time>
      </trkpt>
      <trkpt lat="43.77533" lon="6.24341">
        <ele>790.3</ele>
        <time>2021-09-07T11:21:47.000Z</time>
      </trkpt>
      <trkpt lat="43.77535" lon="6.24344">
        <ele>789.9</ele>
        <time>2021-09-07T11:21:52.000Z</time>
      </trkpt>
      <trkpt lat="43.77536" lon="6.24344">
        <ele>789.8</ele>
        <time>2021-09-07T11:21:54.000Z</time>
      </trkpt>
      <trkpt lat="43.77536" lon="6.24344">
        <ele>789.8</ele>
        <time>2021-09-07T11:21:58.000Z</time>
      </trkpt>
      <trkpt lat="43.77536" lon="6.24345">
        <ele>789.9</ele>
        <time>2021-09-07T11:22:00.000Z</time>
      </trkpt>
      <trkpt lat="43.77535" lon="6.24344">
        <ele>789.9</ele>
        <time>2021-09-07T11:22:01.000Z</time>
      </trkpt>
      <trkpt lat="43.77536" lon="6.24345">
        <ele>790</ele>
        <time>2021-09-07T11:22:02.000Z</time>
      </trkpt>
      <trkpt lat="43.77536" lon="6.24345">
        <ele>789.9</ele>
        <time>2021-09-07T11:22:03.000Z</time>
      </trkpt>
      <trkpt lat="43.77536" lon="6.24345">
        <ele>789.9</ele>
        <time>2021-09-07T11:22:05.000Z</time>
      </trkpt>
      <trkpt lat="43.77536" lon="6.24344">
        <ele>789.7</ele>
        <time>2021-09-07T11:22:09.000Z</time>
      </trkpt>
      <trkpt lat="43.77536" lon="6.24344">
        <ele>789.9</ele>
        <time>2021-09-07T11:22:10.000Z</time>
      </trkpt>
      <trkpt lat="43.77536" lon="6.24345">
        <ele>789.9</ele>
        <time>2021-09-07T11:22:15.000Z</time>
      </trkpt>
      <trkpt lat="43.77536" lon="6.24344">
        <ele>790.2</ele>
        <time>2021-09-07T11:22:19.000Z</time>
      </trkpt>
      <trkpt lat="43.77536" lon="6.24344">
        <ele>789.9</ele>
        <time>2021-09-07T11:22:21.000Z</time>
      </trkpt>
      <trkpt lat="43.77536" lon="6.24344">
        <ele>790</ele>
        <time>2021-09-07T11:22:22.000Z</time>
      </trkpt>
      <trkpt lat="43.77536" lon="6.24344">
        <ele>790</ele>
        <time>2021-09-07T11:22:24.000Z</time>
      </trkpt>
      <trkpt lat="43.77536" lon="6.24344">
        <ele>789.8</ele>
        <time>2021-09-07T11:22:27.000Z</time>
      </trkpt>
      <trkpt lat="43.77536" lon="6.24343">
        <ele>789.5</ele>
        <time>2021-09-07T11:22:30.000Z</time>
      </trkpt>
      <trkpt lat="43.77536" lon="6.24344">
        <ele>789.7</ele>
        <time>2021-09-07T11:22:34.000Z</time>
      </trkpt>
      <trkpt lat="43.77536" lon="6.24344">
        <ele>790.1</ele>
        <time>2021-09-07T11:22:36.000Z</time>
      </trkpt>
      <trkpt lat="43.77536" lon="6.24344">
        <ele>790.6</ele>
        <time>2021-09-07T11:22:41.000Z</time>
      </trkpt>
      <trkpt lat="43.77536" lon="6.24345">
        <ele>790.4</ele>
        <time>2021-09-07T11:22:43.000Z</time>
      </trkpt>
      <trkpt lat="43.77536" lon="6.24346">
        <ele>790.5</ele>
        <time>2021-09-07T11:22:47.000Z</time>
      </trkpt>
      <trkpt lat="43.77536" lon="6.24346">
        <ele>790.3</ele>
        <time>2021-09-07T11:22:47.000Z</time>
      </trkpt>
      <trkpt lat="43.77537" lon="6.24346">
        <ele>790.2</ele>
        <time>2021-09-07T11:22:50.000Z</time>
      </trkpt>
      <trkpt lat="43.77537" lon="6.24346">
        <ele>790.4</ele>
        <time>2021-09-07T11:22:55.000Z</time>
      </trkpt>
      <trkpt lat="43.77537" lon="6.24346">
        <ele>790.4</ele>
        <time>2021-09-07T11:22:58.000Z</time>
      </trkpt>
      <trkpt lat="43.77537" lon="6.24347">
        <ele>790.4</ele>
        <time>2021-09-07T11:23:02.000Z</time>
      </trkpt>
      <trkpt lat="43.77538" lon="6.24347">
        <ele>790.5</ele>
        <time>2021-09-07T11:23:03.000Z</time>
      </trkpt>
      <trkpt lat="43.77538" lon="6.24345">
        <ele>790.5</ele>
        <time>2021-09-07T11:23:07.000Z</time>
      </trkpt>
      <trkpt lat="43.77538" lon="6.24345">
        <ele>790.4</ele>
        <time>2021-09-07T11:23:12.000Z</time>
      </trkpt>
      <trkpt lat="43.77538" lon="6.24345">
        <ele>790.1</ele>
        <time>2021-09-07T11:23:17.000Z</time>
      </trkpt>
      <trkpt lat="43.77538" lon="6.24346">
        <ele>790.3</ele>
        <time>2021-09-07T11:23:22.000Z</time>
      </trkpt>
      <trkpt lat="43.77538" lon="6.24346">
        <ele>790.2</ele>
        <time>2021-09-07T11:23:23.000Z</time>
      </trkpt>
      <trkpt lat="43.77538" lon="6.24347">
        <ele>790.2</ele>
        <time>2021-09-07T11:23:28.000Z</time>
      </trkpt>
      <trkpt lat="43.77538" lon="6.24347">
        <ele>790.1</ele>
        <time>2021-09-07T11:23:33.000Z</time>
      </trkpt>
      <trkpt lat="43.77538" lon="6.24348">
        <ele>789.5</ele>
        <time>2021-09-07T11:23:35.000Z</time>
      </trkpt>
      <trkpt lat="43.77538" lon="6.24348">
        <ele>789.8</ele>
        <time>2021-09-07T11:23:38.000Z</time>
      </trkpt>
      <trkpt lat="43.77538" lon="6.24349">
        <ele>789.8</ele>
        <time>2021-09-07T11:23:43.000Z</time>
      </trkpt>
      <trkpt lat="43.77538" lon="6.24349">
        <ele>789.9</ele>
        <time>2021-09-07T11:23:48.000Z</time>
      </trkpt>
      <trkpt lat="43.77538" lon="6.24349">
        <ele>789.5</ele>
        <time>2021-09-07T11:23:53.000Z</time>
      </trkpt>
      <trkpt lat="43.77538" lon="6.24349">
        <ele>789.8</ele>
        <time>2021-09-07T11:23:58.000Z</time>
      </trkpt>
      <trkpt lat="43.77538" lon="6.24349">
        <ele>789.9</ele>
        <time>2021-09-07T11:24:03.000Z</time>
      </trkpt>
      <trkpt lat="43.77538" lon="6.24348">
        <ele>790</ele>
        <time>2021-09-07T11:24:07.000Z</time>
      </trkpt>
      <trkpt lat="43.77538" lon="6.24349">
        <ele>790</ele>
        <time>2021-09-07T11:24:12.000Z</time>
      </trkpt>
      <trkpt lat="43.77537" lon="6.24351">
        <ele>789.9</ele>
        <time>2021-09-07T11:24:17.000Z</time>
      </trkpt>
      <trkpt lat="43.77537" lon="6.24351">
        <ele>790</ele>
        <time>2021-09-07T11:24:19.000Z</time>
      </trkpt>
      <trkpt lat="43.77537" lon="6.24351">
        <ele>790.1</ele>
        <time>2021-09-07T11:24:20.000Z</time>
      </trkpt>
      <trkpt lat="43.77538" lon="6.2435">
        <ele>790.2</ele>
        <time>2021-09-07T11:24:24.000Z</time>
      </trkpt>
      <trkpt lat="43.77538" lon="6.24349">
        <ele>790.1</ele>
        <time>2021-09-07T11:24:29.000Z</time>
      </trkpt>
      <trkpt lat="43.77538" lon="6.24349">
        <ele>790.7</ele>
        <time>2021-09-07T11:24:34.000Z</time>
      </trkpt>
      <trkpt lat="43.77538" lon="6.24349">
        <ele>790.4</ele>
        <time>2021-09-07T11:24:39.000Z</time>
      </trkpt>
      <trkpt lat="43.77538" lon="6.24349">
        <ele>790.6</ele>
        <time>2021-09-07T11:24:41.000Z</time>
      </trkpt>
      <trkpt lat="43.77538" lon="6.24349">
        <ele>790.6</ele>
        <time>2021-09-07T11:24:42.000Z</time>
      </trkpt>
      <trkpt lat="43.77538" lon="6.24348">
        <ele>790.5</ele>
        <time>2021-09-07T11:24:45.000Z</time>
      </trkpt>
      <trkpt lat="43.77538" lon="6.24348">
        <ele>790.6</ele>
        <time>2021-09-07T11:24:47.000Z</time>
      </trkpt>
      <trkpt lat="43.77538" lon="6.24348">
        <ele>790.1</ele>
        <time>2021-09-07T11:24:51.000Z</time>
      </trkpt>
      <trkpt lat="43.77538" lon="6.24348">
        <ele>789.8</ele>
        <time>2021-09-07T11:24:52.000Z</time>
      </trkpt>
      <trkpt lat="43.77538" lon="6.24347">
        <ele>789.9</ele>
        <time>2021-09-07T11:24:54.000Z</time>
      </trkpt>
      <trkpt lat="43.77538" lon="6.24346">
        <ele>790</ele>
        <time>2021-09-07T11:24:59.000Z</time>
      </trkpt>
      <trkpt lat="43.77539" lon="6.24345">
        <ele>789.9</ele>
        <time>2021-09-07T11:25:04.000Z</time>
      </trkpt>
      <trkpt lat="43.77539" lon="6.24344">
        <ele>789.8</ele>
        <time>2021-09-07T11:25:05.000Z</time>
      </trkpt>
      <trkpt lat="43.77539" lon="6.24342">
        <ele>790</ele>
        <time>2021-09-07T11:25:10.000Z</time>
      </trkpt>
      <trkpt lat="43.77539" lon="6.24342">
        <ele>790</ele>
        <time>2021-09-07T11:25:14.000Z</time>
      </trkpt>
      <trkpt lat="43.77539" lon="6.24341">
        <ele>790</ele>
        <time>2021-09-07T11:25:16.000Z</time>
      </trkpt>
      <trkpt lat="43.77539" lon="6.24341">
        <ele>790</ele>
        <time>2021-09-07T11:25:17.000Z</time>
      </trkpt>
      <trkpt lat="43.77539" lon="6.2434">
        <ele>790</ele>
        <time>2021-09-07T11:25:20.000Z</time>
      </trkpt>
      <trkpt lat="43.77539" lon="6.2434">
        <ele>789.9</ele>
        <time>2021-09-07T11:25:25.000Z</time>
      </trkpt>
      <trkpt lat="43.77539" lon="6.2434">
        <ele>790</ele>
        <time>2021-09-07T11:25:30.000Z</time>
      </trkpt>
      <trkpt lat="43.77539" lon="6.24339">
        <ele>790</ele>
        <time>2021-09-07T11:25:31.000Z</time>
      </trkpt>
      <trkpt lat="43.77538" lon="6.24339">
        <ele>789.7</ele>
        <time>2021-09-07T11:25:35.000Z</time>
      </trkpt>
      <trkpt lat="43.77538" lon="6.24339">
        <ele>789.9</ele>
        <time>2021-09-07T11:25:36.000Z</time>
      </trkpt>
      <trkpt lat="43.77538" lon="6.24338">
        <ele>789.9</ele>
        <time>2021-09-07T11:25:37.000Z</time>
      </trkpt>
      <trkpt lat="43.77538" lon="6.24338">
        <ele>790.2</ele>
        <time>2021-09-07T11:25:39.000Z</time>
      </trkpt>
      <trkpt lat="43.77538" lon="6.24338">
        <ele>790</ele>
        <time>2021-09-07T11:25:41.000Z</time>
      </trkpt>
      <trkpt lat="43.77538" lon="6.24338">
        <ele>789.9</ele>
        <time>2021-09-07T11:25:46.000Z</time>
      </trkpt>
      <trkpt lat="43.77538" lon="6.24338">
        <ele>789.7</ele>
        <time>2021-09-07T11:25:50.000Z</time>
      </trkpt>
      <trkpt lat="43.77538" lon="6.24338">
        <ele>790</ele>
        <time>2021-09-07T11:25:51.000Z</time>
      </trkpt>
      <trkpt lat="43.77538" lon="6.24338">
        <ele>790</ele>
        <time>2021-09-07T11:25:56.000Z</time>
      </trkpt>
      <trkpt lat="43.77539" lon="6.24339">
        <ele>790.1</ele>
        <time>2021-09-07T11:25:59.000Z</time>
      </trkpt>
      <trkpt lat="43.77539" lon="6.2434">
        <ele>790.2</ele>
        <time>2021-09-07T11:26:03.000Z</time>
      </trkpt>
      <trkpt lat="43.77539" lon="6.2434">
        <ele>790.1</ele>
        <time>2021-09-07T11:26:06.000Z</time>
      </trkpt>
      <trkpt lat="43.7754" lon="6.2434">
        <ele>789.9</ele>
        <time>2021-09-07T11:26:09.000Z</time>
      </trkpt>
      <trkpt lat="43.7754" lon="6.24339">
        <ele>789.9</ele>
        <time>2021-09-07T11:26:09.000Z</time>
      </trkpt>
      <trkpt lat="43.77541" lon="6.24339">
        <ele>789.9</ele>
        <time>2021-09-07T11:26:11.000Z</time>
      </trkpt>
      <trkpt lat="43.77541" lon="6.24339">
        <ele>789.8</ele>
        <time>2021-09-07T11:26:12.000Z</time>
      </trkpt>
      <trkpt lat="43.77541" lon="6.24339">
        <ele>789.8</ele>
        <time>2021-09-07T11:26:14.000Z</time>
      </trkpt>
      <trkpt lat="43.77541" lon="6.24338">
        <ele>789.9</ele>
        <time>2021-09-07T11:26:15.000Z</time>
      </trkpt>
      <trkpt lat="43.77541" lon="6.24338">
        <ele>790</ele>
        <time>2021-09-07T11:26:16.000Z</time>
      </trkpt>
      <trkpt lat="43.77541" lon="6.24338">
        <ele>790</ele>
        <time>2021-09-07T11:26:17.000Z</time>
      </trkpt>
      <trkpt lat="43.77541" lon="6.24338">
        <ele>789.9</ele>
        <time>2021-09-07T11:26:19.000Z</time>
      </trkpt>
      <trkpt lat="43.77541" lon="6.24338">
        <ele>790</ele>
        <time>2021-09-07T11:26:23.000Z</time>
      </trkpt>
      <trkpt lat="43.77538" lon="6.24337">
        <ele>789.8</ele>
        <time>2021-09-07T11:26:28.000Z</time>
      </trkpt>
      <trkpt lat="43.77538" lon="6.24337">
        <ele>790.1</ele>
        <time>2021-09-07T11:26:31.000Z</time>
      </trkpt>
      <trkpt lat="43.77537" lon="6.24338">
        <ele>789.9</ele>
        <time>2021-09-07T11:26:34.000Z</time>
      </trkpt>
      <trkpt lat="43.77537" lon="6.24339">
        <ele>790</ele>
        <time>2021-09-07T11:26:38.000Z</time>
      </trkpt>
      <trkpt lat="43.77537" lon="6.24339">
        <ele>790</ele>
        <time>2021-09-07T11:26:39.000Z</time>
      </trkpt>
      <trkpt lat="43.77537" lon="6.24338">
        <ele>789.9</ele>
        <time>2021-09-07T11:26:40.000Z</time>
      </trkpt>
      <trkpt lat="43.77536" lon="6.24339">
        <ele>790.2</ele>
        <time>2021-09-07T11:26:42.000Z</time>
      </trkpt>
      <trkpt lat="43.77536" lon="6.24339">
        <ele>790</ele>
        <time>2021-09-07T11:26:44.000Z</time>
      </trkpt>
      <trkpt lat="43.77537" lon="6.2434">
        <ele>789.9</ele>
        <time>2021-09-07T11:26:45.000Z</time>
      </trkpt>
      <trkpt lat="43.77537" lon="6.2434">
        <ele>790.4</ele>
        <time>2021-09-07T11:26:47.000Z</time>
      </trkpt>
      <trkpt lat="43.77537" lon="6.24341">
        <ele>790</ele>
        <time>2021-09-07T11:26:52.000Z</time>
      </trkpt>
      <trkpt lat="43.77537" lon="6.24341">
        <ele>790</ele>
        <time>2021-09-07T11:26:55.000Z</time>
      </trkpt>
      <trkpt lat="43.77537" lon="6.24341">
        <ele>789.7</ele>
        <time>2021-09-07T11:26:56.000Z</time>
      </trkpt>
      <trkpt lat="43.77537" lon="6.24341">
        <ele>789.8</ele>
        <time>2021-09-07T11:27:01.000Z</time>
      </trkpt>
      <trkpt lat="43.77537" lon="6.24342">
        <ele>789.9</ele>
        <time>2021-09-07T11:27:05.000Z</time>
      </trkpt>
      <trkpt lat="43.77537" lon="6.24342">
        <ele>789.7</ele>
        <time>2021-09-07T11:27:06.000Z</time>
      </trkpt>
      <trkpt lat="43.77537" lon="6.24343">
        <ele>789.9</ele>
        <time>2021-09-07T11:27:11.000Z</time>
      </trkpt>
      <trkpt lat="43.77537" lon="6.24342">
        <ele>789.6</ele>
        <time>2021-09-07T11:27:15.000Z</time>
      </trkpt>
      <trkpt lat="43.77537" lon="6.24342">
        <ele>790</ele>
        <time>2021-09-07T11:27:17.000Z</time>
      </trkpt>
      <trkpt lat="43.77537" lon="6.24342">
        <ele>789.9</ele>
        <time>2021-09-07T11:27:22.000Z</time>
      </trkpt>
      <trkpt lat="43.77538" lon="6.24342">
        <ele>790</ele>
        <time>2021-09-07T11:27:27.000Z</time>
      </trkpt>
      <trkpt lat="43.77538" lon="6.24342">
        <ele>789.8</ele>
        <time>2021-09-07T11:27:32.000Z</time>
      </trkpt>
      <trkpt lat="43.77538" lon="6.24342">
        <ele>789.9</ele>
        <time>2021-09-07T11:27:37.000Z</time>
      </trkpt>
      <trkpt lat="43.77537" lon="6.24342">
        <ele>789.9</ele>
        <time>2021-09-07T11:27:42.000Z</time>
      </trkpt>
      <trkpt lat="43.77538" lon="6.24341">
        <ele>790.1</ele>
        <time>2021-09-07T11:27:45.000Z</time>
      </trkpt>
      <trkpt lat="43.77538" lon="6.2434">
        <ele>790</ele>
        <time>2021-09-07T11:27:48.000Z</time>
      </trkpt>
      <trkpt lat="43.77538" lon="6.24339">
        <ele>790.1</ele>
        <time>2021-09-07T11:27:53.000Z</time>
      </trkpt>
      <trkpt lat="43.77538" lon="6.24339">
        <ele>790.2</ele>
        <time>2021-09-07T11:27:58.000Z</time>
      </trkpt>
      <trkpt lat="43.77537" lon="6.24339">
        <ele>790.2</ele>
        <time>2021-09-07T11:28:01.000Z</time>
      </trkpt>
      <trkpt lat="43.77537" lon="6.24339">
        <ele>790.2</ele>
        <time>2021-09-07T11:28:02.000Z</time>
      </trkpt>
      <trkpt lat="43.77537" lon="6.24339">
        <ele>790.1</ele>
        <time>2021-09-07T11:28:07.000Z</time>
      </trkpt>
      <trkpt lat="43.77537" lon="6.2434">
        <ele>790.3</ele>
        <time>2021-09-07T11:28:12.000Z</time>
      </trkpt>
      <trkpt lat="43.77537" lon="6.2434">
        <ele>790.4</ele>
        <time>2021-09-07T11:28:13.000Z</time>
      </trkpt>
      <trkpt lat="43.77537" lon="6.2434">
        <ele>790.5</ele>
        <time>2021-09-07T11:28:18.000Z</time>
      </trkpt>
      <trkpt lat="43.77537" lon="6.24341">
        <ele>790.6</ele>
        <time>2021-09-07T11:28:23.000Z</time>
      </trkpt>
      <trkpt lat="43.77537" lon="6.24341">
        <ele>790.6</ele>
        <time>2021-09-07T11:28:28.000Z</time>
      </trkpt>
      <trkpt lat="43.77537" lon="6.24342">
        <ele>790.4</ele>
        <time>2021-09-07T11:28:33.000Z</time>
      </trkpt>
      <trkpt lat="43.77537" lon="6.24341">
        <ele>790.4</ele>
        <time>2021-09-07T11:28:36.000Z</time>
      </trkpt>
      <trkpt lat="43.77538" lon="6.24343">
        <ele>790.2</ele>
        <time>2021-09-07T11:28:41.000Z</time>
      </trkpt>
      <trkpt lat="43.77538" lon="6.24343">
        <ele>790.3</ele>
        <time>2021-09-07T11:28:42.000Z</time>
      </trkpt>
      <trkpt lat="43.77538" lon="6.24344">
        <ele>790.5</ele>
        <time>2021-09-07T11:28:47.000Z</time>
      </trkpt>
      <trkpt lat="43.77538" lon="6.24344">
        <ele>790.5</ele>
        <time>2021-09-07T11:28:52.000Z</time>
      </trkpt>
      <trkpt lat="43.77538" lon="6.24344">
        <ele>790.3</ele>
        <time>2021-09-07T11:28:54.000Z</time>
      </trkpt>
      <trkpt lat="43.77538" lon="6.24344">
        <ele>790.2</ele>
        <time>2021-09-07T11:28:56.000Z</time>
      </trkpt>
      <trkpt lat="43.77538" lon="6.24344">
        <ele>790.3</ele>
        <time>2021-09-07T11:28:57.000Z</time>
      </trkpt>
      <trkpt lat="43.77538" lon="6.24344">
        <ele>790.4</ele>
        <time>2021-09-07T11:28:58.000Z</time>
      </trkpt>
      <trkpt lat="43.77538" lon="6.24345">
        <ele>790.4</ele>
        <time>2021-09-07T11:28:59.000Z</time>
      </trkpt>
      <trkpt lat="43.77538" lon="6.24345">
        <ele>790.6</ele>
        <time>2021-09-07T11:29:00.000Z</time>
      </trkpt>
      <trkpt lat="43.77538" lon="6.24345">
        <ele>790.2</ele>
        <time>2021-09-07T11:29:02.000Z</time>
      </trkpt>
      <trkpt lat="43.77538" lon="6.24345">
        <ele>790.4</ele>
        <time>2021-09-07T11:29:03.000Z</time>
      </trkpt>
      <trkpt lat="43.77538" lon="6.24345">
        <ele>790.2</ele>
        <time>2021-09-07T11:29:08.000Z</time>
      </trkpt>
      <trkpt lat="43.77538" lon="6.24345">
        <ele>790.3</ele>
        <time>2021-09-07T11:29:09.000Z</time>
      </trkpt>
      <trkpt lat="43.77538" lon="6.24346">
        <ele>790.2</ele>
        <time>2021-09-07T11:29:11.000Z</time>
      </trkpt>
      <trkpt lat="43.77538" lon="6.24346">
        <ele>790</ele>
        <time>2021-09-07T11:29:12.000Z</time>
      </trkpt>
      <trkpt lat="43.77538" lon="6.24346">
        <ele>790.1</ele>
        <time>2021-09-07T11:29:13.000Z</time>
      </trkpt>
      <trkpt lat="43.77538" lon="6.24346">
        <ele>790.2</ele>
        <time>2021-09-07T11:29:19.000Z</time>
      </trkpt>
      <trkpt lat="43.77537" lon="6.24346">
        <ele>790.1</ele>
        <time>2021-09-07T11:29:19.000Z</time>
      </trkpt>
      <trkpt lat="43.77536" lon="6.24346">
        <ele>790</ele>
        <time>2021-09-07T11:29:24.000Z</time>
      </trkpt>
      <trkpt lat="43.77535" lon="6.24347">
        <ele>790.3</ele>
        <time>2021-09-07T11:29:27.000Z</time>
      </trkpt>
      <trkpt lat="43.77535" lon="6.24347">
        <ele>790.3</ele>
        <time>2021-09-07T11:29:32.000Z</time>
      </trkpt>
      <trkpt lat="43.77535" lon="6.24347">
        <ele>790.3</ele>
        <time>2021-09-07T11:29:34.000Z</time>
      </trkpt>
      <trkpt lat="43.77535" lon="6.24347">
        <ele>790.3</ele>
        <time>2021-09-07T11:29:35.000Z</time>
      </trkpt>
      <trkpt lat="43.77536" lon="6.24346">
        <ele>790</ele>
        <time>2021-09-07T11:29:39.000Z</time>
      </trkpt>
      <trkpt lat="43.77537" lon="6.24345">
        <ele>790.5</ele>
        <time>2021-09-07T11:29:42.000Z</time>
      </trkpt>
      <trkpt lat="43.77537" lon="6.24345">
        <ele>790.1</ele>
        <time>2021-09-07T11:29:47.000Z</time>
      </trkpt>
      <trkpt lat="43.77537" lon="6.24345">
        <ele>790.3</ele>
        <time>2021-09-07T11:29:49.000Z</time>
      </trkpt>
      <trkpt lat="43.77537" lon="6.24345">
        <ele>790.3</ele>
        <time>2021-09-07T11:29:50.000Z</time>
      </trkpt>
      <trkpt lat="43.77537" lon="6.24345">
        <ele>790.3</ele>
        <time>2021-09-07T11:29:51.000Z</time>
      </trkpt>
      <trkpt lat="43.77537" lon="6.24345">
        <ele>790.4</ele>
        <time>2021-09-07T11:29:52.000Z</time>
      </trkpt>
      <trkpt lat="43.77537" lon="6.24345">
        <ele>790.5</ele>
        <time>2021-09-07T11:29:53.000Z</time>
      </trkpt>
      <trkpt lat="43.77537" lon="6.24345">
        <ele>790.4</ele>
        <time>2021-09-07T11:29:59.000Z</time>
      </trkpt>
      <trkpt lat="43.77537" lon="6.24345">
        <ele>790.6</ele>
        <time>2021-09-07T11:30:04.000Z</time>
      </trkpt>
      <trkpt lat="43.77537" lon="6.24346">
        <ele>790.4</ele>
        <time>2021-09-07T11:30:05.000Z</time>
      </trkpt>
      <trkpt lat="43.77537" lon="6.24346">
        <ele>790.1</ele>
        <time>2021-09-07T11:30:10.000Z</time>
      </trkpt>
      <trkpt lat="43.77537" lon="6.24346">
        <ele>790.2</ele>
        <time>2021-09-07T11:30:15.000Z</time>
      </trkpt>
      <trkpt lat="43.77537" lon="6.24346">
        <ele>790.1</ele>
        <time>2021-09-07T11:30:20.000Z</time>
      </trkpt>
      <trkpt lat="43.77537" lon="6.24346">
        <ele>790.2</ele>
        <time>2021-09-07T11:30:21.000Z</time>
      </trkpt>
      <trkpt lat="43.77537" lon="6.24346">
        <ele>790.1</ele>
        <time>2021-09-07T11:30:23.000Z</time>
      </trkpt>
      <trkpt lat="43.77536" lon="6.24347">
        <ele>790.1</ele>
        <time>2021-09-07T11:30:24.000Z</time>
      </trkpt>
      <trkpt lat="43.77535" lon="6.24348">
        <ele>790.3</ele>
        <time>2021-09-07T11:30:29.000Z</time>
      </trkpt>
      <trkpt lat="43.77535" lon="6.24348">
        <ele>790.1</ele>
        <time>2021-09-07T11:30:34.000Z</time>
      </trkpt>
      <trkpt lat="43.77535" lon="6.24348">
        <ele>790.3</ele>
        <time>2021-09-07T11:30:39.000Z</time>
      </trkpt>
      <trkpt lat="43.77535" lon="6.24348">
        <ele>790.1</ele>
        <time>2021-09-07T11:30:40.000Z</time>
      </trkpt>
      <trkpt lat="43.77535" lon="6.24347">
        <ele>790.1</ele>
        <time>2021-09-07T11:30:43.000Z</time>
      </trkpt>
      <trkpt lat="43.77535" lon="6.24347">
        <ele>790.3</ele>
        <time>2021-09-07T11:30:48.000Z</time>
      </trkpt>
      <trkpt lat="43.77535" lon="6.24347">
        <ele>790.2</ele>
        <time>2021-09-07T11:30:54.000Z</time>
      </trkpt>
      <trkpt lat="43.77535" lon="6.24346">
        <ele>790.1</ele>
        <time>2021-09-07T11:30:59.000Z</time>
      </trkpt>
      <trkpt lat="43.77535" lon="6.24346">
        <ele>790.2</ele>
        <time>2021-09-07T11:31:04.000Z</time>
      </trkpt>
      <trkpt lat="43.77535" lon="6.24346">
        <ele>790.1</ele>
        <time>2021-09-07T11:31:05.000Z</time>
      </trkpt>
      <trkpt lat="43.77535" lon="6.24346">
        <ele>790.3</ele>
        <time>2021-09-07T11:31:07.000Z</time>
      </trkpt>
      <trkpt lat="43.77535" lon="6.24346">
        <ele>790.2</ele>
        <time>2021-09-07T11:31:08.000Z</time>
      </trkpt>
      <trkpt lat="43.77536" lon="6.24345">
        <ele>790.2</ele>
        <time>2021-09-07T11:31:13.000Z</time>
      </trkpt>
      <trkpt lat="43.77537" lon="6.24342">
        <ele>790.5</ele>
        <time>2021-09-07T11:31:18.000Z</time>
      </trkpt>
      <trkpt lat="43.77537" lon="6.24342">
        <ele>790.4</ele>
        <time>2021-09-07T11:31:20.000Z</time>
      </trkpt>
      <trkpt lat="43.77537" lon="6.24342">
        <ele>790.5</ele>
        <time>2021-09-07T11:31:23.000Z</time>
      </trkpt>
      <trkpt lat="43.77536" lon="6.24342">
        <ele>790.4</ele>
        <time>2021-09-07T11:31:28.000Z</time>
      </trkpt>
      <trkpt lat="43.77535" lon="6.24341">
        <ele>790.7</ele>
        <time>2021-09-07T11:31:33.000Z</time>
      </trkpt>
      <trkpt lat="43.77535" lon="6.24341">
        <ele>790.6</ele>
        <time>2021-09-07T11:31:35.000Z</time>
      </trkpt>
      <trkpt lat="43.77534" lon="6.24339">
        <ele>790.5</ele>
        <time>2021-09-07T11:31:35.000Z</time>
      </trkpt>
      <trkpt lat="43.77534" lon="6.24339">
        <ele>790.5</ele>
        <time>2021-09-07T11:31:35.000Z</time>
      </trkpt>
      <trkpt lat="43.77533" lon="6.24338">
        <ele>797.8</ele>
        <time>2021-09-07T11:31:39.000Z</time>
      </trkpt>
      <trkpt lat="43.77533" lon="6.24338">
        <ele>798</ele>
        <time>2021-09-07T11:31:45.000Z</time>
      </trkpt>
      <trkpt lat="43.77532" lon="6.24338">
        <ele>798</ele>
        <time>2021-09-07T11:31:47.000Z</time>
      </trkpt>
      <trkpt lat="43.77533" lon="6.24338">
        <ele>797.9</ele>
        <time>2021-09-07T11:31:50.000Z</time>
      </trkpt>
      <trkpt lat="43.77533" lon="6.24338">
        <ele>798</ele>
        <time>2021-09-07T11:31:52.000Z</time>
      </trkpt>
      <trkpt lat="43.77532" lon="6.24338">
        <ele>798</ele>
        <time>2021-09-07T11:31:55.000Z</time>
      </trkpt>
      <trkpt lat="43.77532" lon="6.24337">
        <ele>798</ele>
        <time>2021-09-07T11:31:55.000Z</time>
      </trkpt>
      <trkpt lat="43.77531" lon="6.24334">
        <ele>798</ele>
        <time>2021-09-07T11:32:00.000Z</time>
      </trkpt>
      <trkpt lat="43.77531" lon="6.24334">
        <ele>798.2</ele>
        <time>2021-09-07T11:32:03.000Z</time>
      </trkpt>
      <trkpt lat="43.77531" lon="6.24333">
        <ele>798.1</ele>
        <time>2021-09-07T11:32:08.000Z</time>
      </trkpt>
      <trkpt lat="43.77532" lon="6.24334">
        <ele>798</ele>
        <time>2021-09-07T11:32:10.000Z</time>
      </trkpt>
      <trkpt lat="43.77532" lon="6.24335">
        <ele>798</ele>
        <time>2021-09-07T11:32:13.000Z</time>
      </trkpt>
      <trkpt lat="43.77532" lon="6.24335">
        <ele>798.2</ele>
        <time>2021-09-07T11:32:15.000Z</time>
      </trkpt>
      <trkpt lat="43.77532" lon="6.24335">
        <ele>798.3</ele>
        <time>2021-09-07T11:32:16.000Z</time>
      </trkpt>
      <trkpt lat="43.77532" lon="6.24335">
        <ele>798.1</ele>
        <time>2021-09-07T11:32:19.000Z</time>
      </trkpt>
      <trkpt lat="43.77532" lon="6.24336">
        <ele>798.1</ele>
        <time>2021-09-07T11:32:23.000Z</time>
      </trkpt>
      <trkpt lat="43.77532" lon="6.24336">
        <ele>797.9</ele>
        <time>2021-09-07T11:32:25.000Z</time>
      </trkpt>
      <trkpt lat="43.77532" lon="6.24336">
        <ele>798</ele>
        <time>2021-09-07T11:32:26.000Z</time>
      </trkpt>
      <trkpt lat="43.77532" lon="6.24337">
        <ele>798.1</ele>
        <time>2021-09-07T11:32:29.000Z</time>
      </trkpt>
      <trkpt lat="43.77533" lon="6.24337">
        <ele>798.1</ele>
        <time>2021-09-07T11:32:31.000Z</time>
      </trkpt>
      <trkpt lat="43.77533" lon="6.24337">
        <ele>798.1</ele>
        <time>2021-09-07T11:32:33.000Z</time>
      </trkpt>
      <trkpt lat="43.77533" lon="6.24337">
        <ele>798.2</ele>
        <time>2021-09-07T11:32:36.000Z</time>
      </trkpt>
      <trkpt lat="43.77534" lon="6.24338">
        <ele>798.3</ele>
        <time>2021-09-07T11:32:40.000Z</time>
      </trkpt>
      <trkpt lat="43.77534" lon="6.24338">
        <ele>798.3</ele>
        <time>2021-09-07T11:32:41.000Z</time>
      </trkpt>
      <trkpt lat="43.77534" lon="6.24338">
        <ele>798.2</ele>
        <time>2021-09-07T11:32:42.000Z</time>
      </trkpt>
      <trkpt lat="43.77534" lon="6.24338">
        <ele>798.5</ele>
        <time>2021-09-07T11:32:44.000Z</time>
      </trkpt>
      <trkpt lat="43.77534" lon="6.24338">
        <ele>798.3</ele>
        <time>2021-09-07T11:32:49.000Z</time>
      </trkpt>
      <trkpt lat="43.77534" lon="6.24339">
        <ele>798.1</ele>
        <time>2021-09-07T11:32:53.000Z</time>
      </trkpt>
      <trkpt lat="43.77534" lon="6.24339">
        <ele>798.3</ele>
        <time>2021-09-07T11:32:57.000Z</time>
      </trkpt>
      <trkpt lat="43.77535" lon="6.24339">
        <ele>798.5</ele>
        <time>2021-09-07T11:33:00.000Z</time>
      </trkpt>
      <trkpt lat="43.77535" lon="6.24339">
        <ele>798.4</ele>
        <time>2021-09-07T11:33:01.000Z</time>
      </trkpt>
      <trkpt lat="43.77535" lon="6.24339">
        <ele>798.4</ele>
        <time>2021-09-07T11:33:06.000Z</time>
      </trkpt>
      <trkpt lat="43.77535" lon="6.2434">
        <ele>798.4</ele>
        <time>2021-09-07T11:33:10.000Z</time>
      </trkpt>
      <trkpt lat="43.77535" lon="6.2434">
        <ele>798.5</ele>
        <time>2021-09-07T11:33:11.000Z</time>
      </trkpt>
      <trkpt lat="43.77535" lon="6.2434">
        <ele>798.4</ele>
        <time>2021-09-07T11:33:16.000Z</time>
      </trkpt>
      <trkpt lat="43.77535" lon="6.2434">
        <ele>798.4</ele>
        <time>2021-09-07T11:33:17.000Z</time>
      </trkpt>
      <trkpt lat="43.77535" lon="6.2434">
        <ele>798.5</ele>
        <time>2021-09-07T11:33:18.000Z</time>
      </trkpt>
      <trkpt lat="43.77535" lon="6.2434">
        <ele>798.4</ele>
        <time>2021-09-07T11:33:23.000Z</time>
      </trkpt>
      <trkpt lat="43.77534" lon="6.2434">
        <ele>798.4</ele>
        <time>2021-09-07T11:33:26.000Z</time>
      </trkpt>
      <trkpt lat="43.77534" lon="6.24339">
        <ele>798.3</ele>
        <time>2021-09-07T11:33:27.000Z</time>
      </trkpt>
      <trkpt lat="43.77534" lon="6.2434">
        <ele>798.5</ele>
        <time>2021-09-07T11:33:32.000Z</time>
      </trkpt>
      <trkpt lat="43.77535" lon="6.2434">
        <ele>798.4</ele>
        <time>2021-09-07T11:33:34.000Z</time>
      </trkpt>
      <trkpt lat="43.77535" lon="6.2434">
        <ele>798.2</ele>
        <time>2021-09-07T11:33:38.000Z</time>
      </trkpt>
      <trkpt lat="43.77536" lon="6.2434">
        <ele>798.3</ele>
        <time>2021-09-07T11:33:43.000Z</time>
      </trkpt>
      <trkpt lat="43.77536" lon="6.2434">
        <ele>798.3</ele>
        <time>2021-09-07T11:33:45.000Z</time>
      </trkpt>
      <trkpt lat="43.77534" lon="6.24341">
        <ele>798.2</ele>
        <time>2021-09-07T11:33:50.000Z</time>
      </trkpt>
      <trkpt lat="43.77534" lon="6.24342">
        <ele>798.4</ele>
        <time>2021-09-07T11:33:51.000Z</time>
      </trkpt>
      <trkpt lat="43.77534" lon="6.24342">
        <ele>798.4</ele>
        <time>2021-09-07T11:33:56.000Z</time>
      </trkpt>
      <trkpt lat="43.77534" lon="6.24342">
        <ele>798.4</ele>
        <time>2021-09-07T11:33:58.000Z</time>
      </trkpt>
      <trkpt lat="43.77535" lon="6.24343">
        <ele>798.4</ele>
        <time>2021-09-07T11:34:01.000Z</time>
      </trkpt>
      <trkpt lat="43.77535" lon="6.24343">
        <ele>798.7</ele>
        <time>2021-09-07T11:34:06.000Z</time>
      </trkpt>
      <trkpt lat="43.77535" lon="6.24343">
        <ele>798.3</ele>
        <time>2021-09-07T11:34:11.000Z</time>
      </trkpt>
      <trkpt lat="43.77535" lon="6.24343">
        <ele>798.2</ele>
        <time>2021-09-07T11:34:13.000Z</time>
      </trkpt>
      <trkpt lat="43.77535" lon="6.24343">
        <ele>798.4</ele>
        <time>2021-09-07T11:34:15.000Z</time>
      </trkpt>
      <trkpt lat="43.77536" lon="6.24343">
        <ele>798.2</ele>
        <time>2021-09-07T11:34:20.000Z</time>
      </trkpt>
      <trkpt lat="43.77536" lon="6.24343">
        <ele>798.2</ele>
        <time>2021-09-07T11:34:24.000Z</time>
      </trkpt>
      <trkpt lat="43.77536" lon="6.24343">
        <ele>798.2</ele>
        <time>2021-09-07T11:34:25.000Z</time>
      </trkpt>
      <trkpt lat="43.77536" lon="6.24343">
        <ele>798.2</ele>
        <time>2021-09-07T11:34:30.000Z</time>
      </trkpt>
      <trkpt lat="43.77536" lon="6.24343">
        <ele>798</ele>
        <time>2021-09-07T11:34:35.000Z</time>
      </trkpt>
      <trkpt lat="43.77536" lon="6.24342">
        <ele>798.1</ele>
        <time>2021-09-07T11:34:39.000Z</time>
      </trkpt>
      <trkpt lat="43.77534" lon="6.24342">
        <ele>798</ele>
        <time>2021-09-07T11:34:44.000Z</time>
      </trkpt>
      <trkpt lat="43.77532" lon="6.2434">
        <ele>798</ele>
        <time>2021-09-07T11:34:49.000Z</time>
      </trkpt>
      <trkpt lat="43.77532" lon="6.2434">
        <ele>797.9</ele>
        <time>2021-09-07T11:34:50.000Z</time>
      </trkpt>
      <trkpt lat="43.77532" lon="6.2434">
        <ele>798</ele>
        <time>2021-09-07T11:34:52.000Z</time>
      </trkpt>
      <trkpt lat="43.77532" lon="6.2434">
        <ele>798</ele>
        <time>2021-09-07T11:34:54.000Z</time>
      </trkpt>
      <trkpt lat="43.77531" lon="6.2434">
        <ele>798</ele>
        <time>2021-09-07T11:34:55.000Z</time>
      </trkpt>
      <trkpt lat="43.77531" lon="6.2434">
        <ele>798.1</ele>
        <time>2021-09-07T11:34:56.000Z</time>
      </trkpt>
      <trkpt lat="43.77531" lon="6.2434">
        <ele>798.1</ele>
        <time>2021-09-07T11:35:00.000Z</time>
      </trkpt>
      <trkpt lat="43.77531" lon="6.2434">
        <ele>798.2</ele>
        <time>2021-09-07T11:35:01.000Z</time>
      </trkpt>
      <trkpt lat="43.7753" lon="6.24339">
        <ele>798.3</ele>
        <time>2021-09-07T11:35:04.000Z</time>
      </trkpt>
      <trkpt lat="43.7753" lon="6.24339">
        <ele>798</ele>
        <time>2021-09-07T11:35:06.000Z</time>
      </trkpt>
      <trkpt lat="43.7753" lon="6.2434">
        <ele>798.3</ele>
        <time>2021-09-07T11:35:08.000Z</time>
      </trkpt>
      <trkpt lat="43.7753" lon="6.2434">
        <ele>798.5</ele>
        <time>2021-09-07T11:35:11.000Z</time>
      </trkpt>
      <trkpt lat="43.7753" lon="6.2434">
        <ele>798.1</ele>
        <time>2021-09-07T11:35:14.000Z</time>
      </trkpt>
      <trkpt lat="43.7753" lon="6.24341">
        <ele>798.5</ele>
        <time>2021-09-07T11:35:16.000Z</time>
      </trkpt>
      <trkpt lat="43.7753" lon="6.24341">
        <ele>798.4</ele>
        <time>2021-09-07T11:35:17.000Z</time>
      </trkpt>
      <trkpt lat="43.77531" lon="6.24341">
        <ele>798.3</ele>
        <time>2021-09-07T11:35:19.000Z</time>
      </trkpt>
      <trkpt lat="43.77531" lon="6.24341">
        <ele>798.4</ele>
        <time>2021-09-07T11:35:20.000Z</time>
      </trkpt>
      <trkpt lat="43.77533" lon="6.24341">
        <ele>798.2</ele>
        <time>2021-09-07T11:35:25.000Z</time>
      </trkpt>
      <trkpt lat="43.77534" lon="6.24341">
        <ele>798.4</ele>
        <time>2021-09-07T11:35:29.000Z</time>
      </trkpt>
      <trkpt lat="43.77534" lon="6.24342">
        <ele>798.6</ele>
        <time>2021-09-07T11:35:30.000Z</time>
      </trkpt>
      <trkpt lat="43.77534" lon="6.24342">
        <ele>798.5</ele>
        <time>2021-09-07T11:35:31.000Z</time>
      </trkpt>
      <trkpt lat="43.77534" lon="6.24342">
        <ele>798.4</ele>
        <time>2021-09-07T11:35:32.000Z</time>
      </trkpt>
      <trkpt lat="43.77535" lon="6.24342">
        <ele>798.4</ele>
        <time>2021-09-07T11:35:37.000Z</time>
      </trkpt>
      <trkpt lat="43.77536" lon="6.24344">
        <ele>798.5</ele>
        <time>2021-09-07T11:35:41.000Z</time>
      </trkpt>
      <trkpt lat="43.77536" lon="6.24344">
        <ele>798.6</ele>
        <time>2021-09-07T11:35:42.000Z</time>
      </trkpt>
      <trkpt lat="43.77536" lon="6.24344">
        <ele>798.5</ele>
        <time>2021-09-07T11:35:43.000Z</time>
      </trkpt>
      <trkpt lat="43.77536" lon="6.24344">
        <ele>798.6</ele>
        <time>2021-09-07T11:35:45.000Z</time>
      </trkpt>
      <trkpt lat="43.77536" lon="6.24345">
        <ele>798.5</ele>
        <time>2021-09-07T11:35:49.000Z</time>
      </trkpt>
      <trkpt lat="43.77535" lon="6.24345">
        <ele>798.1</ele>
        <time>2021-09-07T11:35:54.000Z</time>
      </trkpt>
      <trkpt lat="43.77536" lon="6.24345">
        <ele>798.5</ele>
        <time>2021-09-07T11:35:55.000Z</time>
      </trkpt>
      <trkpt lat="43.77536" lon="6.24345">
        <ele>798.2</ele>
        <time>2021-09-07T11:35:59.000Z</time>
      </trkpt>
      <trkpt lat="43.77535" lon="6.24345">
        <ele>798.2</ele>
        <time>2021-09-07T11:36:01.000Z</time>
      </trkpt>
      <trkpt lat="43.77535" lon="6.24345">
        <ele>798.2</ele>
        <time>2021-09-07T11:36:06.000Z</time>
      </trkpt>
      <trkpt lat="43.77535" lon="6.24345">
        <ele>798.3</ele>
        <time>2021-09-07T11:36:08.000Z</time>
      </trkpt>
      <trkpt lat="43.77535" lon="6.24344">
        <ele>798.3</ele>
        <time>2021-09-07T11:36:09.000Z</time>
      </trkpt>
      <trkpt lat="43.77535" lon="6.24344">
        <ele>798.3</ele>
        <time>2021-09-07T11:36:10.000Z</time>
      </trkpt>
      <trkpt lat="43.77535" lon="6.24344">
        <ele>798.2</ele>
        <time>2021-09-07T11:36:11.000Z</time>
      </trkpt>
      <trkpt lat="43.77535" lon="6.24344">
        <ele>798.2</ele>
        <time>2021-09-07T11:36:13.000Z</time>
      </trkpt>
      <trkpt lat="43.77535" lon="6.24343">
        <ele>798.1</ele>
        <time>2021-09-07T11:36:16.000Z</time>
      </trkpt>
      <trkpt lat="43.77535" lon="6.24343">
        <ele>798.2</ele>
        <time>2021-09-07T11:36:20.000Z</time>
      </trkpt>
      <trkpt lat="43.77535" lon="6.24343">
        <ele>798.1</ele>
        <time>2021-09-07T11:36:21.000Z</time>
      </trkpt>
      <trkpt lat="43.77535" lon="6.24343">
        <ele>798.2</ele>
        <time>2021-09-07T11:36:22.000Z</time>
      </trkpt>
      <trkpt lat="43.77536" lon="6.24343">
        <ele>798.2</ele>
        <time>2021-09-07T11:36:24.000Z</time>
      </trkpt>
      <trkpt lat="43.77535" lon="6.24342">
        <ele>798.3</ele>
        <time>2021-09-07T11:36:26.000Z</time>
      </trkpt>
      <trkpt lat="43.77534" lon="6.24342">
        <ele>798.3</ele>
        <time>2021-09-07T11:36:31.000Z</time>
      </trkpt>
      <trkpt lat="43.77534" lon="6.24342">
        <ele>798.2</ele>
        <time>2021-09-07T11:36:34.000Z</time>
      </trkpt>
      <trkpt lat="43.77533" lon="6.24341">
        <ele>798.3</ele>
        <time>2021-09-07T11:36:36.000Z</time>
      </trkpt>
      <trkpt lat="43.77533" lon="6.24341">
        <ele>798.2</ele>
        <time>2021-09-07T11:36:37.000Z</time>
      </trkpt>
      <trkpt lat="43.77533" lon="6.24341">
        <ele>798.2</ele>
        <time>2021-09-07T11:36:38.000Z</time>
      </trkpt>
      <trkpt lat="43.77533" lon="6.24341">
        <ele>798.3</ele>
        <time>2021-09-07T11:36:39.000Z</time>
      </trkpt>
      <trkpt lat="43.77533" lon="6.24341">
        <ele>798.1</ele>
        <time>2021-09-07T11:36:43.000Z</time>
      </trkpt>
      <trkpt lat="43.77533" lon="6.24341">
        <ele>798.1</ele>
        <time>2021-09-07T11:36:44.000Z</time>
      </trkpt>
      <trkpt lat="43.77532" lon="6.24341">
        <ele>798.2</ele>
        <time>2021-09-07T11:36:48.000Z</time>
      </trkpt>
      <trkpt lat="43.77532" lon="6.2434">
        <ele>798.1</ele>
        <time>2021-09-07T11:36:53.000Z</time>
      </trkpt>
      <trkpt lat="43.77531" lon="6.2434">
        <ele>798.2</ele>
        <time>2021-09-07T11:36:57.000Z</time>
      </trkpt>
      <trkpt lat="43.77531" lon="6.2434">
        <ele>798.1</ele>
        <time>2021-09-07T11:36:58.000Z</time>
      </trkpt>
      <trkpt lat="43.77531" lon="6.2434">
        <ele>798.3</ele>
        <time>2021-09-07T11:37:00.000Z</time>
      </trkpt>
      <trkpt lat="43.77532" lon="6.24341">
        <ele>798.1</ele>
        <time>2021-09-07T11:37:04.000Z</time>
      </trkpt>
      <trkpt lat="43.77532" lon="6.24341">
        <ele>798.3</ele>
        <time>2021-09-07T11:37:05.000Z</time>
      </trkpt>
      <trkpt lat="43.77532" lon="6.24341">
        <ele>798.6</ele>
        <time>2021-09-07T11:37:06.000Z</time>
      </trkpt>
      <trkpt lat="43.77532" lon="6.24341">
        <ele>798.3</ele>
        <time>2021-09-07T11:37:07.000Z</time>
      </trkpt>
      <trkpt lat="43.77533" lon="6.24342">
        <ele>798</ele>
        <time>2021-09-07T11:37:12.000Z</time>
      </trkpt>
      <trkpt lat="43.77533" lon="6.24342">
        <ele>797.9</ele>
        <time>2021-09-07T11:37:16.000Z</time>
      </trkpt>
      <trkpt lat="43.77534" lon="6.24342">
        <ele>798.1</ele>
        <time>2021-09-07T11:37:17.000Z</time>
      </trkpt>
      <trkpt lat="43.77534" lon="6.2434">
        <ele>798.2</ele>
        <time>2021-09-07T11:37:22.000Z</time>
      </trkpt>
      <trkpt lat="43.77534" lon="6.2434">
        <ele>798.1</ele>
        <time>2021-09-07T11:37:23.000Z</time>
      </trkpt>
      <trkpt lat="43.77534" lon="6.2434">
        <ele>798</ele>
        <time>2021-09-07T11:37:24.000Z</time>
      </trkpt>
      <trkpt lat="43.77534" lon="6.2434">
        <ele>798.1</ele>
        <time>2021-09-07T11:37:27.000Z</time>
      </trkpt>
      <trkpt lat="43.77533" lon="6.24339">
        <ele>797.9</ele>
        <time>2021-09-07T11:37:32.000Z</time>
      </trkpt>
      <trkpt lat="43.77533" lon="6.24339">
        <ele>798</ele>
        <time>2021-09-07T11:37:33.000Z</time>
      </trkpt>
      <trkpt lat="43.77533" lon="6.24339">
        <ele>798.3</ele>
        <time>2021-09-07T11:37:35.000Z</time>
      </trkpt>
      <trkpt lat="43.77533" lon="6.24339">
        <ele>798.1</ele>
        <time>2021-09-07T11:37:36.000Z</time>
      </trkpt>
      <trkpt lat="43.77533" lon="6.24339">
        <ele>797.9</ele>
        <time>2021-09-07T11:37:38.000Z</time>
      </trkpt>
      <trkpt lat="43.77533" lon="6.24339">
        <ele>798.1</ele>
        <time>2021-09-07T11:37:42.000Z</time>
      </trkpt>
      <trkpt lat="43.77533" lon="6.24339">
        <ele>798.3</ele>
        <time>2021-09-07T11:37:43.000Z</time>
      </trkpt>
      <trkpt lat="43.77533" lon="6.2434">
        <ele>798.3</ele>
        <time>2021-09-07T11:37:47.000Z</time>
      </trkpt>
      <trkpt lat="43.77533" lon="6.24339">
        <ele>798.2</ele>
        <time>2021-09-07T11:37:50.000Z</time>
      </trkpt>
      <trkpt lat="43.77533" lon="6.24339">
        <ele>798.3</ele>
        <time>2021-09-07T11:37:52.000Z</time>
      </trkpt>
      <trkpt lat="43.77532" lon="6.24339">
        <ele>798.3</ele>
        <time>2021-09-07T11:37:53.000Z</time>
      </trkpt>
      <trkpt lat="43.77532" lon="6.24339">
        <ele>798.1</ele>
        <time>2021-09-07T11:37:56.000Z</time>
      </trkpt>
      <trkpt lat="43.77532" lon="6.24339">
        <ele>798.2</ele>
        <time>2021-09-07T11:37:58.000Z</time>
      </trkpt>
      <trkpt lat="43.77532" lon="6.24337">
        <ele>798.3</ele>
        <time>2021-09-07T11:38:02.000Z</time>
      </trkpt>
      <trkpt lat="43.77533" lon="6.24337">
        <ele>798.1</ele>
        <time>2021-09-07T11:38:03.000Z</time>
      </trkpt>
      <trkpt lat="43.77533" lon="6.24337">
        <ele>797.9</ele>
        <time>2021-09-07T11:38:04.000Z</time>
      </trkpt>
      <trkpt lat="43.77533" lon="6.24338">
        <ele>798.1</ele>
        <time>2021-09-07T11:38:06.000Z</time>
      </trkpt>
      <trkpt lat="43.77533" lon="6.24338">
        <ele>798.2</ele>
        <time>2021-09-07T11:38:09.000Z</time>
      </trkpt>
      <trkpt lat="43.77533" lon="6.24338">
        <ele>798.2</ele>
        <time>2021-09-07T11:38:10.000Z</time>
      </trkpt>
      <trkpt lat="43.77533" lon="6.24339">
        <ele>798.1</ele>
        <time>2021-09-07T11:38:13.000Z</time>
      </trkpt>
      <trkpt lat="43.77533" lon="6.24339">
        <ele>798.1</ele>
        <time>2021-09-07T11:38:15.000Z</time>
      </trkpt>
      <trkpt lat="43.77533" lon="6.2434">
        <ele>798.3</ele>
        <time>2021-09-07T11:38:18.000Z</time>
      </trkpt>
      <trkpt lat="43.77533" lon="6.2434">
        <ele>798.4</ele>
        <time>2021-09-07T11:38:23.000Z</time>
      </trkpt>
      <trkpt lat="43.77533" lon="6.2434">
        <ele>798.4</ele>
        <time>2021-09-07T11:38:28.000Z</time>
      </trkpt>
      <trkpt lat="43.77533" lon="6.2434">
        <ele>798.4</ele>
        <time>2021-09-07T11:38:32.000Z</time>
      </trkpt>
      <trkpt lat="43.77533" lon="6.2434">
        <ele>798.4</ele>
        <time>2021-09-07T11:38:33.000Z</time>
      </trkpt>
      <trkpt lat="43.77533" lon="6.2434">
        <ele>798.3</ele>
        <time>2021-09-07T11:38:34.000Z</time>
      </trkpt>
      <trkpt lat="43.77533" lon="6.2434">
        <ele>798.3</ele>
        <time>2021-09-07T11:38:35.000Z</time>
      </trkpt>
      <trkpt lat="43.77534" lon="6.2434">
        <ele>798.2</ele>
        <time>2021-09-07T11:38:40.000Z</time>
      </trkpt>
      <trkpt lat="43.77533" lon="6.24339">
        <ele>798.4</ele>
        <time>2021-09-07T11:38:44.000Z</time>
      </trkpt>
      <trkpt lat="43.77533" lon="6.2434">
        <ele>798.2</ele>
        <time>2021-09-07T11:38:48.000Z</time>
      </trkpt>
      <trkpt lat="43.77533" lon="6.2434">
        <ele>798.4</ele>
        <time>2021-09-07T11:38:53.000Z</time>
      </trkpt>
      <trkpt lat="43.77533" lon="6.24341">
        <ele>798.5</ele>
        <time>2021-09-07T11:38:54.000Z</time>
      </trkpt>
      <trkpt lat="43.77533" lon="6.24341">
        <ele>798.5</ele>
        <time>2021-09-07T11:38:59.000Z</time>
      </trkpt>
      <trkpt lat="43.77533" lon="6.24341">
        <ele>798.6</ele>
        <time>2021-09-07T11:39:03.000Z</time>
      </trkpt>
      <trkpt lat="43.77533" lon="6.24341">
        <ele>798.3</ele>
        <time>2021-09-07T11:39:04.000Z</time>
      </trkpt>
      <trkpt lat="43.77532" lon="6.24341">
        <ele>798.2</ele>
        <time>2021-09-07T11:39:06.000Z</time>
      </trkpt>
      <trkpt lat="43.77532" lon="6.2434">
        <ele>798.5</ele>
        <time>2021-09-07T11:39:08.000Z</time>
      </trkpt>
      <trkpt lat="43.77532" lon="6.24341">
        <ele>798.3</ele>
        <time>2021-09-07T11:39:09.000Z</time>
      </trkpt>
      <trkpt lat="43.77532" lon="6.2434">
        <ele>798.3</ele>
        <time>2021-09-07T11:39:11.000Z</time>
      </trkpt>
      <trkpt lat="43.77532" lon="6.2434">
        <ele>798.2</ele>
        <time>2021-09-07T11:39:12.000Z</time>
      </trkpt>
      <trkpt lat="43.77532" lon="6.2434">
        <ele>798.3</ele>
        <time>2021-09-07T11:39:13.000Z</time>
      </trkpt>
      <trkpt lat="43.77532" lon="6.2434">
        <ele>798.2</ele>
        <time>2021-09-07T11:39:15.000Z</time>
      </trkpt>
      <trkpt lat="43.77533" lon="6.24341">
        <ele>798.2</ele>
        <time>2021-09-07T11:39:19.000Z</time>
      </trkpt>
      <trkpt lat="43.77533" lon="6.24341">
        <ele>798</ele>
        <time>2021-09-07T11:39:24.000Z</time>
      </trkpt>
      <trkpt lat="43.77533" lon="6.24341">
        <ele>798</ele>
        <time>2021-09-07T11:39:29.000Z</time>
      </trkpt>
      <trkpt lat="43.77533" lon="6.24342">
        <ele>798.2</ele>
        <time>2021-09-07T11:39:34.000Z</time>
      </trkpt>
      <trkpt lat="43.77533" lon="6.24341">
        <ele>798.2</ele>
        <time>2021-09-07T11:39:39.000Z</time>
      </trkpt>
      <trkpt lat="43.77532" lon="6.24341">
        <ele>798</ele>
        <time>2021-09-07T11:39:43.000Z</time>
      </trkpt>
      <trkpt lat="43.77532" lon="6.2434">
        <ele>798.1</ele>
        <time>2021-09-07T11:39:48.000Z</time>
      </trkpt>
      <trkpt lat="43.77532" lon="6.2434">
        <ele>798.2</ele>
        <time>2021-09-07T11:39:51.000Z</time>
      </trkpt>
      <trkpt lat="43.77531" lon="6.2434">
        <ele>798.3</ele>
        <time>2021-09-07T11:39:53.000Z</time>
      </trkpt>
      <trkpt lat="43.77531" lon="6.2434">
        <ele>798.1</ele>
        <time>2021-09-07T11:39:54.000Z</time>
      </trkpt>
      <trkpt lat="43.77531" lon="6.24339">
        <ele>797.9</ele>
        <time>2021-09-07T11:39:58.000Z</time>
      </trkpt>
      <trkpt lat="43.77531" lon="6.24339">
        <ele>798</ele>
        <time>2021-09-07T11:40:01.000Z</time>
      </trkpt>
      <trkpt lat="43.77531" lon="6.24339">
        <ele>798.3</ele>
        <time>2021-09-07T11:40:06.000Z</time>
      </trkpt>
      <trkpt lat="43.77531" lon="6.24338">
        <ele>798.1</ele>
        <time>2021-09-07T11:40:10.000Z</time>
      </trkpt>
      <trkpt lat="43.77531" lon="6.24338">
        <ele>798.2</ele>
        <time>2021-09-07T11:40:12.000Z</time>
      </trkpt>
      <trkpt lat="43.77531" lon="6.24338">
        <ele>798.3</ele>
        <time>2021-09-07T11:40:15.000Z</time>
      </trkpt>
      <trkpt lat="43.77531" lon="6.24337">
        <ele>798.1</ele>
        <time>2021-09-07T11:40:18.000Z</time>
      </trkpt>
      <trkpt lat="43.77531" lon="6.24337">
        <ele>798.3</ele>
        <time>2021-09-07T11:40:21.000Z</time>
      </trkpt>
      <trkpt lat="43.77531" lon="6.24337">
        <ele>798.4</ele>
        <time>2021-09-07T11:40:22.000Z</time>
      </trkpt>
      <trkpt lat="43.77532" lon="6.24337">
        <ele>798.2</ele>
        <time>2021-09-07T11:40:26.000Z</time>
      </trkpt>
      <trkpt lat="43.77532" lon="6.24337">
        <ele>798.3</ele>
        <time>2021-09-07T11:40:27.000Z</time>
      </trkpt>
      <trkpt lat="43.77532" lon="6.24338">
        <ele>798.2</ele>
        <time>2021-09-07T11:40:29.000Z</time>
      </trkpt>
      <trkpt lat="43.77532" lon="6.24338">
        <ele>798.5</ele>
        <time>2021-09-07T11:40:31.000Z</time>
      </trkpt>
      <trkpt lat="43.77532" lon="6.24338">
        <ele>798.3</ele>
        <time>2021-09-07T11:40:36.000Z</time>
      </trkpt>
      <trkpt lat="43.77533" lon="6.2434">
        <ele>798.3</ele>
        <time>2021-09-07T11:40:41.000Z</time>
      </trkpt>
      <trkpt lat="43.77533" lon="6.2434">
        <ele>798.2</ele>
        <time>2021-09-07T11:40:44.000Z</time>
      </trkpt>
      <trkpt lat="43.77533" lon="6.24341">
        <ele>798.2</ele>
        <time>2021-09-07T11:40:46.000Z</time>
      </trkpt>
      <trkpt lat="43.77533" lon="6.24341">
        <ele>798.1</ele>
        <time>2021-09-07T11:40:51.000Z</time>
      </trkpt>
      <trkpt lat="43.77533" lon="6.24341">
        <ele>798.4</ele>
        <time>2021-09-07T11:40:55.000Z</time>
      </trkpt>
      <trkpt lat="43.77532" lon="6.24342">
        <ele>798.3</ele>
        <time>2021-09-07T11:41:00.000Z</time>
      </trkpt>
      <trkpt lat="43.77532" lon="6.24342">
        <ele>798.3</ele>
        <time>2021-09-07T11:41:02.000Z</time>
      </trkpt>
      <trkpt lat="43.77532" lon="6.24342">
        <ele>798.2</ele>
        <time>2021-09-07T11:41:03.000Z</time>
      </trkpt>
      <trkpt lat="43.7753" lon="6.24341">
        <ele>798.5</ele>
        <time>2021-09-07T11:41:08.000Z</time>
      </trkpt>
      <trkpt lat="43.7753" lon="6.24341">
        <ele>798.4</ele>
        <time>2021-09-07T11:41:10.000Z</time>
      </trkpt>
      <trkpt lat="43.7753" lon="6.24342">
        <ele>798.5</ele>
        <time>2021-09-07T11:41:15.000Z</time>
      </trkpt>
      <trkpt lat="43.7753" lon="6.24341">
        <ele>798.5</ele>
        <time>2021-09-07T11:41:17.000Z</time>
      </trkpt>
      <trkpt lat="43.7753" lon="6.24341">
        <ele>798.4</ele>
        <time>2021-09-07T11:41:21.000Z</time>
      </trkpt>
      <trkpt lat="43.7753" lon="6.2434">
        <ele>798.4</ele>
        <time>2021-09-07T11:41:22.000Z</time>
      </trkpt>
      <trkpt lat="43.7753" lon="6.2434">
        <ele>798.4</ele>
        <time>2021-09-07T11:41:23.000Z</time>
      </trkpt>
      <trkpt lat="43.7753" lon="6.2434">
        <ele>798.3</ele>
        <time>2021-09-07T11:41:27.000Z</time>
      </trkpt>
      <trkpt lat="43.7753" lon="6.2434">
        <ele>798.3</ele>
        <time>2021-09-07T11:41:29.000Z</time>
      </trkpt>
      <trkpt lat="43.7753" lon="6.24339">
        <ele>798.6</ele>
        <time>2021-09-07T11:41:31.000Z</time>
      </trkpt>
      <trkpt lat="43.7753" lon="6.24339">
        <ele>798.5</ele>
        <time>2021-09-07T11:41:33.000Z</time>
      </trkpt>
      <trkpt lat="43.77529" lon="6.24339">
        <ele>798.4</ele>
        <time>2021-09-07T11:41:34.000Z</time>
      </trkpt>
      <trkpt lat="43.77529" lon="6.2434">
        <ele>798.2</ele>
        <time>2021-09-07T11:41:35.000Z</time>
      </trkpt>
      <trkpt lat="43.77529" lon="6.24339">
        <ele>798.3</ele>
        <time>2021-09-07T11:41:40.000Z</time>
      </trkpt>
      <trkpt lat="43.77529" lon="6.24339">
        <ele>798.2</ele>
        <time>2021-09-07T11:41:41.000Z</time>
      </trkpt>
      <trkpt lat="43.77529" lon="6.24339">
        <ele>798.1</ele>
        <time>2021-09-07T11:41:42.000Z</time>
      </trkpt>
      <trkpt lat="43.77529" lon="6.24339">
        <ele>798.2</ele>
        <time>2021-09-07T11:41:47.000Z</time>
      </trkpt>
      <trkpt lat="43.77529" lon="6.24339">
        <ele>798.3</ele>
        <time>2021-09-07T11:41:52.000Z</time>
      </trkpt>
      <trkpt lat="43.77529" lon="6.24339">
        <ele>798.2</ele>
        <time>2021-09-07T11:41:57.000Z</time>
      </trkpt>
      <trkpt lat="43.77529" lon="6.24339">
        <ele>798.1</ele>
        <time>2021-09-07T11:42:02.000Z</time>
      </trkpt>
      <trkpt lat="43.77529" lon="6.24338">
        <ele>798</ele>
        <time>2021-09-07T11:42:07.000Z</time>
      </trkpt>
      <trkpt lat="43.77529" lon="6.24339">
        <ele>798</ele>
        <time>2021-09-07T11:42:10.000Z</time>
      </trkpt>
      <trkpt lat="43.77529" lon="6.24339">
        <ele>798.2</ele>
        <time>2021-09-07T11:42:12.000Z</time>
      </trkpt>
      <trkpt lat="43.77529" lon="6.24339">
        <ele>798.1</ele>
        <time>2021-09-07T11:42:17.000Z</time>
      </trkpt>
      <trkpt lat="43.7753" lon="6.2434">
        <ele>798.1</ele>
        <time>2021-09-07T11:42:20.000Z</time>
      </trkpt>
      <trkpt lat="43.77529" lon="6.2434">
        <ele>798</ele>
        <time>2021-09-07T11:42:23.000Z</time>
      </trkpt>
      <trkpt lat="43.77529" lon="6.2434">
        <ele>798.1</ele>
        <time>2021-09-07T11:42:26.000Z</time>
      </trkpt>
      <trkpt lat="43.77529" lon="6.24339">
        <ele>798.2</ele>
        <time>2021-09-07T11:42:29.000Z</time>
      </trkpt>
      <trkpt lat="43.77529" lon="6.24339">
        <ele>798.2</ele>
        <time>2021-09-07T11:42:30.000Z</time>
      </trkpt>
      <trkpt lat="43.77529" lon="6.24338">
        <ele>798.1</ele>
        <time>2021-09-07T11:42:32.000Z</time>
      </trkpt>
      <trkpt lat="43.77529" lon="6.24338">
        <ele>798.1</ele>
        <time>2021-09-07T11:42:37.000Z</time>
      </trkpt>
      <trkpt lat="43.77529" lon="6.24338">
        <ele>798.2</ele>
        <time>2021-09-07T11:42:42.000Z</time>
      </trkpt>
      <trkpt lat="43.77528" lon="6.24337">
        <ele>798.1</ele>
        <time>2021-09-07T11:42:47.000Z</time>
      </trkpt>
      <trkpt lat="43.77528" lon="6.24337">
        <ele>798.2</ele>
        <time>2021-09-07T11:42:52.000Z</time>
      </trkpt>
      <trkpt lat="43.77528" lon="6.24337">
        <ele>798.3</ele>
        <time>2021-09-07T11:42:57.000Z</time>
      </trkpt>
      <trkpt lat="43.77528" lon="6.24337">
        <ele>798.6</ele>
        <time>2021-09-07T11:43:02.000Z</time>
      </trkpt>
      <trkpt lat="43.77528" lon="6.24336">
        <ele>798.6</ele>
        <time>2021-09-07T11:43:05.000Z</time>
      </trkpt>
      <trkpt lat="43.77528" lon="6.24336">
        <ele>798.2</ele>
        <time>2021-09-07T11:43:10.000Z</time>
      </trkpt>
      <trkpt lat="43.77528" lon="6.24336">
        <ele>798</ele>
        <time>2021-09-07T11:43:11.000Z</time>
      </trkpt>
      <trkpt lat="43.77528" lon="6.24336">
        <ele>798.1</ele>
        <time>2021-09-07T11:43:13.000Z</time>
      </trkpt>
      <trkpt lat="43.77528" lon="6.24336">
        <ele>798.1</ele>
        <time>2021-09-07T11:43:15.000Z</time>
      </trkpt>
      <trkpt lat="43.77528" lon="6.24336">
        <ele>798.1</ele>
        <time>2021-09-07T11:43:16.000Z</time>
      </trkpt>
      <trkpt lat="43.77528" lon="6.24335">
        <ele>798.1</ele>
        <time>2021-09-07T11:43:21.000Z</time>
      </trkpt>
      <trkpt lat="43.77528" lon="6.24335">
        <ele>798.2</ele>
        <time>2021-09-07T11:43:25.000Z</time>
      </trkpt>
      <trkpt lat="43.77528" lon="6.24335">
        <ele>798</ele>
        <time>2021-09-07T11:43:26.000Z</time>
      </trkpt>
      <trkpt lat="43.77528" lon="6.24336">
        <ele>798</ele>
        <time>2021-09-07T11:43:28.000Z</time>
      </trkpt>
      <trkpt lat="43.77527" lon="6.24336">
        <ele>798.2</ele>
        <time>2021-09-07T11:43:29.000Z</time>
      </trkpt>
      <trkpt lat="43.77528" lon="6.24336">
        <ele>798.1</ele>
        <time>2021-09-07T11:43:34.000Z</time>
      </trkpt>
      <trkpt lat="43.77528" lon="6.24336">
        <ele>798</ele>
        <time>2021-09-07T11:43:39.000Z</time>
      </trkpt>
      <trkpt lat="43.77528" lon="6.24336">
        <ele>798</ele>
        <time>2021-09-07T11:43:44.000Z</time>
      </trkpt>
      <trkpt lat="43.77528" lon="6.24336">
        <ele>798.2</ele>
        <time>2021-09-07T11:43:49.000Z</time>
      </trkpt>
      <trkpt lat="43.77528" lon="6.24336">
        <ele>797.9</ele>
        <time>2021-09-07T11:43:54.000Z</time>
      </trkpt>
      <trkpt lat="43.77528" lon="6.24336">
        <ele>798</ele>
        <time>2021-09-07T11:43:59.000Z</time>
      </trkpt>
      <trkpt lat="43.77529" lon="6.24337">
        <ele>798.2</ele>
        <time>2021-09-07T11:44:04.000Z</time>
      </trkpt>
      <trkpt lat="43.77529" lon="6.24337">
        <ele>798.2</ele>
        <time>2021-09-07T11:44:05.000Z</time>
      </trkpt>
      <trkpt lat="43.77529" lon="6.24337">
        <ele>798.4</ele>
        <time>2021-09-07T11:44:07.000Z</time>
      </trkpt>
      <trkpt lat="43.77529" lon="6.24337">
        <ele>798.4</ele>
        <time>2021-09-07T11:44:12.000Z</time>
      </trkpt>
      <trkpt lat="43.77529" lon="6.24338">
        <ele>798.4</ele>
        <time>2021-09-07T11:44:13.000Z</time>
      </trkpt>
      <trkpt lat="43.77529" lon="6.24338">
        <ele>798.3</ele>
        <time>2021-09-07T11:44:15.000Z</time>
      </trkpt>
      <trkpt lat="43.7753" lon="6.24338">
        <ele>798.1</ele>
        <time>2021-09-07T11:44:18.000Z</time>
      </trkpt>
      <trkpt lat="43.7753" lon="6.24338">
        <ele>798.1</ele>
        <time>2021-09-07T11:44:19.000Z</time>
      </trkpt>
      <trkpt lat="43.7753" lon="6.24338">
        <ele>798.3</ele>
        <time>2021-09-07T11:44:24.000Z</time>
      </trkpt>
      <trkpt lat="43.7753" lon="6.24338">
        <ele>798.1</ele>
        <time>2021-09-07T11:44:29.000Z</time>
      </trkpt>
      <trkpt lat="43.7753" lon="6.24339">
        <ele>798.6</ele>
        <time>2021-09-07T11:44:34.000Z</time>
      </trkpt>
      <trkpt lat="43.77531" lon="6.24339">
        <ele>798.4</ele>
        <time>2021-09-07T11:44:37.000Z</time>
      </trkpt>
      <trkpt lat="43.77531" lon="6.24339">
        <ele>798.5</ele>
        <time>2021-09-07T11:44:39.000Z</time>
      </trkpt>
      <trkpt lat="43.77531" lon="6.24339">
        <ele>798.3</ele>
        <time>2021-09-07T11:44:44.000Z</time>
      </trkpt>
      <trkpt lat="43.77531" lon="6.2434">
        <ele>798.2</ele>
        <time>2021-09-07T11:44:46.000Z</time>
      </trkpt>
      <trkpt lat="43.77531" lon="6.2434">
        <ele>798.1</ele>
        <time>2021-09-07T11:44:47.000Z</time>
      </trkpt>
      <trkpt lat="43.77531" lon="6.2434">
        <ele>798.3</ele>
        <time>2021-09-07T11:44:50.000Z</time>
      </trkpt>
      <trkpt lat="43.7753" lon="6.24341">
        <ele>798.2</ele>
        <time>2021-09-07T11:44:55.000Z</time>
      </trkpt>
      <trkpt lat="43.7753" lon="6.24341">
        <ele>798.1</ele>
        <time>2021-09-07T11:44:57.000Z</time>
      </trkpt>
      <trkpt lat="43.7753" lon="6.24342">
        <ele>798.3</ele>
        <time>2021-09-07T11:45:02.000Z</time>
      </trkpt>
      <trkpt lat="43.7753" lon="6.24342">
        <ele>798.1</ele>
        <time>2021-09-07T11:45:04.000Z</time>
      </trkpt>
      <trkpt lat="43.7753" lon="6.24342">
        <ele>798.2</ele>
        <time>2021-09-07T11:45:05.000Z</time>
      </trkpt>
      <trkpt lat="43.77529" lon="6.24342">
        <ele>798.3</ele>
        <time>2021-09-07T11:45:10.000Z</time>
      </trkpt>
      <trkpt lat="43.7753" lon="6.24342">
        <ele>798.4</ele>
        <time>2021-09-07T11:45:14.000Z</time>
      </trkpt>
      <trkpt lat="43.7753" lon="6.24342">
        <ele>798.1</ele>
        <time>2021-09-07T11:45:15.000Z</time>
      </trkpt>
      <trkpt lat="43.7753" lon="6.24342">
        <ele>798.1</ele>
        <time>2021-09-07T11:45:20.000Z</time>
      </trkpt>
      <trkpt lat="43.7753" lon="6.24342">
        <ele>798</ele>
        <time>2021-09-07T11:45:25.000Z</time>
      </trkpt>
      <trkpt lat="43.7753" lon="6.24342">
        <ele>798.2</ele>
        <time>2021-09-07T11:45:30.000Z</time>
      </trkpt>
      <trkpt lat="43.7753" lon="6.24342">
        <ele>798.2</ele>
        <time>2021-09-07T11:45:33.000Z</time>
      </trkpt>
      <trkpt lat="43.7753" lon="6.24342">
        <ele>798</ele>
        <time>2021-09-07T11:45:35.000Z</time>
      </trkpt>
      <trkpt lat="43.7753" lon="6.24341">
        <ele>798</ele>
        <time>2021-09-07T11:45:39.000Z</time>
      </trkpt>
      <trkpt lat="43.7753" lon="6.24341">
        <ele>798.1</ele>
        <time>2021-09-07T11:45:40.000Z</time>
      </trkpt>
      <trkpt lat="43.7753" lon="6.24341">
        <ele>798.1</ele>
        <time>2021-09-07T11:45:42.000Z</time>
      </trkpt>
      <trkpt lat="43.7753" lon="6.24341">
        <ele>797.9</ele>
        <time>2021-09-07T11:45:43.000Z</time>
      </trkpt>
      <trkpt lat="43.7753" lon="6.24341">
        <ele>798.1</ele>
        <time>2021-09-07T11:45:48.000Z</time>
      </trkpt>
      <trkpt lat="43.7753" lon="6.2434">
        <ele>798.3</ele>
        <time>2021-09-07T11:45:53.000Z</time>
      </trkpt>
      <trkpt lat="43.7753" lon="6.2434">
        <ele>798</ele>
        <time>2021-09-07T11:45:58.000Z</time>
      </trkpt>
      <trkpt lat="43.7753" lon="6.2434">
        <ele>798</ele>
        <time>2021-09-07T11:46:03.000Z</time>
      </trkpt>
      <trkpt lat="43.7753" lon="6.2434">
        <ele>797.9</ele>
        <time>2021-09-07T11:46:05.000Z</time>
      </trkpt>
      <trkpt lat="43.7753" lon="6.2434">
        <ele>797.9</ele>
        <time>2021-09-07T11:46:06.000Z</time>
      </trkpt>
      <trkpt lat="43.7753" lon="6.2434">
        <ele>798.1</ele>
        <time>2021-09-07T11:46:08.000Z</time>
      </trkpt>
      <trkpt lat="43.7753" lon="6.2434">
        <ele>798</ele>
        <time>2021-09-07T11:46:09.000Z</time>
      </trkpt>
      <trkpt lat="43.7753" lon="6.2434">
        <ele>797.7</ele>
        <time>2021-09-07T11:46:14.000Z</time>
      </trkpt>
      <trkpt lat="43.7753" lon="6.2434">
        <ele>797.9</ele>
        <time>2021-09-07T11:46:19.000Z</time>
      </trkpt>
      <trkpt lat="43.7753" lon="6.2434">
        <ele>798.1</ele>
        <time>2021-09-07T11:46:24.000Z</time>
      </trkpt>
      <trkpt lat="43.7753" lon="6.2434">
        <ele>797.9</ele>
        <time>2021-09-07T11:46:28.000Z</time>
      </trkpt>
      <trkpt lat="43.7753" lon="6.2434">
        <ele>798</ele>
        <time>2021-09-07T11:46:29.000Z</time>
      </trkpt>
      <trkpt lat="43.7753" lon="6.2434">
        <ele>798</ele>
        <time>2021-09-07T11:46:30.000Z</time>
      </trkpt>
      <trkpt lat="43.7753" lon="6.2434">
        <ele>798.1</ele>
        <time>2021-09-07T11:46:31.000Z</time>
      </trkpt>
      <trkpt lat="43.7753" lon="6.24341">
        <ele>798</ele>
        <time>2021-09-07T11:46:33.000Z</time>
      </trkpt>
      <trkpt lat="43.7753" lon="6.24341">
        <ele>798</ele>
        <time>2021-09-07T11:46:34.000Z</time>
      </trkpt>
      <trkpt lat="43.7753" lon="6.24341">
        <ele>797.9</ele>
        <time>2021-09-07T11:46:39.000Z</time>
      </trkpt>
      <trkpt lat="43.77529" lon="6.24341">
        <ele>798</ele>
        <time>2021-09-07T11:46:43.000Z</time>
      </trkpt>
      <trkpt lat="43.77529" lon="6.2434">
        <ele>797.8</ele>
        <time>2021-09-07T11:46:45.000Z</time>
      </trkpt>
      <trkpt lat="43.77529" lon="6.2434">
        <ele>797.7</ele>
        <time>2021-09-07T11:46:49.000Z</time>
      </trkpt>
      <trkpt lat="43.77529" lon="6.2434">
        <ele>798</ele>
        <time>2021-09-07T11:46:50.000Z</time>
      </trkpt>
      <trkpt lat="43.7753" lon="6.2434">
        <ele>797.9</ele>
        <time>2021-09-07T11:46:52.000Z</time>
      </trkpt>
      <trkpt lat="43.7753" lon="6.2434">
        <ele>797.8</ele>
        <time>2021-09-07T11:46:53.000Z</time>
      </trkpt>
      <trkpt lat="43.7753" lon="6.2434">
        <ele>797.9</ele>
        <time>2021-09-07T11:46:56.000Z</time>
      </trkpt>
      <trkpt lat="43.7753" lon="6.2434">
        <ele>797.9</ele>
        <time>2021-09-07T11:46:58.000Z</time>
      </trkpt>
      <trkpt lat="43.7753" lon="6.24339">
        <ele>798</ele>
        <time>2021-09-07T11:47:03.000Z</time>
      </trkpt>
      <trkpt lat="43.7753" lon="6.24339">
        <ele>797.8</ele>
        <time>2021-09-07T11:47:08.000Z</time>
      </trkpt>
      <trkpt lat="43.7753" lon="6.24338">
        <ele>797.9</ele>
        <time>2021-09-07T11:47:13.000Z</time>
      </trkpt>
      <trkpt lat="43.7753" lon="6.24338">
        <ele>797.9</ele>
        <time>2021-09-07T11:47:16.000Z</time>
      </trkpt>
      <trkpt lat="43.7753" lon="6.24338">
        <ele>797.8</ele>
        <time>2021-09-07T11:47:17.000Z</time>
      </trkpt>
      <trkpt lat="43.7753" lon="6.24338">
        <ele>797.8</ele>
        <time>2021-09-07T11:47:22.000Z</time>
      </trkpt>
      <trkpt lat="43.7753" lon="6.24338">
        <ele>797.9</ele>
        <time>2021-09-07T11:47:27.000Z</time>
      </trkpt>
      <trkpt lat="43.7753" lon="6.24339">
        <ele>798</ele>
        <time>2021-09-07T11:47:32.000Z</time>
      </trkpt>
      <trkpt lat="43.7753" lon="6.24339">
        <ele>798.1</ele>
        <time>2021-09-07T11:47:37.000Z</time>
      </trkpt>
      <trkpt lat="43.7753" lon="6.24339">
        <ele>798</ele>
        <time>2021-09-07T11:47:42.000Z</time>
      </trkpt>
      <trkpt lat="43.7753" lon="6.24339">
        <ele>797.9</ele>
        <time>2021-09-07T11:47:47.000Z</time>
      </trkpt>
      <trkpt lat="43.7753" lon="6.24339">
        <ele>798.3</ele>
        <time>2021-09-07T11:47:52.000Z</time>
      </trkpt>
      <trkpt lat="43.7753" lon="6.24339">
        <ele>798.2</ele>
        <time>2021-09-07T11:47:54.000Z</time>
      </trkpt>
      <trkpt lat="43.7753" lon="6.24339">
        <ele>798.1</ele>
        <time>2021-09-07T11:47:56.000Z</time>
      </trkpt>
      <trkpt lat="43.7753" lon="6.24338">
        <ele>798.2</ele>
        <time>2021-09-07T11:48:01.000Z</time>
      </trkpt>
      <trkpt lat="43.7753" lon="6.24338">
        <ele>798.1</ele>
        <time>2021-09-07T11:48:03.000Z</time>
      </trkpt>
      <trkpt lat="43.7753" lon="6.24338">
        <ele>798</ele>
        <time>2021-09-07T11:48:05.000Z</time>
      </trkpt>
      <trkpt lat="43.7753" lon="6.24338">
        <ele>798</ele>
        <time>2021-09-07T11:48:10.000Z</time>
      </trkpt>
      <trkpt lat="43.7753" lon="6.24337">
        <ele>798</ele>
        <time>2021-09-07T11:48:15.000Z</time>
      </trkpt>
      <trkpt lat="43.7753" lon="6.24337">
        <ele>798</ele>
        <time>2021-09-07T11:48:19.000Z</time>
      </trkpt>
      <trkpt lat="43.7753" lon="6.24337">
        <ele>798.1</ele>
        <time>2021-09-07T11:48:20.000Z</time>
      </trkpt>
      <trkpt lat="43.7753" lon="6.24337">
        <ele>798.1</ele>
        <time>2021-09-07T11:48:21.000Z</time>
      </trkpt>
      <trkpt lat="43.7753" lon="6.24337">
        <ele>798</ele>
        <time>2021-09-07T11:48:22.000Z</time>
      </trkpt>
      <trkpt lat="43.77531" lon="6.24337">
        <ele>798.1</ele>
        <time>2021-09-07T11:48:27.000Z</time>
      </trkpt>
      <trkpt lat="43.77531" lon="6.24337">
        <ele>798</ele>
        <time>2021-09-07T11:48:32.000Z</time>
      </trkpt>
      <trkpt lat="43.77531" lon="6.24337">
        <ele>797.9</ele>
        <time>2021-09-07T11:48:37.000Z</time>
      </trkpt>
      <trkpt lat="43.77531" lon="6.24338">
        <ele>798</ele>
        <time>2021-09-07T11:48:40.000Z</time>
      </trkpt>
      <trkpt lat="43.77531" lon="6.24339">
        <ele>798</ele>
        <time>2021-09-07T11:48:43.000Z</time>
      </trkpt>
      <trkpt lat="43.77532" lon="6.24339">
        <ele>798.2</ele>
        <time>2021-09-07T11:48:46.000Z</time>
      </trkpt>
      <trkpt lat="43.77532" lon="6.24339">
        <ele>798.2</ele>
        <time>2021-09-07T11:48:47.000Z</time>
      </trkpt>
      <trkpt lat="43.77532" lon="6.2434">
        <ele>798.2</ele>
        <time>2021-09-07T11:48:50.000Z</time>
      </trkpt>
      <trkpt lat="43.77532" lon="6.24341">
        <ele>798.2</ele>
        <time>2021-09-07T11:48:55.000Z</time>
      </trkpt>
      <trkpt lat="43.77532" lon="6.24341">
        <ele>798.1</ele>
        <time>2021-09-07T11:48:57.000Z</time>
      </trkpt>
      <trkpt lat="43.77532" lon="6.24341">
        <ele>798</ele>
        <time>2021-09-07T11:49:02.000Z</time>
      </trkpt>
      <trkpt lat="43.77533" lon="6.24342">
        <ele>798</ele>
        <time>2021-09-07T11:49:05.000Z</time>
      </trkpt>
      <trkpt lat="43.77533" lon="6.24342">
        <ele>798.2</ele>
        <time>2021-09-07T11:49:10.000Z</time>
      </trkpt>
      <trkpt lat="43.77533" lon="6.24342">
        <ele>798.1</ele>
        <time>2021-09-07T11:49:15.000Z</time>
      </trkpt>
      <trkpt lat="43.77533" lon="6.24342">
        <ele>798.2</ele>
        <time>2021-09-07T11:49:20.000Z</time>
      </trkpt>
      <trkpt lat="43.77533" lon="6.24342">
        <ele>798.2</ele>
        <time>2021-09-07T11:49:25.000Z</time>
      </trkpt>
      <trkpt lat="43.77532" lon="6.2434">
        <ele>798.2</ele>
        <time>2021-09-07T11:49:30.000Z</time>
      </trkpt>
      <trkpt lat="43.77532" lon="6.2434">
        <ele>798.2</ele>
        <time>2021-09-07T11:49:35.000Z</time>
      </trkpt>
      <trkpt lat="43.77532" lon="6.2434">
        <ele>798.2</ele>
        <time>2021-09-07T11:49:40.000Z</time>
      </trkpt>
      <trkpt lat="43.77532" lon="6.2434">
        <ele>798.2</ele>
        <time>2021-09-07T11:49:45.000Z</time>
      </trkpt>
      <trkpt lat="43.77532" lon="6.2434">
        <ele>798.2</ele>
        <time>2021-09-07T11:49:50.000Z</time>
      </trkpt>
      <trkpt lat="43.77532" lon="6.2434">
        <ele>798</ele>
        <time>2021-09-07T11:49:55.000Z</time>
      </trkpt>
      <trkpt lat="43.77532" lon="6.2434">
        <ele>798</ele>
        <time>2021-09-07T11:50:00.000Z</time>
      </trkpt>
      <trkpt lat="43.77531" lon="6.2434">
        <ele>798</ele>
        <time>2021-09-07T11:50:05.000Z</time>
      </trkpt>
      <trkpt lat="43.77531" lon="6.2434">
        <ele>798.1</ele>
        <time>2021-09-07T11:50:09.000Z</time>
      </trkpt>
      <trkpt lat="43.77531" lon="6.2434">
        <ele>798.1</ele>
        <time>2021-09-07T11:50:11.000Z</time>
      </trkpt>
      <trkpt lat="43.77531" lon="6.2434">
        <ele>797.9</ele>
        <time>2021-09-07T11:50:16.000Z</time>
      </trkpt>
      <trkpt lat="43.77531" lon="6.2434">
        <ele>798.2</ele>
        <time>2021-09-07T11:50:21.000Z</time>
      </trkpt>
      <trkpt lat="43.77531" lon="6.2434">
        <ele>798</ele>
        <time>2021-09-07T11:50:26.000Z</time>
      </trkpt>
      <trkpt lat="43.77531" lon="6.2434">
        <ele>797.9</ele>
        <time>2021-09-07T11:50:31.000Z</time>
      </trkpt>
      <trkpt lat="43.77531" lon="6.2434">
        <ele>798</ele>
        <time>2021-09-07T11:50:36.000Z</time>
      </trkpt>
      <trkpt lat="43.77531" lon="6.2434">
        <ele>798</ele>
        <time>2021-09-07T11:50:38.000Z</time>
      </trkpt>
      <trkpt lat="43.77531" lon="6.24339">
        <ele>797.9</ele>
        <time>2021-09-07T11:50:40.000Z</time>
      </trkpt>
      <trkpt lat="43.77531" lon="6.24339">
        <ele>797.9</ele>
        <time>2021-09-07T11:50:45.000Z</time>
      </trkpt>
      <trkpt lat="43.77531" lon="6.24339">
        <ele>798</ele>
        <time>2021-09-07T11:50:46.000Z</time>
      </trkpt>
      <trkpt lat="43.7753" lon="6.24339">
        <ele>798</ele>
        <time>2021-09-07T11:50:47.000Z</time>
      </trkpt>
      <trkpt lat="43.7753" lon="6.24338">
        <ele>798.1</ele>
        <time>2021-09-07T11:50:48.000Z</time>
      </trkpt>
      <trkpt lat="43.7753" lon="6.24338">
        <ele>798.2</ele>
        <time>2021-09-07T11:50:49.000Z</time>
      </trkpt>
      <trkpt lat="43.7753" lon="6.24338">
        <ele>798</ele>
        <time>2021-09-07T11:50:50.000Z</time>
      </trkpt>
      <trkpt lat="43.7753" lon="6.24338">
        <ele>797.9</ele>
        <time>2021-09-07T11:50:52.000Z</time>
      </trkpt>
      <trkpt lat="43.7753" lon="6.24337">
        <ele>797.9</ele>
        <time>2021-09-07T11:50:57.000Z</time>
      </trkpt>
      <trkpt lat="43.7753" lon="6.24337">
        <ele>797.8</ele>
        <time>2021-09-07T11:50:58.000Z</time>
      </trkpt>
      <trkpt lat="43.7753" lon="6.24337">
        <ele>797.8</ele>
        <time>2021-09-07T11:50:59.000Z</time>
      </trkpt>
      <trkpt lat="43.77529" lon="6.24337">
        <ele>797.8</ele>
        <time>2021-09-07T11:51:00.000Z</time>
      </trkpt>
      <trkpt lat="43.77529" lon="6.24337">
        <ele>798</ele>
        <time>2021-09-07T11:51:02.000Z</time>
      </trkpt>
      <trkpt lat="43.77529" lon="6.24337">
        <ele>798.2</ele>
        <time>2021-09-07T11:51:07.000Z</time>
      </trkpt>
      <trkpt lat="43.77529" lon="6.24337">
        <ele>798</ele>
        <time>2021-09-07T11:51:12.000Z</time>
      </trkpt>
      <trkpt lat="43.77529" lon="6.24338">
        <ele>798.2</ele>
        <time>2021-09-07T11:51:17.000Z</time>
      </trkpt>
      <trkpt lat="43.77529" lon="6.24338">
        <ele>798</ele>
        <time>2021-09-07T11:51:22.000Z</time>
      </trkpt>
      <trkpt lat="43.77529" lon="6.24338">
        <ele>798.1</ele>
        <time>2021-09-07T11:51:27.000Z</time>
      </trkpt>
      <trkpt lat="43.7753" lon="6.24338">
        <ele>798</ele>
        <time>2021-09-07T11:51:32.000Z</time>
      </trkpt>
      <trkpt lat="43.7753" lon="6.24338">
        <ele>797.7</ele>
        <time>2021-09-07T11:51:34.000Z</time>
      </trkpt>
      <trkpt lat="43.7753" lon="6.24338">
        <ele>798.1</ele>
        <time>2021-09-07T11:51:37.000Z</time>
      </trkpt>
      <trkpt lat="43.7753" lon="6.24338">
        <ele>798.2</ele>
        <time>2021-09-07T11:51:38.000Z</time>
      </trkpt>
      <trkpt lat="43.77531" lon="6.24338">
        <ele>798.2</ele>
        <time>2021-09-07T11:51:40.000Z</time>
      </trkpt>
      <trkpt lat="43.77531" lon="6.24338">
        <ele>798</ele>
        <time>2021-09-07T11:51:45.000Z</time>
      </trkpt>
      <trkpt lat="43.77531" lon="6.24339">
        <ele>798.3</ele>
        <time>2021-09-07T11:51:50.000Z</time>
      </trkpt>
      <trkpt lat="43.77532" lon="6.24339">
        <ele>798.1</ele>
        <time>2021-09-07T11:51:55.000Z</time>
      </trkpt>
      <trkpt lat="43.77532" lon="6.24342">
        <ele>798.3</ele>
        <time>2021-09-07T11:52:00.000Z</time>
      </trkpt>
      <trkpt lat="43.77532" lon="6.24343">
        <ele>798.4</ele>
        <time>2021-09-07T11:52:04.000Z</time>
      </trkpt>
      <trkpt lat="43.77532" lon="6.24343">
        <ele>798.1</ele>
        <time>2021-09-07T11:52:09.000Z</time>
      </trkpt>
      <trkpt lat="43.77531" lon="6.24343">
        <ele>798.2</ele>
        <time>2021-09-07T11:52:14.000Z</time>
      </trkpt>
      <trkpt lat="43.77531" lon="6.24343">
        <ele>798.2</ele>
        <time>2021-09-07T11:52:19.000Z</time>
      </trkpt>
      <trkpt lat="43.77531" lon="6.24343">
        <ele>798.2</ele>
        <time>2021-09-07T11:52:22.000Z</time>
      </trkpt>
      <trkpt lat="43.7753" lon="6.24342">
        <ele>798.2</ele>
        <time>2021-09-07T11:52:27.000Z</time>
      </trkpt>
      <trkpt lat="43.7753" lon="6.24342">
        <ele>798.2</ele>
        <time>2021-09-07T11:52:30.000Z</time>
      </trkpt>
      <trkpt lat="43.7753" lon="6.24341">
        <ele>798.3</ele>
        <time>2021-09-07T11:52:31.000Z</time>
      </trkpt>
      <trkpt lat="43.77529" lon="6.24341">
        <ele>798.2</ele>
        <time>2021-09-07T11:52:35.000Z</time>
      </trkpt>
      <trkpt lat="43.77529" lon="6.24341">
        <ele>798.4</ele>
        <time>2021-09-07T11:52:38.000Z</time>
      </trkpt>
      <trkpt lat="43.77529" lon="6.2434">
        <ele>798.5</ele>
        <time>2021-09-07T11:52:41.000Z</time>
      </trkpt>
      <trkpt lat="43.77529" lon="6.2434">
        <ele>798.4</ele>
        <time>2021-09-07T11:52:42.000Z</time>
      </trkpt>
      <trkpt lat="43.77528" lon="6.24339">
        <ele>798.3</ele>
        <time>2021-09-07T11:52:45.000Z</time>
      </trkpt>
      <trkpt lat="43.77528" lon="6.24339">
        <ele>798.5</ele>
        <time>2021-09-07T11:52:50.000Z</time>
      </trkpt>
      <trkpt lat="43.77528" lon="6.24338">
        <ele>798.3</ele>
        <time>2021-09-07T11:52:52.000Z</time>
      </trkpt>
      <trkpt lat="43.77528" lon="6.24338">
        <ele>798.4</ele>
        <time>2021-09-07T11:52:56.000Z</time>
      </trkpt>
      <trkpt lat="43.77528" lon="6.24338">
        <ele>798.4</ele>
        <time>2021-09-07T11:52:57.000Z</time>
      </trkpt>
      <trkpt lat="43.77528" lon="6.24338">
        <ele>798.3</ele>
        <time>2021-09-07T11:53:02.000Z</time>
      </trkpt>
      <trkpt lat="43.77529" lon="6.24338">
        <ele>798.3</ele>
        <time>2021-09-07T11:53:07.000Z</time>
      </trkpt>
      <trkpt lat="43.77529" lon="6.24338">
        <ele>798.2</ele>
        <time>2021-09-07T11:53:12.000Z</time>
      </trkpt>
      <trkpt lat="43.77529" lon="6.24338">
        <ele>798.3</ele>
        <time>2021-09-07T11:53:13.000Z</time>
      </trkpt>
      <trkpt lat="43.77529" lon="6.24339">
        <ele>798.2</ele>
        <time>2021-09-07T11:53:14.000Z</time>
      </trkpt>
      <trkpt lat="43.77529" lon="6.24339">
        <ele>798.2</ele>
        <time>2021-09-07T11:53:16.000Z</time>
      </trkpt>
      <trkpt lat="43.77529" lon="6.24339">
        <ele>798.2</ele>
        <time>2021-09-07T11:53:17.000Z</time>
      </trkpt>
      <trkpt lat="43.7753" lon="6.24339">
        <ele>798.2</ele>
        <time>2021-09-07T11:53:22.000Z</time>
      </trkpt>
      <trkpt lat="43.77529" lon="6.24339">
        <ele>798.3</ele>
        <time>2021-09-07T11:53:23.000Z</time>
      </trkpt>
      <trkpt lat="43.7753" lon="6.24338">
        <ele>798.2</ele>
        <time>2021-09-07T11:53:24.000Z</time>
      </trkpt>
      <trkpt lat="43.7753" lon="6.24338">
        <ele>798.4</ele>
        <time>2021-09-07T11:53:29.000Z</time>
      </trkpt>
      <trkpt lat="43.7753" lon="6.24338">
        <ele>798.3</ele>
        <time>2021-09-07T11:53:33.000Z</time>
      </trkpt>
      <trkpt lat="43.77531" lon="6.24338">
        <ele>798.4</ele>
        <time>2021-09-07T11:53:36.000Z</time>
      </trkpt>
      <trkpt lat="43.77531" lon="6.24338">
        <ele>798.3</ele>
        <time>2021-09-07T11:53:41.000Z</time>
      </trkpt>
      <trkpt lat="43.77531" lon="6.24338">
        <ele>798.1</ele>
        <time>2021-09-07T11:53:46.000Z</time>
      </trkpt>
      <trkpt lat="43.77531" lon="6.24338">
        <ele>798.1</ele>
        <time>2021-09-07T11:53:51.000Z</time>
      </trkpt>
      <trkpt lat="43.77531" lon="6.24338">
        <ele>797.2</ele>
        <time>2021-09-07T11:53:56.000Z</time>
      </trkpt>
      <trkpt lat="43.77532" lon="6.24339">
        <ele>798.2</ele>
        <time>2021-09-07T11:54:01.000Z</time>
      </trkpt>
      <trkpt lat="43.77532" lon="6.24337">
        <ele>798.2</ele>
        <time>2021-09-07T11:54:06.000Z</time>
      </trkpt>
      <trkpt lat="43.77532" lon="6.24336">
        <ele>798.1</ele>
        <time>2021-09-07T11:54:11.000Z</time>
      </trkpt>
      <trkpt lat="43.77527" lon="6.24336">
        <ele>797.9</ele>
        <time>2021-09-07T11:54:16.000Z</time>
      </trkpt>
      <trkpt lat="43.77523" lon="6.24335">
        <ele>797.9</ele>
        <time>2021-09-07T11:54:21.000Z</time>
      </trkpt>
      <trkpt lat="43.77522" lon="6.24326">
        <ele>798.1</ele>
        <time>2021-09-07T11:54:26.000Z</time>
      </trkpt>
      <trkpt lat="43.77522" lon="6.24326">
        <ele>797.6</ele>
        <time>2021-09-07T11:54:29.000Z</time>
      </trkpt>
      <trkpt lat="43.77522" lon="6.24326">
        <ele>797.1</ele>
        <time>2021-09-07T11:54:34.000Z</time>
      </trkpt>
      <trkpt lat="43.77522" lon="6.24326">
        <ele>797.2</ele>
        <time>2021-09-07T11:54:39.000Z</time>
      </trkpt>
      <trkpt lat="43.77522" lon="6.24326">
        <ele>797.2</ele>
        <time>2021-09-07T11:54:43.000Z</time>
      </trkpt>
      <trkpt lat="43.77522" lon="6.24325">
        <ele>797.2</ele>
        <time>2021-09-07T11:54:45.000Z</time>
      </trkpt>
      <trkpt lat="43.77523" lon="6.24325">
        <ele>797.3</ele>
        <time>2021-09-07T11:54:47.000Z</time>
      </trkpt>
      <trkpt lat="43.77523" lon="6.24325">
        <ele>797.3</ele>
        <time>2021-09-07T11:54:49.000Z</time>
      </trkpt>
      <trkpt lat="43.77523" lon="6.24324">
        <ele>797.3</ele>
        <time>2021-09-07T11:54:52.000Z</time>
      </trkpt>
      <trkpt lat="43.77523" lon="6.24324">
        <ele>797.3</ele>
        <time>2021-09-07T11:54:55.000Z</time>
      </trkpt>
      <trkpt lat="43.77523" lon="6.24323">
        <ele>797.5</ele>
        <time>2021-09-07T11:54:58.000Z</time>
      </trkpt>
      <trkpt lat="43.77523" lon="6.24322">
        <ele>797.4</ele>
        <time>2021-09-07T11:55:03.000Z</time>
      </trkpt>
      <trkpt lat="43.77523" lon="6.24321">
        <ele>797.5</ele>
        <time>2021-09-07T11:55:08.000Z</time>
      </trkpt>
      <trkpt lat="43.77524" lon="6.24321">
        <ele>797.5</ele>
        <time>2021-09-07T11:55:11.000Z</time>
      </trkpt>
      <trkpt lat="43.77524" lon="6.2432">
        <ele>797.6</ele>
        <time>2021-09-07T11:55:15.000Z</time>
      </trkpt>
      <trkpt lat="43.77524" lon="6.24319">
        <ele>797.6</ele>
        <time>2021-09-07T11:55:19.000Z</time>
      </trkpt>
      <trkpt lat="43.77524" lon="6.24319">
        <ele>797.4</ele>
        <time>2021-09-07T11:55:22.000Z</time>
      </trkpt>
      <trkpt lat="43.77525" lon="6.24321">
        <ele>798.3</ele>
        <time>2021-09-07T11:55:25.000Z</time>
      </trkpt>
      <trkpt lat="43.77524" lon="6.24321">
        <ele>798.9</ele>
        <time>2021-09-07T11:55:26.000Z</time>
      </trkpt>
      <trkpt lat="43.77523" lon="6.24322">
        <ele>798.6</ele>
        <time>2021-09-07T11:55:31.000Z</time>
      </trkpt>
      <trkpt lat="43.77523" lon="6.24322">
        <ele>798.6</ele>
        <time>2021-09-07T11:55:32.000Z</time>
      </trkpt>
      <trkpt lat="43.77523" lon="6.24322">
        <ele>799.1</ele>
        <time>2021-09-07T11:55:36.000Z</time>
      </trkpt>
      <trkpt lat="43.77523" lon="6.24322">
        <ele>798.9</ele>
        <time>2021-09-07T11:55:37.000Z</time>
      </trkpt>
      <trkpt lat="43.77523" lon="6.24322">
        <ele>798.7</ele>
        <time>2021-09-07T11:55:42.000Z</time>
      </trkpt>
      <trkpt lat="43.77523" lon="6.24321">
        <ele>798.8</ele>
        <time>2021-09-07T11:55:46.000Z</time>
      </trkpt>
      <trkpt lat="43.77524" lon="6.2432">
        <ele>798.5</ele>
        <time>2021-09-07T11:55:50.000Z</time>
      </trkpt>
      <trkpt lat="43.77524" lon="6.2432">
        <ele>798.9</ele>
        <time>2021-09-07T11:55:55.000Z</time>
      </trkpt>
      <trkpt lat="43.77524" lon="6.24321">
        <ele>798.3</ele>
        <time>2021-09-07T11:55:59.000Z</time>
      </trkpt>
      <trkpt lat="43.77524" lon="6.24321">
        <ele>799.4</ele>
        <time>2021-09-07T11:56:00.000Z</time>
      </trkpt>
      <trkpt lat="43.77524" lon="6.24321">
        <ele>798.7</ele>
        <time>2021-09-07T11:56:05.000Z</time>
      </trkpt>
      <trkpt lat="43.77524" lon="6.24322">
        <ele>798.5</ele>
        <time>2021-09-07T11:56:10.000Z</time>
      </trkpt>
      <trkpt lat="43.77525" lon="6.24322">
        <ele>798.5</ele>
        <time>2021-09-07T11:56:16.000Z</time>
      </trkpt>
      <trkpt lat="43.77524" lon="6.24322">
        <ele>798.4</ele>
        <time>2021-09-07T11:56:21.000Z</time>
      </trkpt>
      <trkpt lat="43.77524" lon="6.24322">
        <ele>798.6</ele>
        <time>2021-09-07T11:56:23.000Z</time>
      </trkpt>
      <trkpt lat="43.77525" lon="6.24323">
        <ele>798.6</ele>
        <time>2021-09-07T11:56:24.000Z</time>
      </trkpt>
      <trkpt lat="43.77525" lon="6.24323">
        <ele>798.9</ele>
        <time>2021-09-07T11:56:29.000Z</time>
      </trkpt>
      <trkpt lat="43.77525" lon="6.24323">
        <ele>798.9</ele>
        <time>2021-09-07T11:56:34.000Z</time>
      </trkpt>
      <trkpt lat="43.77525" lon="6.24324">
        <ele>798.8</ele>
        <time>2021-09-07T11:56:39.000Z</time>
      </trkpt>
      <trkpt lat="43.77524" lon="6.24323">
        <ele>798.6</ele>
        <time>2021-09-07T11:56:43.000Z</time>
      </trkpt>
      <trkpt lat="43.77524" lon="6.24323">
        <ele>798.6</ele>
        <time>2021-09-07T11:56:44.000Z</time>
      </trkpt>
      <trkpt lat="43.77524" lon="6.24324">
        <ele>798.7</ele>
        <time>2021-09-07T11:56:49.000Z</time>
      </trkpt>
      <trkpt lat="43.77524" lon="6.24324">
        <ele>798.7</ele>
        <time>2021-09-07T11:56:50.000Z</time>
      </trkpt>
      <trkpt lat="43.77524" lon="6.24324">
        <ele>798.7</ele>
        <time>2021-09-07T11:56:52.000Z</time>
      </trkpt>
      <trkpt lat="43.77523" lon="6.24324">
        <ele>798.7</ele>
        <time>2021-09-07T11:56:57.000Z</time>
      </trkpt>
      <trkpt lat="43.77521" lon="6.2432">
        <ele>799</ele>
        <time>2021-09-07T11:57:02.000Z</time>
      </trkpt>
      <trkpt lat="43.77521" lon="6.24314">
        <ele>799.2</ele>
        <time>2021-09-07T11:57:07.000Z</time>
      </trkpt>
      <trkpt lat="43.77517" lon="6.2431">
        <ele>799.1</ele>
        <time>2021-09-07T11:57:12.000Z</time>
      </trkpt>
      <trkpt lat="43.77517" lon="6.24314">
        <ele>799.1</ele>
        <time>2021-09-07T11:57:17.000Z</time>
      </trkpt>
      <trkpt lat="43.77516" lon="6.2432">
        <ele>798.2</ele>
        <time>2021-09-07T11:57:22.000Z</time>
      </trkpt>
      <trkpt lat="43.77513" lon="6.24322">
        <ele>798.5</ele>
        <time>2021-09-07T11:57:27.000Z</time>
      </trkpt>
      <trkpt lat="43.77511" lon="6.24322">
        <ele>798.7</ele>
        <time>2021-09-07T11:57:32.000Z</time>
      </trkpt>
      <trkpt lat="43.77511" lon="6.24322">
        <ele>798.7</ele>
        <time>2021-09-07T11:57:33.000Z</time>
      </trkpt>
      <trkpt lat="43.7751" lon="6.24322">
        <ele>798.6</ele>
        <time>2021-09-07T11:57:37.000Z</time>
      </trkpt>
      <trkpt lat="43.7751" lon="6.24322">
        <ele>798.7</ele>
        <time>2021-09-07T11:57:39.000Z</time>
      </trkpt>
      <trkpt lat="43.7751" lon="6.24322">
        <ele>798.5</ele>
        <time>2021-09-07T11:57:40.000Z</time>
      </trkpt>
      <trkpt lat="43.77502" lon="6.24323">
        <ele>798.2</ele>
        <time>2021-09-07T11:57:45.000Z</time>
      </trkpt>
      <trkpt lat="43.77503" lon="6.24322">
        <ele>798.2</ele>
        <time>2021-09-07T11:57:46.000Z</time>
      </trkpt>
      <trkpt lat="43.775" lon="6.24322">
        <ele>798.2</ele>
        <time>2021-09-07T11:57:47.000Z</time>
      </trkpt>
      <trkpt lat="43.77502" lon="6.24322">
        <ele>798.2</ele>
        <time>2021-09-07T11:57:48.000Z</time>
      </trkpt>
      <trkpt lat="43.77498" lon="6.24322">
        <ele>798</ele>
        <time>2021-09-07T11:57:49.000Z</time>
      </trkpt>
      <trkpt lat="43.77475" lon="6.24316">
        <ele>797.4</ele>
        <time>2021-09-07T11:57:53.000Z</time>
      </trkpt>
      <trkpt lat="43.77478" lon="6.24317">
        <ele>797.4</ele>
        <time>2021-09-07T11:57:54.000Z</time>
      </trkpt>
      <trkpt lat="43.77471" lon="6.24315">
        <ele>797.3</ele>
        <time>2021-09-07T11:57:55.000Z</time>
      </trkpt>
      <trkpt lat="43.77466" lon="6.24314">
        <ele>796.8</ele>
        <time>2021-09-07T11:57:55.000Z</time>
      </trkpt>
      <trkpt lat="43.77461" lon="6.24313">
        <ele>796.7</ele>
        <time>2021-09-07T11:57:56.000Z</time>
      </trkpt>
      <trkpt lat="43.77455" lon="6.24312">
        <ele>796.7</ele>
        <time>2021-09-07T11:57:57.000Z</time>
      </trkpt>
      <trkpt lat="43.77463" lon="6.24314">
        <ele>796.6</ele>
        <time>2021-09-07T11:57:57.000Z</time>
      </trkpt>
      <trkpt lat="43.77457" lon="6.24312">
        <ele>796.8</ele>
        <time>2021-09-07T11:57:58.000Z</time>
      </trkpt>
      <trkpt lat="43.77451" lon="6.24311">
        <ele>796.6</ele>
        <time>2021-09-07T11:57:59.000Z</time>
      </trkpt>
      <trkpt lat="43.77437" lon="6.2431">
        <ele>796.7</ele>
        <time>2021-09-07T11:58:01.000Z</time>
      </trkpt>
      <trkpt lat="43.77433" lon="6.24309">
        <ele>796.6</ele>
        <time>2021-09-07T11:58:02.000Z</time>
      </trkpt>
      <trkpt lat="43.77429" lon="6.24308">
        <ele>796.5</ele>
        <time>2021-09-07T11:58:03.000Z</time>
      </trkpt>
      <trkpt lat="43.77434" lon="6.24309">
        <ele>796.7</ele>
        <time>2021-09-07T11:58:03.000Z</time>
      </trkpt>
      <trkpt lat="43.77431" lon="6.24309">
        <ele>796.6</ele>
        <time>2021-09-07T11:58:04.000Z</time>
      </trkpt>
      <trkpt lat="43.77425" lon="6.24308">
        <ele>796.6</ele>
        <time>2021-09-07T11:58:05.000Z</time>
      </trkpt>
      <trkpt lat="43.77421" lon="6.24306">
        <ele>796.7</ele>
        <time>2021-09-07T11:58:05.000Z</time>
      </trkpt>
      <trkpt lat="43.77417" lon="6.24305">
        <ele>796.6</ele>
        <time>2021-09-07T11:58:06.000Z</time>
      </trkpt>
      <trkpt lat="43.77413" lon="6.24304">
        <ele>796.8</ele>
        <time>2021-09-07T11:58:07.000Z</time>
      </trkpt>
      <trkpt lat="43.77409" lon="6.24303">
        <ele>796.8</ele>
        <time>2021-09-07T11:58:08.000Z</time>
      </trkpt>
      <trkpt lat="43.77405" lon="6.24302">
        <ele>796.9</ele>
        <time>2021-09-07T11:58:09.000Z</time>
      </trkpt>
      <trkpt lat="43.77401" lon="6.24301">
        <ele>797.1</ele>
        <time>2021-09-07T11:58:10.000Z</time>
      </trkpt>
      <trkpt lat="43.77397" lon="6.243">
        <ele>797.4</ele>
        <time>2021-09-07T11:58:11.000Z</time>
      </trkpt>
      <trkpt lat="43.77403" lon="6.24301">
        <ele>797.1</ele>
        <time>2021-09-07T11:58:11.000Z</time>
      </trkpt>
      <trkpt lat="43.77394" lon="6.24299">
        <ele>797.5</ele>
        <time>2021-09-07T11:58:12.000Z</time>
      </trkpt>
      <trkpt lat="43.77399" lon="6.243">
        <ele>797.2</ele>
        <time>2021-09-07T11:58:12.000Z</time>
      </trkpt>
      <trkpt lat="43.77391" lon="6.24298">
        <ele>797.6</ele>
        <time>2021-09-07T11:58:13.000Z</time>
      </trkpt>
      <trkpt lat="43.77396" lon="6.24299">
        <ele>797.5</ele>
        <time>2021-09-07T11:58:13.000Z</time>
      </trkpt>
      <trkpt lat="43.77392" lon="6.24299">
        <ele>797.6</ele>
        <time>2021-09-07T11:58:14.000Z</time>
      </trkpt>
      <trkpt lat="43.77388" lon="6.24298">
        <ele>797.5</ele>
        <time>2021-09-07T11:58:15.000Z</time>
      </trkpt>
      <trkpt lat="43.7738" lon="6.24298">
        <ele>797.8</ele>
        <time>2021-09-07T11:58:16.000Z</time>
      </trkpt>
      <trkpt lat="43.77378" lon="6.24297">
        <ele>797.8</ele>
        <time>2021-09-07T11:58:18.000Z</time>
      </trkpt>
      <trkpt lat="43.77372" lon="6.24296">
        <ele>798.4</ele>
        <time>2021-09-07T11:58:20.000Z</time>
      </trkpt>
      <trkpt lat="43.77371" lon="6.24296">
        <ele>798.4</ele>
        <time>2021-09-07T11:58:22.000Z</time>
      </trkpt>
      <trkpt lat="43.77368" lon="6.24295">
        <ele>798.4</ele>
        <time>2021-09-07T11:58:22.000Z</time>
      </trkpt>
      <trkpt lat="43.77367" lon="6.24295">
        <ele>798.5</ele>
        <time>2021-09-07T11:58:24.000Z</time>
      </trkpt>
      <trkpt lat="43.77364" lon="6.24294">
        <ele>798.7</ele>
        <time>2021-09-07T11:58:25.000Z</time>
      </trkpt>
      <trkpt lat="43.77361" lon="6.24293">
        <ele>798.9</ele>
        <time>2021-09-07T11:58:25.000Z</time>
      </trkpt>
      <trkpt lat="43.77359" lon="6.24292">
        <ele>799</ele>
        <time>2021-09-07T11:58:26.000Z</time>
      </trkpt>
      <trkpt lat="43.77356" lon="6.24293">
        <ele>799.2</ele>
        <time>2021-09-07T11:58:27.000Z</time>
      </trkpt>
      <trkpt lat="43.77354" lon="6.24293">
        <ele>799.5</ele>
        <time>2021-09-07T11:58:28.000Z</time>
      </trkpt>
      <trkpt lat="43.77351" lon="6.24293">
        <ele>799.4</ele>
        <time>2021-09-07T11:58:29.000Z</time>
      </trkpt>
      <trkpt lat="43.77355" lon="6.24293">
        <ele>799.3</ele>
        <time>2021-09-07T11:58:29.000Z</time>
      </trkpt>
      <trkpt lat="43.77349" lon="6.24293">
        <ele>799.6</ele>
        <time>2021-09-07T11:58:30.000Z</time>
      </trkpt>
      <trkpt lat="43.77352" lon="6.24293">
        <ele>799.4</ele>
        <time>2021-09-07T11:58:30.000Z</time>
      </trkpt>
      <trkpt lat="43.7735" lon="6.24293">
        <ele>799.5</ele>
        <time>2021-09-07T11:58:31.000Z</time>
      </trkpt>
      <trkpt lat="43.77346" lon="6.24294">
        <ele>799.7</ele>
        <time>2021-09-07T11:58:31.000Z</time>
      </trkpt>
      <trkpt lat="43.77339" lon="6.24297">
        <ele>799.7</ele>
        <time>2021-09-07T11:58:34.000Z</time>
      </trkpt>
      <trkpt lat="43.77337" lon="6.24298">
        <ele>800</ele>
        <time>2021-09-07T11:58:35.000Z</time>
      </trkpt>
      <trkpt lat="43.77338" lon="6.24297">
        <ele>799.7</ele>
        <time>2021-09-07T11:58:36.000Z</time>
      </trkpt>
      <trkpt lat="43.77335" lon="6.24299">
        <ele>800</ele>
        <time>2021-09-07T11:58:37.000Z</time>
      </trkpt>
      <trkpt lat="43.77331" lon="6.24299">
        <ele>800</ele>
        <time>2021-09-07T11:58:38.000Z</time>
      </trkpt>
      <trkpt lat="43.77328" lon="6.24299">
        <ele>799.9</ele>
        <time>2021-09-07T11:58:39.000Z</time>
      </trkpt>
      <trkpt lat="43.77329" lon="6.24299">
        <ele>800</ele>
        <time>2021-09-07T11:58:40.000Z</time>
      </trkpt>
      <trkpt lat="43.77326" lon="6.24299">
        <ele>800.1</ele>
        <time>2021-09-07T11:58:41.000Z</time>
      </trkpt>
      <trkpt lat="43.7732" lon="6.24303">
        <ele>800.1</ele>
        <time>2021-09-07T11:58:43.000Z</time>
      </trkpt>
      <trkpt lat="43.77317" lon="6.24305">
        <ele>800.2</ele>
        <time>2021-09-07T11:58:44.000Z</time>
      </trkpt>
      <trkpt lat="43.77318" lon="6.24304">
        <ele>800.2</ele>
        <time>2021-09-07T11:58:45.000Z</time>
      </trkpt>
      <trkpt lat="43.77315" lon="6.24305">
        <ele>800</ele>
        <time>2021-09-07T11:58:45.000Z</time>
      </trkpt>
      <trkpt lat="43.77312" lon="6.24305">
        <ele>800.3</ele>
        <time>2021-09-07T11:58:46.000Z</time>
      </trkpt>
      <trkpt lat="43.7731" lon="6.24306">
        <ele>800.4</ele>
        <time>2021-09-07T11:58:48.000Z</time>
      </trkpt>
      <trkpt lat="43.77305" lon="6.24307">
        <ele>800.5</ele>
        <time>2021-09-07T11:58:49.000Z</time>
      </trkpt>
      <trkpt lat="43.77303" lon="6.24307">
        <ele>800.8</ele>
        <time>2021-09-07T11:58:50.000Z</time>
      </trkpt>
      <trkpt lat="43.77304" lon="6.24307">
        <ele>800.6</ele>
        <time>2021-09-07T11:58:51.000Z</time>
      </trkpt>
      <trkpt lat="43.77301" lon="6.24308">
        <ele>800.9</ele>
        <time>2021-09-07T11:58:51.000Z</time>
      </trkpt>
      <trkpt lat="43.77296" lon="6.24311">
        <ele>801.4</ele>
        <time>2021-09-07T11:58:53.000Z</time>
      </trkpt>
      <trkpt lat="43.77294" lon="6.24311">
        <ele>801.6</ele>
        <time>2021-09-07T11:58:55.000Z</time>
      </trkpt>
      <trkpt lat="43.77288" lon="6.24309">
        <ele>801.4</ele>
        <time>2021-09-07T11:58:56.000Z</time>
      </trkpt>
      <trkpt lat="43.77287" lon="6.24306">
        <ele>801.6</ele>
        <time>2021-09-07T11:58:57.000Z</time>
      </trkpt>
      <trkpt lat="43.77288" lon="6.24302">
        <ele>801.4</ele>
        <time>2021-09-07T11:58:58.000Z</time>
      </trkpt>
      <trkpt lat="43.77287" lon="6.24307">
        <ele>801.5</ele>
        <time>2021-09-07T11:58:58.000Z</time>
      </trkpt>
      <trkpt lat="43.77288" lon="6.24303">
        <ele>801.7</ele>
        <time>2021-09-07T11:58:59.000Z</time>
      </trkpt>
      <trkpt lat="43.77289" lon="6.24301">
        <ele>801.4</ele>
        <time>2021-09-07T11:59:00.000Z</time>
      </trkpt>
      <trkpt lat="43.77291" lon="6.243">
        <ele>801.2</ele>
        <time>2021-09-07T11:59:00.000Z</time>
      </trkpt>
      <trkpt lat="43.77291" lon="6.24299">
        <ele>801.2</ele>
        <time>2021-09-07T11:59:01.000Z</time>
      </trkpt>
      <trkpt lat="43.7729" lon="6.243">
        <ele>801.3</ele>
        <time>2021-09-07T11:59:04.000Z</time>
      </trkpt>
      <trkpt lat="43.7729" lon="6.24299">
        <ele>801</ele>
        <time>2021-09-07T11:59:06.000Z</time>
      </trkpt>
      <trkpt lat="43.77289" lon="6.24297">
        <ele>800.5</ele>
        <time>2021-09-07T11:59:11.000Z</time>
      </trkpt>
      <trkpt lat="43.77288" lon="6.24297">
        <ele>800.3</ele>
        <time>2021-09-07T11:59:16.000Z</time>
      </trkpt>
      <trkpt lat="43.77286" lon="6.24296">
        <ele>800.3</ele>
        <time>2021-09-07T11:59:21.000Z</time>
      </trkpt>
      <trkpt lat="43.77284" lon="6.24295">
        <ele>800.5</ele>
        <time>2021-09-07T11:59:26.000Z</time>
      </trkpt>
      <trkpt lat="43.77284" lon="6.24292">
        <ele>800.4</ele>
        <time>2021-09-07T11:59:31.000Z</time>
      </trkpt>
      <trkpt lat="43.77284" lon="6.24292">
        <ele>800.3</ele>
        <time>2021-09-07T11:59:33.000Z</time>
      </trkpt>
      <trkpt lat="43.77284" lon="6.24292">
        <ele>800.3</ele>
        <time>2021-09-07T11:59:34.000Z</time>
      </trkpt>
      <trkpt lat="43.77284" lon="6.24291">
        <ele>800.4</ele>
        <time>2021-09-07T11:59:36.000Z</time>
      </trkpt>
      <trkpt lat="43.77284" lon="6.2429">
        <ele>800.3</ele>
        <time>2021-09-07T11:59:40.000Z</time>
      </trkpt>
      <trkpt lat="43.77284" lon="6.2429">
        <ele>800.1</ele>
        <time>2021-09-07T11:59:45.000Z</time>
      </trkpt>
      <trkpt lat="43.77284" lon="6.2429">
        <ele>800.3</ele>
        <time>2021-09-07T11:59:47.000Z</time>
      </trkpt>
      <trkpt lat="43.77283" lon="6.24291">
        <ele>800.9</ele>
        <time>2021-09-07T11:59:50.000Z</time>
      </trkpt>
      <trkpt lat="43.77283" lon="6.24291">
        <ele>801</ele>
        <time>2021-09-07T11:59:55.000Z</time>
      </trkpt>
      <trkpt lat="43.77283" lon="6.24291">
        <ele>800.7</ele>
        <time>2021-09-07T12:00:00.000Z</time>
      </trkpt>
      <trkpt lat="43.77283" lon="6.24291">
        <ele>800.7</ele>
        <time>2021-09-07T12:00:05.000Z</time>
      </trkpt>
      <trkpt lat="43.77283" lon="6.24292">
        <ele>800.4</ele>
        <time>2021-09-07T12:00:10.000Z</time>
      </trkpt>
      <trkpt lat="43.7728" lon="6.24299">
        <ele>800.7</ele>
        <time>2021-09-07T12:00:15.000Z</time>
      </trkpt>
      <trkpt lat="43.77281" lon="6.24302">
        <ele>800.6</ele>
        <time>2021-09-07T12:00:18.000Z</time>
      </trkpt>
      <trkpt lat="43.77281" lon="6.24303">
        <ele>800.8</ele>
        <time>2021-09-07T12:00:19.000Z</time>
      </trkpt>
      <trkpt lat="43.77281" lon="6.24304">
        <ele>801</ele>
        <time>2021-09-07T12:00:20.000Z</time>
      </trkpt>
      <trkpt lat="43.77282" lon="6.24304">
        <ele>801.1</ele>
        <time>2021-09-07T12:00:21.000Z</time>
      </trkpt>
      <trkpt lat="43.77282" lon="6.24307">
        <ele>801.1</ele>
        <time>2021-09-07T12:00:26.000Z</time>
      </trkpt>
      <trkpt lat="43.77283" lon="6.24305">
        <ele>801.1</ele>
        <time>2021-09-07T12:00:29.000Z</time>
      </trkpt>
      <trkpt lat="43.77282" lon="6.24305">
        <ele>801.3</ele>
        <time>2021-09-07T12:00:31.000Z</time>
      </trkpt>
      <trkpt lat="43.77283" lon="6.24305">
        <ele>801.3</ele>
        <time>2021-09-07T12:00:32.000Z</time>
      </trkpt>
      <trkpt lat="43.77282" lon="6.24305">
        <ele>801.4</ele>
        <time>2021-09-07T12:00:32.000Z</time>
      </trkpt>
      <trkpt lat="43.77277" lon="6.24308">
        <ele>801.8</ele>
        <time>2021-09-07T12:00:35.000Z</time>
      </trkpt>
      <trkpt lat="43.77275" lon="6.24309">
        <ele>801.8</ele>
        <time>2021-09-07T12:00:36.000Z</time>
      </trkpt>
      <trkpt lat="43.77276" lon="6.24309">
        <ele>801.8</ele>
        <time>2021-09-07T12:00:37.000Z</time>
      </trkpt>
      <trkpt lat="43.77274" lon="6.2431">
        <ele>801.8</ele>
        <time>2021-09-07T12:00:38.000Z</time>
      </trkpt>
      <trkpt lat="43.77265" lon="6.24315">
        <ele>802.3</ele>
        <time>2021-09-07T12:00:41.000Z</time>
      </trkpt>
      <trkpt lat="43.77263" lon="6.24316">
        <ele>802.3</ele>
        <time>2021-09-07T12:00:43.000Z</time>
      </trkpt>
      <trkpt lat="43.77261" lon="6.24318">
        <ele>802.2</ele>
        <time>2021-09-07T12:00:43.000Z</time>
      </trkpt>
      <trkpt lat="43.77258" lon="6.2432">
        <ele>802.2</ele>
        <time>2021-09-07T12:00:44.000Z</time>
      </trkpt>
      <trkpt lat="43.77259" lon="6.24319">
        <ele>802.2</ele>
        <time>2021-09-07T12:00:45.000Z</time>
      </trkpt>
      <trkpt lat="43.77257" lon="6.24321">
        <ele>802.4</ele>
        <time>2021-09-07T12:00:46.000Z</time>
      </trkpt>
      <trkpt lat="43.77252" lon="6.24326">
        <ele>803</ele>
        <time>2021-09-07T12:00:47.000Z</time>
      </trkpt>
      <trkpt lat="43.7725" lon="6.24328">
        <ele>803</ele>
        <time>2021-09-07T12:00:48.000Z</time>
      </trkpt>
      <trkpt lat="43.77243" lon="6.24336">
        <ele>803.4</ele>
        <time>2021-09-07T12:00:53.000Z</time>
      </trkpt>
      <trkpt lat="43.7724" lon="6.24338">
        <ele>803.6</ele>
        <time>2021-09-07T12:00:53.000Z</time>
      </trkpt>
      <trkpt lat="43.77239" lon="6.2434">
        <ele>803.8</ele>
        <time>2021-09-07T12:00:55.000Z</time>
      </trkpt>
      <trkpt lat="43.77236" lon="6.2434">
        <ele>804.4</ele>
        <time>2021-09-07T12:00:55.000Z</time>
      </trkpt>
      <trkpt lat="43.77235" lon="6.24341">
        <ele>804.4</ele>
        <time>2021-09-07T12:00:56.000Z</time>
      </trkpt>
      <trkpt lat="43.77233" lon="6.24342">
        <ele>804.3</ele>
        <time>2021-09-07T12:00:57.000Z</time>
      </trkpt>
      <trkpt lat="43.77235" lon="6.2434">
        <ele>804.4</ele>
        <time>2021-09-07T12:00:57.000Z</time>
      </trkpt>
      <trkpt lat="43.77231" lon="6.24344">
        <ele>804.5</ele>
        <time>2021-09-07T12:00:58.000Z</time>
      </trkpt>
      <trkpt lat="43.77234" lon="6.24342">
        <ele>804.3</ele>
        <time>2021-09-07T12:00:58.000Z</time>
      </trkpt>
      <trkpt lat="43.77232" lon="6.24343">
        <ele>804.5</ele>
        <time>2021-09-07T12:00:59.000Z</time>
      </trkpt>
      <trkpt lat="43.7723" lon="6.24345">
        <ele>804.8</ele>
        <time>2021-09-07T12:01:00.000Z</time>
      </trkpt>
      <trkpt lat="43.77228" lon="6.24347">
        <ele>804.9</ele>
        <time>2021-09-07T12:01:00.000Z</time>
      </trkpt>
      <trkpt lat="43.77227" lon="6.24347">
        <ele>805.1</ele>
        <time>2021-09-07T12:01:02.000Z</time>
      </trkpt>
      <trkpt lat="43.77221" lon="6.24352">
        <ele>805.5</ele>
        <time>2021-09-07T12:01:04.000Z</time>
      </trkpt>
      <trkpt lat="43.7722" lon="6.24353">
        <ele>805.5</ele>
        <time>2021-09-07T12:01:05.000Z</time>
      </trkpt>
      <trkpt lat="43.7722" lon="6.24352">
        <ele>805.5</ele>
        <time>2021-09-07T12:01:06.000Z</time>
      </trkpt>
      <trkpt lat="43.77219" lon="6.24353">
        <ele>805.6</ele>
        <time>2021-09-07T12:01:07.000Z</time>
      </trkpt>
      <trkpt lat="43.77215" lon="6.24355">
        <ele>806.1</ele>
        <time>2021-09-07T12:01:08.000Z</time>
      </trkpt>
      <trkpt lat="43.77214" lon="6.24357">
        <ele>806.3</ele>
        <time>2021-09-07T12:01:09.000Z</time>
      </trkpt>
      <trkpt lat="43.77209" lon="6.24362">
        <ele>806.6</ele>
        <time>2021-09-07T12:01:14.000Z</time>
      </trkpt>
      <trkpt lat="43.77208" lon="6.24364">
        <ele>806.5</ele>
        <time>2021-09-07T12:01:14.000Z</time>
      </trkpt>
      <trkpt lat="43.77207" lon="6.24366">
        <ele>806.5</ele>
        <time>2021-09-07T12:01:16.000Z</time>
      </trkpt>
      <trkpt lat="43.77205" lon="6.24372">
        <ele>807</ele>
        <time>2021-09-07T12:01:18.000Z</time>
      </trkpt>
      <trkpt lat="43.77205" lon="6.24373">
        <ele>807</ele>
        <time>2021-09-07T12:01:19.000Z</time>
      </trkpt>
      <trkpt lat="43.77205" lon="6.24373">
        <ele>807</ele>
        <time>2021-09-07T12:01:20.000Z</time>
      </trkpt>
      <trkpt lat="43.77205" lon="6.24375">
        <ele>807.3</ele>
        <time>2021-09-07T12:01:21.000Z</time>
      </trkpt>
      <trkpt lat="43.77209" lon="6.24379">
        <ele>807.8</ele>
        <time>2021-09-07T12:01:24.000Z</time>
      </trkpt>
      <trkpt lat="43.77209" lon="6.24379">
        <ele>807.7</ele>
        <time>2021-09-07T12:01:25.000Z</time>
      </trkpt>
      <trkpt lat="43.77211" lon="6.2438">
        <ele>808</ele>
        <time>2021-09-07T12:01:26.000Z</time>
      </trkpt>
      <trkpt lat="43.77211" lon="6.2438">
        <ele>808.2</ele>
        <time>2021-09-07T12:01:28.000Z</time>
      </trkpt>
      <trkpt lat="43.77215" lon="6.2438">
        <ele>808.3</ele>
        <time>2021-09-07T12:01:28.000Z</time>
      </trkpt>
      <trkpt lat="43.77217" lon="6.24381">
        <ele>808.4</ele>
        <time>2021-09-07T12:01:29.000Z</time>
      </trkpt>
      <trkpt lat="43.77218" lon="6.2438">
        <ele>808.5</ele>
        <time>2021-09-07T12:01:30.000Z</time>
      </trkpt>
      <trkpt lat="43.77216" lon="6.24381">
        <ele>808.3</ele>
        <time>2021-09-07T12:01:30.000Z</time>
      </trkpt>
      <trkpt lat="43.77218" lon="6.2438">
        <ele>808.5</ele>
        <time>2021-09-07T12:01:31.000Z</time>
      </trkpt>
      <trkpt lat="43.7722" lon="6.2438">
        <ele>808.4</ele>
        <time>2021-09-07T12:01:32.000Z</time>
      </trkpt>
      <trkpt lat="43.77226" lon="6.24378">
        <ele>809</ele>
        <time>2021-09-07T12:01:34.000Z</time>
      </trkpt>
      <trkpt lat="43.77228" lon="6.24378">
        <ele>809.2</ele>
        <time>2021-09-07T12:01:35.000Z</time>
      </trkpt>
      <trkpt lat="43.77227" lon="6.24378">
        <ele>809.1</ele>
        <time>2021-09-07T12:01:36.000Z</time>
      </trkpt>
      <trkpt lat="43.7723" lon="6.24377">
        <ele>809.2</ele>
        <time>2021-09-07T12:01:37.000Z</time>
      </trkpt>
      <trkpt lat="43.77239" lon="6.24372">
        <ele>810</ele>
        <time>2021-09-07T12:01:40.000Z</time>
      </trkpt>
      <trkpt lat="43.77241" lon="6.2437">
        <ele>809.8</ele>
        <time>2021-09-07T12:01:41.000Z</time>
      </trkpt>
      <trkpt lat="43.7724" lon="6.24371">
        <ele>809.9</ele>
        <time>2021-09-07T12:01:42.000Z</time>
      </trkpt>
      <trkpt lat="43.77243" lon="6.2437">
        <ele>809.8</ele>
        <time>2021-09-07T12:01:43.000Z</time>
      </trkpt>
      <trkpt lat="43.77245" lon="6.24369">
        <ele>810.2</ele>
        <time>2021-09-07T12:01:43.000Z</time>
      </trkpt>
      <trkpt lat="43.77247" lon="6.24369">
        <ele>810.3</ele>
        <time>2021-09-07T12:01:45.000Z</time>
      </trkpt>
      <trkpt lat="43.77252" lon="6.24368">
        <ele>810.6</ele>
        <time>2021-09-07T12:01:46.000Z</time>
      </trkpt>
      <trkpt lat="43.77254" lon="6.24368">
        <ele>810.7</ele>
        <time>2021-09-07T12:01:48.000Z</time>
      </trkpt>
      <trkpt lat="43.7726" lon="6.2437">
        <ele>811.3</ele>
        <time>2021-09-07T12:01:50.000Z</time>
      </trkpt>
      <trkpt lat="43.77261" lon="6.24371">
        <ele>811.3</ele>
        <time>2021-09-07T12:01:52.000Z</time>
      </trkpt>
      <trkpt lat="43.77267" lon="6.24375">
        <ele>811.4</ele>
        <time>2021-09-07T12:01:53.000Z</time>
      </trkpt>
      <trkpt lat="43.77269" lon="6.24377">
        <ele>811.4</ele>
        <time>2021-09-07T12:01:55.000Z</time>
      </trkpt>
      <trkpt lat="43.77273" lon="6.24381">
        <ele>811.5</ele>
        <time>2021-09-07T12:01:56.000Z</time>
      </trkpt>
      <trkpt lat="43.77273" lon="6.24382">
        <ele>811.7</ele>
        <time>2021-09-07T12:01:58.000Z</time>
      </trkpt>
      <trkpt lat="43.7728" lon="6.24387">
        <ele>812.2</ele>
        <time>2021-09-07T12:01:59.000Z</time>
      </trkpt>
      <trkpt lat="43.77282" lon="6.24389">
        <ele>812.3</ele>
        <time>2021-09-07T12:02:00.000Z</time>
      </trkpt>
      <trkpt lat="43.77289" lon="6.24394">
        <ele>812.8</ele>
        <time>2021-09-07T12:02:03.000Z</time>
      </trkpt>
      <trkpt lat="43.77292" lon="6.24395">
        <ele>812.9</ele>
        <time>2021-09-07T12:02:04.000Z</time>
      </trkpt>
      <trkpt lat="43.77294" lon="6.24396">
        <ele>813</ele>
        <time>2021-09-07T12:02:05.000Z</time>
      </trkpt>
      <trkpt lat="43.7729" lon="6.24394">
        <ele>812.8</ele>
        <time>2021-09-07T12:02:05.000Z</time>
      </trkpt>
      <trkpt lat="43.77293" lon="6.24396">
        <ele>813</ele>
        <time>2021-09-07T12:02:06.000Z</time>
      </trkpt>
      <trkpt lat="43.77296" lon="6.24397">
        <ele>813</ele>
        <time>2021-09-07T12:02:07.000Z</time>
      </trkpt>
      <trkpt lat="43.77298" lon="6.24397">
        <ele>813.2</ele>
        <time>2021-09-07T12:02:07.000Z</time>
      </trkpt>
      <trkpt lat="43.773" lon="6.24396">
        <ele>813.6</ele>
        <time>2021-09-07T12:02:08.000Z</time>
      </trkpt>
      <trkpt lat="43.77308" lon="6.24395">
        <ele>813.9</ele>
        <time>2021-09-07T12:02:12.000Z</time>
      </trkpt>
      <trkpt lat="43.7731" lon="6.24395">
        <ele>814</ele>
        <time>2021-09-07T12:02:13.000Z</time>
      </trkpt>
      <trkpt lat="43.77307" lon="6.24395">
        <ele>813.8</ele>
        <time>2021-09-07T12:02:13.000Z</time>
      </trkpt>
      <trkpt lat="43.77312" lon="6.24394">
        <ele>814.1</ele>
        <time>2021-09-07T12:02:14.000Z</time>
      </trkpt>
      <trkpt lat="43.77308" lon="6.24395">
        <ele>813.9</ele>
        <time>2021-09-07T12:02:14.000Z</time>
      </trkpt>
      <trkpt lat="43.77313" lon="6.24393">
        <ele>814.2</ele>
        <time>2021-09-07T12:02:15.000Z</time>
      </trkpt>
      <trkpt lat="43.7731" lon="6.24394">
        <ele>814</ele>
        <time>2021-09-07T12:02:15.000Z</time>
      </trkpt>
      <trkpt lat="43.77312" lon="6.24393">
        <ele>814.1</ele>
        <time>2021-09-07T12:02:16.000Z</time>
      </trkpt>
      <trkpt lat="43.77313" lon="6.24393">
        <ele>814.5</ele>
        <time>2021-09-07T12:02:17.000Z</time>
      </trkpt>
      <trkpt lat="43.7732" lon="6.24391">
        <ele>815</ele>
        <time>2021-09-07T12:02:22.000Z</time>
      </trkpt>
      <trkpt lat="43.77325" lon="6.2439">
        <ele>815.4</ele>
        <time>2021-09-07T12:02:23.000Z</time>
      </trkpt>
      <trkpt lat="43.77327" lon="6.2439">
        <ele>815.6</ele>
        <time>2021-09-07T12:02:25.000Z</time>
      </trkpt>
      <trkpt lat="43.77331" lon="6.2439">
        <ele>816</ele>
        <time>2021-09-07T12:02:26.000Z</time>
      </trkpt>
      <trkpt lat="43.77332" lon="6.2439">
        <ele>815.9</ele>
        <time>2021-09-07T12:02:28.000Z</time>
      </trkpt>
      <trkpt lat="43.77337" lon="6.24391">
        <ele>816.5</ele>
        <time>2021-09-07T12:02:29.000Z</time>
      </trkpt>
      <trkpt lat="43.77338" lon="6.24393">
        <ele>816.7</ele>
        <time>2021-09-07T12:02:30.000Z</time>
      </trkpt>
      <trkpt lat="43.77341" lon="6.24395">
        <ele>817.1</ele>
        <time>2021-09-07T12:02:32.000Z</time>
      </trkpt>
      <trkpt lat="43.77344" lon="6.24395">
        <ele>817.2</ele>
        <time>2021-09-07T12:02:33.000Z</time>
      </trkpt>
      <trkpt lat="43.77343" lon="6.24395">
        <ele>817.2</ele>
        <time>2021-09-07T12:02:34.000Z</time>
      </trkpt>
      <trkpt lat="43.77345" lon="6.24396">
        <ele>817.3</ele>
        <time>2021-09-07T12:02:35.000Z</time>
      </trkpt>
      <trkpt lat="43.77347" lon="6.24397">
        <ele>817.4</ele>
        <time>2021-09-07T12:02:35.000Z</time>
      </trkpt>
      <trkpt lat="43.77347" lon="6.24397">
        <ele>817.4</ele>
        <time>2021-09-07T12:02:37.000Z</time>
      </trkpt>
      <trkpt lat="43.77353" lon="6.24402">
        <ele>817.7</ele>
        <time>2021-09-07T12:02:38.000Z</time>
      </trkpt>
      <trkpt lat="43.77355" lon="6.24403">
        <ele>817.7</ele>
        <time>2021-09-07T12:02:39.000Z</time>
      </trkpt>
      <trkpt lat="43.77357" lon="6.24404">
        <ele>818.1</ele>
        <time>2021-09-07T12:02:40.000Z</time>
      </trkpt>
      <trkpt lat="43.77354" lon="6.24403">
        <ele>817.7</ele>
        <time>2021-09-07T12:02:40.000Z</time>
      </trkpt>
      <trkpt lat="43.77356" lon="6.24404">
        <ele>818</ele>
        <time>2021-09-07T12:02:41.000Z</time>
      </trkpt>
      <trkpt lat="43.77358" lon="6.24406">
        <ele>818.4</ele>
        <time>2021-09-07T12:02:41.000Z</time>
      </trkpt>
      <trkpt lat="43.77364" lon="6.24409">
        <ele>818.7</ele>
        <time>2021-09-07T12:02:44.000Z</time>
      </trkpt>
      <trkpt lat="43.77366" lon="6.2441">
        <ele>818.6</ele>
        <time>2021-09-07T12:02:46.000Z</time>
      </trkpt>
      <trkpt lat="43.7737" lon="6.2441">
        <ele>819.3</ele>
        <time>2021-09-07T12:02:47.000Z</time>
      </trkpt>
      <trkpt lat="43.77371" lon="6.2441">
        <ele>819.2</ele>
        <time>2021-09-07T12:02:49.000Z</time>
      </trkpt>
      <trkpt lat="43.77371" lon="6.24412">
        <ele>819.8</ele>
        <time>2021-09-07T12:02:49.000Z</time>
      </trkpt>
      <trkpt lat="43.77372" lon="6.24413">
        <ele>820</ele>
        <time>2021-09-07T12:02:51.000Z</time>
      </trkpt>
      <trkpt lat="43.77376" lon="6.24416">
        <ele>820.5</ele>
        <time>2021-09-07T12:02:53.000Z</time>
      </trkpt>
      <trkpt lat="43.77377" lon="6.24416">
        <ele>820.6</ele>
        <time>2021-09-07T12:02:55.000Z</time>
      </trkpt>
      <trkpt lat="43.77381" lon="6.24417">
        <ele>820.7</ele>
        <time>2021-09-07T12:02:56.000Z</time>
      </trkpt>
      <trkpt lat="43.77382" lon="6.24417">
        <ele>820.9</ele>
        <time>2021-09-07T12:02:58.000Z</time>
      </trkpt>
      <trkpt lat="43.77385" lon="6.24419">
        <ele>820.9</ele>
        <time>2021-09-07T12:02:59.000Z</time>
      </trkpt>
      <trkpt lat="43.77387" lon="6.2442">
        <ele>821</ele>
        <time>2021-09-07T12:03:00.000Z</time>
      </trkpt>
      <trkpt lat="43.77389" lon="6.24422">
        <ele>821.5</ele>
        <time>2021-09-07T12:03:01.000Z</time>
      </trkpt>
      <trkpt lat="43.77391" lon="6.24424">
        <ele>821.6</ele>
        <time>2021-09-07T12:03:02.000Z</time>
      </trkpt>
      <trkpt lat="43.7739" lon="6.24424">
        <ele>821.6</ele>
        <time>2021-09-07T12:03:03.000Z</time>
      </trkpt>
      <trkpt lat="43.77391" lon="6.24425">
        <ele>821.5</ele>
        <time>2021-09-07T12:03:04.000Z</time>
      </trkpt>
      <trkpt lat="43.77393" lon="6.24425">
        <ele>822</ele>
        <time>2021-09-07T12:03:04.000Z</time>
      </trkpt>
      <trkpt lat="43.77394" lon="6.24426">
        <ele>822.1</ele>
        <time>2021-09-07T12:03:06.000Z</time>
      </trkpt>
      <trkpt lat="43.77395" lon="6.24426">
        <ele>822</ele>
        <time>2021-09-07T12:03:06.000Z</time>
      </trkpt>
      <trkpt lat="43.77396" lon="6.24426">
        <ele>821.9</ele>
        <time>2021-09-07T12:03:07.000Z</time>
      </trkpt>
      <trkpt lat="43.77395" lon="6.24426">
        <ele>822</ele>
        <time>2021-09-07T12:03:08.000Z</time>
      </trkpt>
      <trkpt lat="43.77396" lon="6.24427">
        <ele>822.2</ele>
        <time>2021-09-07T12:03:09.000Z</time>
      </trkpt>
      <trkpt lat="43.77397" lon="6.24428">
        <ele>822.5</ele>
        <time>2021-09-07T12:03:10.000Z</time>
      </trkpt>
      <trkpt lat="43.77399" lon="6.24429">
        <ele>822.7</ele>
        <time>2021-09-07T12:03:10.000Z</time>
      </trkpt>
      <trkpt lat="43.774" lon="6.2443">
        <ele>822.7</ele>
        <time>2021-09-07T12:03:11.000Z</time>
      </trkpt>
      <trkpt lat="43.77399" lon="6.2443">
        <ele>822.7</ele>
        <time>2021-09-07T12:03:12.000Z</time>
      </trkpt>
      <trkpt lat="43.77401" lon="6.2443">
        <ele>822.9</ele>
        <time>2021-09-07T12:03:13.000Z</time>
      </trkpt>
      <trkpt lat="43.77403" lon="6.24429">
        <ele>823</ele>
        <time>2021-09-07T12:03:13.000Z</time>
      </trkpt>
      <trkpt lat="43.77404" lon="6.24429">
        <ele>823.1</ele>
        <time>2021-09-07T12:03:15.000Z</time>
      </trkpt>
      <trkpt lat="43.77408" lon="6.24428">
        <ele>823.9</ele>
        <time>2021-09-07T12:03:19.000Z</time>
      </trkpt>
      <trkpt lat="43.77408" lon="6.24427">
        <ele>823.7</ele>
        <time>2021-09-07T12:03:20.000Z</time>
      </trkpt>
      <trkpt lat="43.77409" lon="6.24428">
        <ele>824</ele>
        <time>2021-09-07T12:03:21.000Z</time>
      </trkpt>
      <trkpt lat="43.77411" lon="6.24429">
        <ele>824.3</ele>
        <time>2021-09-07T12:03:21.000Z</time>
      </trkpt>
      <trkpt lat="43.77412" lon="6.24429">
        <ele>824.4</ele>
        <time>2021-09-07T12:03:22.000Z</time>
      </trkpt>
      <trkpt lat="43.77411" lon="6.24429">
        <ele>824.4</ele>
        <time>2021-09-07T12:03:23.000Z</time>
      </trkpt>
      <trkpt lat="43.77413" lon="6.24428">
        <ele>824.6</ele>
        <time>2021-09-07T12:03:23.000Z</time>
      </trkpt>
      <trkpt lat="43.77418" lon="6.24428">
        <ele>824.8</ele>
        <time>2021-09-07T12:03:28.000Z</time>
      </trkpt>
      <trkpt lat="43.77418" lon="6.24428">
        <ele>824.8</ele>
        <time>2021-09-07T12:03:28.000Z</time>
      </trkpt>
      <trkpt lat="43.77419" lon="6.24429">
        <ele>825.2</ele>
        <time>2021-09-07T12:03:29.000Z</time>
      </trkpt>
      <trkpt lat="43.7742" lon="6.2443">
        <ele>825.2</ele>
        <time>2021-09-07T12:03:30.000Z</time>
      </trkpt>
      <trkpt lat="43.77426" lon="6.24431">
        <ele>826.2</ele>
        <time>2021-09-07T12:03:34.000Z</time>
      </trkpt>
      <trkpt lat="43.77426" lon="6.24431">
        <ele>826.1</ele>
        <time>2021-09-07T12:03:35.000Z</time>
      </trkpt>
      <trkpt lat="43.77427" lon="6.24432">
        <ele>826.2</ele>
        <time>2021-09-07T12:03:36.000Z</time>
      </trkpt>
      <trkpt lat="43.77428" lon="6.24432">
        <ele>826.5</ele>
        <time>2021-09-07T12:03:36.000Z</time>
      </trkpt>
      <trkpt lat="43.7743" lon="6.24432">
        <ele>826.5</ele>
        <time>2021-09-07T12:03:37.000Z</time>
      </trkpt>
      <trkpt lat="43.77429" lon="6.24432">
        <ele>826.5</ele>
        <time>2021-09-07T12:03:38.000Z</time>
      </trkpt>
      <trkpt lat="43.7743" lon="6.24431">
        <ele>826.6</ele>
        <time>2021-09-07T12:03:39.000Z</time>
      </trkpt>
      <trkpt lat="43.77431" lon="6.24431">
        <ele>826.6</ele>
        <time>2021-09-07T12:03:40.000Z</time>
      </trkpt>
      <trkpt lat="43.77433" lon="6.24433">
        <ele>827.1</ele>
        <time>2021-09-07T12:03:41.000Z</time>
      </trkpt>
      <trkpt lat="43.77435" lon="6.24434">
        <ele>827.3</ele>
        <time>2021-09-07T12:03:43.000Z</time>
      </trkpt>
      <trkpt lat="43.77437" lon="6.24436">
        <ele>827.4</ele>
        <time>2021-09-07T12:03:43.000Z</time>
      </trkpt>
      <trkpt lat="43.77439" lon="6.24437">
        <ele>827.2</ele>
        <time>2021-09-07T12:03:45.000Z</time>
      </trkpt>
      <trkpt lat="43.77441" lon="6.24438">
        <ele>827.1</ele>
        <time>2021-09-07T12:03:45.000Z</time>
      </trkpt>
      <trkpt lat="43.77444" lon="6.24438">
        <ele>827.3</ele>
        <time>2021-09-07T12:03:46.000Z</time>
      </trkpt>
      <trkpt lat="43.77446" lon="6.24439">
        <ele>827.5</ele>
        <time>2021-09-07T12:03:47.000Z</time>
      </trkpt>
      <trkpt lat="43.77443" lon="6.24438">
        <ele>827.2</ele>
        <time>2021-09-07T12:03:47.000Z</time>
      </trkpt>
      <trkpt lat="43.77445" lon="6.24439">
        <ele>827.5</ele>
        <time>2021-09-07T12:03:48.000Z</time>
      </trkpt>
      <trkpt lat="43.77448" lon="6.24438">
        <ele>827.7</ele>
        <time>2021-09-07T12:03:49.000Z</time>
      </trkpt>
      <trkpt lat="43.7745" lon="6.24439">
        <ele>827.8</ele>
        <time>2021-09-07T12:03:49.000Z</time>
      </trkpt>
      <trkpt lat="43.77451" lon="6.2444">
        <ele>827.8</ele>
        <time>2021-09-07T12:03:51.000Z</time>
      </trkpt>
      <trkpt lat="43.77453" lon="6.24442">
        <ele>828.2</ele>
        <time>2021-09-07T12:03:51.000Z</time>
      </trkpt>
      <trkpt lat="43.77455" lon="6.24443">
        <ele>828.3</ele>
        <time>2021-09-07T12:03:53.000Z</time>
      </trkpt>
      <trkpt lat="43.77459" lon="6.24443">
        <ele>828.4</ele>
        <time>2021-09-07T12:03:54.000Z</time>
      </trkpt>
      <trkpt lat="43.77461" lon="6.24444">
        <ele>828.7</ele>
        <time>2021-09-07T12:03:55.000Z</time>
      </trkpt>
      <trkpt lat="43.7746" lon="6.24444">
        <ele>828.6</ele>
        <time>2021-09-07T12:03:56.000Z</time>
      </trkpt>
      <trkpt lat="43.77462" lon="6.24444">
        <ele>828.9</ele>
        <time>2021-09-07T12:03:56.000Z</time>
      </trkpt>
      <trkpt lat="43.77466" lon="6.24445">
        <ele>828.9</ele>
        <time>2021-09-07T12:03:58.000Z</time>
      </trkpt>
      <trkpt lat="43.77468" lon="6.24445">
        <ele>829.2</ele>
        <time>2021-09-07T12:03:59.000Z</time>
      </trkpt>
      <trkpt lat="43.77467" lon="6.24445">
        <ele>829.1</ele>
        <time>2021-09-07T12:04:00.000Z</time>
      </trkpt>
      <trkpt lat="43.7747" lon="6.24446">
        <ele>829.3</ele>
        <time>2021-09-07T12:04:00.000Z</time>
      </trkpt>
      <trkpt lat="43.77473" lon="6.24448">
        <ele>829.9</ele>
        <time>2021-09-07T12:04:02.000Z</time>
      </trkpt>
      <trkpt lat="43.77475" lon="6.24448">
        <ele>830</ele>
        <time>2021-09-07T12:04:03.000Z</time>
      </trkpt>
      <trkpt lat="43.77477" lon="6.24449">
        <ele>830.1</ele>
        <time>2021-09-07T12:04:04.000Z</time>
      </trkpt>
      <trkpt lat="43.77474" lon="6.24448">
        <ele>830</ele>
        <time>2021-09-07T12:04:04.000Z</time>
      </trkpt>
      <trkpt lat="43.77478" lon="6.2445">
        <ele>830.2</ele>
        <time>2021-09-07T12:04:05.000Z</time>
      </trkpt>
      <trkpt lat="43.77476" lon="6.24449">
        <ele>830</ele>
        <time>2021-09-07T12:04:05.000Z</time>
      </trkpt>
      <trkpt lat="43.77477" lon="6.24449">
        <ele>830.2</ele>
        <time>2021-09-07T12:04:06.000Z</time>
      </trkpt>
      <trkpt lat="43.77479" lon="6.2445">
        <ele>830.4</ele>
        <time>2021-09-07T12:04:07.000Z</time>
      </trkpt>
      <trkpt lat="43.77484" lon="6.24452">
        <ele>830.8</ele>
        <time>2021-09-07T12:04:09.000Z</time>
      </trkpt>
      <trkpt lat="43.77485" lon="6.24452">
        <ele>831.1</ele>
        <time>2021-09-07T12:04:11.000Z</time>
      </trkpt>
      <trkpt lat="43.77487" lon="6.24452">
        <ele>831.2</ele>
        <time>2021-09-07T12:04:11.000Z</time>
      </trkpt>
      <trkpt lat="43.77488" lon="6.24453">
        <ele>831.2</ele>
        <time>2021-09-07T12:04:13.000Z</time>
      </trkpt>
      <trkpt lat="43.77489" lon="6.24453">
        <ele>831.4</ele>
        <time>2021-09-07T12:04:13.000Z</time>
      </trkpt>
      <trkpt lat="43.77491" lon="6.24453">
        <ele>831.4</ele>
        <time>2021-09-07T12:04:14.000Z</time>
      </trkpt>
      <trkpt lat="43.77493" lon="6.24453">
        <ele>831.7</ele>
        <time>2021-09-07T12:04:15.000Z</time>
      </trkpt>
      <trkpt lat="43.7749" lon="6.24453">
        <ele>831.5</ele>
        <time>2021-09-07T12:04:15.000Z</time>
      </trkpt>
      <trkpt lat="43.77496" lon="6.24455">
        <ele>831.8</ele>
        <time>2021-09-07T12:04:16.000Z</time>
      </trkpt>
      <trkpt lat="43.77493" lon="6.24453">
        <ele>831.5</ele>
        <time>2021-09-07T12:04:16.000Z</time>
      </trkpt>
      <trkpt lat="43.77495" lon="6.24454">
        <ele>831.8</ele>
        <time>2021-09-07T12:04:17.000Z</time>
      </trkpt>
      <trkpt lat="43.77498" lon="6.24455">
        <ele>831.9</ele>
        <time>2021-09-07T12:04:17.000Z</time>
      </trkpt>
      <trkpt lat="43.77508" lon="6.24455">
        <ele>832.6</ele>
        <time>2021-09-07T12:04:22.000Z</time>
      </trkpt>
      <trkpt lat="43.77508" lon="6.24455">
        <ele>832.6</ele>
        <time>2021-09-07T12:04:23.000Z</time>
      </trkpt>
      <trkpt lat="43.77509" lon="6.24455">
        <ele>832.7</ele>
        <time>2021-09-07T12:04:24.000Z</time>
      </trkpt>
      <trkpt lat="43.77512" lon="6.24455">
        <ele>833</ele>
        <time>2021-09-07T12:04:24.000Z</time>
      </trkpt>
      <trkpt lat="43.77512" lon="6.24455">
        <ele>833.1</ele>
        <time>2021-09-07T12:04:26.000Z</time>
      </trkpt>
      <trkpt lat="43.77516" lon="6.24456">
        <ele>833.4</ele>
        <time>2021-09-07T12:04:26.000Z</time>
      </trkpt>
      <trkpt lat="43.77517" lon="6.24456">
        <ele>833.6</ele>
        <time>2021-09-07T12:04:28.000Z</time>
      </trkpt>
      <trkpt lat="43.77518" lon="6.24457">
        <ele>833.9</ele>
        <time>2021-09-07T12:04:29.000Z</time>
      </trkpt>
      <trkpt lat="43.77522" lon="6.24457">
        <ele>834.1</ele>
        <time>2021-09-07T12:04:31.000Z</time>
      </trkpt>
      <trkpt lat="43.77523" lon="6.24456">
        <ele>834</ele>
        <time>2021-09-07T12:04:32.000Z</time>
      </trkpt>
      <trkpt lat="43.77523" lon="6.24457">
        <ele>834.2</ele>
        <time>2021-09-07T12:04:33.000Z</time>
      </trkpt>
      <trkpt lat="43.77524" lon="6.24455">
        <ele>834.3</ele>
        <time>2021-09-07T12:04:33.000Z</time>
      </trkpt>
      <trkpt lat="43.77529" lon="6.24456">
        <ele>835.1</ele>
        <time>2021-09-07T12:04:36.000Z</time>
      </trkpt>
      <trkpt lat="43.77531" lon="6.24456">
        <ele>835.1</ele>
        <time>2021-09-07T12:04:38.000Z</time>
      </trkpt>
      <trkpt lat="43.77539" lon="6.24457">
        <ele>836.2</ele>
        <time>2021-09-07T12:04:41.000Z</time>
      </trkpt>
      <trkpt lat="43.77541" lon="6.24457">
        <ele>836.5</ele>
        <time>2021-09-07T12:04:42.000Z</time>
      </trkpt>
      <trkpt lat="43.7754" lon="6.24457">
        <ele>836.4</ele>
        <time>2021-09-07T12:04:43.000Z</time>
      </trkpt>
      <trkpt lat="43.77543" lon="6.24457">
        <ele>836.6</ele>
        <time>2021-09-07T12:04:44.000Z</time>
      </trkpt>
      <trkpt lat="43.77548" lon="6.24459">
        <ele>836.9</ele>
        <time>2021-09-07T12:04:46.000Z</time>
      </trkpt>
      <trkpt lat="43.77548" lon="6.24459">
        <ele>837</ele>
        <time>2021-09-07T12:04:48.000Z</time>
      </trkpt>
      <trkpt lat="43.7755" lon="6.24458">
        <ele>837.2</ele>
        <time>2021-09-07T12:04:48.000Z</time>
      </trkpt>
      <trkpt lat="43.77552" lon="6.24458">
        <ele>837.5</ele>
        <time>2021-09-07T12:04:49.000Z</time>
      </trkpt>
      <trkpt lat="43.77558" lon="6.24458">
        <ele>837.8</ele>
        <time>2021-09-07T12:04:54.000Z</time>
      </trkpt>
      <trkpt lat="43.7756" lon="6.24458">
        <ele>838</ele>
        <time>2021-09-07T12:04:54.000Z</time>
      </trkpt>
      <trkpt lat="43.77561" lon="6.24457">
        <ele>838.1</ele>
        <time>2021-09-07T12:04:56.000Z</time>
      </trkpt>
      <trkpt lat="43.77562" lon="6.24457">
        <ele>838.1</ele>
        <time>2021-09-07T12:04:56.000Z</time>
      </trkpt>
      <trkpt lat="43.77564" lon="6.24456">
        <ele>838.3</ele>
        <time>2021-09-07T12:04:57.000Z</time>
      </trkpt>
      <trkpt lat="43.77563" lon="6.24457">
        <ele>838.2</ele>
        <time>2021-09-07T12:04:58.000Z</time>
      </trkpt>
      <trkpt lat="43.77565" lon="6.24456">
        <ele>838.6</ele>
        <time>2021-09-07T12:04:58.000Z</time>
      </trkpt>
      <trkpt lat="43.77568" lon="6.24455">
        <ele>839</ele>
        <time>2021-09-07T12:05:00.000Z</time>
      </trkpt>
      <trkpt lat="43.77569" lon="6.24454">
        <ele>839</ele>
        <time>2021-09-07T12:05:02.000Z</time>
      </trkpt>
      <trkpt lat="43.77575" lon="6.24456">
        <ele>839.7</ele>
        <time>2021-09-07T12:05:05.000Z</time>
      </trkpt>
      <trkpt lat="43.77577" lon="6.24456">
        <ele>839.9</ele>
        <time>2021-09-07T12:05:06.000Z</time>
      </trkpt>
      <trkpt lat="43.77576" lon="6.24456">
        <ele>839.8</ele>
        <time>2021-09-07T12:05:07.000Z</time>
      </trkpt>
      <trkpt lat="43.77578" lon="6.24456">
        <ele>840</ele>
        <time>2021-09-07T12:05:08.000Z</time>
      </trkpt>
      <trkpt lat="43.77581" lon="6.24455">
        <ele>840.5</ele>
        <time>2021-09-07T12:05:09.000Z</time>
      </trkpt>
      <trkpt lat="43.77582" lon="6.24455">
        <ele>840.4</ele>
        <time>2021-09-07T12:05:10.000Z</time>
      </trkpt>
      <trkpt lat="43.77588" lon="6.24457">
        <ele>840.9</ele>
        <time>2021-09-07T12:05:13.000Z</time>
      </trkpt>
      <trkpt lat="43.7759" lon="6.24457">
        <ele>840.9</ele>
        <time>2021-09-07T12:05:14.000Z</time>
      </trkpt>
      <trkpt lat="43.77595" lon="6.24459">
        <ele>841.3</ele>
        <time>2021-09-07T12:05:16.000Z</time>
      </trkpt>
      <trkpt lat="43.77596" lon="6.24461">
        <ele>841.3</ele>
        <time>2021-09-07T12:05:17.000Z</time>
      </trkpt>
      <trkpt lat="43.77598" lon="6.24463">
        <ele>841.4</ele>
        <time>2021-09-07T12:05:18.000Z</time>
      </trkpt>
      <trkpt lat="43.77596" lon="6.2446">
        <ele>841.2</ele>
        <time>2021-09-07T12:05:18.000Z</time>
      </trkpt>
      <trkpt lat="43.776" lon="6.24464">
        <ele>841.7</ele>
        <time>2021-09-07T12:05:19.000Z</time>
      </trkpt>
      <trkpt lat="43.77597" lon="6.24462">
        <ele>841.4</ele>
        <time>2021-09-07T12:05:19.000Z</time>
      </trkpt>
      <trkpt lat="43.776" lon="6.24464">
        <ele>841.6</ele>
        <time>2021-09-07T12:05:20.000Z</time>
      </trkpt>
      <trkpt lat="43.77602" lon="6.24466">
        <ele>842</ele>
        <time>2021-09-07T12:05:20.000Z</time>
      </trkpt>
      <trkpt lat="43.77604" lon="6.24468">
        <ele>842</ele>
        <time>2021-09-07T12:05:21.000Z</time>
      </trkpt>
      <trkpt lat="43.77605" lon="6.2447">
        <ele>842.3</ele>
        <time>2021-09-07T12:05:23.000Z</time>
      </trkpt>
      <trkpt lat="43.77606" lon="6.24473">
        <ele>842.6</ele>
        <time>2021-09-07T12:05:23.000Z</time>
      </trkpt>
      <trkpt lat="43.77606" lon="6.24474">
        <ele>842.8</ele>
        <time>2021-09-07T12:05:24.000Z</time>
      </trkpt>
      <trkpt lat="43.77606" lon="6.24474">
        <ele>842.6</ele>
        <time>2021-09-07T12:05:25.000Z</time>
      </trkpt>
      <trkpt lat="43.77606" lon="6.24475">
        <ele>842.9</ele>
        <time>2021-09-07T12:05:26.000Z</time>
      </trkpt>
      <trkpt lat="43.77606" lon="6.24478">
        <ele>843.1</ele>
        <time>2021-09-07T12:05:26.000Z</time>
      </trkpt>
      <trkpt lat="43.77605" lon="6.24479">
        <ele>843.2</ele>
        <time>2021-09-07T12:05:28.000Z</time>
      </trkpt>
      <trkpt lat="43.77605" lon="6.2448">
        <ele>843.3</ele>
        <time>2021-09-07T12:05:29.000Z</time>
      </trkpt>
      <trkpt lat="43.77604" lon="6.24481">
        <ele>843.1</ele>
        <time>2021-09-07T12:05:29.000Z</time>
      </trkpt>
      <trkpt lat="43.77604" lon="6.24483">
        <ele>843.1</ele>
        <time>2021-09-07T12:05:30.000Z</time>
      </trkpt>
      <trkpt lat="43.77604" lon="6.24483">
        <ele>843.1</ele>
        <time>2021-09-07T12:05:32.000Z</time>
      </trkpt>
      <trkpt lat="43.77603" lon="6.24484">
        <ele>843.3</ele>
        <time>2021-09-07T12:05:33.000Z</time>
      </trkpt>
      <trkpt lat="43.77602" lon="6.24487">
        <ele>843.2</ele>
        <time>2021-09-07T12:05:33.000Z</time>
      </trkpt>
      <trkpt lat="43.77602" lon="6.24488">
        <ele>843.6</ele>
        <time>2021-09-07T12:05:34.000Z</time>
      </trkpt>
      <trkpt lat="43.77601" lon="6.2449">
        <ele>843.7</ele>
        <time>2021-09-07T12:05:35.000Z</time>
      </trkpt>
      <trkpt lat="43.77602" lon="6.24487">
        <ele>843.5</ele>
        <time>2021-09-07T12:05:35.000Z</time>
      </trkpt>
      <trkpt lat="43.77601" lon="6.2449">
        <ele>843.7</ele>
        <time>2021-09-07T12:05:36.000Z</time>
      </trkpt>
      <trkpt lat="43.77601" lon="6.24492">
        <ele>843.9</ele>
        <time>2021-09-07T12:05:37.000Z</time>
      </trkpt>
      <trkpt lat="43.776" lon="6.24492">
        <ele>843.8</ele>
        <time>2021-09-07T12:05:38.000Z</time>
      </trkpt>
      <trkpt lat="43.77599" lon="6.24496">
        <ele>843.6</ele>
        <time>2021-09-07T12:05:38.000Z</time>
      </trkpt>
      <trkpt lat="43.77599" lon="6.24497">
        <ele>843.6</ele>
        <time>2021-09-07T12:05:40.000Z</time>
      </trkpt>
      <trkpt lat="43.77598" lon="6.24502">
        <ele>844</ele>
        <time>2021-09-07T12:05:40.000Z</time>
      </trkpt>
      <trkpt lat="43.77597" lon="6.24504">
        <ele>844.2</ele>
        <time>2021-09-07T12:05:42.000Z</time>
      </trkpt>
      <trkpt lat="43.77596" lon="6.24512">
        <ele>844.8</ele>
        <time>2021-09-07T12:05:44.000Z</time>
      </trkpt>
      <trkpt lat="43.77596" lon="6.24514">
        <ele>845</ele>
        <time>2021-09-07T12:05:45.000Z</time>
      </trkpt>
      <trkpt lat="43.77596" lon="6.24513">
        <ele>844.9</ele>
        <time>2021-09-07T12:05:46.000Z</time>
      </trkpt>
      <trkpt lat="43.77597" lon="6.24516">
        <ele>844.9</ele>
        <time>2021-09-07T12:05:47.000Z</time>
      </trkpt>
      <trkpt lat="43.77596" lon="6.24519">
        <ele>845.1</ele>
        <time>2021-09-07T12:05:48.000Z</time>
      </trkpt>
      <trkpt lat="43.77597" lon="6.24522">
        <ele>845</ele>
        <time>2021-09-07T12:05:49.000Z</time>
      </trkpt>
      <trkpt lat="43.77597" lon="6.24521">
        <ele>845.2</ele>
        <time>2021-09-07T12:05:50.000Z</time>
      </trkpt>
      <trkpt lat="43.77598" lon="6.24523">
        <ele>844.9</ele>
        <time>2021-09-07T12:05:51.000Z</time>
      </trkpt>
      <trkpt lat="43.77598" lon="6.24536">
        <ele>845.2</ele>
        <time>2021-09-07T12:05:53.000Z</time>
      </trkpt>
      <trkpt lat="43.77598" lon="6.24537">
        <ele>845.3</ele>
        <time>2021-09-07T12:05:54.000Z</time>
      </trkpt>
      <trkpt lat="43.77597" lon="6.24541">
        <ele>845.3</ele>
        <time>2021-09-07T12:05:55.000Z</time>
      </trkpt>
      <trkpt lat="43.77598" lon="6.24537">
        <ele>845.2</ele>
        <time>2021-09-07T12:05:55.000Z</time>
      </trkpt>
      <trkpt lat="43.77597" lon="6.24539">
        <ele>845.3</ele>
        <time>2021-09-07T12:05:56.000Z</time>
      </trkpt>
      <trkpt lat="43.77596" lon="6.24543">
        <ele>845.5</ele>
        <time>2021-09-07T12:05:56.000Z</time>
      </trkpt>
      <trkpt lat="43.77594" lon="6.24553">
        <ele>846.2</ele>
        <time>2021-09-07T12:06:00.000Z</time>
      </trkpt>
      <trkpt lat="43.77594" lon="6.24552">
        <ele>846</ele>
        <time>2021-09-07T12:06:01.000Z</time>
      </trkpt>
      <trkpt lat="43.77594" lon="6.24554">
        <ele>846.3</ele>
        <time>2021-09-07T12:06:02.000Z</time>
      </trkpt>
      <trkpt lat="43.77593" lon="6.24556">
        <ele>846.2</ele>
        <time>2021-09-07T12:06:02.000Z</time>
      </trkpt>
      <trkpt lat="43.77593" lon="6.24559">
        <ele>846.2</ele>
        <time>2021-09-07T12:06:03.000Z</time>
      </trkpt>
      <trkpt lat="43.77592" lon="6.24561">
        <ele>846.3</ele>
        <time>2021-09-07T12:06:04.000Z</time>
      </trkpt>
      <trkpt lat="43.77593" lon="6.24558">
        <ele>846.2</ele>
        <time>2021-09-07T12:06:04.000Z</time>
      </trkpt>
      <trkpt lat="43.77592" lon="6.2456">
        <ele>846.1</ele>
        <time>2021-09-07T12:06:05.000Z</time>
      </trkpt>
      <trkpt lat="43.77592" lon="6.24563">
        <ele>846.6</ele>
        <time>2021-09-07T12:06:06.000Z</time>
      </trkpt>
      <trkpt lat="43.77593" lon="6.24568">
        <ele>847</ele>
        <time>2021-09-07T12:06:08.000Z</time>
      </trkpt>
      <trkpt lat="43.77593" lon="6.2457">
        <ele>847.2</ele>
        <time>2021-09-07T12:06:10.000Z</time>
      </trkpt>
      <trkpt lat="43.77592" lon="6.24572">
        <ele>847.3</ele>
        <time>2021-09-07T12:06:10.000Z</time>
      </trkpt>
      <trkpt lat="43.77592" lon="6.24574">
        <ele>847.3</ele>
        <time>2021-09-07T12:06:12.000Z</time>
      </trkpt>
      <trkpt lat="43.77592" lon="6.24576">
        <ele>847.5</ele>
        <time>2021-09-07T12:06:12.000Z</time>
      </trkpt>
      <trkpt lat="43.77592" lon="6.24578">
        <ele>847.4</ele>
        <time>2021-09-07T12:06:13.000Z</time>
      </trkpt>
      <trkpt lat="43.77592" lon="6.24582">
        <ele>847.4</ele>
        <time>2021-09-07T12:06:14.000Z</time>
      </trkpt>
      <trkpt lat="43.77592" lon="6.24577">
        <ele>847.5</ele>
        <time>2021-09-07T12:06:14.000Z</time>
      </trkpt>
      <trkpt lat="43.77592" lon="6.2458">
        <ele>847.4</ele>
        <time>2021-09-07T12:06:15.000Z</time>
      </trkpt>
      <trkpt lat="43.77592" lon="6.24585">
        <ele>847.6</ele>
        <time>2021-09-07T12:06:15.000Z</time>
      </trkpt>
      <trkpt lat="43.77589" lon="6.24597">
        <ele>848.3</ele>
        <time>2021-09-07T12:06:19.000Z</time>
      </trkpt>
      <trkpt lat="43.77589" lon="6.246">
        <ele>848.3</ele>
        <time>2021-09-07T12:06:20.000Z</time>
      </trkpt>
      <trkpt lat="43.7759" lon="6.24595">
        <ele>848.4</ele>
        <time>2021-09-07T12:06:20.000Z</time>
      </trkpt>
      <trkpt lat="43.77589" lon="6.24602">
        <ele>848.3</ele>
        <time>2021-09-07T12:06:21.000Z</time>
      </trkpt>
      <trkpt lat="43.77589" lon="6.24599">
        <ele>848.2</ele>
        <time>2021-09-07T12:06:21.000Z</time>
      </trkpt>
      <trkpt lat="43.77589" lon="6.24601">
        <ele>848.3</ele>
        <time>2021-09-07T12:06:22.000Z</time>
      </trkpt>
      <trkpt lat="43.77589" lon="6.24604">
        <ele>848.6</ele>
        <time>2021-09-07T12:06:23.000Z</time>
      </trkpt>
      <trkpt lat="43.77588" lon="6.24608">
        <ele>849</ele>
        <time>2021-09-07T12:06:24.000Z</time>
      </trkpt>
      <trkpt lat="43.77588" lon="6.24611">
        <ele>848.9</ele>
        <time>2021-09-07T12:06:25.000Z</time>
      </trkpt>
      <trkpt lat="43.77587" lon="6.24621">
        <ele>850.1</ele>
        <time>2021-09-07T12:06:30.000Z</time>
      </trkpt>
      <trkpt lat="43.77587" lon="6.24621">
        <ele>850.1</ele>
        <time>2021-09-07T12:06:30.000Z</time>
      </trkpt>
      <trkpt lat="43.77587" lon="6.24624">
        <ele>850.4</ele>
        <time>2021-09-07T12:06:31.000Z</time>
      </trkpt>
      <trkpt lat="43.77587" lon="6.24628">
        <ele>850.4</ele>
        <time>2021-09-07T12:06:31.000Z</time>
      </trkpt>
      <trkpt lat="43.77587" lon="6.24637">
        <ele>851.1</ele>
        <time>2021-09-07T12:06:34.000Z</time>
      </trkpt>
      <trkpt lat="43.77587" lon="6.2464">
        <ele>851.1</ele>
        <time>2021-09-07T12:06:35.000Z</time>
      </trkpt>
      <trkpt lat="43.77587" lon="6.24639">
        <ele>851.1</ele>
        <time>2021-09-07T12:06:36.000Z</time>
      </trkpt>
      <trkpt lat="43.77587" lon="6.24642">
        <ele>851</ele>
        <time>2021-09-07T12:06:37.000Z</time>
      </trkpt>
      <trkpt lat="43.77587" lon="6.24648">
        <ele>851.3</ele>
        <time>2021-09-07T12:06:38.000Z</time>
      </trkpt>
      <trkpt lat="43.77588" lon="6.24651">
        <ele>851.5</ele>
        <time>2021-09-07T12:06:39.000Z</time>
      </trkpt>
      <trkpt lat="43.77588" lon="6.2465">
        <ele>851.4</ele>
        <time>2021-09-07T12:06:40.000Z</time>
      </trkpt>
      <trkpt lat="43.77588" lon="6.24653">
        <ele>851.5</ele>
        <time>2021-09-07T12:06:41.000Z</time>
      </trkpt>
      <trkpt lat="43.7759" lon="6.24658">
        <ele>851.9</ele>
        <time>2021-09-07T12:06:42.000Z</time>
      </trkpt>
      <trkpt lat="43.77591" lon="6.2466">
        <ele>852</ele>
        <time>2021-09-07T12:06:43.000Z</time>
      </trkpt>
      <trkpt lat="43.7759" lon="6.24659">
        <ele>851.9</ele>
        <time>2021-09-07T12:06:44.000Z</time>
      </trkpt>
      <trkpt lat="43.77592" lon="6.24662">
        <ele>852.1</ele>
        <time>2021-09-07T12:06:45.000Z</time>
      </trkpt>
      <trkpt lat="43.77593" lon="6.24664">
        <ele>852.3</ele>
        <time>2021-09-07T12:06:45.000Z</time>
      </trkpt>
      <trkpt lat="43.77594" lon="6.24666">
        <ele>852.6</ele>
        <time>2021-09-07T12:06:47.000Z</time>
      </trkpt>
      <trkpt lat="43.77597" lon="6.2467">
        <ele>852.8</ele>
        <time>2021-09-07T12:06:48.000Z</time>
      </trkpt>
      <trkpt lat="43.77599" lon="6.24671">
        <ele>852.7</ele>
        <time>2021-09-07T12:06:50.000Z</time>
      </trkpt>
      <trkpt lat="43.77608" lon="6.24681">
        <ele>853.6</ele>
        <time>2021-09-07T12:06:56.000Z</time>
      </trkpt>
      <trkpt lat="43.77611" lon="6.24684">
        <ele>854.1</ele>
        <time>2021-09-07T12:06:56.000Z</time>
      </trkpt>
      <trkpt lat="43.77613" lon="6.24686">
        <ele>854.2</ele>
        <time>2021-09-07T12:06:57.000Z</time>
      </trkpt>
      <trkpt lat="43.77612" lon="6.24685">
        <ele>854.2</ele>
        <time>2021-09-07T12:06:58.000Z</time>
      </trkpt>
      <trkpt lat="43.77614" lon="6.24687">
        <ele>854.3</ele>
        <time>2021-09-07T12:06:59.000Z</time>
      </trkpt>
      <trkpt lat="43.77617" lon="6.2469">
        <ele>854.5</ele>
        <time>2021-09-07T12:07:00.000Z</time>
      </trkpt>
      <trkpt lat="43.77618" lon="6.24692">
        <ele>854.9</ele>
        <time>2021-09-07T12:07:01.000Z</time>
      </trkpt>
      <trkpt lat="43.77618" lon="6.24691">
        <ele>854.7</ele>
        <time>2021-09-07T12:07:02.000Z</time>
      </trkpt>
      <trkpt lat="43.77619" lon="6.24694">
        <ele>854.9</ele>
        <time>2021-09-07T12:07:03.000Z</time>
      </trkpt>
      <trkpt lat="43.77621" lon="6.24694">
        <ele>854.9</ele>
        <time>2021-09-07T12:07:03.000Z</time>
      </trkpt>
      <trkpt lat="43.77621" lon="6.24695">
        <ele>854.9</ele>
        <time>2021-09-07T12:07:05.000Z</time>
      </trkpt>
      <trkpt lat="43.77623" lon="6.24697">
        <ele>855.1</ele>
        <time>2021-09-07T12:07:05.000Z</time>
      </trkpt>
      <trkpt lat="43.77624" lon="6.24698">
        <ele>855.2</ele>
        <time>2021-09-07T12:07:07.000Z</time>
      </trkpt>
      <trkpt lat="43.77626" lon="6.24701">
        <ele>855.6</ele>
        <time>2021-09-07T12:07:07.000Z</time>
      </trkpt>
      <trkpt lat="43.77627" lon="6.24703">
        <ele>855.7</ele>
        <time>2021-09-07T12:07:08.000Z</time>
      </trkpt>
      <trkpt lat="43.77627" lon="6.24704">
        <ele>855.9</ele>
        <time>2021-09-07T12:07:09.000Z</time>
      </trkpt>
      <trkpt lat="43.77628" lon="6.24705">
        <ele>855.9</ele>
        <time>2021-09-07T12:07:11.000Z</time>
      </trkpt>
      <trkpt lat="43.7763" lon="6.24707">
        <ele>856.4</ele>
        <time>2021-09-07T12:07:12.000Z</time>
      </trkpt>
      <trkpt lat="43.77631" lon="6.24709">
        <ele>856.5</ele>
        <time>2021-09-07T12:07:14.000Z</time>
      </trkpt>
      <trkpt lat="43.77632" lon="6.24711">
        <ele>856.7</ele>
        <time>2021-09-07T12:07:14.000Z</time>
      </trkpt>
      <trkpt lat="43.77633" lon="6.24712">
        <ele>857</ele>
        <time>2021-09-07T12:07:15.000Z</time>
      </trkpt>
      <trkpt lat="43.77635" lon="6.24715">
        <ele>857.2</ele>
        <time>2021-09-07T12:07:17.000Z</time>
      </trkpt>
      <trkpt lat="43.77637" lon="6.24716">
        <ele>857.3</ele>
        <time>2021-09-07T12:07:18.000Z</time>
      </trkpt>
      <trkpt lat="43.77638" lon="6.24718">
        <ele>857.1</ele>
        <time>2021-09-07T12:07:19.000Z</time>
      </trkpt>
      <trkpt lat="43.77636" lon="6.24715">
        <ele>857.3</ele>
        <time>2021-09-07T12:07:19.000Z</time>
      </trkpt>
      <trkpt lat="43.77639" lon="6.2472">
        <ele>857.3</ele>
        <time>2021-09-07T12:07:20.000Z</time>
      </trkpt>
      <trkpt lat="43.77637" lon="6.24718">
        <ele>857.2</ele>
        <time>2021-09-07T12:07:20.000Z</time>
      </trkpt>
      <trkpt lat="43.77638" lon="6.24719">
        <ele>857.1</ele>
        <time>2021-09-07T12:07:21.000Z</time>
      </trkpt>
      <trkpt lat="43.77639" lon="6.24721">
        <ele>857.3</ele>
        <time>2021-09-07T12:07:22.000Z</time>
      </trkpt>
      <trkpt lat="43.77641" lon="6.24724">
        <ele>857.7</ele>
        <time>2021-09-07T12:07:23.000Z</time>
      </trkpt>
      <trkpt lat="43.77642" lon="6.24726">
        <ele>857.8</ele>
        <time>2021-09-07T12:07:24.000Z</time>
      </trkpt>
      <trkpt lat="43.77642" lon="6.24725">
        <ele>857.7</ele>
        <time>2021-09-07T12:07:25.000Z</time>
      </trkpt>
      <trkpt lat="43.77643" lon="6.24728">
        <ele>857.9</ele>
        <time>2021-09-07T12:07:26.000Z</time>
      </trkpt>
      <trkpt lat="43.77645" lon="6.2473">
        <ele>858.1</ele>
        <time>2021-09-07T12:07:26.000Z</time>
      </trkpt>
      <trkpt lat="43.77646" lon="6.24731">
        <ele>858.3</ele>
        <time>2021-09-07T12:07:28.000Z</time>
      </trkpt>
      <trkpt lat="43.77648" lon="6.24734">
        <ele>858.5</ele>
        <time>2021-09-07T12:07:28.000Z</time>
      </trkpt>
      <trkpt lat="43.77649" lon="6.24735">
        <ele>858.4</ele>
        <time>2021-09-07T12:07:30.000Z</time>
      </trkpt>
      <trkpt lat="43.77654" lon="6.24743">
        <ele>859.1</ele>
        <time>2021-09-07T12:07:31.000Z</time>
      </trkpt>
      <trkpt lat="43.77656" lon="6.24744">
        <ele>859.2</ele>
        <time>2021-09-07T12:07:33.000Z</time>
      </trkpt>
      <trkpt lat="43.77662" lon="6.24752">
        <ele>859.6</ele>
        <time>2021-09-07T12:07:35.000Z</time>
      </trkpt>
      <trkpt lat="43.77664" lon="6.24755">
        <ele>859.9</ele>
        <time>2021-09-07T12:07:36.000Z</time>
      </trkpt>
      <trkpt lat="43.77665" lon="6.24757">
        <ele>859.9</ele>
        <time>2021-09-07T12:07:37.000Z</time>
      </trkpt>
      <trkpt lat="43.77663" lon="6.24754">
        <ele>859.8</ele>
        <time>2021-09-07T12:07:37.000Z</time>
      </trkpt>
      <trkpt lat="43.77665" lon="6.24756">
        <ele>859.9</ele>
        <time>2021-09-07T12:07:38.000Z</time>
      </trkpt>
      <trkpt lat="43.77666" lon="6.24758">
        <ele>860.1</ele>
        <time>2021-09-07T12:07:39.000Z</time>
      </trkpt>
      <trkpt lat="43.77672" lon="6.24766">
        <ele>860.5</ele>
        <time>2021-09-07T12:07:41.000Z</time>
      </trkpt>
      <trkpt lat="43.77673" lon="6.24768">
        <ele>860.7</ele>
        <time>2021-09-07T12:07:43.000Z</time>
      </trkpt>
      <trkpt lat="43.77676" lon="6.24773">
        <ele>861</ele>
        <time>2021-09-07T12:07:44.000Z</time>
      </trkpt>
      <trkpt lat="43.77678" lon="6.24774">
        <ele>861.1</ele>
        <time>2021-09-07T12:07:46.000Z</time>
      </trkpt>
      <trkpt lat="43.77682" lon="6.24778">
        <ele>861.4</ele>
        <time>2021-09-07T12:07:47.000Z</time>
      </trkpt>
      <trkpt lat="43.77683" lon="6.24779">
        <ele>861.6</ele>
        <time>2021-09-07T12:07:49.000Z</time>
      </trkpt>
      <trkpt lat="43.77685" lon="6.24781">
        <ele>861.9</ele>
        <time>2021-09-07T12:07:49.000Z</time>
      </trkpt>
      <trkpt lat="43.77686" lon="6.24782">
        <ele>862.2</ele>
        <time>2021-09-07T12:07:50.000Z</time>
      </trkpt>
      <trkpt lat="43.77691" lon="6.24786">
        <ele>862.7</ele>
        <time>2021-09-07T12:07:54.000Z</time>
      </trkpt>
      <trkpt lat="43.77693" lon="6.24787">
        <ele>862.7</ele>
        <time>2021-09-07T12:07:55.000Z</time>
      </trkpt>
      <trkpt lat="43.77691" lon="6.24786">
        <ele>862.7</ele>
        <time>2021-09-07T12:07:55.000Z</time>
      </trkpt>
      <trkpt lat="43.77694" lon="6.24788">
        <ele>862.9</ele>
        <time>2021-09-07T12:07:56.000Z</time>
      </trkpt>
      <trkpt lat="43.77692" lon="6.24786">
        <ele>862.6</ele>
        <time>2021-09-07T12:07:56.000Z</time>
      </trkpt>
      <trkpt lat="43.77693" lon="6.24788">
        <ele>862.8</ele>
        <time>2021-09-07T12:07:57.000Z</time>
      </trkpt>
      <trkpt lat="43.77694" lon="6.24789">
        <ele>863</ele>
        <time>2021-09-07T12:07:58.000Z</time>
      </trkpt>
      <trkpt lat="43.77695" lon="6.24791">
        <ele>863.4</ele>
        <time>2021-09-07T12:07:58.000Z</time>
      </trkpt>
      <trkpt lat="43.77695" lon="6.24791">
        <ele>863.5</ele>
        <time>2021-09-07T12:08:00.000Z</time>
      </trkpt>
      <trkpt lat="43.77698" lon="6.24793">
        <ele>863.7</ele>
        <time>2021-09-07T12:08:00.000Z</time>
      </trkpt>
      <trkpt lat="43.77699" lon="6.24795">
        <ele>864</ele>
        <time>2021-09-07T12:08:01.000Z</time>
      </trkpt>
      <trkpt lat="43.777" lon="6.24796">
        <ele>864.2</ele>
        <time>2021-09-07T12:08:02.000Z</time>
      </trkpt>
      <trkpt lat="43.77698" lon="6.24794">
        <ele>863.7</ele>
        <time>2021-09-07T12:08:02.000Z</time>
      </trkpt>
      <trkpt lat="43.77699" lon="6.24796">
        <ele>864.1</ele>
        <time>2021-09-07T12:08:03.000Z</time>
      </trkpt>
      <trkpt lat="43.77701" lon="6.24797">
        <ele>864.3</ele>
        <time>2021-09-07T12:08:04.000Z</time>
      </trkpt>
      <trkpt lat="43.77704" lon="6.24801">
        <ele>864.6</ele>
        <time>2021-09-07T12:08:05.000Z</time>
      </trkpt>
      <trkpt lat="43.77706" lon="6.24803">
        <ele>864.8</ele>
        <time>2021-09-07T12:08:06.000Z</time>
      </trkpt>
      <trkpt lat="43.77705" lon="6.24803">
        <ele>864.8</ele>
        <time>2021-09-07T12:08:07.000Z</time>
      </trkpt>
      <trkpt lat="43.77707" lon="6.24805">
        <ele>864.9</ele>
        <time>2021-09-07T12:08:07.000Z</time>
      </trkpt>
      <trkpt lat="43.77709" lon="6.24809">
        <ele>865.4</ele>
        <time>2021-09-07T12:08:10.000Z</time>
      </trkpt>
      <trkpt lat="43.7771" lon="6.24811">
        <ele>865.7</ele>
        <time>2021-09-07T12:08:11.000Z</time>
      </trkpt>
      <trkpt lat="43.77709" lon="6.2481">
        <ele>865.5</ele>
        <time>2021-09-07T12:08:12.000Z</time>
      </trkpt>
      <trkpt lat="43.77711" lon="6.24812">
        <ele>865.7</ele>
        <time>2021-09-07T12:08:13.000Z</time>
      </trkpt>
      <trkpt lat="43.77713" lon="6.24814">
        <ele>865.8</ele>
        <time>2021-09-07T12:08:13.000Z</time>
      </trkpt>
      <trkpt lat="43.77714" lon="6.24815">
        <ele>866</ele>
        <time>2021-09-07T12:08:15.000Z</time>
      </trkpt>
      <trkpt lat="43.77715" lon="6.24818">
        <ele>865.9</ele>
        <time>2021-09-07T12:08:15.000Z</time>
      </trkpt>
      <trkpt lat="43.77717" lon="6.2482">
        <ele>866.3</ele>
        <time>2021-09-07T12:08:17.000Z</time>
      </trkpt>
      <trkpt lat="43.77721" lon="6.2483">
        <ele>867.2</ele>
        <time>2021-09-07T12:08:20.000Z</time>
      </trkpt>
      <trkpt lat="43.77722" lon="6.24833">
        <ele>867.2</ele>
        <time>2021-09-07T12:08:22.000Z</time>
      </trkpt>
      <trkpt lat="43.77723" lon="6.24837">
        <ele>867.7</ele>
        <time>2021-09-07T12:08:22.000Z</time>
      </trkpt>
      <trkpt lat="43.77724" lon="6.24839">
        <ele>867.8</ele>
        <time>2021-09-07T12:08:23.000Z</time>
      </trkpt>
      <trkpt lat="43.77727" lon="6.24845">
        <ele>867.9</ele>
        <time>2021-09-07T12:08:25.000Z</time>
      </trkpt>
      <trkpt lat="43.77727" lon="6.24847">
        <ele>868.1</ele>
        <time>2021-09-07T12:08:27.000Z</time>
      </trkpt>
      <trkpt lat="43.77728" lon="6.2485">
        <ele>868.2</ele>
        <time>2021-09-07T12:08:27.000Z</time>
      </trkpt>
      <trkpt lat="43.77728" lon="6.24852">
        <ele>868.3</ele>
        <time>2021-09-07T12:08:29.000Z</time>
      </trkpt>
      <trkpt lat="43.77728" lon="6.24855">
        <ele>868.5</ele>
        <time>2021-09-07T12:08:29.000Z</time>
      </trkpt>
      <trkpt lat="43.77728" lon="6.24858">
        <ele>868.6</ele>
        <time>2021-09-07T12:08:30.000Z</time>
      </trkpt>
      <trkpt lat="43.77727" lon="6.24862">
        <ele>868.7</ele>
        <time>2021-09-07T12:08:31.000Z</time>
      </trkpt>
      <trkpt lat="43.77727" lon="6.24864">
        <ele>869</ele>
        <time>2021-09-07T12:08:32.000Z</time>
      </trkpt>
      <trkpt lat="43.77727" lon="6.24869">
        <ele>869.1</ele>
        <time>2021-09-07T12:08:34.000Z</time>
      </trkpt>
      <trkpt lat="43.77726" lon="6.24871">
        <ele>869.5</ele>
        <time>2021-09-07T12:08:35.000Z</time>
      </trkpt>
      <trkpt lat="43.77725" lon="6.24874">
        <ele>869.6</ele>
        <time>2021-09-07T12:08:36.000Z</time>
      </trkpt>
      <trkpt lat="43.77726" lon="6.2487">
        <ele>869.4</ele>
        <time>2021-09-07T12:08:36.000Z</time>
      </trkpt>
      <trkpt lat="43.77726" lon="6.24873">
        <ele>869.6</ele>
        <time>2021-09-07T12:08:37.000Z</time>
      </trkpt>
      <trkpt lat="43.77725" lon="6.24876">
        <ele>869.7</ele>
        <time>2021-09-07T12:08:38.000Z</time>
      </trkpt>
      <trkpt lat="43.77725" lon="6.24879">
        <ele>869.9</ele>
        <time>2021-09-07T12:08:38.000Z</time>
      </trkpt>
      <trkpt lat="43.77724" lon="6.24881">
        <ele>870</ele>
        <time>2021-09-07T12:08:39.000Z</time>
      </trkpt>
      <trkpt lat="43.77725" lon="6.2488">
        <ele>870</ele>
        <time>2021-09-07T12:08:40.000Z</time>
      </trkpt>
      <trkpt lat="43.77724" lon="6.24884">
        <ele>870.2</ele>
        <time>2021-09-07T12:08:40.000Z</time>
      </trkpt>
      <trkpt lat="43.77724" lon="6.24887">
        <ele>870.8</ele>
        <time>2021-09-07T12:08:42.000Z</time>
      </trkpt>
      <trkpt lat="43.77723" lon="6.24889">
        <ele>870.8</ele>
        <time>2021-09-07T12:08:43.000Z</time>
      </trkpt>
      <trkpt lat="43.77723" lon="6.2489">
        <ele>871.1</ele>
        <time>2021-09-07T12:08:44.000Z</time>
      </trkpt>
      <trkpt lat="43.77724" lon="6.24887">
        <ele>871</ele>
        <time>2021-09-07T12:08:44.000Z</time>
      </trkpt>
      <trkpt lat="43.77723" lon="6.24892">
        <ele>871.1</ele>
        <time>2021-09-07T12:08:45.000Z</time>
      </trkpt>
      <trkpt lat="43.77723" lon="6.2489">
        <ele>870.9</ele>
        <time>2021-09-07T12:08:45.000Z</time>
      </trkpt>
      <trkpt lat="43.77723" lon="6.24892">
        <ele>871.1</ele>
        <time>2021-09-07T12:08:46.000Z</time>
      </trkpt>
      <trkpt lat="43.77723" lon="6.24893">
        <ele>871.3</ele>
        <time>2021-09-07T12:08:47.000Z</time>
      </trkpt>
      <trkpt lat="43.77722" lon="6.24894">
        <ele>871.6</ele>
        <time>2021-09-07T12:08:47.000Z</time>
      </trkpt>
      <trkpt lat="43.77721" lon="6.24895">
        <ele>871.6</ele>
        <time>2021-09-07T12:08:49.000Z</time>
      </trkpt>
      <trkpt lat="43.77719" lon="6.24899">
        <ele>872.1</ele>
        <time>2021-09-07T12:08:50.000Z</time>
      </trkpt>
      <trkpt lat="43.77718" lon="6.249">
        <ele>872</ele>
        <time>2021-09-07T12:08:52.000Z</time>
      </trkpt>
      <trkpt lat="43.77716" lon="6.24905">
        <ele>872.5</ele>
        <time>2021-09-07T12:08:53.000Z</time>
      </trkpt>
      <trkpt lat="43.77715" lon="6.24908">
        <ele>872.5</ele>
        <time>2021-09-07T12:08:54.000Z</time>
      </trkpt>
      <trkpt lat="43.77714" lon="6.2491">
        <ele>872.9</ele>
        <time>2021-09-07T12:08:55.000Z</time>
      </trkpt>
      <trkpt lat="43.77715" lon="6.24907">
        <ele>872.5</ele>
        <time>2021-09-07T12:08:55.000Z</time>
      </trkpt>
      <trkpt lat="43.77714" lon="6.24909">
        <ele>872.7</ele>
        <time>2021-09-07T12:08:56.000Z</time>
      </trkpt>
      <trkpt lat="43.77713" lon="6.24912">
        <ele>873</ele>
        <time>2021-09-07T12:08:56.000Z</time>
      </trkpt>
      <trkpt lat="43.77711" lon="6.24916">
        <ele>873.2</ele>
        <time>2021-09-07T12:08:58.000Z</time>
      </trkpt>
      <trkpt lat="43.77709" lon="6.24917">
        <ele>873.6</ele>
        <time>2021-09-07T12:08:59.000Z</time>
      </trkpt>
      <trkpt lat="43.77708" lon="6.24921">
        <ele>873.8</ele>
        <time>2021-09-07T12:09:02.000Z</time>
      </trkpt>
      <trkpt lat="43.77706" lon="6.24924">
        <ele>874.2</ele>
        <time>2021-09-07T12:09:03.000Z</time>
      </trkpt>
      <trkpt lat="43.77707" lon="6.24923">
        <ele>874</ele>
        <time>2021-09-07T12:09:04.000Z</time>
      </trkpt>
      <trkpt lat="43.77705" lon="6.24925">
        <ele>874</ele>
        <time>2021-09-07T12:09:05.000Z</time>
      </trkpt>
      <trkpt lat="43.77704" lon="6.24929">
        <ele>874</ele>
        <time>2021-09-07T12:09:05.000Z</time>
      </trkpt>
      <trkpt lat="43.77703" lon="6.24931">
        <ele>874.2</ele>
        <time>2021-09-07T12:09:06.000Z</time>
      </trkpt>
      <trkpt lat="43.77703" lon="6.2493">
        <ele>874</ele>
        <time>2021-09-07T12:09:07.000Z</time>
      </trkpt>
      <trkpt lat="43.77702" lon="6.24933">
        <ele>874.3</ele>
        <time>2021-09-07T12:09:08.000Z</time>
      </trkpt>
      <trkpt lat="43.77698" lon="6.24942">
        <ele>874.9</ele>
        <time>2021-09-07T12:09:13.000Z</time>
      </trkpt>
      <trkpt lat="43.7769" lon="6.24956">
        <ele>875.9</ele>
        <time>2021-09-07T12:09:17.000Z</time>
      </trkpt>
      <trkpt lat="43.77691" lon="6.24954">
        <ele>875.7</ele>
        <time>2021-09-07T12:09:18.000Z</time>
      </trkpt>
      <trkpt lat="43.77689" lon="6.24959">
        <ele>876</ele>
        <time>2021-09-07T12:09:19.000Z</time>
      </trkpt>
      <trkpt lat="43.77687" lon="6.24964">
        <ele>876.3</ele>
        <time>2021-09-07T12:09:20.000Z</time>
      </trkpt>
      <trkpt lat="43.77687" lon="6.24964">
        <ele>876.2</ele>
        <time>2021-09-07T12:09:22.000Z</time>
      </trkpt>
      <trkpt lat="43.77684" lon="6.2497">
        <ele>876.7</ele>
        <time>2021-09-07T12:09:23.000Z</time>
      </trkpt>
      <trkpt lat="43.77683" lon="6.24971">
        <ele>877</ele>
        <time>2021-09-07T12:09:25.000Z</time>
      </trkpt>
      <trkpt lat="43.77682" lon="6.24973">
        <ele>877.4</ele>
        <time>2021-09-07T12:09:25.000Z</time>
      </trkpt>
      <trkpt lat="43.77681" lon="6.24975">
        <ele>877.4</ele>
        <time>2021-09-07T12:09:27.000Z</time>
      </trkpt>
      <trkpt lat="43.77679" lon="6.24979">
        <ele>877.6</ele>
        <time>2021-09-07T12:09:28.000Z</time>
      </trkpt>
      <trkpt lat="43.77678" lon="6.24981">
        <ele>877.6</ele>
        <time>2021-09-07T12:09:29.000Z</time>
      </trkpt>
      <trkpt lat="43.77677" lon="6.24983">
        <ele>878.1</ele>
        <time>2021-09-07T12:09:30.000Z</time>
      </trkpt>
      <trkpt lat="43.77678" lon="6.24981">
        <ele>877.6</ele>
        <time>2021-09-07T12:09:30.000Z</time>
      </trkpt>
      <trkpt lat="43.77677" lon="6.24982">
        <ele>877.9</ele>
        <time>2021-09-07T12:09:31.000Z</time>
      </trkpt>
      <trkpt lat="43.77676" lon="6.24984">
        <ele>878.2</ele>
        <time>2021-09-07T12:09:32.000Z</time>
      </trkpt>
      <trkpt lat="43.77672" lon="6.24991">
        <ele>878.6</ele>
        <time>2021-09-07T12:09:33.000Z</time>
      </trkpt>
      <trkpt lat="43.7767" lon="6.24994">
        <ele>878.8</ele>
        <time>2021-09-07T12:09:34.000Z</time>
      </trkpt>
      <trkpt lat="43.7767" lon="6.24993">
        <ele>878.7</ele>
        <time>2021-09-07T12:09:35.000Z</time>
      </trkpt>
      <trkpt lat="43.77669" lon="6.24996">
        <ele>878.9</ele>
        <time>2021-09-07T12:09:36.000Z</time>
      </trkpt>
      <trkpt lat="43.77668" lon="6.24998">
        <ele>879.1</ele>
        <time>2021-09-07T12:09:36.000Z</time>
      </trkpt>
      <trkpt lat="43.77667" lon="6.24998">
        <ele>879.1</ele>
        <time>2021-09-07T12:09:38.000Z</time>
      </trkpt>
      <trkpt lat="43.77665" lon="6.25">
        <ele>879.6</ele>
        <time>2021-09-07T12:09:38.000Z</time>
      </trkpt>
      <trkpt lat="43.77665" lon="6.25001">
        <ele>879.7</ele>
        <time>2021-09-07T12:09:40.000Z</time>
      </trkpt>
      <trkpt lat="43.77664" lon="6.25003">
        <ele>880</ele>
        <time>2021-09-07T12:09:40.000Z</time>
      </trkpt>
      <trkpt lat="43.77663" lon="6.25004">
        <ele>880.2</ele>
        <time>2021-09-07T12:09:41.000Z</time>
      </trkpt>
      <trkpt lat="43.77662" lon="6.25006">
        <ele>880.2</ele>
        <time>2021-09-07T12:09:42.000Z</time>
      </trkpt>
      <trkpt lat="43.77664" lon="6.25004">
        <ele>880.1</ele>
        <time>2021-09-07T12:09:42.000Z</time>
      </trkpt>
      <trkpt lat="43.77661" lon="6.25008">
        <ele>880.4</ele>
        <time>2021-09-07T12:09:43.000Z</time>
      </trkpt>
      <trkpt lat="43.77663" lon="6.25005">
        <ele>880.2</ele>
        <time>2021-09-07T12:09:43.000Z</time>
      </trkpt>
      <trkpt lat="43.77662" lon="6.25008">
        <ele>880.3</ele>
        <time>2021-09-07T12:09:44.000Z</time>
      </trkpt>
      <trkpt lat="43.77661" lon="6.2501">
        <ele>880.4</ele>
        <time>2021-09-07T12:09:45.000Z</time>
      </trkpt>
      <trkpt lat="43.7766" lon="6.25013">
        <ele>880.6</ele>
        <time>2021-09-07T12:09:45.000Z</time>
      </trkpt>
      <trkpt lat="43.77659" lon="6.25016">
        <ele>880.8</ele>
        <time>2021-09-07T12:09:47.000Z</time>
      </trkpt>
      <trkpt lat="43.77659" lon="6.2502">
        <ele>881</ele>
        <time>2021-09-07T12:09:47.000Z</time>
      </trkpt>
      <trkpt lat="43.77658" lon="6.25024">
        <ele>881.2</ele>
        <time>2021-09-07T12:09:48.000Z</time>
      </trkpt>
      <trkpt lat="43.77658" lon="6.25022">
        <ele>881.2</ele>
        <time>2021-09-07T12:09:49.000Z</time>
      </trkpt>
      <trkpt lat="43.77657" lon="6.25026">
        <ele>881.3</ele>
        <time>2021-09-07T12:09:50.000Z</time>
      </trkpt>
      <trkpt lat="43.77656" lon="6.25029">
        <ele>881.5</ele>
        <time>2021-09-07T12:09:50.000Z</time>
      </trkpt>
      <trkpt lat="43.77656" lon="6.2503">
        <ele>881.5</ele>
        <time>2021-09-07T12:09:52.000Z</time>
      </trkpt>
      <trkpt lat="43.77655" lon="6.25034">
        <ele>881.7</ele>
        <time>2021-09-07T12:09:52.000Z</time>
      </trkpt>
      <trkpt lat="43.77654" lon="6.25037">
        <ele>881.7</ele>
        <time>2021-09-07T12:09:53.000Z</time>
      </trkpt>
      <trkpt lat="43.77654" lon="6.25036">
        <ele>881.7</ele>
        <time>2021-09-07T12:09:54.000Z</time>
      </trkpt>
      <trkpt lat="43.77653" lon="6.25039">
        <ele>881.9</ele>
        <time>2021-09-07T12:09:55.000Z</time>
      </trkpt>
      <trkpt lat="43.77652" lon="6.25049">
        <ele>882.6</ele>
        <time>2021-09-07T12:09:57.000Z</time>
      </trkpt>
      <trkpt lat="43.77652" lon="6.25051">
        <ele>882.7</ele>
        <time>2021-09-07T12:09:59.000Z</time>
      </trkpt>
      <trkpt lat="43.77651" lon="6.25055">
        <ele>883.1</ele>
        <time>2021-09-07T12:09:59.000Z</time>
      </trkpt>
      <trkpt lat="43.77651" lon="6.25057">
        <ele>883.3</ele>
        <time>2021-09-07T12:10:01.000Z</time>
      </trkpt>
      <trkpt lat="43.77651" lon="6.2506">
        <ele>883.6</ele>
        <time>2021-09-07T12:10:01.000Z</time>
      </trkpt>
      <trkpt lat="43.77651" lon="6.25062">
        <ele>883.6</ele>
        <time>2021-09-07T12:10:02.000Z</time>
      </trkpt>
      <trkpt lat="43.77651" lon="6.25061">
        <ele>883.7</ele>
        <time>2021-09-07T12:10:03.000Z</time>
      </trkpt>
      <trkpt lat="43.77651" lon="6.25062">
        <ele>883.7</ele>
        <time>2021-09-07T12:10:04.000Z</time>
      </trkpt>
      <trkpt lat="43.7765" lon="6.25066">
        <ele>884.2</ele>
        <time>2021-09-07T12:10:04.000Z</time>
      </trkpt>
      <trkpt lat="43.77649" lon="6.25069">
        <ele>884.1</ele>
        <time>2021-09-07T12:10:05.000Z</time>
      </trkpt>
      <trkpt lat="43.77649" lon="6.25068">
        <ele>884.1</ele>
        <time>2021-09-07T12:10:06.000Z</time>
      </trkpt>
      <trkpt lat="43.77649" lon="6.25071">
        <ele>884.4</ele>
        <time>2021-09-07T12:10:07.000Z</time>
      </trkpt>
      <trkpt lat="43.77648" lon="6.25078">
        <ele>884.3</ele>
        <time>2021-09-07T12:10:08.000Z</time>
      </trkpt>
      <trkpt lat="43.77647" lon="6.25081">
        <ele>884.7</ele>
        <time>2021-09-07T12:10:09.000Z</time>
      </trkpt>
      <trkpt lat="43.77646" lon="6.25084">
        <ele>885</ele>
        <time>2021-09-07T12:10:10.000Z</time>
      </trkpt>
      <trkpt lat="43.77647" lon="6.25079">
        <ele>884.5</ele>
        <time>2021-09-07T12:10:10.000Z</time>
      </trkpt>
      <trkpt lat="43.77646" lon="6.25083">
        <ele>884.9</ele>
        <time>2021-09-07T12:10:11.000Z</time>
      </trkpt>
      <trkpt lat="43.77645" lon="6.25087">
        <ele>885.1</ele>
        <time>2021-09-07T12:10:12.000Z</time>
      </trkpt>
      <trkpt lat="43.77645" lon="6.2509">
        <ele>885.5</ele>
        <time>2021-09-07T12:10:12.000Z</time>
      </trkpt>
      <trkpt lat="43.77644" lon="6.25091">
        <ele>885.5</ele>
        <time>2021-09-07T12:10:14.000Z</time>
      </trkpt>
      <trkpt lat="43.77643" lon="6.25095">
        <ele>885.7</ele>
        <time>2021-09-07T12:10:14.000Z</time>
      </trkpt>
      <trkpt lat="43.77642" lon="6.25098">
        <ele>885.7</ele>
        <time>2021-09-07T12:10:15.000Z</time>
      </trkpt>
      <trkpt lat="43.77643" lon="6.25101">
        <ele>885.9</ele>
        <time>2021-09-07T12:10:16.000Z</time>
      </trkpt>
      <trkpt lat="43.77643" lon="6.25102">
        <ele>886.1</ele>
        <time>2021-09-07T12:10:18.000Z</time>
      </trkpt>
      <trkpt lat="43.7764" lon="6.25118">
        <ele>886.7</ele>
        <time>2021-09-07T12:10:21.000Z</time>
      </trkpt>
      <trkpt lat="43.77639" lon="6.25121">
        <ele>886.9</ele>
        <time>2021-09-07T12:10:22.000Z</time>
      </trkpt>
      <trkpt lat="43.77639" lon="6.2512">
        <ele>886.8</ele>
        <time>2021-09-07T12:10:23.000Z</time>
      </trkpt>
      <trkpt lat="43.77638" lon="6.25124">
        <ele>887.3</ele>
        <time>2021-09-07T12:10:23.000Z</time>
      </trkpt>
      <trkpt lat="43.77638" lon="6.25136">
        <ele>887.6</ele>
        <time>2021-09-07T12:10:27.000Z</time>
      </trkpt>
      <trkpt lat="43.77639" lon="6.25138">
        <ele>887.9</ele>
        <time>2021-09-07T12:10:28.000Z</time>
      </trkpt>
      <trkpt lat="43.77638" lon="6.25134">
        <ele>887.4</ele>
        <time>2021-09-07T12:10:28.000Z</time>
      </trkpt>
      <trkpt lat="43.77639" lon="6.25137">
        <ele>887.8</ele>
        <time>2021-09-07T12:10:29.000Z</time>
      </trkpt>
      <trkpt lat="43.77639" lon="6.25141">
        <ele>887.9</ele>
        <time>2021-09-07T12:10:29.000Z</time>
      </trkpt>
      <trkpt lat="43.77639" lon="6.25148">
        <ele>888.4</ele>
        <time>2021-09-07T12:10:32.000Z</time>
      </trkpt>
      <trkpt lat="43.77639" lon="6.25152">
        <ele>888.5</ele>
        <time>2021-09-07T12:10:33.000Z</time>
      </trkpt>
      <trkpt lat="43.77639" lon="6.2515">
        <ele>888.5</ele>
        <time>2021-09-07T12:10:34.000Z</time>
      </trkpt>
      <trkpt lat="43.77639" lon="6.25154">
        <ele>888.6</ele>
        <time>2021-09-07T12:10:34.000Z</time>
      </trkpt>
      <trkpt lat="43.77639" lon="6.25157">
        <ele>888.9</ele>
        <time>2021-09-07T12:10:35.000Z</time>
      </trkpt>
      <trkpt lat="43.77639" lon="6.2516">
        <ele>889.3</ele>
        <time>2021-09-07T12:10:36.000Z</time>
      </trkpt>
      <trkpt lat="43.77639" lon="6.25163">
        <ele>889.4</ele>
        <time>2021-09-07T12:10:37.000Z</time>
      </trkpt>
      <trkpt lat="43.77639" lon="6.25159">
        <ele>889.1</ele>
        <time>2021-09-07T12:10:37.000Z</time>
      </trkpt>
      <trkpt lat="43.77639" lon="6.25162">
        <ele>889.3</ele>
        <time>2021-09-07T12:10:38.000Z</time>
      </trkpt>
      <trkpt lat="43.77639" lon="6.25166">
        <ele>889.4</ele>
        <time>2021-09-07T12:10:39.000Z</time>
      </trkpt>
      <trkpt lat="43.77638" lon="6.25175">
        <ele>889.9</ele>
        <time>2021-09-07T12:10:41.000Z</time>
      </trkpt>
      <trkpt lat="43.77638" lon="6.25178">
        <ele>890.1</ele>
        <time>2021-09-07T12:10:42.000Z</time>
      </trkpt>
      <trkpt lat="43.77638" lon="6.25177">
        <ele>890.1</ele>
        <time>2021-09-07T12:10:43.000Z</time>
      </trkpt>
      <trkpt lat="43.77638" lon="6.25181">
        <ele>890.2</ele>
        <time>2021-09-07T12:10:44.000Z</time>
      </trkpt>
      <trkpt lat="43.77636" lon="6.25193">
        <ele>890.3</ele>
        <time>2021-09-07T12:10:47.000Z</time>
      </trkpt>
      <trkpt lat="43.77635" lon="6.25195">
        <ele>890.7</ele>
        <time>2021-09-07T12:10:48.000Z</time>
      </trkpt>
      <trkpt lat="43.77636" lon="6.25194">
        <ele>890.5</ele>
        <time>2021-09-07T12:10:49.000Z</time>
      </trkpt>
      <trkpt lat="43.77634" lon="6.25198">
        <ele>890.8</ele>
        <time>2021-09-07T12:10:50.000Z</time>
      </trkpt>
      <trkpt lat="43.77633" lon="6.25204">
        <ele>891</ele>
        <time>2021-09-07T12:10:51.000Z</time>
      </trkpt>
      <trkpt lat="43.77633" lon="6.25207">
        <ele>891.2</ele>
        <time>2021-09-07T12:10:52.000Z</time>
      </trkpt>
      <trkpt lat="43.77633" lon="6.25216">
        <ele>891.7</ele>
        <time>2021-09-07T12:10:56.000Z</time>
      </trkpt>
      <trkpt lat="43.77633" lon="6.25214">
        <ele>891.7</ele>
        <time>2021-09-07T12:10:57.000Z</time>
      </trkpt>
      <trkpt lat="43.77633" lon="6.25218">
        <ele>891.8</ele>
        <time>2021-09-07T12:10:57.000Z</time>
      </trkpt>
      <trkpt lat="43.77632" lon="6.25228">
        <ele>892.5</ele>
        <time>2021-09-07T12:11:00.000Z</time>
      </trkpt>
      <trkpt lat="43.77631" lon="6.25231">
        <ele>892.8</ele>
        <time>2021-09-07T12:11:01.000Z</time>
      </trkpt>
      <trkpt lat="43.77631" lon="6.25229">
        <ele>892.7</ele>
        <time>2021-09-07T12:11:02.000Z</time>
      </trkpt>
      <trkpt lat="43.7763" lon="6.25234">
        <ele>892.8</ele>
        <time>2021-09-07T12:11:03.000Z</time>
      </trkpt>
      <trkpt lat="43.7763" lon="6.25237">
        <ele>893</ele>
        <time>2021-09-07T12:11:03.000Z</time>
      </trkpt>
      <trkpt lat="43.77629" lon="6.25239">
        <ele>892.9</ele>
        <time>2021-09-07T12:11:05.000Z</time>
      </trkpt>
      <trkpt lat="43.77628" lon="6.25242">
        <ele>893.2</ele>
        <time>2021-09-07T12:11:05.000Z</time>
      </trkpt>
      <trkpt lat="43.77627" lon="6.25244">
        <ele>893.3</ele>
        <time>2021-09-07T12:11:07.000Z</time>
      </trkpt>
      <trkpt lat="43.77626" lon="6.25247">
        <ele>893.6</ele>
        <time>2021-09-07T12:11:07.000Z</time>
      </trkpt>
      <trkpt lat="43.77625" lon="6.2525">
        <ele>893.7</ele>
        <time>2021-09-07T12:11:08.000Z</time>
      </trkpt>
      <trkpt lat="43.77624" lon="6.25252">
        <ele>893.7</ele>
        <time>2021-09-07T12:11:09.000Z</time>
      </trkpt>
      <trkpt lat="43.77626" lon="6.25248">
        <ele>893.7</ele>
        <time>2021-09-07T12:11:09.000Z</time>
      </trkpt>
      <trkpt lat="43.77623" lon="6.25255">
        <ele>893.8</ele>
        <time>2021-09-07T12:11:10.000Z</time>
      </trkpt>
      <trkpt lat="43.77624" lon="6.25252">
        <ele>893.7</ele>
        <time>2021-09-07T12:11:10.000Z</time>
      </trkpt>
      <trkpt lat="43.77623" lon="6.25254">
        <ele>893.7</ele>
        <time>2021-09-07T12:11:11.000Z</time>
      </trkpt>
      <trkpt lat="43.77623" lon="6.25257">
        <ele>894.1</ele>
        <time>2021-09-07T12:11:12.000Z</time>
      </trkpt>
      <trkpt lat="43.77622" lon="6.2526">
        <ele>894.2</ele>
        <time>2021-09-07T12:11:12.000Z</time>
      </trkpt>
      <trkpt lat="43.77621" lon="6.25262">
        <ele>894.2</ele>
        <time>2021-09-07T12:11:13.000Z</time>
      </trkpt>
      <trkpt lat="43.7762" lon="6.25265">
        <ele>894.3</ele>
        <time>2021-09-07T12:11:14.000Z</time>
      </trkpt>
      <trkpt lat="43.77621" lon="6.25261">
        <ele>894.2</ele>
        <time>2021-09-07T12:11:14.000Z</time>
      </trkpt>
      <trkpt lat="43.7762" lon="6.25264">
        <ele>894.2</ele>
        <time>2021-09-07T12:11:15.000Z</time>
      </trkpt>
      <trkpt lat="43.77619" lon="6.25266">
        <ele>894.4</ele>
        <time>2021-09-07T12:11:16.000Z</time>
      </trkpt>
      <trkpt lat="43.77617" lon="6.25275">
        <ele>895.1</ele>
        <time>2021-09-07T12:11:18.000Z</time>
      </trkpt>
      <trkpt lat="43.77616" lon="6.25278">
        <ele>895.1</ele>
        <time>2021-09-07T12:11:20.000Z</time>
      </trkpt>
      <trkpt lat="43.77614" lon="6.2528">
        <ele>895.5</ele>
        <time>2021-09-07T12:11:20.000Z</time>
      </trkpt>
      <trkpt lat="43.77613" lon="6.25282">
        <ele>895.6</ele>
        <time>2021-09-07T12:11:22.000Z</time>
      </trkpt>
      <trkpt lat="43.77612" lon="6.25284">
        <ele>895.6</ele>
        <time>2021-09-07T12:11:22.000Z</time>
      </trkpt>
      <trkpt lat="43.77611" lon="6.25286">
        <ele>895.8</ele>
        <time>2021-09-07T12:11:23.000Z</time>
      </trkpt>
      <trkpt lat="43.77609" lon="6.25288">
        <ele>895.9</ele>
        <time>2021-09-07T12:11:24.000Z</time>
      </trkpt>
      <trkpt lat="43.77612" lon="6.25285">
        <ele>895.7</ele>
        <time>2021-09-07T12:11:24.000Z</time>
      </trkpt>
      <trkpt lat="43.7761" lon="6.25287">
        <ele>895.7</ele>
        <time>2021-09-07T12:11:25.000Z</time>
      </trkpt>
      <trkpt lat="43.77609" lon="6.25289">
        <ele>896</ele>
        <time>2021-09-07T12:11:26.000Z</time>
      </trkpt>
      <trkpt lat="43.77607" lon="6.25298">
        <ele>896.7</ele>
        <time>2021-09-07T12:11:28.000Z</time>
      </trkpt>
      <trkpt lat="43.77607" lon="6.25299">
        <ele>896.7</ele>
        <time>2021-09-07T12:11:30.000Z</time>
      </trkpt>
      <trkpt lat="43.77606" lon="6.25302">
        <ele>896.9</ele>
        <time>2021-09-07T12:11:30.000Z</time>
      </trkpt>
      <trkpt lat="43.77606" lon="6.25303">
        <ele>897</ele>
        <time>2021-09-07T12:11:32.000Z</time>
      </trkpt>
      <trkpt lat="43.77603" lon="6.2531">
        <ele>897.4</ele>
        <time>2021-09-07T12:11:33.000Z</time>
      </trkpt>
      <trkpt lat="43.77602" lon="6.25311">
        <ele>897.7</ele>
        <time>2021-09-07T12:11:35.000Z</time>
      </trkpt>
      <trkpt lat="43.77599" lon="6.25317">
        <ele>898.4</ele>
        <time>2021-09-07T12:11:37.000Z</time>
      </trkpt>
      <trkpt lat="43.77599" lon="6.25317">
        <ele>898.7</ele>
        <time>2021-09-07T12:11:39.000Z</time>
      </trkpt>
      <trkpt lat="43.77597" lon="6.2532">
        <ele>899.1</ele>
        <time>2021-09-07T12:11:39.000Z</time>
      </trkpt>
      <trkpt lat="43.77595" lon="6.25321">
        <ele>899.4</ele>
        <time>2021-09-07T12:11:41.000Z</time>
      </trkpt>
      <trkpt lat="43.7759" lon="6.2533">
        <ele>900.4</ele>
        <time>2021-09-07T12:11:45.000Z</time>
      </trkpt>
      <trkpt lat="43.77591" lon="6.25329">
        <ele>900.6</ele>
        <time>2021-09-07T12:11:46.000Z</time>
      </trkpt>
      <trkpt lat="43.7759" lon="6.25331">
        <ele>900.2</ele>
        <time>2021-09-07T12:11:47.000Z</time>
      </trkpt>
      <trkpt lat="43.77588" lon="6.25336">
        <ele>900.5</ele>
        <time>2021-09-07T12:11:48.000Z</time>
      </trkpt>
      <trkpt lat="43.77588" lon="6.25337">
        <ele>900.6</ele>
        <time>2021-09-07T12:11:50.000Z</time>
      </trkpt>
      <trkpt lat="43.77587" lon="6.2534">
        <ele>901</ele>
        <time>2021-09-07T12:11:50.000Z</time>
      </trkpt>
      <trkpt lat="43.77587" lon="6.25342">
        <ele>901.2</ele>
        <time>2021-09-07T12:11:51.000Z</time>
      </trkpt>
      <trkpt lat="43.77587" lon="6.25342">
        <ele>901.2</ele>
        <time>2021-09-07T12:11:52.000Z</time>
      </trkpt>
      <trkpt lat="43.77586" lon="6.25344">
        <ele>901.2</ele>
        <time>2021-09-07T12:11:53.000Z</time>
      </trkpt>
      <trkpt lat="43.77585" lon="6.25346">
        <ele>901.6</ele>
        <time>2021-09-07T12:11:53.000Z</time>
      </trkpt>
      <trkpt lat="43.77584" lon="6.25348">
        <ele>901.8</ele>
        <time>2021-09-07T12:11:54.000Z</time>
      </trkpt>
      <trkpt lat="43.77583" lon="6.2535">
        <ele>901.7</ele>
        <time>2021-09-07T12:11:55.000Z</time>
      </trkpt>
      <trkpt lat="43.77585" lon="6.25347">
        <ele>901.8</ele>
        <time>2021-09-07T12:11:55.000Z</time>
      </trkpt>
      <trkpt lat="43.77584" lon="6.25349">
        <ele>901.8</ele>
        <time>2021-09-07T12:11:56.000Z</time>
      </trkpt>
      <trkpt lat="43.77583" lon="6.25352">
        <ele>902</ele>
        <time>2021-09-07T12:11:57.000Z</time>
      </trkpt>
      <trkpt lat="43.77583" lon="6.25354">
        <ele>902.2</ele>
        <time>2021-09-07T12:11:57.000Z</time>
      </trkpt>
      <trkpt lat="43.77582" lon="6.25355">
        <ele>902.3</ele>
        <time>2021-09-07T12:11:59.000Z</time>
      </trkpt>
      <trkpt lat="43.7758" lon="6.2536">
        <ele>902.5</ele>
        <time>2021-09-07T12:11:59.000Z</time>
      </trkpt>
      <trkpt lat="43.77579" lon="6.25363">
        <ele>902.7</ele>
        <time>2021-09-07T12:12:00.000Z</time>
      </trkpt>
      <trkpt lat="43.7758" lon="6.25362">
        <ele>902.6</ele>
        <time>2021-09-07T12:12:01.000Z</time>
      </trkpt>
      <trkpt lat="43.77577" lon="6.25366">
        <ele>902.9</ele>
        <time>2021-09-07T12:12:01.000Z</time>
      </trkpt>
      <trkpt lat="43.77574" lon="6.25372">
        <ele>903.3</ele>
        <time>2021-09-07T12:12:03.000Z</time>
      </trkpt>
      <trkpt lat="43.77572" lon="6.25374">
        <ele>903.5</ele>
        <time>2021-09-07T12:12:04.000Z</time>
      </trkpt>
      <trkpt lat="43.77573" lon="6.25373">
        <ele>903.4</ele>
        <time>2021-09-07T12:12:05.000Z</time>
      </trkpt>
      <trkpt lat="43.77571" lon="6.25377">
        <ele>903.6</ele>
        <time>2021-09-07T12:12:06.000Z</time>
      </trkpt>
      <trkpt lat="43.77567" lon="6.25384">
        <ele>904.1</ele>
        <time>2021-09-07T12:12:08.000Z</time>
      </trkpt>
      <trkpt lat="43.77566" lon="6.25386">
        <ele>904.2</ele>
        <time>2021-09-07T12:12:09.000Z</time>
      </trkpt>
      <trkpt lat="43.77565" lon="6.25388">
        <ele>904.3</ele>
        <time>2021-09-07T12:12:10.000Z</time>
      </trkpt>
      <trkpt lat="43.77566" lon="6.25385">
        <ele>904.3</ele>
        <time>2021-09-07T12:12:10.000Z</time>
      </trkpt>
      <trkpt lat="43.77565" lon="6.25387">
        <ele>904.1</ele>
        <time>2021-09-07T12:12:11.000Z</time>
      </trkpt>
      <trkpt lat="43.77564" lon="6.25389">
        <ele>904.7</ele>
        <time>2021-09-07T12:12:12.000Z</time>
      </trkpt>
      <trkpt lat="43.77563" lon="6.25392">
        <ele>905</ele>
        <time>2021-09-07T12:12:13.000Z</time>
      </trkpt>
      <trkpt lat="43.77563" lon="6.25394">
        <ele>905</ele>
        <time>2021-09-07T12:12:15.000Z</time>
      </trkpt>
      <trkpt lat="43.77562" lon="6.25396">
        <ele>905.5</ele>
        <time>2021-09-07T12:12:15.000Z</time>
      </trkpt>
      <trkpt lat="43.77562" lon="6.25397">
        <ele>905.9</ele>
        <time>2021-09-07T12:12:16.000Z</time>
      </trkpt>
      <trkpt lat="43.7756" lon="6.25401">
        <ele>906.1</ele>
        <time>2021-09-07T12:12:18.000Z</time>
      </trkpt>
      <trkpt lat="43.7756" lon="6.25401">
        <ele>906.2</ele>
        <time>2021-09-07T12:12:20.000Z</time>
      </trkpt>
      <trkpt lat="43.77559" lon="6.25404">
        <ele>906.5</ele>
        <time>2021-09-07T12:12:20.000Z</time>
      </trkpt>
      <trkpt lat="43.77558" lon="6.25406">
        <ele>906.7</ele>
        <time>2021-09-07T12:12:21.000Z</time>
      </trkpt>
      <trkpt lat="43.77558" lon="6.25409">
        <ele>907</ele>
        <time>2021-09-07T12:12:22.000Z</time>
      </trkpt>
      <trkpt lat="43.77558" lon="6.25411">
        <ele>907.3</ele>
        <time>2021-09-07T12:12:23.000Z</time>
      </trkpt>
      <trkpt lat="43.77557" lon="6.25413">
        <ele>907.4</ele>
        <time>2021-09-07T12:12:24.000Z</time>
      </trkpt>
      <trkpt lat="43.77557" lon="6.25414">
        <ele>907.4</ele>
        <time>2021-09-07T12:12:26.000Z</time>
      </trkpt>
      <trkpt lat="43.77554" lon="6.25422">
        <ele>907.4</ele>
        <time>2021-09-07T12:12:27.000Z</time>
      </trkpt>
      <trkpt lat="43.77554" lon="6.25423">
        <ele>907.3</ele>
        <time>2021-09-07T12:12:29.000Z</time>
      </trkpt>
      <trkpt lat="43.77551" lon="6.25429">
        <ele>908</ele>
        <time>2021-09-07T12:12:30.000Z</time>
      </trkpt>
      <trkpt lat="43.7755" lon="6.25431">
        <ele>908</ele>
        <time>2021-09-07T12:12:32.000Z</time>
      </trkpt>
      <trkpt lat="43.77549" lon="6.25434">
        <ele>908.3</ele>
        <time>2021-09-07T12:12:32.000Z</time>
      </trkpt>
      <trkpt lat="43.77549" lon="6.25435">
        <ele>908.3</ele>
        <time>2021-09-07T12:12:34.000Z</time>
      </trkpt>
      <trkpt lat="43.77548" lon="6.2544">
        <ele>908.4</ele>
        <time>2021-09-07T12:12:34.000Z</time>
      </trkpt>
      <trkpt lat="43.77548" lon="6.2544">
        <ele>908.4</ele>
        <time>2021-09-07T12:12:34.000Z</time>
      </trkpt>
      <trkpt lat="43.77548" lon="6.25442">
        <ele>908.5</ele>
        <time>2021-09-07T12:12:36.000Z</time>
      </trkpt>
      <trkpt lat="43.77546" lon="6.25446">
        <ele>909.1</ele>
        <time>2021-09-07T12:12:36.000Z</time>
      </trkpt>
      <trkpt lat="43.77546" lon="6.25447">
        <ele>909.2</ele>
        <time>2021-09-07T12:12:38.000Z</time>
      </trkpt>
      <trkpt lat="43.77544" lon="6.25454">
        <ele>909.4</ele>
        <time>2021-09-07T12:12:38.000Z</time>
      </trkpt>
      <trkpt lat="43.77544" lon="6.25457">
        <ele>909.6</ele>
        <time>2021-09-07T12:12:39.000Z</time>
      </trkpt>
      <trkpt lat="43.77544" lon="6.25456">
        <ele>909.5</ele>
        <time>2021-09-07T12:12:40.000Z</time>
      </trkpt>
      <trkpt lat="43.77543" lon="6.25459">
        <ele>909.6</ele>
        <time>2021-09-07T12:12:41.000Z</time>
      </trkpt>
      <trkpt lat="43.77542" lon="6.25464">
        <ele>910.1</ele>
        <time>2021-09-07T12:12:41.000Z</time>
      </trkpt>
      <trkpt lat="43.77542" lon="6.25466">
        <ele>910</ele>
        <time>2021-09-07T12:12:43.000Z</time>
      </trkpt>
      <trkpt lat="43.7754" lon="6.2547">
        <ele>910.5</ele>
        <time>2021-09-07T12:12:43.000Z</time>
      </trkpt>
      <trkpt lat="43.7754" lon="6.25473">
        <ele>910.9</ele>
        <time>2021-09-07T12:12:44.000Z</time>
      </trkpt>
      <trkpt lat="43.77539" lon="6.25475">
        <ele>910.9</ele>
        <time>2021-09-07T12:12:45.000Z</time>
      </trkpt>
      <trkpt lat="43.77537" lon="6.25477">
        <ele>911</ele>
        <time>2021-09-07T12:12:47.000Z</time>
      </trkpt>
      <trkpt lat="43.77535" lon="6.25487">
        <ele>911.4</ele>
        <time>2021-09-07T12:12:49.000Z</time>
      </trkpt>
      <trkpt lat="43.77534" lon="6.2549">
        <ele>911.8</ele>
        <time>2021-09-07T12:12:50.000Z</time>
      </trkpt>
      <trkpt lat="43.77531" lon="6.25504">
        <ele>912.7</ele>
        <time>2021-09-07T12:12:54.000Z</time>
      </trkpt>
      <trkpt lat="43.77531" lon="6.25506">
        <ele>912.9</ele>
        <time>2021-09-07T12:12:55.000Z</time>
      </trkpt>
      <trkpt lat="43.77532" lon="6.25502">
        <ele>912.5</ele>
        <time>2021-09-07T12:12:55.000Z</time>
      </trkpt>
      <trkpt lat="43.7753" lon="6.25509">
        <ele>912.8</ele>
        <time>2021-09-07T12:12:56.000Z</time>
      </trkpt>
      <trkpt lat="43.77531" lon="6.25505">
        <ele>912.8</ele>
        <time>2021-09-07T12:12:56.000Z</time>
      </trkpt>
      <trkpt lat="43.7753" lon="6.25508">
        <ele>912.8</ele>
        <time>2021-09-07T12:12:57.000Z</time>
      </trkpt>
      <trkpt lat="43.77529" lon="6.25511">
        <ele>913.1</ele>
        <time>2021-09-07T12:12:58.000Z</time>
      </trkpt>
      <trkpt lat="43.77528" lon="6.25516">
        <ele>913.8</ele>
        <time>2021-09-07T12:13:00.000Z</time>
      </trkpt>
      <trkpt lat="43.77527" lon="6.25516">
        <ele>913.9</ele>
        <time>2021-09-07T12:13:02.000Z</time>
      </trkpt>
      <trkpt lat="43.77526" lon="6.25517">
        <ele>914.1</ele>
        <time>2021-09-07T12:13:02.000Z</time>
      </trkpt>
      <trkpt lat="43.77525" lon="6.25518">
        <ele>914.4</ele>
        <time>2021-09-07T12:13:03.000Z</time>
      </trkpt>
      <trkpt lat="43.77525" lon="6.25518">
        <ele>914.3</ele>
        <time>2021-09-07T12:13:04.000Z</time>
      </trkpt>
      <trkpt lat="43.77525" lon="6.25518">
        <ele>914.4</ele>
        <time>2021-09-07T12:13:05.000Z</time>
      </trkpt>
      <trkpt lat="43.77525" lon="6.2552">
        <ele>914.7</ele>
        <time>2021-09-07T12:13:05.000Z</time>
      </trkpt>
      <trkpt lat="43.77525" lon="6.2552">
        <ele>914.8</ele>
        <time>2021-09-07T12:13:07.000Z</time>
      </trkpt>
      <trkpt lat="43.77524" lon="6.25522">
        <ele>915.2</ele>
        <time>2021-09-07T12:13:08.000Z</time>
      </trkpt>
      <trkpt lat="43.77523" lon="6.25523">
        <ele>915.5</ele>
        <time>2021-09-07T12:13:09.000Z</time>
      </trkpt>
      <trkpt lat="43.77522" lon="6.25525">
        <ele>915.8</ele>
        <time>2021-09-07T12:13:10.000Z</time>
      </trkpt>
      <trkpt lat="43.77522" lon="6.25524">
        <ele>915.5</ele>
        <time>2021-09-07T12:13:11.000Z</time>
      </trkpt>
      <trkpt lat="43.77521" lon="6.25526">
        <ele>915.8</ele>
        <time>2021-09-07T12:13:12.000Z</time>
      </trkpt>
      <trkpt lat="43.77518" lon="6.25538">
        <ele>916.6</ele>
        <time>2021-09-07T12:13:14.000Z</time>
      </trkpt>
      <trkpt lat="43.77516" lon="6.25544">
        <ele>916.9</ele>
        <time>2021-09-07T12:13:16.000Z</time>
      </trkpt>
      <trkpt lat="43.77517" lon="6.2554">
        <ele>916.6</ele>
        <time>2021-09-07T12:13:17.000Z</time>
      </trkpt>
      <trkpt lat="43.77516" lon="6.25551">
        <ele>917.1</ele>
        <time>2021-09-07T12:13:18.000Z</time>
      </trkpt>
      <trkpt lat="43.77516" lon="6.25548">
        <ele>916.9</ele>
        <time>2021-09-07T12:13:19.000Z</time>
      </trkpt>
      <trkpt lat="43.77516" lon="6.25554">
        <ele>917.5</ele>
        <time>2021-09-07T12:13:21.000Z</time>
      </trkpt>
      <trkpt lat="43.77516" lon="6.25568">
        <ele>918.3</ele>
        <time>2021-09-07T12:13:22.000Z</time>
      </trkpt>
      <trkpt lat="43.77517" lon="6.25572">
        <ele>918.5</ele>
        <time>2021-09-07T12:13:23.000Z</time>
      </trkpt>
      <trkpt lat="43.77517" lon="6.25577">
        <ele>918.8</ele>
        <time>2021-09-07T12:13:24.000Z</time>
      </trkpt>
      <trkpt lat="43.77517" lon="6.2558">
        <ele>919</ele>
        <time>2021-09-07T12:13:25.000Z</time>
      </trkpt>
      <trkpt lat="43.77517" lon="6.25571">
        <ele>918.5</ele>
        <time>2021-09-07T12:13:25.000Z</time>
      </trkpt>
      <trkpt lat="43.77517" lon="6.25575">
        <ele>918.7</ele>
        <time>2021-09-07T12:13:26.000Z</time>
      </trkpt>
      <trkpt lat="43.77519" lon="6.25585">
        <ele>919.2</ele>
        <time>2021-09-07T12:13:27.000Z</time>
      </trkpt>
      <trkpt lat="43.77519" lon="6.25587">
        <ele>919.3</ele>
        <time>2021-09-07T12:13:28.000Z</time>
      </trkpt>
      <trkpt lat="43.7752" lon="6.2559">
        <ele>919.5</ele>
        <time>2021-09-07T12:13:29.000Z</time>
      </trkpt>
      <trkpt lat="43.77519" lon="6.25586">
        <ele>919.4</ele>
        <time>2021-09-07T12:13:30.000Z</time>
      </trkpt>
      <trkpt lat="43.77523" lon="6.25594">
        <ele>920</ele>
        <time>2021-09-07T12:13:31.000Z</time>
      </trkpt>
      <trkpt lat="43.77524" lon="6.25596">
        <ele>920.1</ele>
        <time>2021-09-07T12:13:32.000Z</time>
      </trkpt>
      <trkpt lat="43.77525" lon="6.25598">
        <ele>920.2</ele>
        <time>2021-09-07T12:13:33.000Z</time>
      </trkpt>
      <trkpt lat="43.77523" lon="6.25595">
        <ele>920.1</ele>
        <time>2021-09-07T12:13:34.000Z</time>
      </trkpt>
      <trkpt lat="43.77526" lon="6.256">
        <ele>920.6</ele>
        <time>2021-09-07T12:13:34.000Z</time>
      </trkpt>
      <trkpt lat="43.77526" lon="6.256">
        <ele>920.6</ele>
        <time>2021-09-07T12:13:34.000Z</time>
      </trkpt>
      <trkpt lat="43.77527" lon="6.25603">
        <ele>920.9</ele>
        <time>2021-09-07T12:13:35.000Z</time>
      </trkpt>
      <trkpt lat="43.77529" lon="6.25609">
        <ele>921.4</ele>
        <time>2021-09-07T12:13:37.000Z</time>
      </trkpt>
      <trkpt lat="43.77527" lon="6.25601">
        <ele>920.7</ele>
        <time>2021-09-07T12:13:37.000Z</time>
      </trkpt>
      <trkpt lat="43.7753" lon="6.25612">
        <ele>921.6</ele>
        <time>2021-09-07T12:13:38.000Z</time>
      </trkpt>
      <trkpt lat="43.77528" lon="6.25606">
        <ele>921.2</ele>
        <time>2021-09-07T12:13:38.000Z</time>
      </trkpt>
      <trkpt lat="43.77531" lon="6.25614">
        <ele>921.6</ele>
        <time>2021-09-07T12:13:39.000Z</time>
      </trkpt>
      <trkpt lat="43.77529" lon="6.2561">
        <ele>921.5</ele>
        <time>2021-09-07T12:13:40.000Z</time>
      </trkpt>
      <trkpt lat="43.77531" lon="6.25617">
        <ele>921.8</ele>
        <time>2021-09-07T12:13:40.000Z</time>
      </trkpt>
      <trkpt lat="43.77532" lon="6.25622">
        <ele>922.3</ele>
        <time>2021-09-07T12:13:42.000Z</time>
      </trkpt>
      <trkpt lat="43.77533" lon="6.25623">
        <ele>922.3</ele>
        <time>2021-09-07T12:13:43.000Z</time>
      </trkpt>
      <trkpt lat="43.77532" lon="6.25619">
        <ele>922.1</ele>
        <time>2021-09-07T12:13:43.000Z</time>
      </trkpt>
      <trkpt lat="43.77533" lon="6.25625">
        <ele>922.4</ele>
        <time>2021-09-07T12:13:44.000Z</time>
      </trkpt>
      <trkpt lat="43.77532" lon="6.25623">
        <ele>922.3</ele>
        <time>2021-09-07T12:13:45.000Z</time>
      </trkpt>
      <trkpt lat="43.77534" lon="6.25629">
        <ele>922.8</ele>
        <time>2021-09-07T12:13:46.000Z</time>
      </trkpt>
      <trkpt lat="43.77533" lon="6.25624">
        <ele>922.3</ele>
        <time>2021-09-07T12:13:46.000Z</time>
      </trkpt>
      <trkpt lat="43.77535" lon="6.25631">
        <ele>922.9</ele>
        <time>2021-09-07T12:13:47.000Z</time>
      </trkpt>
      <trkpt lat="43.77534" lon="6.25627">
        <ele>922.4</ele>
        <time>2021-09-07T12:13:47.000Z</time>
      </trkpt>
      <trkpt lat="43.77535" lon="6.25635">
        <ele>923.3</ele>
        <time>2021-09-07T12:13:49.000Z</time>
      </trkpt>
      <trkpt lat="43.77535" lon="6.2563">
        <ele>922.8</ele>
        <time>2021-09-07T12:13:49.000Z</time>
      </trkpt>
      <trkpt lat="43.77535" lon="6.25633">
        <ele>923.1</ele>
        <time>2021-09-07T12:13:50.000Z</time>
      </trkpt>
      <trkpt lat="43.77535" lon="6.25636">
        <ele>923.3</ele>
        <time>2021-09-07T12:13:52.000Z</time>
      </trkpt>
      <trkpt lat="43.77536" lon="6.25641">
        <ele>923.5</ele>
        <time>2021-09-07T12:13:52.000Z</time>
      </trkpt>
      <trkpt lat="43.77536" lon="6.25642">
        <ele>923.8</ele>
        <time>2021-09-07T12:13:55.000Z</time>
      </trkpt>
      <trkpt lat="43.77535" lon="6.25652">
        <ele>924.5</ele>
        <time>2021-09-07T12:13:56.000Z</time>
      </trkpt>
      <trkpt lat="43.77535" lon="6.25655">
        <ele>924.6</ele>
        <time>2021-09-07T12:13:57.000Z</time>
      </trkpt>
      <trkpt lat="43.77534" lon="6.25663">
        <ele>925.2</ele>
        <time>2021-09-07T12:14:02.000Z</time>
      </trkpt>
      <trkpt lat="43.77534" lon="6.25673">
        <ele>925.7</ele>
        <time>2021-09-07T12:14:02.000Z</time>
      </trkpt>
      <trkpt lat="43.77533" lon="6.25677">
        <ele>925.6</ele>
        <time>2021-09-07T12:14:03.000Z</time>
      </trkpt>
      <trkpt lat="43.77532" lon="6.2568">
        <ele>925.8</ele>
        <time>2021-09-07T12:14:04.000Z</time>
      </trkpt>
      <trkpt lat="43.77533" lon="6.25676">
        <ele>925.6</ele>
        <time>2021-09-07T12:14:05.000Z</time>
      </trkpt>
      <trkpt lat="43.77531" lon="6.25687">
        <ele>926.4</ele>
        <time>2021-09-07T12:14:06.000Z</time>
      </trkpt>
      <trkpt lat="43.7753" lon="6.2569">
        <ele>926.2</ele>
        <time>2021-09-07T12:14:07.000Z</time>
      </trkpt>
      <trkpt lat="43.7753" lon="6.25693">
        <ele>926.2</ele>
        <time>2021-09-07T12:14:08.000Z</time>
      </trkpt>
      <trkpt lat="43.77531" lon="6.25688">
        <ele>926.3</ele>
        <time>2021-09-07T12:14:09.000Z</time>
      </trkpt>
      <trkpt lat="43.7753" lon="6.25692">
        <ele>926.1</ele>
        <time>2021-09-07T12:14:10.000Z</time>
      </trkpt>
      <trkpt lat="43.77529" lon="6.25696">
        <ele>926.2</ele>
        <time>2021-09-07T12:14:11.000Z</time>
      </trkpt>
      <trkpt lat="43.77527" lon="6.25708">
        <ele>926.8</ele>
        <time>2021-09-07T12:14:13.000Z</time>
      </trkpt>
      <trkpt lat="43.77528" lon="6.2571">
        <ele>927.1</ele>
        <time>2021-09-07T12:14:16.000Z</time>
      </trkpt>
      <trkpt lat="43.7753" lon="6.25722">
        <ele>927.9</ele>
        <time>2021-09-07T12:14:19.000Z</time>
      </trkpt>
      <trkpt lat="43.77531" lon="6.25724">
        <ele>928.1</ele>
        <time>2021-09-07T12:14:20.000Z</time>
      </trkpt>
      <trkpt lat="43.77532" lon="6.25726">
        <ele>928.3</ele>
        <time>2021-09-07T12:14:21.000Z</time>
      </trkpt>
      <trkpt lat="43.77529" lon="6.2572">
        <ele>927.9</ele>
        <time>2021-09-07T12:14:21.000Z</time>
      </trkpt>
      <trkpt lat="43.77533" lon="6.25728">
        <ele>928.4</ele>
        <time>2021-09-07T12:14:22.000Z</time>
      </trkpt>
      <trkpt lat="43.7753" lon="6.25723">
        <ele>927.9</ele>
        <time>2021-09-07T12:14:22.000Z</time>
      </trkpt>
      <trkpt lat="43.77531" lon="6.25725">
        <ele>928.3</ele>
        <time>2021-09-07T12:14:23.000Z</time>
      </trkpt>
      <trkpt lat="43.77537" lon="6.25732">
        <ele>928.6</ele>
        <time>2021-09-07T12:14:24.000Z</time>
      </trkpt>
      <trkpt lat="43.77537" lon="6.25733">
        <ele>928.7</ele>
        <time>2021-09-07T12:14:27.000Z</time>
      </trkpt>
      <trkpt lat="43.7754" lon="6.25738">
        <ele>929.5</ele>
        <time>2021-09-07T12:14:27.000Z</time>
      </trkpt>
      <trkpt lat="43.77543" lon="6.25741">
        <ele>929.6</ele>
        <time>2021-09-07T12:14:28.000Z</time>
      </trkpt>
      <trkpt lat="43.77544" lon="6.25743">
        <ele>929.9</ele>
        <time>2021-09-07T12:14:29.000Z</time>
      </trkpt>
      <trkpt lat="43.77546" lon="6.25745">
        <ele>930</ele>
        <time>2021-09-07T12:14:30.000Z</time>
      </trkpt>
      <trkpt lat="43.77541" lon="6.25739">
        <ele>929.6</ele>
        <time>2021-09-07T12:14:30.000Z</time>
      </trkpt>
      <trkpt lat="43.77543" lon="6.25741">
        <ele>929.7</ele>
        <time>2021-09-07T12:14:31.000Z</time>
      </trkpt>
      <trkpt lat="43.77545" lon="6.25744">
        <ele>929.9</ele>
        <time>2021-09-07T12:14:32.000Z</time>
      </trkpt>
      <trkpt lat="43.77546" lon="6.25746">
        <ele>930.1</ele>
        <time>2021-09-07T12:14:33.000Z</time>
      </trkpt>
      <trkpt lat="43.77556" lon="6.25757">
        <ele>930.9</ele>
        <time>2021-09-07T12:14:38.000Z</time>
      </trkpt>
      <trkpt lat="43.77557" lon="6.2576">
        <ele>931.3</ele>
        <time>2021-09-07T12:14:39.000Z</time>
      </trkpt>
      <trkpt lat="43.7756" lon="6.25769">
        <ele>931.8</ele>
        <time>2021-09-07T12:14:40.000Z</time>
      </trkpt>
      <trkpt lat="43.77562" lon="6.25774">
        <ele>932.2</ele>
        <time>2021-09-07T12:14:42.000Z</time>
      </trkpt>
      <trkpt lat="43.77561" lon="6.25771">
        <ele>932</ele>
        <time>2021-09-07T12:14:43.000Z</time>
      </trkpt>
      <trkpt lat="43.77562" lon="6.25777">
        <ele>932.2</ele>
        <time>2021-09-07T12:14:45.000Z</time>
      </trkpt>
      <trkpt lat="43.77565" lon="6.25788">
        <ele>933.2</ele>
        <time>2021-09-07T12:14:47.000Z</time>
      </trkpt>
      <trkpt lat="43.77568" lon="6.25792">
        <ele>933.3</ele>
        <time>2021-09-07T12:14:49.000Z</time>
      </trkpt>
      <trkpt lat="43.77566" lon="6.25789">
        <ele>933.3</ele>
        <time>2021-09-07T12:14:50.000Z</time>
      </trkpt>
      <trkpt lat="43.77569" lon="6.25793">
        <ele>933.4</ele>
        <time>2021-09-07T12:14:52.000Z</time>
      </trkpt>
      <trkpt lat="43.77571" lon="6.25798">
        <ele>933.9</ele>
        <time>2021-09-07T12:14:52.000Z</time>
      </trkpt>
      <trkpt lat="43.77573" lon="6.258">
        <ele>933.9</ele>
        <time>2021-09-07T12:14:53.000Z</time>
      </trkpt>
      <trkpt lat="43.77581" lon="6.25803">
        <ele>934.5</ele>
        <time>2021-09-07T12:14:57.000Z</time>
      </trkpt>
      <trkpt lat="43.77578" lon="6.25803">
        <ele>934.2</ele>
        <time>2021-09-07T12:14:58.000Z</time>
      </trkpt>
      <trkpt lat="43.77584" lon="6.25803">
        <ele>934.4</ele>
        <time>2021-09-07T12:14:58.000Z</time>
      </trkpt>
      <trkpt lat="43.77591" lon="6.25805">
        <ele>934.5</ele>
        <time>2021-09-07T12:15:00.000Z</time>
      </trkpt>
      <trkpt lat="43.77594" lon="6.25805">
        <ele>934.6</ele>
        <time>2021-09-07T12:15:01.000Z</time>
      </trkpt>
      <trkpt lat="43.77598" lon="6.25805">
        <ele>934.5</ele>
        <time>2021-09-07T12:15:02.000Z</time>
      </trkpt>
      <trkpt lat="43.776" lon="6.25804">
        <ele>934.7</ele>
        <time>2021-09-07T12:15:05.000Z</time>
      </trkpt>
      <trkpt lat="43.77605" lon="6.258">
        <ele>935.1</ele>
        <time>2021-09-07T12:15:05.000Z</time>
      </trkpt>
      <trkpt lat="43.77608" lon="6.25798">
        <ele>935.3</ele>
        <time>2021-09-07T12:15:06.000Z</time>
      </trkpt>
      <trkpt lat="43.77607" lon="6.25799">
        <ele>935.2</ele>
        <time>2021-09-07T12:15:08.000Z</time>
      </trkpt>
      <trkpt lat="43.77609" lon="6.25797">
        <ele>935.4</ele>
        <time>2021-09-07T12:15:09.000Z</time>
      </trkpt>
      <trkpt lat="43.77622" lon="6.2579">
        <ele>935.6</ele>
        <time>2021-09-07T12:15:14.000Z</time>
      </trkpt>
      <trkpt lat="43.77627" lon="6.25786">
        <ele>936</ele>
        <time>2021-09-07T12:15:14.000Z</time>
      </trkpt>
      <trkpt lat="43.77629" lon="6.25784">
        <ele>936</ele>
        <time>2021-09-07T12:15:15.000Z</time>
      </trkpt>
      <trkpt lat="43.77628" lon="6.25785">
        <ele>936</ele>
        <time>2021-09-07T12:15:17.000Z</time>
      </trkpt>
      <trkpt lat="43.77631" lon="6.25782">
        <ele>936.3</ele>
        <time>2021-09-07T12:15:18.000Z</time>
      </trkpt>
      <trkpt lat="43.77638" lon="6.25775">
        <ele>936.6</ele>
        <time>2021-09-07T12:15:19.000Z</time>
      </trkpt>
      <trkpt lat="43.7764" lon="6.25773">
        <ele>936.6</ele>
        <time>2021-09-07T12:15:20.000Z</time>
      </trkpt>
      <trkpt lat="43.77639" lon="6.25774">
        <ele>936.6</ele>
        <time>2021-09-07T12:15:22.000Z</time>
      </trkpt>
      <trkpt lat="43.77641" lon="6.25772">
        <ele>936.7</ele>
        <time>2021-09-07T12:15:23.000Z</time>
      </trkpt>
      <trkpt lat="43.77646" lon="6.25767">
        <ele>937.1</ele>
        <time>2021-09-07T12:15:23.000Z</time>
      </trkpt>
      <trkpt lat="43.77648" lon="6.25766">
        <ele>937.4</ele>
        <time>2021-09-07T12:15:26.000Z</time>
      </trkpt>
      <trkpt lat="43.77652" lon="6.25763">
        <ele>937.8</ele>
        <time>2021-09-07T12:15:26.000Z</time>
      </trkpt>
      <trkpt lat="43.77656" lon="6.25762">
        <ele>937.9</ele>
        <time>2021-09-07T12:15:28.000Z</time>
      </trkpt>
      <trkpt lat="43.77654" lon="6.25762">
        <ele>937.9</ele>
        <time>2021-09-07T12:15:29.000Z</time>
      </trkpt>
      <trkpt lat="43.77661" lon="6.25762">
        <ele>938.4</ele>
        <time>2021-09-07T12:15:30.000Z</time>
      </trkpt>
      <trkpt lat="43.77658" lon="6.25762">
        <ele>937.9</ele>
        <time>2021-09-07T12:15:31.000Z</time>
      </trkpt>
      <trkpt lat="43.77663" lon="6.25761">
        <ele>938.5</ele>
        <time>2021-09-07T12:15:33.000Z</time>
      </trkpt>
      <trkpt lat="43.77668" lon="6.25759">
        <ele>939</ele>
        <time>2021-09-07T12:15:33.000Z</time>
      </trkpt>
      <trkpt lat="43.77669" lon="6.25758">
        <ele>939.1</ele>
        <time>2021-09-07T12:15:36.000Z</time>
      </trkpt>
      <trkpt lat="43.77679" lon="6.25753">
        <ele>939.5</ele>
        <time>2021-09-07T12:15:38.000Z</time>
      </trkpt>
      <trkpt lat="43.77682" lon="6.25749">
        <ele>939.7</ele>
        <time>2021-09-07T12:15:40.000Z</time>
      </trkpt>
      <trkpt lat="43.7768" lon="6.25751">
        <ele>939.6</ele>
        <time>2021-09-07T12:15:41.000Z</time>
      </trkpt>
      <trkpt lat="43.77684" lon="6.25749">
        <ele>939.9</ele>
        <time>2021-09-07T12:15:43.000Z</time>
      </trkpt>
      <trkpt lat="43.77687" lon="6.25751">
        <ele>940.4</ele>
        <time>2021-09-07T12:15:43.000Z</time>
      </trkpt>
      <trkpt lat="43.77689" lon="6.25749">
        <ele>940.5</ele>
        <time>2021-09-07T12:15:44.000Z</time>
      </trkpt>
      <trkpt lat="43.77688" lon="6.2575">
        <ele>940.4</ele>
        <time>2021-09-07T12:15:46.000Z</time>
      </trkpt>
      <trkpt lat="43.77691" lon="6.25748">
        <ele>940.9</ele>
        <time>2021-09-07T12:15:47.000Z</time>
      </trkpt>
      <trkpt lat="43.77694" lon="6.25747">
        <ele>941.1</ele>
        <time>2021-09-07T12:15:47.000Z</time>
      </trkpt>
      <trkpt lat="43.77696" lon="6.25746">
        <ele>941.3</ele>
        <time>2021-09-07T12:15:48.000Z</time>
      </trkpt>
      <trkpt lat="43.777" lon="6.25743">
        <ele>941.2</ele>
        <time>2021-09-07T12:15:50.000Z</time>
      </trkpt>
      <trkpt lat="43.77695" lon="6.25747">
        <ele>941.3</ele>
        <time>2021-09-07T12:15:50.000Z</time>
      </trkpt>
      <trkpt lat="43.77698" lon="6.25744">
        <ele>941.4</ele>
        <time>2021-09-07T12:15:51.000Z</time>
      </trkpt>
      <trkpt lat="43.77702" lon="6.25742">
        <ele>941.3</ele>
        <time>2021-09-07T12:15:53.000Z</time>
      </trkpt>
      <trkpt lat="43.77708" lon="6.25736">
        <ele>942.1</ele>
        <time>2021-09-07T12:15:54.000Z</time>
      </trkpt>
      <trkpt lat="43.7771" lon="6.25733">
        <ele>942.2</ele>
        <time>2021-09-07T12:15:55.000Z</time>
      </trkpt>
      <trkpt lat="43.77712" lon="6.25732">
        <ele>942.2</ele>
        <time>2021-09-07T12:15:56.000Z</time>
      </trkpt>
      <trkpt lat="43.77715" lon="6.25731">
        <ele>942.6</ele>
        <time>2021-09-07T12:15:57.000Z</time>
      </trkpt>
      <trkpt lat="43.77709" lon="6.25735">
        <ele>942.1</ele>
        <time>2021-09-07T12:15:57.000Z</time>
      </trkpt>
      <trkpt lat="43.77711" lon="6.25732">
        <ele>942.2</ele>
        <time>2021-09-07T12:15:58.000Z</time>
      </trkpt>
      <trkpt lat="43.77724" lon="6.25728">
        <ele>943.3</ele>
        <time>2021-09-07T12:16:01.000Z</time>
      </trkpt>
      <trkpt lat="43.77726" lon="6.25725">
        <ele>943.4</ele>
        <time>2021-09-07T12:16:02.000Z</time>
      </trkpt>
      <trkpt lat="43.77727" lon="6.25722">
        <ele>943.6</ele>
        <time>2021-09-07T12:16:03.000Z</time>
      </trkpt>
      <trkpt lat="43.77723" lon="6.25729">
        <ele>943.3</ele>
        <time>2021-09-07T12:16:03.000Z</time>
      </trkpt>
      <trkpt lat="43.77725" lon="6.25727">
        <ele>943.3</ele>
        <time>2021-09-07T12:16:04.000Z</time>
      </trkpt>
      <trkpt lat="43.77732" lon="6.25719">
        <ele>943.9</ele>
        <time>2021-09-07T12:16:05.000Z</time>
      </trkpt>
      <trkpt lat="43.77738" lon="6.25719">
        <ele>944.5</ele>
        <time>2021-09-07T12:16:07.000Z</time>
      </trkpt>
      <trkpt lat="43.7774" lon="6.25719">
        <ele>944.5</ele>
        <time>2021-09-07T12:16:08.000Z</time>
      </trkpt>
      <trkpt lat="43.77733" lon="6.25719">
        <ele>944.1</ele>
        <time>2021-09-07T12:16:08.000Z</time>
      </trkpt>
      <trkpt lat="43.77744" lon="6.25715">
        <ele>945</ele>
        <time>2021-09-07T12:16:10.000Z</time>
      </trkpt>
      <trkpt lat="43.77739" lon="6.25719">
        <ele>944.5</ele>
        <time>2021-09-07T12:16:10.000Z</time>
      </trkpt>
      <trkpt lat="43.77746" lon="6.25712">
        <ele>945.1</ele>
        <time>2021-09-07T12:16:11.000Z</time>
      </trkpt>
      <trkpt lat="43.77742" lon="6.25718">
        <ele>944.5</ele>
        <time>2021-09-07T12:16:11.000Z</time>
      </trkpt>
      <trkpt lat="43.77748" lon="6.25709">
        <ele>945.4</ele>
        <time>2021-09-07T12:16:12.000Z</time>
      </trkpt>
      <trkpt lat="43.77751" lon="6.25707">
        <ele>945.6</ele>
        <time>2021-09-07T12:16:13.000Z</time>
      </trkpt>
      <trkpt lat="43.77745" lon="6.25714">
        <ele>945.1</ele>
        <time>2021-09-07T12:16:13.000Z</time>
      </trkpt>
      <trkpt lat="43.77747" lon="6.2571">
        <ele>945.2</ele>
        <time>2021-09-07T12:16:14.000Z</time>
      </trkpt>
      <trkpt lat="43.77758" lon="6.25703">
        <ele>946</ele>
        <time>2021-09-07T12:16:16.000Z</time>
      </trkpt>
      <trkpt lat="43.77761" lon="6.25698">
        <ele>945.9</ele>
        <time>2021-09-07T12:16:18.000Z</time>
      </trkpt>
      <trkpt lat="43.77763" lon="6.25695">
        <ele>946.1</ele>
        <time>2021-09-07T12:16:19.000Z</time>
      </trkpt>
      <trkpt lat="43.7776" lon="6.25701">
        <ele>946.2</ele>
        <time>2021-09-07T12:16:19.000Z</time>
      </trkpt>
      <trkpt lat="43.77762" lon="6.25697">
        <ele>945.9</ele>
        <time>2021-09-07T12:16:21.000Z</time>
      </trkpt>
      <trkpt lat="43.77764" lon="6.25694">
        <ele>946.2</ele>
        <time>2021-09-07T12:16:22.000Z</time>
      </trkpt>
      <trkpt lat="43.77765" lon="6.25688">
        <ele>946.2</ele>
        <time>2021-09-07T12:16:22.000Z</time>
      </trkpt>
      <trkpt lat="43.77768" lon="6.25683">
        <ele>946.8</ele>
        <time>2021-09-07T12:16:24.000Z</time>
      </trkpt>
      <trkpt lat="43.7777" lon="6.25682">
        <ele>946.6</ele>
        <time>2021-09-07T12:16:25.000Z</time>
      </trkpt>
      <trkpt lat="43.77765" lon="6.25687">
        <ele>946.2</ele>
        <time>2021-09-07T12:16:25.000Z</time>
      </trkpt>
      <trkpt lat="43.77771" lon="6.25681">
        <ele>946.6</ele>
        <time>2021-09-07T12:16:26.000Z</time>
      </trkpt>
      <trkpt lat="43.77772" lon="6.25681">
        <ele>946.8</ele>
        <time>2021-09-07T12:16:27.000Z</time>
      </trkpt>
      <trkpt lat="43.77769" lon="6.25682">
        <ele>946.6</ele>
        <time>2021-09-07T12:16:27.000Z</time>
      </trkpt>
      <trkpt lat="43.77771" lon="6.25681">
        <ele>946.5</ele>
        <time>2021-09-07T12:16:28.000Z</time>
      </trkpt>
      <trkpt lat="43.77772" lon="6.25682">
        <ele>947.1</ele>
        <time>2021-09-07T12:16:29.000Z</time>
      </trkpt>
      <trkpt lat="43.77772" lon="6.25681">
        <ele>946.8</ele>
        <time>2021-09-07T12:16:30.000Z</time>
      </trkpt>
      <trkpt lat="43.77771" lon="6.25683">
        <ele>947</ele>
        <time>2021-09-07T12:16:34.000Z</time>
      </trkpt>
      <trkpt lat="43.77771" lon="6.25683">
        <ele>947.2</ele>
        <time>2021-09-07T12:16:40.000Z</time>
      </trkpt>
      <trkpt lat="43.77772" lon="6.25683">
        <ele>946.9</ele>
        <time>2021-09-07T12:16:42.000Z</time>
      </trkpt>
      <trkpt lat="43.77773" lon="6.25682">
        <ele>947.8</ele>
        <time>2021-09-07T12:16:46.000Z</time>
      </trkpt>
      <trkpt lat="43.77773" lon="6.25682">
        <ele>947.7</ele>
        <time>2021-09-07T12:16:47.000Z</time>
      </trkpt>
      <trkpt lat="43.77773" lon="6.25682">
        <ele>947.7</ele>
        <time>2021-09-07T12:16:48.000Z</time>
      </trkpt>
      <trkpt lat="43.77773" lon="6.25681">
        <ele>947.8</ele>
        <time>2021-09-07T12:16:48.000Z</time>
      </trkpt>
      <trkpt lat="43.77773" lon="6.25681">
        <ele>947.8</ele>
        <time>2021-09-07T12:16:49.000Z</time>
      </trkpt>
      <trkpt lat="43.77774" lon="6.25681">
        <ele>947.9</ele>
        <time>2021-09-07T12:16:54.000Z</time>
      </trkpt>
      <trkpt lat="43.77774" lon="6.25681">
        <ele>948</ele>
        <time>2021-09-07T12:16:55.000Z</time>
      </trkpt>
      <trkpt lat="43.77775" lon="6.25681">
        <ele>947.8</ele>
        <time>2021-09-07T12:16:58.000Z</time>
      </trkpt>
      <trkpt lat="43.77775" lon="6.25681">
        <ele>947.9</ele>
        <time>2021-09-07T12:17:02.000Z</time>
      </trkpt>
      <trkpt lat="43.77775" lon="6.25682">
        <ele>948</ele>
        <time>2021-09-07T12:17:06.000Z</time>
      </trkpt>
      <trkpt lat="43.77774" lon="6.25682">
        <ele>947.8</ele>
        <time>2021-09-07T12:17:08.000Z</time>
      </trkpt>
      <trkpt lat="43.77775" lon="6.25681">
        <ele>947.9</ele>
        <time>2021-09-07T12:17:13.000Z</time>
      </trkpt>
      <trkpt lat="43.77775" lon="6.25681">
        <ele>947.8</ele>
        <time>2021-09-07T12:17:15.000Z</time>
      </trkpt>
      <trkpt lat="43.77775" lon="6.25681">
        <ele>947.9</ele>
        <time>2021-09-07T12:17:16.000Z</time>
      </trkpt>
      <trkpt lat="43.77775" lon="6.25681">
        <ele>947.3</ele>
        <time>2021-09-07T12:17:21.000Z</time>
      </trkpt>
      <trkpt lat="43.77775" lon="6.25681">
        <ele>947.5</ele>
        <time>2021-09-07T12:17:22.000Z</time>
      </trkpt>
      <trkpt lat="43.77777" lon="6.25681">
        <ele>947.7</ele>
        <time>2021-09-07T12:17:26.000Z</time>
      </trkpt>
      <trkpt lat="43.77777" lon="6.25681">
        <ele>947.3</ele>
        <time>2021-09-07T12:17:30.000Z</time>
      </trkpt>
      <trkpt lat="43.77776" lon="6.2568">
        <ele>947.4</ele>
        <time>2021-09-07T12:17:34.000Z</time>
      </trkpt>
      <trkpt lat="43.77776" lon="6.2568">
        <ele>947.3</ele>
        <time>2021-09-07T12:17:39.000Z</time>
      </trkpt>
      <trkpt lat="43.77776" lon="6.2568">
        <ele>947.4</ele>
        <time>2021-09-07T12:17:44.000Z</time>
      </trkpt>
      <trkpt lat="43.77776" lon="6.25679">
        <ele>947.2</ele>
        <time>2021-09-07T12:17:49.000Z</time>
      </trkpt>
      <trkpt lat="43.77776" lon="6.25679">
        <ele>947</ele>
        <time>2021-09-07T12:17:51.000Z</time>
      </trkpt>
      <trkpt lat="43.77775" lon="6.25679">
        <ele>947</ele>
        <time>2021-09-07T12:17:56.000Z</time>
      </trkpt>
      <trkpt lat="43.77775" lon="6.25679">
        <ele>947.2</ele>
        <time>2021-09-07T12:17:58.000Z</time>
      </trkpt>
      <trkpt lat="43.77774" lon="6.25679">
        <ele>947</ele>
        <time>2021-09-07T12:18:03.000Z</time>
      </trkpt>
      <trkpt lat="43.77774" lon="6.2568">
        <ele>947.2</ele>
        <time>2021-09-07T12:18:08.000Z</time>
      </trkpt>
      <trkpt lat="43.77774" lon="6.2568">
        <ele>947.1</ele>
        <time>2021-09-07T12:18:13.000Z</time>
      </trkpt>
      <trkpt lat="43.77774" lon="6.2568">
        <ele>947.1</ele>
        <time>2021-09-07T12:18:16.000Z</time>
      </trkpt>
      <trkpt lat="43.77775" lon="6.25681">
        <ele>947.3</ele>
        <time>2021-09-07T12:18:18.000Z</time>
      </trkpt>
      <trkpt lat="43.77775" lon="6.25681">
        <ele>947</ele>
        <time>2021-09-07T12:18:23.000Z</time>
      </trkpt>
      <trkpt lat="43.77775" lon="6.25681">
        <ele>947.1</ele>
        <time>2021-09-07T12:18:27.000Z</time>
      </trkpt>
      <trkpt lat="43.77775" lon="6.25682">
        <ele>947</ele>
        <time>2021-09-07T12:18:30.000Z</time>
      </trkpt>
      <trkpt lat="43.77775" lon="6.25682">
        <ele>947.1</ele>
        <time>2021-09-07T12:18:35.000Z</time>
      </trkpt>
      <trkpt lat="43.77776" lon="6.25682">
        <ele>947.2</ele>
        <time>2021-09-07T12:18:36.000Z</time>
      </trkpt>
      <trkpt lat="43.77777" lon="6.25685">
        <ele>947.5</ele>
        <time>2021-09-07T12:18:39.000Z</time>
      </trkpt>
      <trkpt lat="43.77777" lon="6.25688">
        <ele>947.9</ele>
        <time>2021-09-07T12:18:40.000Z</time>
      </trkpt>
      <trkpt lat="43.77776" lon="6.25683">
        <ele>947.2</ele>
        <time>2021-09-07T12:18:40.000Z</time>
      </trkpt>
      <trkpt lat="43.77776" lon="6.25692">
        <ele>948</ele>
        <time>2021-09-07T12:18:41.000Z</time>
      </trkpt>
      <trkpt lat="43.77777" lon="6.25687">
        <ele>947.8</ele>
        <time>2021-09-07T12:18:42.000Z</time>
      </trkpt>
      <trkpt lat="43.77773" lon="6.25704">
        <ele>948.6</ele>
        <time>2021-09-07T12:18:43.000Z</time>
      </trkpt>
      <trkpt lat="43.77771" lon="6.25707">
        <ele>949</ele>
        <time>2021-09-07T12:18:44.000Z</time>
      </trkpt>
      <trkpt lat="43.77772" lon="6.25706">
        <ele>948.9</ele>
        <time>2021-09-07T12:18:46.000Z</time>
      </trkpt>
      <trkpt lat="43.77764" lon="6.25713">
        <ele>949.3</ele>
        <time>2021-09-07T12:18:47.000Z</time>
      </trkpt>
      <trkpt lat="43.77759" lon="6.25716">
        <ele>949.6</ele>
        <time>2021-09-07T12:18:49.000Z</time>
      </trkpt>
      <trkpt lat="43.77763" lon="6.25714">
        <ele>949.3</ele>
        <time>2021-09-07T12:18:50.000Z</time>
      </trkpt>
      <trkpt lat="43.77757" lon="6.25717">
        <ele>949.8</ele>
        <time>2021-09-07T12:18:52.000Z</time>
      </trkpt>
      <trkpt lat="43.77747" lon="6.25728">
        <ele>950.7</ele>
        <time>2021-09-07T12:18:55.000Z</time>
      </trkpt>
      <trkpt lat="43.77746" lon="6.2573">
        <ele>951</ele>
        <time>2021-09-07T12:18:56.000Z</time>
      </trkpt>
      <trkpt lat="43.77748" lon="6.25726">
        <ele>950.6</ele>
        <time>2021-09-07T12:18:57.000Z</time>
      </trkpt>
      <trkpt lat="43.77737" lon="6.25738">
        <ele>951.3</ele>
        <time>2021-09-07T12:19:00.000Z</time>
      </trkpt>
      <trkpt lat="43.77735" lon="6.25739">
        <ele>951.6</ele>
        <time>2021-09-07T12:19:01.000Z</time>
      </trkpt>
      <trkpt lat="43.77738" lon="6.25737">
        <ele>951.1</ele>
        <time>2021-09-07T12:19:02.000Z</time>
      </trkpt>
      <trkpt lat="43.77731" lon="6.25742">
        <ele>951.9</ele>
        <time>2021-09-07T12:19:03.000Z</time>
      </trkpt>
      <trkpt lat="43.77728" lon="6.25745">
        <ele>952</ele>
        <time>2021-09-07T12:19:05.000Z</time>
      </trkpt>
      <trkpt lat="43.77726" lon="6.25746">
        <ele>952.1</ele>
        <time>2021-09-07T12:19:06.000Z</time>
      </trkpt>
      <trkpt lat="43.7773" lon="6.25743">
        <ele>951.9</ele>
        <time>2021-09-07T12:19:06.000Z</time>
      </trkpt>
      <trkpt lat="43.77724" lon="6.25748">
        <ele>952.4</ele>
        <time>2021-09-07T12:19:07.000Z</time>
      </trkpt>
      <trkpt lat="43.77727" lon="6.25746">
        <ele>952.1</ele>
        <time>2021-09-07T12:19:08.000Z</time>
      </trkpt>
      <trkpt lat="43.77725" lon="6.25747">
        <ele>952.3</ele>
        <time>2021-09-07T12:19:09.000Z</time>
      </trkpt>
      <trkpt lat="43.77723" lon="6.25749">
        <ele>952.4</ele>
        <time>2021-09-07T12:19:10.000Z</time>
      </trkpt>
      <trkpt lat="43.77719" lon="6.25752">
        <ele>953</ele>
        <time>2021-09-07T12:19:10.000Z</time>
      </trkpt>
      <trkpt lat="43.77717" lon="6.25754">
        <ele>953</ele>
        <time>2021-09-07T12:19:11.000Z</time>
      </trkpt>
      <trkpt lat="43.77718" lon="6.25753">
        <ele>953.1</ele>
        <time>2021-09-07T12:19:13.000Z</time>
      </trkpt>
      <trkpt lat="43.77715" lon="6.25756">
        <ele>953</ele>
        <time>2021-09-07T12:19:14.000Z</time>
      </trkpt>
      <trkpt lat="43.7771" lon="6.25761">
        <ele>953.6</ele>
        <time>2021-09-07T12:19:15.000Z</time>
      </trkpt>
      <trkpt lat="43.77708" lon="6.25761">
        <ele>954.1</ele>
        <time>2021-09-07T12:19:16.000Z</time>
      </trkpt>
      <trkpt lat="43.77704" lon="6.25763">
        <ele>954.3</ele>
        <time>2021-09-07T12:19:18.000Z</time>
      </trkpt>
      <trkpt lat="43.77709" lon="6.25761">
        <ele>953.9</ele>
        <time>2021-09-07T12:19:18.000Z</time>
      </trkpt>
      <trkpt lat="43.77702" lon="6.25765">
        <ele>954.7</ele>
        <time>2021-09-07T12:19:19.000Z</time>
      </trkpt>
      <trkpt lat="43.77706" lon="6.25761">
        <ele>954</ele>
        <time>2021-09-07T12:19:19.000Z</time>
      </trkpt>
      <trkpt lat="43.77699" lon="6.25769">
        <ele>954.8</ele>
        <time>2021-09-07T12:19:21.000Z</time>
      </trkpt>
      <trkpt lat="43.77703" lon="6.25764">
        <ele>954.5</ele>
        <time>2021-09-07T12:19:21.000Z</time>
      </trkpt>
      <trkpt lat="43.77697" lon="6.25771">
        <ele>955</ele>
        <time>2021-09-07T12:19:22.000Z</time>
      </trkpt>
      <trkpt lat="43.777" lon="6.25767">
        <ele>954.7</ele>
        <time>2021-09-07T12:19:22.000Z</time>
      </trkpt>
      <trkpt lat="43.77698" lon="6.2577">
        <ele>954.8</ele>
        <time>2021-09-07T12:19:24.000Z</time>
      </trkpt>
      <trkpt lat="43.77695" lon="6.25772">
        <ele>955.4</ele>
        <time>2021-09-07T12:19:25.000Z</time>
      </trkpt>
      <trkpt lat="43.77691" lon="6.25775">
        <ele>955.9</ele>
        <time>2021-09-07T12:19:25.000Z</time>
      </trkpt>
      <trkpt lat="43.77688" lon="6.25778">
        <ele>955.8</ele>
        <time>2021-09-07T12:19:27.000Z</time>
      </trkpt>
      <trkpt lat="43.7769" lon="6.25776">
        <ele>955.8</ele>
        <time>2021-09-07T12:19:28.000Z</time>
      </trkpt>
      <trkpt lat="43.77686" lon="6.25779">
        <ele>955.8</ele>
        <time>2021-09-07T12:19:30.000Z</time>
      </trkpt>
      <trkpt lat="43.77677" lon="6.25786">
        <ele>957</ele>
        <time>2021-09-07T12:19:33.000Z</time>
      </trkpt>
      <trkpt lat="43.77677" lon="6.25786">
        <ele>956.9</ele>
        <time>2021-09-07T12:19:35.000Z</time>
      </trkpt>
      <trkpt lat="43.77675" lon="6.25788">
        <ele>957.1</ele>
        <time>2021-09-07T12:19:36.000Z</time>
      </trkpt>
      <trkpt lat="43.77669" lon="6.25792">
        <ele>957.5</ele>
        <time>2021-09-07T12:19:37.000Z</time>
      </trkpt>
      <trkpt lat="43.77665" lon="6.25795">
        <ele>957.8</ele>
        <time>2021-09-07T12:19:39.000Z</time>
      </trkpt>
      <trkpt lat="43.77667" lon="6.25794">
        <ele>957.5</ele>
        <time>2021-09-07T12:19:40.000Z</time>
      </trkpt>
      <trkpt lat="43.77663" lon="6.25797">
        <ele>958.2</ele>
        <time>2021-09-07T12:19:40.000Z</time>
      </trkpt>
      <trkpt lat="43.77658" lon="6.25803">
        <ele>958.6</ele>
        <time>2021-09-07T12:19:43.000Z</time>
      </trkpt>
      <trkpt lat="43.77659" lon="6.25803">
        <ele>958.4</ele>
        <time>2021-09-07T12:19:45.000Z</time>
      </trkpt>
      <trkpt lat="43.77657" lon="6.25805">
        <ele>958.8</ele>
        <time>2021-09-07T12:19:46.000Z</time>
      </trkpt>
      <trkpt lat="43.77652" lon="6.25812">
        <ele>959.1</ele>
        <time>2021-09-07T12:19:47.000Z</time>
      </trkpt>
      <trkpt lat="43.77651" lon="6.25815">
        <ele>959.4</ele>
        <time>2021-09-07T12:19:48.000Z</time>
      </trkpt>
      <trkpt lat="43.77651" lon="6.25813">
        <ele>959.2</ele>
        <time>2021-09-07T12:19:50.000Z</time>
      </trkpt>
      <trkpt lat="43.7765" lon="6.25816">
        <ele>959.5</ele>
        <time>2021-09-07T12:19:51.000Z</time>
      </trkpt>
      <trkpt lat="43.77646" lon="6.25824">
        <ele>960</ele>
        <time>2021-09-07T12:19:52.000Z</time>
      </trkpt>
      <trkpt lat="43.77645" lon="6.25827">
        <ele>959.9</ele>
        <time>2021-09-07T12:19:53.000Z</time>
      </trkpt>
      <trkpt lat="43.77644" lon="6.25829">
        <ele>960.3</ele>
        <time>2021-09-07T12:19:54.000Z</time>
      </trkpt>
      <trkpt lat="43.77645" lon="6.25826">
        <ele>959.9</ele>
        <time>2021-09-07T12:19:55.000Z</time>
      </trkpt>
      <trkpt lat="43.77641" lon="6.25834">
        <ele>960.9</ele>
        <time>2021-09-07T12:19:56.000Z</time>
      </trkpt>
      <trkpt lat="43.77644" lon="6.25828">
        <ele>960.1</ele>
        <time>2021-09-07T12:19:56.000Z</time>
      </trkpt>
      <trkpt lat="43.7764" lon="6.25837">
        <ele>961.1</ele>
        <time>2021-09-07T12:19:57.000Z</time>
      </trkpt>
      <trkpt lat="43.77643" lon="6.2583">
        <ele>960.4</ele>
        <time>2021-09-07T12:19:57.000Z</time>
      </trkpt>
      <trkpt lat="43.77639" lon="6.2584">
        <ele>961.3</ele>
        <time>2021-09-07T12:19:58.000Z</time>
      </trkpt>
      <trkpt lat="43.7764" lon="6.25836">
        <ele>961.1</ele>
        <time>2021-09-07T12:19:59.000Z</time>
      </trkpt>
      <trkpt lat="43.77636" lon="6.25846">
        <ele>961.6</ele>
        <time>2021-09-07T12:20:00.000Z</time>
      </trkpt>
      <trkpt lat="43.7764" lon="6.25839">
        <ele>961.2</ele>
        <time>2021-09-07T12:20:00.000Z</time>
      </trkpt>
      <trkpt lat="43.77638" lon="6.25843">
        <ele>961.2</ele>
        <time>2021-09-07T12:20:01.000Z</time>
      </trkpt>
      <trkpt lat="43.77635" lon="6.25847">
        <ele>961.6</ele>
        <time>2021-09-07T12:20:03.000Z</time>
      </trkpt>
      <trkpt lat="43.7763" lon="6.25856">
        <ele>961.9</ele>
        <time>2021-09-07T12:20:04.000Z</time>
      </trkpt>
      <trkpt lat="43.77629" lon="6.25859">
        <ele>962.1</ele>
        <time>2021-09-07T12:20:05.000Z</time>
      </trkpt>
      <trkpt lat="43.77627" lon="6.25861">
        <ele>962.3</ele>
        <time>2021-09-07T12:20:06.000Z</time>
      </trkpt>
      <trkpt lat="43.7763" lon="6.25858">
        <ele>962</ele>
        <time>2021-09-07T12:20:07.000Z</time>
      </trkpt>
      <trkpt lat="43.77628" lon="6.25861">
        <ele>962.3</ele>
        <time>2021-09-07T12:20:08.000Z</time>
      </trkpt>
      <trkpt lat="43.77627" lon="6.25863">
        <ele>962.4</ele>
        <time>2021-09-07T12:20:09.000Z</time>
      </trkpt>
      <trkpt lat="43.77625" lon="6.25868">
        <ele>962.7</ele>
        <time>2021-09-07T12:20:09.000Z</time>
      </trkpt>
      <trkpt lat="43.77623" lon="6.2587">
        <ele>962.9</ele>
        <time>2021-09-07T12:20:10.000Z</time>
      </trkpt>
      <trkpt lat="43.77622" lon="6.25872">
        <ele>963.1</ele>
        <time>2021-09-07T12:20:11.000Z</time>
      </trkpt>
      <trkpt lat="43.77621" lon="6.25874">
        <ele>963.5</ele>
        <time>2021-09-07T12:20:12.000Z</time>
      </trkpt>
      <trkpt lat="43.77624" lon="6.25869">
        <ele>962.8</ele>
        <time>2021-09-07T12:20:12.000Z</time>
      </trkpt>
      <trkpt lat="43.77622" lon="6.25871">
        <ele>963</ele>
        <time>2021-09-07T12:20:13.000Z</time>
      </trkpt>
      <trkpt lat="43.77614" lon="6.25882">
        <ele>963.7</ele>
        <time>2021-09-07T12:20:16.000Z</time>
      </trkpt>
      <trkpt lat="43.77612" lon="6.25884">
        <ele>964</ele>
        <time>2021-09-07T12:20:17.000Z</time>
      </trkpt>
      <trkpt lat="43.7761" lon="6.25886">
        <ele>964.4</ele>
        <time>2021-09-07T12:20:18.000Z</time>
      </trkpt>
      <trkpt lat="43.77614" lon="6.25881">
        <ele>963.6</ele>
        <time>2021-09-07T12:20:18.000Z</time>
      </trkpt>
      <trkpt lat="43.77613" lon="6.25883">
        <ele>963.9</ele>
        <time>2021-09-07T12:20:19.000Z</time>
      </trkpt>
      <trkpt lat="43.77609" lon="6.25888">
        <ele>964.6</ele>
        <time>2021-09-07T12:20:19.000Z</time>
      </trkpt>
      <trkpt lat="43.77605" lon="6.25892">
        <ele>964.8</ele>
        <time>2021-09-07T12:20:21.000Z</time>
      </trkpt>
      <trkpt lat="43.77607" lon="6.2589">
        <ele>964.5</ele>
        <time>2021-09-07T12:20:22.000Z</time>
      </trkpt>
      <trkpt lat="43.77603" lon="6.25894">
        <ele>964.8</ele>
        <time>2021-09-07T12:20:22.000Z</time>
      </trkpt>
      <trkpt lat="43.77597" lon="6.259">
        <ele>965.3</ele>
        <time>2021-09-07T12:20:25.000Z</time>
      </trkpt>
      <trkpt lat="43.77593" lon="6.25904">
        <ele>965.8</ele>
        <time>2021-09-07T12:20:27.000Z</time>
      </trkpt>
      <trkpt lat="43.77598" lon="6.25899">
        <ele>965.2</ele>
        <time>2021-09-07T12:20:27.000Z</time>
      </trkpt>
      <trkpt lat="43.77591" lon="6.25906">
        <ele>965.9</ele>
        <time>2021-09-07T12:20:28.000Z</time>
      </trkpt>
      <trkpt lat="43.77596" lon="6.25902">
        <ele>965.4</ele>
        <time>2021-09-07T12:20:28.000Z</time>
      </trkpt>
      <trkpt lat="43.77591" lon="6.25905">
        <ele>965.8</ele>
        <time>2021-09-07T12:20:30.000Z</time>
      </trkpt>
      <trkpt lat="43.77589" lon="6.25907">
        <ele>966</ele>
        <time>2021-09-07T12:20:31.000Z</time>
      </trkpt>
      <trkpt lat="43.77586" lon="6.25911">
        <ele>966.4</ele>
        <time>2021-09-07T12:20:31.000Z</time>
      </trkpt>
      <trkpt lat="43.77585" lon="6.25913">
        <ele>966.7</ele>
        <time>2021-09-07T12:20:32.000Z</time>
      </trkpt>
      <trkpt lat="43.77585" lon="6.25912">
        <ele>966.7</ele>
        <time>2021-09-07T12:20:34.000Z</time>
      </trkpt>
      <trkpt lat="43.77584" lon="6.25914">
        <ele>966.9</ele>
        <time>2021-09-07T12:20:35.000Z</time>
      </trkpt>
      <trkpt lat="43.77579" lon="6.25918">
        <ele>967.1</ele>
        <time>2021-09-07T12:20:35.000Z</time>
      </trkpt>
      <trkpt lat="43.77578" lon="6.2592">
        <ele>967.6</ele>
        <time>2021-09-07T12:20:36.000Z</time>
      </trkpt>
      <trkpt lat="43.77576" lon="6.25922">
        <ele>967.5</ele>
        <time>2021-09-07T12:20:37.000Z</time>
      </trkpt>
      <trkpt lat="43.77578" lon="6.2592">
        <ele>967.4</ele>
        <time>2021-09-07T12:20:38.000Z</time>
      </trkpt>
      <trkpt lat="43.77573" lon="6.25926">
        <ele>967.8</ele>
        <time>2021-09-07T12:20:39.000Z</time>
      </trkpt>
      <trkpt lat="43.77577" lon="6.25921">
        <ele>967.6</ele>
        <time>2021-09-07T12:20:39.000Z</time>
      </trkpt>
      <trkpt lat="43.77575" lon="6.25923">
        <ele>967.6</ele>
        <time>2021-09-07T12:20:40.000Z</time>
      </trkpt>
      <trkpt lat="43.77571" lon="6.25927">
        <ele>967.9</ele>
        <time>2021-09-07T12:20:42.000Z</time>
      </trkpt>
      <trkpt lat="43.77567" lon="6.2593">
        <ele>968.2</ele>
        <time>2021-09-07T12:20:42.000Z</time>
      </trkpt>
      <trkpt lat="43.77564" lon="6.25934">
        <ele>968.9</ele>
        <time>2021-09-07T12:20:44.000Z</time>
      </trkpt>
      <trkpt lat="43.77562" lon="6.25936">
        <ele>968.8</ele>
        <time>2021-09-07T12:20:45.000Z</time>
      </trkpt>
      <trkpt lat="43.77566" lon="6.25932">
        <ele>968.4</ele>
        <time>2021-09-07T12:20:45.000Z</time>
      </trkpt>
      <trkpt lat="43.77562" lon="6.25935">
        <ele>968.9</ele>
        <time>2021-09-07T12:20:47.000Z</time>
      </trkpt>
      <trkpt lat="43.7756" lon="6.25938">
        <ele>969.1</ele>
        <time>2021-09-07T12:20:48.000Z</time>
      </trkpt>
      <trkpt lat="43.77556" lon="6.25941">
        <ele>969.1</ele>
        <time>2021-09-07T12:20:48.000Z</time>
      </trkpt>
      <trkpt lat="43.77556" lon="6.25941">
        <ele>969.1</ele>
        <time>2021-09-07T12:20:48.000Z</time>
      </trkpt>
      <trkpt lat="43.77553" lon="6.25945">
        <ele>969.7</ele>
        <time>2021-09-07T12:20:50.000Z</time>
      </trkpt>
      <trkpt lat="43.77555" lon="6.25942">
        <ele>969.2</ele>
        <time>2021-09-07T12:20:51.000Z</time>
      </trkpt>
      <trkpt lat="43.77552" lon="6.25947">
        <ele>970</ele>
        <time>2021-09-07T12:20:53.000Z</time>
      </trkpt>
      <trkpt lat="43.77547" lon="6.25958">
        <ele>970.9</ele>
        <time>2021-09-07T12:20:55.000Z</time>
      </trkpt>
      <trkpt lat="43.77546" lon="6.25961">
        <ele>971</ele>
        <time>2021-09-07T12:20:56.000Z</time>
      </trkpt>
      <trkpt lat="43.77544" lon="6.25969">
        <ele>972.1</ele>
        <time>2021-09-07T12:21:01.000Z</time>
      </trkpt>
      <trkpt lat="43.77545" lon="6.25978">
        <ele>972.6</ele>
        <time>2021-09-07T12:21:01.000Z</time>
      </trkpt>
      <trkpt lat="43.77545" lon="6.25983">
        <ele>972.9</ele>
        <time>2021-09-07T12:21:03.000Z</time>
      </trkpt>
      <trkpt lat="43.77545" lon="6.2598">
        <ele>972.9</ele>
        <time>2021-09-07T12:21:04.000Z</time>
      </trkpt>
      <trkpt lat="43.77546" lon="6.25986">
        <ele>972.9</ele>
        <time>2021-09-07T12:21:04.000Z</time>
      </trkpt>
      <trkpt lat="43.77547" lon="6.25992">
        <ele>973.6</ele>
        <time>2021-09-07T12:21:06.000Z</time>
      </trkpt>
      <trkpt lat="43.77548" lon="6.25994">
        <ele>973.3</ele>
        <time>2021-09-07T12:21:07.000Z</time>
      </trkpt>
      <trkpt lat="43.77552" lon="6.26007">
        <ele>973.5</ele>
        <time>2021-09-07T12:21:11.000Z</time>
      </trkpt>
      <trkpt lat="43.77555" lon="6.2601">
        <ele>973.6</ele>
        <time>2021-09-07T12:21:12.000Z</time>
      </trkpt>
      <trkpt lat="43.7755" lon="6.26001">
        <ele>973.5</ele>
        <time>2021-09-07T12:21:12.000Z</time>
      </trkpt>
      <trkpt lat="43.77557" lon="6.26013">
        <ele>973.7</ele>
        <time>2021-09-07T12:21:13.000Z</time>
      </trkpt>
      <trkpt lat="43.77559" lon="6.26016">
        <ele>974</ele>
        <time>2021-09-07T12:21:14.000Z</time>
      </trkpt>
      <trkpt lat="43.77553" lon="6.26009">
        <ele>973.5</ele>
        <time>2021-09-07T12:21:14.000Z</time>
      </trkpt>
      <trkpt lat="43.77556" lon="6.26012">
        <ele>973.6</ele>
        <time>2021-09-07T12:21:15.000Z</time>
      </trkpt>
      <trkpt lat="43.7756" lon="6.26019">
        <ele>974</ele>
        <time>2021-09-07T12:21:15.000Z</time>
      </trkpt>
      <trkpt lat="43.77562" lon="6.26026">
        <ele>974.5</ele>
        <time>2021-09-07T12:21:17.000Z</time>
      </trkpt>
      <trkpt lat="43.77562" lon="6.26029">
        <ele>974.4</ele>
        <time>2021-09-07T12:21:18.000Z</time>
      </trkpt>
      <trkpt lat="43.77561" lon="6.2602">
        <ele>974</ele>
        <time>2021-09-07T12:21:18.000Z</time>
      </trkpt>
      <trkpt lat="43.77561" lon="6.26033">
        <ele>974.5</ele>
        <time>2021-09-07T12:21:20.000Z</time>
      </trkpt>
      <trkpt lat="43.77562" lon="6.26028">
        <ele>974.5</ele>
        <time>2021-09-07T12:21:20.000Z</time>
      </trkpt>
      <trkpt lat="43.77561" lon="6.26031">
        <ele>974.4</ele>
        <time>2021-09-07T12:21:21.000Z</time>
      </trkpt>
      <trkpt lat="43.77561" lon="6.26036">
        <ele>974.6</ele>
        <time>2021-09-07T12:21:21.000Z</time>
      </trkpt>
      <trkpt lat="43.7756" lon="6.26034">
        <ele>974.6</ele>
        <time>2021-09-07T12:21:27.000Z</time>
      </trkpt>
      <trkpt lat="43.7756" lon="6.26034">
        <ele>974.4</ele>
        <time>2021-09-07T12:21:28.000Z</time>
      </trkpt>
      <trkpt lat="43.77561" lon="6.26033">
        <ele>974.5</ele>
        <time>2021-09-07T12:21:28.000Z</time>
      </trkpt>
      <trkpt lat="43.77561" lon="6.26031">
        <ele>974.3</ele>
        <time>2021-09-07T12:21:33.000Z</time>
      </trkpt>
      <trkpt lat="43.77561" lon="6.26031">
        <ele>974.2</ele>
        <time>2021-09-07T12:21:34.000Z</time>
      </trkpt>
      <trkpt lat="43.77561" lon="6.26031">
        <ele>974.1</ele>
        <time>2021-09-07T12:21:36.000Z</time>
      </trkpt>
      <trkpt lat="43.77561" lon="6.2603">
        <ele>974</ele>
        <time>2021-09-07T12:21:40.000Z</time>
      </trkpt>
      <trkpt lat="43.7756" lon="6.2603">
        <ele>974.3</ele>
        <time>2021-09-07T12:21:43.000Z</time>
      </trkpt>
      <trkpt lat="43.7756" lon="6.2603">
        <ele>974.6</ele>
        <time>2021-09-07T12:21:44.000Z</time>
      </trkpt>
      <trkpt lat="43.7756" lon="6.2603">
        <ele>974.2</ele>
        <time>2021-09-07T12:21:47.000Z</time>
      </trkpt>
      <trkpt lat="43.77559" lon="6.2603">
        <ele>974.1</ele>
        <time>2021-09-07T12:21:50.000Z</time>
      </trkpt>
      <trkpt lat="43.77558" lon="6.2603">
        <ele>974.2</ele>
        <time>2021-09-07T12:21:55.000Z</time>
      </trkpt>
      <trkpt lat="43.77558" lon="6.26029">
        <ele>973.8</ele>
        <time>2021-09-07T12:21:58.000Z</time>
      </trkpt>
      <trkpt lat="43.77558" lon="6.26029">
        <ele>973.8</ele>
        <time>2021-09-07T12:22:00.000Z</time>
      </trkpt>
      <trkpt lat="43.77558" lon="6.26029">
        <ele>973.9</ele>
        <time>2021-09-07T12:22:01.000Z</time>
      </trkpt>
      <trkpt lat="43.77557" lon="6.26029">
        <ele>973.9</ele>
        <time>2021-09-07T12:22:06.000Z</time>
      </trkpt>
      <trkpt lat="43.77557" lon="6.26029">
        <ele>973.9</ele>
        <time>2021-09-07T12:22:11.000Z</time>
      </trkpt>
      <trkpt lat="43.77557" lon="6.26029">
        <ele>973.8</ele>
        <time>2021-09-07T12:22:16.000Z</time>
      </trkpt>
      <trkpt lat="43.77557" lon="6.26029">
        <ele>974.1</ele>
        <time>2021-09-07T12:22:21.000Z</time>
      </trkpt>
      <trkpt lat="43.77557" lon="6.26029">
        <ele>973.9</ele>
        <time>2021-09-07T12:22:25.000Z</time>
      </trkpt>
      <trkpt lat="43.77556" lon="6.26029">
        <ele>973.9</ele>
        <time>2021-09-07T12:22:27.000Z</time>
      </trkpt>
      <trkpt lat="43.77556" lon="6.26028">
        <ele>974</ele>
        <time>2021-09-07T12:22:32.000Z</time>
      </trkpt>
      <trkpt lat="43.77556" lon="6.26028">
        <ele>974.1</ele>
        <time>2021-09-07T12:22:36.000Z</time>
      </trkpt>
      <trkpt lat="43.77556" lon="6.26028">
        <ele>973.8</ele>
        <time>2021-09-07T12:22:37.000Z</time>
      </trkpt>
      <trkpt lat="43.77556" lon="6.26028">
        <ele>974</ele>
        <time>2021-09-07T12:22:42.000Z</time>
      </trkpt>
      <trkpt lat="43.77556" lon="6.26028">
        <ele>974</ele>
        <time>2021-09-07T12:22:47.000Z</time>
      </trkpt>
      <trkpt lat="43.77556" lon="6.26028">
        <ele>974.2</ele>
        <time>2021-09-07T12:22:49.000Z</time>
      </trkpt>
      <trkpt lat="43.77556" lon="6.26028">
        <ele>974</ele>
        <time>2021-09-07T12:22:50.000Z</time>
      </trkpt>
      <trkpt lat="43.77556" lon="6.26028">
        <ele>973.8</ele>
        <time>2021-09-07T12:22:55.000Z</time>
      </trkpt>
      <trkpt lat="43.77556" lon="6.26028">
        <ele>973.6</ele>
        <time>2021-09-07T12:22:59.000Z</time>
      </trkpt>
      <trkpt lat="43.77556" lon="6.26029">
        <ele>973.7</ele>
        <time>2021-09-07T12:23:02.000Z</time>
      </trkpt>
      <trkpt lat="43.77557" lon="6.26029">
        <ele>973.8</ele>
        <time>2021-09-07T12:23:05.000Z</time>
      </trkpt>
      <trkpt lat="43.77557" lon="6.26029">
        <ele>973.8</ele>
        <time>2021-09-07T12:23:06.000Z</time>
      </trkpt>
      <trkpt lat="43.77557" lon="6.26029">
        <ele>973.9</ele>
        <time>2021-09-07T12:23:11.000Z</time>
      </trkpt>
      <trkpt lat="43.77557" lon="6.26028">
        <ele>973.7</ele>
        <time>2021-09-07T12:23:16.000Z</time>
      </trkpt>
      <trkpt lat="43.77557" lon="6.26029">
        <ele>973.6</ele>
        <time>2021-09-07T12:23:21.000Z</time>
      </trkpt>
      <trkpt lat="43.77557" lon="6.26028">
        <ele>974</ele>
        <time>2021-09-07T12:23:26.000Z</time>
      </trkpt>
      <trkpt lat="43.77557" lon="6.26028">
        <ele>974</ele>
        <time>2021-09-07T12:23:29.000Z</time>
      </trkpt>
      <trkpt lat="43.77557" lon="6.26028">
        <ele>973.8</ele>
        <time>2021-09-07T12:23:32.000Z</time>
      </trkpt>
      <trkpt lat="43.77557" lon="6.26028">
        <ele>973.8</ele>
        <time>2021-09-07T12:23:36.000Z</time>
      </trkpt>
      <trkpt lat="43.77557" lon="6.26028">
        <ele>973.8</ele>
        <time>2021-09-07T12:23:37.000Z</time>
      </trkpt>
      <trkpt lat="43.77557" lon="6.26027">
        <ele>973.8</ele>
        <time>2021-09-07T12:23:42.000Z</time>
      </trkpt>
      <trkpt lat="43.77557" lon="6.26027">
        <ele>973.8</ele>
        <time>2021-09-07T12:23:47.000Z</time>
      </trkpt>
      <trkpt lat="43.77556" lon="6.26027">
        <ele>974.2</ele>
        <time>2021-09-07T12:23:51.000Z</time>
      </trkpt>
      <trkpt lat="43.77556" lon="6.26027">
        <ele>974</ele>
        <time>2021-09-07T12:23:52.000Z</time>
      </trkpt>
      <trkpt lat="43.77556" lon="6.26027">
        <ele>973.7</ele>
        <time>2021-09-07T12:23:53.000Z</time>
      </trkpt>
      <trkpt lat="43.77556" lon="6.26027">
        <ele>973.8</ele>
        <time>2021-09-07T12:23:54.000Z</time>
      </trkpt>
      <trkpt lat="43.77555" lon="6.26027">
        <ele>973.7</ele>
        <time>2021-09-07T12:23:59.000Z</time>
      </trkpt>
      <trkpt lat="43.77555" lon="6.26027">
        <ele>973.7</ele>
        <time>2021-09-07T12:24:00.000Z</time>
      </trkpt>
      <trkpt lat="43.77555" lon="6.26027">
        <ele>974.1</ele>
        <time>2021-09-07T12:24:05.000Z</time>
      </trkpt>
      <trkpt lat="43.77555" lon="6.26027">
        <ele>974.2</ele>
        <time>2021-09-07T12:24:10.000Z</time>
      </trkpt>
      <trkpt lat="43.77554" lon="6.26027">
        <ele>974.4</ele>
        <time>2021-09-07T12:24:15.000Z</time>
      </trkpt>
      <trkpt lat="43.77554" lon="6.26027">
        <ele>974.4</ele>
        <time>2021-09-07T12:24:16.000Z</time>
      </trkpt>
      <trkpt lat="43.77554" lon="6.26027">
        <ele>974.4</ele>
        <time>2021-09-07T12:24:21.000Z</time>
      </trkpt>
      <trkpt lat="43.77554" lon="6.26027">
        <ele>974.3</ele>
        <time>2021-09-07T12:24:26.000Z</time>
      </trkpt>
      <trkpt lat="43.77554" lon="6.26027">
        <ele>974.5</ele>
        <time>2021-09-07T12:24:31.000Z</time>
      </trkpt>
      <trkpt lat="43.77554" lon="6.26027">
        <ele>974.2</ele>
        <time>2021-09-07T12:24:36.000Z</time>
      </trkpt>
      <trkpt lat="43.77554" lon="6.26027">
        <ele>974.2</ele>
        <time>2021-09-07T12:24:41.000Z</time>
      </trkpt>
      <trkpt lat="43.77554" lon="6.26027">
        <ele>974.2</ele>
        <time>2021-09-07T12:24:42.000Z</time>
      </trkpt>
      <trkpt lat="43.77554" lon="6.26026">
        <ele>974.2</ele>
        <time>2021-09-07T12:24:47.000Z</time>
      </trkpt>
      <trkpt lat="43.77553" lon="6.26026">
        <ele>974.5</ele>
        <time>2021-09-07T12:24:52.000Z</time>
      </trkpt>
      <trkpt lat="43.77553" lon="6.26026">
        <ele>974.3</ele>
        <time>2021-09-07T12:24:57.000Z</time>
      </trkpt>
      <trkpt lat="43.77553" lon="6.26026">
        <ele>974.2</ele>
        <time>2021-09-07T12:25:02.000Z</time>
      </trkpt>
      <trkpt lat="43.77554" lon="6.26026">
        <ele>974.3</ele>
        <time>2021-09-07T12:25:07.000Z</time>
      </trkpt>
      <trkpt lat="43.77554" lon="6.26026">
        <ele>974.2</ele>
        <time>2021-09-07T12:25:12.000Z</time>
      </trkpt>
      <trkpt lat="43.77554" lon="6.26026">
        <ele>974.2</ele>
        <time>2021-09-07T12:25:15.000Z</time>
      </trkpt>
      <trkpt lat="43.77554" lon="6.26026">
        <ele>974.3</ele>
        <time>2021-09-07T12:25:18.000Z</time>
      </trkpt>
      <trkpt lat="43.77554" lon="6.26026">
        <ele>974.5</ele>
        <time>2021-09-07T12:25:23.000Z</time>
      </trkpt>
      <trkpt lat="43.77554" lon="6.26026">
        <ele>974.2</ele>
        <time>2021-09-07T12:25:25.000Z</time>
      </trkpt>
      <trkpt lat="43.77554" lon="6.26026">
        <ele>974.2</ele>
        <time>2021-09-07T12:25:26.000Z</time>
      </trkpt>
      <trkpt lat="43.77555" lon="6.26027">
        <ele>974.4</ele>
        <time>2021-09-07T12:25:29.000Z</time>
      </trkpt>
      <trkpt lat="43.77555" lon="6.26027">
        <ele>974.5</ele>
        <time>2021-09-07T12:25:30.000Z</time>
      </trkpt>
      <trkpt lat="43.77555" lon="6.26027">
        <ele>974.5</ele>
        <time>2021-09-07T12:25:31.000Z</time>
      </trkpt>
      <trkpt lat="43.77556" lon="6.26027">
        <ele>974.3</ele>
        <time>2021-09-07T12:25:35.000Z</time>
      </trkpt>
      <trkpt lat="43.77555" lon="6.26026">
        <ele>974.3</ele>
        <time>2021-09-07T12:25:40.000Z</time>
      </trkpt>
      <trkpt lat="43.77556" lon="6.26026">
        <ele>974.4</ele>
        <time>2021-09-07T12:25:41.000Z</time>
      </trkpt>
      <trkpt lat="43.77555" lon="6.26026">
        <ele>974.7</ele>
        <time>2021-09-07T12:25:47.000Z</time>
      </trkpt>
      <trkpt lat="43.77552" lon="6.26028">
        <ele>974.9</ele>
        <time>2021-09-07T12:25:48.000Z</time>
      </trkpt>
      <trkpt lat="43.77555" lon="6.26027">
        <ele>974.3</ele>
        <time>2021-09-07T12:25:49.000Z</time>
      </trkpt>
      <trkpt lat="43.77553" lon="6.26027">
        <ele>974.7</ele>
        <time>2021-09-07T12:25:50.000Z</time>
      </trkpt>
      <trkpt lat="43.7755" lon="6.2603">
        <ele>974.9</ele>
        <time>2021-09-07T12:25:51.000Z</time>
      </trkpt>
      <trkpt lat="43.77545" lon="6.26034">
        <ele>975.1</ele>
        <time>2021-09-07T12:25:51.000Z</time>
      </trkpt>
      <trkpt lat="43.77542" lon="6.26035">
        <ele>974.8</ele>
        <time>2021-09-07T12:25:52.000Z</time>
      </trkpt>
      <trkpt lat="43.77537" lon="6.26035">
        <ele>974.8</ele>
        <time>2021-09-07T12:25:54.000Z</time>
      </trkpt>
      <trkpt lat="43.77543" lon="6.26034">
        <ele>975</ele>
        <time>2021-09-07T12:25:54.000Z</time>
      </trkpt>
      <trkpt lat="43.77541" lon="6.26035">
        <ele>974.7</ele>
        <time>2021-09-07T12:25:55.000Z</time>
      </trkpt>
      <trkpt lat="43.77535" lon="6.26032">
        <ele>975.2</ele>
        <time>2021-09-07T12:25:56.000Z</time>
      </trkpt>
      <trkpt lat="43.77534" lon="6.2603">
        <ele>975.3</ele>
        <time>2021-09-07T12:25:57.000Z</time>
      </trkpt>
      <trkpt lat="43.77536" lon="6.26034">
        <ele>975</ele>
        <time>2021-09-07T12:25:57.000Z</time>
      </trkpt>
      <trkpt lat="43.77532" lon="6.26027">
        <ele>975.7</ele>
        <time>2021-09-07T12:25:58.000Z</time>
      </trkpt>
      <trkpt lat="43.77534" lon="6.2603">
        <ele>975.3</ele>
        <time>2021-09-07T12:25:59.000Z</time>
      </trkpt>
      <trkpt lat="43.77532" lon="6.26028">
        <ele>975.6</ele>
        <time>2021-09-07T12:26:00.000Z</time>
      </trkpt>
      <trkpt lat="43.77531" lon="6.26025">
        <ele>975.5</ele>
        <time>2021-09-07T12:26:01.000Z</time>
      </trkpt>
      <trkpt lat="43.77528" lon="6.2602">
        <ele>975.9</ele>
        <time>2021-09-07T12:26:01.000Z</time>
      </trkpt>
      <trkpt lat="43.77527" lon="6.26013">
        <ele>976</ele>
        <time>2021-09-07T12:26:03.000Z</time>
      </trkpt>
      <trkpt lat="43.77528" lon="6.26017">
        <ele>975.9</ele>
        <time>2021-09-07T12:26:04.000Z</time>
      </trkpt>
      <trkpt lat="43.77527" lon="6.26011">
        <ele>976.1</ele>
        <time>2021-09-07T12:26:06.000Z</time>
      </trkpt>
      <trkpt lat="43.77525" lon="6.26005">
        <ele>976.6</ele>
        <time>2021-09-07T12:26:06.000Z</time>
      </trkpt>
      <trkpt lat="43.77523" lon="6.26">
        <ele>977.1</ele>
        <time>2021-09-07T12:26:08.000Z</time>
      </trkpt>
      <trkpt lat="43.77524" lon="6.26003">
        <ele>976.7</ele>
        <time>2021-09-07T12:26:09.000Z</time>
      </trkpt>
      <trkpt lat="43.77523" lon="6.25995">
        <ele>977.5</ele>
        <time>2021-09-07T12:26:10.000Z</time>
      </trkpt>
      <trkpt lat="43.77522" lon="6.25992">
        <ele>977.7</ele>
        <time>2021-09-07T12:26:11.000Z</time>
      </trkpt>
      <trkpt lat="43.77523" lon="6.25997">
        <ele>977.2</ele>
        <time>2021-09-07T12:26:11.000Z</time>
      </trkpt>
      <trkpt lat="43.77522" lon="6.25988">
        <ele>977.8</ele>
        <time>2021-09-07T12:26:13.000Z</time>
      </trkpt>
      <trkpt lat="43.77523" lon="6.25993">
        <ele>977.6</ele>
        <time>2021-09-07T12:26:13.000Z</time>
      </trkpt>
      <trkpt lat="43.77522" lon="6.2599">
        <ele>977.6</ele>
        <time>2021-09-07T12:26:14.000Z</time>
      </trkpt>
      <trkpt lat="43.77521" lon="6.25986">
        <ele>977.9</ele>
        <time>2021-09-07T12:26:16.000Z</time>
      </trkpt>
      <trkpt lat="43.77522" lon="6.25981">
        <ele>978.2</ele>
        <time>2021-09-07T12:26:16.000Z</time>
      </trkpt>
      <trkpt lat="43.77521" lon="6.25978">
        <ele>978.4</ele>
        <time>2021-09-07T12:26:17.000Z</time>
      </trkpt>
      <trkpt lat="43.7752" lon="6.25973">
        <ele>978.7</ele>
        <time>2021-09-07T12:26:19.000Z</time>
      </trkpt>
      <trkpt lat="43.77519" lon="6.25967">
        <ele>979.1</ele>
        <time>2021-09-07T12:26:21.000Z</time>
      </trkpt>
      <trkpt lat="43.77519" lon="6.2597">
        <ele>978.8</ele>
        <time>2021-09-07T12:26:22.000Z</time>
      </trkpt>
      <trkpt lat="43.77519" lon="6.25965">
        <ele>979.3</ele>
        <time>2021-09-07T12:26:24.000Z</time>
      </trkpt>
      <trkpt lat="43.77518" lon="6.25955">
        <ele>979.8</ele>
        <time>2021-09-07T12:26:25.000Z</time>
      </trkpt>
      <trkpt lat="43.77516" lon="6.2595">
        <ele>980.1</ele>
        <time>2021-09-07T12:26:27.000Z</time>
      </trkpt>
      <trkpt lat="43.77516" lon="6.25947">
        <ele>980</ele>
        <time>2021-09-07T12:26:28.000Z</time>
      </trkpt>
      <trkpt lat="43.77517" lon="6.25952">
        <ele>980</ele>
        <time>2021-09-07T12:26:28.000Z</time>
      </trkpt>
      <trkpt lat="43.77516" lon="6.25948">
        <ele>980.1</ele>
        <time>2021-09-07T12:26:30.000Z</time>
      </trkpt>
      <trkpt lat="43.77516" lon="6.25945">
        <ele>980.1</ele>
        <time>2021-09-07T12:26:31.000Z</time>
      </trkpt>
      <trkpt lat="43.77515" lon="6.2594">
        <ele>980.6</ele>
        <time>2021-09-07T12:26:31.000Z</time>
      </trkpt>
      <trkpt lat="43.77515" lon="6.25939">
        <ele>980.8</ele>
        <time>2021-09-07T12:26:32.000Z</time>
      </trkpt>
      <trkpt lat="43.77514" lon="6.25938">
        <ele>980.9</ele>
        <time>2021-09-07T12:26:33.000Z</time>
      </trkpt>
      <trkpt lat="43.77515" lon="6.2594">
        <ele>980.8</ele>
        <time>2021-09-07T12:26:34.000Z</time>
      </trkpt>
      <trkpt lat="43.77514" lon="6.25938">
        <ele>980.9</ele>
        <time>2021-09-07T12:26:35.000Z</time>
      </trkpt>
      <trkpt lat="43.77514" lon="6.25938">
        <ele>980.8</ele>
        <time>2021-09-07T12:26:36.000Z</time>
      </trkpt>
      <trkpt lat="43.77515" lon="6.25937">
        <ele>981.1</ele>
        <time>2021-09-07T12:26:37.000Z</time>
      </trkpt>
      <trkpt lat="43.77515" lon="6.25937">
        <ele>981</ele>
        <time>2021-09-07T12:26:39.000Z</time>
      </trkpt>
      <trkpt lat="43.77516" lon="6.25935">
        <ele>981.7</ele>
        <time>2021-09-07T12:26:42.000Z</time>
      </trkpt>
      <trkpt lat="43.77516" lon="6.25932">
        <ele>982.2</ele>
        <time>2021-09-07T12:26:42.000Z</time>
      </trkpt>
      <trkpt lat="43.77516" lon="6.25932">
        <ele>982.1</ele>
        <time>2021-09-07T12:26:43.000Z</time>
      </trkpt>
      <trkpt lat="43.77515" lon="6.25931">
        <ele>982.2</ele>
        <time>2021-09-07T12:26:44.000Z</time>
      </trkpt>
      <trkpt lat="43.77514" lon="6.2593">
        <ele>982.3</ele>
        <time>2021-09-07T12:26:47.000Z</time>
      </trkpt>
      <trkpt lat="43.77513" lon="6.25928">
        <ele>982.2</ele>
        <time>2021-09-07T12:26:47.000Z</time>
      </trkpt>
      <trkpt lat="43.77513" lon="6.25927">
        <ele>982.6</ele>
        <time>2021-09-07T12:26:48.000Z</time>
      </trkpt>
      <trkpt lat="43.77513" lon="6.25927">
        <ele>982.6</ele>
        <time>2021-09-07T12:26:50.000Z</time>
      </trkpt>
      <trkpt lat="43.77513" lon="6.25926">
        <ele>982.6</ele>
        <time>2021-09-07T12:26:51.000Z</time>
      </trkpt>
      <trkpt lat="43.77511" lon="6.25921">
        <ele>982.9</ele>
        <time>2021-09-07T12:26:52.000Z</time>
      </trkpt>
      <trkpt lat="43.7751" lon="6.25919">
        <ele>983</ele>
        <time>2021-09-07T12:26:53.000Z</time>
      </trkpt>
      <trkpt lat="43.77512" lon="6.25923">
        <ele>982.7</ele>
        <time>2021-09-07T12:26:53.000Z</time>
      </trkpt>
      <trkpt lat="43.77511" lon="6.2592">
        <ele>983</ele>
        <time>2021-09-07T12:26:55.000Z</time>
      </trkpt>
      <trkpt lat="43.77509" lon="6.25918">
        <ele>983.2</ele>
        <time>2021-09-07T12:26:56.000Z</time>
      </trkpt>
      <trkpt lat="43.77506" lon="6.25917">
        <ele>983.4</ele>
        <time>2021-09-07T12:26:56.000Z</time>
      </trkpt>
      <trkpt lat="43.77504" lon="6.25915">
        <ele>983.6</ele>
        <time>2021-09-07T12:26:58.000Z</time>
      </trkpt>
      <trkpt lat="43.77505" lon="6.25916">
        <ele>983.5</ele>
        <time>2021-09-07T12:26:59.000Z</time>
      </trkpt>
      <trkpt lat="43.77503" lon="6.25914">
        <ele>983.6</ele>
        <time>2021-09-07T12:27:01.000Z</time>
      </trkpt>
      <trkpt lat="43.77503" lon="6.25911">
        <ele>984</ele>
        <time>2021-09-07T12:27:01.000Z</time>
      </trkpt>
      <trkpt lat="43.77502" lon="6.2591">
        <ele>984.2</ele>
        <time>2021-09-07T12:27:02.000Z</time>
      </trkpt>
      <trkpt lat="43.77499" lon="6.25908">
        <ele>984.2</ele>
        <time>2021-09-07T12:27:04.000Z</time>
      </trkpt>
      <trkpt lat="43.77502" lon="6.25911">
        <ele>984.1</ele>
        <time>2021-09-07T12:27:04.000Z</time>
      </trkpt>
      <trkpt lat="43.77501" lon="6.25909">
        <ele>984.1</ele>
        <time>2021-09-07T12:27:05.000Z</time>
      </trkpt>
      <trkpt lat="43.77498" lon="6.25908">
        <ele>984.2</ele>
        <time>2021-09-07T12:27:05.000Z</time>
      </trkpt>
      <trkpt lat="43.77496" lon="6.25906">
        <ele>984.5</ele>
        <time>2021-09-07T12:27:06.000Z</time>
      </trkpt>
      <trkpt lat="43.77495" lon="6.25904">
        <ele>984.7</ele>
        <time>2021-09-07T12:27:07.000Z</time>
      </trkpt>
      <trkpt lat="43.77495" lon="6.25905">
        <ele>984.7</ele>
        <time>2021-09-07T12:27:09.000Z</time>
      </trkpt>
      <trkpt lat="43.77494" lon="6.25903">
        <ele>984.8</ele>
        <time>2021-09-07T12:27:10.000Z</time>
      </trkpt>
      <trkpt lat="43.7749" lon="6.25897">
        <ele>985.4</ele>
        <time>2021-09-07T12:27:11.000Z</time>
      </trkpt>
      <trkpt lat="43.77488" lon="6.25897">
        <ele>985.6</ele>
        <time>2021-09-07T12:27:14.000Z</time>
      </trkpt>
      <trkpt lat="43.77486" lon="6.25895">
        <ele>985.6</ele>
        <time>2021-09-07T12:27:14.000Z</time>
      </trkpt>
      <trkpt lat="43.77485" lon="6.25894">
        <ele>985.7</ele>
        <time>2021-09-07T12:27:15.000Z</time>
      </trkpt>
      <trkpt lat="43.77485" lon="6.25892">
        <ele>986</ele>
        <time>2021-09-07T12:27:16.000Z</time>
      </trkpt>
      <trkpt lat="43.77485" lon="6.25889">
        <ele>986</ele>
        <time>2021-09-07T12:27:17.000Z</time>
      </trkpt>
      <trkpt lat="43.77484" lon="6.25887">
        <ele>985.9</ele>
        <time>2021-09-07T12:27:18.000Z</time>
      </trkpt>
      <trkpt lat="43.77485" lon="6.2589">
        <ele>986.1</ele>
        <time>2021-09-07T12:27:19.000Z</time>
      </trkpt>
      <trkpt lat="43.77484" lon="6.25886">
        <ele>986.2</ele>
        <time>2021-09-07T12:27:19.000Z</time>
      </trkpt>
      <trkpt lat="43.77483" lon="6.25885">
        <ele>986.2</ele>
        <time>2021-09-07T12:27:22.000Z</time>
      </trkpt>
      <trkpt lat="43.77481" lon="6.25885">
        <ele>986.7</ele>
        <time>2021-09-07T12:27:22.000Z</time>
      </trkpt>
      <trkpt lat="43.77479" lon="6.2588">
        <ele>986.6</ele>
        <time>2021-09-07T12:27:25.000Z</time>
      </trkpt>
      <trkpt lat="43.77479" lon="6.25878">
        <ele>986.8</ele>
        <time>2021-09-07T12:27:26.000Z</time>
      </trkpt>
      <trkpt lat="43.77479" lon="6.25881">
        <ele>986.6</ele>
        <time>2021-09-07T12:27:27.000Z</time>
      </trkpt>
      <trkpt lat="43.77478" lon="6.25872">
        <ele>986.8</ele>
        <time>2021-09-07T12:27:28.000Z</time>
      </trkpt>
      <trkpt lat="43.77477" lon="6.2587">
        <ele>987</ele>
        <time>2021-09-07T12:27:29.000Z</time>
      </trkpt>
      <trkpt lat="43.77474" lon="6.25865">
        <ele>987.6</ele>
        <time>2021-09-07T12:27:31.000Z</time>
      </trkpt>
      <trkpt lat="43.77478" lon="6.25871">
        <ele>987</ele>
        <time>2021-09-07T12:27:31.000Z</time>
      </trkpt>
      <trkpt lat="43.77476" lon="6.25868">
        <ele>987.3</ele>
        <time>2021-09-07T12:27:32.000Z</time>
      </trkpt>
      <trkpt lat="43.77473" lon="6.25863">
        <ele>987.6</ele>
        <time>2021-09-07T12:27:32.000Z</time>
      </trkpt>
      <trkpt lat="43.7747" lon="6.25856">
        <ele>988.4</ele>
        <time>2021-09-07T12:27:36.000Z</time>
      </trkpt>
      <trkpt lat="43.77469" lon="6.25855">
        <ele>988.5</ele>
        <time>2021-09-07T12:27:37.000Z</time>
      </trkpt>
      <trkpt lat="43.77471" lon="6.25857">
        <ele>988.2</ele>
        <time>2021-09-07T12:27:37.000Z</time>
      </trkpt>
      <trkpt lat="43.77469" lon="6.25853">
        <ele>988.8</ele>
        <time>2021-09-07T12:27:38.000Z</time>
      </trkpt>
      <trkpt lat="43.7747" lon="6.25855">
        <ele>988.5</ele>
        <time>2021-09-07T12:27:39.000Z</time>
      </trkpt>
      <trkpt lat="43.77466" lon="6.25849">
        <ele>988.9</ele>
        <time>2021-09-07T12:27:40.000Z</time>
      </trkpt>
      <trkpt lat="43.77464" lon="6.25847">
        <ele>989</ele>
        <time>2021-09-07T12:27:41.000Z</time>
      </trkpt>
      <trkpt lat="43.77463" lon="6.25846">
        <ele>989.2</ele>
        <time>2021-09-07T12:27:42.000Z</time>
      </trkpt>
      <trkpt lat="43.77465" lon="6.25848">
        <ele>988.9</ele>
        <time>2021-09-07T12:27:43.000Z</time>
      </trkpt>
      <trkpt lat="43.77461" lon="6.25844">
        <ele>989.4</ele>
        <time>2021-09-07T12:27:43.000Z</time>
      </trkpt>
      <trkpt lat="43.77459" lon="6.25842">
        <ele>989.8</ele>
        <time>2021-09-07T12:27:44.000Z</time>
      </trkpt>
      <trkpt lat="43.77456" lon="6.25839">
        <ele>989.8</ele>
        <time>2021-09-07T12:27:46.000Z</time>
      </trkpt>
      <trkpt lat="43.7746" lon="6.25843">
        <ele>989.7</ele>
        <time>2021-09-07T12:27:46.000Z</time>
      </trkpt>
      <trkpt lat="43.77458" lon="6.25841">
        <ele>989.8</ele>
        <time>2021-09-07T12:27:47.000Z</time>
      </trkpt>
      <trkpt lat="43.77454" lon="6.25835">
        <ele>990.3</ele>
        <time>2021-09-07T12:27:48.000Z</time>
      </trkpt>
      <trkpt lat="43.77455" lon="6.25838">
        <ele>989.9</ele>
        <time>2021-09-07T12:27:49.000Z</time>
      </trkpt>
      <trkpt lat="43.77453" lon="6.25834">
        <ele>990.5</ele>
        <time>2021-09-07T12:27:51.000Z</time>
      </trkpt>
      <trkpt lat="43.77449" lon="6.2583">
        <ele>990.9</ele>
        <time>2021-09-07T12:27:51.000Z</time>
      </trkpt>
      <trkpt lat="43.77449" lon="6.25828">
        <ele>991.1</ele>
        <time>2021-09-07T12:27:54.000Z</time>
      </trkpt>
      <trkpt lat="43.77447" lon="6.25824">
        <ele>991.1</ele>
        <time>2021-09-07T12:27:54.000Z</time>
      </trkpt>
      <trkpt lat="43.77445" lon="6.2582">
        <ele>991.5</ele>
        <time>2021-09-07T12:27:56.000Z</time>
      </trkpt>
      <trkpt lat="43.77444" lon="6.25817">
        <ele>991.7</ele>
        <time>2021-09-07T12:27:57.000Z</time>
      </trkpt>
      <trkpt lat="43.77446" lon="6.25822">
        <ele>991.2</ele>
        <time>2021-09-07T12:27:57.000Z</time>
      </trkpt>
      <trkpt lat="43.77441" lon="6.25812">
        <ele>992</ele>
        <time>2021-09-07T12:27:59.000Z</time>
      </trkpt>
      <trkpt lat="43.77444" lon="6.25819">
        <ele>991.6</ele>
        <time>2021-09-07T12:27:59.000Z</time>
      </trkpt>
      <trkpt lat="43.77443" lon="6.25815">
        <ele>991.9</ele>
        <time>2021-09-07T12:28:00.000Z</time>
      </trkpt>
      <trkpt lat="43.7744" lon="6.25807">
        <ele>992.4</ele>
        <time>2021-09-07T12:28:01.000Z</time>
      </trkpt>
      <trkpt lat="43.77441" lon="6.2581">
        <ele>992.3</ele>
        <time>2021-09-07T12:28:02.000Z</time>
      </trkpt>
      <trkpt lat="43.77439" lon="6.25803">
        <ele>992.5</ele>
        <time>2021-09-07T12:28:03.000Z</time>
      </trkpt>
      <trkpt lat="43.77439" lon="6.25805">
        <ele>992.4</ele>
        <time>2021-09-07T12:28:04.000Z</time>
      </trkpt>
      <trkpt lat="43.77438" lon="6.25798">
        <ele>993</ele>
        <time>2021-09-07T12:28:05.000Z</time>
      </trkpt>
      <trkpt lat="43.77438" lon="6.25801">
        <ele>992.6</ele>
        <time>2021-09-07T12:28:06.000Z</time>
      </trkpt>
      <trkpt lat="43.77437" lon="6.25796">
        <ele>993.1</ele>
        <time>2021-09-07T12:28:06.000Z</time>
      </trkpt>
      <trkpt lat="43.77434" lon="6.25785">
        <ele>993.8</ele>
        <time>2021-09-07T12:28:10.000Z</time>
      </trkpt>
      <trkpt lat="43.77433" lon="6.25782">
        <ele>994.1</ele>
        <time>2021-09-07T12:28:11.000Z</time>
      </trkpt>
      <trkpt lat="43.77436" lon="6.25791">
        <ele>993.8</ele>
        <time>2021-09-07T12:28:11.000Z</time>
      </trkpt>
      <trkpt lat="43.77433" lon="6.25783">
        <ele>993.9</ele>
        <time>2021-09-07T12:28:13.000Z</time>
      </trkpt>
      <trkpt lat="43.77432" lon="6.25779">
        <ele>994.3</ele>
        <time>2021-09-07T12:28:14.000Z</time>
      </trkpt>
      <trkpt lat="43.77431" lon="6.25774">
        <ele>994.7</ele>
        <time>2021-09-07T12:28:14.000Z</time>
      </trkpt>
      <trkpt lat="43.77431" lon="6.25771">
        <ele>994.7</ele>
        <time>2021-09-07T12:28:15.000Z</time>
      </trkpt>
      <trkpt lat="43.7743" lon="6.25766">
        <ele>995.3</ele>
        <time>2021-09-07T12:28:17.000Z</time>
      </trkpt>
      <trkpt lat="43.77431" lon="6.25772">
        <ele>994.8</ele>
        <time>2021-09-07T12:28:17.000Z</time>
      </trkpt>
      <trkpt lat="43.77431" lon="6.2577">
        <ele>994.9</ele>
        <time>2021-09-07T12:28:18.000Z</time>
      </trkpt>
      <trkpt lat="43.77429" lon="6.25763">
        <ele>995.5</ele>
        <time>2021-09-07T12:28:18.000Z</time>
      </trkpt>
      <trkpt lat="43.77428" lon="6.25761">
        <ele>996</ele>
        <time>2021-09-07T12:28:19.000Z</time>
      </trkpt>
      <trkpt lat="43.77426" lon="6.25757">
        <ele>996.2</ele>
        <time>2021-09-07T12:28:21.000Z</time>
      </trkpt>
      <trkpt lat="43.77427" lon="6.25759">
        <ele>996</ele>
        <time>2021-09-07T12:28:22.000Z</time>
      </trkpt>
      <trkpt lat="43.77425" lon="6.25754">
        <ele>996</ele>
        <time>2021-09-07T12:28:24.000Z</time>
      </trkpt>
      <trkpt lat="43.77423" lon="6.25749">
        <ele>996.3</ele>
        <time>2021-09-07T12:28:24.000Z</time>
      </trkpt>
      <trkpt lat="43.77423" lon="6.25746">
        <ele>996.3</ele>
        <time>2021-09-07T12:28:25.000Z</time>
      </trkpt>
      <trkpt lat="43.77422" lon="6.25744">
        <ele>996.7</ele>
        <time>2021-09-07T12:28:26.000Z</time>
      </trkpt>
      <trkpt lat="43.77423" lon="6.25748">
        <ele>996.2</ele>
        <time>2021-09-07T12:28:27.000Z</time>
      </trkpt>
      <trkpt lat="43.77423" lon="6.25741">
        <ele>997.1</ele>
        <time>2021-09-07T12:28:28.000Z</time>
      </trkpt>
      <trkpt lat="43.77422" lon="6.25738">
        <ele>997.3</ele>
        <time>2021-09-07T12:28:29.000Z</time>
      </trkpt>
      <trkpt lat="43.77423" lon="6.25744">
        <ele>996.8</ele>
        <time>2021-09-07T12:28:29.000Z</time>
      </trkpt>
      <trkpt lat="43.77422" lon="6.25734">
        <ele>997.6</ele>
        <time>2021-09-07T12:28:30.000Z</time>
      </trkpt>
      <trkpt lat="43.77423" lon="6.25742">
        <ele>997.1</ele>
        <time>2021-09-07T12:28:30.000Z</time>
      </trkpt>
      <trkpt lat="43.77422" lon="6.25731">
        <ele>997.9</ele>
        <time>2021-09-07T12:28:31.000Z</time>
      </trkpt>
      <trkpt lat="43.77422" lon="6.25739">
        <ele>997.2</ele>
        <time>2021-09-07T12:28:31.000Z</time>
      </trkpt>
      <trkpt lat="43.77422" lon="6.25736">
        <ele>997.5</ele>
        <time>2021-09-07T12:28:32.000Z</time>
      </trkpt>
      <trkpt lat="43.77422" lon="6.25724">
        <ele>998</ele>
        <time>2021-09-07T12:28:33.000Z</time>
      </trkpt>
      <trkpt lat="43.77422" lon="6.25733">
        <ele>997.8</ele>
        <time>2021-09-07T12:28:33.000Z</time>
      </trkpt>
      <trkpt lat="43.77422" lon="6.25721">
        <ele>998.3</ele>
        <time>2021-09-07T12:28:34.000Z</time>
      </trkpt>
      <trkpt lat="43.77422" lon="6.25728">
        <ele>997.9</ele>
        <time>2021-09-07T12:28:34.000Z</time>
      </trkpt>
      <trkpt lat="43.77422" lon="6.25719">
        <ele>998.7</ele>
        <time>2021-09-07T12:28:35.000Z</time>
      </trkpt>
      <trkpt lat="43.77422" lon="6.25716">
        <ele>998.8</ele>
        <time>2021-09-07T12:28:36.000Z</time>
      </trkpt>
      <trkpt lat="43.77422" lon="6.25723">
        <ele>998.1</ele>
        <time>2021-09-07T12:28:36.000Z</time>
      </trkpt>
      <trkpt lat="43.77422" lon="6.25713">
        <ele>998.8</ele>
        <time>2021-09-07T12:28:37.000Z</time>
      </trkpt>
      <trkpt lat="43.77422" lon="6.2572">
        <ele>998.6</ele>
        <time>2021-09-07T12:28:37.000Z</time>
      </trkpt>
      <trkpt lat="43.77422" lon="6.25717">
        <ele>998.9</ele>
        <time>2021-09-07T12:28:38.000Z</time>
      </trkpt>
      <trkpt lat="43.77421" lon="6.25706">
        <ele>999.2</ele>
        <time>2021-09-07T12:28:40.000Z</time>
      </trkpt>
      <trkpt lat="43.77421" lon="6.25704">
        <ele>999.3</ele>
        <time>2021-09-07T12:28:43.000Z</time>
      </trkpt>
      <trkpt lat="43.7742" lon="6.25694">
        <ele>1000</ele>
        <time>2021-09-07T12:28:46.000Z</time>
      </trkpt>
      <trkpt lat="43.7742" lon="6.25691">
        <ele>1000.2</ele>
        <time>2021-09-07T12:28:47.000Z</time>
      </trkpt>
      <trkpt lat="43.7742" lon="6.25695">
        <ele>1000</ele>
        <time>2021-09-07T12:28:48.000Z</time>
      </trkpt>
      <trkpt lat="43.77421" lon="6.25684">
        <ele>1001.1</ele>
        <time>2021-09-07T12:28:50.000Z</time>
      </trkpt>
      <trkpt lat="43.77422" lon="6.25681">
        <ele>1001</ele>
        <time>2021-09-07T12:28:53.000Z</time>
      </trkpt>
      <trkpt lat="43.77423" lon="6.25674">
        <ele>1001.4</ele>
        <time>2021-09-07T12:28:53.000Z</time>
      </trkpt>
      <trkpt lat="43.77423" lon="6.25671">
        <ele>1001.8</ele>
        <time>2021-09-07T12:28:54.000Z</time>
      </trkpt>
      <trkpt lat="43.77424" lon="6.25663">
        <ele>1002.4</ele>
        <time>2021-09-07T12:28:57.000Z</time>
      </trkpt>
      <trkpt lat="43.77424" lon="6.2566">
        <ele>1002.6</ele>
        <time>2021-09-07T12:28:58.000Z</time>
      </trkpt>
      <trkpt lat="43.77424" lon="6.25664">
        <ele>1002.2</ele>
        <time>2021-09-07T12:28:59.000Z</time>
      </trkpt>
      <trkpt lat="43.77423" lon="6.25654">
        <ele>1002.8</ele>
        <time>2021-09-07T12:29:00.000Z</time>
      </trkpt>
      <trkpt lat="43.77425" lon="6.25661">
        <ele>1002.5</ele>
        <time>2021-09-07T12:29:00.000Z</time>
      </trkpt>
      <trkpt lat="43.77424" lon="6.25658">
        <ele>1002.6</ele>
        <time>2021-09-07T12:29:01.000Z</time>
      </trkpt>
      <trkpt lat="43.77423" lon="6.25653">
        <ele>1003</ele>
        <time>2021-09-07T12:29:03.000Z</time>
      </trkpt>
      <trkpt lat="43.7742" lon="6.25647">
        <ele>1003.5</ele>
        <time>2021-09-07T12:29:03.000Z</time>
      </trkpt>
      <trkpt lat="43.77419" lon="6.25645">
        <ele>1003.9</ele>
        <time>2021-09-07T12:29:04.000Z</time>
      </trkpt>
      <trkpt lat="43.77418" lon="6.25641">
        <ele>1003.9</ele>
        <time>2021-09-07T12:29:06.000Z</time>
      </trkpt>
      <trkpt lat="43.7742" lon="6.25646">
        <ele>1003.7</ele>
        <time>2021-09-07T12:29:06.000Z</time>
      </trkpt>
      <trkpt lat="43.77418" lon="6.25644">
        <ele>1003.9</ele>
        <time>2021-09-07T12:29:07.000Z</time>
      </trkpt>
      <trkpt lat="43.77418" lon="6.25644">
        <ele>1003.9</ele>
        <time>2021-09-07T12:29:07.000Z</time>
      </trkpt>
      <trkpt lat="43.77417" lon="6.25639">
        <ele>1003.9</ele>
        <time>2021-09-07T12:29:09.000Z</time>
      </trkpt>
      <trkpt lat="43.77415" lon="6.25636">
        <ele>1003.9</ele>
        <time>2021-09-07T12:29:10.000Z</time>
      </trkpt>
      <trkpt lat="43.77411" lon="6.25631">
        <ele>1004.4</ele>
        <time>2021-09-07T12:29:10.000Z</time>
      </trkpt>
      <trkpt lat="43.77409" lon="6.2563">
        <ele>1004.3</ele>
        <time>2021-09-07T12:29:13.000Z</time>
      </trkpt>
      <trkpt lat="43.774" lon="6.25627">
        <ele>1005.2</ele>
        <time>2021-09-07T12:29:15.000Z</time>
      </trkpt>
      <trkpt lat="43.77396" lon="6.25627">
        <ele>1005.5</ele>
        <time>2021-09-07T12:29:17.000Z</time>
      </trkpt>
      <trkpt lat="43.77399" lon="6.25627">
        <ele>1005.2</ele>
        <time>2021-09-07T12:29:18.000Z</time>
      </trkpt>
      <trkpt lat="43.77393" lon="6.25628">
        <ele>1005.7</ele>
        <time>2021-09-07T12:29:19.000Z</time>
      </trkpt>
      <trkpt lat="43.7739" lon="6.25629">
        <ele>1005.8</ele>
        <time>2021-09-07T12:29:20.000Z</time>
      </trkpt>
      <trkpt lat="43.77394" lon="6.25627">
        <ele>1005.4</ele>
        <time>2021-09-07T12:29:20.000Z</time>
      </trkpt>
      <trkpt lat="43.77389" lon="6.25629">
        <ele>1005.8</ele>
        <time>2021-09-07T12:29:21.000Z</time>
      </trkpt>
      <trkpt lat="43.77391" lon="6.25628">
        <ele>1005.8</ele>
        <time>2021-09-07T12:29:22.000Z</time>
      </trkpt>
      <trkpt lat="43.77389" lon="6.25629">
        <ele>1005.8</ele>
        <time>2021-09-07T12:29:23.000Z</time>
      </trkpt>
      <trkpt lat="43.77387" lon="6.2563">
        <ele>1006.2</ele>
        <time>2021-09-07T12:29:24.000Z</time>
      </trkpt>
      <trkpt lat="43.77384" lon="6.25632">
        <ele>1006.7</ele>
        <time>2021-09-07T12:29:24.000Z</time>
      </trkpt>
      <trkpt lat="43.77382" lon="6.25634">
        <ele>1006.7</ele>
        <time>2021-09-07T12:29:25.000Z</time>
      </trkpt>
      <trkpt lat="43.77379" lon="6.25636">
        <ele>1006.9</ele>
        <time>2021-09-07T12:29:26.000Z</time>
      </trkpt>
      <trkpt lat="43.77378" lon="6.25637">
        <ele>1007</ele>
        <time>2021-09-07T12:29:27.000Z</time>
      </trkpt>
      <trkpt lat="43.77383" lon="6.25633">
        <ele>1006.7</ele>
        <time>2021-09-07T12:29:27.000Z</time>
      </trkpt>
      <trkpt lat="43.7738" lon="6.25636">
        <ele>1006.9</ele>
        <time>2021-09-07T12:29:28.000Z</time>
      </trkpt>
      <trkpt lat="43.77372" lon="6.25641">
        <ele>1007.4</ele>
        <time>2021-09-07T12:29:29.000Z</time>
      </trkpt>
      <trkpt lat="43.7737" lon="6.25642">
        <ele>1007.8</ele>
        <time>2021-09-07T12:29:30.000Z</time>
      </trkpt>
      <trkpt lat="43.7737" lon="6.25641">
        <ele>1007.6</ele>
        <time>2021-09-07T12:29:32.000Z</time>
      </trkpt>
      <trkpt lat="43.77367" lon="6.25644">
        <ele>1007.8</ele>
        <time>2021-09-07T12:29:33.000Z</time>
      </trkpt>
      <trkpt lat="43.7736" lon="6.25649">
        <ele>1008.6</ele>
        <time>2021-09-07T12:29:34.000Z</time>
      </trkpt>
      <trkpt lat="43.77358" lon="6.2565">
        <ele>1008.6</ele>
        <time>2021-09-07T12:29:35.000Z</time>
      </trkpt>
      <trkpt lat="43.77356" lon="6.25652">
        <ele>1008.6</ele>
        <time>2021-09-07T12:29:36.000Z</time>
      </trkpt>
      <trkpt lat="43.77359" lon="6.2565">
        <ele>1008.8</ele>
        <time>2021-09-07T12:29:37.000Z</time>
      </trkpt>
      <trkpt lat="43.77357" lon="6.25651">
        <ele>1008.5</ele>
        <time>2021-09-07T12:29:38.000Z</time>
      </trkpt>
      <trkpt lat="43.77354" lon="6.25653">
        <ele>1008.8</ele>
        <time>2021-09-07T12:29:39.000Z</time>
      </trkpt>
      <trkpt lat="43.77348" lon="6.25656">
        <ele>1009.2</ele>
        <time>2021-09-07T12:29:40.000Z</time>
      </trkpt>
      <trkpt lat="43.77346" lon="6.25656">
        <ele>1009.3</ele>
        <time>2021-09-07T12:29:41.000Z</time>
      </trkpt>
      <trkpt lat="43.77341" lon="6.2566">
        <ele>1010</ele>
        <time>2021-09-07T12:29:44.000Z</time>
      </trkpt>
      <trkpt lat="43.7734" lon="6.25661">
        <ele>1010.1</ele>
        <time>2021-09-07T12:29:45.000Z</time>
      </trkpt>
      <trkpt lat="43.77338" lon="6.25661">
        <ele>1009.9</ele>
        <time>2021-09-07T12:29:46.000Z</time>
      </trkpt>
      <trkpt lat="43.77342" lon="6.25659">
        <ele>1009.8</ele>
        <time>2021-09-07T12:29:46.000Z</time>
      </trkpt>
      <trkpt lat="43.7734" lon="6.2566">
        <ele>1010.1</ele>
        <time>2021-09-07T12:29:47.000Z</time>
      </trkpt>
      <trkpt lat="43.77338" lon="6.25661">
        <ele>1009.9</ele>
        <time>2021-09-07T12:29:48.000Z</time>
      </trkpt>
      <trkpt lat="43.77337" lon="6.25662">
        <ele>1010.1</ele>
        <time>2021-09-07T12:29:49.000Z</time>
      </trkpt>
      <trkpt lat="43.77333" lon="6.25663">
        <ele>1010.7</ele>
        <time>2021-09-07T12:29:49.000Z</time>
      </trkpt>
      <trkpt lat="43.77331" lon="6.25665">
        <ele>1010.8</ele>
        <time>2021-09-07T12:29:50.000Z</time>
      </trkpt>
      <trkpt lat="43.7733" lon="6.25665">
        <ele>1010.9</ele>
        <time>2021-09-07T12:29:51.000Z</time>
      </trkpt>
      <trkpt lat="43.77331" lon="6.25664">
        <ele>1010.8</ele>
        <time>2021-09-07T12:29:52.000Z</time>
      </trkpt>
      <trkpt lat="43.77322" lon="6.25669">
        <ele>1011.4</ele>
        <time>2021-09-07T12:29:55.000Z</time>
      </trkpt>
      <trkpt lat="43.77321" lon="6.2567">
        <ele>1011.4</ele>
        <time>2021-09-07T12:29:56.000Z</time>
      </trkpt>
      <trkpt lat="43.77323" lon="6.25669">
        <ele>1011.2</ele>
        <time>2021-09-07T12:29:57.000Z</time>
      </trkpt>
      <trkpt lat="43.77316" lon="6.25672">
        <ele>1012.1</ele>
        <time>2021-09-07T12:29:59.000Z</time>
      </trkpt>
      <trkpt lat="43.77312" lon="6.25673">
        <ele>1012.8</ele>
        <time>2021-09-07T12:30:01.000Z</time>
      </trkpt>
      <trkpt lat="43.77314" lon="6.25672">
        <ele>1012.3</ele>
        <time>2021-09-07T12:30:02.000Z</time>
      </trkpt>
      <trkpt lat="43.7731" lon="6.25675">
        <ele>1012.8</ele>
        <time>2021-09-07T12:30:03.000Z</time>
      </trkpt>
      <trkpt lat="43.77311" lon="6.25674">
        <ele>1012.7</ele>
        <time>2021-09-07T12:30:04.000Z</time>
      </trkpt>
      <trkpt lat="43.77309" lon="6.25675">
        <ele>1013</ele>
        <time>2021-09-07T12:30:06.000Z</time>
      </trkpt>
      <trkpt lat="43.77306" lon="6.25676">
        <ele>1013.3</ele>
        <time>2021-09-07T12:30:07.000Z</time>
      </trkpt>
      <trkpt lat="43.77306" lon="6.25677">
        <ele>1013.4</ele>
        <time>2021-09-07T12:30:09.000Z</time>
      </trkpt>
      <trkpt lat="43.77305" lon="6.25676">
        <ele>1013.3</ele>
        <time>2021-09-07T12:30:10.000Z</time>
      </trkpt>
      <trkpt lat="43.77304" lon="6.25676">
        <ele>1013.4</ele>
        <time>2021-09-07T12:30:11.000Z</time>
      </trkpt>
      <trkpt lat="43.77303" lon="6.25677">
        <ele>1013.8</ele>
        <time>2021-09-07T12:30:11.000Z</time>
      </trkpt>
      <trkpt lat="43.77302" lon="6.25676">
        <ele>1013.9</ele>
        <time>2021-09-07T12:30:13.000Z</time>
      </trkpt>
      <trkpt lat="43.77299" lon="6.25676">
        <ele>1014.4</ele>
        <time>2021-09-07T12:30:14.000Z</time>
      </trkpt>
      <trkpt lat="43.77298" lon="6.25675">
        <ele>1014.4</ele>
        <time>2021-09-07T12:30:16.000Z</time>
      </trkpt>
      <trkpt lat="43.77292" lon="6.25672">
        <ele>1015.1</ele>
        <time>2021-09-07T12:30:18.000Z</time>
      </trkpt>
      <trkpt lat="43.77291" lon="6.25672">
        <ele>1015.1</ele>
        <time>2021-09-07T12:30:19.000Z</time>
      </trkpt>
      <trkpt lat="43.77291" lon="6.25672">
        <ele>1015.1</ele>
        <time>2021-09-07T12:30:20.000Z</time>
      </trkpt>
      <trkpt lat="43.77289" lon="6.25671">
        <ele>1015.3</ele>
        <time>2021-09-07T12:30:21.000Z</time>
      </trkpt>
      <trkpt lat="43.77286" lon="6.25672">
        <ele>1016.2</ele>
        <time>2021-09-07T12:30:22.000Z</time>
      </trkpt>
      <trkpt lat="43.77284" lon="6.25671">
        <ele>1016.4</ele>
        <time>2021-09-07T12:30:23.000Z</time>
      </trkpt>
      <trkpt lat="43.77285" lon="6.25671">
        <ele>1016.3</ele>
        <time>2021-09-07T12:30:24.000Z</time>
      </trkpt>
      <trkpt lat="43.77283" lon="6.2567">
        <ele>1016.4</ele>
        <time>2021-09-07T12:30:25.000Z</time>
      </trkpt>
      <trkpt lat="43.7728" lon="6.25668">
        <ele>1016.6</ele>
        <time>2021-09-07T12:30:25.000Z</time>
      </trkpt>
      <trkpt lat="43.77278" lon="6.25668">
        <ele>1016.5</ele>
        <time>2021-09-07T12:30:27.000Z</time>
      </trkpt>
      <trkpt lat="43.77273" lon="6.25668">
        <ele>1016.9</ele>
        <time>2021-09-07T12:30:28.000Z</time>
      </trkpt>
      <trkpt lat="43.7727" lon="6.25668">
        <ele>1016.9</ele>
        <time>2021-09-07T12:30:29.000Z</time>
      </trkpt>
      <trkpt lat="43.77271" lon="6.25668">
        <ele>1016.8</ele>
        <time>2021-09-07T12:30:30.000Z</time>
      </trkpt>
      <trkpt lat="43.77268" lon="6.25668">
        <ele>1017</ele>
        <time>2021-09-07T12:30:31.000Z</time>
      </trkpt>
      <trkpt lat="43.77265" lon="6.25669">
        <ele>1017.4</ele>
        <time>2021-09-07T12:30:31.000Z</time>
      </trkpt>
      <trkpt lat="43.77263" lon="6.25671">
        <ele>1017.4</ele>
        <time>2021-09-07T12:30:33.000Z</time>
      </trkpt>
      <trkpt lat="43.77259" lon="6.25684">
        <ele>1017.8</ele>
        <time>2021-09-07T12:30:35.000Z</time>
      </trkpt>
      <trkpt lat="43.7726" lon="6.25687">
        <ele>1017.9</ele>
        <time>2021-09-07T12:30:37.000Z</time>
      </trkpt>
      <trkpt lat="43.77263" lon="6.25691">
        <ele>1018.2</ele>
        <time>2021-09-07T12:30:37.000Z</time>
      </trkpt>
      <trkpt lat="43.77264" lon="6.25693">
        <ele>1018.3</ele>
        <time>2021-09-07T12:30:39.000Z</time>
      </trkpt>
      <trkpt lat="43.77267" lon="6.25698">
        <ele>1018.6</ele>
        <time>2021-09-07T12:30:39.000Z</time>
      </trkpt>
      <trkpt lat="43.77269" lon="6.257">
        <ele>1018.7</ele>
        <time>2021-09-07T12:30:40.000Z</time>
      </trkpt>
      <trkpt lat="43.77271" lon="6.25702">
        <ele>1018.5</ele>
        <time>2021-09-07T12:30:41.000Z</time>
      </trkpt>
      <trkpt lat="43.77268" lon="6.25699">
        <ele>1018.8</ele>
        <time>2021-09-07T12:30:41.000Z</time>
      </trkpt>
      <trkpt lat="43.77273" lon="6.25703">
        <ele>1018.4</ele>
        <time>2021-09-07T12:30:42.000Z</time>
      </trkpt>
      <trkpt lat="43.77271" lon="6.25702">
        <ele>1018.6</ele>
        <time>2021-09-07T12:30:42.000Z</time>
      </trkpt>
      <trkpt lat="43.77272" lon="6.25703">
        <ele>1018.4</ele>
        <time>2021-09-07T12:30:43.000Z</time>
      </trkpt>
      <trkpt lat="43.77275" lon="6.25704">
        <ele>1018.5</ele>
        <time>2021-09-07T12:30:44.000Z</time>
      </trkpt>
      <trkpt lat="43.77279" lon="6.25707">
        <ele>1018.6</ele>
        <time>2021-09-07T12:30:45.000Z</time>
      </trkpt>
      <trkpt lat="43.77281" lon="6.25707">
        <ele>1018.4</ele>
        <time>2021-09-07T12:30:46.000Z</time>
      </trkpt>
      <trkpt lat="43.77283" lon="6.25707">
        <ele>1018.5</ele>
        <time>2021-09-07T12:30:47.000Z</time>
      </trkpt>
      <trkpt lat="43.7728" lon="6.25707">
        <ele>1018.4</ele>
        <time>2021-09-07T12:30:47.000Z</time>
      </trkpt>
      <trkpt lat="43.77282" lon="6.25707">
        <ele>1018.5</ele>
        <time>2021-09-07T12:30:48.000Z</time>
      </trkpt>
      <trkpt lat="43.77284" lon="6.25707">
        <ele>1018.5</ele>
        <time>2021-09-07T12:30:49.000Z</time>
      </trkpt>
      <trkpt lat="43.77287" lon="6.25708">
        <ele>1018.5</ele>
        <time>2021-09-07T12:30:49.000Z</time>
      </trkpt>
      <trkpt lat="43.77288" lon="6.25708">
        <ele>1018.5</ele>
        <time>2021-09-07T12:30:51.000Z</time>
      </trkpt>
      <trkpt lat="43.77291" lon="6.25708">
        <ele>1019</ele>
        <time>2021-09-07T12:30:51.000Z</time>
      </trkpt>
      <trkpt lat="43.77293" lon="6.25708">
        <ele>1019.1</ele>
        <time>2021-09-07T12:30:52.000Z</time>
      </trkpt>
      <trkpt lat="43.77292" lon="6.25708">
        <ele>1019</ele>
        <time>2021-09-07T12:30:53.000Z</time>
      </trkpt>
      <trkpt lat="43.77294" lon="6.25708">
        <ele>1019.1</ele>
        <time>2021-09-07T12:30:54.000Z</time>
      </trkpt>
      <trkpt lat="43.77303" lon="6.2571">
        <ele>1020.1</ele>
        <time>2021-09-07T12:30:57.000Z</time>
      </trkpt>
      <trkpt lat="43.77305" lon="6.25712">
        <ele>1020.2</ele>
        <time>2021-09-07T12:30:58.000Z</time>
      </trkpt>
      <trkpt lat="43.77307" lon="6.25713">
        <ele>1020.5</ele>
        <time>2021-09-07T12:30:59.000Z</time>
      </trkpt>
      <trkpt lat="43.77304" lon="6.25711">
        <ele>1020.1</ele>
        <time>2021-09-07T12:30:59.000Z</time>
      </trkpt>
      <trkpt lat="43.77306" lon="6.25713">
        <ele>1020.4</ele>
        <time>2021-09-07T12:31:00.000Z</time>
      </trkpt>
      <trkpt lat="43.77309" lon="6.25714">
        <ele>1020.4</ele>
        <time>2021-09-07T12:31:01.000Z</time>
      </trkpt>
      <trkpt lat="43.77314" lon="6.25715">
        <ele>1020.7</ele>
        <time>2021-09-07T12:31:02.000Z</time>
      </trkpt>
      <trkpt lat="43.77317" lon="6.25716">
        <ele>1020.8</ele>
        <time>2021-09-07T12:31:03.000Z</time>
      </trkpt>
      <trkpt lat="43.77315" lon="6.25715">
        <ele>1020.8</ele>
        <time>2021-09-07T12:31:04.000Z</time>
      </trkpt>
      <trkpt lat="43.77318" lon="6.25717">
        <ele>1020.8</ele>
        <time>2021-09-07T12:31:05.000Z</time>
      </trkpt>
      <trkpt lat="43.77323" lon="6.25719">
        <ele>1021.7</ele>
        <time>2021-09-07T12:31:06.000Z</time>
      </trkpt>
      <trkpt lat="43.77325" lon="6.25719">
        <ele>1021.7</ele>
        <time>2021-09-07T12:31:08.000Z</time>
      </trkpt>
      <trkpt lat="43.77328" lon="6.2572">
        <ele>1021.9</ele>
        <time>2021-09-07T12:31:08.000Z</time>
      </trkpt>
      <trkpt lat="43.77328" lon="6.2572">
        <ele>1021.9</ele>
        <time>2021-09-07T12:31:08.000Z</time>
      </trkpt>
      <trkpt lat="43.77329" lon="6.25721">
        <ele>1022</ele>
        <time>2021-09-07T12:31:10.000Z</time>
      </trkpt>
      <trkpt lat="43.77334" lon="6.25722">
        <ele>1022.5</ele>
        <time>2021-09-07T12:31:11.000Z</time>
      </trkpt>
      <trkpt lat="43.77336" lon="6.25722">
        <ele>1022.7</ele>
        <time>2021-09-07T12:31:12.000Z</time>
      </trkpt>
      <trkpt lat="43.77335" lon="6.25722">
        <ele>1022.6</ele>
        <time>2021-09-07T12:31:13.000Z</time>
      </trkpt>
      <trkpt lat="43.77338" lon="6.25723">
        <ele>1022.7</ele>
        <time>2021-09-07T12:31:14.000Z</time>
      </trkpt>
      <trkpt lat="43.7734" lon="6.25723">
        <ele>1022.9</ele>
        <time>2021-09-07T12:31:14.000Z</time>
      </trkpt>
      <trkpt lat="43.77341" lon="6.25723">
        <ele>1023.1</ele>
        <time>2021-09-07T12:31:15.000Z</time>
      </trkpt>
      <trkpt lat="43.7735" lon="6.25722">
        <ele>1023.6</ele>
        <time>2021-09-07T12:31:20.000Z</time>
      </trkpt>
      <trkpt lat="43.77364" lon="6.25723">
        <ele>1024.4</ele>
        <time>2021-09-07T12:31:24.000Z</time>
      </trkpt>
      <trkpt lat="43.77362" lon="6.25723">
        <ele>1024.3</ele>
        <time>2021-09-07T12:31:25.000Z</time>
      </trkpt>
      <trkpt lat="43.77365" lon="6.25723">
        <ele>1024.5</ele>
        <time>2021-09-07T12:31:26.000Z</time>
      </trkpt>
      <trkpt lat="43.77378" lon="6.25731">
        <ele>1025.8</ele>
        <time>2021-09-07T12:31:30.000Z</time>
      </trkpt>
      <trkpt lat="43.77378" lon="6.25735">
        <ele>1026</ele>
        <time>2021-09-07T12:31:31.000Z</time>
      </trkpt>
      <trkpt lat="43.77378" lon="6.25729">
        <ele>1025.6</ele>
        <time>2021-09-07T12:31:31.000Z</time>
      </trkpt>
      <trkpt lat="43.77378" lon="6.25733">
        <ele>1025.9</ele>
        <time>2021-09-07T12:31:32.000Z</time>
      </trkpt>
      <trkpt lat="43.77378" lon="6.25737">
        <ele>1026.3</ele>
        <time>2021-09-07T12:31:32.000Z</time>
      </trkpt>
      <trkpt lat="43.77378" lon="6.25738">
        <ele>1026.5</ele>
        <time>2021-09-07T12:31:34.000Z</time>
      </trkpt>
      <trkpt lat="43.77377" lon="6.25741">
        <ele>1026.8</ele>
        <time>2021-09-07T12:31:35.000Z</time>
      </trkpt>
      <trkpt lat="43.77372" lon="6.25745">
        <ele>1027.3</ele>
        <time>2021-09-07T12:31:36.000Z</time>
      </trkpt>
      <trkpt lat="43.7737" lon="6.25745">
        <ele>1027.5</ele>
        <time>2021-09-07T12:31:37.000Z</time>
      </trkpt>
      <trkpt lat="43.77368" lon="6.25744">
        <ele>1027.7</ele>
        <time>2021-09-07T12:31:38.000Z</time>
      </trkpt>
      <trkpt lat="43.77371" lon="6.25745">
        <ele>1027.5</ele>
        <time>2021-09-07T12:31:38.000Z</time>
      </trkpt>
      <trkpt lat="43.77369" lon="6.25744">
        <ele>1027.6</ele>
        <time>2021-09-07T12:31:39.000Z</time>
      </trkpt>
      <trkpt lat="43.77366" lon="6.25743">
        <ele>1027.6</ele>
        <time>2021-09-07T12:31:39.000Z</time>
      </trkpt>
      <trkpt lat="43.77364" lon="6.25743">
        <ele>1027.8</ele>
        <time>2021-09-07T12:31:40.000Z</time>
      </trkpt>
      <trkpt lat="43.77363" lon="6.25743">
        <ele>1028</ele>
        <time>2021-09-07T12:31:42.000Z</time>
      </trkpt>
      <trkpt lat="43.77359" lon="6.25743">
        <ele>1028.5</ele>
        <time>2021-09-07T12:31:42.000Z</time>
      </trkpt>
      <trkpt lat="43.77357" lon="6.25742">
        <ele>1028.6</ele>
        <time>2021-09-07T12:31:44.000Z</time>
      </trkpt>
      <trkpt lat="43.7735" lon="6.25743">
        <ele>1029.2</ele>
        <time>2021-09-07T12:31:46.000Z</time>
      </trkpt>
      <trkpt lat="43.77348" lon="6.25744">
        <ele>1029.2</ele>
        <time>2021-09-07T12:31:48.000Z</time>
      </trkpt>
      <trkpt lat="43.77339" lon="6.25748">
        <ele>1029.9</ele>
        <time>2021-09-07T12:31:52.000Z</time>
      </trkpt>
      <trkpt lat="43.77337" lon="6.2575">
        <ele>1030</ele>
        <time>2021-09-07T12:31:53.000Z</time>
      </trkpt>
      <trkpt lat="43.7734" lon="6.25747">
        <ele>1029.8</ele>
        <time>2021-09-07T12:31:53.000Z</time>
      </trkpt>
      <trkpt lat="43.77336" lon="6.25751">
        <ele>1030</ele>
        <time>2021-09-07T12:31:54.000Z</time>
      </trkpt>
      <trkpt lat="43.77338" lon="6.25749">
        <ele>1030</ele>
        <time>2021-09-07T12:31:54.000Z</time>
      </trkpt>
      <trkpt lat="43.77336" lon="6.25751">
        <ele>1030</ele>
        <time>2021-09-07T12:31:55.000Z</time>
      </trkpt>
      <trkpt lat="43.77334" lon="6.25753">
        <ele>1030.3</ele>
        <time>2021-09-07T12:31:56.000Z</time>
      </trkpt>
      <trkpt lat="43.7733" lon="6.25754">
        <ele>1030.7</ele>
        <time>2021-09-07T12:31:57.000Z</time>
      </trkpt>
      <trkpt lat="43.77329" lon="6.25755">
        <ele>1030.7</ele>
        <time>2021-09-07T12:31:59.000Z</time>
      </trkpt>
      <trkpt lat="43.77326" lon="6.25758">
        <ele>1031</ele>
        <time>2021-09-07T12:31:59.000Z</time>
      </trkpt>
      <trkpt lat="43.77324" lon="6.25759">
        <ele>1031.1</ele>
        <time>2021-09-07T12:32:00.000Z</time>
      </trkpt>
      <trkpt lat="43.77321" lon="6.25759">
        <ele>1031.7</ele>
        <time>2021-09-07T12:32:02.000Z</time>
      </trkpt>
      <trkpt lat="43.77319" lon="6.25761">
        <ele>1032</ele>
        <time>2021-09-07T12:32:03.000Z</time>
      </trkpt>
      <trkpt lat="43.77318" lon="6.25762">
        <ele>1032</ele>
        <time>2021-09-07T12:32:04.000Z</time>
      </trkpt>
      <trkpt lat="43.7732" lon="6.2576">
        <ele>1031.9</ele>
        <time>2021-09-07T12:32:04.000Z</time>
      </trkpt>
      <trkpt lat="43.77318" lon="6.25762">
        <ele>1032</ele>
        <time>2021-09-07T12:32:05.000Z</time>
      </trkpt>
      <trkpt lat="43.77316" lon="6.25763">
        <ele>1032.2</ele>
        <time>2021-09-07T12:32:05.000Z</time>
      </trkpt>
      <trkpt lat="43.77312" lon="6.25765">
        <ele>1032.5</ele>
        <time>2021-09-07T12:32:07.000Z</time>
      </trkpt>
      <trkpt lat="43.77311" lon="6.25764">
        <ele>1032.6</ele>
        <time>2021-09-07T12:32:09.000Z</time>
      </trkpt>
      <trkpt lat="43.77309" lon="6.25764">
        <ele>1033.1</ele>
        <time>2021-09-07T12:32:09.000Z</time>
      </trkpt>
      <trkpt lat="43.77309" lon="6.25764">
        <ele>1033.1</ele>
        <time>2021-09-07T12:32:09.000Z</time>
      </trkpt>
      <trkpt lat="43.77307" lon="6.25764">
        <ele>1033.4</ele>
        <time>2021-09-07T12:32:10.000Z</time>
      </trkpt>
      <trkpt lat="43.77308" lon="6.25764">
        <ele>1033.2</ele>
        <time>2021-09-07T12:32:11.000Z</time>
      </trkpt>
      <trkpt lat="43.77305" lon="6.25764">
        <ele>1033.2</ele>
        <time>2021-09-07T12:32:12.000Z</time>
      </trkpt>
      <trkpt lat="43.77299" lon="6.25766">
        <ele>1034</ele>
        <time>2021-09-07T12:32:15.000Z</time>
      </trkpt>
      <trkpt lat="43.77297" lon="6.25766">
        <ele>1034.3</ele>
        <time>2021-09-07T12:32:16.000Z</time>
      </trkpt>
      <trkpt lat="43.77298" lon="6.25766">
        <ele>1034.2</ele>
        <time>2021-09-07T12:32:17.000Z</time>
      </trkpt>
      <trkpt lat="43.77296" lon="6.25767">
        <ele>1034.2</ele>
        <time>2021-09-07T12:32:18.000Z</time>
      </trkpt>
      <trkpt lat="43.7729" lon="6.25768">
        <ele>1035.2</ele>
        <time>2021-09-07T12:32:20.000Z</time>
      </trkpt>
      <trkpt lat="43.77288" lon="6.25768">
        <ele>1035.3</ele>
        <time>2021-09-07T12:32:21.000Z</time>
      </trkpt>
      <trkpt lat="43.77289" lon="6.25768">
        <ele>1035.3</ele>
        <time>2021-09-07T12:32:22.000Z</time>
      </trkpt>
      <trkpt lat="43.77287" lon="6.25768">
        <ele>1035.4</ele>
        <time>2021-09-07T12:32:23.000Z</time>
      </trkpt>
      <trkpt lat="43.77279" lon="6.25767">
        <ele>1036</ele>
        <time>2021-09-07T12:32:25.000Z</time>
      </trkpt>
      <trkpt lat="43.77277" lon="6.25766">
        <ele>1036.2</ele>
        <time>2021-09-07T12:32:26.000Z</time>
      </trkpt>
      <trkpt lat="43.77278" lon="6.25766">
        <ele>1036.2</ele>
        <time>2021-09-07T12:32:27.000Z</time>
      </trkpt>
      <trkpt lat="43.77276" lon="6.25766">
        <ele>1036.1</ele>
        <time>2021-09-07T12:32:28.000Z</time>
      </trkpt>
      <trkpt lat="43.77267" lon="6.25767">
        <ele>1036.9</ele>
        <time>2021-09-07T12:32:31.000Z</time>
      </trkpt>
      <trkpt lat="43.77265" lon="6.25767">
        <ele>1037</ele>
        <time>2021-09-07T12:32:32.000Z</time>
      </trkpt>
      <trkpt lat="43.77266" lon="6.25767">
        <ele>1037</ele>
        <time>2021-09-07T12:32:33.000Z</time>
      </trkpt>
      <trkpt lat="43.77264" lon="6.25768">
        <ele>1037.2</ele>
        <time>2021-09-07T12:32:34.000Z</time>
      </trkpt>
      <trkpt lat="43.77263" lon="6.25769">
        <ele>1037.3</ele>
        <time>2021-09-07T12:32:34.000Z</time>
      </trkpt>
      <trkpt lat="43.77261" lon="6.25769">
        <ele>1037.4</ele>
        <time>2021-09-07T12:32:36.000Z</time>
      </trkpt>
      <trkpt lat="43.77259" lon="6.25768">
        <ele>1037.7</ele>
        <time>2021-09-07T12:32:36.000Z</time>
      </trkpt>
      <trkpt lat="43.77257" lon="6.25766">
        <ele>1037.9</ele>
        <time>2021-09-07T12:32:37.000Z</time>
      </trkpt>
      <trkpt lat="43.77258" lon="6.25767">
        <ele>1037.8</ele>
        <time>2021-09-07T12:32:38.000Z</time>
      </trkpt>
      <trkpt lat="43.77256" lon="6.25765">
        <ele>1037.9</ele>
        <time>2021-09-07T12:32:39.000Z</time>
      </trkpt>
      <trkpt lat="43.7725" lon="6.25763">
        <ele>1038.7</ele>
        <time>2021-09-07T12:32:41.000Z</time>
      </trkpt>
      <trkpt lat="43.77248" lon="6.25763">
        <ele>1038.9</ele>
        <time>2021-09-07T12:32:43.000Z</time>
      </trkpt>
      <trkpt lat="43.77244" lon="6.25761">
        <ele>1039.1</ele>
        <time>2021-09-07T12:32:44.000Z</time>
      </trkpt>
      <trkpt lat="43.77242" lon="6.2576">
        <ele>1039.2</ele>
        <time>2021-09-07T12:32:45.000Z</time>
      </trkpt>
      <trkpt lat="43.77241" lon="6.2576">
        <ele>1039.4</ele>
        <time>2021-09-07T12:32:46.000Z</time>
      </trkpt>
      <trkpt lat="43.77243" lon="6.2576">
        <ele>1039.2</ele>
        <time>2021-09-07T12:32:46.000Z</time>
      </trkpt>
      <trkpt lat="43.77242" lon="6.2576">
        <ele>1039.3</ele>
        <time>2021-09-07T12:32:47.000Z</time>
      </trkpt>
      <trkpt lat="43.7724" lon="6.25759">
        <ele>1039.4</ele>
        <time>2021-09-07T12:32:47.000Z</time>
      </trkpt>
      <trkpt lat="43.77235" lon="6.25757">
        <ele>1040.2</ele>
        <time>2021-09-07T12:32:50.000Z</time>
      </trkpt>
      <trkpt lat="43.77234" lon="6.25756">
        <ele>1040.3</ele>
        <time>2021-09-07T12:32:52.000Z</time>
      </trkpt>
      <trkpt lat="43.77225" lon="6.25755">
        <ele>1041.1</ele>
        <time>2021-09-07T12:32:55.000Z</time>
      </trkpt>
      <trkpt lat="43.77222" lon="6.25756">
        <ele>1041.1</ele>
        <time>2021-09-07T12:32:56.000Z</time>
      </trkpt>
      <trkpt lat="43.77219" lon="6.25755">
        <ele>1041.4</ele>
        <time>2021-09-07T12:32:57.000Z</time>
      </trkpt>
      <trkpt lat="43.77224" lon="6.25756">
        <ele>1041.1</ele>
        <time>2021-09-07T12:32:57.000Z</time>
      </trkpt>
      <trkpt lat="43.7722" lon="6.25756">
        <ele>1041.2</ele>
        <time>2021-09-07T12:32:58.000Z</time>
      </trkpt>
      <trkpt lat="43.77217" lon="6.25754">
        <ele>1041.6</ele>
        <time>2021-09-07T12:32:59.000Z</time>
      </trkpt>
      <trkpt lat="43.77215" lon="6.25751">
        <ele>1041.7</ele>
        <time>2021-09-07T12:32:59.000Z</time>
      </trkpt>
      <trkpt lat="43.77214" lon="6.2575">
        <ele>1041.8</ele>
        <time>2021-09-07T12:33:01.000Z</time>
      </trkpt>
      <trkpt lat="43.77208" lon="6.25748">
        <ele>1041.9</ele>
        <time>2021-09-07T12:33:02.000Z</time>
      </trkpt>
      <trkpt lat="43.77206" lon="6.25748">
        <ele>1042</ele>
        <time>2021-09-07T12:33:03.000Z</time>
      </trkpt>
      <trkpt lat="43.77207" lon="6.25748">
        <ele>1041.9</ele>
        <time>2021-09-07T12:33:04.000Z</time>
      </trkpt>
      <trkpt lat="43.77205" lon="6.25747">
        <ele>1042.2</ele>
        <time>2021-09-07T12:33:05.000Z</time>
      </trkpt>
      <trkpt lat="43.77195" lon="6.25742">
        <ele>1043.7</ele>
        <time>2021-09-07T12:33:08.000Z</time>
      </trkpt>
      <trkpt lat="43.77193" lon="6.25741">
        <ele>1043.6</ele>
        <time>2021-09-07T12:33:09.000Z</time>
      </trkpt>
      <trkpt lat="43.77194" lon="6.25742">
        <ele>1043.6</ele>
        <time>2021-09-07T12:33:10.000Z</time>
      </trkpt>
      <trkpt lat="43.77192" lon="6.2574">
        <ele>1043.7</ele>
        <time>2021-09-07T12:33:11.000Z</time>
      </trkpt>
      <trkpt lat="43.7719" lon="6.2574">
        <ele>1043.8</ele>
        <time>2021-09-07T12:33:12.000Z</time>
      </trkpt>
      <trkpt lat="43.77182" lon="6.25741">
        <ele>1044.8</ele>
        <time>2021-09-07T12:33:14.000Z</time>
      </trkpt>
      <trkpt lat="43.7718" lon="6.25741">
        <ele>1044.9</ele>
        <time>2021-09-07T12:33:15.000Z</time>
      </trkpt>
      <trkpt lat="43.77181" lon="6.25741">
        <ele>1044.8</ele>
        <time>2021-09-07T12:33:16.000Z</time>
      </trkpt>
      <trkpt lat="43.77179" lon="6.2574">
        <ele>1045</ele>
        <time>2021-09-07T12:33:17.000Z</time>
      </trkpt>
      <trkpt lat="43.77177" lon="6.25739">
        <ele>1045.1</ele>
        <time>2021-09-07T12:33:17.000Z</time>
      </trkpt>
      <trkpt lat="43.77175" lon="6.25738">
        <ele>1045.4</ele>
        <time>2021-09-07T12:33:18.000Z</time>
      </trkpt>
      <trkpt lat="43.77173" lon="6.25739">
        <ele>1045.4</ele>
        <time>2021-09-07T12:33:19.000Z</time>
      </trkpt>
      <trkpt lat="43.77176" lon="6.25739">
        <ele>1045.3</ele>
        <time>2021-09-07T12:33:19.000Z</time>
      </trkpt>
      <trkpt lat="43.77174" lon="6.25738">
        <ele>1045.5</ele>
        <time>2021-09-07T12:33:20.000Z</time>
      </trkpt>
      <trkpt lat="43.77172" lon="6.25739">
        <ele>1045.7</ele>
        <time>2021-09-07T12:33:21.000Z</time>
      </trkpt>
      <trkpt lat="43.7717" lon="6.2574">
        <ele>1046.3</ele>
        <time>2021-09-07T12:33:21.000Z</time>
      </trkpt>
      <trkpt lat="43.77168" lon="6.25741">
        <ele>1046.4</ele>
        <time>2021-09-07T12:33:22.000Z</time>
      </trkpt>
      <trkpt lat="43.77157" lon="6.25734">
        <ele>1047.1</ele>
        <time>2021-09-07T12:33:26.000Z</time>
      </trkpt>
      <trkpt lat="43.77159" lon="6.25735">
        <ele>1047.2</ele>
        <time>2021-09-07T12:33:27.000Z</time>
      </trkpt>
      <trkpt lat="43.77156" lon="6.25733">
        <ele>1047.2</ele>
        <time>2021-09-07T12:33:28.000Z</time>
      </trkpt>
      <trkpt lat="43.77153" lon="6.25733">
        <ele>1047.7</ele>
        <time>2021-09-07T12:33:28.000Z</time>
      </trkpt>
      <trkpt lat="43.77151" lon="6.25734">
        <ele>1048</ele>
        <time>2021-09-07T12:33:29.000Z</time>
      </trkpt>
      <trkpt lat="43.77148" lon="6.25735">
        <ele>1048</ele>
        <time>2021-09-07T12:33:30.000Z</time>
      </trkpt>
      <trkpt lat="43.77151" lon="6.25734">
        <ele>1047.9</ele>
        <time>2021-09-07T12:33:30.000Z</time>
      </trkpt>
      <trkpt lat="43.7715" lon="6.25734">
        <ele>1047.9</ele>
        <time>2021-09-07T12:33:31.000Z</time>
      </trkpt>
      <trkpt lat="43.77146" lon="6.25735">
        <ele>1048.2</ele>
        <time>2021-09-07T12:33:32.000Z</time>
      </trkpt>
      <trkpt lat="43.77141" lon="6.25732">
        <ele>1048.4</ele>
        <time>2021-09-07T12:33:33.000Z</time>
      </trkpt>
      <trkpt lat="43.77139" lon="6.25731">
        <ele>1048.9</ele>
        <time>2021-09-07T12:33:34.000Z</time>
      </trkpt>
      <trkpt lat="43.7714" lon="6.25731">
        <ele>1048.7</ele>
        <time>2021-09-07T12:33:35.000Z</time>
      </trkpt>
      <trkpt lat="43.77138" lon="6.2573">
        <ele>1048.9</ele>
        <time>2021-09-07T12:33:36.000Z</time>
      </trkpt>
      <trkpt lat="43.77136" lon="6.2573">
        <ele>1049.4</ele>
        <time>2021-09-07T12:33:36.000Z</time>
      </trkpt>
      <trkpt lat="43.77134" lon="6.25728">
        <ele>1049.5</ele>
        <time>2021-09-07T12:33:38.000Z</time>
      </trkpt>
      <trkpt lat="43.77126" lon="6.25719">
        <ele>1050.3</ele>
        <time>2021-09-07T12:33:41.000Z</time>
      </trkpt>
      <trkpt lat="43.77124" lon="6.25716">
        <ele>1050.6</ele>
        <time>2021-09-07T12:33:42.000Z</time>
      </trkpt>
      <trkpt lat="43.77125" lon="6.25717">
        <ele>1050.6</ele>
        <time>2021-09-07T12:33:43.000Z</time>
      </trkpt>
      <trkpt lat="43.77122" lon="6.25713">
        <ele>1050.8</ele>
        <time>2021-09-07T12:33:43.000Z</time>
      </trkpt>
      <trkpt lat="43.7712" lon="6.25707">
        <ele>1051.2</ele>
        <time>2021-09-07T12:33:45.000Z</time>
      </trkpt>
      <trkpt lat="43.77119" lon="6.25704">
        <ele>1051.5</ele>
        <time>2021-09-07T12:33:46.000Z</time>
      </trkpt>
      <trkpt lat="43.77119" lon="6.25701">
        <ele>1051.5</ele>
        <time>2021-09-07T12:33:47.000Z</time>
      </trkpt>
      <trkpt lat="43.77119" lon="6.25705">
        <ele>1051.4</ele>
        <time>2021-09-07T12:33:47.000Z</time>
      </trkpt>
      <trkpt lat="43.77118" lon="6.25699">
        <ele>1051.4</ele>
        <time>2021-09-07T12:33:48.000Z</time>
      </trkpt>
      <trkpt lat="43.77119" lon="6.25703">
        <ele>1051.6</ele>
        <time>2021-09-07T12:33:48.000Z</time>
      </trkpt>
      <trkpt lat="43.77119" lon="6.257">
        <ele>1051.3</ele>
        <time>2021-09-07T12:33:49.000Z</time>
      </trkpt>
      <trkpt lat="43.77118" lon="6.25697">
        <ele>1051.5</ele>
        <time>2021-09-07T12:33:50.000Z</time>
      </trkpt>
      <trkpt lat="43.77115" lon="6.25688">
        <ele>1052.3</ele>
        <time>2021-09-07T12:33:52.000Z</time>
      </trkpt>
      <trkpt lat="43.77114" lon="6.25686">
        <ele>1052.6</ele>
        <time>2021-09-07T12:33:53.000Z</time>
      </trkpt>
      <trkpt lat="43.77114" lon="6.25687">
        <ele>1052.5</ele>
        <time>2021-09-07T12:33:54.000Z</time>
      </trkpt>
      <trkpt lat="43.77114" lon="6.25684">
        <ele>1052.6</ele>
        <time>2021-09-07T12:33:55.000Z</time>
      </trkpt>
      <trkpt lat="43.77112" lon="6.25679">
        <ele>1053.2</ele>
        <time>2021-09-07T12:33:56.000Z</time>
      </trkpt>
      <trkpt lat="43.77112" lon="6.25675">
        <ele>1053.3</ele>
        <time>2021-09-07T12:33:57.000Z</time>
      </trkpt>
      <trkpt lat="43.77111" lon="6.25672">
        <ele>1053.6</ele>
        <time>2021-09-07T12:33:58.000Z</time>
      </trkpt>
      <trkpt lat="43.77112" lon="6.25677">
        <ele>1053.2</ele>
        <time>2021-09-07T12:33:58.000Z</time>
      </trkpt>
      <trkpt lat="43.77111" lon="6.25673">
        <ele>1053.5</ele>
        <time>2021-09-07T12:33:59.000Z</time>
      </trkpt>
      <trkpt lat="43.77111" lon="6.25668">
        <ele>1053.7</ele>
        <time>2021-09-07T12:33:59.000Z</time>
      </trkpt>
      <trkpt lat="43.77108" lon="6.25659">
        <ele>1054.3</ele>
        <time>2021-09-07T12:34:01.000Z</time>
      </trkpt>
      <trkpt lat="43.77107" lon="6.25655">
        <ele>1054.5</ele>
        <time>2021-09-07T12:34:02.000Z</time>
      </trkpt>
      <trkpt lat="43.77108" lon="6.25657">
        <ele>1054.4</ele>
        <time>2021-09-07T12:34:03.000Z</time>
      </trkpt>
      <trkpt lat="43.77106" lon="6.25652">
        <ele>1054.7</ele>
        <time>2021-09-07T12:34:04.000Z</time>
      </trkpt>
      <trkpt lat="43.77103" lon="6.25639">
        <ele>1055.2</ele>
        <time>2021-09-07T12:34:07.000Z</time>
      </trkpt>
      <trkpt lat="43.77103" lon="6.25637">
        <ele>1055.3</ele>
        <time>2021-09-07T12:34:09.000Z</time>
      </trkpt>
      <trkpt lat="43.77101" lon="6.25632">
        <ele>1055.4</ele>
        <time>2021-09-07T12:34:10.000Z</time>
      </trkpt>
      <trkpt lat="43.771" lon="6.25629">
        <ele>1055.8</ele>
        <time>2021-09-07T12:34:11.000Z</time>
      </trkpt>
      <trkpt lat="43.771" lon="6.25627">
        <ele>1055.9</ele>
        <time>2021-09-07T12:34:12.000Z</time>
      </trkpt>
      <trkpt lat="43.77101" lon="6.2563">
        <ele>1055.5</ele>
        <time>2021-09-07T12:34:12.000Z</time>
      </trkpt>
      <trkpt lat="43.77099" lon="6.25625">
        <ele>1056.1</ele>
        <time>2021-09-07T12:34:13.000Z</time>
      </trkpt>
      <trkpt lat="43.771" lon="6.25628">
        <ele>1055.9</ele>
        <time>2021-09-07T12:34:13.000Z</time>
      </trkpt>
      <trkpt lat="43.771" lon="6.25626">
        <ele>1056</ele>
        <time>2021-09-07T12:34:14.000Z</time>
      </trkpt>
      <trkpt lat="43.77099" lon="6.25624">
        <ele>1056</ele>
        <time>2021-09-07T12:34:15.000Z</time>
      </trkpt>
      <trkpt lat="43.77097" lon="6.25619">
        <ele>1056.9</ele>
        <time>2021-09-07T12:34:16.000Z</time>
      </trkpt>
      <trkpt lat="43.77096" lon="6.25617">
        <ele>1056.8</ele>
        <time>2021-09-07T12:34:18.000Z</time>
      </trkpt>
      <trkpt lat="43.77094" lon="6.25614">
        <ele>1057</ele>
        <time>2021-09-07T12:34:18.000Z</time>
      </trkpt>
      <trkpt lat="43.77093" lon="6.25612">
        <ele>1057.2</ele>
        <time>2021-09-07T12:34:19.000Z</time>
      </trkpt>
      <trkpt lat="43.77093" lon="6.25613">
        <ele>1057.1</ele>
        <time>2021-09-07T12:34:20.000Z</time>
      </trkpt>
      <trkpt lat="43.77091" lon="6.25611">
        <ele>1057.5</ele>
        <time>2021-09-07T12:34:21.000Z</time>
      </trkpt>
      <trkpt lat="43.77084" lon="6.25608">
        <ele>1058.2</ele>
        <time>2021-09-07T12:34:24.000Z</time>
      </trkpt>
      <trkpt lat="43.77083" lon="6.25607">
        <ele>1058.5</ele>
        <time>2021-09-07T12:34:25.000Z</time>
      </trkpt>
      <trkpt lat="43.77084" lon="6.25607">
        <ele>1058.3</ele>
        <time>2021-09-07T12:34:26.000Z</time>
      </trkpt>
      <trkpt lat="43.77083" lon="6.25606">
        <ele>1058.5</ele>
        <time>2021-09-07T12:34:26.000Z</time>
      </trkpt>
      <trkpt lat="43.77082" lon="6.25607">
        <ele>1059</ele>
        <time>2021-09-07T12:34:29.000Z</time>
      </trkpt>
      <trkpt lat="43.77081" lon="6.25608">
        <ele>1059.1</ele>
        <time>2021-09-07T12:34:31.000Z</time>
      </trkpt>
      <trkpt lat="43.77081" lon="6.25609">
        <ele>1059</ele>
        <time>2021-09-07T12:34:31.000Z</time>
      </trkpt>
      <trkpt lat="43.7708" lon="6.25611">
        <ele>1059</ele>
        <time>2021-09-07T12:34:32.000Z</time>
      </trkpt>
      <trkpt lat="43.7708" lon="6.2561">
        <ele>1059.1</ele>
        <time>2021-09-07T12:34:33.000Z</time>
      </trkpt>
      <trkpt lat="43.77079" lon="6.25612">
        <ele>1058.7</ele>
        <time>2021-09-07T12:34:34.000Z</time>
      </trkpt>
      <trkpt lat="43.77078" lon="6.25615">
        <ele>1059.2</ele>
        <time>2021-09-07T12:34:35.000Z</time>
      </trkpt>
      <trkpt lat="43.77078" lon="6.25616">
        <ele>1059.4</ele>
        <time>2021-09-07T12:34:36.000Z</time>
      </trkpt>
      <trkpt lat="43.7708" lon="6.25612">
        <ele>1059.6</ele>
        <time>2021-09-07T12:34:40.000Z</time>
      </trkpt>
      <trkpt lat="43.7708" lon="6.25612">
        <ele>1059.4</ele>
        <time>2021-09-07T12:34:45.000Z</time>
      </trkpt>
      <trkpt lat="43.7708" lon="6.25612">
        <ele>1059.3</ele>
        <time>2021-09-07T12:34:51.000Z</time>
      </trkpt>
      <trkpt lat="43.7708" lon="6.25612">
        <ele>1059.7</ele>
        <time>2021-09-07T12:34:52.000Z</time>
      </trkpt>
      <trkpt lat="43.7708" lon="6.25612">
        <ele>1059.8</ele>
        <time>2021-09-07T12:34:53.000Z</time>
      </trkpt>
      <trkpt lat="43.7708" lon="6.25612">
        <ele>1059.7</ele>
        <time>2021-09-07T12:34:55.000Z</time>
      </trkpt>
      <trkpt lat="43.7708" lon="6.25612">
        <ele>1059.4</ele>
        <time>2021-09-07T12:34:57.000Z</time>
      </trkpt>
      <trkpt lat="43.7708" lon="6.25612">
        <ele>1059.9</ele>
        <time>2021-09-07T12:35:02.000Z</time>
      </trkpt>
      <trkpt lat="43.7708" lon="6.25612">
        <ele>1059.8</ele>
        <time>2021-09-07T12:35:07.000Z</time>
      </trkpt>
      <trkpt lat="43.7708" lon="6.25612">
        <ele>1060.1</ele>
        <time>2021-09-07T12:35:08.000Z</time>
      </trkpt>
      <trkpt lat="43.7708" lon="6.25612">
        <ele>1059.4</ele>
        <time>2021-09-07T12:35:13.000Z</time>
      </trkpt>
      <trkpt lat="43.7708" lon="6.25612">
        <ele>1059.4</ele>
        <time>2021-09-07T12:35:17.000Z</time>
      </trkpt>
      <trkpt lat="43.77079" lon="6.25612">
        <ele>1059.5</ele>
        <time>2021-09-07T12:35:20.000Z</time>
      </trkpt>
      <trkpt lat="43.77079" lon="6.25612">
        <ele>1059.5</ele>
        <time>2021-09-07T12:35:21.000Z</time>
      </trkpt>
      <trkpt lat="43.77079" lon="6.25613">
        <ele>1059.4</ele>
        <time>2021-09-07T12:35:24.000Z</time>
      </trkpt>
      <trkpt lat="43.77079" lon="6.25612">
        <ele>1059</ele>
        <time>2021-09-07T12:35:27.000Z</time>
      </trkpt>
      <trkpt lat="43.77081" lon="6.25611">
        <ele>1059.2</ele>
        <time>2021-09-07T12:35:27.000Z</time>
      </trkpt>
      <trkpt lat="43.77083" lon="6.2561">
        <ele>1059.1</ele>
        <time>2021-09-07T12:35:28.000Z</time>
      </trkpt>
      <trkpt lat="43.77082" lon="6.2561">
        <ele>1059.2</ele>
        <time>2021-09-07T12:35:29.000Z</time>
      </trkpt>
      <trkpt lat="43.77084" lon="6.25609">
        <ele>1058.8</ele>
        <time>2021-09-07T12:35:30.000Z</time>
      </trkpt>
      <trkpt lat="43.77087" lon="6.25606">
        <ele>1058.6</ele>
        <time>2021-09-07T12:35:30.000Z</time>
      </trkpt>
      <trkpt lat="43.77089" lon="6.25604">
        <ele>1058.5</ele>
        <time>2021-09-07T12:35:32.000Z</time>
      </trkpt>
      <trkpt lat="43.77094" lon="6.25603">
        <ele>1057.8</ele>
        <time>2021-09-07T12:35:33.000Z</time>
      </trkpt>
      <trkpt lat="43.77096" lon="6.25603">
        <ele>1057.6</ele>
        <time>2021-09-07T12:35:34.000Z</time>
      </trkpt>
      <trkpt lat="43.77099" lon="6.25603">
        <ele>1057.6</ele>
        <time>2021-09-07T12:35:35.000Z</time>
      </trkpt>
      <trkpt lat="43.77095" lon="6.25603">
        <ele>1057.8</ele>
        <time>2021-09-07T12:35:35.000Z</time>
      </trkpt>
      <trkpt lat="43.77098" lon="6.25603">
        <ele>1057.6</ele>
        <time>2021-09-07T12:35:36.000Z</time>
      </trkpt>
      <trkpt lat="43.771" lon="6.25602">
        <ele>1057.6</ele>
        <time>2021-09-07T12:35:37.000Z</time>
      </trkpt>
      <trkpt lat="43.77103" lon="6.256">
        <ele>1057.8</ele>
        <time>2021-09-07T12:35:37.000Z</time>
      </trkpt>
      <trkpt lat="43.77104" lon="6.25598">
        <ele>1057.6</ele>
        <time>2021-09-07T12:35:38.000Z</time>
      </trkpt>
      <trkpt lat="43.77102" lon="6.25599">
        <ele>1058.3</ele>
        <time>2021-09-07T12:35:43.000Z</time>
      </trkpt>
      <trkpt lat="43.77098" lon="6.25599">
        <ele>1058.2</ele>
        <time>2021-09-07T12:35:44.000Z</time>
      </trkpt>
      <trkpt lat="43.77097" lon="6.25599">
        <ele>1058.1</ele>
        <time>2021-09-07T12:35:46.000Z</time>
      </trkpt>
      <trkpt lat="43.77093" lon="6.25598">
        <ele>1058.7</ele>
        <time>2021-09-07T12:35:47.000Z</time>
      </trkpt>
      <trkpt lat="43.77091" lon="6.25598">
        <ele>1058.7</ele>
        <time>2021-09-07T12:35:48.000Z</time>
      </trkpt>
      <trkpt lat="43.77092" lon="6.25598">
        <ele>1058.7</ele>
        <time>2021-09-07T12:35:49.000Z</time>
      </trkpt>
      <trkpt lat="43.7709" lon="6.25599">
        <ele>1058.9</ele>
        <time>2021-09-07T12:35:50.000Z</time>
      </trkpt>
      <trkpt lat="43.77088" lon="6.25599">
        <ele>1058.8</ele>
        <time>2021-09-07T12:35:50.000Z</time>
      </trkpt>
      <trkpt lat="43.77086" lon="6.25599">
        <ele>1059.3</ele>
        <time>2021-09-07T12:35:51.000Z</time>
      </trkpt>
      <trkpt lat="43.77085" lon="6.256">
        <ele>1059.3</ele>
        <time>2021-09-07T12:35:52.000Z</time>
      </trkpt>
      <trkpt lat="43.77087" lon="6.25599">
        <ele>1059</ele>
        <time>2021-09-07T12:35:52.000Z</time>
      </trkpt>
      <trkpt lat="43.77085" lon="6.256">
        <ele>1059.2</ele>
        <time>2021-09-07T12:35:53.000Z</time>
      </trkpt>
      <trkpt lat="43.77084" lon="6.25601">
        <ele>1059.5</ele>
        <time>2021-09-07T12:35:54.000Z</time>
      </trkpt>
      <trkpt lat="43.77081" lon="6.25604">
        <ele>1059.4</ele>
        <time>2021-09-07T12:35:55.000Z</time>
      </trkpt>
      <trkpt lat="43.7708" lon="6.25606">
        <ele>1059.3</ele>
        <time>2021-09-07T12:35:56.000Z</time>
      </trkpt>
      <trkpt lat="43.77077" lon="6.25608">
        <ele>1059.7</ele>
        <time>2021-09-07T12:36:00.000Z</time>
      </trkpt>
      <trkpt lat="43.77077" lon="6.25609">
        <ele>1059.7</ele>
        <time>2021-09-07T12:36:01.000Z</time>
      </trkpt>
      <trkpt lat="43.77077" lon="6.25609">
        <ele>1059.5</ele>
        <time>2021-09-07T12:36:01.000Z</time>
      </trkpt>
      <trkpt lat="43.77076" lon="6.2561">
        <ele>1059.6</ele>
        <time>2021-09-07T12:36:05.000Z</time>
      </trkpt>
      <trkpt lat="43.77076" lon="6.2561">
        <ele>1059.8</ele>
        <time>2021-09-07T12:36:10.000Z</time>
      </trkpt>
      <trkpt lat="43.77076" lon="6.2561">
        <ele>1059.7</ele>
        <time>2021-09-07T12:36:15.000Z</time>
      </trkpt>
      <trkpt lat="43.77076" lon="6.2561">
        <ele>1059.4</ele>
        <time>2021-09-07T12:36:20.000Z</time>
      </trkpt>
      <trkpt lat="43.77076" lon="6.2561">
        <ele>1059.5</ele>
        <time>2021-09-07T12:36:25.000Z</time>
      </trkpt>
      <trkpt lat="43.77076" lon="6.2561">
        <ele>1059.3</ele>
        <time>2021-09-07T12:36:30.000Z</time>
      </trkpt>
      <trkpt lat="43.77076" lon="6.2561">
        <ele>1058.9</ele>
        <time>2021-09-07T12:36:35.000Z</time>
      </trkpt>
      <trkpt lat="43.77076" lon="6.2561">
        <ele>1059</ele>
        <time>2021-09-07T12:36:37.000Z</time>
      </trkpt>
      <trkpt lat="43.77076" lon="6.2561">
        <ele>1059.1</ele>
        <time>2021-09-07T12:36:38.000Z</time>
      </trkpt>
      <trkpt lat="43.77076" lon="6.25609">
        <ele>1058.9</ele>
        <time>2021-09-07T12:36:39.000Z</time>
      </trkpt>
      <trkpt lat="43.77077" lon="6.25609">
        <ele>1059</ele>
        <time>2021-09-07T12:36:40.000Z</time>
      </trkpt>
      <trkpt lat="43.77077" lon="6.25609">
        <ele>1059.1</ele>
        <time>2021-09-07T12:36:41.000Z</time>
      </trkpt>
      <trkpt lat="43.77078" lon="6.25609">
        <ele>1059.1</ele>
        <time>2021-09-07T12:36:45.000Z</time>
      </trkpt>
      <trkpt lat="43.77078" lon="6.25609">
        <ele>1059.1</ele>
        <time>2021-09-07T12:36:46.000Z</time>
      </trkpt>
      <trkpt lat="43.77078" lon="6.25609">
        <ele>1059</ele>
        <time>2021-09-07T12:36:48.000Z</time>
      </trkpt>
      <trkpt lat="43.77078" lon="6.25609">
        <ele>1059.2</ele>
        <time>2021-09-07T12:36:50.000Z</time>
      </trkpt>
      <trkpt lat="43.77079" lon="6.25609">
        <ele>1059</ele>
        <time>2021-09-07T12:36:52.000Z</time>
      </trkpt>
      <trkpt lat="43.77079" lon="6.25609">
        <ele>1058.8</ele>
        <time>2021-09-07T12:36:57.000Z</time>
      </trkpt>
      <trkpt lat="43.77079" lon="6.25609">
        <ele>1059.1</ele>
        <time>2021-09-07T12:37:02.000Z</time>
      </trkpt>
      <trkpt lat="43.77079" lon="6.25609">
        <ele>1058.9</ele>
        <time>2021-09-07T12:37:07.000Z</time>
      </trkpt>
      <trkpt lat="43.77079" lon="6.25609">
        <ele>1059</ele>
        <time>2021-09-07T12:37:08.000Z</time>
      </trkpt>
      <trkpt lat="43.77079" lon="6.25609">
        <ele>1059.2</ele>
        <time>2021-09-07T12:37:13.000Z</time>
      </trkpt>
      <trkpt lat="43.77079" lon="6.25609">
        <ele>1059.3</ele>
        <time>2021-09-07T12:37:16.000Z</time>
      </trkpt>
      <trkpt lat="43.77079" lon="6.25609">
        <ele>1059.2</ele>
        <time>2021-09-07T12:37:17.000Z</time>
      </trkpt>
      <trkpt lat="43.77079" lon="6.25609">
        <ele>1059.2</ele>
        <time>2021-09-07T12:37:20.000Z</time>
      </trkpt>
      <trkpt lat="43.77079" lon="6.25609">
        <ele>1059.2</ele>
        <time>2021-09-07T12:37:21.000Z</time>
      </trkpt>
      <trkpt lat="43.77079" lon="6.25609">
        <ele>1059.2</ele>
        <time>2021-09-07T12:37:23.000Z</time>
      </trkpt>
      <trkpt lat="43.77079" lon="6.2562">
        <ele>1060.6</ele>
        <time>2021-09-07T12:37:29.000Z</time>
      </trkpt>
      <trkpt lat="43.77079" lon="6.25623">
        <ele>1061</ele>
        <time>2021-09-07T12:37:29.000Z</time>
      </trkpt>
      <trkpt lat="43.7708" lon="6.25627">
        <ele>1061.3</ele>
        <time>2021-09-07T12:37:30.000Z</time>
      </trkpt>
      <trkpt lat="43.77081" lon="6.25631">
        <ele>1061.5</ele>
        <time>2021-09-07T12:37:31.000Z</time>
      </trkpt>
      <trkpt lat="43.7708" lon="6.25626">
        <ele>1061.2</ele>
        <time>2021-09-07T12:37:31.000Z</time>
      </trkpt>
      <trkpt lat="43.7708" lon="6.25629">
        <ele>1061.5</ele>
        <time>2021-09-07T12:37:32.000Z</time>
      </trkpt>
      <trkpt lat="43.77081" lon="6.25633">
        <ele>1061.4</ele>
        <time>2021-09-07T12:37:33.000Z</time>
      </trkpt>
      <trkpt lat="43.7708" lon="6.25639">
        <ele>1061.7</ele>
        <time>2021-09-07T12:37:33.000Z</time>
      </trkpt>
      <trkpt lat="43.7708" lon="6.25642">
        <ele>1061.8</ele>
        <time>2021-09-07T12:37:35.000Z</time>
      </trkpt>
      <trkpt lat="43.77079" lon="6.25653">
        <ele>1062.3</ele>
        <time>2021-09-07T12:37:37.000Z</time>
      </trkpt>
      <trkpt lat="43.77078" lon="6.25656">
        <ele>1062.4</ele>
        <time>2021-09-07T12:37:38.000Z</time>
      </trkpt>
      <trkpt lat="43.77077" lon="6.25663">
        <ele>1062.8</ele>
        <time>2021-09-07T12:37:40.000Z</time>
      </trkpt>
      <trkpt lat="43.77077" lon="6.25666">
        <ele>1063.1</ele>
        <time>2021-09-07T12:37:41.000Z</time>
      </trkpt>
      <trkpt lat="43.77077" lon="6.25665">
        <ele>1062.9</ele>
        <time>2021-09-07T12:37:42.000Z</time>
      </trkpt>
      <trkpt lat="43.77076" lon="6.25669">
        <ele>1063.3</ele>
        <time>2021-09-07T12:37:43.000Z</time>
      </trkpt>
      <trkpt lat="43.77077" lon="6.25683">
        <ele>1064.1</ele>
        <time>2021-09-07T12:37:46.000Z</time>
      </trkpt>
      <trkpt lat="43.77076" lon="6.25686">
        <ele>1064.5</ele>
        <time>2021-09-07T12:37:47.000Z</time>
      </trkpt>
      <trkpt lat="43.77077" lon="6.25685">
        <ele>1064.2</ele>
        <time>2021-09-07T12:37:48.000Z</time>
      </trkpt>
      <trkpt lat="43.77076" lon="6.25689">
        <ele>1064.7</ele>
        <time>2021-09-07T12:37:48.000Z</time>
      </trkpt>
      <trkpt lat="43.77076" lon="6.25695">
        <ele>1064.7</ele>
        <time>2021-09-07T12:37:50.000Z</time>
      </trkpt>
      <trkpt lat="43.77077" lon="6.25698">
        <ele>1065</ele>
        <time>2021-09-07T12:37:51.000Z</time>
      </trkpt>
      <trkpt lat="43.77078" lon="6.25702">
        <ele>1065.2</ele>
        <time>2021-09-07T12:37:52.000Z</time>
      </trkpt>
      <trkpt lat="43.77077" lon="6.25697">
        <ele>1064.8</ele>
        <time>2021-09-07T12:37:52.000Z</time>
      </trkpt>
      <trkpt lat="43.77079" lon="6.25704">
        <ele>1065.4</ele>
        <time>2021-09-07T12:37:53.000Z</time>
      </trkpt>
      <trkpt lat="43.77077" lon="6.257">
        <ele>1065</ele>
        <time>2021-09-07T12:37:53.000Z</time>
      </trkpt>
      <trkpt lat="43.77078" lon="6.25704">
        <ele>1065.3</ele>
        <time>2021-09-07T12:37:54.000Z</time>
      </trkpt>
      <trkpt lat="43.77079" lon="6.25707">
        <ele>1065.8</ele>
        <time>2021-09-07T12:37:54.000Z</time>
      </trkpt>
      <trkpt lat="43.77082" lon="6.25715">
        <ele>1066.1</ele>
        <time>2021-09-07T12:37:57.000Z</time>
      </trkpt>
      <trkpt lat="43.77082" lon="6.25718">
        <ele>1066.4</ele>
        <time>2021-09-07T12:37:58.000Z</time>
      </trkpt>
      <trkpt lat="43.77082" lon="6.25717">
        <ele>1066.3</ele>
        <time>2021-09-07T12:37:59.000Z</time>
      </trkpt>
      <trkpt lat="43.77083" lon="6.2572">
        <ele>1066.4</ele>
        <time>2021-09-07T12:38:00.000Z</time>
      </trkpt>
      <trkpt lat="43.77083" lon="6.25724">
        <ele>1066.8</ele>
        <time>2021-09-07T12:38:00.000Z</time>
      </trkpt>
      <trkpt lat="43.77083" lon="6.25725">
        <ele>1066.8</ele>
        <time>2021-09-07T12:38:02.000Z</time>
      </trkpt>
      <trkpt lat="43.77084" lon="6.2573">
        <ele>1066.9</ele>
        <time>2021-09-07T12:38:02.000Z</time>
      </trkpt>
      <trkpt lat="43.77085" lon="6.25733">
        <ele>1067.2</ele>
        <time>2021-09-07T12:38:03.000Z</time>
      </trkpt>
      <trkpt lat="43.77085" lon="6.25732">
        <ele>1067.1</ele>
        <time>2021-09-07T12:38:04.000Z</time>
      </trkpt>
      <trkpt lat="43.77086" lon="6.25736">
        <ele>1067.3</ele>
        <time>2021-09-07T12:38:05.000Z</time>
      </trkpt>
      <trkpt lat="43.77087" lon="6.25744">
        <ele>1067.6</ele>
        <time>2021-09-07T12:38:07.000Z</time>
      </trkpt>
      <trkpt lat="43.77088" lon="6.25746">
        <ele>1067.8</ele>
        <time>2021-09-07T12:38:09.000Z</time>
      </trkpt>
      <trkpt lat="43.77088" lon="6.25748">
        <ele>1068.1</ele>
        <time>2021-09-07T12:38:09.000Z</time>
      </trkpt>
      <trkpt lat="43.77089" lon="6.2575">
        <ele>1068</ele>
        <time>2021-09-07T12:38:11.000Z</time>
      </trkpt>
      <trkpt lat="43.77091" lon="6.25757">
        <ele>1068.3</ele>
        <time>2021-09-07T12:38:13.000Z</time>
      </trkpt>
      <trkpt lat="43.77092" lon="6.25759">
        <ele>1068.5</ele>
        <time>2021-09-07T12:38:15.000Z</time>
      </trkpt>
      <trkpt lat="43.77094" lon="6.25763">
        <ele>1069.3</ele>
        <time>2021-09-07T12:38:16.000Z</time>
      </trkpt>
      <trkpt lat="43.77096" lon="6.25765">
        <ele>1069.4</ele>
        <time>2021-09-07T12:38:17.000Z</time>
      </trkpt>
      <trkpt lat="43.77097" lon="6.25766">
        <ele>1069.5</ele>
        <time>2021-09-07T12:38:18.000Z</time>
      </trkpt>
      <trkpt lat="43.77095" lon="6.25764">
        <ele>1069.4</ele>
        <time>2021-09-07T12:38:18.000Z</time>
      </trkpt>
      <trkpt lat="43.77097" lon="6.25766">
        <ele>1069.4</ele>
        <time>2021-09-07T12:38:19.000Z</time>
      </trkpt>
      <trkpt lat="43.77098" lon="6.25768">
        <ele>1069.4</ele>
        <time>2021-09-07T12:38:20.000Z</time>
      </trkpt>
      <trkpt lat="43.77101" lon="6.25771">
        <ele>1069.8</ele>
        <time>2021-09-07T12:38:21.000Z</time>
      </trkpt>
      <trkpt lat="43.77102" lon="6.25771">
        <ele>1069.9</ele>
        <time>2021-09-07T12:38:23.000Z</time>
      </trkpt>
      <trkpt lat="43.77105" lon="6.25773">
        <ele>1070.2</ele>
        <time>2021-09-07T12:38:23.000Z</time>
      </trkpt>
      <trkpt lat="43.77107" lon="6.25773">
        <ele>1070.3</ele>
        <time>2021-09-07T12:38:24.000Z</time>
      </trkpt>
      <trkpt lat="43.77107" lon="6.25773">
        <ele>1070.2</ele>
        <time>2021-09-07T12:38:25.000Z</time>
      </trkpt>
      <trkpt lat="43.77108" lon="6.25774">
        <ele>1070.3</ele>
        <time>2021-09-07T12:38:26.000Z</time>
      </trkpt>
      <trkpt lat="43.77111" lon="6.25776">
        <ele>1070.6</ele>
        <time>2021-09-07T12:38:27.000Z</time>
      </trkpt>
      <trkpt lat="43.77113" lon="6.25778">
        <ele>1070.7</ele>
        <time>2021-09-07T12:38:28.000Z</time>
      </trkpt>
      <trkpt lat="43.77115" lon="6.25781">
        <ele>1070.9</ele>
        <time>2021-09-07T12:38:29.000Z</time>
      </trkpt>
      <trkpt lat="43.77116" lon="6.25783">
        <ele>1071.1</ele>
        <time>2021-09-07T12:38:30.000Z</time>
      </trkpt>
      <trkpt lat="43.77116" lon="6.25782">
        <ele>1071</ele>
        <time>2021-09-07T12:38:31.000Z</time>
      </trkpt>
      <trkpt lat="43.77118" lon="6.25784">
        <ele>1071.2</ele>
        <time>2021-09-07T12:38:32.000Z</time>
      </trkpt>
      <trkpt lat="43.7712" lon="6.25786">
        <ele>1071.4</ele>
        <time>2021-09-07T12:38:33.000Z</time>
      </trkpt>
      <trkpt lat="43.77121" lon="6.25787">
        <ele>1071.4</ele>
        <time>2021-09-07T12:38:35.000Z</time>
      </trkpt>
      <trkpt lat="43.77124" lon="6.25792">
        <ele>1071.6</ele>
        <time>2021-09-07T12:38:36.000Z</time>
      </trkpt>
      <trkpt lat="43.77125" lon="6.25792">
        <ele>1071.8</ele>
        <time>2021-09-07T12:38:38.000Z</time>
      </trkpt>
      <trkpt lat="43.77128" lon="6.25796">
        <ele>1072.2</ele>
        <time>2021-09-07T12:38:39.000Z</time>
      </trkpt>
      <trkpt lat="43.7713" lon="6.25797">
        <ele>1072.2</ele>
        <time>2021-09-07T12:38:40.000Z</time>
      </trkpt>
      <trkpt lat="43.77129" lon="6.25796">
        <ele>1072.2</ele>
        <time>2021-09-07T12:38:41.000Z</time>
      </trkpt>
      <trkpt lat="43.77132" lon="6.25798">
        <ele>1072.3</ele>
        <time>2021-09-07T12:38:42.000Z</time>
      </trkpt>
      <trkpt lat="43.77134" lon="6.25801">
        <ele>1072.8</ele>
        <time>2021-09-07T12:38:42.000Z</time>
      </trkpt>
      <trkpt lat="43.77136" lon="6.25803">
        <ele>1072.7</ele>
        <time>2021-09-07T12:38:43.000Z</time>
      </trkpt>
      <trkpt lat="43.77135" lon="6.25802">
        <ele>1072.7</ele>
        <time>2021-09-07T12:38:44.000Z</time>
      </trkpt>
      <trkpt lat="43.77137" lon="6.25805">
        <ele>1072.9</ele>
        <time>2021-09-07T12:38:45.000Z</time>
      </trkpt>
      <trkpt lat="43.77138" lon="6.25808">
        <ele>1073.1</ele>
        <time>2021-09-07T12:38:45.000Z</time>
      </trkpt>
      <trkpt lat="43.7714" lon="6.2581">
        <ele>1073.4</ele>
        <time>2021-09-07T12:38:46.000Z</time>
      </trkpt>
      <trkpt lat="43.77141" lon="6.25812">
        <ele>1073.7</ele>
        <time>2021-09-07T12:38:47.000Z</time>
      </trkpt>
      <trkpt lat="43.77143" lon="6.25815">
        <ele>1073.6</ele>
        <time>2021-09-07T12:38:48.000Z</time>
      </trkpt>
      <trkpt lat="43.77142" lon="6.25813">
        <ele>1073.6</ele>
        <time>2021-09-07T12:38:49.000Z</time>
      </trkpt>
      <trkpt lat="43.77144" lon="6.25816">
        <ele>1073.7</ele>
        <time>2021-09-07T12:38:50.000Z</time>
      </trkpt>
      <trkpt lat="43.77147" lon="6.25825">
        <ele>1074.5</ele>
        <time>2021-09-07T12:38:52.000Z</time>
      </trkpt>
      <trkpt lat="43.77147" lon="6.25826">
        <ele>1074.6</ele>
        <time>2021-09-07T12:38:54.000Z</time>
      </trkpt>
      <trkpt lat="43.77149" lon="6.2583">
        <ele>1074.6</ele>
        <time>2021-09-07T12:38:54.000Z</time>
      </trkpt>
      <trkpt lat="43.7715" lon="6.25832">
        <ele>1075</ele>
        <time>2021-09-07T12:38:55.000Z</time>
      </trkpt>
      <trkpt lat="43.7715" lon="6.25831">
        <ele>1074.9</ele>
        <time>2021-09-07T12:38:56.000Z</time>
      </trkpt>
      <trkpt lat="43.77151" lon="6.25833">
        <ele>1075</ele>
        <time>2021-09-07T12:38:57.000Z</time>
      </trkpt>
      <trkpt lat="43.77156" lon="6.25844">
        <ele>1076.1</ele>
        <time>2021-09-07T12:39:03.000Z</time>
      </trkpt>
      <trkpt lat="43.77157" lon="6.25848">
        <ele>1076.7</ele>
        <time>2021-09-07T12:39:03.000Z</time>
      </trkpt>
      <trkpt lat="43.77158" lon="6.2585">
        <ele>1076.6</ele>
        <time>2021-09-07T12:39:04.000Z</time>
      </trkpt>
      <trkpt lat="43.77158" lon="6.2585">
        <ele>1076.7</ele>
        <time>2021-09-07T12:39:05.000Z</time>
      </trkpt>
      <trkpt lat="43.77159" lon="6.25852">
        <ele>1076.9</ele>
        <time>2021-09-07T12:39:05.000Z</time>
      </trkpt>
      <trkpt lat="43.77159" lon="6.25855">
        <ele>1077.3</ele>
        <time>2021-09-07T12:39:06.000Z</time>
      </trkpt>
      <trkpt lat="43.7716" lon="6.25856">
        <ele>1077.3</ele>
        <time>2021-09-07T12:39:08.000Z</time>
      </trkpt>
      <trkpt lat="43.77162" lon="6.25862">
        <ele>1077.6</ele>
        <time>2021-09-07T12:39:10.000Z</time>
      </trkpt>
      <trkpt lat="43.77163" lon="6.25864">
        <ele>1077.7</ele>
        <time>2021-09-07T12:39:11.000Z</time>
      </trkpt>
      <trkpt lat="43.77163" lon="6.25863">
        <ele>1077.7</ele>
        <time>2021-09-07T12:39:12.000Z</time>
      </trkpt>
      <trkpt lat="43.77165" lon="6.25867">
        <ele>1077.9</ele>
        <time>2021-09-07T12:39:12.000Z</time>
      </trkpt>
      <trkpt lat="43.77166" lon="6.25872">
        <ele>1078.3</ele>
        <time>2021-09-07T12:39:14.000Z</time>
      </trkpt>
      <trkpt lat="43.77167" lon="6.25875">
        <ele>1078.5</ele>
        <time>2021-09-07T12:39:15.000Z</time>
      </trkpt>
      <trkpt lat="43.77169" lon="6.2588">
        <ele>1079</ele>
        <time>2021-09-07T12:39:17.000Z</time>
      </trkpt>
      <trkpt lat="43.77169" lon="6.25881">
        <ele>1078.9</ele>
        <time>2021-09-07T12:39:19.000Z</time>
      </trkpt>
      <trkpt lat="43.77171" lon="6.25885">
        <ele>1079.2</ele>
        <time>2021-09-07T12:39:20.000Z</time>
      </trkpt>
      <trkpt lat="43.77171" lon="6.25887">
        <ele>1079.1</ele>
        <time>2021-09-07T12:39:21.000Z</time>
      </trkpt>
      <trkpt lat="43.77171" lon="6.25886">
        <ele>1079.1</ele>
        <time>2021-09-07T12:39:22.000Z</time>
      </trkpt>
      <trkpt lat="43.77172" lon="6.25889">
        <ele>1079.3</ele>
        <time>2021-09-07T12:39:23.000Z</time>
      </trkpt>
      <trkpt lat="43.77175" lon="6.25899">
        <ele>1080</ele>
        <time>2021-09-07T12:39:25.000Z</time>
      </trkpt>
      <trkpt lat="43.77176" lon="6.25902">
        <ele>1080.1</ele>
        <time>2021-09-07T12:39:26.000Z</time>
      </trkpt>
      <trkpt lat="43.77176" lon="6.25901">
        <ele>1080.1</ele>
        <time>2021-09-07T12:39:27.000Z</time>
      </trkpt>
      <trkpt lat="43.77176" lon="6.25905">
        <ele>1080.3</ele>
        <time>2021-09-07T12:39:28.000Z</time>
      </trkpt>
      <trkpt lat="43.77177" lon="6.25908">
        <ele>1080.7</ele>
        <time>2021-09-07T12:39:28.000Z</time>
      </trkpt>
      <trkpt lat="43.77178" lon="6.25911">
        <ele>1080.6</ele>
        <time>2021-09-07T12:39:29.000Z</time>
      </trkpt>
      <trkpt lat="43.77178" lon="6.25914">
        <ele>1080.6</ele>
        <time>2021-09-07T12:39:30.000Z</time>
      </trkpt>
      <trkpt lat="43.77177" lon="6.25909">
        <ele>1080.6</ele>
        <time>2021-09-07T12:39:30.000Z</time>
      </trkpt>
      <trkpt lat="43.77178" lon="6.25913">
        <ele>1080.5</ele>
        <time>2021-09-07T12:39:31.000Z</time>
      </trkpt>
      <trkpt lat="43.77178" lon="6.25916">
        <ele>1080.9</ele>
        <time>2021-09-07T12:39:32.000Z</time>
      </trkpt>
      <trkpt lat="43.77178" lon="6.25921">
        <ele>1081.3</ele>
        <time>2021-09-07T12:39:33.000Z</time>
      </trkpt>
      <trkpt lat="43.77177" lon="6.25923">
        <ele>1081.4</ele>
        <time>2021-09-07T12:39:34.000Z</time>
      </trkpt>
      <trkpt lat="43.77175" lon="6.25927">
        <ele>1081.9</ele>
        <time>2021-09-07T12:39:36.000Z</time>
      </trkpt>
      <trkpt lat="43.77175" lon="6.25929">
        <ele>1082.1</ele>
        <time>2021-09-07T12:39:37.000Z</time>
      </trkpt>
      <trkpt lat="43.77175" lon="6.25928">
        <ele>1081.9</ele>
        <time>2021-09-07T12:39:38.000Z</time>
      </trkpt>
      <trkpt lat="43.77173" lon="6.2593">
        <ele>1082.4</ele>
        <time>2021-09-07T12:39:39.000Z</time>
      </trkpt>
      <trkpt lat="43.7717" lon="6.25932">
        <ele>1082.8</ele>
        <time>2021-09-07T12:39:40.000Z</time>
      </trkpt>
      <trkpt lat="43.77168" lon="6.25934">
        <ele>1083.1</ele>
        <time>2021-09-07T12:39:41.000Z</time>
      </trkpt>
      <trkpt lat="43.77166" lon="6.25935">
        <ele>1083.2</ele>
        <time>2021-09-07T12:39:42.000Z</time>
      </trkpt>
      <trkpt lat="43.77169" lon="6.25933">
        <ele>1082.9</ele>
        <time>2021-09-07T12:39:42.000Z</time>
      </trkpt>
      <trkpt lat="43.77164" lon="6.25936">
        <ele>1083</ele>
        <time>2021-09-07T12:39:43.000Z</time>
      </trkpt>
      <trkpt lat="43.77167" lon="6.25934">
        <ele>1083.2</ele>
        <time>2021-09-07T12:39:43.000Z</time>
      </trkpt>
      <trkpt lat="43.77164" lon="6.25936">
        <ele>1083.1</ele>
        <time>2021-09-07T12:39:44.000Z</time>
      </trkpt>
      <trkpt lat="43.77162" lon="6.25936">
        <ele>1083</ele>
        <time>2021-09-07T12:39:45.000Z</time>
      </trkpt>
      <trkpt lat="43.77159" lon="6.25938">
        <ele>1083.3</ele>
        <time>2021-09-07T12:39:46.000Z</time>
      </trkpt>
      <trkpt lat="43.77157" lon="6.25939">
        <ele>1083.6</ele>
        <time>2021-09-07T12:39:47.000Z</time>
      </trkpt>
      <trkpt lat="43.77158" lon="6.25938">
        <ele>1083.4</ele>
        <time>2021-09-07T12:39:48.000Z</time>
      </trkpt>
      <trkpt lat="43.77156" lon="6.2594">
        <ele>1084</ele>
        <time>2021-09-07T12:39:48.000Z</time>
      </trkpt>
      <trkpt lat="43.77154" lon="6.25941">
        <ele>1084.1</ele>
        <time>2021-09-07T12:39:49.000Z</time>
      </trkpt>
      <trkpt lat="43.77152" lon="6.25943">
        <ele>1084.1</ele>
        <time>2021-09-07T12:39:51.000Z</time>
      </trkpt>
      <trkpt lat="43.77145" lon="6.2595">
        <ele>1084.8</ele>
        <time>2021-09-07T12:39:53.000Z</time>
      </trkpt>
      <trkpt lat="43.77144" lon="6.25951">
        <ele>1084.8</ele>
        <time>2021-09-07T12:39:55.000Z</time>
      </trkpt>
      <trkpt lat="43.77141" lon="6.25954">
        <ele>1084.9</ele>
        <time>2021-09-07T12:39:55.000Z</time>
      </trkpt>
      <trkpt lat="43.77139" lon="6.25955">
        <ele>1085.1</ele>
        <time>2021-09-07T12:39:56.000Z</time>
      </trkpt>
      <trkpt lat="43.77133" lon="6.25961">
        <ele>1085.7</ele>
        <time>2021-09-07T12:39:59.000Z</time>
      </trkpt>
      <trkpt lat="43.77132" lon="6.25963">
        <ele>1085.8</ele>
        <time>2021-09-07T12:40:01.000Z</time>
      </trkpt>
      <trkpt lat="43.7713" lon="6.25965">
        <ele>1086</ele>
        <time>2021-09-07T12:40:01.000Z</time>
      </trkpt>
      <trkpt lat="43.77129" lon="6.25968">
        <ele>1086.3</ele>
        <time>2021-09-07T12:40:02.000Z</time>
      </trkpt>
      <trkpt lat="43.77128" lon="6.2597">
        <ele>1086.3</ele>
        <time>2021-09-07T12:40:03.000Z</time>
      </trkpt>
      <trkpt lat="43.77129" lon="6.25967">
        <ele>1086.1</ele>
        <time>2021-09-07T12:40:03.000Z</time>
      </trkpt>
      <trkpt lat="43.77128" lon="6.25969">
        <ele>1086.4</ele>
        <time>2021-09-07T12:40:04.000Z</time>
      </trkpt>
      <trkpt lat="43.77127" lon="6.25971">
        <ele>1086.2</ele>
        <time>2021-09-07T12:40:05.000Z</time>
      </trkpt>
      <trkpt lat="43.77123" lon="6.25976">
        <ele>1086.7</ele>
        <time>2021-09-07T12:40:07.000Z</time>
      </trkpt>
      <trkpt lat="43.77122" lon="6.25977">
        <ele>1086.9</ele>
        <time>2021-09-07T12:40:08.000Z</time>
      </trkpt>
      <trkpt lat="43.77121" lon="6.25978">
        <ele>1087.1</ele>
        <time>2021-09-07T12:40:09.000Z</time>
      </trkpt>
      <trkpt lat="43.7712" lon="6.25978">
        <ele>1087.1</ele>
        <time>2021-09-07T12:40:10.000Z</time>
      </trkpt>
      <trkpt lat="43.7712" lon="6.25978">
        <ele>1087.1</ele>
        <time>2021-09-07T12:40:11.000Z</time>
      </trkpt>
      <trkpt lat="43.77119" lon="6.25979">
        <ele>1087.2</ele>
        <time>2021-09-07T12:40:12.000Z</time>
      </trkpt>
      <trkpt lat="43.77118" lon="6.2598">
        <ele>1087.4</ele>
        <time>2021-09-07T12:40:13.000Z</time>
      </trkpt>
      <trkpt lat="43.77117" lon="6.25981">
        <ele>1087.8</ele>
        <time>2021-09-07T12:40:14.000Z</time>
      </trkpt>
      <trkpt lat="43.77117" lon="6.25981">
        <ele>1087.6</ele>
        <time>2021-09-07T12:40:15.000Z</time>
      </trkpt>
      <trkpt lat="43.77117" lon="6.25982">
        <ele>1087.9</ele>
        <time>2021-09-07T12:40:16.000Z</time>
      </trkpt>
      <trkpt lat="43.77115" lon="6.25983">
        <ele>1088</ele>
        <time>2021-09-07T12:40:17.000Z</time>
      </trkpt>
      <trkpt lat="43.77114" lon="6.25985">
        <ele>1088</ele>
        <time>2021-09-07T12:40:17.000Z</time>
      </trkpt>
      <trkpt lat="43.77113" lon="6.25986">
        <ele>1088.1</ele>
        <time>2021-09-07T12:40:19.000Z</time>
      </trkpt>
      <trkpt lat="43.77105" lon="6.26001">
        <ele>1088.6</ele>
        <time>2021-09-07T12:40:23.000Z</time>
      </trkpt>
      <trkpt lat="43.77106" lon="6.26">
        <ele>1088.4</ele>
        <time>2021-09-07T12:40:24.000Z</time>
      </trkpt>
      <trkpt lat="43.77105" lon="6.26002">
        <ele>1088.6</ele>
        <time>2021-09-07T12:40:25.000Z</time>
      </trkpt>
      <trkpt lat="43.77102" lon="6.26011">
        <ele>1088.9</ele>
        <time>2021-09-07T12:40:26.000Z</time>
      </trkpt>
      <trkpt lat="43.77101" lon="6.26013">
        <ele>1089</ele>
        <time>2021-09-07T12:40:28.000Z</time>
      </trkpt>
      <trkpt lat="43.77095" lon="6.26029">
        <ele>1089.4</ele>
        <time>2021-09-07T12:40:30.000Z</time>
      </trkpt>
      <trkpt lat="43.77093" lon="6.26031">
        <ele>1089.5</ele>
        <time>2021-09-07T12:40:32.000Z</time>
      </trkpt>
      <trkpt lat="43.77088" lon="6.26039">
        <ele>1089.8</ele>
        <time>2021-09-07T12:40:33.000Z</time>
      </trkpt>
      <trkpt lat="43.77087" lon="6.26042">
        <ele>1090.1</ele>
        <time>2021-09-07T12:40:34.000Z</time>
      </trkpt>
      <trkpt lat="43.77088" lon="6.2604">
        <ele>1089.9</ele>
        <time>2021-09-07T12:40:35.000Z</time>
      </trkpt>
      <trkpt lat="43.77085" lon="6.26044">
        <ele>1090.4</ele>
        <time>2021-09-07T12:40:35.000Z</time>
      </trkpt>
      <trkpt lat="43.77083" lon="6.26045">
        <ele>1090.8</ele>
        <time>2021-09-07T12:40:36.000Z</time>
      </trkpt>
      <trkpt lat="43.77081" lon="6.26046">
        <ele>1090.8</ele>
        <time>2021-09-07T12:40:38.000Z</time>
      </trkpt>
      <trkpt lat="43.77079" lon="6.26047">
        <ele>1091.4</ele>
        <time>2021-09-07T12:40:38.000Z</time>
      </trkpt>
      <trkpt lat="43.77077" lon="6.26048">
        <ele>1091.3</ele>
        <time>2021-09-07T12:40:39.000Z</time>
      </trkpt>
      <trkpt lat="43.77076" lon="6.26048">
        <ele>1091.5</ele>
        <time>2021-09-07T12:40:40.000Z</time>
      </trkpt>
      <trkpt lat="43.77078" lon="6.26047">
        <ele>1091.4</ele>
        <time>2021-09-07T12:40:40.000Z</time>
      </trkpt>
      <trkpt lat="43.77077" lon="6.26048">
        <ele>1091.4</ele>
        <time>2021-09-07T12:40:41.000Z</time>
      </trkpt>
      <trkpt lat="43.77075" lon="6.26048">
        <ele>1091.8</ele>
        <time>2021-09-07T12:40:41.000Z</time>
      </trkpt>
      <trkpt lat="43.77072" lon="6.26047">
        <ele>1092.3</ele>
        <time>2021-09-07T12:40:44.000Z</time>
      </trkpt>
      <trkpt lat="43.77072" lon="6.26048">
        <ele>1092.4</ele>
        <time>2021-09-07T12:40:46.000Z</time>
      </trkpt>
      <trkpt lat="43.77073" lon="6.26048">
        <ele>1092.4</ele>
        <time>2021-09-07T12:40:46.000Z</time>
      </trkpt>
      <trkpt lat="43.77072" lon="6.26048">
        <ele>1092.4</ele>
        <time>2021-09-07T12:40:47.000Z</time>
      </trkpt>
      <trkpt lat="43.77072" lon="6.26048">
        <ele>1092.4</ele>
        <time>2021-09-07T12:40:48.000Z</time>
      </trkpt>
      <trkpt lat="43.77072" lon="6.26048">
        <ele>1092.7</ele>
        <time>2021-09-07T12:40:49.000Z</time>
      </trkpt>
      <trkpt lat="43.77072" lon="6.26048">
        <ele>1093.1</ele>
        <time>2021-09-07T12:40:49.000Z</time>
      </trkpt>
      <trkpt lat="43.77071" lon="6.26049">
        <ele>1093</ele>
        <time>2021-09-07T12:40:52.000Z</time>
      </trkpt>
      <trkpt lat="43.7707" lon="6.2605">
        <ele>1093.2</ele>
        <time>2021-09-07T12:40:52.000Z</time>
      </trkpt>
      <trkpt lat="43.77069" lon="6.2605">
        <ele>1093.3</ele>
        <time>2021-09-07T12:40:54.000Z</time>
      </trkpt>
      <trkpt lat="43.77067" lon="6.26051">
        <ele>1093.9</ele>
        <time>2021-09-07T12:40:55.000Z</time>
      </trkpt>
      <trkpt lat="43.77065" lon="6.2605">
        <ele>1094.2</ele>
        <time>2021-09-07T12:40:56.000Z</time>
      </trkpt>
      <trkpt lat="43.77064" lon="6.2605">
        <ele>1094.2</ele>
        <time>2021-09-07T12:40:57.000Z</time>
      </trkpt>
      <trkpt lat="43.77066" lon="6.26051">
        <ele>1094.1</ele>
        <time>2021-09-07T12:40:57.000Z</time>
      </trkpt>
      <trkpt lat="43.77064" lon="6.2605">
        <ele>1094.2</ele>
        <time>2021-09-07T12:40:58.000Z</time>
      </trkpt>
      <trkpt lat="43.77063" lon="6.26052">
        <ele>1094.3</ele>
        <time>2021-09-07T12:40:59.000Z</time>
      </trkpt>
      <trkpt lat="43.77058" lon="6.26053">
        <ele>1094.7</ele>
        <time>2021-09-07T12:41:01.000Z</time>
      </trkpt>
      <trkpt lat="43.77057" lon="6.26054">
        <ele>1094.9</ele>
        <time>2021-09-07T12:41:03.000Z</time>
      </trkpt>
      <trkpt lat="43.77046" lon="6.2606">
        <ele>1095.5</ele>
        <time>2021-09-07T12:41:06.000Z</time>
      </trkpt>
      <trkpt lat="43.77045" lon="6.26062">
        <ele>1095.9</ele>
        <time>2021-09-07T12:41:07.000Z</time>
      </trkpt>
      <trkpt lat="43.77039" lon="6.26067">
        <ele>1096.3</ele>
        <time>2021-09-07T12:41:12.000Z</time>
      </trkpt>
      <trkpt lat="43.77037" lon="6.2607">
        <ele>1096.7</ele>
        <time>2021-09-07T12:41:12.000Z</time>
      </trkpt>
      <trkpt lat="43.77035" lon="6.26071">
        <ele>1097.1</ele>
        <time>2021-09-07T12:41:13.000Z</time>
      </trkpt>
      <trkpt lat="43.77034" lon="6.26071">
        <ele>1097.5</ele>
        <time>2021-09-07T12:41:14.000Z</time>
      </trkpt>
      <trkpt lat="43.77036" lon="6.2607">
        <ele>1096.8</ele>
        <time>2021-09-07T12:41:14.000Z</time>
      </trkpt>
      <trkpt lat="43.77034" lon="6.26071">
        <ele>1097.4</ele>
        <time>2021-09-07T12:41:15.000Z</time>
      </trkpt>
      <trkpt lat="43.77032" lon="6.26071">
        <ele>1097.7</ele>
        <time>2021-09-07T12:41:16.000Z</time>
      </trkpt>
      <trkpt lat="43.77031" lon="6.26071">
        <ele>1098</ele>
        <time>2021-09-07T12:41:16.000Z</time>
      </trkpt>
      <trkpt lat="43.77029" lon="6.26072">
        <ele>1098.1</ele>
        <time>2021-09-07T12:41:17.000Z</time>
      </trkpt>
      <trkpt lat="43.7703" lon="6.26071">
        <ele>1098.1</ele>
        <time>2021-09-07T12:41:18.000Z</time>
      </trkpt>
      <trkpt lat="43.77028" lon="6.26072">
        <ele>1098.4</ele>
        <time>2021-09-07T12:41:19.000Z</time>
      </trkpt>
      <trkpt lat="43.77027" lon="6.26074">
        <ele>1098.5</ele>
        <time>2021-09-07T12:41:19.000Z</time>
      </trkpt>
      <trkpt lat="43.77026" lon="6.26074">
        <ele>1098.6</ele>
        <time>2021-09-07T12:41:20.000Z</time>
      </trkpt>
      <trkpt lat="43.77026" lon="6.26074">
        <ele>1098.5</ele>
        <time>2021-09-07T12:41:21.000Z</time>
      </trkpt>
      <trkpt lat="43.77024" lon="6.26074">
        <ele>1099</ele>
        <time>2021-09-07T12:41:21.000Z</time>
      </trkpt>
      <trkpt lat="43.7702" lon="6.26069">
        <ele>1099</ele>
        <time>2021-09-07T12:41:24.000Z</time>
      </trkpt>
      <trkpt lat="43.77019" lon="6.26068">
        <ele>1099.2</ele>
        <time>2021-09-07T12:41:26.000Z</time>
      </trkpt>
      <trkpt lat="43.77017" lon="6.26068">
        <ele>1099.5</ele>
        <time>2021-09-07T12:41:26.000Z</time>
      </trkpt>
      <trkpt lat="43.77016" lon="6.26067">
        <ele>1099.6</ele>
        <time>2021-09-07T12:41:27.000Z</time>
      </trkpt>
      <trkpt lat="43.77015" lon="6.26065">
        <ele>1100.1</ele>
        <time>2021-09-07T12:41:28.000Z</time>
      </trkpt>
      <trkpt lat="43.77017" lon="6.26068">
        <ele>1099.5</ele>
        <time>2021-09-07T12:41:28.000Z</time>
      </trkpt>
      <trkpt lat="43.77015" lon="6.26066">
        <ele>1099.8</ele>
        <time>2021-09-07T12:41:29.000Z</time>
      </trkpt>
      <trkpt lat="43.77014" lon="6.26064">
        <ele>1100.1</ele>
        <time>2021-09-07T12:41:30.000Z</time>
      </trkpt>
      <trkpt lat="43.77012" lon="6.26063">
        <ele>1100.2</ele>
        <time>2021-09-07T12:41:30.000Z</time>
      </trkpt>
      <trkpt lat="43.77011" lon="6.26063">
        <ele>1100.3</ele>
        <time>2021-09-07T12:41:32.000Z</time>
      </trkpt>
      <trkpt lat="43.77004" lon="6.26061">
        <ele>1101.1</ele>
        <time>2021-09-07T12:41:35.000Z</time>
      </trkpt>
      <trkpt lat="43.77002" lon="6.2606">
        <ele>1101</ele>
        <time>2021-09-07T12:41:36.000Z</time>
      </trkpt>
      <trkpt lat="43.76998" lon="6.26062">
        <ele>1101.7</ele>
        <time>2021-09-07T12:41:38.000Z</time>
      </trkpt>
      <trkpt lat="43.76996" lon="6.26062">
        <ele>1102.2</ele>
        <time>2021-09-07T12:41:39.000Z</time>
      </trkpt>
      <trkpt lat="43.76996" lon="6.26062">
        <ele>1102</ele>
        <time>2021-09-07T12:41:40.000Z</time>
      </trkpt>
      <trkpt lat="43.76993" lon="6.26063">
        <ele>1102.2</ele>
        <time>2021-09-07T12:41:41.000Z</time>
      </trkpt>
      <trkpt lat="43.7699" lon="6.26063">
        <ele>1102.2</ele>
        <time>2021-09-07T12:41:41.000Z</time>
      </trkpt>
      <trkpt lat="43.76988" lon="6.26064">
        <ele>1102.4</ele>
        <time>2021-09-07T12:41:42.000Z</time>
      </trkpt>
      <trkpt lat="43.76985" lon="6.26065">
        <ele>1102.4</ele>
        <time>2021-09-07T12:41:43.000Z</time>
      </trkpt>
      <trkpt lat="43.76989" lon="6.26063">
        <ele>1102.4</ele>
        <time>2021-09-07T12:41:43.000Z</time>
      </trkpt>
      <trkpt lat="43.76983" lon="6.26065">
        <ele>1102.7</ele>
        <time>2021-09-07T12:41:44.000Z</time>
      </trkpt>
      <trkpt lat="43.76986" lon="6.26064">
        <ele>1102.4</ele>
        <time>2021-09-07T12:41:44.000Z</time>
      </trkpt>
      <trkpt lat="43.76984" lon="6.26065">
        <ele>1102.5</ele>
        <time>2021-09-07T12:41:45.000Z</time>
      </trkpt>
      <trkpt lat="43.76981" lon="6.26065">
        <ele>1102.8</ele>
        <time>2021-09-07T12:41:46.000Z</time>
      </trkpt>
      <trkpt lat="43.76976" lon="6.26068">
        <ele>1103.1</ele>
        <time>2021-09-07T12:41:47.000Z</time>
      </trkpt>
      <trkpt lat="43.76974" lon="6.26069">
        <ele>1103.3</ele>
        <time>2021-09-07T12:41:48.000Z</time>
      </trkpt>
      <trkpt lat="43.76971" lon="6.26071">
        <ele>1103.7</ele>
        <time>2021-09-07T12:41:49.000Z</time>
      </trkpt>
      <trkpt lat="43.76975" lon="6.26068">
        <ele>1103.2</ele>
        <time>2021-09-07T12:41:49.000Z</time>
      </trkpt>
      <trkpt lat="43.76972" lon="6.2607">
        <ele>1103.6</ele>
        <time>2021-09-07T12:41:50.000Z</time>
      </trkpt>
      <trkpt lat="43.7697" lon="6.26072">
        <ele>1103.6</ele>
        <time>2021-09-07T12:41:51.000Z</time>
      </trkpt>
      <trkpt lat="43.76962" lon="6.26077">
        <ele>1104.4</ele>
        <time>2021-09-07T12:41:54.000Z</time>
      </trkpt>
      <trkpt lat="43.76961" lon="6.26079">
        <ele>1104.6</ele>
        <time>2021-09-07T12:41:56.000Z</time>
      </trkpt>
      <trkpt lat="43.7695" lon="6.26087">
        <ele>1105.2</ele>
        <time>2021-09-07T12:42:01.000Z</time>
      </trkpt>
      <trkpt lat="43.76945" lon="6.26089">
        <ele>1105.5</ele>
        <time>2021-09-07T12:42:01.000Z</time>
      </trkpt>
      <trkpt lat="43.76942" lon="6.26091">
        <ele>1105.5</ele>
        <time>2021-09-07T12:42:02.000Z</time>
      </trkpt>
      <trkpt lat="43.76943" lon="6.26091">
        <ele>1105.5</ele>
        <time>2021-09-07T12:42:03.000Z</time>
      </trkpt>
      <trkpt lat="43.76941" lon="6.26092">
        <ele>1105.5</ele>
        <time>2021-09-07T12:42:04.000Z</time>
      </trkpt>
      <trkpt lat="43.76935" lon="6.26097">
        <ele>1106.1</ele>
        <time>2021-09-07T12:42:06.000Z</time>
      </trkpt>
      <trkpt lat="43.76934" lon="6.26097">
        <ele>1106.1</ele>
        <time>2021-09-07T12:42:07.000Z</time>
      </trkpt>
      <trkpt lat="43.76928" lon="6.26099">
        <ele>1107.1</ele>
        <time>2021-09-07T12:42:11.000Z</time>
      </trkpt>
      <trkpt lat="43.76928" lon="6.26099">
        <ele>1106.9</ele>
        <time>2021-09-07T12:42:12.000Z</time>
      </trkpt>
      <trkpt lat="43.76926" lon="6.26099">
        <ele>1107.4</ele>
        <time>2021-09-07T12:42:12.000Z</time>
      </trkpt>
      <trkpt lat="43.76922" lon="6.261">
        <ele>1107.6</ele>
        <time>2021-09-07T12:42:14.000Z</time>
      </trkpt>
      <trkpt lat="43.76921" lon="6.26101">
        <ele>1107.8</ele>
        <time>2021-09-07T12:42:16.000Z</time>
      </trkpt>
      <trkpt lat="43.76918" lon="6.26101">
        <ele>1108.4</ele>
        <time>2021-09-07T12:42:16.000Z</time>
      </trkpt>
      <trkpt lat="43.76916" lon="6.26102">
        <ele>1108.3</ele>
        <time>2021-09-07T12:42:17.000Z</time>
      </trkpt>
      <trkpt lat="43.76917" lon="6.26102">
        <ele>1108.4</ele>
        <time>2021-09-07T12:42:18.000Z</time>
      </trkpt>
      <trkpt lat="43.76915" lon="6.26103">
        <ele>1108.2</ele>
        <time>2021-09-07T12:42:19.000Z</time>
      </trkpt>
      <trkpt lat="43.76908" lon="6.26107">
        <ele>1109.5</ele>
        <time>2021-09-07T12:42:21.000Z</time>
      </trkpt>
      <trkpt lat="43.76907" lon="6.26108">
        <ele>1109.5</ele>
        <time>2021-09-07T12:42:22.000Z</time>
      </trkpt>
      <trkpt lat="43.76907" lon="6.26107">
        <ele>1109.5</ele>
        <time>2021-09-07T12:42:23.000Z</time>
      </trkpt>
      <trkpt lat="43.76905" lon="6.26109">
        <ele>1109.4</ele>
        <time>2021-09-07T12:42:24.000Z</time>
      </trkpt>
      <trkpt lat="43.76897" lon="6.26113">
        <ele>1110.1</ele>
        <time>2021-09-07T12:42:27.000Z</time>
      </trkpt>
      <trkpt lat="43.76895" lon="6.26114">
        <ele>1110.2</ele>
        <time>2021-09-07T12:42:28.000Z</time>
      </trkpt>
      <trkpt lat="43.76895" lon="6.26114">
        <ele>1110.2</ele>
        <time>2021-09-07T12:42:29.000Z</time>
      </trkpt>
      <trkpt lat="43.76893" lon="6.26116">
        <ele>1110.2</ele>
        <time>2021-09-07T12:42:30.000Z</time>
      </trkpt>
      <trkpt lat="43.76891" lon="6.26116">
        <ele>1110.4</ele>
        <time>2021-09-07T12:42:30.000Z</time>
      </trkpt>
      <trkpt lat="43.7689" lon="6.26117">
        <ele>1110.6</ele>
        <time>2021-09-07T12:42:32.000Z</time>
      </trkpt>
      <trkpt lat="43.76881" lon="6.26119">
        <ele>1111.3</ele>
        <time>2021-09-07T12:42:34.000Z</time>
      </trkpt>
      <trkpt lat="43.76879" lon="6.2612">
        <ele>1111.3</ele>
        <time>2021-09-07T12:42:35.000Z</time>
      </trkpt>
      <trkpt lat="43.76875" lon="6.2612">
        <ele>1111.6</ele>
        <time>2021-09-07T12:42:37.000Z</time>
      </trkpt>
      <trkpt lat="43.76873" lon="6.26121">
        <ele>1111.7</ele>
        <time>2021-09-07T12:42:39.000Z</time>
      </trkpt>
      <trkpt lat="43.76867" lon="6.26124">
        <ele>1112.5</ele>
        <time>2021-09-07T12:42:41.000Z</time>
      </trkpt>
      <trkpt lat="43.76865" lon="6.26126">
        <ele>1112.5</ele>
        <time>2021-09-07T12:42:42.000Z</time>
      </trkpt>
      <trkpt lat="43.76866" lon="6.26125">
        <ele>1112.5</ele>
        <time>2021-09-07T12:42:43.000Z</time>
      </trkpt>
      <trkpt lat="43.76864" lon="6.26127">
        <ele>1112.7</ele>
        <time>2021-09-07T12:42:44.000Z</time>
      </trkpt>
      <trkpt lat="43.76862" lon="6.26127">
        <ele>1113</ele>
        <time>2021-09-07T12:42:44.000Z</time>
      </trkpt>
      <trkpt lat="43.76862" lon="6.26127">
        <ele>1113.1</ele>
        <time>2021-09-07T12:42:46.000Z</time>
      </trkpt>
      <trkpt lat="43.76859" lon="6.26127">
        <ele>1113.2</ele>
        <time>2021-09-07T12:42:46.000Z</time>
      </trkpt>
      <trkpt lat="43.76858" lon="6.26129">
        <ele>1113</ele>
        <time>2021-09-07T12:42:47.000Z</time>
      </trkpt>
      <trkpt lat="43.76856" lon="6.2613">
        <ele>1113.4</ele>
        <time>2021-09-07T12:42:48.000Z</time>
      </trkpt>
      <trkpt lat="43.76859" lon="6.26127">
        <ele>1113.1</ele>
        <time>2021-09-07T12:42:48.000Z</time>
      </trkpt>
      <trkpt lat="43.76857" lon="6.26129">
        <ele>1113.3</ele>
        <time>2021-09-07T12:42:49.000Z</time>
      </trkpt>
      <trkpt lat="43.76855" lon="6.2613">
        <ele>1113.4</ele>
        <time>2021-09-07T12:42:50.000Z</time>
      </trkpt>
      <trkpt lat="43.76853" lon="6.26134">
        <ele>1113.6</ele>
        <time>2021-09-07T12:42:52.000Z</time>
      </trkpt>
      <trkpt lat="43.76853" lon="6.26135">
        <ele>1113.7</ele>
        <time>2021-09-07T12:42:54.000Z</time>
      </trkpt>
      <trkpt lat="43.76854" lon="6.26135">
        <ele>1113.4</ele>
        <time>2021-09-07T12:42:54.000Z</time>
      </trkpt>
      <trkpt lat="43.76855" lon="6.26134">
        <ele>1113.5</ele>
        <time>2021-09-07T12:42:55.000Z</time>
      </trkpt>
      <trkpt lat="43.76857" lon="6.26133">
        <ele>1113.5</ele>
        <time>2021-09-07T12:42:56.000Z</time>
      </trkpt>
      <trkpt lat="43.76855" lon="6.26134">
        <ele>1113.5</ele>
        <time>2021-09-07T12:42:56.000Z</time>
      </trkpt>
      <trkpt lat="43.76859" lon="6.26133">
        <ele>1113.2</ele>
        <time>2021-09-07T12:42:57.000Z</time>
      </trkpt>
      <trkpt lat="43.76856" lon="6.26133">
        <ele>1113.5</ele>
        <time>2021-09-07T12:42:57.000Z</time>
      </trkpt>
      <trkpt lat="43.7686" lon="6.26133">
        <ele>1112.9</ele>
        <time>2021-09-07T12:42:58.000Z</time>
      </trkpt>
      <trkpt lat="43.76858" lon="6.26133">
        <ele>1113.4</ele>
        <time>2021-09-07T12:42:58.000Z</time>
      </trkpt>
      <trkpt lat="43.76859" lon="6.26133">
        <ele>1113.1</ele>
        <time>2021-09-07T12:42:59.000Z</time>
      </trkpt>
      <trkpt lat="43.76861" lon="6.26133">
        <ele>1112.9</ele>
        <time>2021-09-07T12:42:59.000Z</time>
      </trkpt>
      <trkpt lat="43.76865" lon="6.26133">
        <ele>1112.2</ele>
        <time>2021-09-07T12:43:02.000Z</time>
      </trkpt>
      <trkpt lat="43.76867" lon="6.26134">
        <ele>1111.9</ele>
        <time>2021-09-07T12:43:03.000Z</time>
      </trkpt>
      <trkpt lat="43.76866" lon="6.26134">
        <ele>1112</ele>
        <time>2021-09-07T12:43:04.000Z</time>
      </trkpt>
      <trkpt lat="43.76868" lon="6.26134">
        <ele>1111.8</ele>
        <time>2021-09-07T12:43:04.000Z</time>
      </trkpt>
      <trkpt lat="43.76875" lon="6.26132">
        <ele>1111.3</ele>
        <time>2021-09-07T12:43:09.000Z</time>
      </trkpt>
      <trkpt lat="43.76878" lon="6.26132">
        <ele>1111.1</ele>
        <time>2021-09-07T12:43:09.000Z</time>
      </trkpt>
      <trkpt lat="43.7688" lon="6.26131">
        <ele>1111.1</ele>
        <time>2021-09-07T12:43:11.000Z</time>
      </trkpt>
      <trkpt lat="43.76883" lon="6.26129">
        <ele>1110.8</ele>
        <time>2021-09-07T12:43:12.000Z</time>
      </trkpt>
      <trkpt lat="43.76884" lon="6.26128">
        <ele>1110.7</ele>
        <time>2021-09-07T12:43:13.000Z</time>
      </trkpt>
      <trkpt lat="43.76884" lon="6.26128">
        <ele>1110.8</ele>
        <time>2021-09-07T12:43:14.000Z</time>
      </trkpt>
      <trkpt lat="43.76884" lon="6.26127">
        <ele>1110.8</ele>
        <time>2021-09-07T12:43:15.000Z</time>
      </trkpt>
      <trkpt lat="43.76882" lon="6.2613">
        <ele>1111</ele>
        <time>2021-09-07T12:43:15.000Z</time>
      </trkpt>
      <trkpt lat="43.76881" lon="6.26131">
        <ele>1111.1</ele>
        <time>2021-09-07T12:43:17.000Z</time>
      </trkpt>
      <trkpt lat="43.76879" lon="6.26131">
        <ele>1111.6</ele>
        <time>2021-09-07T12:43:17.000Z</time>
      </trkpt>
      <trkpt lat="43.76877" lon="6.26131">
        <ele>1111.7</ele>
        <time>2021-09-07T12:43:19.000Z</time>
      </trkpt>
      <trkpt lat="43.76873" lon="6.26132">
        <ele>1112.1</ele>
        <time>2021-09-07T12:43:20.000Z</time>
      </trkpt>
      <trkpt lat="43.76872" lon="6.26133">
        <ele>1112.1</ele>
        <time>2021-09-07T12:43:21.000Z</time>
      </trkpt>
      <trkpt lat="43.76872" lon="6.26133">
        <ele>1112.2</ele>
        <time>2021-09-07T12:43:22.000Z</time>
      </trkpt>
      <trkpt lat="43.76871" lon="6.26134">
        <ele>1112.3</ele>
        <time>2021-09-07T12:43:23.000Z</time>
      </trkpt>
      <trkpt lat="43.76871" lon="6.26134">
        <ele>1112.3</ele>
        <time>2021-09-07T12:43:23.000Z</time>
      </trkpt>
      <trkpt lat="43.76869" lon="6.26134">
        <ele>1112.5</ele>
        <time>2021-09-07T12:43:24.000Z</time>
      </trkpt>
      <trkpt lat="43.76866" lon="6.26134">
        <ele>1112.8</ele>
        <time>2021-09-07T12:43:25.000Z</time>
      </trkpt>
      <trkpt lat="43.76864" lon="6.26136">
        <ele>1113.1</ele>
        <time>2021-09-07T12:43:25.000Z</time>
      </trkpt>
      <trkpt lat="43.76863" lon="6.26136">
        <ele>1113.1</ele>
        <time>2021-09-07T12:43:27.000Z</time>
      </trkpt>
      <trkpt lat="43.76858" lon="6.26136">
        <ele>1113.1</ele>
        <time>2021-09-07T12:43:27.000Z</time>
      </trkpt>
      <trkpt lat="43.76856" lon="6.26136">
        <ele>1113.3</ele>
        <time>2021-09-07T12:43:29.000Z</time>
      </trkpt>
      <trkpt lat="43.76848" lon="6.26136">
        <ele>1114.1</ele>
        <time>2021-09-07T12:43:34.000Z</time>
      </trkpt>
      <trkpt lat="43.76836" lon="6.26141">
        <ele>1115.1</ele>
        <time>2021-09-07T12:43:39.000Z</time>
      </trkpt>
      <trkpt lat="43.76826" lon="6.26143">
        <ele>1115.7</ele>
        <time>2021-09-07T12:43:44.000Z</time>
      </trkpt>
      <trkpt lat="43.76819" lon="6.26144">
        <ele>1116.7</ele>
        <time>2021-09-07T12:43:49.000Z</time>
      </trkpt>
      <trkpt lat="43.76812" lon="6.26144">
        <ele>1117.7</ele>
        <time>2021-09-07T12:43:54.000Z</time>
      </trkpt>
      <trkpt lat="43.76803" lon="6.26144">
        <ele>1118.4</ele>
        <time>2021-09-07T12:43:59.000Z</time>
      </trkpt>
      <trkpt lat="43.76798" lon="6.26145">
        <ele>1118.6</ele>
        <time>2021-09-07T12:44:04.000Z</time>
      </trkpt>
      <trkpt lat="43.76796" lon="6.26146">
        <ele>1119</ele>
        <time>2021-09-07T12:44:04.000Z</time>
      </trkpt>
      <trkpt lat="43.76794" lon="6.26146">
        <ele>1119</ele>
        <time>2021-09-07T12:44:05.000Z</time>
      </trkpt>
      <trkpt lat="43.76789" lon="6.26148">
        <ele>1119.6</ele>
        <time>2021-09-07T12:44:10.000Z</time>
      </trkpt>
      <trkpt lat="43.76782" lon="6.26148">
        <ele>1120.2</ele>
        <time>2021-09-07T12:44:13.000Z</time>
      </trkpt>
      <trkpt lat="43.76781" lon="6.26148">
        <ele>1120.3</ele>
        <time>2021-09-07T12:44:14.000Z</time>
      </trkpt>
      <trkpt lat="43.76781" lon="6.26148">
        <ele>1120.3</ele>
        <time>2021-09-07T12:44:15.000Z</time>
      </trkpt>
      <trkpt lat="43.7678" lon="6.26148">
        <ele>1120.5</ele>
        <time>2021-09-07T12:44:16.000Z</time>
      </trkpt>
      <trkpt lat="43.76778" lon="6.26148">
        <ele>1120.7</ele>
        <time>2021-09-07T12:44:16.000Z</time>
      </trkpt>
      <trkpt lat="43.76776" lon="6.26148">
        <ele>1120.8</ele>
        <time>2021-09-07T12:44:17.000Z</time>
      </trkpt>
      <trkpt lat="43.7677" lon="6.26151">
        <ele>1121.3</ele>
        <time>2021-09-07T12:44:21.000Z</time>
      </trkpt>
      <trkpt lat="43.76768" lon="6.26151">
        <ele>1121.5</ele>
        <time>2021-09-07T12:44:22.000Z</time>
      </trkpt>
      <trkpt lat="43.7677" lon="6.26151">
        <ele>1121.2</ele>
        <time>2021-09-07T12:44:22.000Z</time>
      </trkpt>
      <trkpt lat="43.76769" lon="6.26151">
        <ele>1121.4</ele>
        <time>2021-09-07T12:44:23.000Z</time>
      </trkpt>
      <trkpt lat="43.76767" lon="6.26152">
        <ele>1121.5</ele>
        <time>2021-09-07T12:44:24.000Z</time>
      </trkpt>
      <trkpt lat="43.76758" lon="6.26158">
        <ele>1122.2</ele>
        <time>2021-09-07T12:44:29.000Z</time>
      </trkpt>
      <trkpt lat="43.76751" lon="6.26165">
        <ele>1123.1</ele>
        <time>2021-09-07T12:44:34.000Z</time>
      </trkpt>
      <trkpt lat="43.76744" lon="6.26175">
        <ele>1123.2</ele>
        <time>2021-09-07T12:44:40.000Z</time>
      </trkpt>
      <trkpt lat="43.76734" lon="6.2619">
        <ele>1124.3</ele>
        <time>2021-09-07T12:44:45.000Z</time>
      </trkpt>
      <trkpt lat="43.7673" lon="6.26204">
        <ele>1124.7</ele>
        <time>2021-09-07T12:44:50.000Z</time>
      </trkpt>
      <trkpt lat="43.76727" lon="6.26214">
        <ele>1125.3</ele>
        <time>2021-09-07T12:44:53.000Z</time>
      </trkpt>
      <trkpt lat="43.76727" lon="6.26215">
        <ele>1125.3</ele>
        <time>2021-09-07T12:44:55.000Z</time>
      </trkpt>
      <trkpt lat="43.76726" lon="6.26218">
        <ele>1125.5</ele>
        <time>2021-09-07T12:44:55.000Z</time>
      </trkpt>
      <trkpt lat="43.76726" lon="6.2622">
        <ele>1125.5</ele>
        <time>2021-09-07T12:44:56.000Z</time>
      </trkpt>
      <trkpt lat="43.76724" lon="6.26229">
        <ele>1126.1</ele>
        <time>2021-09-07T12:45:01.000Z</time>
      </trkpt>
      <trkpt lat="43.76723" lon="6.26239">
        <ele>1126.7</ele>
        <time>2021-09-07T12:45:06.000Z</time>
      </trkpt>
      <trkpt lat="43.7672" lon="6.2625">
        <ele>1127.5</ele>
        <time>2021-09-07T12:45:11.000Z</time>
      </trkpt>
      <trkpt lat="43.76717" lon="6.26262">
        <ele>1128.1</ele>
        <time>2021-09-07T12:45:16.000Z</time>
      </trkpt>
      <trkpt lat="43.76715" lon="6.26273">
        <ele>1128.7</ele>
        <time>2021-09-07T12:45:21.000Z</time>
      </trkpt>
      <trkpt lat="43.76715" lon="6.2628">
        <ele>1129.3</ele>
        <time>2021-09-07T12:45:26.000Z</time>
      </trkpt>
      <trkpt lat="43.76714" lon="6.26286">
        <ele>1129.6</ele>
        <time>2021-09-07T12:45:27.000Z</time>
      </trkpt>
      <trkpt lat="43.76714" lon="6.26288">
        <ele>1129.6</ele>
        <time>2021-09-07T12:45:28.000Z</time>
      </trkpt>
      <trkpt lat="43.76714" lon="6.26287">
        <ele>1129.6</ele>
        <time>2021-09-07T12:45:29.000Z</time>
      </trkpt>
      <trkpt lat="43.76713" lon="6.2629">
        <ele>1129.8</ele>
        <time>2021-09-07T12:45:29.000Z</time>
      </trkpt>
      <trkpt lat="43.76711" lon="6.26296">
        <ele>1130.4</ele>
        <time>2021-09-07T12:45:32.000Z</time>
      </trkpt>
      <trkpt lat="43.7671" lon="6.26298">
        <ele>1130.8</ele>
        <time>2021-09-07T12:45:33.000Z</time>
      </trkpt>
      <trkpt lat="43.7671" lon="6.26297">
        <ele>1130.6</ele>
        <time>2021-09-07T12:45:34.000Z</time>
      </trkpt>
      <trkpt lat="43.76709" lon="6.26299">
        <ele>1131</ele>
        <time>2021-09-07T12:45:35.000Z</time>
      </trkpt>
      <trkpt lat="43.76708" lon="6.26301">
        <ele>1131</ele>
        <time>2021-09-07T12:45:35.000Z</time>
      </trkpt>
      <trkpt lat="43.76707" lon="6.26302">
        <ele>1131.5</ele>
        <time>2021-09-07T12:45:36.000Z</time>
      </trkpt>
      <trkpt lat="43.76706" lon="6.26303">
        <ele>1131.5</ele>
        <time>2021-09-07T12:45:37.000Z</time>
      </trkpt>
      <trkpt lat="43.76707" lon="6.26301">
        <ele>1131.4</ele>
        <time>2021-09-07T12:45:37.000Z</time>
      </trkpt>
      <trkpt lat="43.76706" lon="6.26303">
        <ele>1131.5</ele>
        <time>2021-09-07T12:45:38.000Z</time>
      </trkpt>
      <trkpt lat="43.76706" lon="6.26304">
        <ele>1131.4</ele>
        <time>2021-09-07T12:45:39.000Z</time>
      </trkpt>
      <trkpt lat="43.76705" lon="6.26305">
        <ele>1131.4</ele>
        <time>2021-09-07T12:45:40.000Z</time>
      </trkpt>
      <trkpt lat="43.76704" lon="6.26307">
        <ele>1131.9</ele>
        <time>2021-09-07T12:45:40.000Z</time>
      </trkpt>
      <trkpt lat="43.76703" lon="6.26309">
        <ele>1131.8</ele>
        <time>2021-09-07T12:45:41.000Z</time>
      </trkpt>
      <trkpt lat="43.76702" lon="6.26311">
        <ele>1131.8</ele>
        <time>2021-09-07T12:45:42.000Z</time>
      </trkpt>
      <trkpt lat="43.76701" lon="6.26313">
        <ele>1132.3</ele>
        <time>2021-09-07T12:45:43.000Z</time>
      </trkpt>
      <trkpt lat="43.76701" lon="6.26312">
        <ele>1132.1</ele>
        <time>2021-09-07T12:45:44.000Z</time>
      </trkpt>
      <trkpt lat="43.767" lon="6.26314">
        <ele>1132.4</ele>
        <time>2021-09-07T12:45:45.000Z</time>
      </trkpt>
      <trkpt lat="43.76698" lon="6.26318">
        <ele>1132.7</ele>
        <time>2021-09-07T12:45:46.000Z</time>
      </trkpt>
      <trkpt lat="43.76698" lon="6.2632">
        <ele>1133.1</ele>
        <time>2021-09-07T12:45:47.000Z</time>
      </trkpt>
      <trkpt lat="43.76698" lon="6.26319">
        <ele>1133</ele>
        <time>2021-09-07T12:45:48.000Z</time>
      </trkpt>
      <trkpt lat="43.76697" lon="6.26321">
        <ele>1132.7</ele>
        <time>2021-09-07T12:45:49.000Z</time>
      </trkpt>
      <trkpt lat="43.76695" lon="6.26325">
        <ele>1133.3</ele>
        <time>2021-09-07T12:45:50.000Z</time>
      </trkpt>
      <trkpt lat="43.76695" lon="6.26327">
        <ele>1133.5</ele>
        <time>2021-09-07T12:45:51.000Z</time>
      </trkpt>
      <trkpt lat="43.76694" lon="6.26329">
        <ele>1133.4</ele>
        <time>2021-09-07T12:45:52.000Z</time>
      </trkpt>
      <trkpt lat="43.76695" lon="6.26327">
        <ele>1133.5</ele>
        <time>2021-09-07T12:45:52.000Z</time>
      </trkpt>
      <trkpt lat="43.76695" lon="6.26328">
        <ele>1133.5</ele>
        <time>2021-09-07T12:45:53.000Z</time>
      </trkpt>
      <trkpt lat="43.76694" lon="6.26331">
        <ele>1133.6</ele>
        <time>2021-09-07T12:45:54.000Z</time>
      </trkpt>
      <trkpt lat="43.76693" lon="6.26338">
        <ele>1134.1</ele>
        <time>2021-09-07T12:45:56.000Z</time>
      </trkpt>
      <trkpt lat="43.76693" lon="6.26341">
        <ele>1134</ele>
        <time>2021-09-07T12:45:57.000Z</time>
      </trkpt>
      <trkpt lat="43.76693" lon="6.2634">
        <ele>1134.1</ele>
        <time>2021-09-07T12:45:58.000Z</time>
      </trkpt>
      <trkpt lat="43.76693" lon="6.26342">
        <ele>1134</ele>
        <time>2021-09-07T12:45:59.000Z</time>
      </trkpt>
      <trkpt lat="43.76695" lon="6.2635">
        <ele>1135.1</ele>
        <time>2021-09-07T12:46:00.000Z</time>
      </trkpt>
      <trkpt lat="43.76696" lon="6.26352">
        <ele>1134.9</ele>
        <time>2021-09-07T12:46:01.000Z</time>
      </trkpt>
      <trkpt lat="43.76697" lon="6.2636">
        <ele>1135.1</ele>
        <time>2021-09-07T12:46:04.000Z</time>
      </trkpt>
      <trkpt lat="43.76698" lon="6.26363">
        <ele>1135.2</ele>
        <time>2021-09-07T12:46:05.000Z</time>
      </trkpt>
      <trkpt lat="43.76698" lon="6.26366">
        <ele>1135.4</ele>
        <time>2021-09-07T12:46:06.000Z</time>
      </trkpt>
      <trkpt lat="43.76697" lon="6.26362">
        <ele>1135.2</ele>
        <time>2021-09-07T12:46:06.000Z</time>
      </trkpt>
      <trkpt lat="43.76698" lon="6.26365">
        <ele>1135.4</ele>
        <time>2021-09-07T12:46:07.000Z</time>
      </trkpt>
      <trkpt lat="43.76699" lon="6.26369">
        <ele>1135.3</ele>
        <time>2021-09-07T12:46:08.000Z</time>
      </trkpt>
      <trkpt lat="43.76701" lon="6.26375">
        <ele>1135.7</ele>
        <time>2021-09-07T12:46:09.000Z</time>
      </trkpt>
      <trkpt lat="43.76702" lon="6.26377">
        <ele>1135.8</ele>
        <time>2021-09-07T12:46:10.000Z</time>
      </trkpt>
      <trkpt lat="43.76703" lon="6.26379">
        <ele>1135.8</ele>
        <time>2021-09-07T12:46:11.000Z</time>
      </trkpt>
      <trkpt lat="43.76701" lon="6.26376">
        <ele>1135.8</ele>
        <time>2021-09-07T12:46:11.000Z</time>
      </trkpt>
      <trkpt lat="43.76702" lon="6.26379">
        <ele>1135.7</ele>
        <time>2021-09-07T12:46:12.000Z</time>
      </trkpt>
      <trkpt lat="43.76703" lon="6.26381">
        <ele>1136</ele>
        <time>2021-09-07T12:46:13.000Z</time>
      </trkpt>
      <trkpt lat="43.76707" lon="6.26388">
        <ele>1135.9</ele>
        <time>2021-09-07T12:46:15.000Z</time>
      </trkpt>
      <trkpt lat="43.76708" lon="6.2639">
        <ele>1136</ele>
        <time>2021-09-07T12:46:16.000Z</time>
      </trkpt>
      <trkpt lat="43.76707" lon="6.26389">
        <ele>1135.9</ele>
        <time>2021-09-07T12:46:17.000Z</time>
      </trkpt>
      <trkpt lat="43.76708" lon="6.26391">
        <ele>1136.1</ele>
        <time>2021-09-07T12:46:18.000Z</time>
      </trkpt>
      <trkpt lat="43.7671" lon="6.26397">
        <ele>1136.1</ele>
        <time>2021-09-07T12:46:19.000Z</time>
      </trkpt>
      <trkpt lat="43.7671" lon="6.264">
        <ele>1136.4</ele>
        <time>2021-09-07T12:46:20.000Z</time>
      </trkpt>
      <trkpt lat="43.7671" lon="6.26403">
        <ele>1136.6</ele>
        <time>2021-09-07T12:46:21.000Z</time>
      </trkpt>
      <trkpt lat="43.7671" lon="6.26398">
        <ele>1136.2</ele>
        <time>2021-09-07T12:46:21.000Z</time>
      </trkpt>
      <trkpt lat="43.7671" lon="6.26402">
        <ele>1136.6</ele>
        <time>2021-09-07T12:46:22.000Z</time>
      </trkpt>
      <trkpt lat="43.7671" lon="6.26405">
        <ele>1136.6</ele>
        <time>2021-09-07T12:46:22.000Z</time>
      </trkpt>
      <trkpt lat="43.76709" lon="6.26413">
        <ele>1136.8</ele>
        <time>2021-09-07T12:46:27.000Z</time>
      </trkpt>
      <trkpt lat="43.76709" lon="6.26415">
        <ele>1136.9</ele>
        <time>2021-09-07T12:46:28.000Z</time>
      </trkpt>
      <trkpt lat="43.76706" lon="6.26423">
        <ele>1136.9</ele>
        <time>2021-09-07T12:46:33.000Z</time>
      </trkpt>
      <trkpt lat="43.76704" lon="6.26423">
        <ele>1137</ele>
        <time>2021-09-07T12:46:33.000Z</time>
      </trkpt>
      <trkpt lat="43.76704" lon="6.26424">
        <ele>1137.1</ele>
        <time>2021-09-07T12:46:35.000Z</time>
      </trkpt>
      <trkpt lat="43.76702" lon="6.26427">
        <ele>1137.2</ele>
        <time>2021-09-07T12:46:35.000Z</time>
      </trkpt>
      <trkpt lat="43.76701" lon="6.26428">
        <ele>1137.4</ele>
        <time>2021-09-07T12:46:36.000Z</time>
      </trkpt>
      <trkpt lat="43.76701" lon="6.26428">
        <ele>1137.3</ele>
        <time>2021-09-07T12:46:37.000Z</time>
      </trkpt>
      <trkpt lat="43.767" lon="6.26429">
        <ele>1137.6</ele>
        <time>2021-09-07T12:46:38.000Z</time>
      </trkpt>
      <trkpt lat="43.76699" lon="6.26435">
        <ele>1137.2</ele>
        <time>2021-09-07T12:46:39.000Z</time>
      </trkpt>
      <trkpt lat="43.76699" lon="6.26437">
        <ele>1137.4</ele>
        <time>2021-09-07T12:46:41.000Z</time>
      </trkpt>
      <trkpt lat="43.76696" lon="6.26441">
        <ele>1137.7</ele>
        <time>2021-09-07T12:46:42.000Z</time>
      </trkpt>
      <trkpt lat="43.76695" lon="6.26441">
        <ele>1137.7</ele>
        <time>2021-09-07T12:46:44.000Z</time>
      </trkpt>
      <trkpt lat="43.76692" lon="6.26444">
        <ele>1137.8</ele>
        <time>2021-09-07T12:46:44.000Z</time>
      </trkpt>
      <trkpt lat="43.7669" lon="6.26447">
        <ele>1137.7</ele>
        <time>2021-09-07T12:46:45.000Z</time>
      </trkpt>
      <trkpt lat="43.76691" lon="6.26446">
        <ele>1137.8</ele>
        <time>2021-09-07T12:46:46.000Z</time>
      </trkpt>
      <trkpt lat="43.76689" lon="6.26448">
        <ele>1137.8</ele>
        <time>2021-09-07T12:46:47.000Z</time>
      </trkpt>
      <trkpt lat="43.76681" lon="6.26458">
        <ele>1138.1</ele>
        <time>2021-09-07T12:46:51.000Z</time>
      </trkpt>
      <trkpt lat="43.76682" lon="6.26457">
        <ele>1138.2</ele>
        <time>2021-09-07T12:46:52.000Z</time>
      </trkpt>
      <trkpt lat="43.7668" lon="6.26459">
        <ele>1138.1</ele>
        <time>2021-09-07T12:46:53.000Z</time>
      </trkpt>
      <trkpt lat="43.76673" lon="6.26467">
        <ele>1138.6</ele>
        <time>2021-09-07T12:46:55.000Z</time>
      </trkpt>
      <trkpt lat="43.76671" lon="6.26468">
        <ele>1138.7</ele>
        <time>2021-09-07T12:46:57.000Z</time>
      </trkpt>
      <trkpt lat="43.76666" lon="6.26475">
        <ele>1138.7</ele>
        <time>2021-09-07T12:46:59.000Z</time>
      </trkpt>
      <trkpt lat="43.76664" lon="6.26477">
        <ele>1138.8</ele>
        <time>2021-09-07T12:47:00.000Z</time>
      </trkpt>
      <trkpt lat="43.76662" lon="6.2648">
        <ele>1138.7</ele>
        <time>2021-09-07T12:47:01.000Z</time>
      </trkpt>
      <trkpt lat="43.76665" lon="6.26476">
        <ele>1138.9</ele>
        <time>2021-09-07T12:47:01.000Z</time>
      </trkpt>
      <trkpt lat="43.76663" lon="6.26478">
        <ele>1138.9</ele>
        <time>2021-09-07T12:47:02.000Z</time>
      </trkpt>
      <trkpt lat="43.7666" lon="6.26482">
        <ele>1138.9</ele>
        <time>2021-09-07T12:47:03.000Z</time>
      </trkpt>
      <trkpt lat="43.76656" lon="6.26483">
        <ele>1139.1</ele>
        <time>2021-09-07T12:47:04.000Z</time>
      </trkpt>
      <trkpt lat="43.7665" lon="6.26484">
        <ele>1139.6</ele>
        <time>2021-09-07T12:47:06.000Z</time>
      </trkpt>
      <trkpt lat="43.76652" lon="6.26485">
        <ele>1139.4</ele>
        <time>2021-09-07T12:47:07.000Z</time>
      </trkpt>
      <trkpt lat="43.76646" lon="6.26484">
        <ele>1139.6</ele>
        <time>2021-09-07T12:47:08.000Z</time>
      </trkpt>
      <trkpt lat="43.76648" lon="6.26484">
        <ele>1139.7</ele>
        <time>2021-09-07T12:47:09.000Z</time>
      </trkpt>
      <trkpt lat="43.76644" lon="6.26483">
        <ele>1139.6</ele>
        <time>2021-09-07T12:47:11.000Z</time>
      </trkpt>
      <trkpt lat="43.76639" lon="6.26484">
        <ele>1140.5</ele>
        <time>2021-09-07T12:47:11.000Z</time>
      </trkpt>
      <trkpt lat="43.76636" lon="6.26483">
        <ele>1140.8</ele>
        <time>2021-09-07T12:47:12.000Z</time>
      </trkpt>
      <trkpt lat="43.76637" lon="6.26484">
        <ele>1140.7</ele>
        <time>2021-09-07T12:47:14.000Z</time>
      </trkpt>
      <trkpt lat="43.76634" lon="6.26482">
        <ele>1140.7</ele>
        <time>2021-09-07T12:47:15.000Z</time>
      </trkpt>
      <trkpt lat="43.76624" lon="6.26483">
        <ele>1140.9</ele>
        <time>2021-09-07T12:47:17.000Z</time>
      </trkpt>
      <trkpt lat="43.76619" lon="6.2648">
        <ele>1141.4</ele>
        <time>2021-09-07T12:47:19.000Z</time>
      </trkpt>
      <trkpt lat="43.76622" lon="6.26482">
        <ele>1141</ele>
        <time>2021-09-07T12:47:20.000Z</time>
      </trkpt>
      <trkpt lat="43.76615" lon="6.26483">
        <ele>1141.7</ele>
        <time>2021-09-07T12:47:21.000Z</time>
      </trkpt>
      <trkpt lat="43.76613" lon="6.26487">
        <ele>1141.8</ele>
        <time>2021-09-07T12:47:22.000Z</time>
      </trkpt>
      <trkpt lat="43.76619" lon="6.26481">
        <ele>1141.5</ele>
        <time>2021-09-07T12:47:22.000Z</time>
      </trkpt>
      <trkpt lat="43.76611" lon="6.2649">
        <ele>1141.8</ele>
        <time>2021-09-07T12:47:23.000Z</time>
      </trkpt>
      <trkpt lat="43.76614" lon="6.26486">
        <ele>1141.7</ele>
        <time>2021-09-07T12:47:24.000Z</time>
      </trkpt>
      <trkpt lat="43.76608" lon="6.2649">
        <ele>1142.6</ele>
        <time>2021-09-07T12:47:25.000Z</time>
      </trkpt>
      <trkpt lat="43.76612" lon="6.2649">
        <ele>1141.8</ele>
        <time>2021-09-07T12:47:25.000Z</time>
      </trkpt>
      <trkpt lat="43.7661" lon="6.2649">
        <ele>1142.1</ele>
        <time>2021-09-07T12:47:26.000Z</time>
      </trkpt>
      <trkpt lat="43.76607" lon="6.26496">
        <ele>1142.6</ele>
        <time>2021-09-07T12:47:28.000Z</time>
      </trkpt>
      <trkpt lat="43.76607" lon="6.26499">
        <ele>1142.7</ele>
        <time>2021-09-07T12:47:29.000Z</time>
      </trkpt>
      <trkpt lat="43.76607" lon="6.26493">
        <ele>1142.6</ele>
        <time>2021-09-07T12:47:29.000Z</time>
      </trkpt>
      <trkpt lat="43.76604" lon="6.26503">
        <ele>1143.4</ele>
        <time>2021-09-07T12:47:31.000Z</time>
      </trkpt>
      <trkpt lat="43.76607" lon="6.26498">
        <ele>1142.6</ele>
        <time>2021-09-07T12:47:31.000Z</time>
      </trkpt>
      <trkpt lat="43.76606" lon="6.26501">
        <ele>1142.9</ele>
        <time>2021-09-07T12:47:32.000Z</time>
      </trkpt>
      <trkpt lat="43.76601" lon="6.26503">
        <ele>1143.5</ele>
        <time>2021-09-07T12:47:34.000Z</time>
      </trkpt>
      <trkpt lat="43.76596" lon="6.26512">
        <ele>1144.7</ele>
        <time>2021-09-07T12:47:37.000Z</time>
      </trkpt>
      <trkpt lat="43.7659" lon="6.26514">
        <ele>1144.8</ele>
        <time>2021-09-07T12:47:39.000Z</time>
      </trkpt>
      <trkpt lat="43.76597" lon="6.2651">
        <ele>1144.7</ele>
        <time>2021-09-07T12:47:39.000Z</time>
      </trkpt>
      <trkpt lat="43.76594" lon="6.26514">
        <ele>1144.7</ele>
        <time>2021-09-07T12:47:40.000Z</time>
      </trkpt>
      <trkpt lat="43.76588" lon="6.26513">
        <ele>1145</ele>
        <time>2021-09-07T12:47:42.000Z</time>
      </trkpt>
      <trkpt lat="43.76582" lon="6.26517">
        <ele>1145.3</ele>
        <time>2021-09-07T12:47:42.000Z</time>
      </trkpt>
      <trkpt lat="43.7658" lon="6.26518">
        <ele>1145.6</ele>
        <time>2021-09-07T12:47:43.000Z</time>
      </trkpt>
      <trkpt lat="43.76579" lon="6.2652">
        <ele>1145.8</ele>
        <time>2021-09-07T12:47:44.000Z</time>
      </trkpt>
      <trkpt lat="43.76581" lon="6.26518">
        <ele>1145.5</ele>
        <time>2021-09-07T12:47:45.000Z</time>
      </trkpt>
      <trkpt lat="43.76579" lon="6.26519">
        <ele>1145.7</ele>
        <time>2021-09-07T12:47:46.000Z</time>
      </trkpt>
      <trkpt lat="43.76578" lon="6.26521">
        <ele>1145.7</ele>
        <time>2021-09-07T12:47:47.000Z</time>
      </trkpt>
      <trkpt lat="43.7657" lon="6.26523">
        <ele>1146.9</ele>
        <time>2021-09-07T12:47:49.000Z</time>
      </trkpt>
      <trkpt lat="43.76567" lon="6.26525">
        <ele>1147.1</ele>
        <time>2021-09-07T12:47:51.000Z</time>
      </trkpt>
      <trkpt lat="43.76568" lon="6.26523">
        <ele>1146.9</ele>
        <time>2021-09-07T12:47:52.000Z</time>
      </trkpt>
      <trkpt lat="43.76564" lon="6.26528">
        <ele>1147.3</ele>
        <time>2021-09-07T12:47:53.000Z</time>
      </trkpt>
      <trkpt lat="43.76566" lon="6.26527">
        <ele>1147.2</ele>
        <time>2021-09-07T12:47:54.000Z</time>
      </trkpt>
      <trkpt lat="43.7656" lon="6.26528">
        <ele>1147.7</ele>
        <time>2021-09-07T12:47:55.000Z</time>
      </trkpt>
      <trkpt lat="43.76558" lon="6.26529">
        <ele>1147.7</ele>
        <time>2021-09-07T12:47:56.000Z</time>
      </trkpt>
      <trkpt lat="43.76563" lon="6.26528">
        <ele>1147.3</ele>
        <time>2021-09-07T12:47:56.000Z</time>
      </trkpt>
      <trkpt lat="43.76559" lon="6.26528">
        <ele>1147.6</ele>
        <time>2021-09-07T12:47:58.000Z</time>
      </trkpt>
      <trkpt lat="43.76557" lon="6.26529">
        <ele>1147.6</ele>
        <time>2021-09-07T12:47:59.000Z</time>
      </trkpt>
      <trkpt lat="43.76552" lon="6.2653">
        <ele>1147.6</ele>
        <time>2021-09-07T12:47:59.000Z</time>
      </trkpt>
      <trkpt lat="43.7655" lon="6.26531">
        <ele>1147.9</ele>
        <time>2021-09-07T12:48:00.000Z</time>
      </trkpt>
      <trkpt lat="43.76547" lon="6.26533">
        <ele>1148.4</ele>
        <time>2021-09-07T12:48:02.000Z</time>
      </trkpt>
      <trkpt lat="43.76551" lon="6.2653">
        <ele>1147.6</ele>
        <time>2021-09-07T12:48:02.000Z</time>
      </trkpt>
      <trkpt lat="43.76549" lon="6.26532">
        <ele>1147.9</ele>
        <time>2021-09-07T12:48:03.000Z</time>
      </trkpt>
      <trkpt lat="43.76546" lon="6.26532">
        <ele>1148.7</ele>
        <time>2021-09-07T12:48:03.000Z</time>
      </trkpt>
      <trkpt lat="43.76543" lon="6.26533">
        <ele>1149</ele>
        <time>2021-09-07T12:48:05.000Z</time>
      </trkpt>
      <trkpt lat="43.76541" lon="6.26533">
        <ele>1149.2</ele>
        <time>2021-09-07T12:48:06.000Z</time>
      </trkpt>
      <trkpt lat="43.76537" lon="6.26536">
        <ele>1149.4</ele>
        <time>2021-09-07T12:48:11.000Z</time>
      </trkpt>
      <trkpt lat="43.76534" lon="6.26538">
        <ele>1150.1</ele>
        <time>2021-09-07T12:48:11.000Z</time>
      </trkpt>
      <trkpt lat="43.76533" lon="6.26539">
        <ele>1150</ele>
        <time>2021-09-07T12:48:12.000Z</time>
      </trkpt>
      <trkpt lat="43.76529" lon="6.26541">
        <ele>1150.5</ele>
        <time>2021-09-07T12:48:15.000Z</time>
      </trkpt>
      <trkpt lat="43.76528" lon="6.26543">
        <ele>1150.7</ele>
        <time>2021-09-07T12:48:17.000Z</time>
      </trkpt>
      <trkpt lat="43.76529" lon="6.26542">
        <ele>1150.5</ele>
        <time>2021-09-07T12:48:18.000Z</time>
      </trkpt>
      <trkpt lat="43.76526" lon="6.26544">
        <ele>1151.2</ele>
        <time>2021-09-07T12:48:19.000Z</time>
      </trkpt>
      <trkpt lat="43.76524" lon="6.26545">
        <ele>1151.4</ele>
        <time>2021-09-07T12:48:20.000Z</time>
      </trkpt>
      <trkpt lat="43.76527" lon="6.26544">
        <ele>1150.8</ele>
        <time>2021-09-07T12:48:20.000Z</time>
      </trkpt>
      <trkpt lat="43.76521" lon="6.26548">
        <ele>1151.7</ele>
        <time>2021-09-07T12:48:22.000Z</time>
      </trkpt>
      <trkpt lat="43.76525" lon="6.26545">
        <ele>1151.4</ele>
        <time>2021-09-07T12:48:22.000Z</time>
      </trkpt>
      <trkpt lat="43.76523" lon="6.26546">
        <ele>1151.4</ele>
        <time>2021-09-07T12:48:23.000Z</time>
      </trkpt>
      <trkpt lat="43.7652" lon="6.26549">
        <ele>1151.7</ele>
        <time>2021-09-07T12:48:23.000Z</time>
      </trkpt>
      <trkpt lat="43.76517" lon="6.26552">
        <ele>1152.3</ele>
        <time>2021-09-07T12:48:25.000Z</time>
      </trkpt>
      <trkpt lat="43.76516" lon="6.26553">
        <ele>1152.3</ele>
        <time>2021-09-07T12:48:28.000Z</time>
      </trkpt>
      <trkpt lat="43.76512" lon="6.26555">
        <ele>1152.9</ele>
        <time>2021-09-07T12:48:29.000Z</time>
      </trkpt>
      <trkpt lat="43.76511" lon="6.26554">
        <ele>1152.9</ele>
        <time>2021-09-07T12:48:30.000Z</time>
      </trkpt>
      <trkpt lat="43.76509" lon="6.26555">
        <ele>1152.9</ele>
        <time>2021-09-07T12:48:31.000Z</time>
      </trkpt>
      <trkpt lat="43.76511" lon="6.26554">
        <ele>1152.9</ele>
        <time>2021-09-07T12:48:32.000Z</time>
      </trkpt>
      <trkpt lat="43.76508" lon="6.26558">
        <ele>1153.2</ele>
        <time>2021-09-07T12:48:33.000Z</time>
      </trkpt>
      <trkpt lat="43.7651" lon="6.26555">
        <ele>1152.8</ele>
        <time>2021-09-07T12:48:33.000Z</time>
      </trkpt>
      <trkpt lat="43.76509" lon="6.26557">
        <ele>1153</ele>
        <time>2021-09-07T12:48:34.000Z</time>
      </trkpt>
      <trkpt lat="43.76507" lon="6.26559">
        <ele>1153.3</ele>
        <time>2021-09-07T12:48:34.000Z</time>
      </trkpt>
      <trkpt lat="43.76505" lon="6.26559">
        <ele>1153.3</ele>
        <time>2021-09-07T12:48:39.000Z</time>
      </trkpt>
      <trkpt lat="43.76504" lon="6.26559">
        <ele>1153.4</ele>
        <time>2021-09-07T12:48:44.000Z</time>
      </trkpt>
      <trkpt lat="43.76504" lon="6.26559">
        <ele>1153.5</ele>
        <time>2021-09-07T12:48:49.000Z</time>
      </trkpt>
      <trkpt lat="43.76505" lon="6.26558">
        <ele>1153.6</ele>
        <time>2021-09-07T12:48:53.000Z</time>
      </trkpt>
      <trkpt lat="43.76506" lon="6.26559">
        <ele>1153.7</ele>
        <time>2021-09-07T12:48:58.000Z</time>
      </trkpt>
      <trkpt lat="43.76506" lon="6.26559">
        <ele>1153.9</ele>
        <time>2021-09-07T12:49:03.000Z</time>
      </trkpt>
      <trkpt lat="43.76506" lon="6.2656">
        <ele>1154</ele>
        <time>2021-09-07T12:49:05.000Z</time>
      </trkpt>
      <trkpt lat="43.76506" lon="6.2656">
        <ele>1154</ele>
        <time>2021-09-07T12:49:08.000Z</time>
      </trkpt>
      <trkpt lat="43.76505" lon="6.2656">
        <ele>1154.1</ele>
        <time>2021-09-07T12:49:09.000Z</time>
      </trkpt>
      <trkpt lat="43.76505" lon="6.26561">
        <ele>1154.2</ele>
        <time>2021-09-07T12:49:10.000Z</time>
      </trkpt>
      <trkpt lat="43.76505" lon="6.26562">
        <ele>1154.2</ele>
        <time>2021-09-07T12:49:11.000Z</time>
      </trkpt>
      <trkpt lat="43.76503" lon="6.26564">
        <ele>1154.6</ele>
        <time>2021-09-07T12:49:14.000Z</time>
      </trkpt>
      <trkpt lat="43.76502" lon="6.26565">
        <ele>1154.6</ele>
        <time>2021-09-07T12:49:15.000Z</time>
      </trkpt>
      <trkpt lat="43.76504" lon="6.26564">
        <ele>1154.5</ele>
        <time>2021-09-07T12:49:16.000Z</time>
      </trkpt>
      <trkpt lat="43.765" lon="6.26568">
        <ele>1154.9</ele>
        <time>2021-09-07T12:49:17.000Z</time>
      </trkpt>
      <trkpt lat="43.76502" lon="6.26565">
        <ele>1154.7</ele>
        <time>2021-09-07T12:49:17.000Z</time>
      </trkpt>
      <trkpt lat="43.76501" lon="6.26566">
        <ele>1154.6</ele>
        <time>2021-09-07T12:49:18.000Z</time>
      </trkpt>
      <trkpt lat="43.76498" lon="6.26571">
        <ele>1155.1</ele>
        <time>2021-09-07T12:49:19.000Z</time>
      </trkpt>
      <trkpt lat="43.76499" lon="6.26569">
        <ele>1154.9</ele>
        <time>2021-09-07T12:49:20.000Z</time>
      </trkpt>
      <trkpt lat="43.76497" lon="6.26573">
        <ele>1155.2</ele>
        <time>2021-09-07T12:49:20.000Z</time>
      </trkpt>
      <trkpt lat="43.76496" lon="6.26575">
        <ele>1155.4</ele>
        <time>2021-09-07T12:49:21.000Z</time>
      </trkpt>
      <trkpt lat="43.76495" lon="6.26576">
        <ele>1155.5</ele>
        <time>2021-09-07T12:49:24.000Z</time>
      </trkpt>
      <trkpt lat="43.76493" lon="6.2658">
        <ele>1155.6</ele>
        <time>2021-09-07T12:49:24.000Z</time>
      </trkpt>
      <trkpt lat="43.76493" lon="6.26581">
        <ele>1155.8</ele>
        <time>2021-09-07T12:49:25.000Z</time>
      </trkpt>
      <trkpt lat="43.76491" lon="6.26585">
        <ele>1156.1</ele>
        <time>2021-09-07T12:49:30.000Z</time>
      </trkpt>
      <trkpt lat="43.76489" lon="6.2659">
        <ele>1156.6</ele>
        <time>2021-09-07T12:49:31.000Z</time>
      </trkpt>
      <trkpt lat="43.7649" lon="6.26586">
        <ele>1156.4</ele>
        <time>2021-09-07T12:49:31.000Z</time>
      </trkpt>
      <trkpt lat="43.76489" lon="6.26588">
        <ele>1156.5</ele>
        <time>2021-09-07T12:49:32.000Z</time>
      </trkpt>
      <trkpt lat="43.76488" lon="6.2659">
        <ele>1156.6</ele>
        <time>2021-09-07T12:49:34.000Z</time>
      </trkpt>
      <trkpt lat="43.76487" lon="6.26595">
        <ele>1157.1</ele>
        <time>2021-09-07T12:49:34.000Z</time>
      </trkpt>
      <trkpt lat="43.76486" lon="6.26596">
        <ele>1157.2</ele>
        <time>2021-09-07T12:49:35.000Z</time>
      </trkpt>
      <trkpt lat="43.76485" lon="6.26598">
        <ele>1157.5</ele>
        <time>2021-09-07T12:49:36.000Z</time>
      </trkpt>
      <trkpt lat="43.76486" lon="6.26595">
        <ele>1157.1</ele>
        <time>2021-09-07T12:49:37.000Z</time>
      </trkpt>
      <trkpt lat="43.76486" lon="6.26597">
        <ele>1157.3</ele>
        <time>2021-09-07T12:49:38.000Z</time>
      </trkpt>
      <trkpt lat="43.76485" lon="6.26599">
        <ele>1157.6</ele>
        <time>2021-09-07T12:49:39.000Z</time>
      </trkpt>
      <trkpt lat="43.76483" lon="6.26606">
        <ele>1157.6</ele>
        <time>2021-09-07T12:49:42.000Z</time>
      </trkpt>
      <trkpt lat="43.76483" lon="6.26608">
        <ele>1157.6</ele>
        <time>2021-09-07T12:49:43.000Z</time>
      </trkpt>
      <trkpt lat="43.76482" lon="6.26609">
        <ele>1157.8</ele>
        <time>2021-09-07T12:49:44.000Z</time>
      </trkpt>
      <trkpt lat="43.76483" lon="6.26607">
        <ele>1157.6</ele>
        <time>2021-09-07T12:49:45.000Z</time>
      </trkpt>
      <trkpt lat="43.76482" lon="6.26608">
        <ele>1157.7</ele>
        <time>2021-09-07T12:49:46.000Z</time>
      </trkpt>
      <trkpt lat="43.76482" lon="6.2661">
        <ele>1157.7</ele>
        <time>2021-09-07T12:49:47.000Z</time>
      </trkpt>
      <trkpt lat="43.7648" lon="6.26613">
        <ele>1158.4</ele>
        <time>2021-09-07T12:49:47.000Z</time>
      </trkpt>
      <trkpt lat="43.7648" lon="6.26613">
        <ele>1158.3</ele>
        <time>2021-09-07T12:49:50.000Z</time>
      </trkpt>
      <trkpt lat="43.76475" lon="6.26621">
        <ele>1159</ele>
        <time>2021-09-07T12:49:53.000Z</time>
      </trkpt>
      <trkpt lat="43.76476" lon="6.2662">
        <ele>1158.8</ele>
        <time>2021-09-07T12:49:55.000Z</time>
      </trkpt>
      <trkpt lat="43.76474" lon="6.26622">
        <ele>1159.2</ele>
        <time>2021-09-07T12:49:56.000Z</time>
      </trkpt>
      <trkpt lat="43.7647" lon="6.26625">
        <ele>1159.9</ele>
        <time>2021-09-07T12:49:57.000Z</time>
      </trkpt>
      <trkpt lat="43.76469" lon="6.26627">
        <ele>1159.6</ele>
        <time>2021-09-07T12:49:58.000Z</time>
      </trkpt>
      <trkpt lat="43.76468" lon="6.26629">
        <ele>1160</ele>
        <time>2021-09-07T12:49:59.000Z</time>
      </trkpt>
      <trkpt lat="43.76467" lon="6.2663">
        <ele>1160.2</ele>
        <time>2021-09-07T12:50:00.000Z</time>
      </trkpt>
      <trkpt lat="43.7647" lon="6.26626">
        <ele>1159.8</ele>
        <time>2021-09-07T12:50:00.000Z</time>
      </trkpt>
      <trkpt lat="43.76469" lon="6.26628">
        <ele>1159.8</ele>
        <time>2021-09-07T12:50:01.000Z</time>
      </trkpt>
      <trkpt lat="43.76465" lon="6.26634">
        <ele>1160.4</ele>
        <time>2021-09-07T12:50:02.000Z</time>
      </trkpt>
      <trkpt lat="43.76463" lon="6.26638">
        <ele>1160.8</ele>
        <time>2021-09-07T12:50:04.000Z</time>
      </trkpt>
      <trkpt lat="43.76464" lon="6.26635">
        <ele>1160.4</ele>
        <time>2021-09-07T12:50:05.000Z</time>
      </trkpt>
      <trkpt lat="43.76462" lon="6.26641">
        <ele>1160.8</ele>
        <time>2021-09-07T12:50:06.000Z</time>
      </trkpt>
      <trkpt lat="43.76463" lon="6.26639">
        <ele>1160.8</ele>
        <time>2021-09-07T12:50:07.000Z</time>
      </trkpt>
      <trkpt lat="43.76462" lon="6.26642">
        <ele>1160.7</ele>
        <time>2021-09-07T12:50:07.000Z</time>
      </trkpt>
      <trkpt lat="43.76462" lon="6.26642">
        <ele>1160.7</ele>
        <time>2021-09-07T12:50:12.000Z</time>
      </trkpt>
      <trkpt lat="43.76462" lon="6.26642">
        <ele>1160.8</ele>
        <time>2021-09-07T12:50:15.000Z</time>
      </trkpt>
      <trkpt lat="43.76462" lon="6.26642">
        <ele>1161</ele>
        <time>2021-09-07T12:50:20.000Z</time>
      </trkpt>
      <trkpt lat="43.76462" lon="6.26642">
        <ele>1160.9</ele>
        <time>2021-09-07T12:50:21.000Z</time>
      </trkpt>
      <trkpt lat="43.76462" lon="6.26642">
        <ele>1161</ele>
        <time>2021-09-07T12:50:22.000Z</time>
      </trkpt>
      <trkpt lat="43.76462" lon="6.26645">
        <ele>1161</ele>
        <time>2021-09-07T12:50:22.000Z</time>
      </trkpt>
      <trkpt lat="43.7646" lon="6.26649">
        <ele>1161.5</ele>
        <time>2021-09-07T12:50:24.000Z</time>
      </trkpt>
      <trkpt lat="43.76461" lon="6.26646">
        <ele>1161.3</ele>
        <time>2021-09-07T12:50:25.000Z</time>
      </trkpt>
      <trkpt lat="43.76459" lon="6.26654">
        <ele>1162</ele>
        <time>2021-09-07T12:50:26.000Z</time>
      </trkpt>
      <trkpt lat="43.7646" lon="6.2665">
        <ele>1161.6</ele>
        <time>2021-09-07T12:50:27.000Z</time>
      </trkpt>
      <trkpt lat="43.76458" lon="6.26656">
        <ele>1162.2</ele>
        <time>2021-09-07T12:50:29.000Z</time>
      </trkpt>
      <trkpt lat="43.76456" lon="6.26661">
        <ele>1162.7</ele>
        <time>2021-09-07T12:50:29.000Z</time>
      </trkpt>
      <trkpt lat="43.76456" lon="6.26661">
        <ele>1162.7</ele>
        <time>2021-09-07T12:50:29.000Z</time>
      </trkpt>
      <trkpt lat="43.76455" lon="6.26664">
        <ele>1162.9</ele>
        <time>2021-09-07T12:50:30.000Z</time>
      </trkpt>
      <trkpt lat="43.76455" lon="6.26666">
        <ele>1163.1</ele>
        <time>2021-09-07T12:50:31.000Z</time>
      </trkpt>
      <trkpt lat="43.76454" lon="6.26668">
        <ele>1163.2</ele>
        <time>2021-09-07T12:50:32.000Z</time>
      </trkpt>
      <trkpt lat="43.76455" lon="6.26663">
        <ele>1162.8</ele>
        <time>2021-09-07T12:50:32.000Z</time>
      </trkpt>
      <trkpt lat="43.76455" lon="6.26665">
        <ele>1163</ele>
        <time>2021-09-07T12:50:33.000Z</time>
      </trkpt>
      <trkpt lat="43.76453" lon="6.26673">
        <ele>1163.6</ele>
        <time>2021-09-07T12:50:34.000Z</time>
      </trkpt>
      <trkpt lat="43.76453" lon="6.26676">
        <ele>1163.4</ele>
        <time>2021-09-07T12:50:35.000Z</time>
      </trkpt>
      <trkpt lat="43.76453" lon="6.2668">
        <ele>1163.8</ele>
        <time>2021-09-07T12:50:37.000Z</time>
      </trkpt>
      <trkpt lat="43.76453" lon="6.26674">
        <ele>1163.5</ele>
        <time>2021-09-07T12:50:37.000Z</time>
      </trkpt>
      <trkpt lat="43.76453" lon="6.26678">
        <ele>1163.5</ele>
        <time>2021-09-07T12:50:38.000Z</time>
      </trkpt>
      <trkpt lat="43.76452" lon="6.26685">
        <ele>1164.2</ele>
        <time>2021-09-07T12:50:39.000Z</time>
      </trkpt>
      <trkpt lat="43.76453" lon="6.26682">
        <ele>1163.9</ele>
        <time>2021-09-07T12:50:40.000Z</time>
      </trkpt>
      <trkpt lat="43.76452" lon="6.26686">
        <ele>1164.2</ele>
        <time>2021-09-07T12:50:42.000Z</time>
      </trkpt>
      <trkpt lat="43.76451" lon="6.26693">
        <ele>1164.4</ele>
        <time>2021-09-07T12:50:42.000Z</time>
      </trkpt>
      <trkpt lat="43.76451" lon="6.26695">
        <ele>1164.4</ele>
        <time>2021-09-07T12:50:43.000Z</time>
      </trkpt>
      <trkpt lat="43.76451" lon="6.26694">
        <ele>1164.3</ele>
        <time>2021-09-07T12:50:45.000Z</time>
      </trkpt>
      <trkpt lat="43.76451" lon="6.26696">
        <ele>1164.6</ele>
        <time>2021-09-07T12:50:46.000Z</time>
      </trkpt>
      <trkpt lat="43.76452" lon="6.26704">
        <ele>1165.3</ele>
        <time>2021-09-07T12:50:47.000Z</time>
      </trkpt>
      <trkpt lat="43.76452" lon="6.26709">
        <ele>1165.4</ele>
        <time>2021-09-07T12:50:49.000Z</time>
      </trkpt>
      <trkpt lat="43.76452" lon="6.26705">
        <ele>1165.3</ele>
        <time>2021-09-07T12:50:50.000Z</time>
      </trkpt>
      <trkpt lat="43.76452" lon="6.26711">
        <ele>1165.8</ele>
        <time>2021-09-07T12:50:52.000Z</time>
      </trkpt>
      <trkpt lat="43.76449" lon="6.26727">
        <ele>1166.6</ele>
        <time>2021-09-07T12:50:56.000Z</time>
      </trkpt>
      <trkpt lat="43.7645" lon="6.26723">
        <ele>1166.4</ele>
        <time>2021-09-07T12:50:57.000Z</time>
      </trkpt>
      <trkpt lat="43.76448" lon="6.2673">
        <ele>1166.9</ele>
        <time>2021-09-07T12:50:57.000Z</time>
      </trkpt>
      <trkpt lat="43.76446" lon="6.26739">
        <ele>1167.7</ele>
        <time>2021-09-07T12:51:00.000Z</time>
      </trkpt>
      <trkpt lat="43.76445" lon="6.26742">
        <ele>1167.6</ele>
        <time>2021-09-07T12:51:01.000Z</time>
      </trkpt>
      <trkpt lat="43.76446" lon="6.26738">
        <ele>1167.5</ele>
        <time>2021-09-07T12:51:02.000Z</time>
      </trkpt>
      <trkpt lat="43.76446" lon="6.26741">
        <ele>1167.7</ele>
        <time>2021-09-07T12:51:03.000Z</time>
      </trkpt>
      <trkpt lat="43.76445" lon="6.26745">
        <ele>1167.9</ele>
        <time>2021-09-07T12:51:04.000Z</time>
      </trkpt>
      <trkpt lat="43.76443" lon="6.2675">
        <ele>1168.1</ele>
        <time>2021-09-07T12:51:04.000Z</time>
      </trkpt>
      <trkpt lat="43.76443" lon="6.26752">
        <ele>1168.3</ele>
        <time>2021-09-07T12:51:05.000Z</time>
      </trkpt>
      <trkpt lat="43.76441" lon="6.26754">
        <ele>1168.6</ele>
        <time>2021-09-07T12:51:06.000Z</time>
      </trkpt>
      <trkpt lat="43.76443" lon="6.26752">
        <ele>1168.1</ele>
        <time>2021-09-07T12:51:07.000Z</time>
      </trkpt>
      <trkpt lat="43.76439" lon="6.26756">
        <ele>1169</ele>
        <time>2021-09-07T12:51:08.000Z</time>
      </trkpt>
      <trkpt lat="43.76442" lon="6.26753">
        <ele>1168.4</ele>
        <time>2021-09-07T12:51:08.000Z</time>
      </trkpt>
      <trkpt lat="43.7644" lon="6.26755">
        <ele>1168.6</ele>
        <time>2021-09-07T12:51:09.000Z</time>
      </trkpt>
      <trkpt lat="43.76438" lon="6.26757">
        <ele>1169.1</ele>
        <time>2021-09-07T12:51:09.000Z</time>
      </trkpt>
      <trkpt lat="43.76434" lon="6.26759">
        <ele>1169</ele>
        <time>2021-09-07T12:51:11.000Z</time>
      </trkpt>
      <trkpt lat="43.76433" lon="6.2676">
        <ele>1169.1</ele>
        <time>2021-09-07T12:51:12.000Z</time>
      </trkpt>
      <trkpt lat="43.76427" lon="6.2676">
        <ele>1169.9</ele>
        <time>2021-09-07T12:51:15.000Z</time>
      </trkpt>
      <trkpt lat="43.76423" lon="6.26762">
        <ele>1169.7</ele>
        <time>2021-09-07T12:51:17.000Z</time>
      </trkpt>
      <trkpt lat="43.76428" lon="6.2676">
        <ele>1169.7</ele>
        <time>2021-09-07T12:51:17.000Z</time>
      </trkpt>
      <trkpt lat="43.76427" lon="6.26761">
        <ele>1169.9</ele>
        <time>2021-09-07T12:51:18.000Z</time>
      </trkpt>
      <trkpt lat="43.76418" lon="6.26765">
        <ele>1170.3</ele>
        <time>2021-09-07T12:51:19.000Z</time>
      </trkpt>
      <trkpt lat="43.76421" lon="6.26763">
        <ele>1170.2</ele>
        <time>2021-09-07T12:51:20.000Z</time>
      </trkpt>
      <trkpt lat="43.76416" lon="6.26765">
        <ele>1170.5</ele>
        <time>2021-09-07T12:51:22.000Z</time>
      </trkpt>
      <trkpt lat="43.76412" lon="6.26768">
        <ele>1170.7</ele>
        <time>2021-09-07T12:51:22.000Z</time>
      </trkpt>
      <trkpt lat="43.76411" lon="6.2677">
        <ele>1170.9</ele>
        <time>2021-09-07T12:51:23.000Z</time>
      </trkpt>
      <trkpt lat="43.76409" lon="6.26771">
        <ele>1171.2</ele>
        <time>2021-09-07T12:51:24.000Z</time>
      </trkpt>
      <trkpt lat="43.76405" lon="6.26776">
        <ele>1171.4</ele>
        <time>2021-09-07T12:51:26.000Z</time>
      </trkpt>
      <trkpt lat="43.76407" lon="6.26774">
        <ele>1171.5</ele>
        <time>2021-09-07T12:51:27.000Z</time>
      </trkpt>
      <trkpt lat="43.76404" lon="6.26777">
        <ele>1171.7</ele>
        <time>2021-09-07T12:51:27.000Z</time>
      </trkpt>
      <trkpt lat="43.76402" lon="6.26781">
        <ele>1171.9</ele>
        <time>2021-09-07T12:51:29.000Z</time>
      </trkpt>
      <trkpt lat="43.76401" lon="6.26782">
        <ele>1172.1</ele>
        <time>2021-09-07T12:51:30.000Z</time>
      </trkpt>
      <trkpt lat="43.764" lon="6.26784">
        <ele>1172.1</ele>
        <time>2021-09-07T12:51:31.000Z</time>
      </trkpt>
      <trkpt lat="43.76398" lon="6.26785">
        <ele>1172.2</ele>
        <time>2021-09-07T12:51:32.000Z</time>
      </trkpt>
      <trkpt lat="43.76397" lon="6.26788">
        <ele>1172.6</ele>
        <time>2021-09-07T12:51:34.000Z</time>
      </trkpt>
      <trkpt lat="43.76399" lon="6.26784">
        <ele>1172.1</ele>
        <time>2021-09-07T12:51:34.000Z</time>
      </trkpt>
      <trkpt lat="43.76396" lon="6.2679">
        <ele>1172.8</ele>
        <time>2021-09-07T12:51:35.000Z</time>
      </trkpt>
      <trkpt lat="43.76397" lon="6.26786">
        <ele>1172.2</ele>
        <time>2021-09-07T12:51:35.000Z</time>
      </trkpt>
      <trkpt lat="43.76395" lon="6.26791">
        <ele>1173</ele>
        <time>2021-09-07T12:51:36.000Z</time>
      </trkpt>
      <trkpt lat="43.76397" lon="6.26789">
        <ele>1172.7</ele>
        <time>2021-09-07T12:51:37.000Z</time>
      </trkpt>
      <trkpt lat="43.76395" lon="6.26793">
        <ele>1173</ele>
        <time>2021-09-07T12:51:37.000Z</time>
      </trkpt>
      <trkpt lat="43.76393" lon="6.26795">
        <ele>1173</ele>
        <time>2021-09-07T12:51:38.000Z</time>
      </trkpt>
      <trkpt lat="43.76392" lon="6.26797">
        <ele>1173</ele>
        <time>2021-09-07T12:51:39.000Z</time>
      </trkpt>
      <trkpt lat="43.76394" lon="6.26794">
        <ele>1173</ele>
        <time>2021-09-07T12:51:40.000Z</time>
      </trkpt>
      <trkpt lat="43.76389" lon="6.26807">
        <ele>1173.4</ele>
        <time>2021-09-07T12:51:43.000Z</time>
      </trkpt>
      <trkpt lat="43.76389" lon="6.26805">
        <ele>1173.4</ele>
        <time>2021-09-07T12:51:45.000Z</time>
      </trkpt>
      <trkpt lat="43.76389" lon="6.26809">
        <ele>1173.4</ele>
        <time>2021-09-07T12:51:46.000Z</time>
      </trkpt>
      <trkpt lat="43.76387" lon="6.26815">
        <ele>1174.3</ele>
        <time>2021-09-07T12:51:47.000Z</time>
      </trkpt>
      <trkpt lat="43.76387" lon="6.26817">
        <ele>1174.3</ele>
        <time>2021-09-07T12:51:48.000Z</time>
      </trkpt>
      <trkpt lat="43.76387" lon="6.26817">
        <ele>1174.2</ele>
        <time>2021-09-07T12:51:50.000Z</time>
      </trkpt>
      <trkpt lat="43.76387" lon="6.26819">
        <ele>1174.2</ele>
        <time>2021-09-07T12:51:51.000Z</time>
      </trkpt>
      <trkpt lat="43.76389" lon="6.26826">
        <ele>1174.8</ele>
        <time>2021-09-07T12:51:53.000Z</time>
      </trkpt>
      <trkpt lat="43.76387" lon="6.26829">
        <ele>1174.9</ele>
        <time>2021-09-07T12:51:55.000Z</time>
      </trkpt>
      <trkpt lat="43.76389" lon="6.26827">
        <ele>1174.9</ele>
        <time>2021-09-07T12:51:56.000Z</time>
      </trkpt>
      <trkpt lat="43.76387" lon="6.26829">
        <ele>1175.1</ele>
        <time>2021-09-07T12:51:58.000Z</time>
      </trkpt>
      <trkpt lat="43.76384" lon="6.26833">
        <ele>1175.5</ele>
        <time>2021-09-07T12:51:58.000Z</time>
      </trkpt>
      <trkpt lat="43.76382" lon="6.26835">
        <ele>1175.8</ele>
        <time>2021-09-07T12:51:59.000Z</time>
      </trkpt>
      <trkpt lat="43.76383" lon="6.26834">
        <ele>1175.7</ele>
        <time>2021-09-07T12:52:01.000Z</time>
      </trkpt>
      <trkpt lat="43.76381" lon="6.26836">
        <ele>1175.9</ele>
        <time>2021-09-07T12:52:02.000Z</time>
      </trkpt>
      <trkpt lat="43.76375" lon="6.26843">
        <ele>1176.7</ele>
        <time>2021-09-07T12:52:03.000Z</time>
      </trkpt>
      <trkpt lat="43.76374" lon="6.26845">
        <ele>1176.8</ele>
        <time>2021-09-07T12:52:04.000Z</time>
      </trkpt>
      <trkpt lat="43.76373" lon="6.26847">
        <ele>1176.7</ele>
        <time>2021-09-07T12:52:05.000Z</time>
      </trkpt>
      <trkpt lat="43.76374" lon="6.26845">
        <ele>1176.8</ele>
        <time>2021-09-07T12:52:06.000Z</time>
      </trkpt>
      <trkpt lat="43.76371" lon="6.26852">
        <ele>1176.9</ele>
        <time>2021-09-07T12:52:07.000Z</time>
      </trkpt>
      <trkpt lat="43.76371" lon="6.26853">
        <ele>1176.9</ele>
        <time>2021-09-07T12:52:08.000Z</time>
      </trkpt>
      <trkpt lat="43.7637" lon="6.26855">
        <ele>1176.7</ele>
        <time>2021-09-07T12:52:09.000Z</time>
      </trkpt>
      <trkpt lat="43.7637" lon="6.26857">
        <ele>1176.8</ele>
        <time>2021-09-07T12:52:10.000Z</time>
      </trkpt>
      <trkpt lat="43.76371" lon="6.26853">
        <ele>1176.8</ele>
        <time>2021-09-07T12:52:10.000Z</time>
      </trkpt>
      <trkpt lat="43.7637" lon="6.26859">
        <ele>1176.8</ele>
        <time>2021-09-07T12:52:11.000Z</time>
      </trkpt>
      <trkpt lat="43.76371" lon="6.26855">
        <ele>1176.8</ele>
        <time>2021-09-07T12:52:11.000Z</time>
      </trkpt>
      <trkpt lat="43.7637" lon="6.26857">
        <ele>1176.8</ele>
        <time>2021-09-07T12:52:12.000Z</time>
      </trkpt>
      <trkpt lat="43.76369" lon="6.26858">
        <ele>1177.2</ele>
        <time>2021-09-07T12:52:17.000Z</time>
      </trkpt>
      <trkpt lat="43.76369" lon="6.26858">
        <ele>1177</ele>
        <time>2021-09-07T12:52:19.000Z</time>
      </trkpt>
      <trkpt lat="43.76369" lon="6.26857">
        <ele>1177.1</ele>
        <time>2021-09-07T12:52:20.000Z</time>
      </trkpt>
      <trkpt lat="43.76368" lon="6.26856">
        <ele>1177.1</ele>
        <time>2021-09-07T12:52:25.000Z</time>
      </trkpt>
      <trkpt lat="43.76367" lon="6.26856">
        <ele>1176.9</ele>
        <time>2021-09-07T12:52:30.000Z</time>
      </trkpt>
      <trkpt lat="43.76367" lon="6.26855">
        <ele>1177.1</ele>
        <time>2021-09-07T12:52:31.000Z</time>
      </trkpt>
      <trkpt lat="43.76366" lon="6.26853">
        <ele>1177</ele>
        <time>2021-09-07T12:52:35.000Z</time>
      </trkpt>
      <trkpt lat="43.76366" lon="6.26854">
        <ele>1177.1</ele>
        <time>2021-09-07T12:52:36.000Z</time>
      </trkpt>
      <trkpt lat="43.76364" lon="6.26853">
        <ele>1177</ele>
        <time>2021-09-07T12:52:38.000Z</time>
      </trkpt>
      <trkpt lat="43.76364" lon="6.26852">
        <ele>1176.9</ele>
        <time>2021-09-07T12:52:39.000Z</time>
      </trkpt>
      <trkpt lat="43.76362" lon="6.26852">
        <ele>1176.9</ele>
        <time>2021-09-07T12:52:44.000Z</time>
      </trkpt>
      <trkpt lat="43.76362" lon="6.26852">
        <ele>1176.8</ele>
        <time>2021-09-07T12:52:47.000Z</time>
      </trkpt>
      <trkpt lat="43.76362" lon="6.26852">
        <ele>1176.9</ele>
        <time>2021-09-07T12:52:48.000Z</time>
      </trkpt>
      <trkpt lat="43.76361" lon="6.26852">
        <ele>1176.7</ele>
        <time>2021-09-07T12:52:50.000Z</time>
      </trkpt>
      <trkpt lat="43.76361" lon="6.26853">
        <ele>1176.8</ele>
        <time>2021-09-07T12:52:53.000Z</time>
      </trkpt>
      <trkpt lat="43.76362" lon="6.26853">
        <ele>1176.8</ele>
        <time>2021-09-07T12:52:54.000Z</time>
      </trkpt>
      <trkpt lat="43.76362" lon="6.26854">
        <ele>1176.6</ele>
        <time>2021-09-07T12:52:56.000Z</time>
      </trkpt>
      <trkpt lat="43.76363" lon="6.26854">
        <ele>1176.7</ele>
        <time>2021-09-07T12:53:00.000Z</time>
      </trkpt>
      <trkpt lat="43.76363" lon="6.26854">
        <ele>1176.6</ele>
        <time>2021-09-07T12:53:05.000Z</time>
      </trkpt>
      <trkpt lat="43.76364" lon="6.26853">
        <ele>1177</ele>
        <time>2021-09-07T12:53:07.000Z</time>
      </trkpt>
      <trkpt lat="43.76363" lon="6.26853">
        <ele>1177.1</ele>
        <time>2021-09-07T12:53:08.000Z</time>
      </trkpt>
      <trkpt lat="43.76364" lon="6.26853">
        <ele>1176.9</ele>
        <time>2021-09-07T12:53:13.000Z</time>
      </trkpt>
      <trkpt lat="43.76364" lon="6.26852">
        <ele>1176.8</ele>
        <time>2021-09-07T12:53:18.000Z</time>
      </trkpt>
      <trkpt lat="43.76364" lon="6.26852">
        <ele>1176.8</ele>
        <time>2021-09-07T12:53:23.000Z</time>
      </trkpt>
      <trkpt lat="43.76364" lon="6.26852">
        <ele>1177.1</ele>
        <time>2021-09-07T12:53:28.000Z</time>
      </trkpt>
      <trkpt lat="43.76364" lon="6.26852">
        <ele>1177.2</ele>
        <time>2021-09-07T12:53:33.000Z</time>
      </trkpt>
      <trkpt lat="43.76364" lon="6.26852">
        <ele>1177.1</ele>
        <time>2021-09-07T12:53:38.000Z</time>
      </trkpt>
      <trkpt lat="43.76364" lon="6.26852">
        <ele>1177.2</ele>
        <time>2021-09-07T12:53:43.000Z</time>
      </trkpt>
      <trkpt lat="43.76364" lon="6.26852">
        <ele>1177.3</ele>
        <time>2021-09-07T12:53:48.000Z</time>
      </trkpt>
      <trkpt lat="43.76364" lon="6.26852">
        <ele>1177.3</ele>
        <time>2021-09-07T12:53:53.000Z</time>
      </trkpt>
      <trkpt lat="43.76364" lon="6.26852">
        <ele>1177.1</ele>
        <time>2021-09-07T12:53:58.000Z</time>
      </trkpt>
      <trkpt lat="43.76364" lon="6.26851">
        <ele>1177.1</ele>
        <time>2021-09-07T12:54:03.000Z</time>
      </trkpt>
      <trkpt lat="43.76364" lon="6.26851">
        <ele>1177.4</ele>
        <time>2021-09-07T12:54:08.000Z</time>
      </trkpt>
      <trkpt lat="43.76364" lon="6.26851">
        <ele>1177.3</ele>
        <time>2021-09-07T12:54:13.000Z</time>
      </trkpt>
      <trkpt lat="43.76364" lon="6.26851">
        <ele>1176.8</ele>
        <time>2021-09-07T12:54:15.000Z</time>
      </trkpt>
      <trkpt lat="43.76364" lon="6.26851">
        <ele>1176.5</ele>
        <time>2021-09-07T12:54:16.000Z</time>
      </trkpt>
      <trkpt lat="43.76365" lon="6.26851">
        <ele>1176.5</ele>
        <time>2021-09-07T12:54:17.000Z</time>
      </trkpt>
      <trkpt lat="43.76368" lon="6.26852">
        <ele>1176.4</ele>
        <time>2021-09-07T12:54:22.000Z</time>
      </trkpt>
      <trkpt lat="43.76369" lon="6.26852">
        <ele>1176.3</ele>
        <time>2021-09-07T12:54:27.000Z</time>
      </trkpt>
      <trkpt lat="43.76369" lon="6.26852">
        <ele>1176.2</ele>
        <time>2021-09-07T12:54:28.000Z</time>
      </trkpt>
      <trkpt lat="43.76369" lon="6.26853">
        <ele>1176.8</ele>
        <time>2021-09-07T12:54:30.000Z</time>
      </trkpt>
      <trkpt lat="43.76371" lon="6.26854">
        <ele>1177.3</ele>
        <time>2021-09-07T12:54:35.000Z</time>
      </trkpt>
      <trkpt lat="43.76371" lon="6.26854">
        <ele>1177.3</ele>
        <time>2021-09-07T12:54:38.000Z</time>
      </trkpt>
      <trkpt lat="43.76371" lon="6.26855">
        <ele>1177.3</ele>
        <time>2021-09-07T12:54:39.000Z</time>
      </trkpt>
      <trkpt lat="43.76373" lon="6.26858">
        <ele>1177.4</ele>
        <time>2021-09-07T12:54:40.000Z</time>
      </trkpt>
      <trkpt lat="43.76374" lon="6.2686">
        <ele>1177.5</ele>
        <time>2021-09-07T12:54:42.000Z</time>
      </trkpt>
      <trkpt lat="43.76374" lon="6.26859">
        <ele>1177.4</ele>
        <time>2021-09-07T12:54:43.000Z</time>
      </trkpt>
      <trkpt lat="43.76373" lon="6.26862">
        <ele>1177.6</ele>
        <time>2021-09-07T12:54:45.000Z</time>
      </trkpt>
      <trkpt lat="43.76372" lon="6.26865">
        <ele>1177.8</ele>
        <time>2021-09-07T12:54:45.000Z</time>
      </trkpt>
      <trkpt lat="43.76371" lon="6.26866">
        <ele>1177.9</ele>
        <time>2021-09-07T12:54:46.000Z</time>
      </trkpt>
      <trkpt lat="43.76371" lon="6.26867">
        <ele>1178</ele>
        <time>2021-09-07T12:54:47.000Z</time>
      </trkpt>
      <trkpt lat="43.76372" lon="6.26865">
        <ele>1177.9</ele>
        <time>2021-09-07T12:54:48.000Z</time>
      </trkpt>
      <trkpt lat="43.76371" lon="6.26866">
        <ele>1177.9</ele>
        <time>2021-09-07T12:54:49.000Z</time>
      </trkpt>
      <trkpt lat="43.76371" lon="6.26868">
        <ele>1178</ele>
        <time>2021-09-07T12:54:50.000Z</time>
      </trkpt>
      <trkpt lat="43.76372" lon="6.26871">
        <ele>1178.1</ele>
        <time>2021-09-07T12:54:50.000Z</time>
      </trkpt>
      <trkpt lat="43.76375" lon="6.26875">
        <ele>1178.4</ele>
        <time>2021-09-07T12:54:52.000Z</time>
      </trkpt>
      <trkpt lat="43.76373" lon="6.26872">
        <ele>1178.2</ele>
        <time>2021-09-07T12:54:53.000Z</time>
      </trkpt>
      <trkpt lat="43.76376" lon="6.26876">
        <ele>1178.3</ele>
        <time>2021-09-07T12:54:55.000Z</time>
      </trkpt>
      <trkpt lat="43.76382" lon="6.26883">
        <ele>1178.5</ele>
        <time>2021-09-07T12:54:56.000Z</time>
      </trkpt>
      <trkpt lat="43.76384" lon="6.26885">
        <ele>1178.7</ele>
        <time>2021-09-07T12:54:58.000Z</time>
      </trkpt>
      <trkpt lat="43.76386" lon="6.26887">
        <ele>1178.9</ele>
        <time>2021-09-07T12:54:59.000Z</time>
      </trkpt>
      <trkpt lat="43.76383" lon="6.26884">
        <ele>1178.6</ele>
        <time>2021-09-07T12:54:59.000Z</time>
      </trkpt>
      <trkpt lat="43.76385" lon="6.26886">
        <ele>1178.7</ele>
        <time>2021-09-07T12:55:01.000Z</time>
      </trkpt>
      <trkpt lat="43.76387" lon="6.26888">
        <ele>1179</ele>
        <time>2021-09-07T12:55:02.000Z</time>
      </trkpt>
      <trkpt lat="43.76391" lon="6.26891">
        <ele>1179.2</ele>
        <time>2021-09-07T12:55:02.000Z</time>
      </trkpt>
      <trkpt lat="43.76392" lon="6.26892">
        <ele>1179.2</ele>
        <time>2021-09-07T12:55:05.000Z</time>
      </trkpt>
      <trkpt lat="43.76397" lon="6.26895">
        <ele>1179.4</ele>
        <time>2021-09-07T12:55:06.000Z</time>
      </trkpt>
      <trkpt lat="43.76398" lon="6.26896">
        <ele>1179.5</ele>
        <time>2021-09-07T12:55:07.000Z</time>
      </trkpt>
      <trkpt lat="43.76402" lon="6.269">
        <ele>1180.1</ele>
        <time>2021-09-07T12:55:11.000Z</time>
      </trkpt>
      <trkpt lat="43.764" lon="6.26898">
        <ele>1179.8</ele>
        <time>2021-09-07T12:55:12.000Z</time>
      </trkpt>
      <trkpt lat="43.76403" lon="6.269">
        <ele>1180.2</ele>
        <time>2021-09-07T12:55:14.000Z</time>
      </trkpt>
      <trkpt lat="43.76405" lon="6.26904">
        <ele>1180.7</ele>
        <time>2021-09-07T12:55:15.000Z</time>
      </trkpt>
      <trkpt lat="43.76407" lon="6.26907">
        <ele>1180.4</ele>
        <time>2021-09-07T12:55:17.000Z</time>
      </trkpt>
      <trkpt lat="43.76407" lon="6.26908">
        <ele>1180.9</ele>
        <time>2021-09-07T12:55:18.000Z</time>
      </trkpt>
      <trkpt lat="43.76406" lon="6.26905">
        <ele>1180.5</ele>
        <time>2021-09-07T12:55:18.000Z</time>
      </trkpt>
      <trkpt lat="43.76407" lon="6.26908">
        <ele>1180.8</ele>
        <time>2021-09-07T12:55:20.000Z</time>
      </trkpt>
      <trkpt lat="43.76408" lon="6.26909">
        <ele>1181.1</ele>
        <time>2021-09-07T12:55:21.000Z</time>
      </trkpt>
      <trkpt lat="43.7641" lon="6.26914">
        <ele>1181.3</ele>
        <time>2021-09-07T12:55:22.000Z</time>
      </trkpt>
      <trkpt lat="43.76411" lon="6.26916">
        <ele>1181.6</ele>
        <time>2021-09-07T12:55:24.000Z</time>
      </trkpt>
      <trkpt lat="43.76411" lon="6.26917">
        <ele>1181.5</ele>
        <time>2021-09-07T12:55:25.000Z</time>
      </trkpt>
      <trkpt lat="43.7641" lon="6.26915">
        <ele>1181.3</ele>
        <time>2021-09-07T12:55:25.000Z</time>
      </trkpt>
      <trkpt lat="43.76411" lon="6.26919">
        <ele>1181.7</ele>
        <time>2021-09-07T12:55:26.000Z</time>
      </trkpt>
      <trkpt lat="43.76412" lon="6.2692">
        <ele>1181.9</ele>
        <time>2021-09-07T12:55:27.000Z</time>
      </trkpt>
      <trkpt lat="43.76411" lon="6.26917">
        <ele>1181.4</ele>
        <time>2021-09-07T12:55:27.000Z</time>
      </trkpt>
      <trkpt lat="43.76411" lon="6.26918">
        <ele>1181.6</ele>
        <time>2021-09-07T12:55:28.000Z</time>
      </trkpt>
      <trkpt lat="43.76412" lon="6.26923">
        <ele>1181.7</ele>
        <time>2021-09-07T12:55:29.000Z</time>
      </trkpt>
      <trkpt lat="43.76412" lon="6.2692">
        <ele>1181.8</ele>
        <time>2021-09-07T12:55:29.000Z</time>
      </trkpt>
      <trkpt lat="43.76411" lon="6.26924">
        <ele>1182.2</ele>
        <time>2021-09-07T12:55:30.000Z</time>
      </trkpt>
      <trkpt lat="43.76412" lon="6.26921">
        <ele>1181.9</ele>
        <time>2021-09-07T12:55:30.000Z</time>
      </trkpt>
      <trkpt lat="43.76411" lon="6.26926">
        <ele>1182.5</ele>
        <time>2021-09-07T12:55:31.000Z</time>
      </trkpt>
      <trkpt lat="43.76412" lon="6.26923">
        <ele>1181.9</ele>
        <time>2021-09-07T12:55:32.000Z</time>
      </trkpt>
      <trkpt lat="43.7641" lon="6.26929">
        <ele>1182.4</ele>
        <time>2021-09-07T12:55:33.000Z</time>
      </trkpt>
      <trkpt lat="43.76411" lon="6.26925">
        <ele>1182.3</ele>
        <time>2021-09-07T12:55:33.000Z</time>
      </trkpt>
      <trkpt lat="43.76411" lon="6.26927">
        <ele>1182.5</ele>
        <time>2021-09-07T12:55:34.000Z</time>
      </trkpt>
      <trkpt lat="43.7641" lon="6.2693">
        <ele>1182.4</ele>
        <time>2021-09-07T12:55:36.000Z</time>
      </trkpt>
      <trkpt lat="43.76409" lon="6.26933">
        <ele>1182.7</ele>
        <time>2021-09-07T12:55:36.000Z</time>
      </trkpt>
      <trkpt lat="43.76409" lon="6.26933">
        <ele>1182.7</ele>
        <time>2021-09-07T12:55:36.000Z</time>
      </trkpt>
      <trkpt lat="43.76407" lon="6.26936">
        <ele>1182.9</ele>
        <time>2021-09-07T12:55:38.000Z</time>
      </trkpt>
      <trkpt lat="43.76408" lon="6.26935">
        <ele>1182.9</ele>
        <time>2021-09-07T12:55:39.000Z</time>
      </trkpt>
      <trkpt lat="43.76407" lon="6.26938">
        <ele>1182.9</ele>
        <time>2021-09-07T12:55:40.000Z</time>
      </trkpt>
      <trkpt lat="43.76407" lon="6.26937">
        <ele>1183</ele>
        <time>2021-09-07T12:55:41.000Z</time>
      </trkpt>
      <trkpt lat="43.76407" lon="6.26938">
        <ele>1183</ele>
        <time>2021-09-07T12:55:41.000Z</time>
      </trkpt>
      <trkpt lat="43.76407" lon="6.26938">
        <ele>1182.9</ele>
        <time>2021-09-07T12:55:42.000Z</time>
      </trkpt>
      <trkpt lat="43.76406" lon="6.26938">
        <ele>1183.3</ele>
        <time>2021-09-07T12:55:45.000Z</time>
      </trkpt>
      <trkpt lat="43.76406" lon="6.26941">
        <ele>1183.5</ele>
        <time>2021-09-07T12:55:47.000Z</time>
      </trkpt>
      <trkpt lat="43.76406" lon="6.26943">
        <ele>1183.6</ele>
        <time>2021-09-07T12:55:48.000Z</time>
      </trkpt>
      <trkpt lat="43.76406" lon="6.26945">
        <ele>1183.7</ele>
        <time>2021-09-07T12:55:49.000Z</time>
      </trkpt>
      <trkpt lat="43.76406" lon="6.26943">
        <ele>1183.5</ele>
        <time>2021-09-07T12:55:50.000Z</time>
      </trkpt>
      <trkpt lat="43.76404" lon="6.26952">
        <ele>1184.3</ele>
        <time>2021-09-07T12:55:52.000Z</time>
      </trkpt>
      <trkpt lat="43.76404" lon="6.26954">
        <ele>1184.3</ele>
        <time>2021-09-07T12:55:55.000Z</time>
      </trkpt>
      <trkpt lat="43.76403" lon="6.26959">
        <ele>1185</ele>
        <time>2021-09-07T12:55:55.000Z</time>
      </trkpt>
      <trkpt lat="43.76404" lon="6.26962">
        <ele>1184.6</ele>
        <time>2021-09-07T12:55:57.000Z</time>
      </trkpt>
      <trkpt lat="43.76404" lon="6.2696">
        <ele>1185.1</ele>
        <time>2021-09-07T12:55:58.000Z</time>
      </trkpt>
      <trkpt lat="43.76405" lon="6.26967">
        <ele>1185.3</ele>
        <time>2021-09-07T12:55:59.000Z</time>
      </trkpt>
      <trkpt lat="43.76405" lon="6.26965">
        <ele>1184.8</ele>
        <time>2021-09-07T12:56:00.000Z</time>
      </trkpt>
      <trkpt lat="43.76402" lon="6.26972">
        <ele>1185.3</ele>
        <time>2021-09-07T12:56:01.000Z</time>
      </trkpt>
      <trkpt lat="43.764" lon="6.26972">
        <ele>1185.4</ele>
        <time>2021-09-07T12:56:02.000Z</time>
      </trkpt>
      <trkpt lat="43.76404" lon="6.26968">
        <ele>1185.2</ele>
        <time>2021-09-07T12:56:02.000Z</time>
      </trkpt>
      <trkpt lat="43.76399" lon="6.26976">
        <ele>1185.6</ele>
        <time>2021-09-07T12:56:04.000Z</time>
      </trkpt>
      <trkpt lat="43.76401" lon="6.26972">
        <ele>1185.4</ele>
        <time>2021-09-07T12:56:04.000Z</time>
      </trkpt>
      <trkpt lat="43.76398" lon="6.26979">
        <ele>1185.6</ele>
        <time>2021-09-07T12:56:05.000Z</time>
      </trkpt>
      <trkpt lat="43.76399" lon="6.26973">
        <ele>1185.5</ele>
        <time>2021-09-07T12:56:05.000Z</time>
      </trkpt>
      <trkpt lat="43.76396" lon="6.26983">
        <ele>1185.9</ele>
        <time>2021-09-07T12:56:06.000Z</time>
      </trkpt>
      <trkpt lat="43.76398" lon="6.26978">
        <ele>1185.6</ele>
        <time>2021-09-07T12:56:07.000Z</time>
      </trkpt>
      <trkpt lat="43.76395" lon="6.2699">
        <ele>1186.3</ele>
        <time>2021-09-07T12:56:08.000Z</time>
      </trkpt>
      <trkpt lat="43.76397" lon="6.26981">
        <ele>1185.7</ele>
        <time>2021-09-07T12:56:08.000Z</time>
      </trkpt>
      <trkpt lat="43.76394" lon="6.26993">
        <ele>1186.6</ele>
        <time>2021-09-07T12:56:09.000Z</time>
      </trkpt>
      <trkpt lat="43.76396" lon="6.26985">
        <ele>1186</ele>
        <time>2021-09-07T12:56:09.000Z</time>
      </trkpt>
      <trkpt lat="43.76392" lon="6.26997">
        <ele>1186.5</ele>
        <time>2021-09-07T12:56:10.000Z</time>
      </trkpt>
      <trkpt lat="43.76394" lon="6.26992">
        <ele>1186.5</ele>
        <time>2021-09-07T12:56:11.000Z</time>
      </trkpt>
      <trkpt lat="43.76391" lon="6.27004">
        <ele>1186.8</ele>
        <time>2021-09-07T12:56:12.000Z</time>
      </trkpt>
      <trkpt lat="43.76393" lon="6.26996">
        <ele>1186.6</ele>
        <time>2021-09-07T12:56:12.000Z</time>
      </trkpt>
      <trkpt lat="43.76391" lon="6.27007">
        <ele>1187.1</ele>
        <time>2021-09-07T12:56:13.000Z</time>
      </trkpt>
      <trkpt lat="43.76392" lon="6.26999">
        <ele>1186.5</ele>
        <time>2021-09-07T12:56:13.000Z</time>
      </trkpt>
      <trkpt lat="43.76391" lon="6.27009">
        <ele>1187.1</ele>
        <time>2021-09-07T12:56:14.000Z</time>
      </trkpt>
      <trkpt lat="43.76392" lon="6.27011">
        <ele>1187.2</ele>
        <time>2021-09-07T12:56:15.000Z</time>
      </trkpt>
      <trkpt lat="43.76391" lon="6.27005">
        <ele>1187</ele>
        <time>2021-09-07T12:56:15.000Z</time>
      </trkpt>
      <trkpt lat="43.76391" lon="6.27008">
        <ele>1187.1</ele>
        <time>2021-09-07T12:56:16.000Z</time>
      </trkpt>
      <trkpt lat="43.76393" lon="6.27014">
        <ele>1187.3</ele>
        <time>2021-09-07T12:56:16.000Z</time>
      </trkpt>
      <trkpt lat="43.76393" lon="6.27017">
        <ele>1187.5</ele>
        <time>2021-09-07T12:56:17.000Z</time>
      </trkpt>
      <trkpt lat="43.76394" lon="6.2702">
        <ele>1187.8</ele>
        <time>2021-09-07T12:56:18.000Z</time>
      </trkpt>
      <trkpt lat="43.76394" lon="6.27022">
        <ele>1187.9</ele>
        <time>2021-09-07T12:56:21.000Z</time>
      </trkpt>
      <trkpt lat="43.76399" lon="6.27033">
        <ele>1188.5</ele>
        <time>2021-09-07T12:56:22.000Z</time>
      </trkpt>
      <trkpt lat="43.764" lon="6.27036">
        <ele>1188.7</ele>
        <time>2021-09-07T12:56:23.000Z</time>
      </trkpt>
      <trkpt lat="43.76401" lon="6.27039">
        <ele>1189.1</ele>
        <time>2021-09-07T12:56:24.000Z</time>
      </trkpt>
      <trkpt lat="43.76402" lon="6.27041">
        <ele>1189.2</ele>
        <time>2021-09-07T12:56:27.000Z</time>
      </trkpt>
      <trkpt lat="43.76409" lon="6.27052">
        <ele>1189.8</ele>
        <time>2021-09-07T12:56:29.000Z</time>
      </trkpt>
      <trkpt lat="43.76413" lon="6.27058">
        <ele>1190.1</ele>
        <time>2021-09-07T12:56:31.000Z</time>
      </trkpt>
      <trkpt lat="43.76415" lon="6.2706">
        <ele>1190.9</ele>
        <time>2021-09-07T12:56:32.000Z</time>
      </trkpt>
      <trkpt lat="43.76411" lon="6.27054">
        <ele>1189.9</ele>
        <time>2021-09-07T12:56:32.000Z</time>
      </trkpt>
      <trkpt lat="43.76414" lon="6.27059">
        <ele>1190.5</ele>
        <time>2021-09-07T12:56:34.000Z</time>
      </trkpt>
      <trkpt lat="43.76415" lon="6.27062">
        <ele>1191.1</ele>
        <time>2021-09-07T12:56:35.000Z</time>
      </trkpt>
      <trkpt lat="43.76419" lon="6.27066">
        <ele>1191.5</ele>
        <time>2021-09-07T12:56:36.000Z</time>
      </trkpt>
      <trkpt lat="43.7642" lon="6.27068">
        <ele>1191.6</ele>
        <time>2021-09-07T12:56:39.000Z</time>
      </trkpt>
      <trkpt lat="43.7642" lon="6.27068">
        <ele>1191.6</ele>
        <time>2021-09-07T12:56:39.000Z</time>
      </trkpt>
      <trkpt lat="43.76421" lon="6.27069">
        <ele>1192</ele>
        <time>2021-09-07T12:56:40.000Z</time>
      </trkpt>
      <trkpt lat="43.76426" lon="6.27073">
        <ele>1192.4</ele>
        <time>2021-09-07T12:56:41.000Z</time>
      </trkpt>
      <trkpt lat="43.76423" lon="6.27072">
        <ele>1192.3</ele>
        <time>2021-09-07T12:56:42.000Z</time>
      </trkpt>
      <trkpt lat="43.76427" lon="6.27074">
        <ele>1192.4</ele>
        <time>2021-09-07T12:56:44.000Z</time>
      </trkpt>
      <trkpt lat="43.76432" lon="6.27078">
        <ele>1193.2</ele>
        <time>2021-09-07T12:56:44.000Z</time>
      </trkpt>
      <trkpt lat="43.76435" lon="6.2708">
        <ele>1193.2</ele>
        <time>2021-09-07T12:56:46.000Z</time>
      </trkpt>
      <trkpt lat="43.76437" lon="6.27081">
        <ele>1193.7</ele>
        <time>2021-09-07T12:56:47.000Z</time>
      </trkpt>
      <trkpt lat="43.76433" lon="6.27079">
        <ele>1193.1</ele>
        <time>2021-09-07T12:56:47.000Z</time>
      </trkpt>
      <trkpt lat="43.76441" lon="6.27083">
        <ele>1193.9</ele>
        <time>2021-09-07T12:56:49.000Z</time>
      </trkpt>
      <trkpt lat="43.76436" lon="6.27081">
        <ele>1193.6</ele>
        <time>2021-09-07T12:56:49.000Z</time>
      </trkpt>
      <trkpt lat="43.76439" lon="6.27082">
        <ele>1193.8</ele>
        <time>2021-09-07T12:56:50.000Z</time>
      </trkpt>
      <trkpt lat="43.76446" lon="6.27083">
        <ele>1194.4</ele>
        <time>2021-09-07T12:56:51.000Z</time>
      </trkpt>
      <trkpt lat="43.76448" lon="6.27083">
        <ele>1194.4</ele>
        <time>2021-09-07T12:56:52.000Z</time>
      </trkpt>
      <trkpt lat="43.76442" lon="6.27083">
        <ele>1193.8</ele>
        <time>2021-09-07T12:56:52.000Z</time>
      </trkpt>
      <trkpt lat="43.76453" lon="6.27083">
        <ele>1194.4</ele>
        <time>2021-09-07T12:56:54.000Z</time>
      </trkpt>
      <trkpt lat="43.76447" lon="6.27083">
        <ele>1194.3</ele>
        <time>2021-09-07T12:56:54.000Z</time>
      </trkpt>
      <trkpt lat="43.76455" lon="6.27084">
        <ele>1194.8</ele>
        <time>2021-09-07T12:56:55.000Z</time>
      </trkpt>
      <trkpt lat="43.7645" lon="6.27084">
        <ele>1194.3</ele>
        <time>2021-09-07T12:56:55.000Z</time>
      </trkpt>
      <trkpt lat="43.76457" lon="6.27084">
        <ele>1194.9</ele>
        <time>2021-09-07T12:56:56.000Z</time>
      </trkpt>
      <trkpt lat="43.76458" lon="6.27085">
        <ele>1195</ele>
        <time>2021-09-07T12:56:57.000Z</time>
      </trkpt>
      <trkpt lat="43.76454" lon="6.27083">
        <ele>1194.6</ele>
        <time>2021-09-07T12:56:57.000Z</time>
      </trkpt>
      <trkpt lat="43.76459" lon="6.27085">
        <ele>1195.3</ele>
        <time>2021-09-07T12:56:58.000Z</time>
      </trkpt>
      <trkpt lat="43.76456" lon="6.27084">
        <ele>1194.9</ele>
        <time>2021-09-07T12:56:58.000Z</time>
      </trkpt>
      <trkpt lat="43.76458" lon="6.27085">
        <ele>1194.9</ele>
        <time>2021-09-07T12:56:59.000Z</time>
      </trkpt>
      <trkpt lat="43.7646" lon="6.27086">
        <ele>1195.5</ele>
        <time>2021-09-07T12:56:59.000Z</time>
      </trkpt>
      <trkpt lat="43.76466" lon="6.27086">
        <ele>1195.7</ele>
        <time>2021-09-07T12:57:01.000Z</time>
      </trkpt>
      <trkpt lat="43.76462" lon="6.27085">
        <ele>1195.7</ele>
        <time>2021-09-07T12:57:02.000Z</time>
      </trkpt>
      <trkpt lat="43.7647" lon="6.27088">
        <ele>1196.2</ele>
        <time>2021-09-07T12:57:03.000Z</time>
      </trkpt>
      <trkpt lat="43.76467" lon="6.27086">
        <ele>1195.7</ele>
        <time>2021-09-07T12:57:04.000Z</time>
      </trkpt>
      <trkpt lat="43.76471" lon="6.27089">
        <ele>1196.5</ele>
        <time>2021-09-07T12:57:04.000Z</time>
      </trkpt>
      <trkpt lat="43.76474" lon="6.27092">
        <ele>1196.8</ele>
        <time>2021-09-07T12:57:06.000Z</time>
      </trkpt>
      <trkpt lat="43.76475" lon="6.27093">
        <ele>1197</ele>
        <time>2021-09-07T12:57:09.000Z</time>
      </trkpt>
      <trkpt lat="43.76484" lon="6.27096">
        <ele>1197.6</ele>
        <time>2021-09-07T12:57:11.000Z</time>
      </trkpt>
      <trkpt lat="43.76485" lon="6.27097">
        <ele>1197.7</ele>
        <time>2021-09-07T12:57:14.000Z</time>
      </trkpt>
      <trkpt lat="43.76492" lon="6.271">
        <ele>1198.4</ele>
        <time>2021-09-07T12:57:16.000Z</time>
      </trkpt>
      <trkpt lat="43.76493" lon="6.27101">
        <ele>1198.5</ele>
        <time>2021-09-07T12:57:17.000Z</time>
      </trkpt>
      <trkpt lat="43.76496" lon="6.27101">
        <ele>1199.4</ele>
        <time>2021-09-07T12:57:21.000Z</time>
      </trkpt>
      <trkpt lat="43.76493" lon="6.27101">
        <ele>1199</ele>
        <time>2021-09-07T12:57:21.000Z</time>
      </trkpt>
      <trkpt lat="43.76495" lon="6.27101">
        <ele>1199.3</ele>
        <time>2021-09-07T12:57:22.000Z</time>
      </trkpt>
      <trkpt lat="43.76499" lon="6.27104">
        <ele>1199.8</ele>
        <time>2021-09-07T12:57:23.000Z</time>
      </trkpt>
      <trkpt lat="43.76497" lon="6.27102">
        <ele>1199.6</ele>
        <time>2021-09-07T12:57:24.000Z</time>
      </trkpt>
      <trkpt lat="43.765" lon="6.27106">
        <ele>1199.9</ele>
        <time>2021-09-07T12:57:24.000Z</time>
      </trkpt>
      <trkpt lat="43.76502" lon="6.27108">
        <ele>1200</ele>
        <time>2021-09-07T12:57:25.000Z</time>
      </trkpt>
      <trkpt lat="43.76503" lon="6.2711">
        <ele>1200.2</ele>
        <time>2021-09-07T12:57:26.000Z</time>
      </trkpt>
      <trkpt lat="43.76504" lon="6.27112">
        <ele>1200.4</ele>
        <time>2021-09-07T12:57:27.000Z</time>
      </trkpt>
      <trkpt lat="43.76506" lon="6.27114">
        <ele>1200.6</ele>
        <time>2021-09-07T12:57:28.000Z</time>
      </trkpt>
      <trkpt lat="43.76508" lon="6.27115">
        <ele>1200.2</ele>
        <time>2021-09-07T12:57:29.000Z</time>
      </trkpt>
      <trkpt lat="43.76506" lon="6.27113">
        <ele>1200.6</ele>
        <time>2021-09-07T12:57:30.000Z</time>
      </trkpt>
      <trkpt lat="43.76512" lon="6.27117">
        <ele>1200.7</ele>
        <time>2021-09-07T12:57:31.000Z</time>
      </trkpt>
      <trkpt lat="43.76507" lon="6.27115">
        <ele>1200.3</ele>
        <time>2021-09-07T12:57:31.000Z</time>
      </trkpt>
      <trkpt lat="43.76515" lon="6.27118">
        <ele>1201</ele>
        <time>2021-09-07T12:57:32.000Z</time>
      </trkpt>
      <trkpt lat="43.7651" lon="6.27116">
        <ele>1200.5</ele>
        <time>2021-09-07T12:57:32.000Z</time>
      </trkpt>
      <trkpt lat="43.76519" lon="6.2712">
        <ele>1201.4</ele>
        <time>2021-09-07T12:57:34.000Z</time>
      </trkpt>
      <trkpt lat="43.76514" lon="6.27118">
        <ele>1200.8</ele>
        <time>2021-09-07T12:57:34.000Z</time>
      </trkpt>
      <trkpt lat="43.76516" lon="6.27119">
        <ele>1201</ele>
        <time>2021-09-07T12:57:35.000Z</time>
      </trkpt>
      <trkpt lat="43.7652" lon="6.27121">
        <ele>1201.5</ele>
        <time>2021-09-07T12:57:37.000Z</time>
      </trkpt>
      <trkpt lat="43.76525" lon="6.27126">
        <ele>1201.7</ele>
        <time>2021-09-07T12:57:38.000Z</time>
      </trkpt>
      <trkpt lat="43.76526" lon="6.27129">
        <ele>1202</ele>
        <time>2021-09-07T12:57:39.000Z</time>
      </trkpt>
      <trkpt lat="43.76527" lon="6.27131">
        <ele>1202.3</ele>
        <time>2021-09-07T12:57:40.000Z</time>
      </trkpt>
      <trkpt lat="43.76525" lon="6.27128">
        <ele>1201.9</ele>
        <time>2021-09-07T12:57:41.000Z</time>
      </trkpt>
      <trkpt lat="43.7653" lon="6.27137">
        <ele>1202.7</ele>
        <time>2021-09-07T12:57:42.000Z</time>
      </trkpt>
      <trkpt lat="43.76531" lon="6.27139">
        <ele>1203.1</ele>
        <time>2021-09-07T12:57:43.000Z</time>
      </trkpt>
      <trkpt lat="43.7653" lon="6.27138">
        <ele>1202.9</ele>
        <time>2021-09-07T12:57:45.000Z</time>
      </trkpt>
      <trkpt lat="43.76531" lon="6.27141">
        <ele>1203.2</ele>
        <time>2021-09-07T12:57:46.000Z</time>
      </trkpt>
      <trkpt lat="43.7653" lon="6.27155">
        <ele>1204.2</ele>
        <time>2021-09-07T12:57:48.000Z</time>
      </trkpt>
      <trkpt lat="43.7653" lon="6.27159">
        <ele>1204.2</ele>
        <time>2021-09-07T12:57:49.000Z</time>
      </trkpt>
      <trkpt lat="43.7653" lon="6.27157">
        <ele>1204.1</ele>
        <time>2021-09-07T12:57:51.000Z</time>
      </trkpt>
      <trkpt lat="43.76529" lon="6.27162">
        <ele>1204.6</ele>
        <time>2021-09-07T12:57:52.000Z</time>
      </trkpt>
      <trkpt lat="43.76527" lon="6.27171">
        <ele>1204.9</ele>
        <time>2021-09-07T12:57:53.000Z</time>
      </trkpt>
      <trkpt lat="43.76526" lon="6.27174">
        <ele>1205</ele>
        <time>2021-09-07T12:57:54.000Z</time>
      </trkpt>
      <trkpt lat="43.76525" lon="6.27177">
        <ele>1204.9</ele>
        <time>2021-09-07T12:57:55.000Z</time>
      </trkpt>
      <trkpt lat="43.76526" lon="6.27173">
        <ele>1204.9</ele>
        <time>2021-09-07T12:57:56.000Z</time>
      </trkpt>
      <trkpt lat="43.76526" lon="6.27176">
        <ele>1204.9</ele>
        <time>2021-09-07T12:57:57.000Z</time>
      </trkpt>
      <trkpt lat="43.76525" lon="6.27178">
        <ele>1204.8</ele>
        <time>2021-09-07T12:57:58.000Z</time>
      </trkpt>
      <trkpt lat="43.76522" lon="6.27185">
        <ele>1205</ele>
        <time>2021-09-07T12:57:59.000Z</time>
      </trkpt>
      <trkpt lat="43.76521" lon="6.27187">
        <ele>1205</ele>
        <time>2021-09-07T12:58:00.000Z</time>
      </trkpt>
      <trkpt lat="43.76522" lon="6.27186">
        <ele>1205.1</ele>
        <time>2021-09-07T12:58:02.000Z</time>
      </trkpt>
      <trkpt lat="43.76521" lon="6.27188">
        <ele>1204.7</ele>
        <time>2021-09-07T12:58:03.000Z</time>
      </trkpt>
      <trkpt lat="43.7652" lon="6.27192">
        <ele>1205</ele>
        <time>2021-09-07T12:58:03.000Z</time>
      </trkpt>
      <trkpt lat="43.76519" lon="6.27193">
        <ele>1205</ele>
        <time>2021-09-07T12:58:04.000Z</time>
      </trkpt>
      <trkpt lat="43.76519" lon="6.27191">
        <ele>1204.9</ele>
        <time>2021-09-07T12:58:07.000Z</time>
      </trkpt>
      <trkpt lat="43.76519" lon="6.2719">
        <ele>1205.1</ele>
        <time>2021-09-07T12:58:11.000Z</time>
      </trkpt>
      <trkpt lat="43.7652" lon="6.2719">
        <ele>1205.3</ele>
        <time>2021-09-07T12:58:14.000Z</time>
      </trkpt>
      <trkpt lat="43.7652" lon="6.2719">
        <ele>1205.4</ele>
        <time>2021-09-07T12:58:15.000Z</time>
      </trkpt>
      <trkpt lat="43.7652" lon="6.2719">
        <ele>1205.5</ele>
        <time>2021-09-07T12:58:18.000Z</time>
      </trkpt>
      <trkpt lat="43.7652" lon="6.27191">
        <ele>1205.3</ele>
        <time>2021-09-07T12:58:23.000Z</time>
      </trkpt>
      <trkpt lat="43.76519" lon="6.27192">
        <ele>1205.2</ele>
        <time>2021-09-07T12:58:25.000Z</time>
      </trkpt>
      <trkpt lat="43.76522" lon="6.27199">
        <ele>1205</ele>
        <time>2021-09-07T12:58:25.000Z</time>
      </trkpt>
      <trkpt lat="43.76524" lon="6.27201">
        <ele>1205.2</ele>
        <time>2021-09-07T12:58:28.000Z</time>
      </trkpt>
      <trkpt lat="43.7653" lon="6.27221">
        <ele>1204</ele>
        <time>2021-09-07T12:58:29.000Z</time>
      </trkpt>
      <trkpt lat="43.76533" lon="6.27234">
        <ele>1203.6</ele>
        <time>2021-09-07T12:58:31.000Z</time>
      </trkpt>
      <trkpt lat="43.76531" lon="6.27226">
        <ele>1203.9</ele>
        <time>2021-09-07T12:58:32.000Z</time>
      </trkpt>
      <trkpt lat="43.76534" lon="6.27237">
        <ele>1203.5</ele>
        <time>2021-09-07T12:58:34.000Z</time>
      </trkpt>
      <trkpt lat="43.76541" lon="6.27263">
        <ele>1202.7</ele>
        <time>2021-09-07T12:58:34.000Z</time>
      </trkpt>
      <trkpt lat="43.76544" lon="6.27271">
        <ele>1202.3</ele>
        <time>2021-09-07T12:58:35.000Z</time>
      </trkpt>
      <trkpt lat="43.7656" lon="6.27331">
        <ele>1199.1</ele>
        <time>2021-09-07T12:58:40.000Z</time>
      </trkpt>
      <trkpt lat="43.76595" lon="6.27386">
        <ele>1195.3</ele>
        <time>2021-09-07T12:58:45.000Z</time>
      </trkpt>
      <trkpt lat="43.76642" lon="6.27419">
        <ele>1191.5</ele>
        <time>2021-09-07T12:58:50.000Z</time>
      </trkpt>
      <trkpt lat="43.76692" lon="6.27426">
        <ele>1187.5</ele>
        <time>2021-09-07T12:58:55.000Z</time>
      </trkpt>
      <trkpt lat="43.76738" lon="6.2743">
        <ele>1182</ele>
        <time>2021-09-07T12:59:00.000Z</time>
      </trkpt>
      <trkpt lat="43.7676" lon="6.27431">
        <ele>1179.1</ele>
        <time>2021-09-07T12:59:05.000Z</time>
      </trkpt>
      <trkpt lat="43.76768" lon="6.27433">
        <ele>1178.5</ele>
        <time>2021-09-07T12:59:10.000Z</time>
      </trkpt>
      <trkpt lat="43.76767" lon="6.27434">
        <ele>1178.5</ele>
        <time>2021-09-07T12:59:15.000Z</time>
      </trkpt>
      <trkpt lat="43.76768" lon="6.27433">
        <ele>1178.3</ele>
        <time>2021-09-07T12:59:15.000Z</time>
      </trkpt>
      <trkpt lat="43.76769" lon="6.27433">
        <ele>1178.5</ele>
        <time>2021-09-07T12:59:17.000Z</time>
      </trkpt>
      <trkpt lat="43.76769" lon="6.27433">
        <ele>1178.4</ele>
        <time>2021-09-07T12:59:22.000Z</time>
      </trkpt>
      <trkpt lat="43.76769" lon="6.27433">
        <ele>1178.3</ele>
        <time>2021-09-07T12:59:27.000Z</time>
      </trkpt>
      <trkpt lat="43.76769" lon="6.27433">
        <ele>1178.4</ele>
        <time>2021-09-07T12:59:32.000Z</time>
      </trkpt>
      <trkpt lat="43.76768" lon="6.27433">
        <ele>1178.7</ele>
        <time>2021-09-07T12:59:35.000Z</time>
      </trkpt>
      <trkpt lat="43.76768" lon="6.27433">
        <ele>1178.5</ele>
        <time>2021-09-07T12:59:40.000Z</time>
      </trkpt>
      <trkpt lat="43.76768" lon="6.27433">
        <ele>1178.6</ele>
        <time>2021-09-07T12:59:45.000Z</time>
      </trkpt>
      <trkpt lat="43.76768" lon="6.27433">
        <ele>1178.9</ele>
        <time>2021-09-07T12:59:50.000Z</time>
      </trkpt>
      <trkpt lat="43.76768" lon="6.27433">
        <ele>1178.8</ele>
        <time>2021-09-07T12:59:55.000Z</time>
      </trkpt>
      <trkpt lat="43.76768" lon="6.27433">
        <ele>1178.8</ele>
        <time>2021-09-07T13:00:00.000Z</time>
      </trkpt>
      <trkpt lat="43.76768" lon="6.27433">
        <ele>1178.9</ele>
        <time>2021-09-07T13:00:05.000Z</time>
      </trkpt>
      <trkpt lat="43.76767" lon="6.27435">
        <ele>1178.8</ele>
        <time>2021-09-07T13:00:10.000Z</time>
      </trkpt>
      <trkpt lat="43.76764" lon="6.27452">
        <ele>1178.4</ele>
        <time>2021-09-07T13:00:15.000Z</time>
      </trkpt>
      <trkpt lat="43.7676" lon="6.27467">
        <ele>1177.9</ele>
        <time>2021-09-07T13:00:17.000Z</time>
      </trkpt>
      <trkpt lat="43.76764" lon="6.27451">
        <ele>1178.4</ele>
        <time>2021-09-07T13:00:17.000Z</time>
      </trkpt>
      <trkpt lat="43.76763" lon="6.27454">
        <ele>1178.2</ele>
        <time>2021-09-07T13:00:18.000Z</time>
      </trkpt>
      <trkpt lat="43.76757" lon="6.27477">
        <ele>1177.5</ele>
        <time>2021-09-07T13:00:18.000Z</time>
      </trkpt>
      <trkpt lat="43.76734" lon="6.27519">
        <ele>1176.5</ele>
        <time>2021-09-07T13:00:23.000Z</time>
      </trkpt>
      <trkpt lat="43.76709" lon="6.27571">
        <ele>1172.6</ele>
        <time>2021-09-07T13:00:28.000Z</time>
      </trkpt>
      <trkpt lat="43.7669" lon="6.27638">
        <ele>1168.5</ele>
        <time>2021-09-07T13:00:33.000Z</time>
      </trkpt>
      <trkpt lat="43.76658" lon="6.277">
        <ele>1163.4</ele>
        <time>2021-09-07T13:00:38.000Z</time>
      </trkpt>
      <trkpt lat="43.7661" lon="6.27749">
        <ele>1158.1</ele>
        <time>2021-09-07T13:00:43.000Z</time>
      </trkpt>
      <trkpt lat="43.76559" lon="6.27779">
        <ele>1153.3</ele>
        <time>2021-09-07T13:00:48.000Z</time>
      </trkpt>
      <trkpt lat="43.76541" lon="6.27839">
        <ele>1149.6</ele>
        <time>2021-09-07T13:00:53.000Z</time>
      </trkpt>
      <trkpt lat="43.76513" lon="6.27907">
        <ele>1145.7</ele>
        <time>2021-09-07T13:00:58.000Z</time>
      </trkpt>
      <trkpt lat="43.7647" lon="6.27963">
        <ele>1140.9</ele>
        <time>2021-09-07T13:01:03.000Z</time>
      </trkpt>
      <trkpt lat="43.76432" lon="6.2803">
        <ele>1134.9</ele>
        <time>2021-09-07T13:01:08.000Z</time>
      </trkpt>
      <trkpt lat="43.76391" lon="6.28101">
        <ele>1128.1</ele>
        <time>2021-09-07T13:01:13.000Z</time>
      </trkpt>
      <trkpt lat="43.76339" lon="6.28149">
        <ele>1122</ele>
        <time>2021-09-07T13:01:18.000Z</time>
      </trkpt>
      <trkpt lat="43.76294" lon="6.28163">
        <ele>1116.6</ele>
        <time>2021-09-07T13:01:23.000Z</time>
      </trkpt>
      <trkpt lat="43.7625" lon="6.28215">
        <ele>1111.9</ele>
        <time>2021-09-07T13:01:28.000Z</time>
      </trkpt>
      <trkpt lat="43.762" lon="6.28272">
        <ele>1108.3</ele>
        <time>2021-09-07T13:01:33.000Z</time>
      </trkpt>
      <trkpt lat="43.76142" lon="6.28286">
        <ele>1102.8</ele>
        <time>2021-09-07T13:01:38.000Z</time>
      </trkpt>
      <trkpt lat="43.76118" lon="6.28326">
        <ele>1101.2</ele>
        <time>2021-09-07T13:01:43.000Z</time>
      </trkpt>
      <trkpt lat="43.76114" lon="6.28395">
        <ele>1098.5</ele>
        <time>2021-09-07T13:01:48.000Z</time>
      </trkpt>
      <trkpt lat="43.76098" lon="6.28454">
        <ele>1095.3</ele>
        <time>2021-09-07T13:01:53.000Z</time>
      </trkpt>
      <trkpt lat="43.76071" lon="6.28487">
        <ele>1092.3</ele>
        <time>2021-09-07T13:01:58.000Z</time>
      </trkpt>
      <trkpt lat="43.76033" lon="6.28511">
        <ele>1089</ele>
        <time>2021-09-07T13:02:03.000Z</time>
      </trkpt>
      <trkpt lat="43.76012" lon="6.28562">
        <ele>1085.8</ele>
        <time>2021-09-07T13:02:08.000Z</time>
      </trkpt>
      <trkpt lat="43.75977" lon="6.28624">
        <ele>1082.2</ele>
        <time>2021-09-07T13:02:13.000Z</time>
      </trkpt>
      <trkpt lat="43.75931" lon="6.2867">
        <ele>1078.1</ele>
        <time>2021-09-07T13:02:18.000Z</time>
      </trkpt>
      <trkpt lat="43.75932" lon="6.28732">
        <ele>1074.3</ele>
        <time>2021-09-07T13:02:23.000Z</time>
      </trkpt>
      <trkpt lat="43.75945" lon="6.288">
        <ele>1071.5</ele>
        <time>2021-09-07T13:02:28.000Z</time>
      </trkpt>
      <trkpt lat="43.75925" lon="6.28862">
        <ele>1068</ele>
        <time>2021-09-07T13:02:33.000Z</time>
      </trkpt>
      <trkpt lat="43.75889" lon="6.28908">
        <ele>1065.5</ele>
        <time>2021-09-07T13:02:38.000Z</time>
      </trkpt>
      <trkpt lat="43.75894" lon="6.2897">
        <ele>1062.4</ele>
        <time>2021-09-07T13:02:43.000Z</time>
      </trkpt>
      <trkpt lat="43.75877" lon="6.29026">
        <ele>1060.4</ele>
        <time>2021-09-07T13:02:48.000Z</time>
      </trkpt>
      <trkpt lat="43.75845" lon="6.29071">
        <ele>1058.2</ele>
        <time>2021-09-07T13:02:53.000Z</time>
      </trkpt>
      <trkpt lat="43.75812" lon="6.29116">
        <ele>1056.2</ele>
        <time>2021-09-07T13:02:58.000Z</time>
      </trkpt>
      <trkpt lat="43.75782" lon="6.29155">
        <ele>1055.1</ele>
        <time>2021-09-07T13:03:03.000Z</time>
      </trkpt>
      <trkpt lat="43.75795" lon="6.29208">
        <ele>1052.6</ele>
        <time>2021-09-07T13:03:08.000Z</time>
      </trkpt>
      <trkpt lat="43.75826" lon="6.29254">
        <ele>1050.2</ele>
        <time>2021-09-07T13:03:13.000Z</time>
      </trkpt>
      <trkpt lat="43.7586" lon="6.2928">
        <ele>1046.6</ele>
        <time>2021-09-07T13:03:18.000Z</time>
      </trkpt>
      <trkpt lat="43.75878" lon="6.29311">
        <ele>1043.9</ele>
        <time>2021-09-07T13:03:23.000Z</time>
      </trkpt>
      <trkpt lat="43.75874" lon="6.29358">
        <ele>1040.7</ele>
        <time>2021-09-07T13:03:28.000Z</time>
      </trkpt>
      <trkpt lat="43.7585" lon="6.29406">
        <ele>1037.6</ele>
        <time>2021-09-07T13:03:33.000Z</time>
      </trkpt>
      <trkpt lat="43.75811" lon="6.2945">
        <ele>1033.5</ele>
        <time>2021-09-07T13:03:38.000Z</time>
      </trkpt>
      <trkpt lat="43.75765" lon="6.29486">
        <ele>1029.4</ele>
        <time>2021-09-07T13:03:43.000Z</time>
      </trkpt>
      <trkpt lat="43.75724" lon="6.2949">
        <ele>1026.3</ele>
        <time>2021-09-07T13:03:48.000Z</time>
      </trkpt>
      <trkpt lat="43.75686" lon="6.29535">
        <ele>1023.7</ele>
        <time>2021-09-07T13:03:54.000Z</time>
      </trkpt>
      <trkpt lat="43.7565" lon="6.29601">
        <ele>1019.7</ele>
        <time>2021-09-07T13:03:59.000Z</time>
      </trkpt>
      <trkpt lat="43.75612" lon="6.29671">
        <ele>1016.3</ele>
        <time>2021-09-07T13:04:04.000Z</time>
      </trkpt>
      <trkpt lat="43.75576" lon="6.29722">
        <ele>1011.2</ele>
        <time>2021-09-07T13:04:09.000Z</time>
      </trkpt>
      <trkpt lat="43.75596" lon="6.29776">
        <ele>1007.8</ele>
        <time>2021-09-07T13:04:14.000Z</time>
      </trkpt>
      <trkpt lat="43.75604" lon="6.29845">
        <ele>1004.4</ele>
        <time>2021-09-07T13:04:19.000Z</time>
      </trkpt>
      <trkpt lat="43.75585" lon="6.29912">
        <ele>1000.1</ele>
        <time>2021-09-07T13:04:24.000Z</time>
      </trkpt>
      <trkpt lat="43.75557" lon="6.2997">
        <ele>995.8</ele>
        <time>2021-09-07T13:04:29.000Z</time>
      </trkpt>
      <trkpt lat="43.75523" lon="6.30029">
        <ele>991.9</ele>
        <time>2021-09-07T13:04:34.000Z</time>
      </trkpt>
      <trkpt lat="43.75484" lon="6.30082">
        <ele>987.9</ele>
        <time>2021-09-07T13:04:39.000Z</time>
      </trkpt>
      <trkpt lat="43.75454" lon="6.30151">
        <ele>982.3</ele>
        <time>2021-09-07T13:04:44.000Z</time>
      </trkpt>
      <trkpt lat="43.75418" lon="6.30206">
        <ele>976.5</ele>
        <time>2021-09-07T13:04:49.000Z</time>
      </trkpt>
      <trkpt lat="43.7539" lon="6.30253">
        <ele>974</ele>
        <time>2021-09-07T13:04:54.000Z</time>
      </trkpt>
      <trkpt lat="43.75416" lon="6.30287">
        <ele>971.2</ele>
        <time>2021-09-07T13:04:59.000Z</time>
      </trkpt>
      <trkpt lat="43.7545" lon="6.3026">
        <ele>970.2</ele>
        <time>2021-09-07T13:05:04.000Z</time>
      </trkpt>
      <trkpt lat="43.75481" lon="6.30252">
        <ele>968.7</ele>
        <time>2021-09-07T13:05:09.000Z</time>
      </trkpt>
      <trkpt lat="43.75524" lon="6.30232">
        <ele>967.1</ele>
        <time>2021-09-07T13:05:14.000Z</time>
      </trkpt>
      <trkpt lat="43.75567" lon="6.30186">
        <ele>965.8</ele>
        <time>2021-09-07T13:05:19.000Z</time>
      </trkpt>
      <trkpt lat="43.75586" lon="6.30127">
        <ele>963.4</ele>
        <time>2021-09-07T13:05:24.000Z</time>
      </trkpt>
      <trkpt lat="43.75619" lon="6.3013">
        <ele>960.5</ele>
        <time>2021-09-07T13:05:29.000Z</time>
      </trkpt>
      <trkpt lat="43.7561" lon="6.30173">
        <ele>960.1</ele>
        <time>2021-09-07T13:05:34.000Z</time>
      </trkpt>
      <trkpt lat="43.75598" lon="6.30218">
        <ele>959.4</ele>
        <time>2021-09-07T13:05:39.000Z</time>
      </trkpt>
      <trkpt lat="43.75584" lon="6.30277">
        <ele>956.8</ele>
        <time>2021-09-07T13:05:44.000Z</time>
      </trkpt>
      <trkpt lat="43.75551" lon="6.30325">
        <ele>953</ele>
        <time>2021-09-07T13:05:49.000Z</time>
      </trkpt>
      <trkpt lat="43.75515" lon="6.30373">
        <ele>950.9</ele>
        <time>2021-09-07T13:05:54.000Z</time>
      </trkpt>
      <trkpt lat="43.75498" lon="6.30439">
        <ele>947.3</ele>
        <time>2021-09-07T13:05:59.000Z</time>
      </trkpt>
      <trkpt lat="43.75475" lon="6.30519">
        <ele>944.5</ele>
        <time>2021-09-07T13:06:04.000Z</time>
      </trkpt>
      <trkpt lat="43.75443" lon="6.30582">
        <ele>939.8</ele>
        <time>2021-09-07T13:06:09.000Z</time>
      </trkpt>
      <trkpt lat="43.75429" lon="6.30655">
        <ele>935.9</ele>
        <time>2021-09-07T13:06:14.000Z</time>
      </trkpt>
      <trkpt lat="43.75418" lon="6.30732">
        <ele>930.5</ele>
        <time>2021-09-07T13:06:19.000Z</time>
      </trkpt>
      <trkpt lat="43.754" lon="6.30803">
        <ele>927.2</ele>
        <time>2021-09-07T13:06:24.000Z</time>
      </trkpt>
      <trkpt lat="43.75379" lon="6.30865">
        <ele>923.9</ele>
        <time>2021-09-07T13:06:29.000Z</time>
      </trkpt>
      <trkpt lat="43.75395" lon="6.30945">
        <ele>919.3</ele>
        <time>2021-09-07T13:06:34.000Z</time>
      </trkpt>
      <trkpt lat="43.75398" lon="6.31026">
        <ele>915.2</ele>
        <time>2021-09-07T13:06:39.000Z</time>
      </trkpt>
      <trkpt lat="43.75395" lon="6.31113">
        <ele>912.4</ele>
        <time>2021-09-07T13:06:44.000Z</time>
      </trkpt>
      <trkpt lat="43.75379" lon="6.312">
        <ele>907.6</ele>
        <time>2021-09-07T13:06:49.000Z</time>
      </trkpt>
      <trkpt lat="43.75357" lon="6.31274">
        <ele>905.1</ele>
        <time>2021-09-07T13:06:54.000Z</time>
      </trkpt>
      <trkpt lat="43.75322" lon="6.31301">
        <ele>903.8</ele>
        <time>2021-09-07T13:06:59.000Z</time>
      </trkpt>
      <trkpt lat="43.75286" lon="6.31314">
        <ele>900.1</ele>
        <time>2021-09-07T13:07:04.000Z</time>
      </trkpt>
      <trkpt lat="43.75249" lon="6.31337">
        <ele>895.9</ele>
        <time>2021-09-07T13:07:09.000Z</time>
      </trkpt>
      <trkpt lat="43.75253" lon="6.31352">
        <ele>893.3</ele>
        <time>2021-09-07T13:07:14.000Z</time>
      </trkpt>
      <trkpt lat="43.75267" lon="6.31382">
        <ele>891.3</ele>
        <time>2021-09-07T13:07:19.000Z</time>
      </trkpt>
      <trkpt lat="43.75252" lon="6.31422">
        <ele>889.6</ele>
        <time>2021-09-07T13:07:24.000Z</time>
      </trkpt>
      <trkpt lat="43.75224" lon="6.31459">
        <ele>887.5</ele>
        <time>2021-09-07T13:07:29.000Z</time>
      </trkpt>
      <trkpt lat="43.75193" lon="6.31518">
        <ele>883.7</ele>
        <time>2021-09-07T13:07:34.000Z</time>
      </trkpt>
      <trkpt lat="43.75158" lon="6.31581">
        <ele>878.5</ele>
        <time>2021-09-07T13:07:39.000Z</time>
      </trkpt>
      <trkpt lat="43.75135" lon="6.3164">
        <ele>874.4</ele>
        <time>2021-09-07T13:07:44.000Z</time>
      </trkpt>
      <trkpt lat="43.75131" lon="6.31718">
        <ele>870.3</ele>
        <time>2021-09-07T13:07:49.000Z</time>
      </trkpt>
      <trkpt lat="43.75132" lon="6.31814">
        <ele>865.2</ele>
        <time>2021-09-07T13:07:54.000Z</time>
      </trkpt>
      <trkpt lat="43.75134" lon="6.31912">
        <ele>859.8</ele>
        <time>2021-09-07T13:07:59.000Z</time>
      </trkpt>
      <trkpt lat="43.75128" lon="6.31997">
        <ele>855.4</ele>
        <time>2021-09-07T13:08:04.000Z</time>
      </trkpt>
      <trkpt lat="43.75123" lon="6.32074">
        <ele>851.7</ele>
        <time>2021-09-07T13:08:09.000Z</time>
      </trkpt>
      <trkpt lat="43.751" lon="6.32135">
        <ele>853</ele>
        <time>2021-09-07T13:08:14.000Z</time>
      </trkpt>
      <trkpt lat="43.75062" lon="6.32143">
        <ele>855.5</ele>
        <time>2021-09-07T13:08:19.000Z</time>
      </trkpt>
      <trkpt lat="43.75036" lon="6.32129">
        <ele>853.7</ele>
        <time>2021-09-07T13:08:24.000Z</time>
      </trkpt>
      <trkpt lat="43.75034" lon="6.32128">
        <ele>853.4</ele>
        <time>2021-09-07T13:08:26.000Z</time>
      </trkpt>
      <trkpt lat="43.75035" lon="6.32128">
        <ele>853.3</ele>
        <time>2021-09-07T13:08:28.000Z</time>
      </trkpt>
      <trkpt lat="43.75035" lon="6.32128">
        <ele>853.5</ele>
        <time>2021-09-07T13:08:31.000Z</time>
      </trkpt>
      <trkpt lat="43.75035" lon="6.32128">
        <ele>853.4</ele>
        <time>2021-09-07T13:08:36.000Z</time>
      </trkpt>
      <trkpt lat="43.75035" lon="6.32128">
        <ele>853.4</ele>
        <time>2021-09-07T13:08:41.000Z</time>
      </trkpt>
      <trkpt lat="43.75036" lon="6.3213">
        <ele>853.5</ele>
        <time>2021-09-07T13:08:43.000Z</time>
      </trkpt>
      <trkpt lat="43.75038" lon="6.32136">
        <ele>853.6</ele>
        <time>2021-09-07T13:08:48.000Z</time>
      </trkpt>
      <trkpt lat="43.75039" lon="6.32139">
        <ele>853.8</ele>
        <time>2021-09-07T13:08:53.000Z</time>
      </trkpt>
      <trkpt lat="43.75039" lon="6.32139">
        <ele>853.9</ele>
        <time>2021-09-07T13:08:56.000Z</time>
      </trkpt>
      <trkpt lat="43.7504" lon="6.32141">
        <ele>853.7</ele>
        <time>2021-09-07T13:09:01.000Z</time>
      </trkpt>
      <trkpt lat="43.75033" lon="6.32137">
        <ele>853.3</ele>
        <time>2021-09-07T13:09:06.000Z</time>
      </trkpt>
      <trkpt lat="43.74995" lon="6.3213">
        <ele>850.1</ele>
        <time>2021-09-07T13:09:11.000Z</time>
      </trkpt>
      <trkpt lat="43.74959" lon="6.32162">
        <ele>848.6</ele>
        <time>2021-09-07T13:09:16.000Z</time>
      </trkpt>
      <trkpt lat="43.7495" lon="6.32199">
        <ele>849.7</ele>
        <time>2021-09-07T13:09:21.000Z</time>
      </trkpt>
      <trkpt lat="43.7492" lon="6.32203">
        <ele>850.1</ele>
        <time>2021-09-07T13:09:26.000Z</time>
      </trkpt>
      <trkpt lat="43.74897" lon="6.32197">
        <ele>851.2</ele>
        <time>2021-09-07T13:09:31.000Z</time>
      </trkpt>
      <trkpt lat="43.74877" lon="6.32201">
        <ele>851.7</ele>
        <time>2021-09-07T13:09:36.000Z</time>
      </trkpt>
      <trkpt lat="43.74869" lon="6.32204">
        <ele>852.3</ele>
        <time>2021-09-07T13:09:41.000Z</time>
      </trkpt>
      <trkpt lat="43.74865" lon="6.32206">
        <ele>852.7</ele>
        <time>2021-09-07T13:09:41.000Z</time>
      </trkpt>
      <trkpt lat="43.7486" lon="6.32208">
        <ele>853.2</ele>
        <time>2021-09-07T13:09:42.000Z</time>
      </trkpt>
      <trkpt lat="43.74863" lon="6.32207">
        <ele>852.8</ele>
        <time>2021-09-07T13:09:43.000Z</time>
      </trkpt>
      <trkpt lat="43.74857" lon="6.32209">
        <ele>853.5</ele>
        <time>2021-09-07T13:09:44.000Z</time>
      </trkpt>
      <trkpt lat="43.74843" lon="6.32215">
        <ele>853.7</ele>
        <time>2021-09-07T13:09:46.000Z</time>
      </trkpt>
      <trkpt lat="43.74842" lon="6.32215">
        <ele>853.8</ele>
        <time>2021-09-07T13:09:48.000Z</time>
      </trkpt>
      <trkpt lat="43.74835" lon="6.32219">
        <ele>853.6</ele>
        <time>2021-09-07T13:09:48.000Z</time>
      </trkpt>
      <trkpt lat="43.74832" lon="6.3222">
        <ele>853.8</ele>
        <time>2021-09-07T13:09:50.000Z</time>
      </trkpt>
      <trkpt lat="43.74825" lon="6.32224">
        <ele>854.5</ele>
        <time>2021-09-07T13:09:51.000Z</time>
      </trkpt>
      <trkpt lat="43.74824" lon="6.32225">
        <ele>854.7</ele>
        <time>2021-09-07T13:09:53.000Z</time>
      </trkpt>
      <trkpt lat="43.74816" lon="6.32232">
        <ele>855</ele>
        <time>2021-09-07T13:09:54.000Z</time>
      </trkpt>
      <trkpt lat="43.74814" lon="6.32235">
        <ele>855.2</ele>
        <time>2021-09-07T13:09:55.000Z</time>
      </trkpt>
      <trkpt lat="43.74815" lon="6.32233">
        <ele>855</ele>
        <time>2021-09-07T13:09:56.000Z</time>
      </trkpt>
      <trkpt lat="43.74811" lon="6.32237">
        <ele>855.4</ele>
        <time>2021-09-07T13:09:57.000Z</time>
      </trkpt>
      <trkpt lat="43.74809" lon="6.3224">
        <ele>855.7</ele>
        <time>2021-09-07T13:09:57.000Z</time>
      </trkpt>
      <trkpt lat="43.74807" lon="6.32243">
        <ele>855.6</ele>
        <time>2021-09-07T13:09:59.000Z</time>
      </trkpt>
      <trkpt lat="43.74804" lon="6.32246">
        <ele>856</ele>
        <time>2021-09-07T13:09:59.000Z</time>
      </trkpt>
      <trkpt lat="43.74803" lon="6.32247">
        <ele>856.1</ele>
        <time>2021-09-07T13:10:01.000Z</time>
      </trkpt>
      <trkpt lat="43.74799" lon="6.32252">
        <ele>856.5</ele>
        <time>2021-09-07T13:10:01.000Z</time>
      </trkpt>
      <trkpt lat="43.74797" lon="6.32254">
        <ele>856.8</ele>
        <time>2021-09-07T13:10:03.000Z</time>
      </trkpt>
      <trkpt lat="43.74794" lon="6.32256">
        <ele>856.8</ele>
        <time>2021-09-07T13:10:03.000Z</time>
      </trkpt>
      <trkpt lat="43.74792" lon="6.32257">
        <ele>856.8</ele>
        <time>2021-09-07T13:10:04.000Z</time>
      </trkpt>
      <trkpt lat="43.74789" lon="6.32258">
        <ele>857</ele>
        <time>2021-09-07T13:10:05.000Z</time>
      </trkpt>
      <trkpt lat="43.74793" lon="6.32256">
        <ele>856.8</ele>
        <time>2021-09-07T13:10:05.000Z</time>
      </trkpt>
      <trkpt lat="43.74787" lon="6.32259">
        <ele>857.1</ele>
        <time>2021-09-07T13:10:06.000Z</time>
      </trkpt>
      <trkpt lat="43.7479" lon="6.32258">
        <ele>856.8</ele>
        <time>2021-09-07T13:10:06.000Z</time>
      </trkpt>
      <trkpt lat="43.74788" lon="6.32258">
        <ele>857</ele>
        <time>2021-09-07T13:10:07.000Z</time>
      </trkpt>
      <trkpt lat="43.74786" lon="6.32259">
        <ele>857.3</ele>
        <time>2021-09-07T13:10:08.000Z</time>
      </trkpt>
      <trkpt lat="43.74783" lon="6.32261">
        <ele>857.5</ele>
        <time>2021-09-07T13:10:08.000Z</time>
      </trkpt>
      <trkpt lat="43.74781" lon="6.32263">
        <ele>857.7</ele>
        <time>2021-09-07T13:10:09.000Z</time>
      </trkpt>
      <trkpt lat="43.74782" lon="6.32262">
        <ele>857.7</ele>
        <time>2021-09-07T13:10:10.000Z</time>
      </trkpt>
      <trkpt lat="43.74779" lon="6.32265">
        <ele>857.6</ele>
        <time>2021-09-07T13:10:11.000Z</time>
      </trkpt>
      <trkpt lat="43.74775" lon="6.32269">
        <ele>858</ele>
        <time>2021-09-07T13:10:12.000Z</time>
      </trkpt>
      <trkpt lat="43.74774" lon="6.32271">
        <ele>858.1</ele>
        <time>2021-09-07T13:10:14.000Z</time>
      </trkpt>
      <trkpt lat="43.74772" lon="6.32273">
        <ele>858.4</ele>
        <time>2021-09-07T13:10:14.000Z</time>
      </trkpt>
      <trkpt lat="43.74771" lon="6.32275">
        <ele>858.4</ele>
        <time>2021-09-07T13:10:16.000Z</time>
      </trkpt>
      <trkpt lat="43.74769" lon="6.32277">
        <ele>858.5</ele>
        <time>2021-09-07T13:10:16.000Z</time>
      </trkpt>
      <trkpt lat="43.74767" lon="6.32279">
        <ele>858.7</ele>
        <time>2021-09-07T13:10:17.000Z</time>
      </trkpt>
      <trkpt lat="43.74768" lon="6.32278">
        <ele>858.5</ele>
        <time>2021-09-07T13:10:18.000Z</time>
      </trkpt>
      <trkpt lat="43.74765" lon="6.32281">
        <ele>858.7</ele>
        <time>2021-09-07T13:10:19.000Z</time>
      </trkpt>
      <trkpt lat="43.74763" lon="6.32284">
        <ele>859.2</ele>
        <time>2021-09-07T13:10:19.000Z</time>
      </trkpt>
      <trkpt lat="43.74761" lon="6.32286">
        <ele>859.2</ele>
        <time>2021-09-07T13:10:20.000Z</time>
      </trkpt>
      <trkpt lat="43.74762" lon="6.32285">
        <ele>859.2</ele>
        <time>2021-09-07T13:10:21.000Z</time>
      </trkpt>
      <trkpt lat="43.7476" lon="6.32288">
        <ele>859.3</ele>
        <time>2021-09-07T13:10:21.000Z</time>
      </trkpt>
      <trkpt lat="43.74758" lon="6.3229">
        <ele>859.6</ele>
        <time>2021-09-07T13:10:22.000Z</time>
      </trkpt>
      <trkpt lat="43.74756" lon="6.32292">
        <ele>859.8</ele>
        <time>2021-09-07T13:10:24.000Z</time>
      </trkpt>
      <trkpt lat="43.7475" lon="6.32292">
        <ele>860.3</ele>
        <time>2021-09-07T13:10:26.000Z</time>
      </trkpt>
      <trkpt lat="43.74747" lon="6.3229">
        <ele>860.5</ele>
        <time>2021-09-07T13:10:27.000Z</time>
      </trkpt>
      <trkpt lat="43.74746" lon="6.32289">
        <ele>860.8</ele>
        <time>2021-09-07T13:10:28.000Z</time>
      </trkpt>
      <trkpt lat="43.74749" lon="6.32291">
        <ele>860.3</ele>
        <time>2021-09-07T13:10:28.000Z</time>
      </trkpt>
      <trkpt lat="43.74746" lon="6.32289">
        <ele>860.7</ele>
        <time>2021-09-07T13:10:29.000Z</time>
      </trkpt>
      <trkpt lat="43.74745" lon="6.32288">
        <ele>860.9</ele>
        <time>2021-09-07T13:10:30.000Z</time>
      </trkpt>
      <trkpt lat="43.74743" lon="6.32286">
        <ele>861.6</ele>
        <time>2021-09-07T13:10:30.000Z</time>
      </trkpt>
      <trkpt lat="43.74741" lon="6.32284">
        <ele>861.5</ele>
        <time>2021-09-07T13:10:31.000Z</time>
      </trkpt>
      <trkpt lat="43.74742" lon="6.32286">
        <ele>861.5</ele>
        <time>2021-09-07T13:10:32.000Z</time>
      </trkpt>
      <trkpt lat="43.74739" lon="6.32283">
        <ele>861.9</ele>
        <time>2021-09-07T13:10:33.000Z</time>
      </trkpt>
      <trkpt lat="43.74734" lon="6.32279">
        <ele>862.3</ele>
        <time>2021-09-07T13:10:34.000Z</time>
      </trkpt>
      <trkpt lat="43.74733" lon="6.32278">
        <ele>862.6</ele>
        <time>2021-09-07T13:10:36.000Z</time>
      </trkpt>
      <trkpt lat="43.74729" lon="6.32276">
        <ele>862.7</ele>
        <time>2021-09-07T13:10:37.000Z</time>
      </trkpt>
      <trkpt lat="43.74727" lon="6.32276">
        <ele>862.8</ele>
        <time>2021-09-07T13:10:38.000Z</time>
      </trkpt>
      <trkpt lat="43.74728" lon="6.32276">
        <ele>862.8</ele>
        <time>2021-09-07T13:10:39.000Z</time>
      </trkpt>
      <trkpt lat="43.74727" lon="6.32276">
        <ele>862.8</ele>
        <time>2021-09-07T13:10:40.000Z</time>
      </trkpt>
      <trkpt lat="43.74723" lon="6.32275">
        <ele>863.2</ele>
        <time>2021-09-07T13:10:40.000Z</time>
      </trkpt>
      <trkpt lat="43.74721" lon="6.32275">
        <ele>863.1</ele>
        <time>2021-09-07T13:10:41.000Z</time>
      </trkpt>
      <trkpt lat="43.74719" lon="6.32274">
        <ele>863.6</ele>
        <time>2021-09-07T13:10:42.000Z</time>
      </trkpt>
      <trkpt lat="43.74717" lon="6.32273">
        <ele>863.6</ele>
        <time>2021-09-07T13:10:43.000Z</time>
      </trkpt>
      <trkpt lat="43.74707" lon="6.3227">
        <ele>864.1</ele>
        <time>2021-09-07T13:10:46.000Z</time>
      </trkpt>
      <trkpt lat="43.74705" lon="6.32269">
        <ele>864.2</ele>
        <time>2021-09-07T13:10:47.000Z</time>
      </trkpt>
      <trkpt lat="43.74699" lon="6.32267">
        <ele>864.8</ele>
        <time>2021-09-07T13:10:49.000Z</time>
      </trkpt>
      <trkpt lat="43.74696" lon="6.32266">
        <ele>864.5</ele>
        <time>2021-09-07T13:10:50.000Z</time>
      </trkpt>
      <trkpt lat="43.74697" lon="6.32266">
        <ele>864.6</ele>
        <time>2021-09-07T13:10:51.000Z</time>
      </trkpt>
      <trkpt lat="43.74693" lon="6.32266">
        <ele>864.8</ele>
        <time>2021-09-07T13:10:51.000Z</time>
      </trkpt>
      <trkpt lat="43.74688" lon="6.32267">
        <ele>865.2</ele>
        <time>2021-09-07T13:10:53.000Z</time>
      </trkpt>
      <trkpt lat="43.74686" lon="6.32268">
        <ele>865.2</ele>
        <time>2021-09-07T13:10:55.000Z</time>
      </trkpt>
      <trkpt lat="43.74683" lon="6.32277">
        <ele>865.1</ele>
        <time>2021-09-07T13:10:57.000Z</time>
      </trkpt>
      <trkpt lat="43.74681" lon="6.32281">
        <ele>865.1</ele>
        <time>2021-09-07T13:10:58.000Z</time>
      </trkpt>
      <trkpt lat="43.7468" lon="6.32285">
        <ele>864.9</ele>
        <time>2021-09-07T13:10:59.000Z</time>
      </trkpt>
      <trkpt lat="43.74682" lon="6.3228">
        <ele>865.2</ele>
        <time>2021-09-07T13:10:59.000Z</time>
      </trkpt>
      <trkpt lat="43.74679" lon="6.3229">
        <ele>865</ele>
        <time>2021-09-07T13:11:00.000Z</time>
      </trkpt>
      <trkpt lat="43.7468" lon="6.32284">
        <ele>865</ele>
        <time>2021-09-07T13:11:00.000Z</time>
      </trkpt>
      <trkpt lat="43.74679" lon="6.32289">
        <ele>865</ele>
        <time>2021-09-07T13:11:01.000Z</time>
      </trkpt>
      <trkpt lat="43.74678" lon="6.32295">
        <ele>864.7</ele>
        <time>2021-09-07T13:11:02.000Z</time>
      </trkpt>
      <trkpt lat="43.74675" lon="6.32307">
        <ele>864.2</ele>
        <time>2021-09-07T13:11:02.000Z</time>
      </trkpt>
      <trkpt lat="43.74671" lon="6.32317">
        <ele>864.4</ele>
        <time>2021-09-07T13:11:03.000Z</time>
      </trkpt>
      <trkpt lat="43.74638" lon="6.3234">
        <ele>863.8</ele>
        <time>2021-09-07T13:11:08.000Z</time>
      </trkpt>
      <trkpt lat="43.74603" lon="6.32351">
        <ele>862.6</ele>
        <time>2021-09-07T13:11:13.000Z</time>
      </trkpt>
      <trkpt lat="43.74564" lon="6.32348">
        <ele>862.4</ele>
        <time>2021-09-07T13:11:18.000Z</time>
      </trkpt>
      <trkpt lat="43.74527" lon="6.3234">
        <ele>862.9</ele>
        <time>2021-09-07T13:11:23.000Z</time>
      </trkpt>
      <trkpt lat="43.74496" lon="6.3234">
        <ele>863.8</ele>
        <time>2021-09-07T13:11:28.000Z</time>
      </trkpt>
      <trkpt lat="43.74469" lon="6.32357">
        <ele>864.2</ele>
        <time>2021-09-07T13:11:33.000Z</time>
      </trkpt>
      <trkpt lat="43.74448" lon="6.32394">
        <ele>865</ele>
        <time>2021-09-07T13:11:38.000Z</time>
      </trkpt>
      <trkpt lat="43.74431" lon="6.32432">
        <ele>865.4</ele>
        <time>2021-09-07T13:11:43.000Z</time>
      </trkpt>
      <trkpt lat="43.74434" lon="6.32474">
        <ele>864.8</ele>
        <time>2021-09-07T13:11:48.000Z</time>
      </trkpt>
      <trkpt lat="43.74436" lon="6.32514">
        <ele>864.8</ele>
        <time>2021-09-07T13:11:53.000Z</time>
      </trkpt>
      <trkpt lat="43.7442" lon="6.32552">
        <ele>864.1</ele>
        <time>2021-09-07T13:11:58.000Z</time>
      </trkpt>
      <trkpt lat="43.74402" lon="6.3259">
        <ele>864.2</ele>
        <time>2021-09-07T13:12:03.000Z</time>
      </trkpt>
      <trkpt lat="43.74377" lon="6.32619">
        <ele>864.5</ele>
        <time>2021-09-07T13:12:08.000Z</time>
      </trkpt>
      <trkpt lat="43.74355" lon="6.3267">
        <ele>864</ele>
        <time>2021-09-07T13:12:13.000Z</time>
      </trkpt>
      <trkpt lat="43.7435" lon="6.32723">
        <ele>863.2</ele>
        <time>2021-09-07T13:12:18.000Z</time>
      </trkpt>
      <trkpt lat="43.74365" lon="6.32801">
        <ele>861.6</ele>
        <time>2021-09-07T13:12:23.000Z</time>
      </trkpt>
      <trkpt lat="43.74344" lon="6.32852">
        <ele>860.1</ele>
        <time>2021-09-07T13:12:28.000Z</time>
      </trkpt>
      <trkpt lat="43.74355" lon="6.32918">
        <ele>859.3</ele>
        <time>2021-09-07T13:12:33.000Z</time>
      </trkpt>
      <trkpt lat="43.74362" lon="6.32971">
        <ele>859.5</ele>
        <time>2021-09-07T13:12:38.000Z</time>
      </trkpt>
      <trkpt lat="43.74354" lon="6.33015">
        <ele>860.6</ele>
        <time>2021-09-07T13:12:43.000Z</time>
      </trkpt>
      <trkpt lat="43.74345" lon="6.33035">
        <ele>862.2</ele>
        <time>2021-09-07T13:12:48.000Z</time>
      </trkpt>
      <trkpt lat="43.74342" lon="6.33062">
        <ele>862</ele>
        <time>2021-09-07T13:12:53.000Z</time>
      </trkpt>
      <trkpt lat="43.74332" lon="6.33092">
        <ele>861.4</ele>
        <time>2021-09-07T13:12:58.000Z</time>
      </trkpt>
      <trkpt lat="43.74314" lon="6.33135">
        <ele>860.9</ele>
        <time>2021-09-07T13:13:03.000Z</time>
      </trkpt>
      <trkpt lat="43.74298" lon="6.33184">
        <ele>859.5</ele>
        <time>2021-09-07T13:13:08.000Z</time>
      </trkpt>
      <trkpt lat="43.74278" lon="6.33245">
        <ele>857.3</ele>
        <time>2021-09-07T13:13:13.000Z</time>
      </trkpt>
      <trkpt lat="43.74265" lon="6.33311">
        <ele>855</ele>
        <time>2021-09-07T13:13:18.000Z</time>
      </trkpt>
      <trkpt lat="43.74251" lon="6.33373">
        <ele>852.8</ele>
        <time>2021-09-07T13:13:23.000Z</time>
      </trkpt>
      <trkpt lat="43.74229" lon="6.33443">
        <ele>850.1</ele>
        <time>2021-09-07T13:13:28.000Z</time>
      </trkpt>
      <trkpt lat="43.74206" lon="6.33515">
        <ele>847.2</ele>
        <time>2021-09-07T13:13:33.000Z</time>
      </trkpt>
      <trkpt lat="43.74186" lon="6.33591">
        <ele>844.5</ele>
        <time>2021-09-07T13:13:38.000Z</time>
      </trkpt>
      <trkpt lat="43.74174" lon="6.33669">
        <ele>838.9</ele>
        <time>2021-09-07T13:13:43.000Z</time>
      </trkpt>
      <trkpt lat="43.74152" lon="6.33748">
        <ele>835.3</ele>
        <time>2021-09-07T13:13:48.000Z</time>
      </trkpt>
      <trkpt lat="43.74119" lon="6.33816">
        <ele>832.1</ele>
        <time>2021-09-07T13:13:53.000Z</time>
      </trkpt>
      <trkpt lat="43.74098" lon="6.33896">
        <ele>828.2</ele>
        <time>2021-09-07T13:13:58.000Z</time>
      </trkpt>
      <trkpt lat="43.74128" lon="6.33978">
        <ele>823.9</ele>
        <time>2021-09-07T13:14:03.000Z</time>
      </trkpt>
      <trkpt lat="43.74159" lon="6.34047">
        <ele>821.2</ele>
        <time>2021-09-07T13:14:08.000Z</time>
      </trkpt>
      <trkpt lat="43.74144" lon="6.34091">
        <ele>822.8</ele>
        <time>2021-09-07T13:14:13.000Z</time>
      </trkpt>
      <trkpt lat="43.74117" lon="6.34105">
        <ele>824.6</ele>
        <time>2021-09-07T13:14:18.000Z</time>
      </trkpt>
      <trkpt lat="43.74095" lon="6.34105">
        <ele>825.9</ele>
        <time>2021-09-07T13:14:23.000Z</time>
      </trkpt>
      <trkpt lat="43.74067" lon="6.34101">
        <ele>826.5</ele>
        <time>2021-09-07T13:14:28.000Z</time>
      </trkpt>
      <trkpt lat="43.74038" lon="6.34099">
        <ele>826.6</ele>
        <time>2021-09-07T13:14:33.000Z</time>
      </trkpt>
      <trkpt lat="43.74011" lon="6.34096">
        <ele>826.6</ele>
        <time>2021-09-07T13:14:38.000Z</time>
      </trkpt>
      <trkpt lat="43.73985" lon="6.34089">
        <ele>826.1</ele>
        <time>2021-09-07T13:14:43.000Z</time>
      </trkpt>
      <trkpt lat="43.73949" lon="6.34088">
        <ele>825.5</ele>
        <time>2021-09-07T13:14:48.000Z</time>
      </trkpt>
      <trkpt lat="43.73919" lon="6.34117">
        <ele>825.1</ele>
        <time>2021-09-07T13:14:53.000Z</time>
      </trkpt>
      <trkpt lat="43.73896" lon="6.34165">
        <ele>823</ele>
        <time>2021-09-07T13:14:58.000Z</time>
      </trkpt>
      <trkpt lat="43.73877" lon="6.34228">
        <ele>820.4</ele>
        <time>2021-09-07T13:15:03.000Z</time>
      </trkpt>
      <trkpt lat="43.73859" lon="6.34297">
        <ele>818</ele>
        <time>2021-09-07T13:15:08.000Z</time>
      </trkpt>
      <trkpt lat="43.73828" lon="6.34358">
        <ele>814.8</ele>
        <time>2021-09-07T13:15:13.000Z</time>
      </trkpt>
      <trkpt lat="43.73794" lon="6.34421">
        <ele>811.8</ele>
        <time>2021-09-07T13:15:18.000Z</time>
      </trkpt>
      <trkpt lat="43.73771" lon="6.34484">
        <ele>812.4</ele>
        <time>2021-09-07T13:15:23.000Z</time>
      </trkpt>
      <trkpt lat="43.73744" lon="6.34509">
        <ele>814.8</ele>
        <time>2021-09-07T13:15:28.000Z</time>
      </trkpt>
      <trkpt lat="43.73728" lon="6.3452">
        <ele>816.6</ele>
        <time>2021-09-07T13:15:33.000Z</time>
      </trkpt>
      <trkpt lat="43.73719" lon="6.34532">
        <ele>818</ele>
        <time>2021-09-07T13:15:38.000Z</time>
      </trkpt>
      <trkpt lat="43.73714" lon="6.34542">
        <ele>818.7</ele>
        <time>2021-09-07T13:15:39.000Z</time>
      </trkpt>
      <trkpt lat="43.73712" lon="6.34546">
        <ele>819.1</ele>
        <time>2021-09-07T13:15:40.000Z</time>
      </trkpt>
      <trkpt lat="43.73713" lon="6.34545">
        <ele>819</ele>
        <time>2021-09-07T13:15:41.000Z</time>
      </trkpt>
      <trkpt lat="43.73711" lon="6.3455">
        <ele>819</ele>
        <time>2021-09-07T13:15:42.000Z</time>
      </trkpt>
      <trkpt lat="43.7371" lon="6.34564">
        <ele>819.6</ele>
        <time>2021-09-07T13:15:44.000Z</time>
      </trkpt>
      <trkpt lat="43.7371" lon="6.34568">
        <ele>819.9</ele>
        <time>2021-09-07T13:15:46.000Z</time>
      </trkpt>
      <trkpt lat="43.73711" lon="6.34573">
        <ele>820.2</ele>
        <time>2021-09-07T13:15:46.000Z</time>
      </trkpt>
      <trkpt lat="43.73712" lon="6.34576">
        <ele>820.2</ele>
        <time>2021-09-07T13:15:48.000Z</time>
      </trkpt>
      <trkpt lat="43.73716" lon="6.34584">
        <ele>820.7</ele>
        <time>2021-09-07T13:15:49.000Z</time>
      </trkpt>
      <trkpt lat="43.73718" lon="6.34586">
        <ele>821</ele>
        <time>2021-09-07T13:15:51.000Z</time>
      </trkpt>
      <trkpt lat="43.73719" lon="6.34589">
        <ele>821.5</ele>
        <time>2021-09-07T13:15:51.000Z</time>
      </trkpt>
      <trkpt lat="43.7372" lon="6.3459">
        <ele>821.6</ele>
        <time>2021-09-07T13:15:53.000Z</time>
      </trkpt>
      <trkpt lat="43.73723" lon="6.34596">
        <ele>821.8</ele>
        <time>2021-09-07T13:15:55.000Z</time>
      </trkpt>
      <trkpt lat="43.73724" lon="6.34597">
        <ele>821.8</ele>
        <time>2021-09-07T13:15:57.000Z</time>
      </trkpt>
      <trkpt lat="43.73723" lon="6.34595">
        <ele>821.2</ele>
        <time>2021-09-07T13:16:02.000Z</time>
      </trkpt>
      <trkpt lat="43.73723" lon="6.34596">
        <ele>821.3</ele>
        <time>2021-09-07T13:16:03.000Z</time>
      </trkpt>
      <trkpt lat="43.73723" lon="6.34596">
        <ele>821.3</ele>
        <time>2021-09-07T13:16:04.000Z</time>
      </trkpt>
      <trkpt lat="43.73723" lon="6.34596">
        <ele>821.1</ele>
        <time>2021-09-07T13:16:06.000Z</time>
      </trkpt>
      <trkpt lat="43.73723" lon="6.34596">
        <ele>821.2</ele>
        <time>2021-09-07T13:16:11.000Z</time>
      </trkpt>
      <trkpt lat="43.73723" lon="6.34596">
        <ele>821.2</ele>
        <time>2021-09-07T13:16:16.000Z</time>
      </trkpt>
      <trkpt lat="43.73723" lon="6.34596">
        <ele>821.5</ele>
        <time>2021-09-07T13:16:18.000Z</time>
      </trkpt>
      <trkpt lat="43.73723" lon="6.34596">
        <ele>821.4</ele>
        <time>2021-09-07T13:16:23.000Z</time>
      </trkpt>
      <trkpt lat="43.73723" lon="6.34596">
        <ele>821.2</ele>
        <time>2021-09-07T13:16:28.000Z</time>
      </trkpt>
      <trkpt lat="43.73723" lon="6.34596">
        <ele>820.8</ele>
        <time>2021-09-07T13:16:33.000Z</time>
      </trkpt>
      <trkpt lat="43.73723" lon="6.34596">
        <ele>821.2</ele>
        <time>2021-09-07T13:16:38.000Z</time>
      </trkpt>
      <trkpt lat="43.73723" lon="6.34596">
        <ele>820.9</ele>
        <time>2021-09-07T13:16:42.000Z</time>
      </trkpt>
      <trkpt lat="43.73723" lon="6.34596">
        <ele>820.8</ele>
        <time>2021-09-07T13:16:44.000Z</time>
      </trkpt>
      <trkpt lat="43.73723" lon="6.34597">
        <ele>820.2</ele>
        <time>2021-09-07T13:16:46.000Z</time>
      </trkpt>
      <trkpt lat="43.73723" lon="6.34599">
        <ele>820.1</ele>
        <time>2021-09-07T13:16:52.000Z</time>
      </trkpt>
      <trkpt lat="43.73723" lon="6.346">
        <ele>819.5</ele>
        <time>2021-09-07T13:16:53.000Z</time>
      </trkpt>
      <trkpt lat="43.73723" lon="6.346">
        <ele>819.9</ele>
        <time>2021-09-07T13:16:54.000Z</time>
      </trkpt>
      <trkpt lat="43.73723" lon="6.346">
        <ele>820.7</ele>
        <time>2021-09-07T13:16:55.000Z</time>
      </trkpt>
      <trkpt lat="43.73723" lon="6.346">
        <ele>820.1</ele>
        <time>2021-09-07T13:16:57.000Z</time>
      </trkpt>
      <trkpt lat="43.73722" lon="6.346">
        <ele>821.1</ele>
        <time>2021-09-07T13:17:02.000Z</time>
      </trkpt>
      <trkpt lat="43.73722" lon="6.346">
        <ele>821.4</ele>
        <time>2021-09-07T13:17:04.000Z</time>
      </trkpt>
      <trkpt lat="43.73722" lon="6.346">
        <ele>820.9</ele>
        <time>2021-09-07T13:17:09.000Z</time>
      </trkpt>
      <trkpt lat="43.73722" lon="6.346">
        <ele>820.7</ele>
        <time>2021-09-07T13:17:10.000Z</time>
      </trkpt>
      <trkpt lat="43.73722" lon="6.34599">
        <ele>820.8</ele>
        <time>2021-09-07T13:17:11.000Z</time>
      </trkpt>
      <trkpt lat="43.73722" lon="6.34599">
        <ele>820.5</ele>
        <time>2021-09-07T13:17:13.000Z</time>
      </trkpt>
      <trkpt lat="43.73722" lon="6.34599">
        <ele>820.8</ele>
        <time>2021-09-07T13:17:16.000Z</time>
      </trkpt>
      <trkpt lat="43.73722" lon="6.34598">
        <ele>820.9</ele>
        <time>2021-09-07T13:17:17.000Z</time>
      </trkpt>
      <trkpt lat="43.73721" lon="6.34598">
        <ele>821</ele>
        <time>2021-09-07T13:17:22.000Z</time>
      </trkpt>
      <trkpt lat="43.73721" lon="6.34599">
        <ele>821.3</ele>
        <time>2021-09-07T13:17:27.000Z</time>
      </trkpt>
      <trkpt lat="43.73721" lon="6.34599">
        <ele>821.5</ele>
        <time>2021-09-07T13:17:28.000Z</time>
      </trkpt>
      <trkpt lat="43.73721" lon="6.346">
        <ele>822.3</ele>
        <time>2021-09-07T13:17:29.000Z</time>
      </trkpt>
      <trkpt lat="43.7372" lon="6.34602">
        <ele>822.5</ele>
        <time>2021-09-07T13:17:30.000Z</time>
      </trkpt>
      <trkpt lat="43.73716" lon="6.34617">
        <ele>823</ele>
        <time>2021-09-07T13:17:33.000Z</time>
      </trkpt>
      <trkpt lat="43.73714" lon="6.34621">
        <ele>823</ele>
        <time>2021-09-07T13:17:34.000Z</time>
      </trkpt>
      <trkpt lat="43.73715" lon="6.34619">
        <ele>823</ele>
        <time>2021-09-07T13:17:35.000Z</time>
      </trkpt>
      <trkpt lat="43.73713" lon="6.34623">
        <ele>823.1</ele>
        <time>2021-09-07T13:17:36.000Z</time>
      </trkpt>
      <trkpt lat="43.73708" lon="6.34629">
        <ele>824.1</ele>
        <time>2021-09-07T13:17:37.000Z</time>
      </trkpt>
      <trkpt lat="43.73707" lon="6.34631">
        <ele>824.1</ele>
        <time>2021-09-07T13:17:39.000Z</time>
      </trkpt>
      <trkpt lat="43.73702" lon="6.3464">
        <ele>823.8</ele>
        <time>2021-09-07T13:17:41.000Z</time>
      </trkpt>
      <trkpt lat="43.73701" lon="6.34643">
        <ele>823.9</ele>
        <time>2021-09-07T13:17:42.000Z</time>
      </trkpt>
      <trkpt lat="43.73702" lon="6.34642">
        <ele>823.9</ele>
        <time>2021-09-07T13:17:43.000Z</time>
      </trkpt>
      <trkpt lat="43.737" lon="6.34645">
        <ele>823.8</ele>
        <time>2021-09-07T13:17:44.000Z</time>
      </trkpt>
      <trkpt lat="43.73698" lon="6.34652">
        <ele>824.2</ele>
        <time>2021-09-07T13:17:45.000Z</time>
      </trkpt>
      <trkpt lat="43.73696" lon="6.34654">
        <ele>824.5</ele>
        <time>2021-09-07T13:17:46.000Z</time>
      </trkpt>
      <trkpt lat="43.73695" lon="6.34656">
        <ele>824.5</ele>
        <time>2021-09-07T13:17:47.000Z</time>
      </trkpt>
      <trkpt lat="43.73697" lon="6.34653">
        <ele>824.4</ele>
        <time>2021-09-07T13:17:47.000Z</time>
      </trkpt>
      <trkpt lat="43.73696" lon="6.34656">
        <ele>824.5</ele>
        <time>2021-09-07T13:17:48.000Z</time>
      </trkpt>
      <trkpt lat="43.73694" lon="6.34659">
        <ele>824.5</ele>
        <time>2021-09-07T13:17:48.000Z</time>
      </trkpt>
      <trkpt lat="43.7369" lon="6.34667">
        <ele>824.7</ele>
        <time>2021-09-07T13:17:51.000Z</time>
      </trkpt>
      <trkpt lat="43.73688" lon="6.34671">
        <ele>825</ele>
        <time>2021-09-07T13:17:52.000Z</time>
      </trkpt>
      <trkpt lat="43.73689" lon="6.3467">
        <ele>824.9</ele>
        <time>2021-09-07T13:17:53.000Z</time>
      </trkpt>
      <trkpt lat="43.73688" lon="6.34672">
        <ele>825.1</ele>
        <time>2021-09-07T13:17:54.000Z</time>
      </trkpt>
      <trkpt lat="43.73686" lon="6.34678">
        <ele>825.1</ele>
        <time>2021-09-07T13:17:54.000Z</time>
      </trkpt>
      <trkpt lat="43.73685" lon="6.34681">
        <ele>825.2</ele>
        <time>2021-09-07T13:17:56.000Z</time>
      </trkpt>
      <trkpt lat="43.73685" lon="6.34684">
        <ele>825.3</ele>
        <time>2021-09-07T13:17:56.000Z</time>
      </trkpt>
      <trkpt lat="43.73684" lon="6.34688">
        <ele>825.1</ele>
        <time>2021-09-07T13:17:57.000Z</time>
      </trkpt>
      <trkpt lat="43.73684" lon="6.34687">
        <ele>825.2</ele>
        <time>2021-09-07T13:17:58.000Z</time>
      </trkpt>
      <trkpt lat="43.73684" lon="6.34689">
        <ele>825.5</ele>
        <time>2021-09-07T13:17:59.000Z</time>
      </trkpt>
      <trkpt lat="43.7368" lon="6.34702">
        <ele>826.3</ele>
        <time>2021-09-07T13:18:02.000Z</time>
      </trkpt>
      <trkpt lat="43.7368" lon="6.34705">
        <ele>826.4</ele>
        <time>2021-09-07T13:18:03.000Z</time>
      </trkpt>
      <trkpt lat="43.73679" lon="6.34708">
        <ele>826.4</ele>
        <time>2021-09-07T13:18:04.000Z</time>
      </trkpt>
      <trkpt lat="43.7368" lon="6.34704">
        <ele>826.4</ele>
        <time>2021-09-07T13:18:04.000Z</time>
      </trkpt>
      <trkpt lat="43.73679" lon="6.34707">
        <ele>826.3</ele>
        <time>2021-09-07T13:18:05.000Z</time>
      </trkpt>
      <trkpt lat="43.73679" lon="6.3471">
        <ele>826.6</ele>
        <time>2021-09-07T13:18:06.000Z</time>
      </trkpt>
      <trkpt lat="43.73678" lon="6.34713">
        <ele>826.9</ele>
        <time>2021-09-07T13:18:06.000Z</time>
      </trkpt>
      <trkpt lat="43.73678" lon="6.34715">
        <ele>827</ele>
        <time>2021-09-07T13:18:08.000Z</time>
      </trkpt>
      <trkpt lat="43.73677" lon="6.34718">
        <ele>827.4</ele>
        <time>2021-09-07T13:18:08.000Z</time>
      </trkpt>
      <trkpt lat="43.73677" lon="6.34721">
        <ele>827.5</ele>
        <time>2021-09-07T13:18:10.000Z</time>
      </trkpt>
      <trkpt lat="43.73676" lon="6.34724">
        <ele>827.6</ele>
        <time>2021-09-07T13:18:10.000Z</time>
      </trkpt>
      <trkpt lat="43.73675" lon="6.34727">
        <ele>828</ele>
        <time>2021-09-07T13:18:11.000Z</time>
      </trkpt>
      <trkpt lat="43.73674" lon="6.34729">
        <ele>828.3</ele>
        <time>2021-09-07T13:18:12.000Z</time>
      </trkpt>
      <trkpt lat="43.73676" lon="6.34726">
        <ele>827.9</ele>
        <time>2021-09-07T13:18:12.000Z</time>
      </trkpt>
      <trkpt lat="43.73674" lon="6.34731">
        <ele>828.2</ele>
        <time>2021-09-07T13:18:13.000Z</time>
      </trkpt>
      <trkpt lat="43.73675" lon="6.34728">
        <ele>828.3</ele>
        <time>2021-09-07T13:18:13.000Z</time>
      </trkpt>
      <trkpt lat="43.73674" lon="6.3473">
        <ele>828.2</ele>
        <time>2021-09-07T13:18:14.000Z</time>
      </trkpt>
      <trkpt lat="43.73673" lon="6.34733">
        <ele>828.4</ele>
        <time>2021-09-07T13:18:15.000Z</time>
      </trkpt>
      <trkpt lat="43.73672" lon="6.34741">
        <ele>828.4</ele>
        <time>2021-09-07T13:18:17.000Z</time>
      </trkpt>
      <trkpt lat="43.73671" lon="6.34743">
        <ele>828.7</ele>
        <time>2021-09-07T13:18:18.000Z</time>
      </trkpt>
      <trkpt lat="43.73671" lon="6.34742">
        <ele>828.6</ele>
        <time>2021-09-07T13:18:19.000Z</time>
      </trkpt>
      <trkpt lat="43.7367" lon="6.34745">
        <ele>828.8</ele>
        <time>2021-09-07T13:18:20.000Z</time>
      </trkpt>
      <trkpt lat="43.7367" lon="6.34748">
        <ele>828.7</ele>
        <time>2021-09-07T13:18:20.000Z</time>
      </trkpt>
      <trkpt lat="43.7367" lon="6.3475">
        <ele>828.9</ele>
        <time>2021-09-07T13:18:22.000Z</time>
      </trkpt>
      <trkpt lat="43.73669" lon="6.34754">
        <ele>829.2</ele>
        <time>2021-09-07T13:18:22.000Z</time>
      </trkpt>
      <trkpt lat="43.73668" lon="6.34756">
        <ele>829.5</ele>
        <time>2021-09-07T13:18:23.000Z</time>
      </trkpt>
      <trkpt lat="43.73669" lon="6.34756">
        <ele>829.4</ele>
        <time>2021-09-07T13:18:24.000Z</time>
      </trkpt>
      <trkpt lat="43.73668" lon="6.34758">
        <ele>829.5</ele>
        <time>2021-09-07T13:18:25.000Z</time>
      </trkpt>
      <trkpt lat="43.73665" lon="6.34763">
        <ele>830.1</ele>
        <time>2021-09-07T13:18:26.000Z</time>
      </trkpt>
      <trkpt lat="43.73663" lon="6.34765">
        <ele>830.2</ele>
        <time>2021-09-07T13:18:27.000Z</time>
      </trkpt>
      <trkpt lat="43.73662" lon="6.34767">
        <ele>830.4</ele>
        <time>2021-09-07T13:18:28.000Z</time>
      </trkpt>
      <trkpt lat="43.7366" lon="6.3477">
        <ele>830.6</ele>
        <time>2021-09-07T13:18:29.000Z</time>
      </trkpt>
      <trkpt lat="43.73659" lon="6.34773">
        <ele>830.8</ele>
        <time>2021-09-07T13:18:30.000Z</time>
      </trkpt>
      <trkpt lat="43.73661" lon="6.3477">
        <ele>830.6</ele>
        <time>2021-09-07T13:18:30.000Z</time>
      </trkpt>
      <trkpt lat="43.73659" lon="6.34772">
        <ele>830.8</ele>
        <time>2021-09-07T13:18:31.000Z</time>
      </trkpt>
      <trkpt lat="43.73658" lon="6.34775">
        <ele>830.9</ele>
        <time>2021-09-07T13:18:32.000Z</time>
      </trkpt>
      <trkpt lat="43.73654" lon="6.34782">
        <ele>831.7</ele>
        <time>2021-09-07T13:18:34.000Z</time>
      </trkpt>
      <trkpt lat="43.73652" lon="6.34784">
        <ele>832.2</ele>
        <time>2021-09-07T13:18:35.000Z</time>
      </trkpt>
      <trkpt lat="43.73651" lon="6.34786">
        <ele>832.2</ele>
        <time>2021-09-07T13:18:36.000Z</time>
      </trkpt>
      <trkpt lat="43.73653" lon="6.34783">
        <ele>832</ele>
        <time>2021-09-07T13:18:36.000Z</time>
      </trkpt>
      <trkpt lat="43.73651" lon="6.34786">
        <ele>832.2</ele>
        <time>2021-09-07T13:18:37.000Z</time>
      </trkpt>
      <trkpt lat="43.73651" lon="6.34788">
        <ele>832.2</ele>
        <time>2021-09-07T13:18:38.000Z</time>
      </trkpt>
      <trkpt lat="43.73648" lon="6.34793">
        <ele>832.7</ele>
        <time>2021-09-07T13:18:39.000Z</time>
      </trkpt>
      <trkpt lat="43.73648" lon="6.34794">
        <ele>832.8</ele>
        <time>2021-09-07T13:18:41.000Z</time>
      </trkpt>
      <trkpt lat="43.73646" lon="6.348">
        <ele>832.9</ele>
        <time>2021-09-07T13:18:41.000Z</time>
      </trkpt>
      <trkpt lat="43.73645" lon="6.34803">
        <ele>832.9</ele>
        <time>2021-09-07T13:18:42.000Z</time>
      </trkpt>
      <trkpt lat="43.73644" lon="6.34807">
        <ele>833.1</ele>
        <time>2021-09-07T13:18:44.000Z</time>
      </trkpt>
      <trkpt lat="43.73644" lon="6.34808">
        <ele>833.3</ele>
        <time>2021-09-07T13:18:46.000Z</time>
      </trkpt>
      <trkpt lat="43.73643" lon="6.34813">
        <ele>833.3</ele>
        <time>2021-09-07T13:18:46.000Z</time>
      </trkpt>
      <trkpt lat="43.73642" lon="6.34815">
        <ele>833.4</ele>
        <time>2021-09-07T13:18:48.000Z</time>
      </trkpt>
      <trkpt lat="43.73642" lon="6.34819">
        <ele>833.7</ele>
        <time>2021-09-07T13:18:48.000Z</time>
      </trkpt>
      <trkpt lat="43.73642" lon="6.34822">
        <ele>834.2</ele>
        <time>2021-09-07T13:18:50.000Z</time>
      </trkpt>
      <trkpt lat="43.73641" lon="6.34829">
        <ele>834.5</ele>
        <time>2021-09-07T13:18:51.000Z</time>
      </trkpt>
      <trkpt lat="43.73641" lon="6.34831">
        <ele>834.4</ele>
        <time>2021-09-07T13:18:52.000Z</time>
      </trkpt>
      <trkpt lat="43.7364" lon="6.34836">
        <ele>834.7</ele>
        <time>2021-09-07T13:18:54.000Z</time>
      </trkpt>
      <trkpt lat="43.73639" lon="6.34838">
        <ele>834.8</ele>
        <time>2021-09-07T13:18:56.000Z</time>
      </trkpt>
      <trkpt lat="43.73637" lon="6.34843">
        <ele>835.7</ele>
        <time>2021-09-07T13:18:57.000Z</time>
      </trkpt>
      <trkpt lat="43.73636" lon="6.34844">
        <ele>835.8</ele>
        <time>2021-09-07T13:18:59.000Z</time>
      </trkpt>
      <trkpt lat="43.73636" lon="6.34851">
        <ele>836.1</ele>
        <time>2021-09-07T13:19:00.000Z</time>
      </trkpt>
      <trkpt lat="43.73636" lon="6.34854">
        <ele>836.3</ele>
        <time>2021-09-07T13:19:01.000Z</time>
      </trkpt>
      <trkpt lat="43.73635" lon="6.34856">
        <ele>836.4</ele>
        <time>2021-09-07T13:19:02.000Z</time>
      </trkpt>
      <trkpt lat="43.73636" lon="6.34853">
        <ele>836.2</ele>
        <time>2021-09-07T13:19:02.000Z</time>
      </trkpt>
      <trkpt lat="43.73635" lon="6.34855">
        <ele>836.3</ele>
        <time>2021-09-07T13:19:03.000Z</time>
      </trkpt>
      <trkpt lat="43.73635" lon="6.34858">
        <ele>836.5</ele>
        <time>2021-09-07T13:19:04.000Z</time>
      </trkpt>
      <trkpt lat="43.73633" lon="6.34863">
        <ele>836.7</ele>
        <time>2021-09-07T13:19:05.000Z</time>
      </trkpt>
      <trkpt lat="43.73632" lon="6.34864">
        <ele>836.8</ele>
        <time>2021-09-07T13:19:07.000Z</time>
      </trkpt>
      <trkpt lat="43.73629" lon="6.34879">
        <ele>837.9</ele>
        <time>2021-09-07T13:19:11.000Z</time>
      </trkpt>
      <trkpt lat="43.73629" lon="6.34879">
        <ele>837.9</ele>
        <time>2021-09-07T13:19:12.000Z</time>
      </trkpt>
      <trkpt lat="43.73628" lon="6.34882">
        <ele>837.8</ele>
        <time>2021-09-07T13:19:12.000Z</time>
      </trkpt>
      <trkpt lat="43.73626" lon="6.34888">
        <ele>838.1</ele>
        <time>2021-09-07T13:19:14.000Z</time>
      </trkpt>
      <trkpt lat="43.73625" lon="6.3489">
        <ele>838</ele>
        <time>2021-09-07T13:19:16.000Z</time>
      </trkpt>
      <trkpt lat="43.73623" lon="6.34894">
        <ele>838</ele>
        <time>2021-09-07T13:19:16.000Z</time>
      </trkpt>
      <trkpt lat="43.73622" lon="6.34897">
        <ele>838.2</ele>
        <time>2021-09-07T13:19:17.000Z</time>
      </trkpt>
      <trkpt lat="43.73619" lon="6.34904">
        <ele>838.3</ele>
        <time>2021-09-07T13:19:20.000Z</time>
      </trkpt>
      <trkpt lat="43.73617" lon="6.34906">
        <ele>837.9</ele>
        <time>2021-09-07T13:19:21.000Z</time>
      </trkpt>
      <trkpt lat="43.73618" lon="6.34906">
        <ele>838.1</ele>
        <time>2021-09-07T13:19:22.000Z</time>
      </trkpt>
      <trkpt lat="43.73617" lon="6.34908">
        <ele>838</ele>
        <time>2021-09-07T13:19:23.000Z</time>
      </trkpt>
      <trkpt lat="43.73614" lon="6.34913">
        <ele>838</ele>
        <time>2021-09-07T13:19:25.000Z</time>
      </trkpt>
      <trkpt lat="43.73613" lon="6.34913">
        <ele>838</ele>
        <time>2021-09-07T13:19:27.000Z</time>
      </trkpt>
      <trkpt lat="43.7361" lon="6.34916">
        <ele>838</ele>
        <time>2021-09-07T13:19:28.000Z</time>
      </trkpt>
      <trkpt lat="43.7361" lon="6.34917">
        <ele>838.1</ele>
        <time>2021-09-07T13:19:30.000Z</time>
      </trkpt>
      <trkpt lat="43.73608" lon="6.34918">
        <ele>838.5</ele>
        <time>2021-09-07T13:19:30.000Z</time>
      </trkpt>
      <trkpt lat="43.73606" lon="6.34921">
        <ele>838.1</ele>
        <time>2021-09-07T13:19:32.000Z</time>
      </trkpt>
      <trkpt lat="43.73606" lon="6.34923">
        <ele>838.2</ele>
        <time>2021-09-07T13:19:34.000Z</time>
      </trkpt>
      <trkpt lat="43.73607" lon="6.34925">
        <ele>838.3</ele>
        <time>2021-09-07T13:19:34.000Z</time>
      </trkpt>
      <trkpt lat="43.73608" lon="6.34925">
        <ele>838.5</ele>
        <time>2021-09-07T13:19:35.000Z</time>
      </trkpt>
      <trkpt lat="43.73608" lon="6.34925">
        <ele>838.3</ele>
        <time>2021-09-07T13:19:36.000Z</time>
      </trkpt>
      <trkpt lat="43.73609" lon="6.34923">
        <ele>838.4</ele>
        <time>2021-09-07T13:19:37.000Z</time>
      </trkpt>
      <trkpt lat="43.73613" lon="6.34914">
        <ele>838.2</ele>
        <time>2021-09-07T13:19:40.000Z</time>
      </trkpt>
      <trkpt lat="43.73614" lon="6.34913">
        <ele>838.3</ele>
        <time>2021-09-07T13:19:42.000Z</time>
      </trkpt>
      <trkpt lat="43.73616" lon="6.34911">
        <ele>837.9</ele>
        <time>2021-09-07T13:19:43.000Z</time>
      </trkpt>
      <trkpt lat="43.73616" lon="6.34909">
        <ele>838</ele>
        <time>2021-09-07T13:19:45.000Z</time>
      </trkpt>
      <trkpt lat="43.73614" lon="6.34907">
        <ele>838.2</ele>
        <time>2021-09-07T13:19:45.000Z</time>
      </trkpt>
      <trkpt lat="43.73614" lon="6.34908">
        <ele>838.1</ele>
        <time>2021-09-07T13:19:46.000Z</time>
      </trkpt>
      <trkpt lat="43.73614" lon="6.34908">
        <ele>838.1</ele>
        <time>2021-09-07T13:19:47.000Z</time>
      </trkpt>
      <trkpt lat="43.73614" lon="6.34909">
        <ele>838.2</ele>
        <time>2021-09-07T13:19:48.000Z</time>
      </trkpt>
      <trkpt lat="43.73614" lon="6.34912">
        <ele>838.3</ele>
        <time>2021-09-07T13:19:49.000Z</time>
      </trkpt>
      <trkpt lat="43.73612" lon="6.34915">
        <ele>838.2</ele>
        <time>2021-09-07T13:19:49.000Z</time>
      </trkpt>
      <trkpt lat="43.73612" lon="6.34915">
        <ele>838.2</ele>
        <time>2021-09-07T13:19:51.000Z</time>
      </trkpt>
      <trkpt lat="43.73608" lon="6.34921">
        <ele>838.9</ele>
        <time>2021-09-07T13:19:52.000Z</time>
      </trkpt>
      <trkpt lat="43.73607" lon="6.34923">
        <ele>838.9</ele>
        <time>2021-09-07T13:19:53.000Z</time>
      </trkpt>
      <trkpt lat="43.73607" lon="6.34922">
        <ele>838.9</ele>
        <time>2021-09-07T13:19:54.000Z</time>
      </trkpt>
      <trkpt lat="43.73605" lon="6.34924">
        <ele>839</ele>
        <time>2021-09-07T13:19:55.000Z</time>
      </trkpt>
      <trkpt lat="43.73599" lon="6.34933">
        <ele>839.1</ele>
        <time>2021-09-07T13:19:58.000Z</time>
      </trkpt>
      <trkpt lat="43.73598" lon="6.34935">
        <ele>839.3</ele>
        <time>2021-09-07T13:20:00.000Z</time>
      </trkpt>
      <trkpt lat="43.73596" lon="6.34938">
        <ele>839.3</ele>
        <time>2021-09-07T13:20:00.000Z</time>
      </trkpt>
      <trkpt lat="43.73595" lon="6.34939">
        <ele>839.4</ele>
        <time>2021-09-07T13:20:02.000Z</time>
      </trkpt>
      <trkpt lat="43.73594" lon="6.34942">
        <ele>839.7</ele>
        <time>2021-09-07T13:20:02.000Z</time>
      </trkpt>
      <trkpt lat="43.73593" lon="6.34943">
        <ele>839.9</ele>
        <time>2021-09-07T13:20:04.000Z</time>
      </trkpt>
      <trkpt lat="43.73591" lon="6.34948">
        <ele>840.5</ele>
        <time>2021-09-07T13:20:04.000Z</time>
      </trkpt>
      <trkpt lat="43.7359" lon="6.3495">
        <ele>840.5</ele>
        <time>2021-09-07T13:20:05.000Z</time>
      </trkpt>
      <trkpt lat="43.73588" lon="6.34953">
        <ele>840.6</ele>
        <time>2021-09-07T13:20:06.000Z</time>
      </trkpt>
      <trkpt lat="43.7359" lon="6.34949">
        <ele>840.7</ele>
        <time>2021-09-07T13:20:06.000Z</time>
      </trkpt>
      <trkpt lat="43.73589" lon="6.34952">
        <ele>840.5</ele>
        <time>2021-09-07T13:20:07.000Z</time>
      </trkpt>
      <trkpt lat="43.73588" lon="6.34954">
        <ele>840.6</ele>
        <time>2021-09-07T13:20:08.000Z</time>
      </trkpt>
      <trkpt lat="43.73584" lon="6.34964">
        <ele>840.7</ele>
        <time>2021-09-07T13:20:10.000Z</time>
      </trkpt>
      <trkpt lat="43.73583" lon="6.34966">
        <ele>840.7</ele>
        <time>2021-09-07T13:20:11.000Z</time>
      </trkpt>
      <trkpt lat="43.73579" lon="6.34976">
        <ele>841.4</ele>
        <time>2021-09-07T13:20:16.000Z</time>
      </trkpt>
      <trkpt lat="43.73577" lon="6.3498">
        <ele>841.5</ele>
        <time>2021-09-07T13:20:16.000Z</time>
      </trkpt>
      <trkpt lat="43.73576" lon="6.34982">
        <ele>841.4</ele>
        <time>2021-09-07T13:20:18.000Z</time>
      </trkpt>
      <trkpt lat="43.73573" lon="6.34991">
        <ele>841.5</ele>
        <time>2021-09-07T13:20:20.000Z</time>
      </trkpt>
      <trkpt lat="43.73572" lon="6.34993">
        <ele>841.7</ele>
        <time>2021-09-07T13:20:22.000Z</time>
      </trkpt>
      <trkpt lat="43.73568" lon="6.35004">
        <ele>842.5</ele>
        <time>2021-09-07T13:20:25.000Z</time>
      </trkpt>
      <trkpt lat="43.73566" lon="6.35007">
        <ele>842.6</ele>
        <time>2021-09-07T13:20:26.000Z</time>
      </trkpt>
      <trkpt lat="43.73565" lon="6.35009">
        <ele>842.6</ele>
        <time>2021-09-07T13:20:27.000Z</time>
      </trkpt>
      <trkpt lat="43.73567" lon="6.35005">
        <ele>842.6</ele>
        <time>2021-09-07T13:20:27.000Z</time>
      </trkpt>
      <trkpt lat="43.73565" lon="6.35009">
        <ele>842.6</ele>
        <time>2021-09-07T13:20:28.000Z</time>
      </trkpt>
      <trkpt lat="43.73564" lon="6.35011">
        <ele>842.5</ele>
        <time>2021-09-07T13:20:29.000Z</time>
      </trkpt>
      <trkpt lat="43.73563" lon="6.35014">
        <ele>842.9</ele>
        <time>2021-09-07T13:20:29.000Z</time>
      </trkpt>
      <trkpt lat="43.73563" lon="6.35014">
        <ele>842.9</ele>
        <time>2021-09-07T13:20:29.000Z</time>
      </trkpt>
      <trkpt lat="43.73561" lon="6.35017">
        <ele>842.9</ele>
        <time>2021-09-07T13:20:30.000Z</time>
      </trkpt>
      <trkpt lat="43.73562" lon="6.35015">
        <ele>842.8</ele>
        <time>2021-09-07T13:20:31.000Z</time>
      </trkpt>
      <trkpt lat="43.7356" lon="6.35019">
        <ele>843.3</ele>
        <time>2021-09-07T13:20:32.000Z</time>
      </trkpt>
      <trkpt lat="43.73557" lon="6.35025">
        <ele>843.6</ele>
        <time>2021-09-07T13:20:32.000Z</time>
      </trkpt>
      <trkpt lat="43.73554" lon="6.3503">
        <ele>843.5</ele>
        <time>2021-09-07T13:20:34.000Z</time>
      </trkpt>
      <trkpt lat="43.73556" lon="6.35027">
        <ele>843.5</ele>
        <time>2021-09-07T13:20:35.000Z</time>
      </trkpt>
      <trkpt lat="43.73553" lon="6.35033">
        <ele>843.8</ele>
        <time>2021-09-07T13:20:37.000Z</time>
      </trkpt>
      <trkpt lat="43.7355" lon="6.35037">
        <ele>844.1</ele>
        <time>2021-09-07T13:20:37.000Z</time>
      </trkpt>
      <trkpt lat="43.73546" lon="6.35042">
        <ele>844.5</ele>
        <time>2021-09-07T13:20:39.000Z</time>
      </trkpt>
      <trkpt lat="43.73544" lon="6.35045">
        <ele>844.6</ele>
        <time>2021-09-07T13:20:40.000Z</time>
      </trkpt>
      <trkpt lat="43.73548" lon="6.35039">
        <ele>844.2</ele>
        <time>2021-09-07T13:20:40.000Z</time>
      </trkpt>
      <trkpt lat="43.73542" lon="6.35047">
        <ele>844.7</ele>
        <time>2021-09-07T13:20:41.000Z</time>
      </trkpt>
      <trkpt lat="43.73545" lon="6.35044">
        <ele>844.4</ele>
        <time>2021-09-07T13:20:42.000Z</time>
      </trkpt>
      <trkpt lat="43.73535" lon="6.35059">
        <ele>845</ele>
        <time>2021-09-07T13:20:46.000Z</time>
      </trkpt>
      <trkpt lat="43.73536" lon="6.35056">
        <ele>845</ele>
        <time>2021-09-07T13:20:47.000Z</time>
      </trkpt>
      <trkpt lat="43.73532" lon="6.35065">
        <ele>844.8</ele>
        <time>2021-09-07T13:20:48.000Z</time>
      </trkpt>
      <trkpt lat="43.7353" lon="6.35067">
        <ele>844.9</ele>
        <time>2021-09-07T13:20:49.000Z</time>
      </trkpt>
      <trkpt lat="43.73534" lon="6.35061">
        <ele>845.1</ele>
        <time>2021-09-07T13:20:49.000Z</time>
      </trkpt>
      <trkpt lat="43.73528" lon="6.3507">
        <ele>844.8</ele>
        <time>2021-09-07T13:20:50.000Z</time>
      </trkpt>
      <trkpt lat="43.73531" lon="6.35066">
        <ele>844.9</ele>
        <time>2021-09-07T13:20:51.000Z</time>
      </trkpt>
      <trkpt lat="43.73524" lon="6.35076">
        <ele>845.1</ele>
        <time>2021-09-07T13:20:52.000Z</time>
      </trkpt>
      <trkpt lat="43.73529" lon="6.35069">
        <ele>844.9</ele>
        <time>2021-09-07T13:20:52.000Z</time>
      </trkpt>
      <trkpt lat="43.73526" lon="6.35072">
        <ele>844.8</ele>
        <time>2021-09-07T13:20:53.000Z</time>
      </trkpt>
      <trkpt lat="43.73523" lon="6.35078">
        <ele>845.2</ele>
        <time>2021-09-07T13:20:53.000Z</time>
      </trkpt>
      <trkpt lat="43.7352" lon="6.35082">
        <ele>845.7</ele>
        <time>2021-09-07T13:20:55.000Z</time>
      </trkpt>
      <trkpt lat="43.73518" lon="6.35084">
        <ele>845.8</ele>
        <time>2021-09-07T13:20:56.000Z</time>
      </trkpt>
      <trkpt lat="43.73516" lon="6.35086">
        <ele>845.9</ele>
        <time>2021-09-07T13:20:57.000Z</time>
      </trkpt>
      <trkpt lat="43.73515" lon="6.35088">
        <ele>846</ele>
        <time>2021-09-07T13:21:00.000Z</time>
      </trkpt>
      <trkpt lat="43.73503" lon="6.351">
        <ele>846.7</ele>
        <time>2021-09-07T13:21:04.000Z</time>
      </trkpt>
      <trkpt lat="43.73501" lon="6.35102">
        <ele>846.7</ele>
        <time>2021-09-07T13:21:05.000Z</time>
      </trkpt>
      <trkpt lat="43.73506" lon="6.35098">
        <ele>846.6</ele>
        <time>2021-09-07T13:21:05.000Z</time>
      </trkpt>
      <trkpt lat="43.73502" lon="6.35101">
        <ele>846.6</ele>
        <time>2021-09-07T13:21:07.000Z</time>
      </trkpt>
      <trkpt lat="43.735" lon="6.35103">
        <ele>846.7</ele>
        <time>2021-09-07T13:21:08.000Z</time>
      </trkpt>
      <trkpt lat="43.73485" lon="6.3511">
        <ele>847.3</ele>
        <time>2021-09-07T13:21:11.000Z</time>
      </trkpt>
      <trkpt lat="43.73482" lon="6.35112">
        <ele>846.9</ele>
        <time>2021-09-07T13:21:12.000Z</time>
      </trkpt>
      <trkpt lat="43.73486" lon="6.3511">
        <ele>847.3</ele>
        <time>2021-09-07T13:21:13.000Z</time>
      </trkpt>
      <trkpt lat="43.73477" lon="6.35116">
        <ele>847.2</ele>
        <time>2021-09-07T13:21:14.000Z</time>
      </trkpt>
      <trkpt lat="43.73483" lon="6.35112">
        <ele>847</ele>
        <time>2021-09-07T13:21:14.000Z</time>
      </trkpt>
      <trkpt lat="43.73479" lon="6.35114">
        <ele>847.1</ele>
        <time>2021-09-07T13:21:15.000Z</time>
      </trkpt>
      <trkpt lat="43.73474" lon="6.35117">
        <ele>847.2</ele>
        <time>2021-09-07T13:21:15.000Z</time>
      </trkpt>
      <trkpt lat="43.73469" lon="6.35119">
        <ele>847.4</ele>
        <time>2021-09-07T13:21:17.000Z</time>
      </trkpt>
      <trkpt lat="43.73468" lon="6.3512">
        <ele>847.5</ele>
        <time>2021-09-07T13:21:20.000Z</time>
      </trkpt>
      <trkpt lat="43.73462" lon="6.35123">
        <ele>847.6</ele>
        <time>2021-09-07T13:21:20.000Z</time>
      </trkpt>
      <trkpt lat="43.73459" lon="6.35124">
        <ele>847.6</ele>
        <time>2021-09-07T13:21:23.000Z</time>
      </trkpt>
      <trkpt lat="43.73454" lon="6.35125">
        <ele>847.7</ele>
        <time>2021-09-07T13:21:23.000Z</time>
      </trkpt>
      <trkpt lat="43.73452" lon="6.35127">
        <ele>847.9</ele>
        <time>2021-09-07T13:21:24.000Z</time>
      </trkpt>
      <trkpt lat="43.73447" lon="6.35128">
        <ele>848.3</ele>
        <time>2021-09-07T13:21:26.000Z</time>
      </trkpt>
      <trkpt lat="43.73453" lon="6.35126">
        <ele>847.7</ele>
        <time>2021-09-07T13:21:26.000Z</time>
      </trkpt>
      <trkpt lat="43.73444" lon="6.35129">
        <ele>848.2</ele>
        <time>2021-09-07T13:21:27.000Z</time>
      </trkpt>
      <trkpt lat="43.73449" lon="6.35128">
        <ele>848.1</ele>
        <time>2021-09-07T13:21:27.000Z</time>
      </trkpt>
      <trkpt lat="43.73442" lon="6.3513">
        <ele>848.2</ele>
        <time>2021-09-07T13:21:28.000Z</time>
      </trkpt>
      <trkpt lat="43.73445" lon="6.35129">
        <ele>848.3</ele>
        <time>2021-09-07T13:21:29.000Z</time>
      </trkpt>
      <trkpt lat="43.73436" lon="6.35134">
        <ele>848.3</ele>
        <time>2021-09-07T13:21:30.000Z</time>
      </trkpt>
      <trkpt lat="43.7343" lon="6.35136">
        <ele>849.2</ele>
        <time>2021-09-07T13:21:32.000Z</time>
      </trkpt>
      <trkpt lat="43.73427" lon="6.35139">
        <ele>849.3</ele>
        <time>2021-09-07T13:21:33.000Z</time>
      </trkpt>
      <trkpt lat="43.73434" lon="6.35134">
        <ele>849</ele>
        <time>2021-09-07T13:21:33.000Z</time>
      </trkpt>
      <trkpt lat="43.73428" lon="6.35137">
        <ele>849.2</ele>
        <time>2021-09-07T13:21:35.000Z</time>
      </trkpt>
      <trkpt lat="43.73425" lon="6.35141">
        <ele>849.5</ele>
        <time>2021-09-07T13:21:36.000Z</time>
      </trkpt>
      <trkpt lat="43.73419" lon="6.35147">
        <ele>849.7</ele>
        <time>2021-09-07T13:21:36.000Z</time>
      </trkpt>
      <trkpt lat="43.73417" lon="6.3515">
        <ele>849.7</ele>
        <time>2021-09-07T13:21:37.000Z</time>
      </trkpt>
      <trkpt lat="43.73414" lon="6.35152">
        <ele>849.5</ele>
        <time>2021-09-07T13:21:38.000Z</time>
      </trkpt>
      <trkpt lat="43.73417" lon="6.35149">
        <ele>849.7</ele>
        <time>2021-09-07T13:21:39.000Z</time>
      </trkpt>
      <trkpt lat="43.73409" lon="6.35156">
        <ele>849.9</ele>
        <time>2021-09-07T13:21:40.000Z</time>
      </trkpt>
      <trkpt lat="43.73407" lon="6.35159">
        <ele>849.9</ele>
        <time>2021-09-07T13:21:41.000Z</time>
      </trkpt>
      <trkpt lat="43.73404" lon="6.35161">
        <ele>850.1</ele>
        <time>2021-09-07T13:21:42.000Z</time>
      </trkpt>
      <trkpt lat="43.73402" lon="6.35164">
        <ele>850.2</ele>
        <time>2021-09-07T13:21:43.000Z</time>
      </trkpt>
      <trkpt lat="43.73398" lon="6.3517">
        <ele>850.2</ele>
        <time>2021-09-07T13:21:45.000Z</time>
      </trkpt>
      <trkpt lat="43.73396" lon="6.35172">
        <ele>850.5</ele>
        <time>2021-09-07T13:21:46.000Z</time>
      </trkpt>
      <trkpt lat="43.73395" lon="6.35174">
        <ele>850.5</ele>
        <time>2021-09-07T13:21:47.000Z</time>
      </trkpt>
      <trkpt lat="43.73397" lon="6.35172">
        <ele>850.4</ele>
        <time>2021-09-07T13:21:48.000Z</time>
      </trkpt>
      <trkpt lat="43.7339" lon="6.35178">
        <ele>850.6</ele>
        <time>2021-09-07T13:21:49.000Z</time>
      </trkpt>
      <trkpt lat="43.73396" lon="6.35173">
        <ele>850.5</ele>
        <time>2021-09-07T13:21:49.000Z</time>
      </trkpt>
      <trkpt lat="43.73388" lon="6.3518">
        <ele>850.8</ele>
        <time>2021-09-07T13:21:50.000Z</time>
      </trkpt>
      <trkpt lat="43.73394" lon="6.35175">
        <ele>850.5</ele>
        <time>2021-09-07T13:21:50.000Z</time>
      </trkpt>
      <trkpt lat="43.73386" lon="6.35182">
        <ele>850.8</ele>
        <time>2021-09-07T13:21:51.000Z</time>
      </trkpt>
      <trkpt lat="43.7339" lon="6.35178">
        <ele>850.6</ele>
        <time>2021-09-07T13:21:52.000Z</time>
      </trkpt>
      <trkpt lat="43.7338" lon="6.35187">
        <ele>850.9</ele>
        <time>2021-09-07T13:21:53.000Z</time>
      </trkpt>
      <trkpt lat="43.73387" lon="6.35181">
        <ele>850.8</ele>
        <time>2021-09-07T13:21:53.000Z</time>
      </trkpt>
      <trkpt lat="43.73385" lon="6.35183">
        <ele>850.9</ele>
        <time>2021-09-07T13:21:54.000Z</time>
      </trkpt>
      <trkpt lat="43.73376" lon="6.3519">
        <ele>851.2</ele>
        <time>2021-09-07T13:21:55.000Z</time>
      </trkpt>
      <trkpt lat="43.73374" lon="6.35192">
        <ele>851.3</ele>
        <time>2021-09-07T13:21:56.000Z</time>
      </trkpt>
      <trkpt lat="43.73379" lon="6.35188">
        <ele>851</ele>
        <time>2021-09-07T13:21:56.000Z</time>
      </trkpt>
      <trkpt lat="43.73371" lon="6.35194">
        <ele>851.4</ele>
        <time>2021-09-07T13:21:57.000Z</time>
      </trkpt>
      <trkpt lat="43.73368" lon="6.35196">
        <ele>851.1</ele>
        <time>2021-09-07T13:21:58.000Z</time>
      </trkpt>
      <trkpt lat="43.73375" lon="6.35191">
        <ele>851.3</ele>
        <time>2021-09-07T13:21:58.000Z</time>
      </trkpt>
      <trkpt lat="43.73373" lon="6.35193">
        <ele>851.3</ele>
        <time>2021-09-07T13:21:59.000Z</time>
      </trkpt>
      <trkpt lat="43.73369" lon="6.35195">
        <ele>851.3</ele>
        <time>2021-09-07T13:22:00.000Z</time>
      </trkpt>
      <trkpt lat="43.73366" lon="6.35198">
        <ele>851.3</ele>
        <time>2021-09-07T13:22:01.000Z</time>
      </trkpt>
      <trkpt lat="43.73361" lon="6.35202">
        <ele>851.2</ele>
        <time>2021-09-07T13:22:01.000Z</time>
      </trkpt>
      <trkpt lat="43.73358" lon="6.35203">
        <ele>851.4</ele>
        <time>2021-09-07T13:22:02.000Z</time>
      </trkpt>
      <trkpt lat="43.73359" lon="6.35203">
        <ele>851.3</ele>
        <time>2021-09-07T13:22:04.000Z</time>
      </trkpt>
      <trkpt lat="43.73357" lon="6.35204">
        <ele>851.5</ele>
        <time>2021-09-07T13:22:05.000Z</time>
      </trkpt>
      <trkpt lat="43.73348" lon="6.35212">
        <ele>852.3</ele>
        <time>2021-09-07T13:22:06.000Z</time>
      </trkpt>
      <trkpt lat="43.73346" lon="6.35214">
        <ele>852.5</ele>
        <time>2021-09-07T13:22:07.000Z</time>
      </trkpt>
      <trkpt lat="43.73343" lon="6.35217">
        <ele>852.3</ele>
        <time>2021-09-07T13:22:08.000Z</time>
      </trkpt>
      <trkpt lat="43.73341" lon="6.35218">
        <ele>852.4</ele>
        <time>2021-09-07T13:22:09.000Z</time>
      </trkpt>
      <trkpt lat="43.73347" lon="6.35214">
        <ele>852.5</ele>
        <time>2021-09-07T13:22:09.000Z</time>
      </trkpt>
      <trkpt lat="43.73344" lon="6.35216">
        <ele>852.4</ele>
        <time>2021-09-07T13:22:10.000Z</time>
      </trkpt>
      <trkpt lat="43.73336" lon="6.35223">
        <ele>852.7</ele>
        <time>2021-09-07T13:22:11.000Z</time>
      </trkpt>
      <trkpt lat="43.73334" lon="6.35225">
        <ele>852.9</ele>
        <time>2021-09-07T13:22:12.000Z</time>
      </trkpt>
      <trkpt lat="43.73331" lon="6.35227">
        <ele>852.8</ele>
        <time>2021-09-07T13:22:13.000Z</time>
      </trkpt>
      <trkpt lat="43.73335" lon="6.35224">
        <ele>852.9</ele>
        <time>2021-09-07T13:22:14.000Z</time>
      </trkpt>
      <trkpt lat="43.73332" lon="6.35226">
        <ele>852.9</ele>
        <time>2021-09-07T13:22:15.000Z</time>
      </trkpt>
      <trkpt lat="43.73329" lon="6.35228">
        <ele>852.7</ele>
        <time>2021-09-07T13:22:16.000Z</time>
      </trkpt>
      <trkpt lat="43.73321" lon="6.35234">
        <ele>852.5</ele>
        <time>2021-09-07T13:22:17.000Z</time>
      </trkpt>
      <trkpt lat="43.73319" lon="6.35236">
        <ele>852.7</ele>
        <time>2021-09-07T13:22:20.000Z</time>
      </trkpt>
      <trkpt lat="43.73313" lon="6.35241">
        <ele>853.1</ele>
        <time>2021-09-07T13:22:20.000Z</time>
      </trkpt>
      <trkpt lat="43.7331" lon="6.35243">
        <ele>852.9</ele>
        <time>2021-09-07T13:22:21.000Z</time>
      </trkpt>
      <trkpt lat="43.73312" lon="6.35242">
        <ele>853</ele>
        <time>2021-09-07T13:22:23.000Z</time>
      </trkpt>
      <trkpt lat="43.73309" lon="6.35245">
        <ele>852.8</ele>
        <time>2021-09-07T13:22:24.000Z</time>
      </trkpt>
      <trkpt lat="43.73301" lon="6.35252">
        <ele>853.3</ele>
        <time>2021-09-07T13:22:25.000Z</time>
      </trkpt>
      <trkpt lat="43.73299" lon="6.35253">
        <ele>853.3</ele>
        <time>2021-09-07T13:22:28.000Z</time>
      </trkpt>
      <trkpt lat="43.7329" lon="6.35258">
        <ele>854.1</ele>
        <time>2021-09-07T13:22:29.000Z</time>
      </trkpt>
      <trkpt lat="43.73286" lon="6.3526">
        <ele>854.3</ele>
        <time>2021-09-07T13:22:31.000Z</time>
      </trkpt>
      <trkpt lat="43.73289" lon="6.35259">
        <ele>854.3</ele>
        <time>2021-09-07T13:22:32.000Z</time>
      </trkpt>
      <trkpt lat="43.7328" lon="6.35263">
        <ele>854.7</ele>
        <time>2021-09-07T13:22:33.000Z</time>
      </trkpt>
      <trkpt lat="43.73277" lon="6.35264">
        <ele>854.6</ele>
        <time>2021-09-07T13:22:34.000Z</time>
      </trkpt>
      <trkpt lat="43.73285" lon="6.3526">
        <ele>854.4</ele>
        <time>2021-09-07T13:22:34.000Z</time>
      </trkpt>
      <trkpt lat="43.73274" lon="6.35266">
        <ele>854.6</ele>
        <time>2021-09-07T13:22:35.000Z</time>
      </trkpt>
      <trkpt lat="43.73279" lon="6.35263">
        <ele>854.7</ele>
        <time>2021-09-07T13:22:36.000Z</time>
      </trkpt>
      <trkpt lat="43.73275" lon="6.35265">
        <ele>854.5</ele>
        <time>2021-09-07T13:22:37.000Z</time>
      </trkpt>
      <trkpt lat="43.73272" lon="6.35267">
        <ele>854.8</ele>
        <time>2021-09-07T13:22:38.000Z</time>
      </trkpt>
      <trkpt lat="43.73259" lon="6.35272">
        <ele>855.1</ele>
        <time>2021-09-07T13:22:43.000Z</time>
      </trkpt>
      <trkpt lat="43.73252" lon="6.35275">
        <ele>855</ele>
        <time>2021-09-07T13:22:43.000Z</time>
      </trkpt>
      <trkpt lat="43.73249" lon="6.35276">
        <ele>855</ele>
        <time>2021-09-07T13:22:44.000Z</time>
      </trkpt>
      <trkpt lat="43.73246" lon="6.35278">
        <ele>855.3</ele>
        <time>2021-09-07T13:22:45.000Z</time>
      </trkpt>
      <trkpt lat="43.7325" lon="6.35276">
        <ele>854.9</ele>
        <time>2021-09-07T13:22:46.000Z</time>
      </trkpt>
      <trkpt lat="43.73248" lon="6.35277">
        <ele>855.2</ele>
        <time>2021-09-07T13:22:47.000Z</time>
      </trkpt>
      <trkpt lat="43.73244" lon="6.35279">
        <ele>855.3</ele>
        <time>2021-09-07T13:22:48.000Z</time>
      </trkpt>
      <trkpt lat="43.73239" lon="6.35282">
        <ele>855.6</ele>
        <time>2021-09-07T13:22:48.000Z</time>
      </trkpt>
      <trkpt lat="43.73236" lon="6.35284">
        <ele>855.6</ele>
        <time>2021-09-07T13:22:49.000Z</time>
      </trkpt>
      <trkpt lat="43.73234" lon="6.35287">
        <ele>855.8</ele>
        <time>2021-09-07T13:22:50.000Z</time>
      </trkpt>
      <trkpt lat="43.73231" lon="6.35288">
        <ele>856</ele>
        <time>2021-09-07T13:22:51.000Z</time>
      </trkpt>
      <trkpt lat="43.73237" lon="6.35283">
        <ele>855.6</ele>
        <time>2021-09-07T13:22:51.000Z</time>
      </trkpt>
      <trkpt lat="43.73235" lon="6.35286">
        <ele>855.7</ele>
        <time>2021-09-07T13:22:52.000Z</time>
      </trkpt>
      <trkpt lat="43.73227" lon="6.35292">
        <ele>856.2</ele>
        <time>2021-09-07T13:22:53.000Z</time>
      </trkpt>
      <trkpt lat="43.73226" lon="6.35293">
        <ele>856.3</ele>
        <time>2021-09-07T13:22:56.000Z</time>
      </trkpt>
      <trkpt lat="43.73212" lon="6.35308">
        <ele>857.6</ele>
        <time>2021-09-07T13:23:00.000Z</time>
      </trkpt>
      <trkpt lat="43.73215" lon="6.35304">
        <ele>857</ele>
        <time>2021-09-07T13:23:01.000Z</time>
      </trkpt>
      <trkpt lat="43.73209" lon="6.3531">
        <ele>857.8</ele>
        <time>2021-09-07T13:23:01.000Z</time>
      </trkpt>
      <trkpt lat="43.73205" lon="6.35316">
        <ele>858.1</ele>
        <time>2021-09-07T13:23:06.000Z</time>
      </trkpt>
      <trkpt lat="43.73192" lon="6.3533">
        <ele>858.9</ele>
        <time>2021-09-07T13:23:09.000Z</time>
      </trkpt>
      <trkpt lat="43.73191" lon="6.35332">
        <ele>859</ele>
        <time>2021-09-07T13:23:12.000Z</time>
      </trkpt>
      <trkpt lat="43.73182" lon="6.35343">
        <ele>859.5</ele>
        <time>2021-09-07T13:23:14.000Z</time>
      </trkpt>
      <trkpt lat="43.7318" lon="6.35345">
        <ele>859.8</ele>
        <time>2021-09-07T13:23:15.000Z</time>
      </trkpt>
      <trkpt lat="43.73176" lon="6.3535">
        <ele>860</ele>
        <time>2021-09-07T13:23:17.000Z</time>
      </trkpt>
      <trkpt lat="43.7318" lon="6.35344">
        <ele>859.8</ele>
        <time>2021-09-07T13:23:17.000Z</time>
      </trkpt>
      <trkpt lat="43.73174" lon="6.35352">
        <ele>860.1</ele>
        <time>2021-09-07T13:23:18.000Z</time>
      </trkpt>
      <trkpt lat="43.73178" lon="6.35347">
        <ele>859.9</ele>
        <time>2021-09-07T13:23:18.000Z</time>
      </trkpt>
      <trkpt lat="43.73171" lon="6.35358">
        <ele>860.1</ele>
        <time>2021-09-07T13:23:20.000Z</time>
      </trkpt>
      <trkpt lat="43.73175" lon="6.35351">
        <ele>860</ele>
        <time>2021-09-07T13:23:20.000Z</time>
      </trkpt>
      <trkpt lat="43.73174" lon="6.35353">
        <ele>860.2</ele>
        <time>2021-09-07T13:23:21.000Z</time>
      </trkpt>
      <trkpt lat="43.73169" lon="6.3536">
        <ele>860.4</ele>
        <time>2021-09-07T13:23:21.000Z</time>
      </trkpt>
      <trkpt lat="43.73165" lon="6.35365">
        <ele>860.6</ele>
        <time>2021-09-07T13:23:23.000Z</time>
      </trkpt>
      <trkpt lat="43.73163" lon="6.35367">
        <ele>860.6</ele>
        <time>2021-09-07T13:23:24.000Z</time>
      </trkpt>
      <trkpt lat="43.73163" lon="6.35366">
        <ele>860.5</ele>
        <time>2021-09-07T13:23:26.000Z</time>
      </trkpt>
      <trkpt lat="43.73161" lon="6.3537">
        <ele>861</ele>
        <time>2021-09-07T13:23:27.000Z</time>
      </trkpt>
      <trkpt lat="43.73153" lon="6.35381">
        <ele>861.2</ele>
        <time>2021-09-07T13:23:29.000Z</time>
      </trkpt>
      <trkpt lat="43.73152" lon="6.35383">
        <ele>861.3</ele>
        <time>2021-09-07T13:23:32.000Z</time>
      </trkpt>
      <trkpt lat="43.73151" lon="6.35385">
        <ele>861.5</ele>
        <time>2021-09-07T13:23:33.000Z</time>
      </trkpt>
      <trkpt lat="43.73146" lon="6.35394">
        <ele>862</ele>
        <time>2021-09-07T13:23:33.000Z</time>
      </trkpt>
      <trkpt lat="43.73144" lon="6.35396">
        <ele>861.9</ele>
        <time>2021-09-07T13:23:34.000Z</time>
      </trkpt>
      <trkpt lat="43.7314" lon="6.35405">
        <ele>862.2</ele>
        <time>2021-09-07T13:23:37.000Z</time>
      </trkpt>
      <trkpt lat="43.73144" lon="6.35397">
        <ele>862</ele>
        <time>2021-09-07T13:23:37.000Z</time>
      </trkpt>
      <trkpt lat="43.73139" lon="6.35408">
        <ele>862.4</ele>
        <time>2021-09-07T13:23:38.000Z</time>
      </trkpt>
      <trkpt lat="43.73142" lon="6.354">
        <ele>862.1</ele>
        <time>2021-09-07T13:23:38.000Z</time>
      </trkpt>
      <trkpt lat="43.73138" lon="6.35411">
        <ele>862.3</ele>
        <time>2021-09-07T13:23:39.000Z</time>
      </trkpt>
      <trkpt lat="43.73139" lon="6.35407">
        <ele>862.4</ele>
        <time>2021-09-07T13:23:40.000Z</time>
      </trkpt>
      <trkpt lat="43.73137" lon="6.35414">
        <ele>862.5</ele>
        <time>2021-09-07T13:23:40.000Z</time>
      </trkpt>
      <trkpt lat="43.73135" lon="6.35416">
        <ele>862.6</ele>
        <time>2021-09-07T13:23:41.000Z</time>
      </trkpt>
      <trkpt lat="43.73133" lon="6.35422">
        <ele>862.8</ele>
        <time>2021-09-07T13:23:43.000Z</time>
      </trkpt>
      <trkpt lat="43.73136" lon="6.35415">
        <ele>862.5</ele>
        <time>2021-09-07T13:23:43.000Z</time>
      </trkpt>
      <trkpt lat="43.73134" lon="6.35419">
        <ele>862.7</ele>
        <time>2021-09-07T13:23:44.000Z</time>
      </trkpt>
      <trkpt lat="43.73132" lon="6.35423">
        <ele>862.9</ele>
        <time>2021-09-07T13:23:46.000Z</time>
      </trkpt>
      <trkpt lat="43.73129" lon="6.35428">
        <ele>862.8</ele>
        <time>2021-09-07T13:23:46.000Z</time>
      </trkpt>
      <trkpt lat="43.73128" lon="6.3543">
        <ele>862.9</ele>
        <time>2021-09-07T13:23:49.000Z</time>
      </trkpt>
      <trkpt lat="43.73124" lon="6.35436">
        <ele>863.4</ele>
        <time>2021-09-07T13:23:49.000Z</time>
      </trkpt>
      <trkpt lat="43.73122" lon="6.35439">
        <ele>863.4</ele>
        <time>2021-09-07T13:23:50.000Z</time>
      </trkpt>
      <trkpt lat="43.73116" lon="6.35451">
        <ele>864</ele>
        <time>2021-09-07T13:23:54.000Z</time>
      </trkpt>
      <trkpt lat="43.73114" lon="6.35455">
        <ele>864.2</ele>
        <time>2021-09-07T13:23:55.000Z</time>
      </trkpt>
      <trkpt lat="43.73118" lon="6.35446">
        <ele>863.9</ele>
        <time>2021-09-07T13:23:55.000Z</time>
      </trkpt>
      <trkpt lat="43.73112" lon="6.35458">
        <ele>864.4</ele>
        <time>2021-09-07T13:23:56.000Z</time>
      </trkpt>
      <trkpt lat="43.73111" lon="6.35461">
        <ele>864.4</ele>
        <time>2021-09-07T13:23:57.000Z</time>
      </trkpt>
      <trkpt lat="43.73115" lon="6.35453">
        <ele>864.1</ele>
        <time>2021-09-07T13:23:57.000Z</time>
      </trkpt>
      <trkpt lat="43.73113" lon="6.35457">
        <ele>864.3</ele>
        <time>2021-09-07T13:23:58.000Z</time>
      </trkpt>
      <trkpt lat="43.73105" lon="6.35473">
        <ele>865.3</ele>
        <time>2021-09-07T13:24:01.000Z</time>
      </trkpt>
      <trkpt lat="43.73104" lon="6.35476">
        <ele>865.5</ele>
        <time>2021-09-07T13:24:02.000Z</time>
      </trkpt>
      <trkpt lat="43.73103" lon="6.3548">
        <ele>865.7</ele>
        <time>2021-09-07T13:24:03.000Z</time>
      </trkpt>
      <trkpt lat="43.73106" lon="6.35472">
        <ele>865.2</ele>
        <time>2021-09-07T13:24:03.000Z</time>
      </trkpt>
      <trkpt lat="43.73104" lon="6.35475">
        <ele>865.4</ele>
        <time>2021-09-07T13:24:04.000Z</time>
      </trkpt>
      <trkpt lat="43.73097" lon="6.35493">
        <ele>865.9</ele>
        <time>2021-09-07T13:24:07.000Z</time>
      </trkpt>
      <trkpt lat="43.73094" lon="6.35499">
        <ele>866.3</ele>
        <time>2021-09-07T13:24:09.000Z</time>
      </trkpt>
      <trkpt lat="43.73098" lon="6.35492">
        <ele>865.9</ele>
        <time>2021-09-07T13:24:09.000Z</time>
      </trkpt>
      <trkpt lat="43.73093" lon="6.35502">
        <ele>866.5</ele>
        <time>2021-09-07T13:24:10.000Z</time>
      </trkpt>
      <trkpt lat="43.73096" lon="6.35496">
        <ele>865.9</ele>
        <time>2021-09-07T13:24:10.000Z</time>
      </trkpt>
      <trkpt lat="43.73091" lon="6.35506">
        <ele>866.4</ele>
        <time>2021-09-07T13:24:11.000Z</time>
      </trkpt>
      <trkpt lat="43.73091" lon="6.35509">
        <ele>866.5</ele>
        <time>2021-09-07T13:24:12.000Z</time>
      </trkpt>
      <trkpt lat="43.73093" lon="6.35501">
        <ele>866.5</ele>
        <time>2021-09-07T13:24:12.000Z</time>
      </trkpt>
      <trkpt lat="43.73092" lon="6.35505">
        <ele>866.4</ele>
        <time>2021-09-07T13:24:13.000Z</time>
      </trkpt>
      <trkpt lat="43.73088" lon="6.35517">
        <ele>867</ele>
        <time>2021-09-07T13:24:15.000Z</time>
      </trkpt>
      <trkpt lat="43.73087" lon="6.35519">
        <ele>867.2</ele>
        <time>2021-09-07T13:24:16.000Z</time>
      </trkpt>
      <trkpt lat="43.73086" lon="6.35525">
        <ele>867.2</ele>
        <time>2021-09-07T13:24:18.000Z</time>
      </trkpt>
      <trkpt lat="43.73083" lon="6.35531">
        <ele>867.7</ele>
        <time>2021-09-07T13:24:20.000Z</time>
      </trkpt>
      <trkpt lat="43.73085" lon="6.35528">
        <ele>867.3</ele>
        <time>2021-09-07T13:24:21.000Z</time>
      </trkpt>
      <trkpt lat="43.73083" lon="6.35533">
        <ele>867.7</ele>
        <time>2021-09-07T13:24:23.000Z</time>
      </trkpt>
      <trkpt lat="43.73074" lon="6.35553">
        <ele>869</ele>
        <time>2021-09-07T13:24:27.000Z</time>
      </trkpt>
      <trkpt lat="43.73076" lon="6.35548">
        <ele>868.5</ele>
        <time>2021-09-07T13:24:28.000Z</time>
      </trkpt>
      <trkpt lat="43.73073" lon="6.35554">
        <ele>869.1</ele>
        <time>2021-09-07T13:24:30.000Z</time>
      </trkpt>
      <trkpt lat="43.73068" lon="6.35563">
        <ele>869.3</ele>
        <time>2021-09-07T13:24:30.000Z</time>
      </trkpt>
      <trkpt lat="43.73068" lon="6.35563">
        <ele>869.3</ele>
        <time>2021-09-07T13:24:30.000Z</time>
      </trkpt>
      <trkpt lat="43.73065" lon="6.35568">
        <ele>869.7</ele>
        <time>2021-09-07T13:24:32.000Z</time>
      </trkpt>
      <trkpt lat="43.73063" lon="6.35571">
        <ele>870</ele>
        <time>2021-09-07T13:24:33.000Z</time>
      </trkpt>
      <trkpt lat="43.73067" lon="6.35565">
        <ele>869.5</ele>
        <time>2021-09-07T13:24:33.000Z</time>
      </trkpt>
      <trkpt lat="43.73062" lon="6.35574">
        <ele>869.7</ele>
        <time>2021-09-07T13:24:34.000Z</time>
      </trkpt>
      <trkpt lat="43.73064" lon="6.3557">
        <ele>869.8</ele>
        <time>2021-09-07T13:24:35.000Z</time>
      </trkpt>
      <trkpt lat="43.73062" lon="6.35573">
        <ele>869.8</ele>
        <time>2021-09-07T13:24:36.000Z</time>
      </trkpt>
      <trkpt lat="43.73061" lon="6.35577">
        <ele>870.1</ele>
        <time>2021-09-07T13:24:37.000Z</time>
      </trkpt>
      <trkpt lat="43.73057" lon="6.35584">
        <ele>870.2</ele>
        <time>2021-09-07T13:24:37.000Z</time>
      </trkpt>
      <trkpt lat="43.73056" lon="6.35587">
        <ele>870.5</ele>
        <time>2021-09-07T13:24:40.000Z</time>
      </trkpt>
      <trkpt lat="43.73053" lon="6.35594">
        <ele>870.9</ele>
        <time>2021-09-07T13:24:40.000Z</time>
      </trkpt>
      <trkpt lat="43.73052" lon="6.35597">
        <ele>871</ele>
        <time>2021-09-07T13:24:43.000Z</time>
      </trkpt>
      <trkpt lat="43.73047" lon="6.35613">
        <ele>871.5</ele>
        <time>2021-09-07T13:24:45.000Z</time>
      </trkpt>
      <trkpt lat="43.73046" lon="6.35615">
        <ele>871.5</ele>
        <time>2021-09-07T13:24:48.000Z</time>
      </trkpt>
      <trkpt lat="43.73042" lon="6.35627">
        <ele>871.9</ele>
        <time>2021-09-07T13:24:49.000Z</time>
      </trkpt>
      <trkpt lat="43.73039" lon="6.35634">
        <ele>872.3</ele>
        <time>2021-09-07T13:24:51.000Z</time>
      </trkpt>
      <trkpt lat="43.73038" lon="6.35638">
        <ele>872.7</ele>
        <time>2021-09-07T13:24:52.000Z</time>
      </trkpt>
      <trkpt lat="43.7304" lon="6.3563">
        <ele>871.9</ele>
        <time>2021-09-07T13:24:52.000Z</time>
      </trkpt>
      <trkpt lat="43.73036" lon="6.35645">
        <ele>872.7</ele>
        <time>2021-09-07T13:24:54.000Z</time>
      </trkpt>
      <trkpt lat="43.73038" lon="6.35637">
        <ele>872.5</ele>
        <time>2021-09-07T13:24:54.000Z</time>
      </trkpt>
      <trkpt lat="43.73035" lon="6.35649">
        <ele>872.9</ele>
        <time>2021-09-07T13:24:55.000Z</time>
      </trkpt>
      <trkpt lat="43.73037" lon="6.35641">
        <ele>872.6</ele>
        <time>2021-09-07T13:24:55.000Z</time>
      </trkpt>
      <trkpt lat="43.73035" lon="6.35652">
        <ele>873.2</ele>
        <time>2021-09-07T13:24:56.000Z</time>
      </trkpt>
      <trkpt lat="43.73034" lon="6.35656">
        <ele>873.3</ele>
        <time>2021-09-07T13:24:57.000Z</time>
      </trkpt>
      <trkpt lat="43.73035" lon="6.35647">
        <ele>872.8</ele>
        <time>2021-09-07T13:24:57.000Z</time>
      </trkpt>
      <trkpt lat="43.73035" lon="6.35651">
        <ele>873.1</ele>
        <time>2021-09-07T13:24:58.000Z</time>
      </trkpt>
      <trkpt lat="43.73033" lon="6.35663">
        <ele>873.6</ele>
        <time>2021-09-07T13:24:59.000Z</time>
      </trkpt>
      <trkpt lat="43.73032" lon="6.35667">
        <ele>873.8</ele>
        <time>2021-09-07T13:25:00.000Z</time>
      </trkpt>
      <trkpt lat="43.7303" lon="6.35673">
        <ele>873.8</ele>
        <time>2021-09-07T13:25:02.000Z</time>
      </trkpt>
      <trkpt lat="43.73032" lon="6.35665">
        <ele>873.7</ele>
        <time>2021-09-07T13:25:02.000Z</time>
      </trkpt>
      <trkpt lat="43.73031" lon="6.3567">
        <ele>873.6</ele>
        <time>2021-09-07T13:25:03.000Z</time>
      </trkpt>
      <trkpt lat="43.73028" lon="6.35679">
        <ele>873.9</ele>
        <time>2021-09-07T13:25:04.000Z</time>
      </trkpt>
      <trkpt lat="43.73029" lon="6.35674">
        <ele>873.9</ele>
        <time>2021-09-07T13:25:05.000Z</time>
      </trkpt>
      <trkpt lat="43.73028" lon="6.35681">
        <ele>874</ele>
        <time>2021-09-07T13:25:07.000Z</time>
      </trkpt>
      <trkpt lat="43.73026" lon="6.35688">
        <ele>874.1</ele>
        <time>2021-09-07T13:25:07.000Z</time>
      </trkpt>
      <trkpt lat="43.73025" lon="6.35691">
        <ele>874.3</ele>
        <time>2021-09-07T13:25:08.000Z</time>
      </trkpt>
      <trkpt lat="43.73026" lon="6.35691">
        <ele>874.2</ele>
        <time>2021-09-07T13:25:10.000Z</time>
      </trkpt>
      <trkpt lat="43.73025" lon="6.35693">
        <ele>874.5</ele>
        <time>2021-09-07T13:25:11.000Z</time>
      </trkpt>
      <trkpt lat="43.73023" lon="6.35707">
        <ele>875.3</ele>
        <time>2021-09-07T13:25:12.000Z</time>
      </trkpt>
      <trkpt lat="43.73023" lon="6.3571">
        <ele>875.4</ele>
        <time>2021-09-07T13:25:15.000Z</time>
      </trkpt>
      <trkpt lat="43.73024" lon="6.35722">
        <ele>875.3</ele>
        <time>2021-09-07T13:25:16.000Z</time>
      </trkpt>
      <trkpt lat="43.73024" lon="6.35725">
        <ele>875.3</ele>
        <time>2021-09-07T13:25:17.000Z</time>
      </trkpt>
      <trkpt lat="43.73025" lon="6.35728">
        <ele>875.4</ele>
        <time>2021-09-07T13:25:18.000Z</time>
      </trkpt>
      <trkpt lat="43.73025" lon="6.35732">
        <ele>875.6</ele>
        <time>2021-09-07T13:25:19.000Z</time>
      </trkpt>
      <trkpt lat="43.73024" lon="6.35724">
        <ele>875.2</ele>
        <time>2021-09-07T13:25:19.000Z</time>
      </trkpt>
      <trkpt lat="43.73026" lon="6.35736">
        <ele>875.8</ele>
        <time>2021-09-07T13:25:20.000Z</time>
      </trkpt>
      <trkpt lat="43.73025" lon="6.35727">
        <ele>875.2</ele>
        <time>2021-09-07T13:25:20.000Z</time>
      </trkpt>
      <trkpt lat="43.73025" lon="6.3573">
        <ele>875.4</ele>
        <time>2021-09-07T13:25:21.000Z</time>
      </trkpt>
      <trkpt lat="43.73026" lon="6.35734">
        <ele>875.8</ele>
        <time>2021-09-07T13:25:22.000Z</time>
      </trkpt>
      <trkpt lat="43.73027" lon="6.35738">
        <ele>875.8</ele>
        <time>2021-09-07T13:25:23.000Z</time>
      </trkpt>
      <trkpt lat="43.7303" lon="6.35743">
        <ele>876.1</ele>
        <time>2021-09-07T13:25:23.000Z</time>
      </trkpt>
      <trkpt lat="43.73032" lon="6.35746">
        <ele>876.4</ele>
        <time>2021-09-07T13:25:24.000Z</time>
      </trkpt>
      <trkpt lat="43.73031" lon="6.35744">
        <ele>876.2</ele>
        <time>2021-09-07T13:25:26.000Z</time>
      </trkpt>
      <trkpt lat="43.73032" lon="6.35748">
        <ele>876.5</ele>
        <time>2021-09-07T13:25:27.000Z</time>
      </trkpt>
      <trkpt lat="43.73034" lon="6.35754">
        <ele>876.5</ele>
        <time>2021-09-07T13:25:27.000Z</time>
      </trkpt>
      <trkpt lat="43.73035" lon="6.35757">
        <ele>876.6</ele>
        <time>2021-09-07T13:25:28.000Z</time>
      </trkpt>
      <trkpt lat="43.73035" lon="6.35765">
        <ele>876.5</ele>
        <time>2021-09-07T13:25:33.000Z</time>
      </trkpt>
      <trkpt lat="43.73036" lon="6.35768">
        <ele>876.6</ele>
        <time>2021-09-07T13:25:34.000Z</time>
      </trkpt>
      <trkpt lat="43.73036" lon="6.35771">
        <ele>876.7</ele>
        <time>2021-09-07T13:25:35.000Z</time>
      </trkpt>
      <trkpt lat="43.73036" lon="6.35779">
        <ele>877</ele>
        <time>2021-09-07T13:25:35.000Z</time>
      </trkpt>
      <trkpt lat="43.73036" lon="6.35782">
        <ele>877.2</ele>
        <time>2021-09-07T13:25:36.000Z</time>
      </trkpt>
      <trkpt lat="43.73037" lon="6.35789">
        <ele>877.1</ele>
        <time>2021-09-07T13:25:38.000Z</time>
      </trkpt>
      <trkpt lat="43.73036" lon="6.3578">
        <ele>877.1</ele>
        <time>2021-09-07T13:25:38.000Z</time>
      </trkpt>
      <trkpt lat="43.73037" lon="6.35785">
        <ele>877.2</ele>
        <time>2021-09-07T13:25:39.000Z</time>
      </trkpt>
      <trkpt lat="43.73037" lon="6.3579">
        <ele>877</ele>
        <time>2021-09-07T13:25:41.000Z</time>
      </trkpt>
      <trkpt lat="43.73034" lon="6.35809">
        <ele>877.5</ele>
        <time>2021-09-07T13:25:46.000Z</time>
      </trkpt>
      <trkpt lat="43.73033" lon="6.35818">
        <ele>877.9</ele>
        <time>2021-09-07T13:25:46.000Z</time>
      </trkpt>
      <trkpt lat="43.73033" lon="6.35822">
        <ele>878.1</ele>
        <time>2021-09-07T13:25:47.000Z</time>
      </trkpt>
      <trkpt lat="43.73033" lon="6.35825">
        <ele>878.2</ele>
        <time>2021-09-07T13:25:48.000Z</time>
      </trkpt>
      <trkpt lat="43.73033" lon="6.3582">
        <ele>878.1</ele>
        <time>2021-09-07T13:25:49.000Z</time>
      </trkpt>
      <trkpt lat="43.73033" lon="6.35824">
        <ele>878.2</ele>
        <time>2021-09-07T13:25:50.000Z</time>
      </trkpt>
      <trkpt lat="43.73033" lon="6.35827">
        <ele>878.2</ele>
        <time>2021-09-07T13:25:51.000Z</time>
      </trkpt>
      <trkpt lat="43.73033" lon="6.35835">
        <ele>878.4</ele>
        <time>2021-09-07T13:25:51.000Z</time>
      </trkpt>
      <trkpt lat="43.73032" lon="6.35838">
        <ele>878.6</ele>
        <time>2021-09-07T13:25:52.000Z</time>
      </trkpt>
      <trkpt lat="43.7303" lon="6.35847">
        <ele>878.7</ele>
        <time>2021-09-07T13:25:57.000Z</time>
      </trkpt>
      <trkpt lat="43.73028" lon="6.35857">
        <ele>879</ele>
        <time>2021-09-07T13:25:57.000Z</time>
      </trkpt>
      <trkpt lat="43.73027" lon="6.35864">
        <ele>879.3</ele>
        <time>2021-09-07T13:25:59.000Z</time>
      </trkpt>
      <trkpt lat="43.73027" lon="6.35868">
        <ele>879.8</ele>
        <time>2021-09-07T13:26:00.000Z</time>
      </trkpt>
      <trkpt lat="43.73028" lon="6.3586">
        <ele>879</ele>
        <time>2021-09-07T13:26:00.000Z</time>
      </trkpt>
      <trkpt lat="43.73026" lon="6.35872">
        <ele>880</ele>
        <time>2021-09-07T13:26:01.000Z</time>
      </trkpt>
      <trkpt lat="43.73027" lon="6.35867">
        <ele>879.6</ele>
        <time>2021-09-07T13:26:02.000Z</time>
      </trkpt>
      <trkpt lat="43.73025" lon="6.35882">
        <ele>880.4</ele>
        <time>2021-09-07T13:26:04.000Z</time>
      </trkpt>
      <trkpt lat="43.73025" lon="6.35884">
        <ele>880.5</ele>
        <time>2021-09-07T13:26:07.000Z</time>
      </trkpt>
      <trkpt lat="43.73023" lon="6.35907">
        <ele>880.9</ele>
        <time>2021-09-07T13:26:10.000Z</time>
      </trkpt>
      <trkpt lat="43.73023" lon="6.3591">
        <ele>881.1</ele>
        <time>2021-09-07T13:26:11.000Z</time>
      </trkpt>
      <trkpt lat="43.73024" lon="6.35904">
        <ele>881</ele>
        <time>2021-09-07T13:26:12.000Z</time>
      </trkpt>
      <trkpt lat="43.73022" lon="6.35924">
        <ele>881.7</ele>
        <time>2021-09-07T13:26:15.000Z</time>
      </trkpt>
      <trkpt lat="43.73022" lon="6.35927">
        <ele>881.9</ele>
        <time>2021-09-07T13:26:16.000Z</time>
      </trkpt>
      <trkpt lat="43.73022" lon="6.3593">
        <ele>882.1</ele>
        <time>2021-09-07T13:26:17.000Z</time>
      </trkpt>
      <trkpt lat="43.73022" lon="6.35922">
        <ele>881.5</ele>
        <time>2021-09-07T13:26:17.000Z</time>
      </trkpt>
      <trkpt lat="43.73022" lon="6.35926">
        <ele>881.8</ele>
        <time>2021-09-07T13:26:18.000Z</time>
      </trkpt>
      <trkpt lat="43.73022" lon="6.35929">
        <ele>882</ele>
        <time>2021-09-07T13:26:19.000Z</time>
      </trkpt>
      <trkpt lat="43.73022" lon="6.35933">
        <ele>882</ele>
        <time>2021-09-07T13:26:20.000Z</time>
      </trkpt>
      <trkpt lat="43.73022" lon="6.35941">
        <ele>882.2</ele>
        <time>2021-09-07T13:26:20.000Z</time>
      </trkpt>
      <trkpt lat="43.73022" lon="6.3595">
        <ele>882.4</ele>
        <time>2021-09-07T13:26:22.000Z</time>
      </trkpt>
      <trkpt lat="43.73022" lon="6.35942">
        <ele>882.2</ele>
        <time>2021-09-07T13:26:23.000Z</time>
      </trkpt>
      <trkpt lat="43.73022" lon="6.35958">
        <ele>882.7</ele>
        <time>2021-09-07T13:26:24.000Z</time>
      </trkpt>
      <trkpt lat="43.73022" lon="6.35953">
        <ele>882.4</ele>
        <time>2021-09-07T13:26:25.000Z</time>
      </trkpt>
      <trkpt lat="43.73021" lon="6.35964">
        <ele>883</ele>
        <time>2021-09-07T13:26:26.000Z</time>
      </trkpt>
      <trkpt lat="43.7302" lon="6.35967">
        <ele>883.3</ele>
        <time>2021-09-07T13:26:27.000Z</time>
      </trkpt>
      <trkpt lat="43.73022" lon="6.35959">
        <ele>882.8</ele>
        <time>2021-09-07T13:26:27.000Z</time>
      </trkpt>
      <trkpt lat="43.73021" lon="6.35966">
        <ele>883.1</ele>
        <time>2021-09-07T13:26:29.000Z</time>
      </trkpt>
      <trkpt lat="43.7302" lon="6.3597">
        <ele>883.4</ele>
        <time>2021-09-07T13:26:30.000Z</time>
      </trkpt>
      <trkpt lat="43.73021" lon="6.35978">
        <ele>883.9</ele>
        <time>2021-09-07T13:26:30.000Z</time>
      </trkpt>
      <trkpt lat="43.73021" lon="6.3598">
        <ele>883.9</ele>
        <time>2021-09-07T13:26:33.000Z</time>
      </trkpt>
      <trkpt lat="43.73022" lon="6.35992">
        <ele>884.7</ele>
        <time>2021-09-07T13:26:34.000Z</time>
      </trkpt>
      <trkpt lat="43.73021" lon="6.35985">
        <ele>884</ele>
        <time>2021-09-07T13:26:34.000Z</time>
      </trkpt>
      <trkpt lat="43.73022" lon="6.35996">
        <ele>884.9</ele>
        <time>2021-09-07T13:26:35.000Z</time>
      </trkpt>
      <trkpt lat="43.73022" lon="6.35988">
        <ele>884.1</ele>
        <time>2021-09-07T13:26:35.000Z</time>
      </trkpt>
      <trkpt lat="43.73022" lon="6.36004">
        <ele>885</ele>
        <time>2021-09-07T13:26:37.000Z</time>
      </trkpt>
      <trkpt lat="43.73022" lon="6.35995">
        <ele>884.8</ele>
        <time>2021-09-07T13:26:37.000Z</time>
      </trkpt>
      <trkpt lat="43.73022" lon="6.35999">
        <ele>885</ele>
        <time>2021-09-07T13:26:38.000Z</time>
      </trkpt>
      <trkpt lat="43.73022" lon="6.36011">
        <ele>885.5</ele>
        <time>2021-09-07T13:26:39.000Z</time>
      </trkpt>
      <trkpt lat="43.73022" lon="6.36014">
        <ele>885.5</ele>
        <time>2021-09-07T13:26:40.000Z</time>
      </trkpt>
      <trkpt lat="43.73022" lon="6.36006">
        <ele>885.2</ele>
        <time>2021-09-07T13:26:40.000Z</time>
      </trkpt>
      <trkpt lat="43.73022" lon="6.36018">
        <ele>885.7</ele>
        <time>2021-09-07T13:26:41.000Z</time>
      </trkpt>
      <trkpt lat="43.73022" lon="6.36021">
        <ele>885.9</ele>
        <time>2021-09-07T13:26:42.000Z</time>
      </trkpt>
      <trkpt lat="43.73022" lon="6.36012">
        <ele>885.6</ele>
        <time>2021-09-07T13:26:42.000Z</time>
      </trkpt>
      <trkpt lat="43.73022" lon="6.36017">
        <ele>885.6</ele>
        <time>2021-09-07T13:26:43.000Z</time>
      </trkpt>
      <trkpt lat="43.73021" lon="6.36029">
        <ele>885.8</ele>
        <time>2021-09-07T13:26:44.000Z</time>
      </trkpt>
      <trkpt lat="43.73021" lon="6.36033">
        <ele>885.5</ele>
        <time>2021-09-07T13:26:45.000Z</time>
      </trkpt>
      <trkpt lat="43.73021" lon="6.36037">
        <ele>885.8</ele>
        <time>2021-09-07T13:26:46.000Z</time>
      </trkpt>
      <trkpt lat="43.73021" lon="6.36031">
        <ele>885.6</ele>
        <time>2021-09-07T13:26:47.000Z</time>
      </trkpt>
      <trkpt lat="43.73021" lon="6.36035">
        <ele>885.5</ele>
        <time>2021-09-07T13:26:48.000Z</time>
      </trkpt>
      <trkpt lat="43.73021" lon="6.36039">
        <ele>886.1</ele>
        <time>2021-09-07T13:26:49.000Z</time>
      </trkpt>
      <trkpt lat="43.73017" lon="6.36056">
        <ele>886.5</ele>
        <time>2021-09-07T13:26:51.000Z</time>
      </trkpt>
      <trkpt lat="43.73017" lon="6.36059">
        <ele>886.5</ele>
        <time>2021-09-07T13:26:54.000Z</time>
      </trkpt>
      <trkpt lat="43.73014" lon="6.36065">
        <ele>887.2</ele>
        <time>2021-09-07T13:26:54.000Z</time>
      </trkpt>
      <trkpt lat="43.73014" lon="6.36067">
        <ele>887.2</ele>
        <time>2021-09-07T13:26:57.000Z</time>
      </trkpt>
      <trkpt lat="43.73007" lon="6.36083">
        <ele>887.9</ele>
        <time>2021-09-07T13:27:00.000Z</time>
      </trkpt>
      <trkpt lat="43.73008" lon="6.36081">
        <ele>888</ele>
        <time>2021-09-07T13:27:02.000Z</time>
      </trkpt>
      <trkpt lat="43.73006" lon="6.36084">
        <ele>888</ele>
        <time>2021-09-07T13:27:03.000Z</time>
      </trkpt>
      <trkpt lat="43.73003" lon="6.36092">
        <ele>888.2</ele>
        <time>2021-09-07T13:27:03.000Z</time>
      </trkpt>
      <trkpt lat="43.73" lon="6.36099">
        <ele>888.7</ele>
        <time>2021-09-07T13:27:05.000Z</time>
      </trkpt>
      <trkpt lat="43.73002" lon="6.36093">
        <ele>888.2</ele>
        <time>2021-09-07T13:27:06.000Z</time>
      </trkpt>
      <trkpt lat="43.72999" lon="6.36102">
        <ele>888.6</ele>
        <time>2021-09-07T13:27:06.000Z</time>
      </trkpt>
      <trkpt lat="43.72997" lon="6.36105">
        <ele>888.7</ele>
        <time>2021-09-07T13:27:07.000Z</time>
      </trkpt>
      <trkpt lat="43.72996" lon="6.36107">
        <ele>888.5</ele>
        <time>2021-09-07T13:27:10.000Z</time>
      </trkpt>
      <trkpt lat="43.72995" lon="6.36117">
        <ele>888.9</ele>
        <time>2021-09-07T13:27:11.000Z</time>
      </trkpt>
      <trkpt lat="43.72994" lon="6.3612">
        <ele>889</ele>
        <time>2021-09-07T13:27:12.000Z</time>
      </trkpt>
      <trkpt lat="43.72994" lon="6.36122">
        <ele>889.4</ele>
        <time>2021-09-07T13:27:13.000Z</time>
      </trkpt>
      <trkpt lat="43.72994" lon="6.36119">
        <ele>888.9</ele>
        <time>2021-09-07T13:27:14.000Z</time>
      </trkpt>
      <trkpt lat="43.72994" lon="6.36126">
        <ele>889.5</ele>
        <time>2021-09-07T13:27:15.000Z</time>
      </trkpt>
      <trkpt lat="43.72991" lon="6.3613">
        <ele>889.8</ele>
        <time>2021-09-07T13:27:17.000Z</time>
      </trkpt>
      <trkpt lat="43.72989" lon="6.36133">
        <ele>889.7</ele>
        <time>2021-09-07T13:27:18.000Z</time>
      </trkpt>
      <trkpt lat="43.72992" lon="6.36128">
        <ele>889.5</ele>
        <time>2021-09-07T13:27:18.000Z</time>
      </trkpt>
      <trkpt lat="43.7299" lon="6.36132">
        <ele>889.7</ele>
        <time>2021-09-07T13:27:20.000Z</time>
      </trkpt>
      <trkpt lat="43.72989" lon="6.36134">
        <ele>889.7</ele>
        <time>2021-09-07T13:27:21.000Z</time>
      </trkpt>
      <trkpt lat="43.72986" lon="6.3614">
        <ele>890.2</ele>
        <time>2021-09-07T13:27:21.000Z</time>
      </trkpt>
      <trkpt lat="43.72984" lon="6.36142">
        <ele>890.2</ele>
        <time>2021-09-07T13:27:22.000Z</time>
      </trkpt>
      <trkpt lat="43.72982" lon="6.36145">
        <ele>890.4</ele>
        <time>2021-09-07T13:27:23.000Z</time>
      </trkpt>
      <trkpt lat="43.72985" lon="6.36141">
        <ele>890.2</ele>
        <time>2021-09-07T13:27:24.000Z</time>
      </trkpt>
      <trkpt lat="43.72978" lon="6.36148">
        <ele>890.9</ele>
        <time>2021-09-07T13:27:25.000Z</time>
      </trkpt>
      <trkpt lat="43.72976" lon="6.3615">
        <ele>890.9</ele>
        <time>2021-09-07T13:27:26.000Z</time>
      </trkpt>
      <trkpt lat="43.7297" lon="6.36154">
        <ele>891.2</ele>
        <time>2021-09-07T13:27:28.000Z</time>
      </trkpt>
      <trkpt lat="43.72977" lon="6.36149">
        <ele>891</ele>
        <time>2021-09-07T13:27:28.000Z</time>
      </trkpt>
      <trkpt lat="43.72966" lon="6.36157">
        <ele>891.4</ele>
        <time>2021-09-07T13:27:29.000Z</time>
      </trkpt>
      <trkpt lat="43.72974" lon="6.36151">
        <ele>890.8</ele>
        <time>2021-09-07T13:27:29.000Z</time>
      </trkpt>
      <trkpt lat="43.72961" lon="6.36162">
        <ele>891.5</ele>
        <time>2021-09-07T13:27:31.000Z</time>
      </trkpt>
      <trkpt lat="43.72968" lon="6.36156">
        <ele>891.4</ele>
        <time>2021-09-07T13:27:31.000Z</time>
      </trkpt>
      <trkpt lat="43.72964" lon="6.36159">
        <ele>891.6</ele>
        <time>2021-09-07T13:27:32.000Z</time>
      </trkpt>
      <trkpt lat="43.72964" lon="6.36159">
        <ele>891.6</ele>
        <time>2021-09-07T13:27:32.000Z</time>
      </trkpt>
      <trkpt lat="43.72959" lon="6.36164">
        <ele>891.7</ele>
        <time>2021-09-07T13:27:34.000Z</time>
      </trkpt>
      <trkpt lat="43.72956" lon="6.36168">
        <ele>891.9</ele>
        <time>2021-09-07T13:27:35.000Z</time>
      </trkpt>
      <trkpt lat="43.72942" lon="6.36186">
        <ele>893.1</ele>
        <time>2021-09-07T13:27:39.000Z</time>
      </trkpt>
      <trkpt lat="43.7294" lon="6.36188">
        <ele>893.1</ele>
        <time>2021-09-07T13:27:40.000Z</time>
      </trkpt>
      <trkpt lat="43.72945" lon="6.36182">
        <ele>892.9</ele>
        <time>2021-09-07T13:27:40.000Z</time>
      </trkpt>
      <trkpt lat="43.72938" lon="6.36191">
        <ele>893.3</ele>
        <time>2021-09-07T13:27:41.000Z</time>
      </trkpt>
      <trkpt lat="43.72941" lon="6.36187">
        <ele>893.3</ele>
        <time>2021-09-07T13:27:42.000Z</time>
      </trkpt>
      <trkpt lat="43.72934" lon="6.36196">
        <ele>893.1</ele>
        <time>2021-09-07T13:27:43.000Z</time>
      </trkpt>
      <trkpt lat="43.72939" lon="6.3619">
        <ele>893.1</ele>
        <time>2021-09-07T13:27:43.000Z</time>
      </trkpt>
      <trkpt lat="43.72936" lon="6.36194">
        <ele>893.3</ele>
        <time>2021-09-07T13:27:44.000Z</time>
      </trkpt>
      <trkpt lat="43.72933" lon="6.36198">
        <ele>893.6</ele>
        <time>2021-09-07T13:27:46.000Z</time>
      </trkpt>
      <trkpt lat="43.72929" lon="6.36204">
        <ele>894.1</ele>
        <time>2021-09-07T13:27:46.000Z</time>
      </trkpt>
      <trkpt lat="43.72927" lon="6.36209">
        <ele>894.1</ele>
        <time>2021-09-07T13:27:48.000Z</time>
      </trkpt>
      <trkpt lat="43.72928" lon="6.36206">
        <ele>894.1</ele>
        <time>2021-09-07T13:27:49.000Z</time>
      </trkpt>
      <trkpt lat="43.72925" lon="6.36212">
        <ele>894.2</ele>
        <time>2021-09-07T13:27:49.000Z</time>
      </trkpt>
      <trkpt lat="43.72924" lon="6.36214">
        <ele>894.4</ele>
        <time>2021-09-07T13:27:50.000Z</time>
      </trkpt>
      <trkpt lat="43.72921" lon="6.36219">
        <ele>894.9</ele>
        <time>2021-09-07T13:27:52.000Z</time>
      </trkpt>
      <trkpt lat="43.7292" lon="6.36221">
        <ele>895</ele>
        <time>2021-09-07T13:27:53.000Z</time>
      </trkpt>
      <trkpt lat="43.72923" lon="6.36216">
        <ele>894.6</ele>
        <time>2021-09-07T13:27:53.000Z</time>
      </trkpt>
      <trkpt lat="43.72918" lon="6.36224">
        <ele>894.8</ele>
        <time>2021-09-07T13:27:54.000Z</time>
      </trkpt>
      <trkpt lat="43.72921" lon="6.3622">
        <ele>895.1</ele>
        <time>2021-09-07T13:27:55.000Z</time>
      </trkpt>
      <trkpt lat="43.72919" lon="6.36223">
        <ele>894.9</ele>
        <time>2021-09-07T13:27:56.000Z</time>
      </trkpt>
      <trkpt lat="43.72917" lon="6.36226">
        <ele>894.9</ele>
        <time>2021-09-07T13:27:57.000Z</time>
      </trkpt>
      <trkpt lat="43.72913" lon="6.36231">
        <ele>895.5</ele>
        <time>2021-09-07T13:27:57.000Z</time>
      </trkpt>
      <trkpt lat="43.72913" lon="6.36232">
        <ele>895.5</ele>
        <time>2021-09-07T13:28:00.000Z</time>
      </trkpt>
      <trkpt lat="43.72908" lon="6.36238">
        <ele>895.2</ele>
        <time>2021-09-07T13:28:00.000Z</time>
      </trkpt>
      <trkpt lat="43.72906" lon="6.3624">
        <ele>895.7</ele>
        <time>2021-09-07T13:28:01.000Z</time>
      </trkpt>
      <trkpt lat="43.729" lon="6.36247">
        <ele>896.2</ele>
        <time>2021-09-07T13:28:04.000Z</time>
      </trkpt>
      <trkpt lat="43.72901" lon="6.36246">
        <ele>896.2</ele>
        <time>2021-09-07T13:28:06.000Z</time>
      </trkpt>
      <trkpt lat="43.72899" lon="6.36249">
        <ele>896.3</ele>
        <time>2021-09-07T13:28:07.000Z</time>
      </trkpt>
      <trkpt lat="43.72894" lon="6.36257">
        <ele>897</ele>
        <time>2021-09-07T13:28:08.000Z</time>
      </trkpt>
      <trkpt lat="43.72894" lon="6.36258">
        <ele>896.9</ele>
        <time>2021-09-07T13:28:11.000Z</time>
      </trkpt>
      <trkpt lat="43.72885" lon="6.36273">
        <ele>897.7</ele>
        <time>2021-09-07T13:28:14.000Z</time>
      </trkpt>
      <trkpt lat="43.72883" lon="6.36275">
        <ele>897.9</ele>
        <time>2021-09-07T13:28:15.000Z</time>
      </trkpt>
      <trkpt lat="43.72881" lon="6.36277">
        <ele>898</ele>
        <time>2021-09-07T13:28:16.000Z</time>
      </trkpt>
      <trkpt lat="43.72886" lon="6.36272">
        <ele>897.6</ele>
        <time>2021-09-07T13:28:16.000Z</time>
      </trkpt>
      <trkpt lat="43.72884" lon="6.36274">
        <ele>897.7</ele>
        <time>2021-09-07T13:28:17.000Z</time>
      </trkpt>
      <trkpt lat="43.72875" lon="6.36285">
        <ele>898.4</ele>
        <time>2021-09-07T13:28:19.000Z</time>
      </trkpt>
      <trkpt lat="43.72874" lon="6.36286">
        <ele>898.3</ele>
        <time>2021-09-07T13:28:22.000Z</time>
      </trkpt>
      <trkpt lat="43.72871" lon="6.36291">
        <ele>898.3</ele>
        <time>2021-09-07T13:28:22.000Z</time>
      </trkpt>
      <trkpt lat="43.72867" lon="6.36297">
        <ele>898.7</ele>
        <time>2021-09-07T13:28:24.000Z</time>
      </trkpt>
      <trkpt lat="43.72869" lon="6.36294">
        <ele>898.6</ele>
        <time>2021-09-07T13:28:25.000Z</time>
      </trkpt>
      <trkpt lat="43.72865" lon="6.36299">
        <ele>899</ele>
        <time>2021-09-07T13:28:27.000Z</time>
      </trkpt>
      <trkpt lat="43.7286" lon="6.36305">
        <ele>899.4</ele>
        <time>2021-09-07T13:28:27.000Z</time>
      </trkpt>
      <trkpt lat="43.72858" lon="6.36308">
        <ele>899.7</ele>
        <time>2021-09-07T13:28:28.000Z</time>
      </trkpt>
      <trkpt lat="43.72856" lon="6.3631">
        <ele>900</ele>
        <time>2021-09-07T13:28:29.000Z</time>
      </trkpt>
      <trkpt lat="43.72859" lon="6.36307">
        <ele>899.6</ele>
        <time>2021-09-07T13:28:30.000Z</time>
      </trkpt>
      <trkpt lat="43.72853" lon="6.36313">
        <ele>900</ele>
        <time>2021-09-07T13:28:30.000Z</time>
      </trkpt>
      <trkpt lat="43.72852" lon="6.36315">
        <ele>900</ele>
        <time>2021-09-07T13:28:33.000Z</time>
      </trkpt>
      <trkpt lat="43.72847" lon="6.36321">
        <ele>900.4</ele>
        <time>2021-09-07T13:28:33.000Z</time>
      </trkpt>
      <trkpt lat="43.72847" lon="6.36321">
        <ele>900.4</ele>
        <time>2021-09-07T13:28:33.000Z</time>
      </trkpt>
      <trkpt lat="43.72846" lon="6.36322">
        <ele>900.4</ele>
        <time>2021-09-07T13:28:36.000Z</time>
      </trkpt>
      <trkpt lat="43.72835" lon="6.36333">
        <ele>900.8</ele>
        <time>2021-09-07T13:28:38.000Z</time>
      </trkpt>
      <trkpt lat="43.72833" lon="6.36335">
        <ele>900.9</ele>
        <time>2021-09-07T13:28:39.000Z</time>
      </trkpt>
      <trkpt lat="43.72834" lon="6.36334">
        <ele>900.9</ele>
        <time>2021-09-07T13:28:41.000Z</time>
      </trkpt>
      <trkpt lat="43.72832" lon="6.36336">
        <ele>901</ele>
        <time>2021-09-07T13:28:42.000Z</time>
      </trkpt>
      <trkpt lat="43.72825" lon="6.36343">
        <ele>901.7</ele>
        <time>2021-09-07T13:28:43.000Z</time>
      </trkpt>
      <trkpt lat="43.72821" lon="6.36348">
        <ele>902.2</ele>
        <time>2021-09-07T13:28:45.000Z</time>
      </trkpt>
      <trkpt lat="43.72823" lon="6.36345">
        <ele>901.9</ele>
        <time>2021-09-07T13:28:46.000Z</time>
      </trkpt>
      <trkpt lat="43.72818" lon="6.36353">
        <ele>902.2</ele>
        <time>2021-09-07T13:28:47.000Z</time>
      </trkpt>
      <trkpt lat="43.72817" lon="6.36355">
        <ele>902.4</ele>
        <time>2021-09-07T13:28:48.000Z</time>
      </trkpt>
      <trkpt lat="43.7282" lon="6.3635">
        <ele>902</ele>
        <time>2021-09-07T13:28:48.000Z</time>
      </trkpt>
      <trkpt lat="43.72815" lon="6.36357">
        <ele>902.4</ele>
        <time>2021-09-07T13:28:49.000Z</time>
      </trkpt>
      <trkpt lat="43.72817" lon="6.36354">
        <ele>902.4</ele>
        <time>2021-09-07T13:28:50.000Z</time>
      </trkpt>
      <trkpt lat="43.72812" lon="6.36362">
        <ele>902.8</ele>
        <time>2021-09-07T13:28:51.000Z</time>
      </trkpt>
      <trkpt lat="43.72816" lon="6.36356">
        <ele>902.3</ele>
        <time>2021-09-07T13:28:51.000Z</time>
      </trkpt>
      <trkpt lat="43.72814" lon="6.36359">
        <ele>902.6</ele>
        <time>2021-09-07T13:28:52.000Z</time>
      </trkpt>
      <trkpt lat="43.7281" lon="6.36364">
        <ele>903.2</ele>
        <time>2021-09-07T13:28:52.000Z</time>
      </trkpt>
      <trkpt lat="43.72807" lon="6.3637">
        <ele>903.5</ele>
        <time>2021-09-07T13:28:54.000Z</time>
      </trkpt>
      <trkpt lat="43.72806" lon="6.36372">
        <ele>903.5</ele>
        <time>2021-09-07T13:28:55.000Z</time>
      </trkpt>
      <trkpt lat="43.72803" lon="6.36377">
        <ele>903.7</ele>
        <time>2021-09-07T13:28:57.000Z</time>
      </trkpt>
      <trkpt lat="43.72807" lon="6.36371">
        <ele>903.5</ele>
        <time>2021-09-07T13:28:57.000Z</time>
      </trkpt>
      <trkpt lat="43.72802" lon="6.3638">
        <ele>904.2</ele>
        <time>2021-09-07T13:28:58.000Z</time>
      </trkpt>
      <trkpt lat="43.72805" lon="6.36375">
        <ele>903.6</ele>
        <time>2021-09-07T13:28:58.000Z</time>
      </trkpt>
      <trkpt lat="43.728" lon="6.36383">
        <ele>904.1</ele>
        <time>2021-09-07T13:28:59.000Z</time>
      </trkpt>
      <trkpt lat="43.72799" lon="6.36386">
        <ele>904.3</ele>
        <time>2021-09-07T13:29:00.000Z</time>
      </trkpt>
      <trkpt lat="43.72803" lon="6.36379">
        <ele>903.9</ele>
        <time>2021-09-07T13:29:00.000Z</time>
      </trkpt>
      <trkpt lat="43.72801" lon="6.36382">
        <ele>904.1</ele>
        <time>2021-09-07T13:29:01.000Z</time>
      </trkpt>
      <trkpt lat="43.72793" lon="6.36397">
        <ele>904.6</ele>
        <time>2021-09-07T13:29:04.000Z</time>
      </trkpt>
      <trkpt lat="43.72794" lon="6.36396">
        <ele>904.6</ele>
        <time>2021-09-07T13:29:06.000Z</time>
      </trkpt>
      <trkpt lat="43.72792" lon="6.36399">
        <ele>904.9</ele>
        <time>2021-09-07T13:29:07.000Z</time>
      </trkpt>
      <trkpt lat="43.72784" lon="6.36412">
        <ele>906.2</ele>
        <time>2021-09-07T13:29:12.000Z</time>
      </trkpt>
      <trkpt lat="43.7278" lon="6.36418">
        <ele>906.1</ele>
        <time>2021-09-07T13:29:12.000Z</time>
      </trkpt>
      <trkpt lat="43.72778" lon="6.3642">
        <ele>906.4</ele>
        <time>2021-09-07T13:29:13.000Z</time>
      </trkpt>
      <trkpt lat="43.72775" lon="6.36424">
        <ele>906.7</ele>
        <time>2021-09-07T13:29:15.000Z</time>
      </trkpt>
      <trkpt lat="43.72779" lon="6.36419">
        <ele>906.2</ele>
        <time>2021-09-07T13:29:15.000Z</time>
      </trkpt>
      <trkpt lat="43.72777" lon="6.36421">
        <ele>906.4</ele>
        <time>2021-09-07T13:29:16.000Z</time>
      </trkpt>
      <trkpt lat="43.72772" lon="6.36429">
        <ele>906.9</ele>
        <time>2021-09-07T13:29:17.000Z</time>
      </trkpt>
      <trkpt lat="43.7277" lon="6.36432">
        <ele>907</ele>
        <time>2021-09-07T13:29:18.000Z</time>
      </trkpt>
      <trkpt lat="43.72775" lon="6.36425">
        <ele>906.6</ele>
        <time>2021-09-07T13:29:18.000Z</time>
      </trkpt>
      <trkpt lat="43.72768" lon="6.36434">
        <ele>906.9</ele>
        <time>2021-09-07T13:29:19.000Z</time>
      </trkpt>
      <trkpt lat="43.7277" lon="6.36432">
        <ele>907</ele>
        <time>2021-09-07T13:29:20.000Z</time>
      </trkpt>
      <trkpt lat="43.72766" lon="6.36437">
        <ele>907.1</ele>
        <time>2021-09-07T13:29:20.000Z</time>
      </trkpt>
      <trkpt lat="43.72765" lon="6.3644">
        <ele>907.4</ele>
        <time>2021-09-07T13:29:21.000Z</time>
      </trkpt>
      <trkpt lat="43.72763" lon="6.36442">
        <ele>907.6</ele>
        <time>2021-09-07T13:29:22.000Z</time>
      </trkpt>
      <trkpt lat="43.72761" lon="6.36445">
        <ele>907.9</ele>
        <time>2021-09-07T13:29:23.000Z</time>
      </trkpt>
      <trkpt lat="43.72765" lon="6.36438">
        <ele>907.3</ele>
        <time>2021-09-07T13:29:23.000Z</time>
      </trkpt>
      <trkpt lat="43.7276" lon="6.36448">
        <ele>907.9</ele>
        <time>2021-09-07T13:29:24.000Z</time>
      </trkpt>
      <trkpt lat="43.72764" lon="6.36441">
        <ele>907.5</ele>
        <time>2021-09-07T13:29:24.000Z</time>
      </trkpt>
      <trkpt lat="43.72758" lon="6.36451">
        <ele>907.8</ele>
        <time>2021-09-07T13:29:25.000Z</time>
      </trkpt>
      <trkpt lat="43.72762" lon="6.36444">
        <ele>907.8</ele>
        <time>2021-09-07T13:29:25.000Z</time>
      </trkpt>
      <trkpt lat="43.7276" lon="6.36447">
        <ele>907.9</ele>
        <time>2021-09-07T13:29:26.000Z</time>
      </trkpt>
      <trkpt lat="43.72755" lon="6.36457">
        <ele>908.2</ele>
        <time>2021-09-07T13:29:27.000Z</time>
      </trkpt>
      <trkpt lat="43.72753" lon="6.36464">
        <ele>908.4</ele>
        <time>2021-09-07T13:29:29.000Z</time>
      </trkpt>
      <trkpt lat="43.72754" lon="6.3646">
        <ele>908.3</ele>
        <time>2021-09-07T13:29:30.000Z</time>
      </trkpt>
      <trkpt lat="43.72751" lon="6.3647">
        <ele>908.6</ele>
        <time>2021-09-07T13:29:31.000Z</time>
      </trkpt>
      <trkpt lat="43.72751" lon="6.36473">
        <ele>908.9</ele>
        <time>2021-09-07T13:29:32.000Z</time>
      </trkpt>
      <trkpt lat="43.72752" lon="6.36467">
        <ele>908.3</ele>
        <time>2021-09-07T13:29:32.000Z</time>
      </trkpt>
      <trkpt lat="43.72751" lon="6.36478">
        <ele>909.1</ele>
        <time>2021-09-07T13:29:33.000Z</time>
      </trkpt>
      <trkpt lat="43.72751" lon="6.36472">
        <ele>908.7</ele>
        <time>2021-09-07T13:29:34.000Z</time>
      </trkpt>
      <trkpt lat="43.72751" lon="6.36476">
        <ele>908.9</ele>
        <time>2021-09-07T13:29:35.000Z</time>
      </trkpt>
      <trkpt lat="43.72751" lon="6.36489">
        <ele>909.3</ele>
        <time>2021-09-07T13:29:36.000Z</time>
      </trkpt>
      <trkpt lat="43.72754" lon="6.36496">
        <ele>909.9</ele>
        <time>2021-09-07T13:29:38.000Z</time>
      </trkpt>
      <trkpt lat="43.72753" lon="6.36491">
        <ele>909.5</ele>
        <time>2021-09-07T13:29:39.000Z</time>
      </trkpt>
      <trkpt lat="43.72756" lon="6.36501">
        <ele>910.2</ele>
        <time>2021-09-07T13:29:40.000Z</time>
      </trkpt>
      <trkpt lat="43.72754" lon="6.36499">
        <ele>910.3</ele>
        <time>2021-09-07T13:29:41.000Z</time>
      </trkpt>
      <trkpt lat="43.72757" lon="6.36503">
        <ele>910.2</ele>
        <time>2021-09-07T13:29:43.000Z</time>
      </trkpt>
      <trkpt lat="43.7276" lon="6.36507">
        <ele>910.5</ele>
        <time>2021-09-07T13:29:43.000Z</time>
      </trkpt>
      <trkpt lat="43.72762" lon="6.36509">
        <ele>910.7</ele>
        <time>2021-09-07T13:29:44.000Z</time>
      </trkpt>
      <trkpt lat="43.72766" lon="6.3651">
        <ele>910.7</ele>
        <time>2021-09-07T13:29:46.000Z</time>
      </trkpt>
      <trkpt lat="43.72761" lon="6.36508">
        <ele>910.6</ele>
        <time>2021-09-07T13:29:46.000Z</time>
      </trkpt>
      <trkpt lat="43.72762" lon="6.36509">
        <ele>910.7</ele>
        <time>2021-09-07T13:29:47.000Z</time>
      </trkpt>
      <trkpt lat="43.72767" lon="6.3651">
        <ele>910.8</ele>
        <time>2021-09-07T13:29:49.000Z</time>
      </trkpt>
      <trkpt lat="43.72771" lon="6.36511">
        <ele>911.3</ele>
        <time>2021-09-07T13:29:49.000Z</time>
      </trkpt>
      <trkpt lat="43.72773" lon="6.36511">
        <ele>911.5</ele>
        <time>2021-09-07T13:29:50.000Z</time>
      </trkpt>
      <trkpt lat="43.72776" lon="6.36512">
        <ele>911.7</ele>
        <time>2021-09-07T13:29:51.000Z</time>
      </trkpt>
      <trkpt lat="43.72773" lon="6.36511">
        <ele>911.3</ele>
        <time>2021-09-07T13:29:52.000Z</time>
      </trkpt>
      <trkpt lat="43.7278" lon="6.36512">
        <ele>911.2</ele>
        <time>2021-09-07T13:29:53.000Z</time>
      </trkpt>
      <trkpt lat="43.72782" lon="6.36511">
        <ele>911.2</ele>
        <time>2021-09-07T13:29:56.000Z</time>
      </trkpt>
      <trkpt lat="43.72787" lon="6.3651">
        <ele>911.5</ele>
        <time>2021-09-07T13:29:56.000Z</time>
      </trkpt>
      <trkpt lat="43.72789" lon="6.36509">
        <ele>911.6</ele>
        <time>2021-09-07T13:29:57.000Z</time>
      </trkpt>
      <trkpt lat="43.72794" lon="6.36506">
        <ele>912</ele>
        <time>2021-09-07T13:30:00.000Z</time>
      </trkpt>
      <trkpt lat="43.72797" lon="6.36503">
        <ele>912.7</ele>
        <time>2021-09-07T13:30:02.000Z</time>
      </trkpt>
      <trkpt lat="43.72793" lon="6.36507">
        <ele>911.9</ele>
        <time>2021-09-07T13:30:02.000Z</time>
      </trkpt>
      <trkpt lat="43.72795" lon="6.36505">
        <ele>912.2</ele>
        <time>2021-09-07T13:30:03.000Z</time>
      </trkpt>
      <trkpt lat="43.72798" lon="6.36502">
        <ele>912.6</ele>
        <time>2021-09-07T13:30:05.000Z</time>
      </trkpt>
      <trkpt lat="43.72806" lon="6.36492">
        <ele>913</ele>
        <time>2021-09-07T13:30:07.000Z</time>
      </trkpt>
      <trkpt lat="43.72811" lon="6.36487">
        <ele>913.4</ele>
        <time>2021-09-07T13:30:09.000Z</time>
      </trkpt>
      <trkpt lat="43.72813" lon="6.36484">
        <ele>913.6</ele>
        <time>2021-09-07T13:30:10.000Z</time>
      </trkpt>
      <trkpt lat="43.72808" lon="6.36489">
        <ele>913.1</ele>
        <time>2021-09-07T13:30:10.000Z</time>
      </trkpt>
      <trkpt lat="43.72815" lon="6.36482">
        <ele>913.6</ele>
        <time>2021-09-07T13:30:11.000Z</time>
      </trkpt>
      <trkpt lat="43.72812" lon="6.36485">
        <ele>913.4</ele>
        <time>2021-09-07T13:30:12.000Z</time>
      </trkpt>
      <trkpt lat="43.72819" lon="6.36478">
        <ele>913.7</ele>
        <time>2021-09-07T13:30:13.000Z</time>
      </trkpt>
      <trkpt lat="43.72825" lon="6.36475">
        <ele>914.1</ele>
        <time>2021-09-07T13:30:15.000Z</time>
      </trkpt>
      <trkpt lat="43.72827" lon="6.36473">
        <ele>914.1</ele>
        <time>2021-09-07T13:30:16.000Z</time>
      </trkpt>
      <trkpt lat="43.72822" lon="6.36477">
        <ele>913.7</ele>
        <time>2021-09-07T13:30:16.000Z</time>
      </trkpt>
      <trkpt lat="43.7283" lon="6.36472">
        <ele>914.1</ele>
        <time>2021-09-07T13:30:17.000Z</time>
      </trkpt>
      <trkpt lat="43.72826" lon="6.36475">
        <ele>914.2</ele>
        <time>2021-09-07T13:30:18.000Z</time>
      </trkpt>
      <trkpt lat="43.72834" lon="6.3647">
        <ele>914.4</ele>
        <time>2021-09-07T13:30:19.000Z</time>
      </trkpt>
      <trkpt lat="43.72829" lon="6.36473">
        <ele>914</ele>
        <time>2021-09-07T13:30:19.000Z</time>
      </trkpt>
      <trkpt lat="43.72832" lon="6.36471">
        <ele>914.2</ele>
        <time>2021-09-07T13:30:20.000Z</time>
      </trkpt>
      <trkpt lat="43.7284" lon="6.36468">
        <ele>914.6</ele>
        <time>2021-09-07T13:30:21.000Z</time>
      </trkpt>
      <trkpt lat="43.72837" lon="6.36469">
        <ele>914.5</ele>
        <time>2021-09-07T13:30:22.000Z</time>
      </trkpt>
      <trkpt lat="43.72844" lon="6.36466">
        <ele>914.8</ele>
        <time>2021-09-07T13:30:23.000Z</time>
      </trkpt>
      <trkpt lat="43.72847" lon="6.36465">
        <ele>915.3</ele>
        <time>2021-09-07T13:30:24.000Z</time>
      </trkpt>
      <trkpt lat="43.72842" lon="6.36467">
        <ele>914.7</ele>
        <time>2021-09-07T13:30:24.000Z</time>
      </trkpt>
      <trkpt lat="43.72853" lon="6.36464">
        <ele>915.2</ele>
        <time>2021-09-07T13:30:26.000Z</time>
      </trkpt>
      <trkpt lat="43.72846" lon="6.36465">
        <ele>915.1</ele>
        <time>2021-09-07T13:30:26.000Z</time>
      </trkpt>
      <trkpt lat="43.7285" lon="6.36465">
        <ele>915.7</ele>
        <time>2021-09-07T13:30:27.000Z</time>
      </trkpt>
      <trkpt lat="43.72855" lon="6.36464">
        <ele>915.5</ele>
        <time>2021-09-07T13:30:29.000Z</time>
      </trkpt>
      <trkpt lat="43.7286" lon="6.36462">
        <ele>915.9</ele>
        <time>2021-09-07T13:30:29.000Z</time>
      </trkpt>
      <trkpt lat="43.72863" lon="6.36462">
        <ele>915.9</ele>
        <time>2021-09-07T13:30:30.000Z</time>
      </trkpt>
      <trkpt lat="43.72866" lon="6.36461">
        <ele>916</ele>
        <time>2021-09-07T13:30:31.000Z</time>
      </trkpt>
      <trkpt lat="43.72862" lon="6.36462">
        <ele>915.9</ele>
        <time>2021-09-07T13:30:32.000Z</time>
      </trkpt>
      <trkpt lat="43.72875" lon="6.36462">
        <ele>916.6</ele>
        <time>2021-09-07T13:30:37.000Z</time>
      </trkpt>
      <trkpt lat="43.72886" lon="6.36463">
        <ele>917.3</ele>
        <time>2021-09-07T13:30:38.000Z</time>
      </trkpt>
      <trkpt lat="43.72879" lon="6.36462">
        <ele>916.8</ele>
        <time>2021-09-07T13:30:38.000Z</time>
      </trkpt>
      <trkpt lat="43.72889" lon="6.36463">
        <ele>917.3</ele>
        <time>2021-09-07T13:30:39.000Z</time>
      </trkpt>
      <trkpt lat="43.72881" lon="6.36462">
        <ele>917</ele>
        <time>2021-09-07T13:30:39.000Z</time>
      </trkpt>
      <trkpt lat="43.72888" lon="6.36463">
        <ele>917.3</ele>
        <time>2021-09-07T13:30:41.000Z</time>
      </trkpt>
      <trkpt lat="43.72891" lon="6.36464">
        <ele>917.1</ele>
        <time>2021-09-07T13:30:42.000Z</time>
      </trkpt>
      <trkpt lat="43.72896" lon="6.36467">
        <ele>917.4</ele>
        <time>2021-09-07T13:30:42.000Z</time>
      </trkpt>
      <trkpt lat="43.72897" lon="6.36468">
        <ele>917.6</ele>
        <time>2021-09-07T13:30:43.000Z</time>
      </trkpt>
      <trkpt lat="43.72899" lon="6.36467">
        <ele>917.9</ele>
        <time>2021-09-07T13:30:44.000Z</time>
      </trkpt>
      <trkpt lat="43.72901" lon="6.36466">
        <ele>918</ele>
        <time>2021-09-07T13:30:45.000Z</time>
      </trkpt>
      <trkpt lat="43.72897" lon="6.36468">
        <ele>917.4</ele>
        <time>2021-09-07T13:30:45.000Z</time>
      </trkpt>
      <trkpt lat="43.72898" lon="6.36468">
        <ele>917.6</ele>
        <time>2021-09-07T13:30:46.000Z</time>
      </trkpt>
      <trkpt lat="43.72897" lon="6.36465">
        <ele>917.8</ele>
        <time>2021-09-07T13:30:51.000Z</time>
      </trkpt>
      <trkpt lat="43.72896" lon="6.36465">
        <ele>918</ele>
        <time>2021-09-07T13:30:56.000Z</time>
      </trkpt>
      <trkpt lat="43.72896" lon="6.36465">
        <ele>917.9</ele>
        <time>2021-09-07T13:31:00.000Z</time>
      </trkpt>
      <trkpt lat="43.72896" lon="6.36465">
        <ele>918</ele>
        <time>2021-09-07T13:31:01.000Z</time>
      </trkpt>
      <trkpt lat="43.72896" lon="6.36464">
        <ele>918.2</ele>
        <time>2021-09-07T13:31:04.000Z</time>
      </trkpt>
      <trkpt lat="43.72896" lon="6.36464">
        <ele>918</ele>
        <time>2021-09-07T13:31:05.000Z</time>
      </trkpt>
      <trkpt lat="43.72896" lon="6.36465">
        <ele>918.2</ele>
        <time>2021-09-07T13:31:06.000Z</time>
      </trkpt>
      <trkpt lat="43.72896" lon="6.36464">
        <ele>918</ele>
        <time>2021-09-07T13:31:06.000Z</time>
      </trkpt>
      <trkpt lat="43.72895" lon="6.36464">
        <ele>918</ele>
        <time>2021-09-07T13:31:07.000Z</time>
      </trkpt>
      <trkpt lat="43.72895" lon="6.36464">
        <ele>918.2</ele>
        <time>2021-09-07T13:31:08.000Z</time>
      </trkpt>
      <trkpt lat="43.72895" lon="6.36464">
        <ele>918</ele>
        <time>2021-09-07T13:31:13.000Z</time>
      </trkpt>
      <trkpt lat="43.72895" lon="6.36464">
        <ele>917.9</ele>
        <time>2021-09-07T13:31:15.000Z</time>
      </trkpt>
      <trkpt lat="43.72895" lon="6.36464">
        <ele>917.8</ele>
        <time>2021-09-07T13:31:16.000Z</time>
      </trkpt>
      <trkpt lat="43.72895" lon="6.36464">
        <ele>917.6</ele>
        <time>2021-09-07T13:31:20.000Z</time>
      </trkpt>
      <trkpt lat="43.72895" lon="6.36463">
        <ele>917.7</ele>
        <time>2021-09-07T13:31:24.000Z</time>
      </trkpt>
      <trkpt lat="43.72896" lon="6.36463">
        <ele>917.3</ele>
        <time>2021-09-07T13:31:27.000Z</time>
      </trkpt>
      <trkpt lat="43.72896" lon="6.36462">
        <ele>917.4</ele>
        <time>2021-09-07T13:31:28.000Z</time>
      </trkpt>
      <trkpt lat="43.72896" lon="6.36462">
        <ele>917.4</ele>
        <time>2021-09-07T13:31:29.000Z</time>
      </trkpt>
      <trkpt lat="43.72896" lon="6.36462">
        <ele>917.7</ele>
        <time>2021-09-07T13:31:30.000Z</time>
      </trkpt>
      <trkpt lat="43.72896" lon="6.36462">
        <ele>917.5</ele>
        <time>2021-09-07T13:31:31.000Z</time>
      </trkpt>
      <trkpt lat="43.72896" lon="6.36461">
        <ele>917.8</ele>
        <time>2021-09-07T13:31:33.000Z</time>
      </trkpt>
      <trkpt lat="43.72895" lon="6.36461">
        <ele>917.2</ele>
        <time>2021-09-07T13:31:38.000Z</time>
      </trkpt>
      <trkpt lat="43.72895" lon="6.3646">
        <ele>917.4</ele>
        <time>2021-09-07T13:31:42.000Z</time>
      </trkpt>
      <trkpt lat="43.72895" lon="6.3646">
        <ele>917.5</ele>
        <time>2021-09-07T13:31:43.000Z</time>
      </trkpt>
      <trkpt lat="43.72895" lon="6.3646">
        <ele>917.5</ele>
        <time>2021-09-07T13:31:45.000Z</time>
      </trkpt>
      <trkpt lat="43.72895" lon="6.36461">
        <ele>917.2</ele>
        <time>2021-09-07T13:31:50.000Z</time>
      </trkpt>
      <trkpt lat="43.72895" lon="6.36461">
        <ele>917.2</ele>
        <time>2021-09-07T13:31:55.000Z</time>
      </trkpt>
      <trkpt lat="43.72896" lon="6.36461">
        <ele>917.4</ele>
        <time>2021-09-07T13:32:00.000Z</time>
      </trkpt>
      <trkpt lat="43.72895" lon="6.36461">
        <ele>917</ele>
        <time>2021-09-07T13:32:05.000Z</time>
      </trkpt>
      <trkpt lat="43.72895" lon="6.36461">
        <ele>917.1</ele>
        <time>2021-09-07T13:32:10.000Z</time>
      </trkpt>
      <trkpt lat="43.72895" lon="6.36461">
        <ele>917.3</ele>
        <time>2021-09-07T13:32:15.000Z</time>
      </trkpt>
      <trkpt lat="43.72896" lon="6.3646">
        <ele>917.1</ele>
        <time>2021-09-07T13:32:20.000Z</time>
      </trkpt>
      <trkpt lat="43.72896" lon="6.3646">
        <ele>918.7</ele>
        <time>2021-09-07T13:32:27.000Z</time>
      </trkpt>
      <trkpt lat="43.72896" lon="6.3646">
        <ele>917.4</ele>
        <time>2021-09-07T13:32:31.000Z</time>
      </trkpt>
      <trkpt lat="43.72895" lon="6.3646">
        <ele>917.6</ele>
        <time>2021-09-07T13:32:32.000Z</time>
      </trkpt>
      <trkpt lat="43.72895" lon="6.3646">
        <ele>917.4</ele>
        <time>2021-09-07T13:32:35.000Z</time>
      </trkpt>
      <trkpt lat="43.72895" lon="6.3646">
        <ele>917</ele>
        <time>2021-09-07T13:32:36.000Z</time>
      </trkpt>
      <trkpt lat="43.72895" lon="6.3646">
        <ele>917.1</ele>
        <time>2021-09-07T13:32:43.000Z</time>
      </trkpt>
      <trkpt lat="43.72896" lon="6.3646">
        <ele>916.8</ele>
        <time>2021-09-07T13:32:48.000Z</time>
      </trkpt>
      <trkpt lat="43.72898" lon="6.36459">
        <ele>917.8</ele>
        <time>2021-09-07T13:32:50.000Z</time>
      </trkpt>
      <trkpt lat="43.72896" lon="6.3646">
        <ele>917.5</ele>
        <time>2021-09-07T13:32:51.000Z</time>
      </trkpt>
      <trkpt lat="43.72899" lon="6.36459">
        <ele>918.1</ele>
        <time>2021-09-07T13:32:53.000Z</time>
      </trkpt>
      <trkpt lat="43.72906" lon="6.36458">
        <ele>918.6</ele>
        <time>2021-09-07T13:32:53.000Z</time>
      </trkpt>
      <trkpt lat="43.72909" lon="6.36457">
        <ele>918.7</ele>
        <time>2021-09-07T13:32:54.000Z</time>
      </trkpt>
      <trkpt lat="43.7292" lon="6.36456">
        <ele>919</ele>
        <time>2021-09-07T13:32:57.000Z</time>
      </trkpt>
      <trkpt lat="43.72926" lon="6.36455">
        <ele>919.3</ele>
        <time>2021-09-07T13:32:59.000Z</time>
      </trkpt>
      <trkpt lat="43.72918" lon="6.36456">
        <ele>919</ele>
        <time>2021-09-07T13:32:59.000Z</time>
      </trkpt>
      <trkpt lat="43.72922" lon="6.36455">
        <ele>919.2</ele>
        <time>2021-09-07T13:33:00.000Z</time>
      </trkpt>
      <trkpt lat="43.72929" lon="6.36455">
        <ele>919.4</ele>
        <time>2021-09-07T13:33:02.000Z</time>
      </trkpt>
      <trkpt lat="43.72936" lon="6.36454">
        <ele>919.6</ele>
        <time>2021-09-07T13:33:02.000Z</time>
      </trkpt>
      <trkpt lat="43.72938" lon="6.36454">
        <ele>920.4</ele>
        <time>2021-09-07T13:33:03.000Z</time>
      </trkpt>
      <trkpt lat="43.72941" lon="6.36453">
        <ele>920.3</ele>
        <time>2021-09-07T13:33:04.000Z</time>
      </trkpt>
      <trkpt lat="43.72937" lon="6.36454">
        <ele>920.2</ele>
        <time>2021-09-07T13:33:05.000Z</time>
      </trkpt>
      <trkpt lat="43.7294" lon="6.36453">
        <ele>920.4</ele>
        <time>2021-09-07T13:33:06.000Z</time>
      </trkpt>
      <trkpt lat="43.72943" lon="6.36452">
        <ele>920.7</ele>
        <time>2021-09-07T13:33:07.000Z</time>
      </trkpt>
      <trkpt lat="43.72949" lon="6.3645">
        <ele>921.3</ele>
        <time>2021-09-07T13:33:07.000Z</time>
      </trkpt>
      <trkpt lat="43.72952" lon="6.3645">
        <ele>921.3</ele>
        <time>2021-09-07T13:33:08.000Z</time>
      </trkpt>
      <trkpt lat="43.7296" lon="6.36449">
        <ele>921.7</ele>
        <time>2021-09-07T13:33:11.000Z</time>
      </trkpt>
      <trkpt lat="43.72963" lon="6.36448">
        <ele>921.7</ele>
        <time>2021-09-07T13:33:12.000Z</time>
      </trkpt>
      <trkpt lat="43.72966" lon="6.36448">
        <ele>922</ele>
        <time>2021-09-07T13:33:13.000Z</time>
      </trkpt>
      <trkpt lat="43.72957" lon="6.36449">
        <ele>921.5</ele>
        <time>2021-09-07T13:33:13.000Z</time>
      </trkpt>
      <trkpt lat="43.72967" lon="6.36448">
        <ele>922.3</ele>
        <time>2021-09-07T13:33:14.000Z</time>
      </trkpt>
      <trkpt lat="43.72962" lon="6.36449">
        <ele>921.8</ele>
        <time>2021-09-07T13:33:14.000Z</time>
      </trkpt>
      <trkpt lat="43.72964" lon="6.36448">
        <ele>921.9</ele>
        <time>2021-09-07T13:33:15.000Z</time>
      </trkpt>
      <trkpt lat="43.72985" lon="6.36447">
        <ele>922.8</ele>
        <time>2021-09-07T13:33:20.000Z</time>
      </trkpt>
      <trkpt lat="43.72998" lon="6.36446">
        <ele>923.3</ele>
        <time>2021-09-07T13:33:25.000Z</time>
      </trkpt>
      <trkpt lat="43.73012" lon="6.36444">
        <ele>924.1</ele>
        <time>2021-09-07T13:33:30.000Z</time>
      </trkpt>
      <trkpt lat="43.73025" lon="6.36442">
        <ele>924.9</ele>
        <time>2021-09-07T13:33:35.000Z</time>
      </trkpt>
      <trkpt lat="43.73038" lon="6.3644">
        <ele>926.1</ele>
        <time>2021-09-07T13:33:40.000Z</time>
      </trkpt>
      <trkpt lat="43.73052" lon="6.36438">
        <ele>927</ele>
        <time>2021-09-07T13:33:45.000Z</time>
      </trkpt>
      <trkpt lat="43.73056" lon="6.36436">
        <ele>927.1</ele>
        <time>2021-09-07T13:33:47.000Z</time>
      </trkpt>
      <trkpt lat="43.73059" lon="6.36435">
        <ele>927.4</ele>
        <time>2021-09-07T13:33:48.000Z</time>
      </trkpt>
      <trkpt lat="43.73062" lon="6.36435">
        <ele>927.1</ele>
        <time>2021-09-07T13:33:49.000Z</time>
      </trkpt>
      <trkpt lat="43.73065" lon="6.36434">
        <ele>927.4</ele>
        <time>2021-09-07T13:33:50.000Z</time>
      </trkpt>
      <trkpt lat="43.73058" lon="6.36435">
        <ele>927.3</ele>
        <time>2021-09-07T13:33:50.000Z</time>
      </trkpt>
      <trkpt lat="43.73061" lon="6.36435">
        <ele>927.2</ele>
        <time>2021-09-07T13:33:51.000Z</time>
      </trkpt>
      <trkpt lat="43.73071" lon="6.36433">
        <ele>927.5</ele>
        <time>2021-09-07T13:33:52.000Z</time>
      </trkpt>
      <trkpt lat="43.73064" lon="6.36435">
        <ele>927.1</ele>
        <time>2021-09-07T13:33:52.000Z</time>
      </trkpt>
      <trkpt lat="43.73068" lon="6.36434">
        <ele>927.4</ele>
        <time>2021-09-07T13:33:53.000Z</time>
      </trkpt>
      <trkpt lat="43.73072" lon="6.36432">
        <ele>927.7</ele>
        <time>2021-09-07T13:33:55.000Z</time>
      </trkpt>
      <trkpt lat="43.73077" lon="6.36431">
        <ele>928.1</ele>
        <time>2021-09-07T13:33:55.000Z</time>
      </trkpt>
      <trkpt lat="43.7308" lon="6.3643">
        <ele>928.2</ele>
        <time>2021-09-07T13:33:56.000Z</time>
      </trkpt>
      <trkpt lat="43.73083" lon="6.36429">
        <ele>928.4</ele>
        <time>2021-09-07T13:33:57.000Z</time>
      </trkpt>
      <trkpt lat="43.73079" lon="6.36431">
        <ele>928.1</ele>
        <time>2021-09-07T13:33:58.000Z</time>
      </trkpt>
      <trkpt lat="43.73094" lon="6.36425">
        <ele>928.8</ele>
        <time>2021-09-07T13:34:01.000Z</time>
      </trkpt>
      <trkpt lat="43.73097" lon="6.36424">
        <ele>929</ele>
        <time>2021-09-07T13:34:02.000Z</time>
      </trkpt>
      <trkpt lat="43.73093" lon="6.36426">
        <ele>928.7</ele>
        <time>2021-09-07T13:34:03.000Z</time>
      </trkpt>
      <trkpt lat="43.73096" lon="6.36425">
        <ele>928.9</ele>
        <time>2021-09-07T13:34:04.000Z</time>
      </trkpt>
      <trkpt lat="43.73099" lon="6.36424">
        <ele>929.2</ele>
        <time>2021-09-07T13:34:05.000Z</time>
      </trkpt>
      <trkpt lat="43.73104" lon="6.36422">
        <ele>929.6</ele>
        <time>2021-09-07T13:34:05.000Z</time>
      </trkpt>
      <trkpt lat="43.73107" lon="6.36421">
        <ele>929.8</ele>
        <time>2021-09-07T13:34:06.000Z</time>
      </trkpt>
      <trkpt lat="43.73106" lon="6.36421">
        <ele>929.7</ele>
        <time>2021-09-07T13:34:08.000Z</time>
      </trkpt>
      <trkpt lat="43.73109" lon="6.36421">
        <ele>929.8</ele>
        <time>2021-09-07T13:34:09.000Z</time>
      </trkpt>
      <trkpt lat="43.73121" lon="6.36417">
        <ele>930.3</ele>
        <time>2021-09-07T13:34:11.000Z</time>
      </trkpt>
      <trkpt lat="43.73123" lon="6.36416">
        <ele>930.4</ele>
        <time>2021-09-07T13:34:12.000Z</time>
      </trkpt>
      <trkpt lat="43.73135" lon="6.36413">
        <ele>930.7</ele>
        <time>2021-09-07T13:34:16.000Z</time>
      </trkpt>
      <trkpt lat="43.73137" lon="6.36412">
        <ele>930.9</ele>
        <time>2021-09-07T13:34:17.000Z</time>
      </trkpt>
      <trkpt lat="43.73131" lon="6.36414">
        <ele>930.6</ele>
        <time>2021-09-07T13:34:17.000Z</time>
      </trkpt>
      <trkpt lat="43.7314" lon="6.36412">
        <ele>931.1</ele>
        <time>2021-09-07T13:34:18.000Z</time>
      </trkpt>
      <trkpt lat="43.73136" lon="6.36412">
        <ele>930.9</ele>
        <time>2021-09-07T13:34:19.000Z</time>
      </trkpt>
      <trkpt lat="43.73145" lon="6.3641">
        <ele>931.3</ele>
        <time>2021-09-07T13:34:20.000Z</time>
      </trkpt>
      <trkpt lat="43.73147" lon="6.36409">
        <ele>931.6</ele>
        <time>2021-09-07T13:34:21.000Z</time>
      </trkpt>
      <trkpt lat="43.7315" lon="6.36408">
        <ele>931.8</ele>
        <time>2021-09-07T13:34:22.000Z</time>
      </trkpt>
      <trkpt lat="43.73152" lon="6.36407">
        <ele>931.7</ele>
        <time>2021-09-07T13:34:23.000Z</time>
      </trkpt>
      <trkpt lat="43.73146" lon="6.3641">
        <ele>931.6</ele>
        <time>2021-09-07T13:34:23.000Z</time>
      </trkpt>
      <trkpt lat="43.73148" lon="6.36409">
        <ele>931.7</ele>
        <time>2021-09-07T13:34:24.000Z</time>
      </trkpt>
      <trkpt lat="43.73167" lon="6.36403">
        <ele>932.6</ele>
        <time>2021-09-07T13:34:29.000Z</time>
      </trkpt>
      <trkpt lat="43.73179" lon="6.36399">
        <ele>933.3</ele>
        <time>2021-09-07T13:34:34.000Z</time>
      </trkpt>
      <trkpt lat="43.73191" lon="6.36395">
        <ele>934</ele>
        <time>2021-09-07T13:34:39.000Z</time>
      </trkpt>
      <trkpt lat="43.73203" lon="6.36392">
        <ele>934.9</ele>
        <time>2021-09-07T13:34:44.000Z</time>
      </trkpt>
      <trkpt lat="43.73216" lon="6.36388">
        <ele>935.7</ele>
        <time>2021-09-07T13:34:49.000Z</time>
      </trkpt>
      <trkpt lat="43.73229" lon="6.36383">
        <ele>936.3</ele>
        <time>2021-09-07T13:34:54.000Z</time>
      </trkpt>
      <trkpt lat="43.7324" lon="6.36378">
        <ele>937.1</ele>
        <time>2021-09-07T13:34:59.000Z</time>
      </trkpt>
      <trkpt lat="43.73252" lon="6.36373">
        <ele>937.8</ele>
        <time>2021-09-07T13:35:04.000Z</time>
      </trkpt>
      <trkpt lat="43.73265" lon="6.36369">
        <ele>938.3</ele>
        <time>2021-09-07T13:35:09.000Z</time>
      </trkpt>
      <trkpt lat="43.73279" lon="6.3637">
        <ele>939.3</ele>
        <time>2021-09-07T13:35:14.000Z</time>
      </trkpt>
      <trkpt lat="43.73293" lon="6.3637">
        <ele>939.9</ele>
        <time>2021-09-07T13:35:19.000Z</time>
      </trkpt>
      <trkpt lat="43.73306" lon="6.36366">
        <ele>940.7</ele>
        <time>2021-09-07T13:35:24.000Z</time>
      </trkpt>
      <trkpt lat="43.73315" lon="6.36364">
        <ele>940.9</ele>
        <time>2021-09-07T13:35:29.000Z</time>
      </trkpt>
      <trkpt lat="43.73329" lon="6.36364">
        <ele>941.5</ele>
        <time>2021-09-07T13:35:34.000Z</time>
      </trkpt>
      <trkpt lat="43.73343" lon="6.3636">
        <ele>942.2</ele>
        <time>2021-09-07T13:35:39.000Z</time>
      </trkpt>
      <trkpt lat="43.73351" lon="6.36359">
        <ele>942.8</ele>
        <time>2021-09-07T13:35:44.000Z</time>
      </trkpt>
      <trkpt lat="43.73356" lon="6.36359">
        <ele>942.9</ele>
        <time>2021-09-07T13:35:44.000Z</time>
      </trkpt>
      <trkpt lat="43.73359" lon="6.36358">
        <ele>942.9</ele>
        <time>2021-09-07T13:35:45.000Z</time>
      </trkpt>
      <trkpt lat="43.73362" lon="6.36358">
        <ele>943</ele>
        <time>2021-09-07T13:35:46.000Z</time>
      </trkpt>
      <trkpt lat="43.73358" lon="6.36358">
        <ele>942.8</ele>
        <time>2021-09-07T13:35:47.000Z</time>
      </trkpt>
      <trkpt lat="43.7336" lon="6.36358">
        <ele>942.9</ele>
        <time>2021-09-07T13:35:48.000Z</time>
      </trkpt>
      <trkpt lat="43.73364" lon="6.36358">
        <ele>943.1</ele>
        <time>2021-09-07T13:35:49.000Z</time>
      </trkpt>
      <trkpt lat="43.73372" lon="6.36357">
        <ele>943.7</ele>
        <time>2021-09-07T13:35:50.000Z</time>
      </trkpt>
      <trkpt lat="43.73374" lon="6.36356">
        <ele>944</ele>
        <time>2021-09-07T13:35:51.000Z</time>
      </trkpt>
      <trkpt lat="43.73379" lon="6.36355">
        <ele>944.4</ele>
        <time>2021-09-07T13:35:53.000Z</time>
      </trkpt>
      <trkpt lat="43.73381" lon="6.36356">
        <ele>944.5</ele>
        <time>2021-09-07T13:35:56.000Z</time>
      </trkpt>
      <trkpt lat="43.73387" lon="6.36356">
        <ele>944.8</ele>
        <time>2021-09-07T13:35:56.000Z</time>
      </trkpt>
      <trkpt lat="43.7339" lon="6.36356">
        <ele>945</ele>
        <time>2021-09-07T13:35:57.000Z</time>
      </trkpt>
      <trkpt lat="43.73389" lon="6.36356">
        <ele>944.9</ele>
        <time>2021-09-07T13:35:59.000Z</time>
      </trkpt>
      <trkpt lat="43.73391" lon="6.36356">
        <ele>945.2</ele>
        <time>2021-09-07T13:36:00.000Z</time>
      </trkpt>
      <trkpt lat="43.73398" lon="6.36357">
        <ele>945.6</ele>
        <time>2021-09-07T13:36:00.000Z</time>
      </trkpt>
      <trkpt lat="43.73402" lon="6.36358">
        <ele>945.8</ele>
        <time>2021-09-07T13:36:01.000Z</time>
      </trkpt>
      <trkpt lat="43.73405" lon="6.36359">
        <ele>946</ele>
        <time>2021-09-07T13:36:02.000Z</time>
      </trkpt>
      <trkpt lat="43.734" lon="6.36358">
        <ele>945.7</ele>
        <time>2021-09-07T13:36:03.000Z</time>
      </trkpt>
      <trkpt lat="43.73404" lon="6.36359">
        <ele>945.9</ele>
        <time>2021-09-07T13:36:04.000Z</time>
      </trkpt>
      <trkpt lat="43.73407" lon="6.36359">
        <ele>946</ele>
        <time>2021-09-07T13:36:05.000Z</time>
      </trkpt>
      <trkpt lat="43.73415" lon="6.36359">
        <ele>946.5</ele>
        <time>2021-09-07T13:36:05.000Z</time>
      </trkpt>
      <trkpt lat="43.73422" lon="6.3636">
        <ele>946.8</ele>
        <time>2021-09-07T13:36:07.000Z</time>
      </trkpt>
      <trkpt lat="43.73418" lon="6.3636">
        <ele>946.6</ele>
        <time>2021-09-07T13:36:08.000Z</time>
      </trkpt>
      <trkpt lat="43.73425" lon="6.3636">
        <ele>947</ele>
        <time>2021-09-07T13:36:08.000Z</time>
      </trkpt>
      <trkpt lat="43.7344" lon="6.36362">
        <ele>948.1</ele>
        <time>2021-09-07T13:36:13.000Z</time>
      </trkpt>
      <trkpt lat="43.73454" lon="6.3636">
        <ele>949.3</ele>
        <time>2021-09-07T13:36:18.000Z</time>
      </trkpt>
      <trkpt lat="43.73463" lon="6.36355">
        <ele>949.3</ele>
        <time>2021-09-07T13:36:23.000Z</time>
      </trkpt>
      <trkpt lat="43.73472" lon="6.36357">
        <ele>949.2</ele>
        <time>2021-09-07T13:36:28.000Z</time>
      </trkpt>
      <trkpt lat="43.73478" lon="6.3636">
        <ele>949.1</ele>
        <time>2021-09-07T13:36:33.000Z</time>
      </trkpt>
      <trkpt lat="43.73485" lon="6.36366">
        <ele>948.7</ele>
        <time>2021-09-07T13:36:38.000Z</time>
      </trkpt>
      <trkpt lat="43.73486" lon="6.36371">
        <ele>948.8</ele>
        <time>2021-09-07T13:36:43.000Z</time>
      </trkpt>
      <trkpt lat="43.73487" lon="6.36373">
        <ele>948.3</ele>
        <time>2021-09-07T13:36:48.000Z</time>
      </trkpt>
      <trkpt lat="43.73488" lon="6.36374">
        <ele>948.4</ele>
        <time>2021-09-07T13:36:53.000Z</time>
      </trkpt>
      <trkpt lat="43.73488" lon="6.36374">
        <ele>948.5</ele>
        <time>2021-09-07T13:36:54.000Z</time>
      </trkpt>
      <trkpt lat="43.73488" lon="6.36374">
        <ele>948.2</ele>
        <time>2021-09-07T13:36:59.000Z</time>
      </trkpt>
      <trkpt lat="43.73488" lon="6.36375">
        <ele>948.4</ele>
        <time>2021-09-07T13:37:04.000Z</time>
      </trkpt>
      <trkpt lat="43.73488" lon="6.36375">
        <ele>948.3</ele>
        <time>2021-09-07T13:37:09.000Z</time>
      </trkpt>
      <trkpt lat="43.73488" lon="6.36376">
        <ele>948.1</ele>
        <time>2021-09-07T13:37:12.000Z</time>
      </trkpt>
      <trkpt lat="43.73488" lon="6.36376">
        <ele>948.1</ele>
        <time>2021-09-07T13:37:13.000Z</time>
      </trkpt>
      <trkpt lat="43.73488" lon="6.36376">
        <ele>948.1</ele>
        <time>2021-09-07T13:37:18.000Z</time>
      </trkpt>
      <trkpt lat="43.73488" lon="6.36377">
        <ele>948.1</ele>
        <time>2021-09-07T13:37:23.000Z</time>
      </trkpt>
      <trkpt lat="43.73488" lon="6.36377">
        <ele>947.8</ele>
        <time>2021-09-07T13:37:25.000Z</time>
      </trkpt>
      <trkpt lat="43.73489" lon="6.36378">
        <ele>947.7</ele>
        <time>2021-09-07T13:37:28.000Z</time>
      </trkpt>
      <trkpt lat="43.73489" lon="6.36378">
        <ele>948.2</ele>
        <time>2021-09-07T13:37:33.000Z</time>
      </trkpt>
      <trkpt lat="43.73489" lon="6.36377">
        <ele>948.3</ele>
        <time>2021-09-07T13:37:38.000Z</time>
      </trkpt>
      <trkpt lat="43.73489" lon="6.36377">
        <ele>948.2</ele>
        <time>2021-09-07T13:37:43.000Z</time>
      </trkpt>
      <trkpt lat="43.73489" lon="6.36377">
        <ele>948.3</ele>
        <time>2021-09-07T13:37:44.000Z</time>
      </trkpt>
      <trkpt lat="43.73489" lon="6.36376">
        <ele>947.8</ele>
        <time>2021-09-07T13:37:46.000Z</time>
      </trkpt>
      <trkpt lat="43.7349" lon="6.36376">
        <ele>947.9</ele>
        <time>2021-09-07T13:37:47.000Z</time>
      </trkpt>
      <trkpt lat="43.7349" lon="6.36377">
        <ele>947.8</ele>
        <time>2021-09-07T13:37:51.000Z</time>
      </trkpt>
      <trkpt lat="43.7349" lon="6.36377">
        <ele>947.7</ele>
        <time>2021-09-07T13:37:52.000Z</time>
      </trkpt>
      <trkpt lat="43.73491" lon="6.36379">
        <ele>947.8</ele>
        <time>2021-09-07T13:37:57.000Z</time>
      </trkpt>
      <trkpt lat="43.73491" lon="6.3638">
        <ele>947.8</ele>
        <time>2021-09-07T13:38:00.000Z</time>
      </trkpt>
      <trkpt lat="43.73491" lon="6.3638">
        <ele>947.7</ele>
        <time>2021-09-07T13:38:01.000Z</time>
      </trkpt>
      <trkpt lat="43.7349" lon="6.3638">
        <ele>947.7</ele>
        <time>2021-09-07T13:38:03.000Z</time>
      </trkpt>
      <trkpt lat="43.7349" lon="6.3638">
        <ele>947.8</ele>
        <time>2021-09-07T13:38:04.000Z</time>
      </trkpt>
      <trkpt lat="43.7349" lon="6.3638">
        <ele>948</ele>
        <time>2021-09-07T13:38:05.000Z</time>
      </trkpt>
      <trkpt lat="43.7349" lon="6.36381">
        <ele>947.8</ele>
        <time>2021-09-07T13:38:10.000Z</time>
      </trkpt>
      <trkpt lat="43.7349" lon="6.36381">
        <ele>947.8</ele>
        <time>2021-09-07T13:38:14.000Z</time>
      </trkpt>
      <trkpt lat="43.7349" lon="6.36381">
        <ele>947.9</ele>
        <time>2021-09-07T13:38:15.000Z</time>
      </trkpt>
      <trkpt lat="43.7349" lon="6.36381">
        <ele>948.7</ele>
        <time>2021-09-07T13:38:20.000Z</time>
      </trkpt>
      <trkpt lat="43.7349" lon="6.36381">
        <ele>948.4</ele>
        <time>2021-09-07T13:38:25.000Z</time>
      </trkpt>
      <trkpt lat="43.73491" lon="6.36381">
        <ele>948.4</ele>
        <time>2021-09-07T13:38:28.000Z</time>
      </trkpt>
      <trkpt lat="43.73491" lon="6.36381">
        <ele>948.5</ele>
        <time>2021-09-07T13:38:29.000Z</time>
      </trkpt>
      <trkpt lat="43.73491" lon="6.36381">
        <ele>948.7</ele>
        <time>2021-09-07T13:38:34.000Z</time>
      </trkpt>
      <trkpt lat="43.73491" lon="6.36382">
        <ele>948.7</ele>
        <time>2021-09-07T13:38:39.000Z</time>
      </trkpt>
      <trkpt lat="43.73491" lon="6.36382">
        <ele>948.4</ele>
        <time>2021-09-07T13:38:44.000Z</time>
      </trkpt>
      <trkpt lat="43.73491" lon="6.36382">
        <ele>948.3</ele>
        <time>2021-09-07T13:38:49.000Z</time>
      </trkpt>
      <trkpt lat="43.73492" lon="6.36382">
        <ele>948.1</ele>
        <time>2021-09-07T13:38:54.000Z</time>
      </trkpt>
      <trkpt lat="43.73492" lon="6.36382">
        <ele>948.1</ele>
        <time>2021-09-07T13:38:59.000Z</time>
      </trkpt>
      <trkpt lat="43.73492" lon="6.36382">
        <ele>947.8</ele>
        <time>2021-09-07T13:39:04.000Z</time>
      </trkpt>
      <trkpt lat="43.73492" lon="6.36382">
        <ele>947.8</ele>
        <time>2021-09-07T13:39:09.000Z</time>
      </trkpt>
      <trkpt lat="43.73492" lon="6.36382">
        <ele>947.7</ele>
        <time>2021-09-07T13:39:11.000Z</time>
      </trkpt>
      <trkpt lat="43.73492" lon="6.36382">
        <ele>947.6</ele>
        <time>2021-09-07T13:39:12.000Z</time>
      </trkpt>
      <trkpt lat="43.73493" lon="6.36381">
        <ele>947.7</ele>
        <time>2021-09-07T13:39:14.000Z</time>
      </trkpt>
      <trkpt lat="43.73493" lon="6.36381">
        <ele>947.6</ele>
        <time>2021-09-07T13:39:16.000Z</time>
      </trkpt>
      <trkpt lat="43.73493" lon="6.36381">
        <ele>947.4</ele>
        <time>2021-09-07T13:39:21.000Z</time>
      </trkpt>
      <trkpt lat="43.73493" lon="6.36381">
        <ele>947.6</ele>
        <time>2021-09-07T13:39:24.000Z</time>
      </trkpt>
      <trkpt lat="43.73492" lon="6.36381">
        <ele>947.5</ele>
        <time>2021-09-07T13:39:25.000Z</time>
      </trkpt>
      <trkpt lat="43.73492" lon="6.36381">
        <ele>947.6</ele>
        <time>2021-09-07T13:39:27.000Z</time>
      </trkpt>
      <trkpt lat="43.73492" lon="6.3638">
        <ele>947.6</ele>
        <time>2021-09-07T13:39:30.000Z</time>
      </trkpt>
      <trkpt lat="43.73492" lon="6.3638">
        <ele>947.4</ele>
        <time>2021-09-07T13:39:35.000Z</time>
      </trkpt>
      <trkpt lat="43.73492" lon="6.3638">
        <ele>947.2</ele>
        <time>2021-09-07T13:39:40.000Z</time>
      </trkpt>
      <trkpt lat="43.73492" lon="6.3638">
        <ele>947.1</ele>
        <time>2021-09-07T13:39:42.000Z</time>
      </trkpt>
      <trkpt lat="43.73495" lon="6.3638">
        <ele>947.3</ele>
        <time>2021-09-07T13:39:42.000Z</time>
      </trkpt>
      <trkpt lat="43.73497" lon="6.36382">
        <ele>947</ele>
        <time>2021-09-07T13:39:43.000Z</time>
      </trkpt>
      <trkpt lat="43.73504" lon="6.36404">
        <ele>946.1</ele>
        <time>2021-09-07T13:39:45.000Z</time>
      </trkpt>
      <trkpt lat="43.73524" lon="6.36761">
        <ele>935.5</ele>
        <time>2021-09-07T13:40:24.000Z</time>
      </trkpt>
      <trkpt lat="43.73511" lon="6.36787">
        <ele>929.7</ele>
        <time>2021-09-07T13:40:29.000Z</time>
      </trkpt>
      <trkpt lat="43.73498" lon="6.36824">
        <ele>926.2</ele>
        <time>2021-09-07T13:40:34.000Z</time>
      </trkpt>
      <trkpt lat="43.7348" lon="6.36864">
        <ele>923.5</ele>
        <time>2021-09-07T13:40:39.000Z</time>
      </trkpt>
      <trkpt lat="43.7346" lon="6.36902">
        <ele>918.9</ele>
        <time>2021-09-07T13:40:44.000Z</time>
      </trkpt>
      <trkpt lat="43.7339" lon="6.37006">
        <ele>914.8</ele>
        <time>2021-09-07T13:40:49.000Z</time>
      </trkpt>
      <trkpt lat="43.73287" lon="6.37142">
        <ele>910.5</ele>
        <time>2021-09-07T13:40:54.000Z</time>
      </trkpt>
      <trkpt lat="43.73243" lon="6.37218">
        <ele>906.2</ele>
        <time>2021-09-07T13:40:59.000Z</time>
      </trkpt>
      <trkpt lat="43.73208" lon="6.37287">
        <ele>900.8</ele>
        <time>2021-09-07T13:41:04.000Z</time>
      </trkpt>
      <trkpt lat="43.73206" lon="6.37317">
        <ele>898.5</ele>
        <time>2021-09-07T13:41:09.000Z</time>
      </trkpt>
      <trkpt lat="43.73241" lon="6.37288">
        <ele>897.5</ele>
        <time>2021-09-07T13:41:14.000Z</time>
      </trkpt>
      <trkpt lat="43.73281" lon="6.37253">
        <ele>895.9</ele>
        <time>2021-09-07T13:41:19.000Z</time>
      </trkpt>
      <trkpt lat="43.73328" lon="6.37228">
        <ele>894.2</ele>
        <time>2021-09-07T13:41:24.000Z</time>
      </trkpt>
      <trkpt lat="43.73377" lon="6.37193">
        <ele>890.6</ele>
        <time>2021-09-07T13:41:29.000Z</time>
      </trkpt>
      <trkpt lat="43.73429" lon="6.3716">
        <ele>887</ele>
        <time>2021-09-07T13:41:34.000Z</time>
      </trkpt>
      <trkpt lat="43.73492" lon="6.3713">
        <ele>882.9</ele>
        <time>2021-09-07T13:41:39.000Z</time>
      </trkpt>
      <trkpt lat="43.73558" lon="6.37115">
        <ele>879.6</ele>
        <time>2021-09-07T13:41:44.000Z</time>
      </trkpt>
      <trkpt lat="43.73611" lon="6.37092">
        <ele>880.5</ele>
        <time>2021-09-07T13:41:49.000Z</time>
      </trkpt>
      <trkpt lat="43.7365" lon="6.37074">
        <ele>882.8</ele>
        <time>2021-09-07T13:41:54.000Z</time>
      </trkpt>
      <trkpt lat="43.73681" lon="6.37061">
        <ele>882.3</ele>
        <time>2021-09-07T13:41:59.000Z</time>
      </trkpt>
      <trkpt lat="43.73706" lon="6.37052">
        <ele>883</ele>
        <time>2021-09-07T13:42:04.000Z</time>
      </trkpt>
      <trkpt lat="43.73727" lon="6.37048">
        <ele>883.7</ele>
        <time>2021-09-07T13:42:09.000Z</time>
      </trkpt>
      <trkpt lat="43.73748" lon="6.3705">
        <ele>883.9</ele>
        <time>2021-09-07T13:42:14.000Z</time>
      </trkpt>
      <trkpt lat="43.73769" lon="6.3705">
        <ele>884.2</ele>
        <time>2021-09-07T13:42:19.000Z</time>
      </trkpt>
      <trkpt lat="43.73791" lon="6.37051">
        <ele>884.8</ele>
        <time>2021-09-07T13:42:24.000Z</time>
      </trkpt>
      <trkpt lat="43.73809" lon="6.37058">
        <ele>885.6</ele>
        <time>2021-09-07T13:42:29.000Z</time>
      </trkpt>
      <trkpt lat="43.73827" lon="6.37068">
        <ele>886.3</ele>
        <time>2021-09-07T13:42:34.000Z</time>
      </trkpt>
      <trkpt lat="43.73842" lon="6.37077">
        <ele>887.1</ele>
        <time>2021-09-07T13:42:39.000Z</time>
      </trkpt>
      <trkpt lat="43.73856" lon="6.37086">
        <ele>888.1</ele>
        <time>2021-09-07T13:42:44.000Z</time>
      </trkpt>
      <trkpt lat="43.73863" lon="6.3709">
        <ele>888.3</ele>
        <time>2021-09-07T13:42:46.000Z</time>
      </trkpt>
      <trkpt lat="43.73865" lon="6.37092">
        <ele>888.2</ele>
        <time>2021-09-07T13:42:48.000Z</time>
      </trkpt>
      <trkpt lat="43.73869" lon="6.37095">
        <ele>888.3</ele>
        <time>2021-09-07T13:42:48.000Z</time>
      </trkpt>
      <trkpt lat="43.73871" lon="6.37098">
        <ele>888.6</ele>
        <time>2021-09-07T13:42:49.000Z</time>
      </trkpt>
      <trkpt lat="43.73871" lon="6.37097">
        <ele>888.5</ele>
        <time>2021-09-07T13:42:50.000Z</time>
      </trkpt>
      <trkpt lat="43.73874" lon="6.371">
        <ele>888.7</ele>
        <time>2021-09-07T13:42:50.000Z</time>
      </trkpt>
      <trkpt lat="43.73879" lon="6.37104">
        <ele>888.8</ele>
        <time>2021-09-07T13:42:52.000Z</time>
      </trkpt>
      <trkpt lat="43.7388" lon="6.37105">
        <ele>889</ele>
        <time>2021-09-07T13:42:54.000Z</time>
      </trkpt>
      <trkpt lat="43.73885" lon="6.37111">
        <ele>889</ele>
        <time>2021-09-07T13:42:55.000Z</time>
      </trkpt>
      <trkpt lat="43.73887" lon="6.37113">
        <ele>889.1</ele>
        <time>2021-09-07T13:42:57.000Z</time>
      </trkpt>
      <trkpt lat="43.73892" lon="6.37118">
        <ele>889.4</ele>
        <time>2021-09-07T13:42:58.000Z</time>
      </trkpt>
      <trkpt lat="43.73894" lon="6.3712">
        <ele>889.4</ele>
        <time>2021-09-07T13:42:59.000Z</time>
      </trkpt>
      <trkpt lat="43.73897" lon="6.37121">
        <ele>889.7</ele>
        <time>2021-09-07T13:43:00.000Z</time>
      </trkpt>
      <trkpt lat="43.73893" lon="6.37119">
        <ele>889.4</ele>
        <time>2021-09-07T13:43:00.000Z</time>
      </trkpt>
      <trkpt lat="43.73896" lon="6.3712">
        <ele>889.5</ele>
        <time>2021-09-07T13:43:01.000Z</time>
      </trkpt>
      <trkpt lat="43.73899" lon="6.37124">
        <ele>889.9</ele>
        <time>2021-09-07T13:43:02.000Z</time>
      </trkpt>
      <trkpt lat="43.73902" lon="6.37127">
        <ele>889.8</ele>
        <time>2021-09-07T13:43:02.000Z</time>
      </trkpt>
      <trkpt lat="43.73903" lon="6.37128">
        <ele>889.9</ele>
        <time>2021-09-07T13:43:04.000Z</time>
      </trkpt>
      <trkpt lat="43.73908" lon="6.37131">
        <ele>890.3</ele>
        <time>2021-09-07T13:43:04.000Z</time>
      </trkpt>
      <trkpt lat="43.7391" lon="6.37134">
        <ele>890.4</ele>
        <time>2021-09-07T13:43:05.000Z</time>
      </trkpt>
      <trkpt lat="43.73912" lon="6.37137">
        <ele>890.2</ele>
        <time>2021-09-07T13:43:06.000Z</time>
      </trkpt>
      <trkpt lat="43.73909" lon="6.37133">
        <ele>890.4</ele>
        <time>2021-09-07T13:43:06.000Z</time>
      </trkpt>
      <trkpt lat="43.73915" lon="6.37141">
        <ele>890.2</ele>
        <time>2021-09-07T13:43:07.000Z</time>
      </trkpt>
      <trkpt lat="43.73911" lon="6.37136">
        <ele>890.2</ele>
        <time>2021-09-07T13:43:07.000Z</time>
      </trkpt>
      <trkpt lat="43.73913" lon="6.37139">
        <ele>890.2</ele>
        <time>2021-09-07T13:43:08.000Z</time>
      </trkpt>
      <trkpt lat="43.73917" lon="6.37143">
        <ele>890.4</ele>
        <time>2021-09-07T13:43:09.000Z</time>
      </trkpt>
      <trkpt lat="43.73923" lon="6.37153">
        <ele>890.1</ele>
        <time>2021-09-07T13:43:10.000Z</time>
      </trkpt>
      <trkpt lat="43.73925" lon="6.37159">
        <ele>889.9</ele>
        <time>2021-09-07T13:43:11.000Z</time>
      </trkpt>
      <trkpt lat="43.73924" lon="6.37157">
        <ele>889.9</ele>
        <time>2021-09-07T13:43:12.000Z</time>
      </trkpt>
      <trkpt lat="43.73926" lon="6.37162">
        <ele>889.7</ele>
        <time>2021-09-07T13:43:13.000Z</time>
      </trkpt>
      <trkpt lat="43.73932" lon="6.37189">
        <ele>889.9</ele>
        <time>2021-09-07T13:43:16.000Z</time>
      </trkpt>
      <trkpt lat="43.73932" lon="6.37195">
        <ele>890.3</ele>
        <time>2021-09-07T13:43:17.000Z</time>
      </trkpt>
      <trkpt lat="43.73932" lon="6.37193">
        <ele>890.1</ele>
        <time>2021-09-07T13:43:18.000Z</time>
      </trkpt>
      <trkpt lat="43.73932" lon="6.37199">
        <ele>890.3</ele>
        <time>2021-09-07T13:43:19.000Z</time>
      </trkpt>
      <trkpt lat="43.73929" lon="6.37218">
        <ele>890.8</ele>
        <time>2021-09-07T13:43:21.000Z</time>
      </trkpt>
      <trkpt lat="43.73927" lon="6.37223">
        <ele>891</ele>
        <time>2021-09-07T13:43:22.000Z</time>
      </trkpt>
      <trkpt lat="43.73925" lon="6.37228">
        <ele>890.9</ele>
        <time>2021-09-07T13:43:23.000Z</time>
      </trkpt>
      <trkpt lat="43.73928" lon="6.3722">
        <ele>890.9</ele>
        <time>2021-09-07T13:43:23.000Z</time>
      </trkpt>
      <trkpt lat="43.73926" lon="6.37226">
        <ele>890.9</ele>
        <time>2021-09-07T13:43:24.000Z</time>
      </trkpt>
      <trkpt lat="43.73924" lon="6.37231">
        <ele>891.2</ele>
        <time>2021-09-07T13:43:25.000Z</time>
      </trkpt>
      <trkpt lat="43.73922" lon="6.37237">
        <ele>891.8</ele>
        <time>2021-09-07T13:43:25.000Z</time>
      </trkpt>
      <trkpt lat="43.7392" lon="6.37241">
        <ele>891.5</ele>
        <time>2021-09-07T13:43:26.000Z</time>
      </trkpt>
      <trkpt lat="43.73921" lon="6.37239">
        <ele>891.9</ele>
        <time>2021-09-07T13:43:27.000Z</time>
      </trkpt>
      <trkpt lat="43.73918" lon="6.37244">
        <ele>891.4</ele>
        <time>2021-09-07T13:43:28.000Z</time>
      </trkpt>
      <trkpt lat="43.73915" lon="6.37248">
        <ele>891.9</ele>
        <time>2021-09-07T13:43:28.000Z</time>
      </trkpt>
      <trkpt lat="43.73911" lon="6.37251">
        <ele>892</ele>
        <time>2021-09-07T13:43:29.000Z</time>
      </trkpt>
      <trkpt lat="43.73913" lon="6.37249">
        <ele>892.1</ele>
        <time>2021-09-07T13:43:30.000Z</time>
      </trkpt>
      <trkpt lat="43.7391" lon="6.37253">
        <ele>891.7</ele>
        <time>2021-09-07T13:43:31.000Z</time>
      </trkpt>
      <trkpt lat="43.7391" lon="6.37253">
        <ele>891.7</ele>
        <time>2021-09-07T13:43:31.000Z</time>
      </trkpt>
      <trkpt lat="43.73904" lon="6.37262">
        <ele>891.9</ele>
        <time>2021-09-07T13:43:32.000Z</time>
      </trkpt>
      <trkpt lat="43.73907" lon="6.37257">
        <ele>891.8</ele>
        <time>2021-09-07T13:43:32.000Z</time>
      </trkpt>
      <trkpt lat="43.73904" lon="6.37261">
        <ele>892</ele>
        <time>2021-09-07T13:43:33.000Z</time>
      </trkpt>
      <trkpt lat="43.73902" lon="6.37264">
        <ele>892</ele>
        <time>2021-09-07T13:43:34.000Z</time>
      </trkpt>
      <trkpt lat="43.73901" lon="6.37273">
        <ele>892.1</ele>
        <time>2021-09-07T13:43:36.000Z</time>
      </trkpt>
      <trkpt lat="43.73902" lon="6.37275">
        <ele>892.1</ele>
        <time>2021-09-07T13:43:38.000Z</time>
      </trkpt>
      <trkpt lat="43.73911" lon="6.3728">
        <ele>892.4</ele>
        <time>2021-09-07T13:43:40.000Z</time>
      </trkpt>
      <trkpt lat="43.73913" lon="6.37281">
        <ele>892.5</ele>
        <time>2021-09-07T13:43:42.000Z</time>
      </trkpt>
      <trkpt lat="43.73919" lon="6.37282">
        <ele>892.4</ele>
        <time>2021-09-07T13:43:43.000Z</time>
      </trkpt>
      <trkpt lat="43.73922" lon="6.37283">
        <ele>892.7</ele>
        <time>2021-09-07T13:43:44.000Z</time>
      </trkpt>
      <trkpt lat="43.73925" lon="6.37285">
        <ele>892.9</ele>
        <time>2021-09-07T13:43:45.000Z</time>
      </trkpt>
      <trkpt lat="43.7392" lon="6.37283">
        <ele>892.5</ele>
        <time>2021-09-07T13:43:45.000Z</time>
      </trkpt>
      <trkpt lat="43.73923" lon="6.37284">
        <ele>892.8</ele>
        <time>2021-09-07T13:43:46.000Z</time>
      </trkpt>
      <trkpt lat="43.73928" lon="6.37287">
        <ele>892.8</ele>
        <time>2021-09-07T13:43:46.000Z</time>
      </trkpt>
      <trkpt lat="43.73941" lon="6.37294">
        <ele>892.9</ele>
        <time>2021-09-07T13:43:50.000Z</time>
      </trkpt>
      <trkpt lat="43.7394" lon="6.37293">
        <ele>893</ele>
        <time>2021-09-07T13:43:51.000Z</time>
      </trkpt>
      <trkpt lat="43.73945" lon="6.37296">
        <ele>893.1</ele>
        <time>2021-09-07T13:43:52.000Z</time>
      </trkpt>
      <trkpt lat="43.73949" lon="6.37299">
        <ele>893.2</ele>
        <time>2021-09-07T13:43:52.000Z</time>
      </trkpt>
      <trkpt lat="43.73952" lon="6.37301">
        <ele>893.1</ele>
        <time>2021-09-07T13:43:54.000Z</time>
      </trkpt>
      <trkpt lat="43.73967" lon="6.37311">
        <ele>893.2</ele>
        <time>2021-09-07T13:43:57.000Z</time>
      </trkpt>
      <trkpt lat="43.73971" lon="6.37313">
        <ele>893.1</ele>
        <time>2021-09-07T13:43:59.000Z</time>
      </trkpt>
      <trkpt lat="43.73975" lon="6.37317">
        <ele>893.2</ele>
        <time>2021-09-07T13:43:59.000Z</time>
      </trkpt>
      <trkpt lat="43.73979" lon="6.37321">
        <ele>893.4</ele>
        <time>2021-09-07T13:44:00.000Z</time>
      </trkpt>
      <trkpt lat="43.73982" lon="6.37324">
        <ele>893.2</ele>
        <time>2021-09-07T13:44:01.000Z</time>
      </trkpt>
      <trkpt lat="43.73987" lon="6.37327">
        <ele>892.9</ele>
        <time>2021-09-07T13:44:02.000Z</time>
      </trkpt>
      <trkpt lat="43.73984" lon="6.37326">
        <ele>893</ele>
        <time>2021-09-07T13:44:03.000Z</time>
      </trkpt>
      <trkpt lat="43.73991" lon="6.37327">
        <ele>892.9</ele>
        <time>2021-09-07T13:44:04.000Z</time>
      </trkpt>
      <trkpt lat="43.74" lon="6.37328">
        <ele>892.4</ele>
        <time>2021-09-07T13:44:05.000Z</time>
      </trkpt>
      <trkpt lat="43.74003" lon="6.3733">
        <ele>892.3</ele>
        <time>2021-09-07T13:44:07.000Z</time>
      </trkpt>
      <trkpt lat="43.74004" lon="6.3736">
        <ele>889.4</ele>
        <time>2021-09-07T13:44:12.000Z</time>
      </trkpt>
      <trkpt lat="43.73974" lon="6.37389">
        <ele>887</ele>
        <time>2021-09-07T13:44:17.000Z</time>
      </trkpt>
      <trkpt lat="43.7394" lon="6.37432">
        <ele>883.5</ele>
        <time>2021-09-07T13:44:22.000Z</time>
      </trkpt>
      <trkpt lat="43.73902" lon="6.37483">
        <ele>879</ele>
        <time>2021-09-07T13:44:27.000Z</time>
      </trkpt>
      <trkpt lat="43.7385" lon="6.37536">
        <ele>873</ele>
        <time>2021-09-07T13:44:32.000Z</time>
      </trkpt>
      <trkpt lat="43.7379" lon="6.37575">
        <ele>866.7</ele>
        <time>2021-09-07T13:44:37.000Z</time>
      </trkpt>
      <trkpt lat="43.73748" lon="6.37635">
        <ele>862.7</ele>
        <time>2021-09-07T13:44:42.000Z</time>
      </trkpt>
      <trkpt lat="43.73703" lon="6.37688">
        <ele>858.1</ele>
        <time>2021-09-07T13:44:47.000Z</time>
      </trkpt>
      <trkpt lat="43.73647" lon="6.37701">
        <ele>850.2</ele>
        <time>2021-09-07T13:44:52.000Z</time>
      </trkpt>
      <trkpt lat="43.73584" lon="6.37691">
        <ele>845.6</ele>
        <time>2021-09-07T13:44:57.000Z</time>
      </trkpt>
      <trkpt lat="43.73517" lon="6.377">
        <ele>839.6</ele>
        <time>2021-09-07T13:45:02.000Z</time>
      </trkpt>
      <trkpt lat="43.73455" lon="6.37702">
        <ele>833.5</ele>
        <time>2021-09-07T13:45:07.000Z</time>
      </trkpt>
      <trkpt lat="43.7339" lon="6.37683">
        <ele>828.2</ele>
        <time>2021-09-07T13:45:12.000Z</time>
      </trkpt>
      <trkpt lat="43.7334" lon="6.37631">
        <ele>822.4</ele>
        <time>2021-09-07T13:45:17.000Z</time>
      </trkpt>
      <trkpt lat="43.73293" lon="6.37649">
        <ele>819.1</ele>
        <time>2021-09-07T13:45:22.000Z</time>
      </trkpt>
      <trkpt lat="43.73264" lon="6.37711">
        <ele>816.1</ele>
        <time>2021-09-07T13:45:27.000Z</time>
      </trkpt>
      <trkpt lat="43.73266" lon="6.37781">
        <ele>813.5</ele>
        <time>2021-09-07T13:45:32.000Z</time>
      </trkpt>
      <trkpt lat="43.73289" lon="6.37859">
        <ele>810.8</ele>
        <time>2021-09-07T13:45:37.000Z</time>
      </trkpt>
      <trkpt lat="43.73308" lon="6.3794">
        <ele>808.7</ele>
        <time>2021-09-07T13:45:42.000Z</time>
      </trkpt>
      <trkpt lat="43.73311" lon="6.38023">
        <ele>804.4</ele>
        <time>2021-09-07T13:45:47.000Z</time>
      </trkpt>
      <trkpt lat="43.73308" lon="6.38106">
        <ele>801.6</ele>
        <time>2021-09-07T13:45:52.000Z</time>
      </trkpt>
      <trkpt lat="43.73295" lon="6.38193">
        <ele>797.3</ele>
        <time>2021-09-07T13:45:57.000Z</time>
      </trkpt>
      <trkpt lat="43.73283" lon="6.3828">
        <ele>794.1</ele>
        <time>2021-09-07T13:46:02.000Z</time>
      </trkpt>
      <trkpt lat="43.73277" lon="6.38362">
        <ele>789.7</ele>
        <time>2021-09-07T13:46:07.000Z</time>
      </trkpt>
      <trkpt lat="43.73287" lon="6.38444">
        <ele>786.2</ele>
        <time>2021-09-07T13:46:12.000Z</time>
      </trkpt>
      <trkpt lat="43.73286" lon="6.38527">
        <ele>782.7</ele>
        <time>2021-09-07T13:46:17.000Z</time>
      </trkpt>
      <trkpt lat="43.7328" lon="6.38606">
        <ele>779.3</ele>
        <time>2021-09-07T13:46:22.000Z</time>
      </trkpt>
      <trkpt lat="43.73283" lon="6.3869">
        <ele>775.8</ele>
        <time>2021-09-07T13:46:27.000Z</time>
      </trkpt>
      <trkpt lat="43.7326" lon="6.38737">
        <ele>772.2</ele>
        <time>2021-09-07T13:46:32.000Z</time>
      </trkpt>
      <trkpt lat="43.73212" lon="6.38727">
        <ele>768.6</ele>
        <time>2021-09-07T13:46:37.000Z</time>
      </trkpt>
      <trkpt lat="43.73162" lon="6.38741">
        <ele>764</ele>
        <time>2021-09-07T13:46:42.000Z</time>
      </trkpt>
      <trkpt lat="43.73121" lon="6.38712">
        <ele>760.8</ele>
        <time>2021-09-07T13:46:47.000Z</time>
      </trkpt>
      <trkpt lat="43.73088" lon="6.38665">
        <ele>759.3</ele>
        <time>2021-09-07T13:46:52.000Z</time>
      </trkpt>
      <trkpt lat="43.73054" lon="6.38663">
        <ele>759.9</ele>
        <time>2021-09-07T13:46:57.000Z</time>
      </trkpt>
      <trkpt lat="43.73037" lon="6.38692">
        <ele>759.6</ele>
        <time>2021-09-07T13:47:02.000Z</time>
      </trkpt>
      <trkpt lat="43.73026" lon="6.38716">
        <ele>759.1</ele>
        <time>2021-09-07T13:47:07.000Z</time>
      </trkpt>
      <trkpt lat="43.73014" lon="6.38731">
        <ele>759.1</ele>
        <time>2021-09-07T13:47:12.000Z</time>
      </trkpt>
      <trkpt lat="43.73013" lon="6.38732">
        <ele>758.6</ele>
        <time>2021-09-07T13:47:16.000Z</time>
      </trkpt>
      <trkpt lat="43.73014" lon="6.38732">
        <ele>758.8</ele>
        <time>2021-09-07T13:47:21.000Z</time>
      </trkpt>
      <trkpt lat="43.73014" lon="6.38732">
        <ele>759</ele>
        <time>2021-09-07T13:47:26.000Z</time>
      </trkpt>
      <trkpt lat="43.73014" lon="6.38732">
        <ele>759.2</ele>
        <time>2021-09-07T13:47:31.000Z</time>
      </trkpt>
      <trkpt lat="43.73014" lon="6.38732">
        <ele>759.2</ele>
        <time>2021-09-07T13:47:36.000Z</time>
      </trkpt>
      <trkpt lat="43.73014" lon="6.38732">
        <ele>759.4</ele>
        <time>2021-09-07T13:47:41.000Z</time>
      </trkpt>
      <trkpt lat="43.73014" lon="6.38732">
        <ele>759.2</ele>
        <time>2021-09-07T13:47:46.000Z</time>
      </trkpt>
      <trkpt lat="43.73014" lon="6.38732">
        <ele>759.3</ele>
        <time>2021-09-07T13:47:51.000Z</time>
      </trkpt>
      <trkpt lat="43.73014" lon="6.38732">
        <ele>759.3</ele>
        <time>2021-09-07T13:47:56.000Z</time>
      </trkpt>
      <trkpt lat="43.73014" lon="6.38732">
        <ele>759.3</ele>
        <time>2021-09-07T13:48:01.000Z</time>
      </trkpt>
      <trkpt lat="43.73014" lon="6.38732">
        <ele>759</ele>
        <time>2021-09-07T13:48:06.000Z</time>
      </trkpt>
      <trkpt lat="43.73014" lon="6.38732">
        <ele>759</ele>
        <time>2021-09-07T13:48:11.000Z</time>
      </trkpt>
      <trkpt lat="43.73014" lon="6.38732">
        <ele>759.1</ele>
        <time>2021-09-07T13:48:16.000Z</time>
      </trkpt>
      <trkpt lat="43.73014" lon="6.38732">
        <ele>758.9</ele>
        <time>2021-09-07T13:48:21.000Z</time>
      </trkpt>
      <trkpt lat="43.73014" lon="6.38732">
        <ele>759.4</ele>
        <time>2021-09-07T13:48:26.000Z</time>
      </trkpt>
      <trkpt lat="43.73014" lon="6.38732">
        <ele>759.5</ele>
        <time>2021-09-07T13:48:31.000Z</time>
      </trkpt>
      <trkpt lat="43.73014" lon="6.38732">
        <ele>759.4</ele>
        <time>2021-09-07T13:48:36.000Z</time>
      </trkpt>
      <trkpt lat="43.73014" lon="6.38732">
        <ele>759.1</ele>
        <time>2021-09-07T13:48:41.000Z</time>
      </trkpt>
      <trkpt lat="43.73014" lon="6.38732">
        <ele>758.9</ele>
        <time>2021-09-07T13:48:46.000Z</time>
      </trkpt>
      <trkpt lat="43.73016" lon="6.38729">
        <ele>759.3</ele>
        <time>2021-09-07T13:48:48.000Z</time>
      </trkpt>
      <trkpt lat="43.73016" lon="6.38727">
        <ele>759.3</ele>
        <time>2021-09-07T13:48:51.000Z</time>
      </trkpt>
      <trkpt lat="43.73017" lon="6.38727">
        <ele>759.3</ele>
        <time>2021-09-07T13:48:56.000Z</time>
      </trkpt>
      <trkpt lat="43.73017" lon="6.38727">
        <ele>759.3</ele>
        <time>2021-09-07T13:49:01.000Z</time>
      </trkpt>
      <trkpt lat="43.73017" lon="6.38727">
        <ele>759.1</ele>
        <time>2021-09-07T13:49:06.000Z</time>
      </trkpt>
      <trkpt lat="43.73017" lon="6.38727">
        <ele>759</ele>
        <time>2021-09-07T13:49:11.000Z</time>
      </trkpt>
      <trkpt lat="43.73017" lon="6.38727">
        <ele>759.3</ele>
        <time>2021-09-07T13:49:16.000Z</time>
      </trkpt>
      <trkpt lat="43.73017" lon="6.38727">
        <ele>759.5</ele>
        <time>2021-09-07T13:49:21.000Z</time>
      </trkpt>
      <trkpt lat="43.73017" lon="6.38727">
        <ele>759.6</ele>
        <time>2021-09-07T13:49:26.000Z</time>
      </trkpt>
      <trkpt lat="43.73017" lon="6.38727">
        <ele>759.3</ele>
        <time>2021-09-07T13:49:31.000Z</time>
      </trkpt>
      <trkpt lat="43.73017" lon="6.38727">
        <ele>759.3</ele>
        <time>2021-09-07T13:49:36.000Z</time>
      </trkpt>
      <trkpt lat="43.73017" lon="6.38727">
        <ele>759</ele>
        <time>2021-09-07T13:49:41.000Z</time>
      </trkpt>
      <trkpt lat="43.73017" lon="6.38727">
        <ele>759.3</ele>
        <time>2021-09-07T13:49:46.000Z</time>
      </trkpt>
      <trkpt lat="43.73017" lon="6.38727">
        <ele>759</ele>
        <time>2021-09-07T13:49:51.000Z</time>
      </trkpt>
      <trkpt lat="43.73017" lon="6.38727">
        <ele>759.1</ele>
        <time>2021-09-07T13:49:56.000Z</time>
      </trkpt>
      <trkpt lat="43.73017" lon="6.38727">
        <ele>758.9</ele>
        <time>2021-09-07T13:50:01.000Z</time>
      </trkpt>
      <trkpt lat="43.73017" lon="6.38727">
        <ele>758.8</ele>
        <time>2021-09-07T13:50:06.000Z</time>
      </trkpt>
      <trkpt lat="43.73017" lon="6.38727">
        <ele>758.8</ele>
        <time>2021-09-07T13:50:11.000Z</time>
      </trkpt>
      <trkpt lat="43.73017" lon="6.38727">
        <ele>759.1</ele>
        <time>2021-09-07T13:50:16.000Z</time>
      </trkpt>
      <trkpt lat="43.73017" lon="6.38727">
        <ele>759.7</ele>
        <time>2021-09-07T13:50:21.000Z</time>
      </trkpt>
      <trkpt lat="43.73017" lon="6.38727">
        <ele>759.8</ele>
        <time>2021-09-07T13:50:26.000Z</time>
      </trkpt>
      <trkpt lat="43.73017" lon="6.38727">
        <ele>759.9</ele>
        <time>2021-09-07T13:50:31.000Z</time>
      </trkpt>
      <trkpt lat="43.73017" lon="6.38727">
        <ele>759.8</ele>
        <time>2021-09-07T13:50:36.000Z</time>
      </trkpt>
      <trkpt lat="43.73017" lon="6.38727">
        <ele>759.8</ele>
        <time>2021-09-07T13:50:41.000Z</time>
      </trkpt>
      <trkpt lat="43.73017" lon="6.38727">
        <ele>759.6</ele>
        <time>2021-09-07T13:50:46.000Z</time>
      </trkpt>
      <trkpt lat="43.73017" lon="6.38727">
        <ele>759.4</ele>
        <time>2021-09-07T13:50:51.000Z</time>
      </trkpt>
      <trkpt lat="43.73017" lon="6.38727">
        <ele>759.3</ele>
        <time>2021-09-07T13:50:56.000Z</time>
      </trkpt>
      <trkpt lat="43.73017" lon="6.38727">
        <ele>759.4</ele>
        <time>2021-09-07T13:51:01.000Z</time>
      </trkpt>
      <trkpt lat="43.73017" lon="6.38727">
        <ele>759.7</ele>
        <time>2021-09-07T13:51:06.000Z</time>
      </trkpt>
      <trkpt lat="43.73016" lon="6.38728">
        <ele>759.8</ele>
        <time>2021-09-07T13:51:10.000Z</time>
      </trkpt>
      <trkpt lat="43.73008" lon="6.3874">
        <ele>760.6</ele>
        <time>2021-09-07T13:51:15.000Z</time>
      </trkpt>
      <trkpt lat="43.72997" lon="6.38757">
        <ele>759.5</ele>
        <time>2021-09-07T13:51:20.000Z</time>
      </trkpt>
      <trkpt lat="43.72982" lon="6.3878">
        <ele>760.1</ele>
        <time>2021-09-07T13:51:25.000Z</time>
      </trkpt>
      <trkpt lat="43.7297" lon="6.38804">
        <ele>760.1</ele>
        <time>2021-09-07T13:51:30.000Z</time>
      </trkpt>
      <trkpt lat="43.72965" lon="6.38836">
        <ele>760.7</ele>
        <time>2021-09-07T13:51:35.000Z</time>
      </trkpt>
      <trkpt lat="43.72969" lon="6.38858">
        <ele>761.1</ele>
        <time>2021-09-07T13:51:40.000Z</time>
      </trkpt>
      <trkpt lat="43.72978" lon="6.38874">
        <ele>762.5</ele>
        <time>2021-09-07T13:51:45.000Z</time>
      </trkpt>
      <trkpt lat="43.72989" lon="6.38885">
        <ele>763.5</ele>
        <time>2021-09-07T13:51:50.000Z</time>
      </trkpt>
      <trkpt lat="43.72998" lon="6.38896">
        <ele>764.4</ele>
        <time>2021-09-07T13:51:55.000Z</time>
      </trkpt>
      <trkpt lat="43.73009" lon="6.38907">
        <ele>765.8</ele>
        <time>2021-09-07T13:52:00.000Z</time>
      </trkpt>
      <trkpt lat="43.73011" lon="6.38909">
        <ele>766</ele>
        <time>2021-09-07T13:52:01.000Z</time>
      </trkpt>
      <trkpt lat="43.73012" lon="6.3891">
        <ele>766</ele>
        <time>2021-09-07T13:52:03.000Z</time>
      </trkpt>
      <trkpt lat="43.73019" lon="6.38916">
        <ele>766.4</ele>
        <time>2021-09-07T13:52:05.000Z</time>
      </trkpt>
      <trkpt lat="43.7302" lon="6.38918">
        <ele>766.6</ele>
        <time>2021-09-07T13:52:06.000Z</time>
      </trkpt>
      <trkpt lat="43.7302" lon="6.38917">
        <ele>766.6</ele>
        <time>2021-09-07T13:52:07.000Z</time>
      </trkpt>
      <trkpt lat="43.73022" lon="6.38919">
        <ele>766.9</ele>
        <time>2021-09-07T13:52:07.000Z</time>
      </trkpt>
      <trkpt lat="43.73025" lon="6.38921">
        <ele>767.1</ele>
        <time>2021-09-07T13:52:09.000Z</time>
      </trkpt>
      <trkpt lat="43.73027" lon="6.38922">
        <ele>767.4</ele>
        <time>2021-09-07T13:52:10.000Z</time>
      </trkpt>
      <trkpt lat="43.73027" lon="6.38922">
        <ele>767.3</ele>
        <time>2021-09-07T13:52:11.000Z</time>
      </trkpt>
      <trkpt lat="43.73028" lon="6.38923">
        <ele>767.4</ele>
        <time>2021-09-07T13:52:12.000Z</time>
      </trkpt>
      <trkpt lat="43.73032" lon="6.38927">
        <ele>767.9</ele>
        <time>2021-09-07T13:52:13.000Z</time>
      </trkpt>
      <trkpt lat="43.73032" lon="6.38927">
        <ele>768.1</ele>
        <time>2021-09-07T13:52:15.000Z</time>
      </trkpt>
      <trkpt lat="43.73035" lon="6.3893">
        <ele>768.4</ele>
        <time>2021-09-07T13:52:15.000Z</time>
      </trkpt>
      <trkpt lat="43.73037" lon="6.38931">
        <ele>768.6</ele>
        <time>2021-09-07T13:52:16.000Z</time>
      </trkpt>
      <trkpt lat="43.73041" lon="6.38935">
        <ele>769</ele>
        <time>2021-09-07T13:52:18.000Z</time>
      </trkpt>
      <trkpt lat="43.73043" lon="6.38936">
        <ele>769.1</ele>
        <time>2021-09-07T13:52:19.000Z</time>
      </trkpt>
      <trkpt lat="43.73043" lon="6.38936">
        <ele>769.1</ele>
        <time>2021-09-07T13:52:20.000Z</time>
      </trkpt>
      <trkpt lat="43.73045" lon="6.38938">
        <ele>769.4</ele>
        <time>2021-09-07T13:52:21.000Z</time>
      </trkpt>
      <trkpt lat="43.7305" lon="6.38941">
        <ele>769.6</ele>
        <time>2021-09-07T13:52:22.000Z</time>
      </trkpt>
      <trkpt lat="43.73052" lon="6.38943">
        <ele>769.9</ele>
        <time>2021-09-07T13:52:23.000Z</time>
      </trkpt>
      <trkpt lat="43.73054" lon="6.38945">
        <ele>770.1</ele>
        <time>2021-09-07T13:52:24.000Z</time>
      </trkpt>
      <trkpt lat="43.7305" lon="6.38942">
        <ele>769.7</ele>
        <time>2021-09-07T13:52:24.000Z</time>
      </trkpt>
      <trkpt lat="43.73053" lon="6.38944">
        <ele>770.1</ele>
        <time>2021-09-07T13:52:25.000Z</time>
      </trkpt>
      <trkpt lat="43.73056" lon="6.38947">
        <ele>770.4</ele>
        <time>2021-09-07T13:52:25.000Z</time>
      </trkpt>
      <trkpt lat="43.73062" lon="6.3895">
        <ele>770.6</ele>
        <time>2021-09-07T13:52:28.000Z</time>
      </trkpt>
      <trkpt lat="43.73064" lon="6.38951">
        <ele>770.9</ele>
        <time>2021-09-07T13:52:30.000Z</time>
      </trkpt>
      <trkpt lat="43.73066" lon="6.38952">
        <ele>771</ele>
        <time>2021-09-07T13:52:30.000Z</time>
      </trkpt>
      <trkpt lat="43.73067" lon="6.38954">
        <ele>771.4</ele>
        <time>2021-09-07T13:52:31.000Z</time>
      </trkpt>
      <trkpt lat="43.73067" lon="6.38953">
        <ele>771.2</ele>
        <time>2021-09-07T13:52:32.000Z</time>
      </trkpt>
      <trkpt lat="43.73069" lon="6.38955">
        <ele>771.5</ele>
        <time>2021-09-07T13:52:32.000Z</time>
      </trkpt>
      <trkpt lat="43.73074" lon="6.3896">
        <ele>772</ele>
        <time>2021-09-07T13:52:36.000Z</time>
      </trkpt>
      <trkpt lat="43.73073" lon="6.38959">
        <ele>772.1</ele>
        <time>2021-09-07T13:52:37.000Z</time>
      </trkpt>
      <trkpt lat="43.73076" lon="6.38961">
        <ele>771.9</ele>
        <time>2021-09-07T13:52:38.000Z</time>
      </trkpt>
      <trkpt lat="43.73079" lon="6.38964">
        <ele>772.4</ele>
        <time>2021-09-07T13:52:40.000Z</time>
      </trkpt>
      <trkpt lat="43.73081" lon="6.38965">
        <ele>772.4</ele>
        <time>2021-09-07T13:52:41.000Z</time>
      </trkpt>
      <trkpt lat="43.73082" lon="6.38966">
        <ele>772.6</ele>
        <time>2021-09-07T13:52:42.000Z</time>
      </trkpt>
      <trkpt lat="43.73083" lon="6.38966">
        <ele>772.7</ele>
        <time>2021-09-07T13:52:44.000Z</time>
      </trkpt>
      <trkpt lat="43.73085" lon="6.38968">
        <ele>773.2</ele>
        <time>2021-09-07T13:52:45.000Z</time>
      </trkpt>
      <trkpt lat="43.73087" lon="6.38969">
        <ele>773.3</ele>
        <time>2021-09-07T13:52:46.000Z</time>
      </trkpt>
      <trkpt lat="43.73088" lon="6.3897">
        <ele>773.5</ele>
        <time>2021-09-07T13:52:47.000Z</time>
      </trkpt>
      <trkpt lat="43.73086" lon="6.38968">
        <ele>773.3</ele>
        <time>2021-09-07T13:52:47.000Z</time>
      </trkpt>
      <trkpt lat="43.7309" lon="6.38971">
        <ele>773.6</ele>
        <time>2021-09-07T13:52:48.000Z</time>
      </trkpt>
      <trkpt lat="43.73088" lon="6.3897">
        <ele>773.3</ele>
        <time>2021-09-07T13:52:48.000Z</time>
      </trkpt>
      <trkpt lat="43.73089" lon="6.38971">
        <ele>773.6</ele>
        <time>2021-09-07T13:52:49.000Z</time>
      </trkpt>
      <trkpt lat="43.73091" lon="6.38972">
        <ele>773.7</ele>
        <time>2021-09-07T13:52:49.000Z</time>
      </trkpt>
      <trkpt lat="43.73097" lon="6.38975">
        <ele>773.8</ele>
        <time>2021-09-07T13:52:52.000Z</time>
      </trkpt>
      <trkpt lat="43.73098" lon="6.38976">
        <ele>774.1</ele>
        <time>2021-09-07T13:52:53.000Z</time>
      </trkpt>
      <trkpt lat="43.73105" lon="6.38979">
        <ele>774.6</ele>
        <time>2021-09-07T13:52:58.000Z</time>
      </trkpt>
      <trkpt lat="43.73106" lon="6.3898">
        <ele>774.9</ele>
        <time>2021-09-07T13:52:58.000Z</time>
      </trkpt>
      <trkpt lat="43.73108" lon="6.3898">
        <ele>775.1</ele>
        <time>2021-09-07T13:52:59.000Z</time>
      </trkpt>
      <trkpt lat="43.73107" lon="6.3898">
        <ele>775.1</ele>
        <time>2021-09-07T13:53:00.000Z</time>
      </trkpt>
      <trkpt lat="43.73109" lon="6.38981">
        <ele>775.2</ele>
        <time>2021-09-07T13:53:00.000Z</time>
      </trkpt>
      <trkpt lat="43.73116" lon="6.38983">
        <ele>775.8</ele>
        <time>2021-09-07T13:53:06.000Z</time>
      </trkpt>
      <trkpt lat="43.73118" lon="6.38983">
        <ele>775.9</ele>
        <time>2021-09-07T13:53:07.000Z</time>
      </trkpt>
      <trkpt lat="43.73121" lon="6.38982">
        <ele>776.1</ele>
        <time>2021-09-07T13:53:07.000Z</time>
      </trkpt>
      <trkpt lat="43.73123" lon="6.38982">
        <ele>776.2</ele>
        <time>2021-09-07T13:53:08.000Z</time>
      </trkpt>
      <trkpt lat="43.73127" lon="6.38982">
        <ele>776.5</ele>
        <time>2021-09-07T13:53:10.000Z</time>
      </trkpt>
      <trkpt lat="43.73129" lon="6.38982">
        <ele>776.9</ele>
        <time>2021-09-07T13:53:11.000Z</time>
      </trkpt>
      <trkpt lat="43.73128" lon="6.38982">
        <ele>776.8</ele>
        <time>2021-09-07T13:53:12.000Z</time>
      </trkpt>
      <trkpt lat="43.73131" lon="6.38982">
        <ele>776.8</ele>
        <time>2021-09-07T13:53:12.000Z</time>
      </trkpt>
      <trkpt lat="43.73136" lon="6.38983">
        <ele>777.1</ele>
        <time>2021-09-07T13:53:15.000Z</time>
      </trkpt>
      <trkpt lat="43.73138" lon="6.38984">
        <ele>777.2</ele>
        <time>2021-09-07T13:53:16.000Z</time>
      </trkpt>
      <trkpt lat="43.73141" lon="6.38985">
        <ele>777.8</ele>
        <time>2021-09-07T13:53:18.000Z</time>
      </trkpt>
      <trkpt lat="43.73143" lon="6.38985">
        <ele>778</ele>
        <time>2021-09-07T13:53:19.000Z</time>
      </trkpt>
      <trkpt lat="43.73149" lon="6.38986">
        <ele>778.2</ele>
        <time>2021-09-07T13:53:22.000Z</time>
      </trkpt>
      <trkpt lat="43.73151" lon="6.38987">
        <ele>778.2</ele>
        <time>2021-09-07T13:53:23.000Z</time>
      </trkpt>
      <trkpt lat="43.73161" lon="6.38987">
        <ele>779.4</ele>
        <time>2021-09-07T13:53:28.000Z</time>
      </trkpt>
      <trkpt lat="43.73171" lon="6.38989">
        <ele>780</ele>
        <time>2021-09-07T13:53:33.000Z</time>
      </trkpt>
      <trkpt lat="43.73179" lon="6.38992">
        <ele>780.7</ele>
        <time>2021-09-07T13:53:38.000Z</time>
      </trkpt>
      <trkpt lat="43.73187" lon="6.38997">
        <ele>781.4</ele>
        <time>2021-09-07T13:53:43.000Z</time>
      </trkpt>
      <trkpt lat="43.73197" lon="6.39005">
        <ele>782.2</ele>
        <time>2021-09-07T13:53:48.000Z</time>
      </trkpt>
      <trkpt lat="43.73209" lon="6.39019">
        <ele>783.2</ele>
        <time>2021-09-07T13:53:53.000Z</time>
      </trkpt>
      <trkpt lat="43.73213" lon="6.39041">
        <ele>784.4</ele>
        <time>2021-09-07T13:53:58.000Z</time>
      </trkpt>
      <trkpt lat="43.73216" lon="6.39063">
        <ele>785.7</ele>
        <time>2021-09-07T13:54:03.000Z</time>
      </trkpt>
      <trkpt lat="43.73221" lon="6.39085">
        <ele>786.4</ele>
        <time>2021-09-07T13:54:08.000Z</time>
      </trkpt>
      <trkpt lat="43.73227" lon="6.39091">
        <ele>786.6</ele>
        <time>2021-09-07T13:54:13.000Z</time>
      </trkpt>
      <trkpt lat="43.73233" lon="6.39098">
        <ele>787.1</ele>
        <time>2021-09-07T13:54:18.000Z</time>
      </trkpt>
      <trkpt lat="43.73242" lon="6.39104">
        <ele>787.7</ele>
        <time>2021-09-07T13:54:23.000Z</time>
      </trkpt>
      <trkpt lat="43.73252" lon="6.39112">
        <ele>788.1</ele>
        <time>2021-09-07T13:54:28.000Z</time>
      </trkpt>
      <trkpt lat="43.73263" lon="6.39124">
        <ele>788.7</ele>
        <time>2021-09-07T13:54:33.000Z</time>
      </trkpt>
      <trkpt lat="43.73273" lon="6.39133">
        <ele>789.3</ele>
        <time>2021-09-07T13:54:38.000Z</time>
      </trkpt>
      <trkpt lat="43.73282" lon="6.39141">
        <ele>789.7</ele>
        <time>2021-09-07T13:54:43.000Z</time>
      </trkpt>
      <trkpt lat="43.73293" lon="6.39151">
        <ele>790.7</ele>
        <time>2021-09-07T13:54:48.000Z</time>
      </trkpt>
      <trkpt lat="43.73303" lon="6.39159">
        <ele>791.6</ele>
        <time>2021-09-07T13:54:53.000Z</time>
      </trkpt>
      <trkpt lat="43.73311" lon="6.39166">
        <ele>791.9</ele>
        <time>2021-09-07T13:54:58.000Z</time>
      </trkpt>
      <trkpt lat="43.73322" lon="6.39174">
        <ele>793.1</ele>
        <time>2021-09-07T13:55:03.000Z</time>
      </trkpt>
      <trkpt lat="43.73331" lon="6.39186">
        <ele>793.7</ele>
        <time>2021-09-07T13:55:08.000Z</time>
      </trkpt>
      <trkpt lat="43.73342" lon="6.39195">
        <ele>794.8</ele>
        <time>2021-09-07T13:55:13.000Z</time>
      </trkpt>
      <trkpt lat="43.7335" lon="6.39203">
        <ele>795.4</ele>
        <time>2021-09-07T13:55:18.000Z</time>
      </trkpt>
      <trkpt lat="43.73359" lon="6.3921">
        <ele>796.4</ele>
        <time>2021-09-07T13:55:23.000Z</time>
      </trkpt>
      <trkpt lat="43.73368" lon="6.39219">
        <ele>797.3</ele>
        <time>2021-09-07T13:55:28.000Z</time>
      </trkpt>
      <trkpt lat="43.7338" lon="6.39225">
        <ele>798</ele>
        <time>2021-09-07T13:55:33.000Z</time>
      </trkpt>
      <trkpt lat="43.7339" lon="6.39236">
        <ele>798.8</ele>
        <time>2021-09-07T13:55:38.000Z</time>
      </trkpt>
      <trkpt lat="43.73399" lon="6.39245">
        <ele>799.1</ele>
        <time>2021-09-07T13:55:43.000Z</time>
      </trkpt>
      <trkpt lat="43.73408" lon="6.39251">
        <ele>799.9</ele>
        <time>2021-09-07T13:55:48.000Z</time>
      </trkpt>
      <trkpt lat="43.7342" lon="6.39265">
        <ele>800.9</ele>
        <time>2021-09-07T13:55:53.000Z</time>
      </trkpt>
      <trkpt lat="43.73429" lon="6.3928">
        <ele>801.7</ele>
        <time>2021-09-07T13:55:58.000Z</time>
      </trkpt>
      <trkpt lat="43.73439" lon="6.39286">
        <ele>802.5</ele>
        <time>2021-09-07T13:56:03.000Z</time>
      </trkpt>
      <trkpt lat="43.73435" lon="6.39302">
        <ele>803.5</ele>
        <time>2021-09-07T13:56:08.000Z</time>
      </trkpt>
      <trkpt lat="43.7344" lon="6.39326">
        <ele>804.8</ele>
        <time>2021-09-07T13:56:13.000Z</time>
      </trkpt>
      <trkpt lat="43.73446" lon="6.39346">
        <ele>806</ele>
        <time>2021-09-07T13:56:18.000Z</time>
      </trkpt>
      <trkpt lat="43.7345" lon="6.39363">
        <ele>807.3</ele>
        <time>2021-09-07T13:56:23.000Z</time>
      </trkpt>
      <trkpt lat="43.73455" lon="6.39377">
        <ele>807.8</ele>
        <time>2021-09-07T13:56:28.000Z</time>
      </trkpt>
      <trkpt lat="43.73456" lon="6.39384">
        <ele>808.2</ele>
        <time>2021-09-07T13:56:33.000Z</time>
      </trkpt>
      <trkpt lat="43.73461" lon="6.39386">
        <ele>808.8</ele>
        <time>2021-09-07T13:56:38.000Z</time>
      </trkpt>
      <trkpt lat="43.73473" lon="6.39384">
        <ele>809.4</ele>
        <time>2021-09-07T13:56:43.000Z</time>
      </trkpt>
      <trkpt lat="43.73483" lon="6.39383">
        <ele>810.7</ele>
        <time>2021-09-07T13:56:48.000Z</time>
      </trkpt>
      <trkpt lat="43.73492" lon="6.39375">
        <ele>810.5</ele>
        <time>2021-09-07T13:56:53.000Z</time>
      </trkpt>
      <trkpt lat="43.73492" lon="6.3937">
        <ele>810.2</ele>
        <time>2021-09-07T13:56:58.000Z</time>
      </trkpt>
      <trkpt lat="43.73492" lon="6.39369">
        <ele>810.7</ele>
        <time>2021-09-07T13:57:03.000Z</time>
      </trkpt>
      <trkpt lat="43.73492" lon="6.39369">
        <ele>810.3</ele>
        <time>2021-09-07T13:57:08.000Z</time>
      </trkpt>
      <trkpt lat="43.73492" lon="6.39369">
        <ele>810</ele>
        <time>2021-09-07T13:57:13.000Z</time>
      </trkpt>
      <trkpt lat="43.73492" lon="6.39368">
        <ele>810</ele>
        <time>2021-09-07T13:57:18.000Z</time>
      </trkpt>
      <trkpt lat="43.73492" lon="6.39368">
        <ele>810.1</ele>
        <time>2021-09-07T13:57:23.000Z</time>
      </trkpt>
      <trkpt lat="43.73492" lon="6.39368">
        <ele>809.8</ele>
        <time>2021-09-07T13:57:28.000Z</time>
      </trkpt>
      <trkpt lat="43.73492" lon="6.39368">
        <ele>809.6</ele>
        <time>2021-09-07T13:57:33.000Z</time>
      </trkpt>
      <trkpt lat="43.73493" lon="6.39367">
        <ele>809.3</ele>
        <time>2021-09-07T13:57:38.000Z</time>
      </trkpt>
      <trkpt lat="43.73492" lon="6.39366">
        <ele>809.1</ele>
        <time>2021-09-07T13:57:43.000Z</time>
      </trkpt>
      <trkpt lat="43.73492" lon="6.39366">
        <ele>809.2</ele>
        <time>2021-09-07T13:57:44.000Z</time>
      </trkpt>
      <trkpt lat="43.73492" lon="6.39366">
        <ele>809.4</ele>
        <time>2021-09-07T13:57:45.000Z</time>
      </trkpt>
      <trkpt lat="43.73492" lon="6.39365">
        <ele>809.5</ele>
        <time>2021-09-07T13:57:50.000Z</time>
      </trkpt>
      <trkpt lat="43.73491" lon="6.39364">
        <ele>809.4</ele>
        <time>2021-09-07T13:57:55.000Z</time>
      </trkpt>
      <trkpt lat="43.73491" lon="6.39364">
        <ele>809.4</ele>
        <time>2021-09-07T13:57:59.000Z</time>
      </trkpt>
      <trkpt lat="43.73491" lon="6.39363">
        <ele>809.5</ele>
        <time>2021-09-07T13:58:01.000Z</time>
      </trkpt>
      <trkpt lat="43.73498" lon="6.3935">
        <ele>810.9</ele>
        <time>2021-09-07T13:58:06.000Z</time>
      </trkpt>
      <trkpt lat="43.73507" lon="6.39332">
        <ele>812</ele>
        <time>2021-09-07T13:58:11.000Z</time>
      </trkpt>
      <trkpt lat="43.73512" lon="6.39318">
        <ele>812.7</ele>
        <time>2021-09-07T13:58:16.000Z</time>
      </trkpt>
      <trkpt lat="43.73515" lon="6.39307">
        <ele>813.4</ele>
        <time>2021-09-07T13:58:21.000Z</time>
      </trkpt>
      <trkpt lat="43.7352" lon="6.39294">
        <ele>814.4</ele>
        <time>2021-09-07T13:58:26.000Z</time>
      </trkpt>
      <trkpt lat="43.73526" lon="6.39281">
        <ele>815.2</ele>
        <time>2021-09-07T13:58:31.000Z</time>
      </trkpt>
      <trkpt lat="43.73532" lon="6.39269">
        <ele>816.2</ele>
        <time>2021-09-07T13:58:36.000Z</time>
      </trkpt>
      <trkpt lat="43.73538" lon="6.39257">
        <ele>816.9</ele>
        <time>2021-09-07T13:58:41.000Z</time>
      </trkpt>
      <trkpt lat="43.73545" lon="6.39245">
        <ele>818.1</ele>
        <time>2021-09-07T13:58:46.000Z</time>
      </trkpt>
      <trkpt lat="43.73551" lon="6.39232">
        <ele>819.2</ele>
        <time>2021-09-07T13:58:51.000Z</time>
      </trkpt>
      <trkpt lat="43.73558" lon="6.39218">
        <ele>819.6</ele>
        <time>2021-09-07T13:58:56.000Z</time>
      </trkpt>
      <trkpt lat="43.73563" lon="6.39205">
        <ele>819.4</ele>
        <time>2021-09-07T13:59:01.000Z</time>
      </trkpt>
      <trkpt lat="43.73571" lon="6.39192">
        <ele>819.8</ele>
        <time>2021-09-07T13:59:06.000Z</time>
      </trkpt>
      <trkpt lat="43.73579" lon="6.39178">
        <ele>820.2</ele>
        <time>2021-09-07T13:59:11.000Z</time>
      </trkpt>
      <trkpt lat="43.73586" lon="6.39165">
        <ele>820.3</ele>
        <time>2021-09-07T13:59:16.000Z</time>
      </trkpt>
      <trkpt lat="43.73595" lon="6.39148">
        <ele>820.6</ele>
        <time>2021-09-07T13:59:21.000Z</time>
      </trkpt>
      <trkpt lat="43.73602" lon="6.39137">
        <ele>820.8</ele>
        <time>2021-09-07T13:59:26.000Z</time>
      </trkpt>
      <trkpt lat="43.73612" lon="6.3912">
        <ele>821</ele>
        <time>2021-09-07T13:59:31.000Z</time>
      </trkpt>
      <trkpt lat="43.73624" lon="6.39105">
        <ele>821.6</ele>
        <time>2021-09-07T13:59:36.000Z</time>
      </trkpt>
      <trkpt lat="43.73636" lon="6.39086">
        <ele>822.6</ele>
        <time>2021-09-07T13:59:41.000Z</time>
      </trkpt>
      <trkpt lat="43.73647" lon="6.39068">
        <ele>822.8</ele>
        <time>2021-09-07T13:59:46.000Z</time>
      </trkpt>
      <trkpt lat="43.7366" lon="6.39049">
        <ele>822.6</ele>
        <time>2021-09-07T13:59:51.000Z</time>
      </trkpt>
      <trkpt lat="43.73674" lon="6.39026">
        <ele>822.2</ele>
        <time>2021-09-07T13:59:56.000Z</time>
      </trkpt>
      <trkpt lat="43.73688" lon="6.39002">
        <ele>821.6</ele>
        <time>2021-09-07T14:00:01.000Z</time>
      </trkpt>
      <trkpt lat="43.73702" lon="6.3898">
        <ele>821.5</ele>
        <time>2021-09-07T14:00:06.000Z</time>
      </trkpt>
      <trkpt lat="43.73717" lon="6.38956">
        <ele>821.4</ele>
        <time>2021-09-07T14:00:11.000Z</time>
      </trkpt>
      <trkpt lat="43.73733" lon="6.38927">
        <ele>821.9</ele>
        <time>2021-09-07T14:00:16.000Z</time>
      </trkpt>
      <trkpt lat="43.73748" lon="6.389">
        <ele>822</ele>
        <time>2021-09-07T14:00:21.000Z</time>
      </trkpt>
      <trkpt lat="43.73763" lon="6.38874">
        <ele>821.5</ele>
        <time>2021-09-07T14:00:26.000Z</time>
      </trkpt>
      <trkpt lat="43.73781" lon="6.38844">
        <ele>821.2</ele>
        <time>2021-09-07T14:00:31.000Z</time>
      </trkpt>
      <trkpt lat="43.73811" lon="6.38826">
        <ele>819.9</ele>
        <time>2021-09-07T14:00:36.000Z</time>
      </trkpt>
      <trkpt lat="43.73848" lon="6.38811">
        <ele>819.4</ele>
        <time>2021-09-07T14:00:41.000Z</time>
      </trkpt>
      <trkpt lat="43.73872" lon="6.38773">
        <ele>819.9</ele>
        <time>2021-09-07T14:00:46.000Z</time>
      </trkpt>
      <trkpt lat="43.7388" lon="6.38733">
        <ele>820.9</ele>
        <time>2021-09-07T14:00:51.000Z</time>
      </trkpt>
      <trkpt lat="43.73879" lon="6.38694">
        <ele>821.7</ele>
        <time>2021-09-07T14:00:56.000Z</time>
      </trkpt>
      <trkpt lat="43.73878" lon="6.38657">
        <ele>821.4</ele>
        <time>2021-09-07T14:01:01.000Z</time>
      </trkpt>
      <trkpt lat="43.73869" lon="6.38622">
        <ele>821.2</ele>
        <time>2021-09-07T14:01:06.000Z</time>
      </trkpt>
      <trkpt lat="43.73855" lon="6.38583">
        <ele>820.3</ele>
        <time>2021-09-07T14:01:11.000Z</time>
      </trkpt>
      <trkpt lat="43.73831" lon="6.38535">
        <ele>818.1</ele>
        <time>2021-09-07T14:01:16.000Z</time>
      </trkpt>
      <trkpt lat="43.73801" lon="6.38476">
        <ele>815.1</ele>
        <time>2021-09-07T14:01:21.000Z</time>
      </trkpt>
      <trkpt lat="43.73766" lon="6.38417">
        <ele>812.7</ele>
        <time>2021-09-07T14:01:26.000Z</time>
      </trkpt>
      <trkpt lat="43.73744" lon="6.38347">
        <ele>809.6</ele>
        <time>2021-09-07T14:01:31.000Z</time>
      </trkpt>
      <trkpt lat="43.73767" lon="6.38283">
        <ele>808</ele>
        <time>2021-09-07T14:01:36.000Z</time>
      </trkpt>
      <trkpt lat="43.73804" lon="6.38234">
        <ele>805.4</ele>
        <time>2021-09-07T14:01:41.000Z</time>
      </trkpt>
      <trkpt lat="43.73847" lon="6.3818">
        <ele>803.3</ele>
        <time>2021-09-07T14:01:46.000Z</time>
      </trkpt>
      <trkpt lat="43.73892" lon="6.38138">
        <ele>802.3</ele>
        <time>2021-09-07T14:01:51.000Z</time>
      </trkpt>
      <trkpt lat="43.73931" lon="6.38143">
        <ele>804</ele>
        <time>2021-09-07T14:01:56.000Z</time>
      </trkpt>
      <trkpt lat="43.73956" lon="6.38156">
        <ele>805.6</ele>
        <time>2021-09-07T14:02:01.000Z</time>
      </trkpt>
      <trkpt lat="43.73975" lon="6.3817">
        <ele>808</ele>
        <time>2021-09-07T14:02:06.000Z</time>
      </trkpt>
      <trkpt lat="43.73994" lon="6.38186">
        <ele>808.8</ele>
        <time>2021-09-07T14:02:11.000Z</time>
      </trkpt>
      <trkpt lat="43.73999" lon="6.38191">
        <ele>809.5</ele>
        <time>2021-09-07T14:02:16.000Z</time>
      </trkpt>
      <trkpt lat="43.73999" lon="6.3819">
        <ele>809.3</ele>
        <time>2021-09-07T14:02:17.000Z</time>
      </trkpt>
      <trkpt lat="43.73999" lon="6.38191">
        <ele>809.8</ele>
        <time>2021-09-07T14:02:19.000Z</time>
      </trkpt>
      <trkpt lat="43.73999" lon="6.38191">
        <ele>810</ele>
        <time>2021-09-07T14:02:22.000Z</time>
      </trkpt>
      <trkpt lat="43.74" lon="6.38191">
        <ele>809.5</ele>
        <time>2021-09-07T14:02:26.000Z</time>
      </trkpt>
      <trkpt lat="43.74" lon="6.38191">
        <ele>809.3</ele>
        <time>2021-09-07T14:02:26.000Z</time>
      </trkpt>
      <trkpt lat="43.74001" lon="6.38192">
        <ele>809.2</ele>
        <time>2021-09-07T14:02:29.000Z</time>
      </trkpt>
      <trkpt lat="43.74001" lon="6.38192">
        <ele>809.1</ele>
        <time>2021-09-07T14:02:31.000Z</time>
      </trkpt>
      <trkpt lat="43.74001" lon="6.38193">
        <ele>809.2</ele>
        <time>2021-09-07T14:02:34.000Z</time>
      </trkpt>
      <trkpt lat="43.74002" lon="6.38193">
        <ele>809.5</ele>
        <time>2021-09-07T14:02:34.000Z</time>
      </trkpt>
      <trkpt lat="43.74002" lon="6.38193">
        <ele>809.5</ele>
        <time>2021-09-07T14:02:35.000Z</time>
      </trkpt>
      <trkpt lat="43.74003" lon="6.38193">
        <ele>809.8</ele>
        <time>2021-09-07T14:02:39.000Z</time>
      </trkpt>
      <trkpt lat="43.74003" lon="6.38193">
        <ele>810</ele>
        <time>2021-09-07T14:02:45.000Z</time>
      </trkpt>
      <trkpt lat="43.74001" lon="6.38191">
        <ele>809.4</ele>
        <time>2021-09-07T14:02:48.000Z</time>
      </trkpt>
      <trkpt lat="43.74001" lon="6.3819">
        <ele>809.8</ele>
        <time>2021-09-07T14:02:49.000Z</time>
      </trkpt>
      <trkpt lat="43.74002" lon="6.38191">
        <ele>809.6</ele>
        <time>2021-09-07T14:02:50.000Z</time>
      </trkpt>
      <trkpt lat="43.74002" lon="6.38188">
        <ele>809.2</ele>
        <time>2021-09-07T14:02:56.000Z</time>
      </trkpt>
      <trkpt lat="43.74002" lon="6.38187">
        <ele>809.3</ele>
        <time>2021-09-07T14:02:57.000Z</time>
      </trkpt>
      <trkpt lat="43.74002" lon="6.38187">
        <ele>809.4</ele>
        <time>2021-09-07T14:02:59.000Z</time>
      </trkpt>
      <trkpt lat="43.74002" lon="6.38187">
        <ele>809.4</ele>
        <time>2021-09-07T14:03:00.000Z</time>
      </trkpt>
      <trkpt lat="43.74002" lon="6.38187">
        <ele>810</ele>
        <time>2021-09-07T14:03:01.000Z</time>
      </trkpt>
      <trkpt lat="43.74001" lon="6.38186">
        <ele>809.5</ele>
        <time>2021-09-07T14:03:05.000Z</time>
      </trkpt>
      <trkpt lat="43.74001" lon="6.38186">
        <ele>809.6</ele>
        <time>2021-09-07T14:03:06.000Z</time>
      </trkpt>
      <trkpt lat="43.74001" lon="6.38186">
        <ele>809.1</ele>
        <time>2021-09-07T14:03:11.000Z</time>
      </trkpt>
      <trkpt lat="43.74001" lon="6.38185">
        <ele>809.3</ele>
        <time>2021-09-07T14:03:18.000Z</time>
      </trkpt>
      <trkpt lat="43.74001" lon="6.38185">
        <ele>809.2</ele>
        <time>2021-09-07T14:03:23.000Z</time>
      </trkpt>
      <trkpt lat="43.74" lon="6.38185">
        <ele>809.1</ele>
        <time>2021-09-07T14:03:23.000Z</time>
      </trkpt>
      <trkpt lat="43.74" lon="6.38185">
        <ele>809.6</ele>
        <time>2021-09-07T14:03:28.000Z</time>
      </trkpt>
      <trkpt lat="43.73999" lon="6.38185">
        <ele>809.7</ele>
        <time>2021-09-07T14:03:29.000Z</time>
      </trkpt>
      <trkpt lat="43.73998" lon="6.38184">
        <ele>809.3</ele>
        <time>2021-09-07T14:03:29.000Z</time>
      </trkpt>
      <trkpt lat="43.73997" lon="6.38183">
        <ele>809.6</ele>
        <time>2021-09-07T14:03:30.000Z</time>
      </trkpt>
      <trkpt lat="43.73996" lon="6.38183">
        <ele>809.8</ele>
        <time>2021-09-07T14:03:31.000Z</time>
      </trkpt>
      <trkpt lat="43.73995" lon="6.38182">
        <ele>809.6</ele>
        <time>2021-09-07T14:03:32.000Z</time>
      </trkpt>
      <trkpt lat="43.73995" lon="6.38182">
        <ele>809.3</ele>
        <time>2021-09-07T14:03:33.000Z</time>
      </trkpt>
      <trkpt lat="43.73993" lon="6.38181">
        <ele>809.7</ele>
        <time>2021-09-07T14:03:35.000Z</time>
      </trkpt>
      <trkpt lat="43.73992" lon="6.3818">
        <ele>809.7</ele>
        <time>2021-09-07T14:03:37.000Z</time>
      </trkpt>
      <trkpt lat="43.73993" lon="6.38181">
        <ele>809.6</ele>
        <time>2021-09-07T14:03:38.000Z</time>
      </trkpt>
      <trkpt lat="43.73992" lon="6.3818">
        <ele>809.9</ele>
        <time>2021-09-07T14:03:38.000Z</time>
      </trkpt>
      <trkpt lat="43.7399" lon="6.3818">
        <ele>809.4</ele>
        <time>2021-09-07T14:03:43.000Z</time>
      </trkpt>
      <trkpt lat="43.73989" lon="6.3818">
        <ele>809.4</ele>
        <time>2021-09-07T14:03:49.000Z</time>
      </trkpt>
      <trkpt lat="43.73989" lon="6.3818">
        <ele>809.1</ele>
        <time>2021-09-07T14:03:49.000Z</time>
      </trkpt>
      <trkpt lat="43.73989" lon="6.3818">
        <ele>809.1</ele>
        <time>2021-09-07T14:03:52.000Z</time>
      </trkpt>
      <trkpt lat="43.73988" lon="6.3818">
        <ele>809.2</ele>
        <time>2021-09-07T14:03:59.000Z</time>
      </trkpt>
      <trkpt lat="43.73989" lon="6.38181">
        <ele>808.9</ele>
        <time>2021-09-07T14:04:04.000Z</time>
      </trkpt>
      <trkpt lat="43.73989" lon="6.38182">
        <ele>808.9</ele>
        <time>2021-09-07T14:04:09.000Z</time>
      </trkpt>
      <trkpt lat="43.73988" lon="6.38182">
        <ele>808.9</ele>
        <time>2021-09-07T14:04:11.000Z</time>
      </trkpt>
      <trkpt lat="43.73987" lon="6.38182">
        <ele>808.9</ele>
        <time>2021-09-07T14:04:16.000Z</time>
      </trkpt>
      <trkpt lat="43.73987" lon="6.38182">
        <ele>808.9</ele>
        <time>2021-09-07T14:04:17.000Z</time>
      </trkpt>
      <trkpt lat="43.73987" lon="6.38182">
        <ele>808.9</ele>
        <time>2021-09-07T14:04:23.000Z</time>
      </trkpt>
      <trkpt lat="43.73987" lon="6.38182">
        <ele>808.6</ele>
        <time>2021-09-07T14:04:24.000Z</time>
      </trkpt>
      <trkpt lat="43.73986" lon="6.38183">
        <ele>808.8</ele>
        <time>2021-09-07T14:04:26.000Z</time>
      </trkpt>
      <trkpt lat="43.73986" lon="6.38183">
        <ele>809.2</ele>
        <time>2021-09-07T14:04:27.000Z</time>
      </trkpt>
      <trkpt lat="43.73985" lon="6.38182">
        <ele>809.2</ele>
        <time>2021-09-07T14:04:30.000Z</time>
      </trkpt>
      <trkpt lat="43.73984" lon="6.38181">
        <ele>808.9</ele>
        <time>2021-09-07T14:04:35.000Z</time>
      </trkpt>
      <trkpt lat="43.73984" lon="6.3818">
        <ele>809.6</ele>
        <time>2021-09-07T14:04:38.000Z</time>
      </trkpt>
      <trkpt lat="43.73984" lon="6.38181">
        <ele>809.9</ele>
        <time>2021-09-07T14:04:40.000Z</time>
      </trkpt>
      <trkpt lat="43.73983" lon="6.38181">
        <ele>809.6</ele>
        <time>2021-09-07T14:04:43.000Z</time>
      </trkpt>
      <trkpt lat="43.73983" lon="6.3818">
        <ele>809.5</ele>
        <time>2021-09-07T14:04:48.000Z</time>
      </trkpt>
      <trkpt lat="43.73983" lon="6.3818">
        <ele>809.5</ele>
        <time>2021-09-07T14:04:49.000Z</time>
      </trkpt>
      <trkpt lat="43.73983" lon="6.3818">
        <ele>809.6</ele>
        <time>2021-09-07T14:04:50.000Z</time>
      </trkpt>
      <trkpt lat="43.73983" lon="6.3818">
        <ele>809.6</ele>
        <time>2021-09-07T14:04:55.000Z</time>
      </trkpt>
      <trkpt lat="43.73983" lon="6.38181">
        <ele>809.5</ele>
        <time>2021-09-07T14:05:00.000Z</time>
      </trkpt>
      <trkpt lat="43.73983" lon="6.38181">
        <ele>809.5</ele>
        <time>2021-09-07T14:05:05.000Z</time>
      </trkpt>
      <trkpt lat="43.73982" lon="6.38181">
        <ele>808.9</ele>
        <time>2021-09-07T14:05:10.000Z</time>
      </trkpt>
      <trkpt lat="43.73982" lon="6.38181">
        <ele>808.6</ele>
        <time>2021-09-07T14:05:15.000Z</time>
      </trkpt>
      <trkpt lat="43.73982" lon="6.38182">
        <ele>808.8</ele>
        <time>2021-09-07T14:05:20.000Z</time>
      </trkpt>
      <trkpt lat="43.73982" lon="6.38182">
        <ele>808.6</ele>
        <time>2021-09-07T14:05:25.000Z</time>
      </trkpt>
      <trkpt lat="43.73983" lon="6.38182">
        <ele>808.5</ele>
        <time>2021-09-07T14:05:30.000Z</time>
      </trkpt>
      <trkpt lat="43.73983" lon="6.38182">
        <ele>808.3</ele>
        <time>2021-09-07T14:05:31.000Z</time>
      </trkpt>
      <trkpt lat="43.73982" lon="6.38182">
        <ele>808.1</ele>
        <time>2021-09-07T14:05:31.000Z</time>
      </trkpt>
      <trkpt lat="43.73982" lon="6.38182">
        <ele>808.7</ele>
        <time>2021-09-07T14:05:33.000Z</time>
      </trkpt>
      <trkpt lat="43.73982" lon="6.38182">
        <ele>808.6</ele>
        <time>2021-09-07T14:05:35.000Z</time>
      </trkpt>
      <trkpt lat="43.73982" lon="6.38182">
        <ele>808.6</ele>
        <time>2021-09-07T14:05:39.000Z</time>
      </trkpt>
      <trkpt lat="43.73981" lon="6.38182">
        <ele>808.9</ele>
        <time>2021-09-07T14:05:41.000Z</time>
      </trkpt>
      <trkpt lat="43.73981" lon="6.38182">
        <ele>808.7</ele>
        <time>2021-09-07T14:05:42.000Z</time>
      </trkpt>
      <trkpt lat="43.73981" lon="6.38182">
        <ele>808.8</ele>
        <time>2021-09-07T14:05:43.000Z</time>
      </trkpt>
      <trkpt lat="43.7398" lon="6.38182">
        <ele>809</ele>
        <time>2021-09-07T14:05:44.000Z</time>
      </trkpt>
      <trkpt lat="43.7398" lon="6.38182">
        <ele>808.7</ele>
        <time>2021-09-07T14:05:45.000Z</time>
      </trkpt>
      <trkpt lat="43.7398" lon="6.38182">
        <ele>808.8</ele>
        <time>2021-09-07T14:05:47.000Z</time>
      </trkpt>
      <trkpt lat="43.73979" lon="6.38182">
        <ele>808.6</ele>
        <time>2021-09-07T14:05:52.000Z</time>
      </trkpt>
      <trkpt lat="43.73979" lon="6.38182">
        <ele>808.7</ele>
        <time>2021-09-07T14:05:57.000Z</time>
      </trkpt>
      <trkpt lat="43.73979" lon="6.38182">
        <ele>808.8</ele>
        <time>2021-09-07T14:06:02.000Z</time>
      </trkpt>
      <trkpt lat="43.73979" lon="6.38181">
        <ele>808.9</ele>
        <time>2021-09-07T14:06:03.000Z</time>
      </trkpt>
      <trkpt lat="43.73979" lon="6.38181">
        <ele>808.8</ele>
        <time>2021-09-07T14:06:05.000Z</time>
      </trkpt>
      <trkpt lat="43.73979" lon="6.38181">
        <ele>808.6</ele>
        <time>2021-09-07T14:06:10.000Z</time>
      </trkpt>
      <trkpt lat="43.73979" lon="6.38181">
        <ele>808.9</ele>
        <time>2021-09-07T14:06:15.000Z</time>
      </trkpt>
      <trkpt lat="43.73979" lon="6.38181">
        <ele>809</ele>
        <time>2021-09-07T14:06:18.000Z</time>
      </trkpt>
      <trkpt lat="43.73979" lon="6.38181">
        <ele>808.9</ele>
        <time>2021-09-07T14:06:24.000Z</time>
      </trkpt>
      <trkpt lat="43.73979" lon="6.38182">
        <ele>808.8</ele>
        <time>2021-09-07T14:06:25.000Z</time>
      </trkpt>
      <trkpt lat="43.73979" lon="6.38182">
        <ele>808.7</ele>
        <time>2021-09-07T14:06:30.000Z</time>
      </trkpt>
      <trkpt lat="43.73979" lon="6.38182">
        <ele>808.9</ele>
        <time>2021-09-07T14:06:36.000Z</time>
      </trkpt>
      <trkpt lat="43.73978" lon="6.38182">
        <ele>809.3</ele>
        <time>2021-09-07T14:06:42.000Z</time>
      </trkpt>
      <trkpt lat="43.73978" lon="6.38182">
        <ele>809.5</ele>
        <time>2021-09-07T14:06:47.000Z</time>
      </trkpt>
      <trkpt lat="43.73978" lon="6.38181">
        <ele>809.2</ele>
        <time>2021-09-07T14:06:48.000Z</time>
      </trkpt>
      <trkpt lat="43.73979" lon="6.38181">
        <ele>809.1</ele>
        <time>2021-09-07T14:06:52.000Z</time>
      </trkpt>
      <trkpt lat="43.73978" lon="6.38181">
        <ele>809.6</ele>
        <time>2021-09-07T14:06:53.000Z</time>
      </trkpt>
      <trkpt lat="43.73979" lon="6.3818">
        <ele>809.2</ele>
        <time>2021-09-07T14:06:56.000Z</time>
      </trkpt>
      <trkpt lat="43.73979" lon="6.3818">
        <ele>809.3</ele>
        <time>2021-09-07T14:06:58.000Z</time>
      </trkpt>
      <trkpt lat="43.73979" lon="6.38179">
        <ele>809.3</ele>
        <time>2021-09-07T14:07:01.000Z</time>
      </trkpt>
      <trkpt lat="43.7398" lon="6.38179">
        <ele>809.3</ele>
        <time>2021-09-07T14:07:06.000Z</time>
      </trkpt>
      <trkpt lat="43.7398" lon="6.38179">
        <ele>809.3</ele>
        <time>2021-09-07T14:07:07.000Z</time>
      </trkpt>
      <trkpt lat="43.7398" lon="6.38181">
        <ele>809.4</ele>
        <time>2021-09-07T14:07:12.000Z</time>
      </trkpt>
      <trkpt lat="43.7398" lon="6.38182">
        <ele>809.4</ele>
        <time>2021-09-07T14:07:14.000Z</time>
      </trkpt>
      <trkpt lat="43.7398" lon="6.38181">
        <ele>809.5</ele>
        <time>2021-09-07T14:07:16.000Z</time>
      </trkpt>
      <trkpt lat="43.7398" lon="6.38181">
        <ele>809.2</ele>
        <time>2021-09-07T14:07:17.000Z</time>
      </trkpt>
      <trkpt lat="43.7398" lon="6.38181">
        <ele>808.7</ele>
        <time>2021-09-07T14:07:18.000Z</time>
      </trkpt>
      <trkpt lat="43.73979" lon="6.38181">
        <ele>808.8</ele>
        <time>2021-09-07T14:07:23.000Z</time>
      </trkpt>
      <trkpt lat="43.73979" lon="6.38182">
        <ele>808.8</ele>
        <time>2021-09-07T14:07:25.000Z</time>
      </trkpt>
      <trkpt lat="43.73978" lon="6.38183">
        <ele>809</ele>
        <time>2021-09-07T14:07:29.000Z</time>
      </trkpt>
      <trkpt lat="43.73978" lon="6.38183">
        <ele>808.8</ele>
        <time>2021-09-07T14:07:34.000Z</time>
      </trkpt>
      <trkpt lat="43.73978" lon="6.38183">
        <ele>808.9</ele>
        <time>2021-09-07T14:07:38.000Z</time>
      </trkpt>
      <trkpt lat="43.73978" lon="6.38183">
        <ele>809</ele>
        <time>2021-09-07T14:07:39.000Z</time>
      </trkpt>
      <trkpt lat="43.73978" lon="6.38183">
        <ele>808.9</ele>
        <time>2021-09-07T14:07:41.000Z</time>
      </trkpt>
      <trkpt lat="43.73978" lon="6.38182">
        <ele>808.6</ele>
        <time>2021-09-07T14:07:43.000Z</time>
      </trkpt>
      <trkpt lat="43.73977" lon="6.38181">
        <ele>808.8</ele>
        <time>2021-09-07T14:07:47.000Z</time>
      </trkpt>
      <trkpt lat="43.73977" lon="6.38182">
        <ele>809.2</ele>
        <time>2021-09-07T14:07:48.000Z</time>
      </trkpt>
      <trkpt lat="43.73976" lon="6.38181">
        <ele>809</ele>
        <time>2021-09-07T14:07:52.000Z</time>
      </trkpt>
      <trkpt lat="43.73975" lon="6.3818">
        <ele>808.8</ele>
        <time>2021-09-07T14:07:52.000Z</time>
      </trkpt>
      <trkpt lat="43.73974" lon="6.3818">
        <ele>808.7</ele>
        <time>2021-09-07T14:07:53.000Z</time>
      </trkpt>
      <trkpt lat="43.73973" lon="6.3818">
        <ele>808.8</ele>
        <time>2021-09-07T14:07:54.000Z</time>
      </trkpt>
      <trkpt lat="43.73974" lon="6.3818">
        <ele>808.7</ele>
        <time>2021-09-07T14:07:55.000Z</time>
      </trkpt>
      <trkpt lat="43.73971" lon="6.3818">
        <ele>808.8</ele>
        <time>2021-09-07T14:07:55.000Z</time>
      </trkpt>
      <trkpt lat="43.73969" lon="6.38179">
        <ele>808.7</ele>
        <time>2021-09-07T14:07:57.000Z</time>
      </trkpt>
      <trkpt lat="43.73971" lon="6.38179">
        <ele>808.7</ele>
        <time>2021-09-07T14:07:58.000Z</time>
      </trkpt>
      <trkpt lat="43.73969" lon="6.38179">
        <ele>808.7</ele>
        <time>2021-09-07T14:08:00.000Z</time>
      </trkpt>
      <trkpt lat="43.73967" lon="6.38178">
        <ele>808.8</ele>
        <time>2021-09-07T14:08:00.000Z</time>
      </trkpt>
      <trkpt lat="43.73967" lon="6.38178">
        <ele>809</ele>
        <time>2021-09-07T14:08:02.000Z</time>
      </trkpt>
      <trkpt lat="43.73966" lon="6.38178">
        <ele>809.1</ele>
        <time>2021-09-07T14:08:05.000Z</time>
      </trkpt>
      <trkpt lat="43.73966" lon="6.38178">
        <ele>809.2</ele>
        <time>2021-09-07T14:08:06.000Z</time>
      </trkpt>
      <trkpt lat="43.73966" lon="6.38178">
        <ele>809.2</ele>
        <time>2021-09-07T14:08:07.000Z</time>
      </trkpt>
      <trkpt lat="43.73967" lon="6.38177">
        <ele>809.4</ele>
        <time>2021-09-07T14:08:08.000Z</time>
      </trkpt>
      <trkpt lat="43.73966" lon="6.38177">
        <ele>809.4</ele>
        <time>2021-09-07T14:08:10.000Z</time>
      </trkpt>
      <trkpt lat="43.73967" lon="6.38177">
        <ele>809.3</ele>
        <time>2021-09-07T14:08:15.000Z</time>
      </trkpt>
      <trkpt lat="43.73967" lon="6.38177">
        <ele>809.3</ele>
        <time>2021-09-07T14:08:15.000Z</time>
      </trkpt>
      <trkpt lat="43.73967" lon="6.38177">
        <ele>809</ele>
        <time>2021-09-07T14:08:20.000Z</time>
      </trkpt>
      <trkpt lat="43.73967" lon="6.38177">
        <ele>809.2</ele>
        <time>2021-09-07T14:08:20.000Z</time>
      </trkpt>
      <trkpt lat="43.73965" lon="6.38177">
        <ele>809.6</ele>
        <time>2021-09-07T14:08:25.000Z</time>
      </trkpt>
      <trkpt lat="43.73965" lon="6.38177">
        <ele>809.5</ele>
        <time>2021-09-07T14:08:29.000Z</time>
      </trkpt>
      <trkpt lat="43.73964" lon="6.38176">
        <ele>809.4</ele>
        <time>2021-09-07T14:08:32.000Z</time>
      </trkpt>
      <trkpt lat="43.73964" lon="6.38176">
        <ele>809.4</ele>
        <time>2021-09-07T14:08:33.000Z</time>
      </trkpt>
      <trkpt lat="43.73964" lon="6.38176">
        <ele>809.3</ele>
        <time>2021-09-07T14:08:34.000Z</time>
      </trkpt>
      <trkpt lat="43.73964" lon="6.38175">
        <ele>808.5</ele>
        <time>2021-09-07T14:08:36.000Z</time>
      </trkpt>
      <trkpt lat="43.73964" lon="6.38176">
        <ele>808.7</ele>
        <time>2021-09-07T14:08:41.000Z</time>
      </trkpt>
      <trkpt lat="43.73964" lon="6.38176">
        <ele>808.7</ele>
        <time>2021-09-07T14:08:42.000Z</time>
      </trkpt>
      <trkpt lat="43.73964" lon="6.38176">
        <ele>808.9</ele>
        <time>2021-09-07T14:08:45.000Z</time>
      </trkpt>
      <trkpt lat="43.73964" lon="6.38176">
        <ele>808.8</ele>
        <time>2021-09-07T14:08:50.000Z</time>
      </trkpt>
      <trkpt lat="43.73964" lon="6.38176">
        <ele>808.5</ele>
        <time>2021-09-07T14:08:55.000Z</time>
      </trkpt>
      <trkpt lat="43.73964" lon="6.38176">
        <ele>808.1</ele>
        <time>2021-09-07T14:09:00.000Z</time>
      </trkpt>
      <trkpt lat="43.73964" lon="6.38177">
        <ele>808.1</ele>
        <time>2021-09-07T14:09:01.000Z</time>
      </trkpt>
      <trkpt lat="43.73964" lon="6.38177">
        <ele>808.1</ele>
        <time>2021-09-07T14:09:02.000Z</time>
      </trkpt>
      <trkpt lat="43.73964" lon="6.38177">
        <ele>808.5</ele>
        <time>2021-09-07T14:09:07.000Z</time>
      </trkpt>
      <trkpt lat="43.73964" lon="6.38177">
        <ele>808.6</ele>
        <time>2021-09-07T14:09:12.000Z</time>
      </trkpt>
      <trkpt lat="43.73964" lon="6.38177">
        <ele>808.5</ele>
        <time>2021-09-07T14:09:17.000Z</time>
      </trkpt>
      <trkpt lat="43.73965" lon="6.38177">
        <ele>808.5</ele>
        <time>2021-09-07T14:09:18.000Z</time>
      </trkpt>
      <trkpt lat="43.73965" lon="6.38178">
        <ele>808.7</ele>
        <time>2021-09-07T14:09:21.000Z</time>
      </trkpt>
      <trkpt lat="43.73965" lon="6.38178">
        <ele>808.9</ele>
        <time>2021-09-07T14:09:26.000Z</time>
      </trkpt>
      <trkpt lat="43.73966" lon="6.38177">
        <ele>808.7</ele>
        <time>2021-09-07T14:09:31.000Z</time>
      </trkpt>
      <trkpt lat="43.73966" lon="6.38177">
        <ele>808.6</ele>
        <time>2021-09-07T14:09:36.000Z</time>
      </trkpt>
      <trkpt lat="43.73966" lon="6.38177">
        <ele>808.8</ele>
        <time>2021-09-07T14:09:41.000Z</time>
      </trkpt>
      <trkpt lat="43.73966" lon="6.38177">
        <ele>808.6</ele>
        <time>2021-09-07T14:09:46.000Z</time>
      </trkpt>
      <trkpt lat="43.73966" lon="6.38177">
        <ele>808.8</ele>
        <time>2021-09-07T14:09:51.000Z</time>
      </trkpt>
      <trkpt lat="43.73966" lon="6.38177">
        <ele>808.9</ele>
        <time>2021-09-07T14:09:52.000Z</time>
      </trkpt>
      <trkpt lat="43.73966" lon="6.38178">
        <ele>808.9</ele>
        <time>2021-09-07T14:09:55.000Z</time>
      </trkpt>
      <trkpt lat="43.73966" lon="6.38178">
        <ele>808.8</ele>
        <time>2021-09-07T14:10:00.000Z</time>
      </trkpt>
      <trkpt lat="43.73966" lon="6.38178">
        <ele>808.7</ele>
        <time>2021-09-07T14:10:01.000Z</time>
      </trkpt>
      <trkpt lat="43.73966" lon="6.38178">
        <ele>808.8</ele>
        <time>2021-09-07T14:10:02.000Z</time>
      </trkpt>
      <trkpt lat="43.73965" lon="6.38179">
        <ele>808.4</ele>
        <time>2021-09-07T14:10:07.000Z</time>
      </trkpt>
      <trkpt lat="43.73965" lon="6.38179">
        <ele>808.9</ele>
        <time>2021-09-07T14:10:12.000Z</time>
      </trkpt>
      <trkpt lat="43.73965" lon="6.3818">
        <ele>809.1</ele>
        <time>2021-09-07T14:10:13.000Z</time>
      </trkpt>
      <trkpt lat="43.73965" lon="6.3818">
        <ele>809</ele>
        <time>2021-09-07T14:10:14.000Z</time>
      </trkpt>
      <trkpt lat="43.73965" lon="6.3818">
        <ele>809.2</ele>
        <time>2021-09-07T14:10:19.000Z</time>
      </trkpt>
      <trkpt lat="43.73965" lon="6.38181">
        <ele>809.2</ele>
        <time>2021-09-07T14:10:22.000Z</time>
      </trkpt>
      <trkpt lat="43.73965" lon="6.38181">
        <ele>809.1</ele>
        <time>2021-09-07T14:10:23.000Z</time>
      </trkpt>
      <trkpt lat="43.73965" lon="6.38181">
        <ele>809.1</ele>
        <time>2021-09-07T14:10:24.000Z</time>
      </trkpt>
      <trkpt lat="43.73965" lon="6.38184">
        <ele>809.2</ele>
        <time>2021-09-07T14:10:29.000Z</time>
      </trkpt>
      <trkpt lat="43.73966" lon="6.38184">
        <ele>809.3</ele>
        <time>2021-09-07T14:10:31.000Z</time>
      </trkpt>
      <trkpt lat="43.73966" lon="6.38184">
        <ele>809.3</ele>
        <time>2021-09-07T14:10:32.000Z</time>
      </trkpt>
      <trkpt lat="43.73966" lon="6.38183">
        <ele>809.6</ele>
        <time>2021-09-07T14:10:34.000Z</time>
      </trkpt>
      <trkpt lat="43.73966" lon="6.38184">
        <ele>809.2</ele>
        <time>2021-09-07T14:10:39.000Z</time>
      </trkpt>
      <trkpt lat="43.73966" lon="6.38184">
        <ele>809.9</ele>
        <time>2021-09-07T14:10:44.000Z</time>
      </trkpt>
      <trkpt lat="43.73966" lon="6.38184">
        <ele>809.7</ele>
        <time>2021-09-07T14:10:49.000Z</time>
      </trkpt>
      <trkpt lat="43.73966" lon="6.38184">
        <ele>809.9</ele>
        <time>2021-09-07T14:10:54.000Z</time>
      </trkpt>
      <trkpt lat="43.73967" lon="6.38184">
        <ele>809.6</ele>
        <time>2021-09-07T14:10:59.000Z</time>
      </trkpt>
      <trkpt lat="43.73967" lon="6.38183">
        <ele>809.5</ele>
        <time>2021-09-07T14:11:04.000Z</time>
      </trkpt>
      <trkpt lat="43.73967" lon="6.38183">
        <ele>809.2</ele>
        <time>2021-09-07T14:11:09.000Z</time>
      </trkpt>
      <trkpt lat="43.73967" lon="6.38183">
        <ele>809.5</ele>
        <time>2021-09-07T14:11:14.000Z</time>
      </trkpt>
      <trkpt lat="43.73967" lon="6.38182">
        <ele>809.6</ele>
        <time>2021-09-07T14:11:19.000Z</time>
      </trkpt>
      <trkpt lat="43.73967" lon="6.38182">
        <ele>809.9</ele>
        <time>2021-09-07T14:11:24.000Z</time>
      </trkpt>
      <trkpt lat="43.73967" lon="6.38182">
        <ele>810.1</ele>
        <time>2021-09-07T14:11:29.000Z</time>
      </trkpt>
      <trkpt lat="43.73967" lon="6.38182">
        <ele>809.5</ele>
        <time>2021-09-07T14:11:34.000Z</time>
      </trkpt>
      <trkpt lat="43.73967" lon="6.38182">
        <ele>809.8</ele>
        <time>2021-09-07T14:11:39.000Z</time>
      </trkpt>
      <trkpt lat="43.73967" lon="6.38181">
        <ele>809.5</ele>
        <time>2021-09-07T14:11:44.000Z</time>
      </trkpt>
      <trkpt lat="43.73967" lon="6.38181">
        <ele>809.7</ele>
        <time>2021-09-07T14:11:49.000Z</time>
      </trkpt>
      <trkpt lat="43.73968" lon="6.38181">
        <ele>809.6</ele>
        <time>2021-09-07T14:11:54.000Z</time>
      </trkpt>
      <trkpt lat="43.73968" lon="6.38181">
        <ele>809.4</ele>
        <time>2021-09-07T14:11:57.000Z</time>
      </trkpt>
      <trkpt lat="43.73968" lon="6.3818">
        <ele>809.4</ele>
        <time>2021-09-07T14:11:58.000Z</time>
      </trkpt>
      <trkpt lat="43.73968" lon="6.3818">
        <ele>809.5</ele>
        <time>2021-09-07T14:12:03.000Z</time>
      </trkpt>
      <trkpt lat="43.73968" lon="6.3818">
        <ele>809.2</ele>
        <time>2021-09-07T14:12:08.000Z</time>
      </trkpt>
      <trkpt lat="43.73968" lon="6.38179">
        <ele>809.8</ele>
        <time>2021-09-07T14:12:13.000Z</time>
      </trkpt>
      <trkpt lat="43.73968" lon="6.38179">
        <ele>810.1</ele>
        <time>2021-09-07T14:12:18.000Z</time>
      </trkpt>
      <trkpt lat="43.73968" lon="6.38179">
        <ele>810</ele>
        <time>2021-09-07T14:12:23.000Z</time>
      </trkpt>
      <trkpt lat="43.73968" lon="6.38178">
        <ele>810</ele>
        <time>2021-09-07T14:12:28.000Z</time>
      </trkpt>
      <trkpt lat="43.73968" lon="6.38178">
        <ele>809.8</ele>
        <time>2021-09-07T14:12:33.000Z</time>
      </trkpt>
      <trkpt lat="43.73968" lon="6.38178">
        <ele>810.1</ele>
        <time>2021-09-07T14:12:38.000Z</time>
      </trkpt>
      <trkpt lat="43.73968" lon="6.38177">
        <ele>810</ele>
        <time>2021-09-07T14:12:43.000Z</time>
      </trkpt>
      <trkpt lat="43.73968" lon="6.38177">
        <ele>810.4</ele>
        <time>2021-09-07T14:12:48.000Z</time>
      </trkpt>
      <trkpt lat="43.73968" lon="6.38177">
        <ele>810</ele>
        <time>2021-09-07T14:12:53.000Z</time>
      </trkpt>
      <trkpt lat="43.73968" lon="6.38177">
        <ele>809.8</ele>
        <time>2021-09-07T14:12:58.000Z</time>
      </trkpt>
      <trkpt lat="43.73968" lon="6.38177">
        <ele>809.9</ele>
        <time>2021-09-07T14:13:03.000Z</time>
      </trkpt>
      <trkpt lat="43.73968" lon="6.38176">
        <ele>808.9</ele>
        <time>2021-09-07T14:13:08.000Z</time>
      </trkpt>
      <trkpt lat="43.73968" lon="6.38176">
        <ele>809.8</ele>
        <time>2021-09-07T14:13:13.000Z</time>
      </trkpt>
      <trkpt lat="43.73968" lon="6.38176">
        <ele>809.4</ele>
        <time>2021-09-07T14:13:18.000Z</time>
      </trkpt>
      <trkpt lat="43.73968" lon="6.38176">
        <ele>810.3</ele>
        <time>2021-09-07T14:13:23.000Z</time>
      </trkpt>
      <trkpt lat="43.73968" lon="6.38175">
        <ele>808.9</ele>
        <time>2021-09-07T14:13:28.000Z</time>
      </trkpt>
      <trkpt lat="43.73968" lon="6.38175">
        <ele>809.6</ele>
        <time>2021-09-07T14:13:33.000Z</time>
      </trkpt>
      <trkpt lat="43.73968" lon="6.38175">
        <ele>809.8</ele>
        <time>2021-09-07T14:13:38.000Z</time>
      </trkpt>
      <trkpt lat="43.73968" lon="6.38175">
        <ele>809.6</ele>
        <time>2021-09-07T14:13:43.000Z</time>
      </trkpt>
      <trkpt lat="43.73968" lon="6.38174">
        <ele>809.2</ele>
        <time>2021-09-07T14:13:48.000Z</time>
      </trkpt>
      <trkpt lat="43.73968" lon="6.38174">
        <ele>809</ele>
        <time>2021-09-07T14:13:53.000Z</time>
      </trkpt>
      <trkpt lat="43.73967" lon="6.38174">
        <ele>809.7</ele>
        <time>2021-09-07T14:13:58.000Z</time>
      </trkpt>
      <trkpt lat="43.73967" lon="6.38174">
        <ele>810</ele>
        <time>2021-09-07T14:14:03.000Z</time>
      </trkpt>
      <trkpt lat="43.73967" lon="6.38173">
        <ele>809.9</ele>
        <time>2021-09-07T14:14:08.000Z</time>
      </trkpt>
      <trkpt lat="43.73967" lon="6.38173">
        <ele>810</ele>
        <time>2021-09-07T14:14:13.000Z</time>
      </trkpt>
      <trkpt lat="43.73967" lon="6.38173">
        <ele>810.1</ele>
        <time>2021-09-07T14:14:18.000Z</time>
      </trkpt>
      <trkpt lat="43.73967" lon="6.38173">
        <ele>809.9</ele>
        <time>2021-09-07T14:14:23.000Z</time>
      </trkpt>
      <trkpt lat="43.73967" lon="6.38173">
        <ele>809.9</ele>
        <time>2021-09-07T14:14:28.000Z</time>
      </trkpt>
      <trkpt lat="43.73967" lon="6.38173">
        <ele>810.3</ele>
        <time>2021-09-07T14:14:33.000Z</time>
      </trkpt>
      <trkpt lat="43.73967" lon="6.38173">
        <ele>810.2</ele>
        <time>2021-09-07T14:14:38.000Z</time>
      </trkpt>
      <trkpt lat="43.73967" lon="6.38173">
        <ele>809.7</ele>
        <time>2021-09-07T14:14:43.000Z</time>
      </trkpt>
      <trkpt lat="43.73967" lon="6.38172">
        <ele>808.9</ele>
        <time>2021-09-07T14:14:48.000Z</time>
      </trkpt>
      <trkpt lat="43.73967" lon="6.38172">
        <ele>809.4</ele>
        <time>2021-09-07T14:14:53.000Z</time>
      </trkpt>
      <trkpt lat="43.73967" lon="6.38172">
        <ele>809.8</ele>
        <time>2021-09-07T14:14:58.000Z</time>
      </trkpt>
      <trkpt lat="43.73967" lon="6.38172">
        <ele>809.5</ele>
        <time>2021-09-07T14:15:00.000Z</time>
      </trkpt>
      <trkpt lat="43.73967" lon="6.38171">
        <ele>809.2</ele>
        <time>2021-09-07T14:15:03.000Z</time>
      </trkpt>
      <trkpt lat="43.73967" lon="6.38171">
        <ele>809.5</ele>
        <time>2021-09-07T14:15:08.000Z</time>
      </trkpt>
      <trkpt lat="43.73967" lon="6.3817">
        <ele>810</ele>
        <time>2021-09-07T14:15:11.000Z</time>
      </trkpt>
      <trkpt lat="43.73967" lon="6.3817">
        <ele>809.8</ele>
        <time>2021-09-07T14:15:12.000Z</time>
      </trkpt>
      <trkpt lat="43.73966" lon="6.3817">
        <ele>809.6</ele>
        <time>2021-09-07T14:15:17.000Z</time>
      </trkpt>
      <trkpt lat="43.73966" lon="6.3817">
        <ele>809.7</ele>
        <time>2021-09-07T14:15:22.000Z</time>
      </trkpt>
      <trkpt lat="43.73966" lon="6.3817">
        <ele>809.7</ele>
        <time>2021-09-07T14:15:24.000Z</time>
      </trkpt>
      <trkpt lat="43.73966" lon="6.3817">
        <ele>809.6</ele>
        <time>2021-09-07T14:15:25.000Z</time>
      </trkpt>
      <trkpt lat="43.73966" lon="6.3817">
        <ele>809.6</ele>
        <time>2021-09-07T14:15:30.000Z</time>
      </trkpt>
      <trkpt lat="43.73966" lon="6.3817">
        <ele>809.4</ele>
        <time>2021-09-07T14:15:35.000Z</time>
      </trkpt>
      <trkpt lat="43.73966" lon="6.3817">
        <ele>809.3</ele>
        <time>2021-09-07T14:15:39.000Z</time>
      </trkpt>
      <trkpt lat="43.73965" lon="6.3817">
        <ele>809</ele>
        <time>2021-09-07T14:15:40.000Z</time>
      </trkpt>
      <trkpt lat="43.73965" lon="6.3817">
        <ele>808.8</ele>
        <time>2021-09-07T14:15:45.000Z</time>
      </trkpt>
      <trkpt lat="43.73965" lon="6.3817">
        <ele>809.7</ele>
        <time>2021-09-07T14:15:50.000Z</time>
      </trkpt>
      <trkpt lat="43.73965" lon="6.3817">
        <ele>810.4</ele>
        <time>2021-09-07T14:15:52.000Z</time>
      </trkpt>
      <trkpt lat="43.73963" lon="6.38169">
        <ele>809.9</ele>
        <time>2021-09-07T14:15:57.000Z</time>
      </trkpt>
      <trkpt lat="43.73962" lon="6.38168">
        <ele>809.5</ele>
        <time>2021-09-07T14:16:02.000Z</time>
      </trkpt>
      <trkpt lat="43.73962" lon="6.38168">
        <ele>810.2</ele>
        <time>2021-09-07T14:16:05.000Z</time>
      </trkpt>
      <trkpt lat="43.73962" lon="6.38168">
        <ele>810.3</ele>
        <time>2021-09-07T14:16:06.000Z</time>
      </trkpt>
      <trkpt lat="43.7396" lon="6.38166">
        <ele>809.8</ele>
        <time>2021-09-07T14:16:11.000Z</time>
      </trkpt>
      <trkpt lat="43.7396" lon="6.38166">
        <ele>810.1</ele>
        <time>2021-09-07T14:16:13.000Z</time>
      </trkpt>
      <trkpt lat="43.7396" lon="6.38167">
        <ele>810</ele>
        <time>2021-09-07T14:16:18.000Z</time>
      </trkpt>
      <trkpt lat="43.7396" lon="6.38167">
        <ele>810.3</ele>
        <time>2021-09-07T14:16:23.000Z</time>
      </trkpt>
      <trkpt lat="43.7396" lon="6.38167">
        <ele>809.6</ele>
        <time>2021-09-07T14:16:27.000Z</time>
      </trkpt>
      <trkpt lat="43.73959" lon="6.38168">
        <ele>810.2</ele>
        <time>2021-09-07T14:16:30.000Z</time>
      </trkpt>
      <trkpt lat="43.73959" lon="6.38168">
        <ele>810.1</ele>
        <time>2021-09-07T14:16:34.000Z</time>
      </trkpt>
      <trkpt lat="43.73959" lon="6.38168">
        <ele>810.3</ele>
        <time>2021-09-07T14:16:35.000Z</time>
      </trkpt>
      <trkpt lat="43.73959" lon="6.38169">
        <ele>810.2</ele>
        <time>2021-09-07T14:16:36.000Z</time>
      </trkpt>
      <trkpt lat="43.73959" lon="6.38169">
        <ele>810.1</ele>
        <time>2021-09-07T14:16:37.000Z</time>
      </trkpt>
      <trkpt lat="43.73958" lon="6.3817">
        <ele>810.4</ele>
        <time>2021-09-07T14:16:42.000Z</time>
      </trkpt>
      <trkpt lat="43.73958" lon="6.3817">
        <ele>810.3</ele>
        <time>2021-09-07T14:16:46.000Z</time>
      </trkpt>
      <trkpt lat="43.73958" lon="6.3817">
        <ele>810.4</ele>
        <time>2021-09-07T14:16:47.000Z</time>
      </trkpt>
      <trkpt lat="43.73959" lon="6.3817">
        <ele>809.8</ele>
        <time>2021-09-07T14:16:52.000Z</time>
      </trkpt>
      <trkpt lat="43.73959" lon="6.3817">
        <ele>809.9</ele>
        <time>2021-09-07T14:16:53.000Z</time>
      </trkpt>
      <trkpt lat="43.73959" lon="6.38171">
        <ele>809.9</ele>
        <time>2021-09-07T14:16:55.000Z</time>
      </trkpt>
      <trkpt lat="43.73959" lon="6.38171">
        <ele>809.9</ele>
        <time>2021-09-07T14:16:56.000Z</time>
      </trkpt>
      <trkpt lat="43.73959" lon="6.38172">
        <ele>810.1</ele>
        <time>2021-09-07T14:16:57.000Z</time>
      </trkpt>
      <trkpt lat="43.7396" lon="6.38172">
        <ele>810.2</ele>
        <time>2021-09-07T14:16:58.000Z</time>
      </trkpt>
      <trkpt lat="43.73961" lon="6.38176">
        <ele>810.3</ele>
        <time>2021-09-07T14:17:02.000Z</time>
      </trkpt>
      <trkpt lat="43.73961" lon="6.38176">
        <ele>810.3</ele>
        <time>2021-09-07T14:17:03.000Z</time>
      </trkpt>
      <trkpt lat="43.73962" lon="6.38177">
        <ele>810.3</ele>
        <time>2021-09-07T14:17:04.000Z</time>
      </trkpt>
      <trkpt lat="43.73963" lon="6.38178">
        <ele>810.3</ele>
        <time>2021-09-07T14:17:04.000Z</time>
      </trkpt>
      <trkpt lat="43.73964" lon="6.38179">
        <ele>810.3</ele>
        <time>2021-09-07T14:17:06.000Z</time>
      </trkpt>
      <trkpt lat="43.73965" lon="6.3818">
        <ele>810.5</ele>
        <time>2021-09-07T14:17:06.000Z</time>
      </trkpt>
      <trkpt lat="43.73966" lon="6.38181">
        <ele>810.2</ele>
        <time>2021-09-07T14:17:07.000Z</time>
      </trkpt>
      <trkpt lat="43.73966" lon="6.3818">
        <ele>810.4</ele>
        <time>2021-09-07T14:17:08.000Z</time>
      </trkpt>
      <trkpt lat="43.73967" lon="6.38181">
        <ele>810.6</ele>
        <time>2021-09-07T14:17:09.000Z</time>
      </trkpt>
      <trkpt lat="43.73968" lon="6.38182">
        <ele>810.9</ele>
        <time>2021-09-07T14:17:10.000Z</time>
      </trkpt>
      <trkpt lat="43.73969" lon="6.38183">
        <ele>810.6</ele>
        <time>2021-09-07T14:17:10.000Z</time>
      </trkpt>
      <trkpt lat="43.73969" lon="6.38183">
        <ele>810.7</ele>
        <time>2021-09-07T14:17:12.000Z</time>
      </trkpt>
      <trkpt lat="43.7397" lon="6.38184">
        <ele>810.6</ele>
        <time>2021-09-07T14:17:12.000Z</time>
      </trkpt>
      <trkpt lat="43.7397" lon="6.38184">
        <ele>810.7</ele>
        <time>2021-09-07T14:17:13.000Z</time>
      </trkpt>
      <trkpt lat="43.73971" lon="6.38185">
        <ele>811.3</ele>
        <time>2021-09-07T14:17:16.000Z</time>
      </trkpt>
      <trkpt lat="43.73971" lon="6.38185">
        <ele>811</ele>
        <time>2021-09-07T14:17:17.000Z</time>
      </trkpt>
      <trkpt lat="43.73971" lon="6.38185">
        <ele>811.9</ele>
        <time>2021-09-07T14:17:18.000Z</time>
      </trkpt>
      <trkpt lat="43.7397" lon="6.38185">
        <ele>811.4</ele>
        <time>2021-09-07T14:17:23.000Z</time>
      </trkpt>
      <trkpt lat="43.7397" lon="6.38186">
        <ele>811.5</ele>
        <time>2021-09-07T14:17:25.000Z</time>
      </trkpt>
      <trkpt lat="43.7397" lon="6.38186">
        <ele>811.9</ele>
        <time>2021-09-07T14:17:30.000Z</time>
      </trkpt>
      <trkpt lat="43.73971" lon="6.38186">
        <ele>811.6</ele>
        <time>2021-09-07T14:17:33.000Z</time>
      </trkpt>
      <trkpt lat="43.73972" lon="6.38186">
        <ele>810.3</ele>
        <time>2021-09-07T14:17:38.000Z</time>
      </trkpt>
      <trkpt lat="43.73972" lon="6.38185">
        <ele>810.5</ele>
        <time>2021-09-07T14:17:43.000Z</time>
      </trkpt>
      <trkpt lat="43.73973" lon="6.38185">
        <ele>810.4</ele>
        <time>2021-09-07T14:17:48.000Z</time>
      </trkpt>
      <trkpt lat="43.73973" lon="6.38185">
        <ele>810.1</ele>
        <time>2021-09-07T14:17:53.000Z</time>
      </trkpt>
      <trkpt lat="43.73973" lon="6.38185">
        <ele>809.8</ele>
        <time>2021-09-07T14:17:58.000Z</time>
      </trkpt>
      <trkpt lat="43.73973" lon="6.38185">
        <ele>810.1</ele>
        <time>2021-09-07T14:18:03.000Z</time>
      </trkpt>
      <trkpt lat="43.73973" lon="6.38184">
        <ele>810.3</ele>
        <time>2021-09-07T14:18:08.000Z</time>
      </trkpt>
      <trkpt lat="43.73973" lon="6.38184">
        <ele>810</ele>
        <time>2021-09-07T14:18:13.000Z</time>
      </trkpt>
      <trkpt lat="43.73973" lon="6.38184">
        <ele>810.1</ele>
        <time>2021-09-07T14:18:16.000Z</time>
      </trkpt>
      <trkpt lat="43.73974" lon="6.38183">
        <ele>810.2</ele>
        <time>2021-09-07T14:18:21.000Z</time>
      </trkpt>
      <trkpt lat="43.73974" lon="6.38183">
        <ele>810.2</ele>
        <time>2021-09-07T14:18:26.000Z</time>
      </trkpt>
      <trkpt lat="43.73974" lon="6.38183">
        <ele>810.3</ele>
        <time>2021-09-07T14:18:31.000Z</time>
      </trkpt>
      <trkpt lat="43.73974" lon="6.38183">
        <ele>810.3</ele>
        <time>2021-09-07T14:18:36.000Z</time>
      </trkpt>
      <trkpt lat="43.73974" lon="6.38183">
        <ele>810.1</ele>
        <time>2021-09-07T14:18:41.000Z</time>
      </trkpt>
      <trkpt lat="43.73975" lon="6.38183">
        <ele>810.1</ele>
        <time>2021-09-07T14:18:44.000Z</time>
      </trkpt>
      <trkpt lat="43.73974" lon="6.38183">
        <ele>810.1</ele>
        <time>2021-09-07T14:18:45.000Z</time>
      </trkpt>
      <trkpt lat="43.73973" lon="6.38184">
        <ele>810.1</ele>
        <time>2021-09-07T14:18:50.000Z</time>
      </trkpt>
      <trkpt lat="43.73973" lon="6.38184">
        <ele>810.1</ele>
        <time>2021-09-07T14:18:52.000Z</time>
      </trkpt>
      <trkpt lat="43.73973" lon="6.38184">
        <ele>810.2</ele>
        <time>2021-09-07T14:18:53.000Z</time>
      </trkpt>
      <trkpt lat="43.73974" lon="6.38184">
        <ele>810.2</ele>
        <time>2021-09-07T14:18:55.000Z</time>
      </trkpt>
      <trkpt lat="43.73974" lon="6.38184">
        <ele>810.2</ele>
        <time>2021-09-07T14:18:58.000Z</time>
      </trkpt>
      <trkpt lat="43.73974" lon="6.38184">
        <ele>810.2</ele>
        <time>2021-09-07T14:19:00.000Z</time>
      </trkpt>
      <trkpt lat="43.73975" lon="6.38184">
        <ele>810.1</ele>
        <time>2021-09-07T14:19:03.000Z</time>
      </trkpt>
      <trkpt lat="43.73975" lon="6.38184">
        <ele>809.9</ele>
        <time>2021-09-07T14:19:04.000Z</time>
      </trkpt>
      <trkpt lat="43.73975" lon="6.38184">
        <ele>809.9</ele>
        <time>2021-09-07T14:19:05.000Z</time>
      </trkpt>
      <trkpt lat="43.73975" lon="6.38184">
        <ele>810.3</ele>
        <time>2021-09-07T14:19:10.000Z</time>
      </trkpt>
      <trkpt lat="43.73975" lon="6.38184">
        <ele>810</ele>
        <time>2021-09-07T14:19:15.000Z</time>
      </trkpt>
      <trkpt lat="43.73975" lon="6.38184">
        <ele>810.2</ele>
        <time>2021-09-07T14:19:19.000Z</time>
      </trkpt>
      <trkpt lat="43.73975" lon="6.38183">
        <ele>810.1</ele>
        <time>2021-09-07T14:19:22.000Z</time>
      </trkpt>
      <trkpt lat="43.73976" lon="6.38183">
        <ele>810.1</ele>
        <time>2021-09-07T14:19:27.000Z</time>
      </trkpt>
      <trkpt lat="43.73975" lon="6.38183">
        <ele>809.9</ele>
        <time>2021-09-07T14:19:31.000Z</time>
      </trkpt>
      <trkpt lat="43.73975" lon="6.38183">
        <ele>809.9</ele>
        <time>2021-09-07T14:19:32.000Z</time>
      </trkpt>
      <trkpt lat="43.73975" lon="6.38183">
        <ele>810</ele>
        <time>2021-09-07T14:19:37.000Z</time>
      </trkpt>
      <trkpt lat="43.73975" lon="6.38183">
        <ele>810.1</ele>
        <time>2021-09-07T14:19:40.000Z</time>
      </trkpt>
      <trkpt lat="43.73975" lon="6.38183">
        <ele>810.2</ele>
        <time>2021-09-07T14:19:44.000Z</time>
      </trkpt>
      <trkpt lat="43.73975" lon="6.38183">
        <ele>810.2</ele>
        <time>2021-09-07T14:19:49.000Z</time>
      </trkpt>
      <trkpt lat="43.73975" lon="6.38183">
        <ele>810.3</ele>
        <time>2021-09-07T14:19:54.000Z</time>
      </trkpt>
      <trkpt lat="43.73975" lon="6.38184">
        <ele>810.4</ele>
        <time>2021-09-07T14:19:59.000Z</time>
      </trkpt>
      <trkpt lat="43.73974" lon="6.38184">
        <ele>809.9</ele>
        <time>2021-09-07T14:20:04.000Z</time>
      </trkpt>
      <trkpt lat="43.73974" lon="6.38184">
        <ele>810</ele>
        <time>2021-09-07T14:20:08.000Z</time>
      </trkpt>
      <trkpt lat="43.73973" lon="6.38184">
        <ele>810.1</ele>
        <time>2021-09-07T14:20:13.000Z</time>
      </trkpt>
      <trkpt lat="43.73973" lon="6.38184">
        <ele>810.2</ele>
        <time>2021-09-07T14:20:16.000Z</time>
      </trkpt>
      <trkpt lat="43.73972" lon="6.38184">
        <ele>810.3</ele>
        <time>2021-09-07T14:20:21.000Z</time>
      </trkpt>
      <trkpt lat="43.73972" lon="6.38184">
        <ele>810.5</ele>
        <time>2021-09-07T14:20:26.000Z</time>
      </trkpt>
      <trkpt lat="43.73972" lon="6.38184">
        <ele>810.5</ele>
        <time>2021-09-07T14:20:31.000Z</time>
      </trkpt>
      <trkpt lat="43.73972" lon="6.38184">
        <ele>810.3</ele>
        <time>2021-09-07T14:20:36.000Z</time>
      </trkpt>
      <trkpt lat="43.73972" lon="6.38184">
        <ele>810.2</ele>
        <time>2021-09-07T14:20:41.000Z</time>
      </trkpt>
      <trkpt lat="43.73972" lon="6.38184">
        <ele>810.6</ele>
        <time>2021-09-07T14:20:46.000Z</time>
      </trkpt>
      <trkpt lat="43.73972" lon="6.38183">
        <ele>810.4</ele>
        <time>2021-09-07T14:20:51.000Z</time>
      </trkpt>
      <trkpt lat="43.73972" lon="6.38183">
        <ele>810.4</ele>
        <time>2021-09-07T14:20:56.000Z</time>
      </trkpt>
      <trkpt lat="43.73972" lon="6.38183">
        <ele>810.7</ele>
        <time>2021-09-07T14:21:01.000Z</time>
      </trkpt>
      <trkpt lat="43.73972" lon="6.38183">
        <ele>810.8</ele>
        <time>2021-09-07T14:21:06.000Z</time>
      </trkpt>
      <trkpt lat="43.73972" lon="6.38183">
        <ele>810.7</ele>
        <time>2021-09-07T14:21:11.000Z</time>
      </trkpt>
      <trkpt lat="43.73971" lon="6.38183">
        <ele>810.8</ele>
        <time>2021-09-07T14:21:16.000Z</time>
      </trkpt>
      <trkpt lat="43.73971" lon="6.38183">
        <ele>810.8</ele>
        <time>2021-09-07T14:21:17.000Z</time>
      </trkpt>
      <trkpt lat="43.73971" lon="6.38183">
        <ele>810.7</ele>
        <time>2021-09-07T14:21:22.000Z</time>
      </trkpt>
      <trkpt lat="43.73971" lon="6.38183">
        <ele>810.8</ele>
        <time>2021-09-07T14:21:24.000Z</time>
      </trkpt>
      <trkpt lat="43.73971" lon="6.38183">
        <ele>810.9</ele>
        <time>2021-09-07T14:21:26.000Z</time>
      </trkpt>
      <trkpt lat="43.73971" lon="6.38182">
        <ele>811.1</ele>
        <time>2021-09-07T14:21:31.000Z</time>
      </trkpt>
      <trkpt lat="43.73971" lon="6.38182">
        <ele>810.8</ele>
        <time>2021-09-07T14:21:36.000Z</time>
      </trkpt>
      <trkpt lat="43.73971" lon="6.38182">
        <ele>810.9</ele>
        <time>2021-09-07T14:21:41.000Z</time>
      </trkpt>
      <trkpt lat="43.73971" lon="6.38183">
        <ele>810.8</ele>
        <time>2021-09-07T14:21:46.000Z</time>
      </trkpt>
      <trkpt lat="43.73971" lon="6.38183">
        <ele>810.9</ele>
        <time>2021-09-07T14:21:51.000Z</time>
      </trkpt>
      <trkpt lat="43.73971" lon="6.38183">
        <ele>811.1</ele>
        <time>2021-09-07T14:21:52.000Z</time>
      </trkpt>
      <trkpt lat="43.73971" lon="6.38183">
        <ele>811.2</ele>
        <time>2021-09-07T14:21:53.000Z</time>
      </trkpt>
      <trkpt lat="43.73971" lon="6.38183">
        <ele>811.3</ele>
        <time>2021-09-07T14:21:58.000Z</time>
      </trkpt>
      <trkpt lat="43.73971" lon="6.38183">
        <ele>811</ele>
        <time>2021-09-07T14:22:03.000Z</time>
      </trkpt>
      <trkpt lat="43.73971" lon="6.38183">
        <ele>811</ele>
        <time>2021-09-07T14:22:08.000Z</time>
      </trkpt>
      <trkpt lat="43.7397" lon="6.38183">
        <ele>811.2</ele>
        <time>2021-09-07T14:22:13.000Z</time>
      </trkpt>
      <trkpt lat="43.7397" lon="6.38183">
        <ele>811.1</ele>
        <time>2021-09-07T14:22:17.000Z</time>
      </trkpt>
      <trkpt lat="43.73972" lon="6.38183">
        <ele>811.5</ele>
        <time>2021-09-07T14:22:22.000Z</time>
      </trkpt>
      <trkpt lat="43.73971" lon="6.38184">
        <ele>811.3</ele>
        <time>2021-09-07T14:22:24.000Z</time>
      </trkpt>
      <trkpt lat="43.73971" lon="6.38183">
        <ele>810.8</ele>
        <time>2021-09-07T14:22:29.000Z</time>
      </trkpt>
      <trkpt lat="43.73971" lon="6.38183">
        <ele>810.8</ele>
        <time>2021-09-07T14:22:34.000Z</time>
      </trkpt>
      <trkpt lat="43.73971" lon="6.38183">
        <ele>810.8</ele>
        <time>2021-09-07T14:22:39.000Z</time>
      </trkpt>
      <trkpt lat="43.73971" lon="6.38183">
        <ele>810.8</ele>
        <time>2021-09-07T14:22:40.000Z</time>
      </trkpt>
      <trkpt lat="43.73971" lon="6.38183">
        <ele>810.8</ele>
        <time>2021-09-07T14:22:41.000Z</time>
      </trkpt>
      <trkpt lat="43.73971" lon="6.38182">
        <ele>810.8</ele>
        <time>2021-09-07T14:22:45.000Z</time>
      </trkpt>
      <trkpt lat="43.73971" lon="6.38182">
        <ele>810.8</ele>
        <time>2021-09-07T14:22:46.000Z</time>
      </trkpt>
      <trkpt lat="43.73971" lon="6.38182">
        <ele>810.6</ele>
        <time>2021-09-07T14:22:49.000Z</time>
      </trkpt>
      <trkpt lat="43.73971" lon="6.38182">
        <ele>810.7</ele>
        <time>2021-09-07T14:22:50.000Z</time>
      </trkpt>
      <trkpt lat="43.73972" lon="6.38181">
        <ele>811</ele>
        <time>2021-09-07T14:22:54.000Z</time>
      </trkpt>
      <trkpt lat="43.73973" lon="6.3818">
        <ele>810.9</ele>
        <time>2021-09-07T14:22:59.000Z</time>
      </trkpt>
      <trkpt lat="43.73974" lon="6.3818">
        <ele>810.8</ele>
        <time>2021-09-07T14:23:02.000Z</time>
      </trkpt>
      <trkpt lat="43.73974" lon="6.3818">
        <ele>811</ele>
        <time>2021-09-07T14:23:03.000Z</time>
      </trkpt>
      <trkpt lat="43.73974" lon="6.3818">
        <ele>810.9</ele>
        <time>2021-09-07T14:23:07.000Z</time>
      </trkpt>
      <trkpt lat="43.73975" lon="6.3818">
        <ele>810.7</ele>
        <time>2021-09-07T14:23:08.000Z</time>
      </trkpt>
      <trkpt lat="43.73975" lon="6.3818">
        <ele>810.8</ele>
        <time>2021-09-07T14:23:10.000Z</time>
      </trkpt>
      <trkpt lat="43.73975" lon="6.3818">
        <ele>810.9</ele>
        <time>2021-09-07T14:23:12.000Z</time>
      </trkpt>
      <trkpt lat="43.73975" lon="6.3818">
        <ele>810.8</ele>
        <time>2021-09-07T14:23:13.000Z</time>
      </trkpt>
      <trkpt lat="43.73975" lon="6.3818">
        <ele>811.1</ele>
        <time>2021-09-07T14:23:18.000Z</time>
      </trkpt>
      <trkpt lat="43.73975" lon="6.3818">
        <ele>811</ele>
        <time>2021-09-07T14:23:19.000Z</time>
      </trkpt>
      <trkpt lat="43.73975" lon="6.3818">
        <ele>810.9</ele>
        <time>2021-09-07T14:23:23.000Z</time>
      </trkpt>
      <trkpt lat="43.73975" lon="6.3818">
        <ele>810.9</ele>
        <time>2021-09-07T14:23:28.000Z</time>
      </trkpt>
      <trkpt lat="43.73975" lon="6.38181">
        <ele>811.1</ele>
        <time>2021-09-07T14:23:33.000Z</time>
      </trkpt>
      <trkpt lat="43.73975" lon="6.38181">
        <ele>810.8</ele>
        <time>2021-09-07T14:23:38.000Z</time>
      </trkpt>
      <trkpt lat="43.73975" lon="6.38181">
        <ele>811</ele>
        <time>2021-09-07T14:23:43.000Z</time>
      </trkpt>
      <trkpt lat="43.73975" lon="6.38181">
        <ele>810.9</ele>
        <time>2021-09-07T14:23:48.000Z</time>
      </trkpt>
      <trkpt lat="43.73975" lon="6.3818">
        <ele>811</ele>
        <time>2021-09-07T14:23:52.000Z</time>
      </trkpt>
      <trkpt lat="43.73975" lon="6.3818">
        <ele>811.1</ele>
        <time>2021-09-07T14:23:53.000Z</time>
      </trkpt>
      <trkpt lat="43.73975" lon="6.3818">
        <ele>811.2</ele>
        <time>2021-09-07T14:23:58.000Z</time>
      </trkpt>
      <trkpt lat="43.73975" lon="6.3818">
        <ele>811.7</ele>
        <time>2021-09-07T14:24:03.000Z</time>
      </trkpt>
      <trkpt lat="43.73975" lon="6.38181">
        <ele>811.6</ele>
        <time>2021-09-07T14:24:04.000Z</time>
      </trkpt>
      <trkpt lat="43.73974" lon="6.38182">
        <ele>811.3</ele>
        <time>2021-09-07T14:24:09.000Z</time>
      </trkpt>
      <trkpt lat="43.73974" lon="6.38183">
        <ele>811.3</ele>
        <time>2021-09-07T14:24:14.000Z</time>
      </trkpt>
      <trkpt lat="43.73973" lon="6.38183">
        <ele>811</ele>
        <time>2021-09-07T14:24:19.000Z</time>
      </trkpt>
      <trkpt lat="43.73973" lon="6.38183">
        <ele>810.9</ele>
        <time>2021-09-07T14:24:24.000Z</time>
      </trkpt>
      <trkpt lat="43.73973" lon="6.38183">
        <ele>811.3</ele>
        <time>2021-09-07T14:24:29.000Z</time>
      </trkpt>
      <trkpt lat="43.73973" lon="6.38183">
        <ele>811.1</ele>
        <time>2021-09-07T14:24:34.000Z</time>
      </trkpt>
      <trkpt lat="43.73973" lon="6.38184">
        <ele>811.1</ele>
        <time>2021-09-07T14:24:38.000Z</time>
      </trkpt>
      <trkpt lat="43.73972" lon="6.38184">
        <ele>811.4</ele>
        <time>2021-09-07T14:24:41.000Z</time>
      </trkpt>
      <trkpt lat="43.73972" lon="6.38184">
        <ele>811.4</ele>
        <time>2021-09-07T14:24:46.000Z</time>
      </trkpt>
      <trkpt lat="43.73972" lon="6.38184">
        <ele>811.7</ele>
        <time>2021-09-07T14:24:51.000Z</time>
      </trkpt>
      <trkpt lat="43.73972" lon="6.38184">
        <ele>811.4</ele>
        <time>2021-09-07T14:24:53.000Z</time>
      </trkpt>
      <trkpt lat="43.73972" lon="6.38184">
        <ele>811.4</ele>
        <time>2021-09-07T14:24:54.000Z</time>
      </trkpt>
      <trkpt lat="43.73972" lon="6.38184">
        <ele>811.5</ele>
        <time>2021-09-07T14:24:57.000Z</time>
      </trkpt>
      <trkpt lat="43.73971" lon="6.38185">
        <ele>811.7</ele>
        <time>2021-09-07T14:25:00.000Z</time>
      </trkpt>
      <trkpt lat="43.73971" lon="6.38185">
        <ele>811.6</ele>
        <time>2021-09-07T14:25:01.000Z</time>
      </trkpt>
      <trkpt lat="43.73971" lon="6.38185">
        <ele>811.4</ele>
        <time>2021-09-07T14:25:02.000Z</time>
      </trkpt>
      <trkpt lat="43.73972" lon="6.38184">
        <ele>811.3</ele>
        <time>2021-09-07T14:25:07.000Z</time>
      </trkpt>
      <trkpt lat="43.73972" lon="6.38184">
        <ele>811.5</ele>
        <time>2021-09-07T14:25:12.000Z</time>
      </trkpt>
      <trkpt lat="43.73972" lon="6.38184">
        <ele>811.3</ele>
        <time>2021-09-07T14:25:17.000Z</time>
      </trkpt>
      <trkpt lat="43.73972" lon="6.38184">
        <ele>811.6</ele>
        <time>2021-09-07T14:25:22.000Z</time>
      </trkpt>
      <trkpt lat="43.73972" lon="6.38184">
        <ele>811.8</ele>
        <time>2021-09-07T14:25:27.000Z</time>
      </trkpt>
      <trkpt lat="43.73972" lon="6.38184">
        <ele>811.5</ele>
        <time>2021-09-07T14:25:32.000Z</time>
      </trkpt>
      <trkpt lat="43.73972" lon="6.38184">
        <ele>811.6</ele>
        <time>2021-09-07T14:25:33.000Z</time>
      </trkpt>
      <trkpt lat="43.73972" lon="6.38183">
        <ele>811.6</ele>
        <time>2021-09-07T14:25:38.000Z</time>
      </trkpt>
      <trkpt lat="43.73972" lon="6.38183">
        <ele>811.5</ele>
        <time>2021-09-07T14:25:43.000Z</time>
      </trkpt>
      <trkpt lat="43.73972" lon="6.38183">
        <ele>811.5</ele>
        <time>2021-09-07T14:25:48.000Z</time>
      </trkpt>
      <trkpt lat="43.73972" lon="6.38183">
        <ele>811.4</ele>
        <time>2021-09-07T14:25:53.000Z</time>
      </trkpt>
      <trkpt lat="43.73972" lon="6.38183">
        <ele>811.6</ele>
        <time>2021-09-07T14:25:57.000Z</time>
      </trkpt>
      <trkpt lat="43.73972" lon="6.38183">
        <ele>811.4</ele>
        <time>2021-09-07T14:25:58.000Z</time>
      </trkpt>
      <trkpt lat="43.73972" lon="6.38182">
        <ele>811.4</ele>
        <time>2021-09-07T14:26:01.000Z</time>
      </trkpt>
      <trkpt lat="43.73972" lon="6.38182">
        <ele>811.6</ele>
        <time>2021-09-07T14:26:02.000Z</time>
      </trkpt>
      <trkpt lat="43.73972" lon="6.38182">
        <ele>811.6</ele>
        <time>2021-09-07T14:26:07.000Z</time>
      </trkpt>
      <trkpt lat="43.73972" lon="6.38181">
        <ele>811.6</ele>
        <time>2021-09-07T14:26:11.000Z</time>
      </trkpt>
      <trkpt lat="43.73972" lon="6.38181">
        <ele>811.6</ele>
        <time>2021-09-07T14:26:12.000Z</time>
      </trkpt>
      <trkpt lat="43.73972" lon="6.38181">
        <ele>811.8</ele>
        <time>2021-09-07T14:26:17.000Z</time>
      </trkpt>
      <trkpt lat="43.73972" lon="6.38181">
        <ele>811.9</ele>
        <time>2021-09-07T14:26:22.000Z</time>
      </trkpt>
      <trkpt lat="43.73972" lon="6.38181">
        <ele>811.6</ele>
        <time>2021-09-07T14:26:24.000Z</time>
      </trkpt>
      <trkpt lat="43.73972" lon="6.38181">
        <ele>811.6</ele>
        <time>2021-09-07T14:26:29.000Z</time>
      </trkpt>
      <trkpt lat="43.73972" lon="6.38181">
        <ele>811.8</ele>
        <time>2021-09-07T14:26:34.000Z</time>
      </trkpt>
      <trkpt lat="43.73972" lon="6.38181">
        <ele>811.9</ele>
        <time>2021-09-07T14:26:39.000Z</time>
      </trkpt>
      <trkpt lat="43.73972" lon="6.38181">
        <ele>811.9</ele>
        <time>2021-09-07T14:26:44.000Z</time>
      </trkpt>
      <trkpt lat="43.73972" lon="6.3818">
        <ele>812.1</ele>
        <time>2021-09-07T14:26:49.000Z</time>
      </trkpt>
      <trkpt lat="43.73972" lon="6.3818">
        <ele>812.1</ele>
        <time>2021-09-07T14:26:54.000Z</time>
      </trkpt>
      <trkpt lat="43.73972" lon="6.3818">
        <ele>812.1</ele>
        <time>2021-09-07T14:26:59.000Z</time>
      </trkpt>
      <trkpt lat="43.73972" lon="6.3818">
        <ele>811.9</ele>
        <time>2021-09-07T14:27:04.000Z</time>
      </trkpt>
      <trkpt lat="43.73972" lon="6.3818">
        <ele>812</ele>
        <time>2021-09-07T14:27:09.000Z</time>
      </trkpt>
      <trkpt lat="43.73972" lon="6.3818">
        <ele>812.2</ele>
        <time>2021-09-07T14:27:14.000Z</time>
      </trkpt>
      <trkpt lat="43.73972" lon="6.3818">
        <ele>812.2</ele>
        <time>2021-09-07T14:27:15.000Z</time>
      </trkpt>
      <trkpt lat="43.73972" lon="6.3818">
        <ele>812.4</ele>
        <time>2021-09-07T14:27:16.000Z</time>
      </trkpt>
      <trkpt lat="43.73972" lon="6.38181">
        <ele>812.4</ele>
        <time>2021-09-07T14:27:17.000Z</time>
      </trkpt>
      <trkpt lat="43.73973" lon="6.38181">
        <ele>812.3</ele>
        <time>2021-09-07T14:27:20.000Z</time>
      </trkpt>
      <trkpt lat="43.73973" lon="6.38181">
        <ele>812</ele>
        <time>2021-09-07T14:27:25.000Z</time>
      </trkpt>
      <trkpt lat="43.73973" lon="6.3818">
        <ele>812</ele>
        <time>2021-09-07T14:27:28.000Z</time>
      </trkpt>
      <trkpt lat="43.73973" lon="6.3818">
        <ele>812.3</ele>
        <time>2021-09-07T14:27:30.000Z</time>
      </trkpt>
      <trkpt lat="43.73973" lon="6.3818">
        <ele>812.3</ele>
        <time>2021-09-07T14:27:35.000Z</time>
      </trkpt>
      <trkpt lat="43.73973" lon="6.3818">
        <ele>812.1</ele>
        <time>2021-09-07T14:27:40.000Z</time>
      </trkpt>
      <trkpt lat="43.73973" lon="6.3818">
        <ele>812.1</ele>
        <time>2021-09-07T14:27:42.000Z</time>
      </trkpt>
      <trkpt lat="43.73973" lon="6.3818">
        <ele>812.4</ele>
        <time>2021-09-07T14:27:44.000Z</time>
      </trkpt>
      <trkpt lat="43.73973" lon="6.3818">
        <ele>812.2</ele>
        <time>2021-09-07T14:27:49.000Z</time>
      </trkpt>
      <trkpt lat="43.73973" lon="6.3818">
        <ele>812.3</ele>
        <time>2021-09-07T14:27:54.000Z</time>
      </trkpt>
      <trkpt lat="43.73973" lon="6.3818">
        <ele>812.4</ele>
        <time>2021-09-07T14:27:58.000Z</time>
      </trkpt>
      <trkpt lat="43.73972" lon="6.3818">
        <ele>812.2</ele>
        <time>2021-09-07T14:28:00.000Z</time>
      </trkpt>
      <trkpt lat="43.73972" lon="6.3818">
        <ele>812.1</ele>
        <time>2021-09-07T14:28:02.000Z</time>
      </trkpt>
      <trkpt lat="43.73972" lon="6.3818">
        <ele>812.1</ele>
        <time>2021-09-07T14:28:03.000Z</time>
      </trkpt>
      <trkpt lat="43.73972" lon="6.3818">
        <ele>812.1</ele>
        <time>2021-09-07T14:28:08.000Z</time>
      </trkpt>
      <trkpt lat="43.73972" lon="6.38181">
        <ele>812.4</ele>
        <time>2021-09-07T14:28:13.000Z</time>
      </trkpt>
      <trkpt lat="43.73972" lon="6.38181">
        <ele>812.2</ele>
        <time>2021-09-07T14:28:18.000Z</time>
      </trkpt>
      <trkpt lat="43.73972" lon="6.38181">
        <ele>812.2</ele>
        <time>2021-09-07T14:28:23.000Z</time>
      </trkpt>
      <trkpt lat="43.73972" lon="6.38181">
        <ele>812.2</ele>
        <time>2021-09-07T14:28:28.000Z</time>
      </trkpt>
      <trkpt lat="43.73972" lon="6.38181">
        <ele>812.1</ele>
        <time>2021-09-07T14:28:33.000Z</time>
      </trkpt>
      <trkpt lat="43.73971" lon="6.38182">
        <ele>812.1</ele>
        <time>2021-09-07T14:28:38.000Z</time>
      </trkpt>
      <trkpt lat="43.73971" lon="6.38182">
        <ele>812.2</ele>
        <time>2021-09-07T14:28:43.000Z</time>
      </trkpt>
      <trkpt lat="43.73971" lon="6.38182">
        <ele>812.1</ele>
        <time>2021-09-07T14:28:48.000Z</time>
      </trkpt>
      <trkpt lat="43.73971" lon="6.38181">
        <ele>812</ele>
        <time>2021-09-07T14:28:53.000Z</time>
      </trkpt>
      <trkpt lat="43.73971" lon="6.38182">
        <ele>812.2</ele>
        <time>2021-09-07T14:28:58.000Z</time>
      </trkpt>
      <trkpt lat="43.7397" lon="6.38182">
        <ele>812.1</ele>
        <time>2021-09-07T14:29:03.000Z</time>
      </trkpt>
      <trkpt lat="43.73971" lon="6.38183">
        <ele>812.1</ele>
        <time>2021-09-07T14:29:05.000Z</time>
      </trkpt>
      <trkpt lat="43.73971" lon="6.38183">
        <ele>812</ele>
        <time>2021-09-07T14:29:06.000Z</time>
      </trkpt>
      <trkpt lat="43.7397" lon="6.38183">
        <ele>811.6</ele>
        <time>2021-09-07T14:29:11.000Z</time>
      </trkpt>
      <trkpt lat="43.7397" lon="6.38183">
        <ele>812.7</ele>
        <time>2021-09-07T14:29:13.000Z</time>
      </trkpt>
      <trkpt lat="43.73971" lon="6.38186">
        <ele>812</ele>
        <time>2021-09-07T14:29:18.000Z</time>
      </trkpt>
      <trkpt lat="43.73971" lon="6.38186">
        <ele>812.4</ele>
        <time>2021-09-07T14:29:23.000Z</time>
      </trkpt>
      <trkpt lat="43.73971" lon="6.38186">
        <ele>811.7</ele>
        <time>2021-09-07T14:29:25.000Z</time>
      </trkpt>
      <trkpt lat="43.73971" lon="6.38186">
        <ele>813.2</ele>
        <time>2021-09-07T14:29:31.000Z</time>
      </trkpt>
      <trkpt lat="43.73971" lon="6.38186">
        <ele>812.8</ele>
        <time>2021-09-07T14:29:33.000Z</time>
      </trkpt>
      <trkpt lat="43.73971" lon="6.38186">
        <ele>813.1</ele>
        <time>2021-09-07T14:29:34.000Z</time>
      </trkpt>
      <trkpt lat="43.73972" lon="6.38187">
        <ele>813</ele>
        <time>2021-09-07T14:29:35.000Z</time>
      </trkpt>
      <trkpt lat="43.73975" lon="6.38188">
        <ele>813</ele>
        <time>2021-09-07T14:29:40.000Z</time>
      </trkpt>
      <trkpt lat="43.73977" lon="6.38189">
        <ele>812.8</ele>
        <time>2021-09-07T14:29:41.000Z</time>
      </trkpt>
      <trkpt lat="43.73977" lon="6.38189">
        <ele>812.6</ele>
        <time>2021-09-07T14:29:42.000Z</time>
      </trkpt>
      <trkpt lat="43.73977" lon="6.38189">
        <ele>812.9</ele>
        <time>2021-09-07T14:29:43.000Z</time>
      </trkpt>
      <trkpt lat="43.73978" lon="6.38189">
        <ele>812.6</ele>
        <time>2021-09-07T14:29:43.000Z</time>
      </trkpt>
      <trkpt lat="43.73978" lon="6.3819">
        <ele>812.5</ele>
        <time>2021-09-07T14:29:48.000Z</time>
      </trkpt>
      <trkpt lat="43.73979" lon="6.38189">
        <ele>812.8</ele>
        <time>2021-09-07T14:29:51.000Z</time>
      </trkpt>
      <trkpt lat="43.73979" lon="6.38189">
        <ele>812.7</ele>
        <time>2021-09-07T14:29:55.000Z</time>
      </trkpt>
      <trkpt lat="43.73979" lon="6.38189">
        <ele>812.7</ele>
        <time>2021-09-07T14:29:56.000Z</time>
      </trkpt>
      <trkpt lat="43.73979" lon="6.38189">
        <ele>813.4</ele>
        <time>2021-09-07T14:30:01.000Z</time>
      </trkpt>
      <trkpt lat="43.7398" lon="6.38188">
        <ele>815.6</ele>
        <time>2021-09-07T14:30:06.000Z</time>
      </trkpt>
      <trkpt lat="43.7398" lon="6.38189">
        <ele>813.2</ele>
        <time>2021-09-07T14:30:08.000Z</time>
      </trkpt>
      <trkpt lat="43.7398" lon="6.38189">
        <ele>812.7</ele>
        <time>2021-09-07T14:30:09.000Z</time>
      </trkpt>
      <trkpt lat="43.73981" lon="6.38189">
        <ele>812.8</ele>
        <time>2021-09-07T14:30:14.000Z</time>
      </trkpt>
      <trkpt lat="43.73981" lon="6.38189">
        <ele>812.3</ele>
        <time>2021-09-07T14:30:16.000Z</time>
      </trkpt>
      <trkpt lat="43.73982" lon="6.38189">
        <ele>812.4</ele>
        <time>2021-09-07T14:30:17.000Z</time>
      </trkpt>
      <trkpt lat="43.73983" lon="6.38189">
        <ele>812.5</ele>
        <time>2021-09-07T14:30:18.000Z</time>
      </trkpt>
      <trkpt lat="43.73983" lon="6.38189">
        <ele>812.4</ele>
        <time>2021-09-07T14:30:20.000Z</time>
      </trkpt>
      <trkpt lat="43.73983" lon="6.38189">
        <ele>812.3</ele>
        <time>2021-09-07T14:30:20.000Z</time>
      </trkpt>
      <trkpt lat="43.73984" lon="6.38189">
        <ele>812.3</ele>
        <time>2021-09-07T14:30:22.000Z</time>
      </trkpt>
      <trkpt lat="43.73985" lon="6.38188">
        <ele>812.6</ele>
        <time>2021-09-07T14:30:22.000Z</time>
      </trkpt>
      <trkpt lat="43.73985" lon="6.38188">
        <ele>813</ele>
        <time>2021-09-07T14:30:23.000Z</time>
      </trkpt>
      <trkpt lat="43.73987" lon="6.38188">
        <ele>812.9</ele>
        <time>2021-09-07T14:30:28.000Z</time>
      </trkpt>
      <trkpt lat="43.73988" lon="6.38188">
        <ele>812.7</ele>
        <time>2021-09-07T14:30:33.000Z</time>
      </trkpt>
      <trkpt lat="43.73988" lon="6.38187">
        <ele>812.9</ele>
        <time>2021-09-07T14:30:34.000Z</time>
      </trkpt>
      <trkpt lat="43.73988" lon="6.38187">
        <ele>813.1</ele>
        <time>2021-09-07T14:30:37.000Z</time>
      </trkpt>
      <trkpt lat="43.73989" lon="6.38187">
        <ele>812.7</ele>
        <time>2021-09-07T14:30:42.000Z</time>
      </trkpt>
      <trkpt lat="43.73989" lon="6.38187">
        <ele>813.1</ele>
        <time>2021-09-07T14:30:43.000Z</time>
      </trkpt>
      <trkpt lat="43.73989" lon="6.38187">
        <ele>812.8</ele>
        <time>2021-09-07T14:30:44.000Z</time>
      </trkpt>
      <trkpt lat="43.7399" lon="6.38188">
        <ele>812.9</ele>
        <time>2021-09-07T14:30:44.000Z</time>
      </trkpt>
      <trkpt lat="43.73999" lon="6.38193">
        <ele>813.8</ele>
        <time>2021-09-07T14:30:48.000Z</time>
      </trkpt>
      <trkpt lat="43.73998" lon="6.38192">
        <ele>813.7</ele>
        <time>2021-09-07T14:30:49.000Z</time>
      </trkpt>
      <trkpt lat="43.74" lon="6.38195">
        <ele>813.8</ele>
        <time>2021-09-07T14:30:49.000Z</time>
      </trkpt>
      <trkpt lat="43.74005" lon="6.38199">
        <ele>814.1</ele>
        <time>2021-09-07T14:30:52.000Z</time>
      </trkpt>
      <trkpt lat="43.74007" lon="6.38199">
        <ele>814.3</ele>
        <time>2021-09-07T14:30:53.000Z</time>
      </trkpt>
      <trkpt lat="43.74014" lon="6.38202">
        <ele>814.2</ele>
        <time>2021-09-07T14:30:58.000Z</time>
      </trkpt>
      <trkpt lat="43.74023" lon="6.38203">
        <ele>815</ele>
        <time>2021-09-07T14:31:03.000Z</time>
      </trkpt>
      <trkpt lat="43.74033" lon="6.38205">
        <ele>815.6</ele>
        <time>2021-09-07T14:31:08.000Z</time>
      </trkpt>
      <trkpt lat="43.74042" lon="6.38199">
        <ele>816.4</ele>
        <time>2021-09-07T14:31:13.000Z</time>
      </trkpt>
      <trkpt lat="43.74051" lon="6.38203">
        <ele>816.8</ele>
        <time>2021-09-07T14:31:18.000Z</time>
      </trkpt>
      <trkpt lat="43.74061" lon="6.38206">
        <ele>817.3</ele>
        <time>2021-09-07T14:31:23.000Z</time>
      </trkpt>
      <trkpt lat="43.74071" lon="6.3821">
        <ele>818.4</ele>
        <time>2021-09-07T14:31:28.000Z</time>
      </trkpt>
      <trkpt lat="43.74082" lon="6.38215">
        <ele>819.3</ele>
        <time>2021-09-07T14:31:33.000Z</time>
      </trkpt>
      <trkpt lat="43.74092" lon="6.38217">
        <ele>820.2</ele>
        <time>2021-09-07T14:31:38.000Z</time>
      </trkpt>
      <trkpt lat="43.74099" lon="6.38219">
        <ele>821</ele>
        <time>2021-09-07T14:31:43.000Z</time>
      </trkpt>
      <trkpt lat="43.74105" lon="6.38224">
        <ele>821.9</ele>
        <time>2021-09-07T14:31:48.000Z</time>
      </trkpt>
      <trkpt lat="43.74113" lon="6.38224">
        <ele>822.6</ele>
        <time>2021-09-07T14:31:53.000Z</time>
      </trkpt>
      <trkpt lat="43.74122" lon="6.38224">
        <ele>823.2</ele>
        <time>2021-09-07T14:31:58.000Z</time>
      </trkpt>
      <trkpt lat="43.74129" lon="6.38219">
        <ele>824</ele>
        <time>2021-09-07T14:32:03.000Z</time>
      </trkpt>
      <trkpt lat="43.74136" lon="6.38212">
        <ele>824.2</ele>
        <time>2021-09-07T14:32:08.000Z</time>
      </trkpt>
      <trkpt lat="43.74144" lon="6.38206">
        <ele>824.9</ele>
        <time>2021-09-07T14:32:13.000Z</time>
      </trkpt>
      <trkpt lat="43.7415" lon="6.38197">
        <ele>825.5</ele>
        <time>2021-09-07T14:32:18.000Z</time>
      </trkpt>
      <trkpt lat="43.74159" lon="6.38194">
        <ele>826.4</ele>
        <time>2021-09-07T14:32:23.000Z</time>
      </trkpt>
      <trkpt lat="43.74169" lon="6.38193">
        <ele>827.2</ele>
        <time>2021-09-07T14:32:28.000Z</time>
      </trkpt>
      <trkpt lat="43.74178" lon="6.38197">
        <ele>827.5</ele>
        <time>2021-09-07T14:32:33.000Z</time>
      </trkpt>
      <trkpt lat="43.74186" lon="6.38201">
        <ele>828.5</ele>
        <time>2021-09-07T14:32:38.000Z</time>
      </trkpt>
      <trkpt lat="43.74198" lon="6.38203">
        <ele>829.3</ele>
        <time>2021-09-07T14:32:43.000Z</time>
      </trkpt>
      <trkpt lat="43.74207" lon="6.38209">
        <ele>830</ele>
        <time>2021-09-07T14:32:48.000Z</time>
      </trkpt>
      <trkpt lat="43.74217" lon="6.38212">
        <ele>830.7</ele>
        <time>2021-09-07T14:32:53.000Z</time>
      </trkpt>
      <trkpt lat="43.74225" lon="6.3822">
        <ele>831.6</ele>
        <time>2021-09-07T14:32:58.000Z</time>
      </trkpt>
      <trkpt lat="43.74232" lon="6.38232">
        <ele>832.9</ele>
        <time>2021-09-07T14:33:03.000Z</time>
      </trkpt>
      <trkpt lat="43.74236" lon="6.38247">
        <ele>833.7</ele>
        <time>2021-09-07T14:33:08.000Z</time>
      </trkpt>
      <trkpt lat="43.74239" lon="6.38265">
        <ele>834.9</ele>
        <time>2021-09-07T14:33:13.000Z</time>
      </trkpt>
      <trkpt lat="43.74238" lon="6.38278">
        <ele>835.7</ele>
        <time>2021-09-07T14:33:18.000Z</time>
      </trkpt>
      <trkpt lat="43.74236" lon="6.38287">
        <ele>836.7</ele>
        <time>2021-09-07T14:33:23.000Z</time>
      </trkpt>
      <trkpt lat="43.74231" lon="6.38298">
        <ele>837.1</ele>
        <time>2021-09-07T14:33:28.000Z</time>
      </trkpt>
      <trkpt lat="43.74228" lon="6.38312">
        <ele>837.4</ele>
        <time>2021-09-07T14:33:33.000Z</time>
      </trkpt>
      <trkpt lat="43.74225" lon="6.38325">
        <ele>838.3</ele>
        <time>2021-09-07T14:33:38.000Z</time>
      </trkpt>
      <trkpt lat="43.74221" lon="6.38337">
        <ele>838.9</ele>
        <time>2021-09-07T14:33:43.000Z</time>
      </trkpt>
      <trkpt lat="43.74217" lon="6.38349">
        <ele>839.4</ele>
        <time>2021-09-07T14:33:48.000Z</time>
      </trkpt>
      <trkpt lat="43.74213" lon="6.38362">
        <ele>840.3</ele>
        <time>2021-09-07T14:33:53.000Z</time>
      </trkpt>
      <trkpt lat="43.7421" lon="6.38372">
        <ele>840.6</ele>
        <time>2021-09-07T14:33:58.000Z</time>
      </trkpt>
      <trkpt lat="43.74206" lon="6.38387">
        <ele>840.9</ele>
        <time>2021-09-07T14:34:03.000Z</time>
      </trkpt>
      <trkpt lat="43.74204" lon="6.38398">
        <ele>841.2</ele>
        <time>2021-09-07T14:34:08.000Z</time>
      </trkpt>
      <trkpt lat="43.74201" lon="6.38411">
        <ele>842</ele>
        <time>2021-09-07T14:34:13.000Z</time>
      </trkpt>
      <trkpt lat="43.74199" lon="6.38424">
        <ele>842.5</ele>
        <time>2021-09-07T14:34:18.000Z</time>
      </trkpt>
      <trkpt lat="43.74197" lon="6.38438">
        <ele>842.6</ele>
        <time>2021-09-07T14:34:23.000Z</time>
      </trkpt>
      <trkpt lat="43.74194" lon="6.38452">
        <ele>843.7</ele>
        <time>2021-09-07T14:34:28.000Z</time>
      </trkpt>
      <trkpt lat="43.74192" lon="6.38465">
        <ele>844</ele>
        <time>2021-09-07T14:34:33.000Z</time>
      </trkpt>
      <trkpt lat="43.74191" lon="6.38479">
        <ele>844.6</ele>
        <time>2021-09-07T14:34:38.000Z</time>
      </trkpt>
      <trkpt lat="43.74191" lon="6.38493">
        <ele>844.7</ele>
        <time>2021-09-07T14:34:43.000Z</time>
      </trkpt>
      <trkpt lat="43.74191" lon="6.38507">
        <ele>846.1</ele>
        <time>2021-09-07T14:34:48.000Z</time>
      </trkpt>
      <trkpt lat="43.7419" lon="6.3852">
        <ele>846.6</ele>
        <time>2021-09-07T14:34:53.000Z</time>
      </trkpt>
      <trkpt lat="43.7419" lon="6.38537">
        <ele>847.1</ele>
        <time>2021-09-07T14:34:58.000Z</time>
      </trkpt>
      <trkpt lat="43.7419" lon="6.38552">
        <ele>847.8</ele>
        <time>2021-09-07T14:35:03.000Z</time>
      </trkpt>
      <trkpt lat="43.74192" lon="6.38568">
        <ele>848.4</ele>
        <time>2021-09-07T14:35:08.000Z</time>
      </trkpt>
      <trkpt lat="43.74197" lon="6.38586">
        <ele>849.2</ele>
        <time>2021-09-07T14:35:13.000Z</time>
      </trkpt>
      <trkpt lat="43.74203" lon="6.38602">
        <ele>849.6</ele>
        <time>2021-09-07T14:35:18.000Z</time>
      </trkpt>
      <trkpt lat="43.74207" lon="6.38617">
        <ele>850.6</ele>
        <time>2021-09-07T14:35:23.000Z</time>
      </trkpt>
      <trkpt lat="43.74208" lon="6.3862">
        <ele>850.5</ele>
        <time>2021-09-07T14:35:24.000Z</time>
      </trkpt>
      <trkpt lat="43.74207" lon="6.38616">
        <ele>850.3</ele>
        <time>2021-09-07T14:35:25.000Z</time>
      </trkpt>
      <trkpt lat="43.7421" lon="6.38626">
        <ele>850.9</ele>
        <time>2021-09-07T14:35:26.000Z</time>
      </trkpt>
      <trkpt lat="43.74212" lon="6.38633">
        <ele>850.9</ele>
        <time>2021-09-07T14:35:28.000Z</time>
      </trkpt>
      <trkpt lat="43.74211" lon="6.38628">
        <ele>851</ele>
        <time>2021-09-07T14:35:29.000Z</time>
      </trkpt>
      <trkpt lat="43.74213" lon="6.38636">
        <ele>851.3</ele>
        <time>2021-09-07T14:35:29.000Z</time>
      </trkpt>
      <trkpt lat="43.74214" lon="6.38643">
        <ele>851.8</ele>
        <time>2021-09-07T14:35:31.000Z</time>
      </trkpt>
      <trkpt lat="43.74216" lon="6.38646">
        <ele>851.8</ele>
        <time>2021-09-07T14:35:32.000Z</time>
      </trkpt>
      <trkpt lat="43.74217" lon="6.3865">
        <ele>851.7</ele>
        <time>2021-09-07T14:35:33.000Z</time>
      </trkpt>
      <trkpt lat="43.74215" lon="6.38645">
        <ele>851.8</ele>
        <time>2021-09-07T14:35:34.000Z</time>
      </trkpt>
      <trkpt lat="43.74218" lon="6.38656">
        <ele>852.1</ele>
        <time>2021-09-07T14:35:35.000Z</time>
      </trkpt>
      <trkpt lat="43.74216" lon="6.38648">
        <ele>851.8</ele>
        <time>2021-09-07T14:35:35.000Z</time>
      </trkpt>
      <trkpt lat="43.7422" lon="6.38659">
        <ele>852.3</ele>
        <time>2021-09-07T14:35:36.000Z</time>
      </trkpt>
      <trkpt lat="43.74217" lon="6.38652">
        <ele>852</ele>
        <time>2021-09-07T14:35:36.000Z</time>
      </trkpt>
      <trkpt lat="43.74221" lon="6.38662">
        <ele>852.2</ele>
        <time>2021-09-07T14:35:37.000Z</time>
      </trkpt>
      <trkpt lat="43.7422" lon="6.38658">
        <ele>852.2</ele>
        <time>2021-09-07T14:35:38.000Z</time>
      </trkpt>
      <trkpt lat="43.74223" lon="6.38668">
        <ele>852.6</ele>
        <time>2021-09-07T14:35:39.000Z</time>
      </trkpt>
      <trkpt lat="43.74221" lon="6.3866">
        <ele>852.3</ele>
        <time>2021-09-07T14:35:39.000Z</time>
      </trkpt>
      <trkpt lat="43.74222" lon="6.38664">
        <ele>852.4</ele>
        <time>2021-09-07T14:35:40.000Z</time>
      </trkpt>
      <trkpt lat="43.74225" lon="6.38673">
        <ele>852.7</ele>
        <time>2021-09-07T14:35:41.000Z</time>
      </trkpt>
      <trkpt lat="43.74225" lon="6.38675">
        <ele>853.1</ele>
        <time>2021-09-07T14:35:42.000Z</time>
      </trkpt>
      <trkpt lat="43.74223" lon="6.38668">
        <ele>852.7</ele>
        <time>2021-09-07T14:35:42.000Z</time>
      </trkpt>
      <trkpt lat="43.74226" lon="6.38677">
        <ele>853</ele>
        <time>2021-09-07T14:35:43.000Z</time>
      </trkpt>
      <trkpt lat="43.74225" lon="6.38675">
        <ele>853</ele>
        <time>2021-09-07T14:35:44.000Z</time>
      </trkpt>
      <trkpt lat="43.74228" lon="6.38685">
        <ele>853.8</ele>
        <time>2021-09-07T14:35:46.000Z</time>
      </trkpt>
      <trkpt lat="43.74228" lon="6.38688">
        <ele>853.9</ele>
        <time>2021-09-07T14:35:49.000Z</time>
      </trkpt>
      <trkpt lat="43.74229" lon="6.38693">
        <ele>854.4</ele>
        <time>2021-09-07T14:35:49.000Z</time>
      </trkpt>
      <trkpt lat="43.74229" lon="6.38693">
        <ele>854.4</ele>
        <time>2021-09-07T14:35:49.000Z</time>
      </trkpt>
      <trkpt lat="43.74229" lon="6.38698">
        <ele>854.5</ele>
        <time>2021-09-07T14:35:51.000Z</time>
      </trkpt>
      <trkpt lat="43.74229" lon="6.387">
        <ele>854.6</ele>
        <time>2021-09-07T14:35:52.000Z</time>
      </trkpt>
      <trkpt lat="43.74228" lon="6.38701">
        <ele>854.6</ele>
        <time>2021-09-07T14:35:53.000Z</time>
      </trkpt>
      <trkpt lat="43.74229" lon="6.38696">
        <ele>854.5</ele>
        <time>2021-09-07T14:35:53.000Z</time>
      </trkpt>
      <trkpt lat="43.74229" lon="6.38699">
        <ele>854.6</ele>
        <time>2021-09-07T14:35:54.000Z</time>
      </trkpt>
      <trkpt lat="43.74227" lon="6.38704">
        <ele>854.9</ele>
        <time>2021-09-07T14:35:55.000Z</time>
      </trkpt>
      <trkpt lat="43.74228" lon="6.38701">
        <ele>854.6</ele>
        <time>2021-09-07T14:35:55.000Z</time>
      </trkpt>
      <trkpt lat="43.74228" lon="6.38702">
        <ele>854.7</ele>
        <time>2021-09-07T14:35:56.000Z</time>
      </trkpt>
      <trkpt lat="43.74226" lon="6.38711">
        <ele>855.4</ele>
        <time>2021-09-07T14:35:58.000Z</time>
      </trkpt>
      <trkpt lat="43.74227" lon="6.38707">
        <ele>855.1</ele>
        <time>2021-09-07T14:35:59.000Z</time>
      </trkpt>
      <trkpt lat="43.74226" lon="6.38713">
        <ele>855.8</ele>
        <time>2021-09-07T14:35:59.000Z</time>
      </trkpt>
      <trkpt lat="43.74226" lon="6.38717">
        <ele>856</ele>
        <time>2021-09-07T14:36:01.000Z</time>
      </trkpt>
      <trkpt lat="43.74225" lon="6.38719">
        <ele>856.2</ele>
        <time>2021-09-07T14:36:02.000Z</time>
      </trkpt>
      <trkpt lat="43.74226" lon="6.38713">
        <ele>855.9</ele>
        <time>2021-09-07T14:36:02.000Z</time>
      </trkpt>
      <trkpt lat="43.74225" lon="6.38722">
        <ele>856.3</ele>
        <time>2021-09-07T14:36:03.000Z</time>
      </trkpt>
      <trkpt lat="43.74226" lon="6.38716">
        <ele>855.9</ele>
        <time>2021-09-07T14:36:03.000Z</time>
      </trkpt>
      <trkpt lat="43.74225" lon="6.38718">
        <ele>856.2</ele>
        <time>2021-09-07T14:36:04.000Z</time>
      </trkpt>
      <trkpt lat="43.74222" lon="6.38731">
        <ele>857</ele>
        <time>2021-09-07T14:36:07.000Z</time>
      </trkpt>
      <trkpt lat="43.74223" lon="6.3873">
        <ele>857.1</ele>
        <time>2021-09-07T14:36:09.000Z</time>
      </trkpt>
      <trkpt lat="43.74222" lon="6.38734">
        <ele>857.1</ele>
        <time>2021-09-07T14:36:10.000Z</time>
      </trkpt>
      <trkpt lat="43.74219" lon="6.38745">
        <ele>857.7</ele>
        <time>2021-09-07T14:36:12.000Z</time>
      </trkpt>
      <trkpt lat="43.74219" lon="6.38747">
        <ele>857.9</ele>
        <time>2021-09-07T14:36:13.000Z</time>
      </trkpt>
      <trkpt lat="43.74218" lon="6.3875">
        <ele>858</ele>
        <time>2021-09-07T14:36:14.000Z</time>
      </trkpt>
      <trkpt lat="43.74219" lon="6.38746">
        <ele>857.8</ele>
        <time>2021-09-07T14:36:15.000Z</time>
      </trkpt>
      <trkpt lat="43.74219" lon="6.38749">
        <ele>858</ele>
        <time>2021-09-07T14:36:16.000Z</time>
      </trkpt>
      <trkpt lat="43.74218" lon="6.38752">
        <ele>858.2</ele>
        <time>2021-09-07T14:36:17.000Z</time>
      </trkpt>
      <trkpt lat="43.74215" lon="6.38757">
        <ele>858.9</ele>
        <time>2021-09-07T14:36:17.000Z</time>
      </trkpt>
      <trkpt lat="43.74215" lon="6.3876">
        <ele>859.2</ele>
        <time>2021-09-07T14:36:18.000Z</time>
      </trkpt>
      <trkpt lat="43.74214" lon="6.38766">
        <ele>859.4</ele>
        <time>2021-09-07T14:36:20.000Z</time>
      </trkpt>
      <trkpt lat="43.74215" lon="6.38759">
        <ele>859.1</ele>
        <time>2021-09-07T14:36:20.000Z</time>
      </trkpt>
      <trkpt lat="43.74214" lon="6.38763">
        <ele>859</ele>
        <time>2021-09-07T14:36:21.000Z</time>
      </trkpt>
      <trkpt lat="43.74214" lon="6.38768">
        <ele>859.4</ele>
        <time>2021-09-07T14:36:23.000Z</time>
      </trkpt>
      <trkpt lat="43.74212" lon="6.38775">
        <ele>859.6</ele>
        <time>2021-09-07T14:36:23.000Z</time>
      </trkpt>
      <trkpt lat="43.74211" lon="6.38778">
        <ele>859.9</ele>
        <time>2021-09-07T14:36:24.000Z</time>
      </trkpt>
      <trkpt lat="43.74209" lon="6.38783">
        <ele>860.3</ele>
        <time>2021-09-07T14:36:26.000Z</time>
      </trkpt>
      <trkpt lat="43.74211" lon="6.38776">
        <ele>859.7</ele>
        <time>2021-09-07T14:36:26.000Z</time>
      </trkpt>
      <trkpt lat="43.74209" lon="6.38785">
        <ele>860.5</ele>
        <time>2021-09-07T14:36:27.000Z</time>
      </trkpt>
      <trkpt lat="43.7421" lon="6.3878">
        <ele>860.3</ele>
        <time>2021-09-07T14:36:27.000Z</time>
      </trkpt>
      <trkpt lat="43.74207" lon="6.3879">
        <ele>860.2</ele>
        <time>2021-09-07T14:36:29.000Z</time>
      </trkpt>
      <trkpt lat="43.74209" lon="6.38784">
        <ele>860.4</ele>
        <time>2021-09-07T14:36:29.000Z</time>
      </trkpt>
      <trkpt lat="43.74208" lon="6.38788">
        <ele>860.3</ele>
        <time>2021-09-07T14:36:30.000Z</time>
      </trkpt>
      <trkpt lat="43.74206" lon="6.38794">
        <ele>860.7</ele>
        <time>2021-09-07T14:36:31.000Z</time>
      </trkpt>
      <trkpt lat="43.74206" lon="6.38796">
        <ele>861</ele>
        <time>2021-09-07T14:36:32.000Z</time>
      </trkpt>
      <trkpt lat="43.74207" lon="6.38792">
        <ele>860.5</ele>
        <time>2021-09-07T14:36:32.000Z</time>
      </trkpt>
      <trkpt lat="43.74206" lon="6.38799">
        <ele>860.8</ele>
        <time>2021-09-07T14:36:33.000Z</time>
      </trkpt>
      <trkpt lat="43.74206" lon="6.38801">
        <ele>860.9</ele>
        <time>2021-09-07T14:36:34.000Z</time>
      </trkpt>
      <trkpt lat="43.74206" lon="6.38795">
        <ele>860.9</ele>
        <time>2021-09-07T14:36:34.000Z</time>
      </trkpt>
      <trkpt lat="43.74206" lon="6.38804">
        <ele>861</ele>
        <time>2021-09-07T14:36:35.000Z</time>
      </trkpt>
      <trkpt lat="43.74206" lon="6.38798">
        <ele>860.8</ele>
        <time>2021-09-07T14:36:35.000Z</time>
      </trkpt>
      <trkpt lat="43.74206" lon="6.388">
        <ele>860.9</ele>
        <time>2021-09-07T14:36:36.000Z</time>
      </trkpt>
      <trkpt lat="43.74206" lon="6.38812">
        <ele>861.5</ele>
        <time>2021-09-07T14:36:38.000Z</time>
      </trkpt>
      <trkpt lat="43.74206" lon="6.38815">
        <ele>861.8</ele>
        <time>2021-09-07T14:36:39.000Z</time>
      </trkpt>
      <trkpt lat="43.74205" lon="6.38817">
        <ele>861.9</ele>
        <time>2021-09-07T14:36:40.000Z</time>
      </trkpt>
      <trkpt lat="43.74206" lon="6.38814">
        <ele>861.7</ele>
        <time>2021-09-07T14:36:41.000Z</time>
      </trkpt>
      <trkpt lat="43.74205" lon="6.38822">
        <ele>862.1</ele>
        <time>2021-09-07T14:36:42.000Z</time>
      </trkpt>
      <trkpt lat="43.74206" lon="6.38816">
        <ele>861.9</ele>
        <time>2021-09-07T14:36:42.000Z</time>
      </trkpt>
      <trkpt lat="43.74205" lon="6.3882">
        <ele>861.9</ele>
        <time>2021-09-07T14:36:43.000Z</time>
      </trkpt>
      <trkpt lat="43.74204" lon="6.38827">
        <ele>862.4</ele>
        <time>2021-09-07T14:36:44.000Z</time>
      </trkpt>
      <trkpt lat="43.74205" lon="6.38823">
        <ele>862.2</ele>
        <time>2021-09-07T14:36:45.000Z</time>
      </trkpt>
      <trkpt lat="43.74205" lon="6.38831">
        <ele>862.4</ele>
        <time>2021-09-07T14:36:46.000Z</time>
      </trkpt>
      <trkpt lat="43.74205" lon="6.38834">
        <ele>862.7</ele>
        <time>2021-09-07T14:36:47.000Z</time>
      </trkpt>
      <trkpt lat="43.74205" lon="6.38829">
        <ele>862.4</ele>
        <time>2021-09-07T14:36:47.000Z</time>
      </trkpt>
      <trkpt lat="43.74205" lon="6.38839">
        <ele>863.3</ele>
        <time>2021-09-07T14:36:49.000Z</time>
      </trkpt>
      <trkpt lat="43.74205" lon="6.38832">
        <ele>862.5</ele>
        <time>2021-09-07T14:36:49.000Z</time>
      </trkpt>
      <trkpt lat="43.74205" lon="6.38836">
        <ele>862.9</ele>
        <time>2021-09-07T14:36:50.000Z</time>
      </trkpt>
      <trkpt lat="43.74205" lon="6.38841">
        <ele>863.7</ele>
        <time>2021-09-07T14:36:50.000Z</time>
      </trkpt>
      <trkpt lat="43.74206" lon="6.38849">
        <ele>863.5</ele>
        <time>2021-09-07T14:36:53.000Z</time>
      </trkpt>
      <trkpt lat="43.74206" lon="6.38852">
        <ele>863.8</ele>
        <time>2021-09-07T14:36:54.000Z</time>
      </trkpt>
      <trkpt lat="43.74205" lon="6.38848">
        <ele>863.4</ele>
        <time>2021-09-07T14:36:55.000Z</time>
      </trkpt>
      <trkpt lat="43.74206" lon="6.3885">
        <ele>863.5</ele>
        <time>2021-09-07T14:36:56.000Z</time>
      </trkpt>
      <trkpt lat="43.74206" lon="6.38853">
        <ele>864.1</ele>
        <time>2021-09-07T14:36:57.000Z</time>
      </trkpt>
      <trkpt lat="43.74206" lon="6.38859">
        <ele>864.6</ele>
        <time>2021-09-07T14:36:57.000Z</time>
      </trkpt>
      <trkpt lat="43.74207" lon="6.38864">
        <ele>865</ele>
        <time>2021-09-07T14:36:59.000Z</time>
      </trkpt>
      <trkpt lat="43.74206" lon="6.38861">
        <ele>864.9</ele>
        <time>2021-09-07T14:37:00.000Z</time>
      </trkpt>
      <trkpt lat="43.74207" lon="6.38865">
        <ele>865</ele>
        <time>2021-09-07T14:37:02.000Z</time>
      </trkpt>
      <trkpt lat="43.74207" lon="6.38872">
        <ele>864.6</ele>
        <time>2021-09-07T14:37:02.000Z</time>
      </trkpt>
      <trkpt lat="43.74207" lon="6.38875">
        <ele>864.9</ele>
        <time>2021-09-07T14:37:03.000Z</time>
      </trkpt>
      <trkpt lat="43.74207" lon="6.38881">
        <ele>865.1</ele>
        <time>2021-09-07T14:37:08.000Z</time>
      </trkpt>
      <trkpt lat="43.74207" lon="6.3889">
        <ele>865.7</ele>
        <time>2021-09-07T14:37:09.000Z</time>
      </trkpt>
      <trkpt lat="43.74206" lon="6.38893">
        <ele>865.6</ele>
        <time>2021-09-07T14:37:10.000Z</time>
      </trkpt>
      <trkpt lat="43.74206" lon="6.38895">
        <ele>865.9</ele>
        <time>2021-09-07T14:37:11.000Z</time>
      </trkpt>
      <trkpt lat="43.74206" lon="6.38892">
        <ele>865.6</ele>
        <time>2021-09-07T14:37:12.000Z</time>
      </trkpt>
      <trkpt lat="43.74206" lon="6.389">
        <ele>866.1</ele>
        <time>2021-09-07T14:37:13.000Z</time>
      </trkpt>
      <trkpt lat="43.74206" lon="6.38904">
        <ele>866.3</ele>
        <time>2021-09-07T14:37:14.000Z</time>
      </trkpt>
      <trkpt lat="43.74206" lon="6.38907">
        <ele>866.6</ele>
        <time>2021-09-07T14:37:15.000Z</time>
      </trkpt>
      <trkpt lat="43.74206" lon="6.3891">
        <ele>866.8</ele>
        <time>2021-09-07T14:37:16.000Z</time>
      </trkpt>
      <trkpt lat="43.74206" lon="6.38902">
        <ele>866.2</ele>
        <time>2021-09-07T14:37:16.000Z</time>
      </trkpt>
      <trkpt lat="43.74206" lon="6.38906">
        <ele>866.6</ele>
        <time>2021-09-07T14:37:17.000Z</time>
      </trkpt>
      <trkpt lat="43.74206" lon="6.38915">
        <ele>867.3</ele>
        <time>2021-09-07T14:37:18.000Z</time>
      </trkpt>
      <trkpt lat="43.74206" lon="6.38908">
        <ele>866.7</ele>
        <time>2021-09-07T14:37:18.000Z</time>
      </trkpt>
      <trkpt lat="43.74206" lon="6.38912">
        <ele>866.9</ele>
        <time>2021-09-07T14:37:19.000Z</time>
      </trkpt>
      <trkpt lat="43.74206" lon="6.3892">
        <ele>867.2</ele>
        <time>2021-09-07T14:37:20.000Z</time>
      </trkpt>
      <trkpt lat="43.74206" lon="6.38922">
        <ele>867.2</ele>
        <time>2021-09-07T14:37:21.000Z</time>
      </trkpt>
      <trkpt lat="43.74206" lon="6.38916">
        <ele>867.4</ele>
        <time>2021-09-07T14:37:21.000Z</time>
      </trkpt>
      <trkpt lat="43.74206" lon="6.38921">
        <ele>867.2</ele>
        <time>2021-09-07T14:37:23.000Z</time>
      </trkpt>
      <trkpt lat="43.74207" lon="6.38923">
        <ele>867.1</ele>
        <time>2021-09-07T14:37:24.000Z</time>
      </trkpt>
      <trkpt lat="43.7421" lon="6.38932">
        <ele>867.7</ele>
        <time>2021-09-07T14:37:25.000Z</time>
      </trkpt>
      <trkpt lat="43.74211" lon="6.38935">
        <ele>867.7</ele>
        <time>2021-09-07T14:37:26.000Z</time>
      </trkpt>
      <trkpt lat="43.74211" lon="6.38938">
        <ele>867.8</ele>
        <time>2021-09-07T14:37:27.000Z</time>
      </trkpt>
      <trkpt lat="43.7421" lon="6.38933">
        <ele>867.7</ele>
        <time>2021-09-07T14:37:28.000Z</time>
      </trkpt>
      <trkpt lat="43.74212" lon="6.38941">
        <ele>868</ele>
        <time>2021-09-07T14:37:28.000Z</time>
      </trkpt>
      <trkpt lat="43.74213" lon="6.38944">
        <ele>868.1</ele>
        <time>2021-09-07T14:37:29.000Z</time>
      </trkpt>
      <trkpt lat="43.74213" lon="6.38947">
        <ele>868</ele>
        <time>2021-09-07T14:37:30.000Z</time>
      </trkpt>
      <trkpt lat="43.74212" lon="6.38943">
        <ele>868</ele>
        <time>2021-09-07T14:37:31.000Z</time>
      </trkpt>
      <trkpt lat="43.74214" lon="6.38952">
        <ele>867.9</ele>
        <time>2021-09-07T14:37:32.000Z</time>
      </trkpt>
      <trkpt lat="43.74213" lon="6.38946">
        <ele>868</ele>
        <time>2021-09-07T14:37:32.000Z</time>
      </trkpt>
      <trkpt lat="43.74214" lon="6.38949">
        <ele>867.9</ele>
        <time>2021-09-07T14:37:33.000Z</time>
      </trkpt>
      <trkpt lat="43.74215" lon="6.38955">
        <ele>868</ele>
        <time>2021-09-07T14:37:35.000Z</time>
      </trkpt>
      <trkpt lat="43.74215" lon="6.38961">
        <ele>868.9</ele>
        <time>2021-09-07T14:37:35.000Z</time>
      </trkpt>
      <trkpt lat="43.74216" lon="6.38964">
        <ele>869</ele>
        <time>2021-09-07T14:37:36.000Z</time>
      </trkpt>
      <trkpt lat="43.74217" lon="6.38969">
        <ele>869</ele>
        <time>2021-09-07T14:37:38.000Z</time>
      </trkpt>
      <trkpt lat="43.74215" lon="6.38963">
        <ele>869</ele>
        <time>2021-09-07T14:37:38.000Z</time>
      </trkpt>
      <trkpt lat="43.74216" lon="6.38966">
        <ele>868.9</ele>
        <time>2021-09-07T14:37:39.000Z</time>
      </trkpt>
      <trkpt lat="43.74219" lon="6.38974">
        <ele>869.2</ele>
        <time>2021-09-07T14:37:40.000Z</time>
      </trkpt>
      <trkpt lat="43.7422" lon="6.38977">
        <ele>869.4</ele>
        <time>2021-09-07T14:37:41.000Z</time>
      </trkpt>
      <trkpt lat="43.74218" lon="6.38971">
        <ele>869</ele>
        <time>2021-09-07T14:37:41.000Z</time>
      </trkpt>
      <trkpt lat="43.74221" lon="6.3898">
        <ele>869.5</ele>
        <time>2021-09-07T14:37:42.000Z</time>
      </trkpt>
      <trkpt lat="43.74222" lon="6.38982">
        <ele>869.7</ele>
        <time>2021-09-07T14:37:43.000Z</time>
      </trkpt>
      <trkpt lat="43.74219" lon="6.38975">
        <ele>869.2</ele>
        <time>2021-09-07T14:37:43.000Z</time>
      </trkpt>
      <trkpt lat="43.74221" lon="6.38979">
        <ele>869.4</ele>
        <time>2021-09-07T14:37:44.000Z</time>
      </trkpt>
      <trkpt lat="43.74223" lon="6.38988">
        <ele>870.4</ele>
        <time>2021-09-07T14:37:45.000Z</time>
      </trkpt>
      <trkpt lat="43.74222" lon="6.38981">
        <ele>869.5</ele>
        <time>2021-09-07T14:37:45.000Z</time>
      </trkpt>
      <trkpt lat="43.74224" lon="6.3899">
        <ele>870.7</ele>
        <time>2021-09-07T14:37:46.000Z</time>
      </trkpt>
      <trkpt lat="43.74223" lon="6.38984">
        <ele>870.2</ele>
        <time>2021-09-07T14:37:46.000Z</time>
      </trkpt>
      <trkpt lat="43.74225" lon="6.38993">
        <ele>870.8</ele>
        <time>2021-09-07T14:37:47.000Z</time>
      </trkpt>
      <trkpt lat="43.74224" lon="6.3899">
        <ele>870.6</ele>
        <time>2021-09-07T14:37:48.000Z</time>
      </trkpt>
      <trkpt lat="43.74226" lon="6.38996">
        <ele>870.9</ele>
        <time>2021-09-07T14:37:48.000Z</time>
      </trkpt>
      <trkpt lat="43.74227" lon="6.38999">
        <ele>871.1</ele>
        <time>2021-09-07T14:37:49.000Z</time>
      </trkpt>
      <trkpt lat="43.74227" lon="6.38998">
        <ele>870.9</ele>
        <time>2021-09-07T14:37:51.000Z</time>
      </trkpt>
      <trkpt lat="43.74228" lon="6.39">
        <ele>871.3</ele>
        <time>2021-09-07T14:37:52.000Z</time>
      </trkpt>
      <trkpt lat="43.74229" lon="6.39006">
        <ele>871.5</ele>
        <time>2021-09-07T14:37:52.000Z</time>
      </trkpt>
      <trkpt lat="43.7423" lon="6.39011">
        <ele>871.8</ele>
        <time>2021-09-07T14:37:54.000Z</time>
      </trkpt>
      <trkpt lat="43.7423" lon="6.39008">
        <ele>871.3</ele>
        <time>2021-09-07T14:37:55.000Z</time>
      </trkpt>
      <trkpt lat="43.74231" lon="6.39013">
        <ele>871.9</ele>
        <time>2021-09-07T14:37:57.000Z</time>
      </trkpt>
      <trkpt lat="43.74233" lon="6.39017">
        <ele>872.1</ele>
        <time>2021-09-07T14:37:57.000Z</time>
      </trkpt>
      <trkpt lat="43.74234" lon="6.39018">
        <ele>872.3</ele>
        <time>2021-09-07T14:37:58.000Z</time>
      </trkpt>
      <trkpt lat="43.74233" lon="6.39018">
        <ele>872.2</ele>
        <time>2021-09-07T14:38:00.000Z</time>
      </trkpt>
      <trkpt lat="43.74234" lon="6.3902">
        <ele>872.2</ele>
        <time>2021-09-07T14:38:01.000Z</time>
      </trkpt>
      <trkpt lat="43.74235" lon="6.39024">
        <ele>872.5</ele>
        <time>2021-09-07T14:38:01.000Z</time>
      </trkpt>
      <trkpt lat="43.74236" lon="6.39026">
        <ele>872.6</ele>
        <time>2021-09-07T14:38:02.000Z</time>
      </trkpt>
      <trkpt lat="43.74239" lon="6.39036">
        <ele>873.2</ele>
        <time>2021-09-07T14:38:06.000Z</time>
      </trkpt>
      <trkpt lat="43.74238" lon="6.39032">
        <ele>872.8</ele>
        <time>2021-09-07T14:38:07.000Z</time>
      </trkpt>
      <trkpt lat="43.7424" lon="6.39038">
        <ele>873.4</ele>
        <time>2021-09-07T14:38:07.000Z</time>
      </trkpt>
      <trkpt lat="43.74241" lon="6.3904">
        <ele>873.4</ele>
        <time>2021-09-07T14:38:08.000Z</time>
      </trkpt>
      <trkpt lat="43.74241" lon="6.39042">
        <ele>873.5</ele>
        <time>2021-09-07T14:38:11.000Z</time>
      </trkpt>
      <trkpt lat="43.74242" lon="6.39047">
        <ele>873.9</ele>
        <time>2021-09-07T14:38:11.000Z</time>
      </trkpt>
      <trkpt lat="43.74244" lon="6.39052">
        <ele>874.4</ele>
        <time>2021-09-07T14:38:13.000Z</time>
      </trkpt>
      <trkpt lat="43.74243" lon="6.39049">
        <ele>874.2</ele>
        <time>2021-09-07T14:38:14.000Z</time>
      </trkpt>
      <trkpt lat="43.74245" lon="6.39054">
        <ele>874.6</ele>
        <time>2021-09-07T14:38:16.000Z</time>
      </trkpt>
      <trkpt lat="43.74248" lon="6.39061">
        <ele>874.6</ele>
        <time>2021-09-07T14:38:17.000Z</time>
      </trkpt>
      <trkpt lat="43.74249" lon="6.39063">
        <ele>875</ele>
        <time>2021-09-07T14:38:18.000Z</time>
      </trkpt>
      <trkpt lat="43.7425" lon="6.39065">
        <ele>875.3</ele>
        <time>2021-09-07T14:38:19.000Z</time>
      </trkpt>
      <trkpt lat="43.74249" lon="6.39062">
        <ele>874.8</ele>
        <time>2021-09-07T14:38:20.000Z</time>
      </trkpt>
      <trkpt lat="43.74252" lon="6.3907">
        <ele>875.2</ele>
        <time>2021-09-07T14:38:21.000Z</time>
      </trkpt>
      <trkpt lat="43.7425" lon="6.39064">
        <ele>875.1</ele>
        <time>2021-09-07T14:38:21.000Z</time>
      </trkpt>
      <trkpt lat="43.74251" lon="6.39067">
        <ele>875.3</ele>
        <time>2021-09-07T14:38:22.000Z</time>
      </trkpt>
      <trkpt lat="43.74253" lon="6.3907">
        <ele>875.2</ele>
        <time>2021-09-07T14:38:24.000Z</time>
      </trkpt>
      <trkpt lat="43.74255" lon="6.39077">
        <ele>875.8</ele>
        <time>2021-09-07T14:38:24.000Z</time>
      </trkpt>
      <trkpt lat="43.74256" lon="6.39079">
        <ele>875.9</ele>
        <time>2021-09-07T14:38:25.000Z</time>
      </trkpt>
      <trkpt lat="43.74258" lon="6.39084">
        <ele>876</ele>
        <time>2021-09-07T14:38:27.000Z</time>
      </trkpt>
      <trkpt lat="43.74259" lon="6.39086">
        <ele>876.1</ele>
        <time>2021-09-07T14:38:28.000Z</time>
      </trkpt>
      <trkpt lat="43.74261" lon="6.3909">
        <ele>876.3</ele>
        <time>2021-09-07T14:38:30.000Z</time>
      </trkpt>
      <trkpt lat="43.74263" lon="6.39094">
        <ele>876.6</ele>
        <time>2021-09-07T14:38:32.000Z</time>
      </trkpt>
      <trkpt lat="43.74264" lon="6.39095">
        <ele>876.3</ele>
        <time>2021-09-07T14:38:33.000Z</time>
      </trkpt>
      <trkpt lat="43.74262" lon="6.39091">
        <ele>876.5</ele>
        <time>2021-09-07T14:38:33.000Z</time>
      </trkpt>
      <trkpt lat="43.74264" lon="6.39095">
        <ele>876.4</ele>
        <time>2021-09-07T14:38:35.000Z</time>
      </trkpt>
      <trkpt lat="43.74265" lon="6.39097">
        <ele>876.6</ele>
        <time>2021-09-07T14:38:36.000Z</time>
      </trkpt>
      <trkpt lat="43.74268" lon="6.39102">
        <ele>877.1</ele>
        <time>2021-09-07T14:38:37.000Z</time>
      </trkpt>
      <trkpt lat="43.74269" lon="6.39104">
        <ele>877.1</ele>
        <time>2021-09-07T14:38:40.000Z</time>
      </trkpt>
      <trkpt lat="43.74272" lon="6.39107">
        <ele>877.5</ele>
        <time>2021-09-07T14:38:40.000Z</time>
      </trkpt>
      <trkpt lat="43.74274" lon="6.39111">
        <ele>877.7</ele>
        <time>2021-09-07T14:38:42.000Z</time>
      </trkpt>
      <trkpt lat="43.74273" lon="6.39108">
        <ele>877.5</ele>
        <time>2021-09-07T14:38:43.000Z</time>
      </trkpt>
      <trkpt lat="43.74276" lon="6.39114">
        <ele>878.1</ele>
        <time>2021-09-07T14:38:44.000Z</time>
      </trkpt>
      <trkpt lat="43.74277" lon="6.39116">
        <ele>878</ele>
        <time>2021-09-07T14:38:45.000Z</time>
      </trkpt>
      <trkpt lat="43.74275" lon="6.39113">
        <ele>878</ele>
        <time>2021-09-07T14:38:46.000Z</time>
      </trkpt>
      <trkpt lat="43.74279" lon="6.39119">
        <ele>878.3</ele>
        <time>2021-09-07T14:38:47.000Z</time>
      </trkpt>
      <trkpt lat="43.74276" lon="6.39115">
        <ele>878</ele>
        <time>2021-09-07T14:38:47.000Z</time>
      </trkpt>
      <trkpt lat="43.74281" lon="6.39119">
        <ele>878.6</ele>
        <time>2021-09-07T14:38:48.000Z</time>
      </trkpt>
      <trkpt lat="43.74277" lon="6.39117">
        <ele>878</ele>
        <time>2021-09-07T14:38:48.000Z</time>
      </trkpt>
      <trkpt lat="43.74283" lon="6.39123">
        <ele>878.9</ele>
        <time>2021-09-07T14:38:50.000Z</time>
      </trkpt>
      <trkpt lat="43.7428" lon="6.39119">
        <ele>878.5</ele>
        <time>2021-09-07T14:38:50.000Z</time>
      </trkpt>
      <trkpt lat="43.74282" lon="6.39121">
        <ele>878.5</ele>
        <time>2021-09-07T14:38:51.000Z</time>
      </trkpt>
      <trkpt lat="43.74284" lon="6.39125">
        <ele>879</ele>
        <time>2021-09-07T14:38:51.000Z</time>
      </trkpt>
      <trkpt lat="43.74288" lon="6.39128">
        <ele>879.1</ele>
        <time>2021-09-07T14:38:54.000Z</time>
      </trkpt>
      <trkpt lat="43.74289" lon="6.39129">
        <ele>879.6</ele>
        <time>2021-09-07T14:38:55.000Z</time>
      </trkpt>
      <trkpt lat="43.7429" lon="6.3913">
        <ele>880</ele>
        <time>2021-09-07T14:38:56.000Z</time>
      </trkpt>
      <trkpt lat="43.74287" lon="6.39127">
        <ele>879.1</ele>
        <time>2021-09-07T14:38:56.000Z</time>
      </trkpt>
      <trkpt lat="43.74288" lon="6.39128">
        <ele>879.4</ele>
        <time>2021-09-07T14:38:57.000Z</time>
      </trkpt>
      <trkpt lat="43.74292" lon="6.39133">
        <ele>880.4</ele>
        <time>2021-09-07T14:38:58.000Z</time>
      </trkpt>
      <trkpt lat="43.7429" lon="6.39129">
        <ele>879.8</ele>
        <time>2021-09-07T14:38:58.000Z</time>
      </trkpt>
      <trkpt lat="43.74291" lon="6.3913">
        <ele>880.1</ele>
        <time>2021-09-07T14:38:59.000Z</time>
      </trkpt>
      <trkpt lat="43.74293" lon="6.39134">
        <ele>880.4</ele>
        <time>2021-09-07T14:38:59.000Z</time>
      </trkpt>
      <trkpt lat="43.74299" lon="6.39139">
        <ele>880.7</ele>
        <time>2021-09-07T14:39:04.000Z</time>
      </trkpt>
      <trkpt lat="43.74308" lon="6.39146">
        <ele>881.5</ele>
        <time>2021-09-07T14:39:09.000Z</time>
      </trkpt>
      <trkpt lat="43.74317" lon="6.39151">
        <ele>882.5</ele>
        <time>2021-09-07T14:39:14.000Z</time>
      </trkpt>
      <trkpt lat="43.74326" lon="6.39158">
        <ele>882.9</ele>
        <time>2021-09-07T14:39:19.000Z</time>
      </trkpt>
      <trkpt lat="43.74333" lon="6.39161">
        <ele>883.9</ele>
        <time>2021-09-07T14:39:24.000Z</time>
      </trkpt>
      <trkpt lat="43.74339" lon="6.39165">
        <ele>884.5</ele>
        <time>2021-09-07T14:39:29.000Z</time>
      </trkpt>
      <trkpt lat="43.74344" lon="6.3917">
        <ele>885.1</ele>
        <time>2021-09-07T14:39:34.000Z</time>
      </trkpt>
      <trkpt lat="43.74351" lon="6.39176">
        <ele>885.8</ele>
        <time>2021-09-07T14:39:39.000Z</time>
      </trkpt>
      <trkpt lat="43.7436" lon="6.39185">
        <ele>886.8</ele>
        <time>2021-09-07T14:39:44.000Z</time>
      </trkpt>
      <trkpt lat="43.7437" lon="6.3919">
        <ele>887.4</ele>
        <time>2021-09-07T14:39:49.000Z</time>
      </trkpt>
      <trkpt lat="43.74379" lon="6.3919">
        <ele>888.4</ele>
        <time>2021-09-07T14:39:54.000Z</time>
      </trkpt>
      <trkpt lat="43.74386" lon="6.39187">
        <ele>889.1</ele>
        <time>2021-09-07T14:39:59.000Z</time>
      </trkpt>
      <trkpt lat="43.74394" lon="6.39177">
        <ele>889.4</ele>
        <time>2021-09-07T14:40:04.000Z</time>
      </trkpt>
      <trkpt lat="43.74402" lon="6.39166">
        <ele>890.2</ele>
        <time>2021-09-07T14:40:09.000Z</time>
      </trkpt>
      <trkpt lat="43.74408" lon="6.39155">
        <ele>891</ele>
        <time>2021-09-07T14:40:14.000Z</time>
      </trkpt>
      <trkpt lat="43.74418" lon="6.39147">
        <ele>891.6</ele>
        <time>2021-09-07T14:40:19.000Z</time>
      </trkpt>
      <trkpt lat="43.74422" lon="6.39139">
        <ele>892.1</ele>
        <time>2021-09-07T14:40:24.000Z</time>
      </trkpt>
      <trkpt lat="43.74428" lon="6.39133">
        <ele>892.7</ele>
        <time>2021-09-07T14:40:29.000Z</time>
      </trkpt>
      <trkpt lat="43.7443" lon="6.39131">
        <ele>892.8</ele>
        <time>2021-09-07T14:40:30.000Z</time>
      </trkpt>
      <trkpt lat="43.74428" lon="6.39134">
        <ele>892.5</ele>
        <time>2021-09-07T14:40:31.000Z</time>
      </trkpt>
      <trkpt lat="43.74436" lon="6.39121">
        <ele>893.6</ele>
        <time>2021-09-07T14:40:34.000Z</time>
      </trkpt>
      <trkpt lat="43.74437" lon="6.39119">
        <ele>893.6</ele>
        <time>2021-09-07T14:40:35.000Z</time>
      </trkpt>
      <trkpt lat="43.74435" lon="6.39122">
        <ele>893.4</ele>
        <time>2021-09-07T14:40:36.000Z</time>
      </trkpt>
      <trkpt lat="43.74441" lon="6.39116">
        <ele>893.9</ele>
        <time>2021-09-07T14:40:37.000Z</time>
      </trkpt>
      <trkpt lat="43.74443" lon="6.39114">
        <ele>894</ele>
        <time>2021-09-07T14:40:38.000Z</time>
      </trkpt>
      <trkpt lat="43.74444" lon="6.39112">
        <ele>894.2</ele>
        <time>2021-09-07T14:40:39.000Z</time>
      </trkpt>
      <trkpt lat="43.74446" lon="6.3911">
        <ele>894.4</ele>
        <time>2021-09-07T14:40:40.000Z</time>
      </trkpt>
      <trkpt lat="43.74442" lon="6.39115">
        <ele>894</ele>
        <time>2021-09-07T14:40:40.000Z</time>
      </trkpt>
      <trkpt lat="43.74444" lon="6.39113">
        <ele>894.1</ele>
        <time>2021-09-07T14:40:41.000Z</time>
      </trkpt>
      <trkpt lat="43.7445" lon="6.39109">
        <ele>894.8</ele>
        <time>2021-09-07T14:40:42.000Z</time>
      </trkpt>
      <trkpt lat="43.74446" lon="6.39111">
        <ele>894.3</ele>
        <time>2021-09-07T14:40:42.000Z</time>
      </trkpt>
      <trkpt lat="43.74448" lon="6.3911">
        <ele>894.5</ele>
        <time>2021-09-07T14:40:43.000Z</time>
      </trkpt>
      <trkpt lat="43.74453" lon="6.39107">
        <ele>895.1</ele>
        <time>2021-09-07T14:40:44.000Z</time>
      </trkpt>
      <trkpt lat="43.74451" lon="6.39108">
        <ele>895</ele>
        <time>2021-09-07T14:40:45.000Z</time>
      </trkpt>
      <trkpt lat="43.74456" lon="6.39105">
        <ele>895.5</ele>
        <time>2021-09-07T14:40:46.000Z</time>
      </trkpt>
      <trkpt lat="43.74455" lon="6.39106">
        <ele>895.3</ele>
        <time>2021-09-07T14:40:47.000Z</time>
      </trkpt>
      <trkpt lat="43.74457" lon="6.39104">
        <ele>895.6</ele>
        <time>2021-09-07T14:40:49.000Z</time>
      </trkpt>
      <trkpt lat="43.7446" lon="6.39102">
        <ele>896.3</ele>
        <time>2021-09-07T14:40:49.000Z</time>
      </trkpt>
      <trkpt lat="43.74462" lon="6.39101">
        <ele>896.3</ele>
        <time>2021-09-07T14:40:50.000Z</time>
      </trkpt>
      <trkpt lat="43.74465" lon="6.391">
        <ele>896.5</ele>
        <time>2021-09-07T14:40:52.000Z</time>
      </trkpt>
      <trkpt lat="43.74461" lon="6.39102">
        <ele>896.3</ele>
        <time>2021-09-07T14:40:52.000Z</time>
      </trkpt>
      <trkpt lat="43.74463" lon="6.39101">
        <ele>896.3</ele>
        <time>2021-09-07T14:40:53.000Z</time>
      </trkpt>
      <trkpt lat="43.74468" lon="6.39099">
        <ele>896.4</ele>
        <time>2021-09-07T14:40:54.000Z</time>
      </trkpt>
      <trkpt lat="43.74466" lon="6.391">
        <ele>896.3</ele>
        <time>2021-09-07T14:40:55.000Z</time>
      </trkpt>
      <trkpt lat="43.74469" lon="6.39098">
        <ele>896.8</ele>
        <time>2021-09-07T14:40:55.000Z</time>
      </trkpt>
      <trkpt lat="43.74469" lon="6.39098">
        <ele>896.8</ele>
        <time>2021-09-07T14:40:55.000Z</time>
      </trkpt>
      <trkpt lat="43.74474" lon="6.39093">
        <ele>897.3</ele>
        <time>2021-09-07T14:40:59.000Z</time>
      </trkpt>
      <trkpt lat="43.74472" lon="6.39095">
        <ele>897.1</ele>
        <time>2021-09-07T14:41:00.000Z</time>
      </trkpt>
      <trkpt lat="43.74475" lon="6.39092">
        <ele>897.4</ele>
        <time>2021-09-07T14:41:00.000Z</time>
      </trkpt>
      <trkpt lat="43.74483" lon="6.39088">
        <ele>898.3</ele>
        <time>2021-09-07T14:41:05.000Z</time>
      </trkpt>
      <trkpt lat="43.74493" lon="6.39086">
        <ele>898.7</ele>
        <time>2021-09-07T14:41:10.000Z</time>
      </trkpt>
      <trkpt lat="43.74505" lon="6.39081">
        <ele>899.5</ele>
        <time>2021-09-07T14:41:15.000Z</time>
      </trkpt>
      <trkpt lat="43.74517" lon="6.3908">
        <ele>900.5</ele>
        <time>2021-09-07T14:41:20.000Z</time>
      </trkpt>
      <trkpt lat="43.74529" lon="6.39083">
        <ele>900.9</ele>
        <time>2021-09-07T14:41:25.000Z</time>
      </trkpt>
      <trkpt lat="43.74538" lon="6.39089">
        <ele>901.3</ele>
        <time>2021-09-07T14:41:30.000Z</time>
      </trkpt>
      <trkpt lat="43.74547" lon="6.39095">
        <ele>901.9</ele>
        <time>2021-09-07T14:41:35.000Z</time>
      </trkpt>
      <trkpt lat="43.74554" lon="6.39106">
        <ele>903</ele>
        <time>2021-09-07T14:41:40.000Z</time>
      </trkpt>
      <trkpt lat="43.7456" lon="6.39119">
        <ele>903.4</ele>
        <time>2021-09-07T14:41:45.000Z</time>
      </trkpt>
      <trkpt lat="43.74564" lon="6.39133">
        <ele>904</ele>
        <time>2021-09-07T14:41:50.000Z</time>
      </trkpt>
      <trkpt lat="43.74567" lon="6.39147">
        <ele>904.9</ele>
        <time>2021-09-07T14:41:55.000Z</time>
      </trkpt>
      <trkpt lat="43.74571" lon="6.39158">
        <ele>905.4</ele>
        <time>2021-09-07T14:42:00.000Z</time>
      </trkpt>
      <trkpt lat="43.74576" lon="6.39171">
        <ele>906</ele>
        <time>2021-09-07T14:42:05.000Z</time>
      </trkpt>
      <trkpt lat="43.74579" lon="6.39186">
        <ele>907.2</ele>
        <time>2021-09-07T14:42:10.000Z</time>
      </trkpt>
      <trkpt lat="43.74583" lon="6.39198">
        <ele>907.8</ele>
        <time>2021-09-07T14:42:15.000Z</time>
      </trkpt>
      <trkpt lat="43.74588" lon="6.39208">
        <ele>908.6</ele>
        <time>2021-09-07T14:42:20.000Z</time>
      </trkpt>
      <trkpt lat="43.74593" lon="6.39219">
        <ele>909.1</ele>
        <time>2021-09-07T14:42:25.000Z</time>
      </trkpt>
      <trkpt lat="43.74598" lon="6.39232">
        <ele>909.8</ele>
        <time>2021-09-07T14:42:30.000Z</time>
      </trkpt>
      <trkpt lat="43.746" lon="6.39235">
        <ele>909.7</ele>
        <time>2021-09-07T14:42:32.000Z</time>
      </trkpt>
      <trkpt lat="43.74602" lon="6.3924">
        <ele>910</ele>
        <time>2021-09-07T14:42:34.000Z</time>
      </trkpt>
      <trkpt lat="43.746" lon="6.39236">
        <ele>909.8</ele>
        <time>2021-09-07T14:42:35.000Z</time>
      </trkpt>
      <trkpt lat="43.74604" lon="6.39241">
        <ele>910.2</ele>
        <time>2021-09-07T14:42:37.000Z</time>
      </trkpt>
      <trkpt lat="43.74607" lon="6.39244">
        <ele>910.5</ele>
        <time>2021-09-07T14:42:38.000Z</time>
      </trkpt>
      <trkpt lat="43.74608" lon="6.39246">
        <ele>910.8</ele>
        <time>2021-09-07T14:42:39.000Z</time>
      </trkpt>
      <trkpt lat="43.7461" lon="6.39247">
        <ele>910.9</ele>
        <time>2021-09-07T14:42:40.000Z</time>
      </trkpt>
      <trkpt lat="43.74611" lon="6.39248">
        <ele>911.1</ele>
        <time>2021-09-07T14:42:41.000Z</time>
      </trkpt>
      <trkpt lat="43.74608" lon="6.39245">
        <ele>910.7</ele>
        <time>2021-09-07T14:42:41.000Z</time>
      </trkpt>
      <trkpt lat="43.74609" lon="6.39247">
        <ele>910.9</ele>
        <time>2021-09-07T14:42:42.000Z</time>
      </trkpt>
      <trkpt lat="43.74611" lon="6.39248">
        <ele>911</ele>
        <time>2021-09-07T14:42:43.000Z</time>
      </trkpt>
      <trkpt lat="43.74613" lon="6.39249">
        <ele>911.1</ele>
        <time>2021-09-07T14:42:44.000Z</time>
      </trkpt>
      <trkpt lat="43.74619" lon="6.39251">
        <ele>911.6</ele>
        <time>2021-09-07T14:42:45.000Z</time>
      </trkpt>
      <trkpt lat="43.74621" lon="6.39253">
        <ele>911.7</ele>
        <time>2021-09-07T14:42:46.000Z</time>
      </trkpt>
      <trkpt lat="43.74624" lon="6.39253">
        <ele>912.1</ele>
        <time>2021-09-07T14:42:48.000Z</time>
      </trkpt>
      <trkpt lat="43.7462" lon="6.39252">
        <ele>911.7</ele>
        <time>2021-09-07T14:42:48.000Z</time>
      </trkpt>
      <trkpt lat="43.74622" lon="6.39254">
        <ele>911.8</ele>
        <time>2021-09-07T14:42:49.000Z</time>
      </trkpt>
      <trkpt lat="43.74627" lon="6.39253">
        <ele>912.3</ele>
        <time>2021-09-07T14:42:50.000Z</time>
      </trkpt>
      <trkpt lat="43.74629" lon="6.39252">
        <ele>912.7</ele>
        <time>2021-09-07T14:42:52.000Z</time>
      </trkpt>
      <trkpt lat="43.74626" lon="6.39252">
        <ele>912.3</ele>
        <time>2021-09-07T14:42:52.000Z</time>
      </trkpt>
      <trkpt lat="43.74627" lon="6.39253">
        <ele>912.3</ele>
        <time>2021-09-07T14:42:53.000Z</time>
      </trkpt>
      <trkpt lat="43.74629" lon="6.39252">
        <ele>912.8</ele>
        <time>2021-09-07T14:42:55.000Z</time>
      </trkpt>
      <trkpt lat="43.74634" lon="6.39253">
        <ele>913.1</ele>
        <time>2021-09-07T14:42:56.000Z</time>
      </trkpt>
      <trkpt lat="43.74635" lon="6.39253">
        <ele>913.1</ele>
        <time>2021-09-07T14:42:59.000Z</time>
      </trkpt>
      <trkpt lat="43.74639" lon="6.39253">
        <ele>913</ele>
        <time>2021-09-07T14:42:59.000Z</time>
      </trkpt>
      <trkpt lat="43.74642" lon="6.39253">
        <ele>913.2</ele>
        <time>2021-09-07T14:43:00.000Z</time>
      </trkpt>
      <trkpt lat="43.74644" lon="6.39253">
        <ele>913.4</ele>
        <time>2021-09-07T14:43:01.000Z</time>
      </trkpt>
      <trkpt lat="43.74641" lon="6.39253">
        <ele>913.2</ele>
        <time>2021-09-07T14:43:02.000Z</time>
      </trkpt>
      <trkpt lat="43.7465" lon="6.39253">
        <ele>913.7</ele>
        <time>2021-09-07T14:43:04.000Z</time>
      </trkpt>
      <trkpt lat="43.74651" lon="6.39253">
        <ele>913.8</ele>
        <time>2021-09-07T14:43:07.000Z</time>
      </trkpt>
      <trkpt lat="43.74657" lon="6.39256">
        <ele>914.3</ele>
        <time>2021-09-07T14:43:07.000Z</time>
      </trkpt>
      <trkpt lat="43.7466" lon="6.39258">
        <ele>914.5</ele>
        <time>2021-09-07T14:43:09.000Z</time>
      </trkpt>
      <trkpt lat="43.74662" lon="6.39259">
        <ele>914.9</ele>
        <time>2021-09-07T14:43:10.000Z</time>
      </trkpt>
      <trkpt lat="43.74658" lon="6.39256">
        <ele>914.3</ele>
        <time>2021-09-07T14:43:10.000Z</time>
      </trkpt>
      <trkpt lat="43.74664" lon="6.39261">
        <ele>914.9</ele>
        <time>2021-09-07T14:43:11.000Z</time>
      </trkpt>
      <trkpt lat="43.74661" lon="6.39259">
        <ele>914.9</ele>
        <time>2021-09-07T14:43:12.000Z</time>
      </trkpt>
      <trkpt lat="43.74667" lon="6.39264">
        <ele>915.6</ele>
        <time>2021-09-07T14:43:13.000Z</time>
      </trkpt>
      <trkpt lat="43.74662" lon="6.3926">
        <ele>914.9</ele>
        <time>2021-09-07T14:43:13.000Z</time>
      </trkpt>
      <trkpt lat="43.74668" lon="6.39266">
        <ele>915.6</ele>
        <time>2021-09-07T14:43:14.000Z</time>
      </trkpt>
      <trkpt lat="43.74665" lon="6.39262">
        <ele>915.1</ele>
        <time>2021-09-07T14:43:14.000Z</time>
      </trkpt>
      <trkpt lat="43.74668" lon="6.39266">
        <ele>915.5</ele>
        <time>2021-09-07T14:43:16.000Z</time>
      </trkpt>
      <trkpt lat="43.74669" lon="6.39267">
        <ele>915.7</ele>
        <time>2021-09-07T14:43:17.000Z</time>
      </trkpt>
      <trkpt lat="43.74675" lon="6.39277">
        <ele>916.4</ele>
        <time>2021-09-07T14:43:19.000Z</time>
      </trkpt>
      <trkpt lat="43.74676" lon="6.39279">
        <ele>916.6</ele>
        <time>2021-09-07T14:43:22.000Z</time>
      </trkpt>
      <trkpt lat="43.74678" lon="6.39285">
        <ele>917.1</ele>
        <time>2021-09-07T14:43:22.000Z</time>
      </trkpt>
      <trkpt lat="43.7468" lon="6.39286">
        <ele>917</ele>
        <time>2021-09-07T14:43:23.000Z</time>
      </trkpt>
      <trkpt lat="43.7468" lon="6.39286">
        <ele>917.1</ele>
        <time>2021-09-07T14:43:25.000Z</time>
      </trkpt>
      <trkpt lat="43.74682" lon="6.39287">
        <ele>917.1</ele>
        <time>2021-09-07T14:43:26.000Z</time>
      </trkpt>
      <trkpt lat="43.74686" lon="6.39291">
        <ele>917.5</ele>
        <time>2021-09-07T14:43:26.000Z</time>
      </trkpt>
      <trkpt lat="43.74689" lon="6.39295">
        <ele>917.7</ele>
        <time>2021-09-07T14:43:28.000Z</time>
      </trkpt>
      <trkpt lat="43.74687" lon="6.39292">
        <ele>917.7</ele>
        <time>2021-09-07T14:43:29.000Z</time>
      </trkpt>
      <trkpt lat="43.7469" lon="6.39296">
        <ele>917.9</ele>
        <time>2021-09-07T14:43:31.000Z</time>
      </trkpt>
      <trkpt lat="43.74692" lon="6.39301">
        <ele>918.3</ele>
        <time>2021-09-07T14:43:31.000Z</time>
      </trkpt>
      <trkpt lat="43.74694" lon="6.39302">
        <ele>918.4</ele>
        <time>2021-09-07T14:43:32.000Z</time>
      </trkpt>
      <trkpt lat="43.74698" lon="6.39305">
        <ele>918.7</ele>
        <time>2021-09-07T14:43:34.000Z</time>
      </trkpt>
      <trkpt lat="43.747" lon="6.39307">
        <ele>918.8</ele>
        <time>2021-09-07T14:43:35.000Z</time>
      </trkpt>
      <trkpt lat="43.74699" lon="6.39306">
        <ele>918.7</ele>
        <time>2021-09-07T14:43:37.000Z</time>
      </trkpt>
      <trkpt lat="43.74701" lon="6.39309">
        <ele>919</ele>
        <time>2021-09-07T14:43:38.000Z</time>
      </trkpt>
      <trkpt lat="43.74704" lon="6.39315">
        <ele>919.2</ele>
        <time>2021-09-07T14:43:38.000Z</time>
      </trkpt>
      <trkpt lat="43.74706" lon="6.39317">
        <ele>919.5</ele>
        <time>2021-09-07T14:43:39.000Z</time>
      </trkpt>
      <trkpt lat="43.74711" lon="6.3932">
        <ele>920.4</ele>
        <time>2021-09-07T14:43:42.000Z</time>
      </trkpt>
      <trkpt lat="43.74713" lon="6.39321">
        <ele>920.6</ele>
        <time>2021-09-07T14:43:43.000Z</time>
      </trkpt>
      <trkpt lat="43.7471" lon="6.3932">
        <ele>920.2</ele>
        <time>2021-09-07T14:43:44.000Z</time>
      </trkpt>
      <trkpt lat="43.74712" lon="6.3932">
        <ele>920.6</ele>
        <time>2021-09-07T14:43:45.000Z</time>
      </trkpt>
      <trkpt lat="43.74714" lon="6.39322">
        <ele>920.7</ele>
        <time>2021-09-07T14:43:46.000Z</time>
      </trkpt>
      <trkpt lat="43.74715" lon="6.39332">
        <ele>921</ele>
        <time>2021-09-07T14:43:48.000Z</time>
      </trkpt>
      <trkpt lat="43.74716" lon="6.39333">
        <ele>921.1</ele>
        <time>2021-09-07T14:43:51.000Z</time>
      </trkpt>
      <trkpt lat="43.7472" lon="6.39338">
        <ele>921.9</ele>
        <time>2021-09-07T14:43:52.000Z</time>
      </trkpt>
      <trkpt lat="43.74721" lon="6.39339">
        <ele>922</ele>
        <time>2021-09-07T14:43:53.000Z</time>
      </trkpt>
      <trkpt lat="43.74723" lon="6.3934">
        <ele>922</ele>
        <time>2021-09-07T14:43:54.000Z</time>
      </trkpt>
      <trkpt lat="43.74721" lon="6.39339">
        <ele>922</ele>
        <time>2021-09-07T14:43:55.000Z</time>
      </trkpt>
      <trkpt lat="43.74724" lon="6.39344">
        <ele>922.1</ele>
        <time>2021-09-07T14:43:56.000Z</time>
      </trkpt>
      <trkpt lat="43.74724" lon="6.39347">
        <ele>922.2</ele>
        <time>2021-09-07T14:43:57.000Z</time>
      </trkpt>
      <trkpt lat="43.74724" lon="6.3935">
        <ele>922.3</ele>
        <time>2021-09-07T14:43:58.000Z</time>
      </trkpt>
      <trkpt lat="43.74724" lon="6.39347">
        <ele>922.2</ele>
        <time>2021-09-07T14:43:59.000Z</time>
      </trkpt>
      <trkpt lat="43.74727" lon="6.39355">
        <ele>923</ele>
        <time>2021-09-07T14:44:01.000Z</time>
      </trkpt>
      <trkpt lat="43.74728" lon="6.39356">
        <ele>923.3</ele>
        <time>2021-09-07T14:44:04.000Z</time>
      </trkpt>
      <trkpt lat="43.74732" lon="6.39363">
        <ele>923.7</ele>
        <time>2021-09-07T14:44:05.000Z</time>
      </trkpt>
      <trkpt lat="43.7473" lon="6.39357">
        <ele>923.4</ele>
        <time>2021-09-07T14:44:05.000Z</time>
      </trkpt>
      <trkpt lat="43.74732" lon="6.39359">
        <ele>923.3</ele>
        <time>2021-09-07T14:44:06.000Z</time>
      </trkpt>
      <trkpt lat="43.74731" lon="6.39368">
        <ele>923.7</ele>
        <time>2021-09-07T14:44:07.000Z</time>
      </trkpt>
      <trkpt lat="43.74732" lon="6.39371">
        <ele>924</ele>
        <time>2021-09-07T14:44:08.000Z</time>
      </trkpt>
      <trkpt lat="43.74732" lon="6.39365">
        <ele>923.6</ele>
        <time>2021-09-07T14:44:08.000Z</time>
      </trkpt>
      <trkpt lat="43.74733" lon="6.39372">
        <ele>924.2</ele>
        <time>2021-09-07T14:44:09.000Z</time>
      </trkpt>
      <trkpt lat="43.74731" lon="6.3937">
        <ele>923.9</ele>
        <time>2021-09-07T14:44:10.000Z</time>
      </trkpt>
      <trkpt lat="43.74732" lon="6.39372">
        <ele>924.2</ele>
        <time>2021-09-07T14:44:11.000Z</time>
      </trkpt>
      <trkpt lat="43.74734" lon="6.39374">
        <ele>924.4</ele>
        <time>2021-09-07T14:44:12.000Z</time>
      </trkpt>
      <trkpt lat="43.74738" lon="6.39376">
        <ele>924.5</ele>
        <time>2021-09-07T14:44:12.000Z</time>
      </trkpt>
      <trkpt lat="43.7474" lon="6.39382">
        <ele>925.1</ele>
        <time>2021-09-07T14:44:14.000Z</time>
      </trkpt>
      <trkpt lat="43.74739" lon="6.39378">
        <ele>924.6</ele>
        <time>2021-09-07T14:44:15.000Z</time>
      </trkpt>
      <trkpt lat="43.7474" lon="6.39383">
        <ele>925.1</ele>
        <time>2021-09-07T14:44:17.000Z</time>
      </trkpt>
      <trkpt lat="43.74741" lon="6.39391">
        <ele>925.5</ele>
        <time>2021-09-07T14:44:17.000Z</time>
      </trkpt>
      <trkpt lat="43.74742" lon="6.39395">
        <ele>925.5</ele>
        <time>2021-09-07T14:44:18.000Z</time>
      </trkpt>
      <trkpt lat="43.74743" lon="6.39396">
        <ele>925.8</ele>
        <time>2021-09-07T14:44:19.000Z</time>
      </trkpt>
      <trkpt lat="43.74741" lon="6.39393">
        <ele>925.6</ele>
        <time>2021-09-07T14:44:20.000Z</time>
      </trkpt>
      <trkpt lat="43.74747" lon="6.39398">
        <ele>926</ele>
        <time>2021-09-07T14:44:21.000Z</time>
      </trkpt>
      <trkpt lat="43.74743" lon="6.39396">
        <ele>925.7</ele>
        <time>2021-09-07T14:44:21.000Z</time>
      </trkpt>
      <trkpt lat="43.74748" lon="6.394">
        <ele>926.2</ele>
        <time>2021-09-07T14:44:22.000Z</time>
      </trkpt>
      <trkpt lat="43.74744" lon="6.39397">
        <ele>926</ele>
        <time>2021-09-07T14:44:22.000Z</time>
      </trkpt>
      <trkpt lat="43.74749" lon="6.39403">
        <ele>926.3</ele>
        <time>2021-09-07T14:44:23.000Z</time>
      </trkpt>
      <trkpt lat="43.74748" lon="6.39405">
        <ele>926.4</ele>
        <time>2021-09-07T14:44:24.000Z</time>
      </trkpt>
      <trkpt lat="43.74748" lon="6.39399">
        <ele>926.1</ele>
        <time>2021-09-07T14:44:24.000Z</time>
      </trkpt>
      <trkpt lat="43.74749" lon="6.39401">
        <ele>926.2</ele>
        <time>2021-09-07T14:44:25.000Z</time>
      </trkpt>
      <trkpt lat="43.74749" lon="6.39404">
        <ele>926.4</ele>
        <time>2021-09-07T14:44:26.000Z</time>
      </trkpt>
      <trkpt lat="43.74748" lon="6.39408">
        <ele>926.7</ele>
        <time>2021-09-07T14:44:27.000Z</time>
      </trkpt>
      <trkpt lat="43.74754" lon="6.39416">
        <ele>927</ele>
        <time>2021-09-07T14:44:29.000Z</time>
      </trkpt>
      <trkpt lat="43.74755" lon="6.39418">
        <ele>927.1</ele>
        <time>2021-09-07T14:44:30.000Z</time>
      </trkpt>
      <trkpt lat="43.74756" lon="6.39423">
        <ele>927.3</ele>
        <time>2021-09-07T14:44:32.000Z</time>
      </trkpt>
      <trkpt lat="43.74756" lon="6.39425">
        <ele>927.4</ele>
        <time>2021-09-07T14:44:33.000Z</time>
      </trkpt>
      <trkpt lat="43.74756" lon="6.39428">
        <ele>927.4</ele>
        <time>2021-09-07T14:44:34.000Z</time>
      </trkpt>
      <trkpt lat="43.74757" lon="6.3943">
        <ele>927.6</ele>
        <time>2021-09-07T14:44:35.000Z</time>
      </trkpt>
      <trkpt lat="43.74756" lon="6.39424">
        <ele>927.4</ele>
        <time>2021-09-07T14:44:35.000Z</time>
      </trkpt>
      <trkpt lat="43.74756" lon="6.39427">
        <ele>927.4</ele>
        <time>2021-09-07T14:44:36.000Z</time>
      </trkpt>
      <trkpt lat="43.74761" lon="6.39431">
        <ele>927.9</ele>
        <time>2021-09-07T14:44:37.000Z</time>
      </trkpt>
      <trkpt lat="43.74765" lon="6.39434">
        <ele>928.4</ele>
        <time>2021-09-07T14:44:39.000Z</time>
      </trkpt>
      <trkpt lat="43.74763" lon="6.39432">
        <ele>928.1</ele>
        <time>2021-09-07T14:44:40.000Z</time>
      </trkpt>
      <trkpt lat="43.74766" lon="6.39438">
        <ele>928.8</ele>
        <time>2021-09-07T14:44:41.000Z</time>
      </trkpt>
      <trkpt lat="43.74766" lon="6.3944">
        <ele>928.9</ele>
        <time>2021-09-07T14:44:42.000Z</time>
      </trkpt>
      <trkpt lat="43.74765" lon="6.39436">
        <ele>928.5</ele>
        <time>2021-09-07T14:44:42.000Z</time>
      </trkpt>
      <trkpt lat="43.74767" lon="6.39442">
        <ele>929</ele>
        <time>2021-09-07T14:44:43.000Z</time>
      </trkpt>
      <trkpt lat="43.74766" lon="6.3944">
        <ele>928.9</ele>
        <time>2021-09-07T14:44:44.000Z</time>
      </trkpt>
      <trkpt lat="43.74773" lon="6.39442">
        <ele>929</ele>
        <time>2021-09-07T14:44:46.000Z</time>
      </trkpt>
      <trkpt lat="43.74774" lon="6.39443">
        <ele>929.3</ele>
        <time>2021-09-07T14:44:49.000Z</time>
      </trkpt>
      <trkpt lat="43.74775" lon="6.3945">
        <ele>929.6</ele>
        <time>2021-09-07T14:44:50.000Z</time>
      </trkpt>
      <trkpt lat="43.74775" lon="6.39453">
        <ele>930</ele>
        <time>2021-09-07T14:44:51.000Z</time>
      </trkpt>
      <trkpt lat="43.74777" lon="6.39458">
        <ele>930.3</ele>
        <time>2021-09-07T14:44:53.000Z</time>
      </trkpt>
      <trkpt lat="43.74775" lon="6.39452">
        <ele>930</ele>
        <time>2021-09-07T14:44:53.000Z</time>
      </trkpt>
      <trkpt lat="43.74776" lon="6.39455">
        <ele>930.2</ele>
        <time>2021-09-07T14:44:54.000Z</time>
      </trkpt>
      <trkpt lat="43.74778" lon="6.3946">
        <ele>930.5</ele>
        <time>2021-09-07T14:44:54.000Z</time>
      </trkpt>
      <trkpt lat="43.74779" lon="6.39466">
        <ele>930.6</ele>
        <time>2021-09-07T14:44:56.000Z</time>
      </trkpt>
      <trkpt lat="43.7478" lon="6.39468">
        <ele>930.7</ele>
        <time>2021-09-07T14:44:57.000Z</time>
      </trkpt>
      <trkpt lat="43.74782" lon="6.39475">
        <ele>930.9</ele>
        <time>2021-09-07T14:44:59.000Z</time>
      </trkpt>
      <trkpt lat="43.7478" lon="6.39467">
        <ele>930.6</ele>
        <time>2021-09-07T14:44:59.000Z</time>
      </trkpt>
      <trkpt lat="43.74784" lon="6.39477">
        <ele>930.8</ele>
        <time>2021-09-07T14:45:00.000Z</time>
      </trkpt>
      <trkpt lat="43.74781" lon="6.39471">
        <ele>930.7</ele>
        <time>2021-09-07T14:45:00.000Z</time>
      </trkpt>
      <trkpt lat="43.74786" lon="6.3948">
        <ele>931.2</ele>
        <time>2021-09-07T14:45:02.000Z</time>
      </trkpt>
      <trkpt lat="43.74783" lon="6.39476">
        <ele>930.8</ele>
        <time>2021-09-07T14:45:02.000Z</time>
      </trkpt>
      <trkpt lat="43.74784" lon="6.39478">
        <ele>930.8</ele>
        <time>2021-09-07T14:45:03.000Z</time>
      </trkpt>
      <trkpt lat="43.74789" lon="6.39482">
        <ele>931.3</ele>
        <time>2021-09-07T14:45:04.000Z</time>
      </trkpt>
      <trkpt lat="43.74787" lon="6.39481">
        <ele>931.1</ele>
        <time>2021-09-07T14:45:05.000Z</time>
      </trkpt>
      <trkpt lat="43.7479" lon="6.39487">
        <ele>931.4</ele>
        <time>2021-09-07T14:45:06.000Z</time>
      </trkpt>
      <trkpt lat="43.74792" lon="6.39489">
        <ele>931.4</ele>
        <time>2021-09-07T14:45:07.000Z</time>
      </trkpt>
      <trkpt lat="43.74789" lon="6.39483">
        <ele>931.5</ele>
        <time>2021-09-07T14:45:07.000Z</time>
      </trkpt>
      <trkpt lat="43.74794" lon="6.39494">
        <ele>932.2</ele>
        <time>2021-09-07T14:45:09.000Z</time>
      </trkpt>
      <trkpt lat="43.74791" lon="6.39488">
        <ele>931.3</ele>
        <time>2021-09-07T14:45:09.000Z</time>
      </trkpt>
      <trkpt lat="43.74792" lon="6.39491">
        <ele>931.9</ele>
        <time>2021-09-07T14:45:10.000Z</time>
      </trkpt>
      <trkpt lat="43.74795" lon="6.39496">
        <ele>932.3</ele>
        <time>2021-09-07T14:45:10.000Z</time>
      </trkpt>
      <trkpt lat="43.748" lon="6.39501">
        <ele>933.2</ele>
        <time>2021-09-07T14:45:13.000Z</time>
      </trkpt>
      <trkpt lat="43.74804" lon="6.39505">
        <ele>933.4</ele>
        <time>2021-09-07T14:45:15.000Z</time>
      </trkpt>
      <trkpt lat="43.748" lon="6.395">
        <ele>933.2</ele>
        <time>2021-09-07T14:45:15.000Z</time>
      </trkpt>
      <trkpt lat="43.74802" lon="6.39503">
        <ele>933.2</ele>
        <time>2021-09-07T14:45:16.000Z</time>
      </trkpt>
      <trkpt lat="43.74807" lon="6.3951">
        <ele>933.9</ele>
        <time>2021-09-07T14:45:17.000Z</time>
      </trkpt>
      <trkpt lat="43.74808" lon="6.39512">
        <ele>933.9</ele>
        <time>2021-09-07T14:45:18.000Z</time>
      </trkpt>
      <trkpt lat="43.74805" lon="6.39507">
        <ele>933.6</ele>
        <time>2021-09-07T14:45:18.000Z</time>
      </trkpt>
      <trkpt lat="43.74809" lon="6.39515">
        <ele>933.7</ele>
        <time>2021-09-07T14:45:19.000Z</time>
      </trkpt>
      <trkpt lat="43.74807" lon="6.39511">
        <ele>934</ele>
        <time>2021-09-07T14:45:20.000Z</time>
      </trkpt>
      <trkpt lat="43.74812" lon="6.39519">
        <ele>934.4</ele>
        <time>2021-09-07T14:45:21.000Z</time>
      </trkpt>
      <trkpt lat="43.74813" lon="6.39521">
        <ele>934.3</ele>
        <time>2021-09-07T14:45:22.000Z</time>
      </trkpt>
      <trkpt lat="43.74816" lon="6.39526">
        <ele>934.9</ele>
        <time>2021-09-07T14:45:24.000Z</time>
      </trkpt>
      <trkpt lat="43.74813" lon="6.3952">
        <ele>934.3</ele>
        <time>2021-09-07T14:45:24.000Z</time>
      </trkpt>
      <trkpt lat="43.74815" lon="6.39523">
        <ele>934.5</ele>
        <time>2021-09-07T14:45:25.000Z</time>
      </trkpt>
      <trkpt lat="43.74817" lon="6.39527">
        <ele>934.9</ele>
        <time>2021-09-07T14:45:27.000Z</time>
      </trkpt>
      <trkpt lat="43.7482" lon="6.39537">
        <ele>935.3</ele>
        <time>2021-09-07T14:45:28.000Z</time>
      </trkpt>
      <trkpt lat="43.74821" lon="6.39539">
        <ele>935.6</ele>
        <time>2021-09-07T14:45:29.000Z</time>
      </trkpt>
      <trkpt lat="43.74824" lon="6.39541">
        <ele>935.9</ele>
        <time>2021-09-07T14:45:31.000Z</time>
      </trkpt>
      <trkpt lat="43.74821" lon="6.39538">
        <ele>935.5</ele>
        <time>2021-09-07T14:45:31.000Z</time>
      </trkpt>
      <trkpt lat="43.74825" lon="6.39542">
        <ele>936.2</ele>
        <time>2021-09-07T14:45:32.000Z</time>
      </trkpt>
      <trkpt lat="43.74822" lon="6.3954">
        <ele>935.7</ele>
        <time>2021-09-07T14:45:32.000Z</time>
      </trkpt>
      <trkpt lat="43.74828" lon="6.39545">
        <ele>936.3</ele>
        <time>2021-09-07T14:45:34.000Z</time>
      </trkpt>
      <trkpt lat="43.74824" lon="6.39541">
        <ele>936</ele>
        <time>2021-09-07T14:45:34.000Z</time>
      </trkpt>
      <trkpt lat="43.74829" lon="6.39547">
        <ele>936.5</ele>
        <time>2021-09-07T14:45:35.000Z</time>
      </trkpt>
      <trkpt lat="43.74826" lon="6.39543">
        <ele>936.2</ele>
        <time>2021-09-07T14:45:35.000Z</time>
      </trkpt>
      <trkpt lat="43.74829" lon="6.3955">
        <ele>936.6</ele>
        <time>2021-09-07T14:45:36.000Z</time>
      </trkpt>
      <trkpt lat="43.74829" lon="6.39547">
        <ele>936.4</ele>
        <time>2021-09-07T14:45:37.000Z</time>
      </trkpt>
      <trkpt lat="43.7483" lon="6.39554">
        <ele>937</ele>
        <time>2021-09-07T14:45:38.000Z</time>
      </trkpt>
      <trkpt lat="43.74831" lon="6.39557">
        <ele>937.3</ele>
        <time>2021-09-07T14:45:39.000Z</time>
      </trkpt>
      <trkpt lat="43.74832" lon="6.39559">
        <ele>937.5</ele>
        <time>2021-09-07T14:45:40.000Z</time>
      </trkpt>
      <trkpt lat="43.7483" lon="6.39555">
        <ele>937.2</ele>
        <time>2021-09-07T14:45:41.000Z</time>
      </trkpt>
      <trkpt lat="43.74835" lon="6.39561">
        <ele>937.6</ele>
        <time>2021-09-07T14:45:42.000Z</time>
      </trkpt>
      <trkpt lat="43.74832" lon="6.39558">
        <ele>937.5</ele>
        <time>2021-09-07T14:45:42.000Z</time>
      </trkpt>
      <trkpt lat="43.74837" lon="6.39563">
        <ele>937.7</ele>
        <time>2021-09-07T14:45:43.000Z</time>
      </trkpt>
      <trkpt lat="43.74833" lon="6.39559">
        <ele>937.4</ele>
        <time>2021-09-07T14:45:43.000Z</time>
      </trkpt>
      <trkpt lat="43.74839" lon="6.39564">
        <ele>937.8</ele>
        <time>2021-09-07T14:45:44.000Z</time>
      </trkpt>
      <trkpt lat="43.74836" lon="6.39562">
        <ele>937.6</ele>
        <time>2021-09-07T14:45:45.000Z</time>
      </trkpt>
      <trkpt lat="43.74841" lon="6.39571">
        <ele>938.2</ele>
        <time>2021-09-07T14:45:47.000Z</time>
      </trkpt>
      <trkpt lat="43.74842" lon="6.39573">
        <ele>938.3</ele>
        <time>2021-09-07T14:45:48.000Z</time>
      </trkpt>
      <trkpt lat="43.7484" lon="6.39566">
        <ele>938</ele>
        <time>2021-09-07T14:45:48.000Z</time>
      </trkpt>
      <trkpt lat="43.7484" lon="6.3957">
        <ele>938.3</ele>
        <time>2021-09-07T14:45:49.000Z</time>
      </trkpt>
      <trkpt lat="43.74844" lon="6.39577">
        <ele>939.1</ele>
        <time>2021-09-07T14:45:50.000Z</time>
      </trkpt>
      <trkpt lat="43.74841" lon="6.39571">
        <ele>938.3</ele>
        <time>2021-09-07T14:45:50.000Z</time>
      </trkpt>
      <trkpt lat="43.74842" lon="6.39574">
        <ele>938.4</ele>
        <time>2021-09-07T14:45:51.000Z</time>
      </trkpt>
      <trkpt lat="43.74847" lon="6.3958">
        <ele>939.1</ele>
        <time>2021-09-07T14:45:52.000Z</time>
      </trkpt>
      <trkpt lat="43.74845" lon="6.39578">
        <ele>939.1</ele>
        <time>2021-09-07T14:45:53.000Z</time>
      </trkpt>
      <trkpt lat="43.74848" lon="6.39583">
        <ele>939.2</ele>
        <time>2021-09-07T14:45:53.000Z</time>
      </trkpt>
      <trkpt lat="43.74849" lon="6.39585">
        <ele>939.4</ele>
        <time>2021-09-07T14:45:54.000Z</time>
      </trkpt>
      <trkpt lat="43.7485" lon="6.39588">
        <ele>939.5</ele>
        <time>2021-09-07T14:45:57.000Z</time>
      </trkpt>
      <trkpt lat="43.74856" lon="6.39596">
        <ele>939.7</ele>
        <time>2021-09-07T14:45:58.000Z</time>
      </trkpt>
      <trkpt lat="43.74859" lon="6.39601">
        <ele>939.9</ele>
        <time>2021-09-07T14:46:00.000Z</time>
      </trkpt>
      <trkpt lat="43.7486" lon="6.39603">
        <ele>940.2</ele>
        <time>2021-09-07T14:46:01.000Z</time>
      </trkpt>
      <trkpt lat="43.74856" lon="6.39597">
        <ele>939.7</ele>
        <time>2021-09-07T14:46:01.000Z</time>
      </trkpt>
      <trkpt lat="43.74863" lon="6.39609">
        <ele>940.6</ele>
        <time>2021-09-07T14:46:03.000Z</time>
      </trkpt>
      <trkpt lat="43.7486" lon="6.39602">
        <ele>940.1</ele>
        <time>2021-09-07T14:46:03.000Z</time>
      </trkpt>
      <trkpt lat="43.74861" lon="6.39605">
        <ele>940.4</ele>
        <time>2021-09-07T14:46:04.000Z</time>
      </trkpt>
      <trkpt lat="43.74861" lon="6.39605">
        <ele>940.4</ele>
        <time>2021-09-07T14:46:04.000Z</time>
      </trkpt>
      <trkpt lat="43.74864" lon="6.39611">
        <ele>940.7</ele>
        <time>2021-09-07T14:46:06.000Z</time>
      </trkpt>
      <trkpt lat="43.74866" lon="6.39615">
        <ele>941.1</ele>
        <time>2021-09-07T14:46:07.000Z</time>
      </trkpt>
      <trkpt lat="43.74872" lon="6.39626">
        <ele>941.6</ele>
        <time>2021-09-07T14:46:09.000Z</time>
      </trkpt>
      <trkpt lat="43.74873" lon="6.3963">
        <ele>941.8</ele>
        <time>2021-09-07T14:46:10.000Z</time>
      </trkpt>
      <trkpt lat="43.74875" lon="6.39635">
        <ele>942.1</ele>
        <time>2021-09-07T14:46:12.000Z</time>
      </trkpt>
      <trkpt lat="43.74872" lon="6.39629">
        <ele>941.7</ele>
        <time>2021-09-07T14:46:12.000Z</time>
      </trkpt>
      <trkpt lat="43.74876" lon="6.39637">
        <ele>942.2</ele>
        <time>2021-09-07T14:46:13.000Z</time>
      </trkpt>
      <trkpt lat="43.74874" lon="6.39632">
        <ele>942</ele>
        <time>2021-09-07T14:46:13.000Z</time>
      </trkpt>
      <trkpt lat="43.74878" lon="6.39641">
        <ele>942.2</ele>
        <time>2021-09-07T14:46:15.000Z</time>
      </trkpt>
      <trkpt lat="43.74875" lon="6.39636">
        <ele>942.1</ele>
        <time>2021-09-07T14:46:15.000Z</time>
      </trkpt>
      <trkpt lat="43.74879" lon="6.39643">
        <ele>942.7</ele>
        <time>2021-09-07T14:46:16.000Z</time>
      </trkpt>
      <trkpt lat="43.74876" lon="6.39638">
        <ele>942.2</ele>
        <time>2021-09-07T14:46:16.000Z</time>
      </trkpt>
      <trkpt lat="43.74881" lon="6.39647">
        <ele>942.8</ele>
        <time>2021-09-07T14:46:18.000Z</time>
      </trkpt>
      <trkpt lat="43.74879" lon="6.39642">
        <ele>942.4</ele>
        <time>2021-09-07T14:46:18.000Z</time>
      </trkpt>
      <trkpt lat="43.7488" lon="6.39645">
        <ele>942.9</ele>
        <time>2021-09-07T14:46:19.000Z</time>
      </trkpt>
      <trkpt lat="43.74882" lon="6.39649">
        <ele>942.7</ele>
        <time>2021-09-07T14:46:21.000Z</time>
      </trkpt>
      <trkpt lat="43.74884" lon="6.39657">
        <ele>943.5</ele>
        <time>2021-09-07T14:46:22.000Z</time>
      </trkpt>
      <trkpt lat="43.74884" lon="6.3966">
        <ele>943.5</ele>
        <time>2021-09-07T14:46:23.000Z</time>
      </trkpt>
      <trkpt lat="43.74884" lon="6.39662">
        <ele>943.6</ele>
        <time>2021-09-07T14:46:24.000Z</time>
      </trkpt>
      <trkpt lat="43.74884" lon="6.3966">
        <ele>943.6</ele>
        <time>2021-09-07T14:46:25.000Z</time>
      </trkpt>
      <trkpt lat="43.74887" lon="6.39666">
        <ele>944</ele>
        <time>2021-09-07T14:46:26.000Z</time>
      </trkpt>
      <trkpt lat="43.74887" lon="6.39669">
        <ele>944.3</ele>
        <time>2021-09-07T14:46:27.000Z</time>
      </trkpt>
      <trkpt lat="43.74887" lon="6.39672">
        <ele>944.2</ele>
        <time>2021-09-07T14:46:28.000Z</time>
      </trkpt>
      <trkpt lat="43.74887" lon="6.39667">
        <ele>944.2</ele>
        <time>2021-09-07T14:46:29.000Z</time>
      </trkpt>
      <trkpt lat="43.74889" lon="6.39677">
        <ele>944.6</ele>
        <time>2021-09-07T14:46:30.000Z</time>
      </trkpt>
      <trkpt lat="43.74889" lon="6.3968">
        <ele>944.8</ele>
        <time>2021-09-07T14:46:33.000Z</time>
      </trkpt>
      <trkpt lat="43.74892" lon="6.39683">
        <ele>944.9</ele>
        <time>2021-09-07T14:46:33.000Z</time>
      </trkpt>
      <trkpt lat="43.74894" lon="6.39685">
        <ele>945.1</ele>
        <time>2021-09-07T14:46:34.000Z</time>
      </trkpt>
      <trkpt lat="43.74893" lon="6.39698">
        <ele>945.8</ele>
        <time>2021-09-07T14:46:39.000Z</time>
      </trkpt>
      <trkpt lat="43.74897" lon="6.3971">
        <ele>947.2</ele>
        <time>2021-09-07T14:46:44.000Z</time>
      </trkpt>
      <trkpt lat="43.74898" lon="6.39722">
        <ele>948.1</ele>
        <time>2021-09-07T14:46:49.000Z</time>
      </trkpt>
      <trkpt lat="43.74901" lon="6.39734">
        <ele>948.9</ele>
        <time>2021-09-07T14:46:54.000Z</time>
      </trkpt>
      <trkpt lat="43.74907" lon="6.39744">
        <ele>949.6</ele>
        <time>2021-09-07T14:46:59.000Z</time>
      </trkpt>
      <trkpt lat="43.74914" lon="6.39753">
        <ele>949.9</ele>
        <time>2021-09-07T14:47:04.000Z</time>
      </trkpt>
      <trkpt lat="43.7492" lon="6.3976">
        <ele>950.6</ele>
        <time>2021-09-07T14:47:09.000Z</time>
      </trkpt>
      <trkpt lat="43.74922" lon="6.39762">
        <ele>951.1</ele>
        <time>2021-09-07T14:47:14.000Z</time>
      </trkpt>
      <trkpt lat="43.74922" lon="6.39762">
        <ele>950.9</ele>
        <time>2021-09-07T14:47:15.000Z</time>
      </trkpt>
      <trkpt lat="43.74922" lon="6.39763">
        <ele>951.2</ele>
        <time>2021-09-07T14:47:20.000Z</time>
      </trkpt>
      <trkpt lat="43.74923" lon="6.39763">
        <ele>951.2</ele>
        <time>2021-09-07T14:47:23.000Z</time>
      </trkpt>
      <trkpt lat="43.74923" lon="6.39763">
        <ele>951.1</ele>
        <time>2021-09-07T14:47:24.000Z</time>
      </trkpt>
      <trkpt lat="43.74923" lon="6.39764">
        <ele>951.3</ele>
        <time>2021-09-07T14:47:28.000Z</time>
      </trkpt>
      <trkpt lat="43.74923" lon="6.39764">
        <ele>951.1</ele>
        <time>2021-09-07T14:47:29.000Z</time>
      </trkpt>
      <trkpt lat="43.74923" lon="6.39763">
        <ele>950.8</ele>
        <time>2021-09-07T14:47:33.000Z</time>
      </trkpt>
      <trkpt lat="43.74923" lon="6.3976">
        <ele>951.1</ele>
        <time>2021-09-07T14:47:38.000Z</time>
      </trkpt>
      <trkpt lat="43.74922" lon="6.39759">
        <ele>950.8</ele>
        <time>2021-09-07T14:47:39.000Z</time>
      </trkpt>
      <trkpt lat="43.74919" lon="6.39755">
        <ele>950.2</ele>
        <time>2021-09-07T14:47:39.000Z</time>
      </trkpt>
      <trkpt lat="43.74917" lon="6.39753">
        <ele>950</ele>
        <time>2021-09-07T14:47:41.000Z</time>
      </trkpt>
      <trkpt lat="43.74918" lon="6.39753">
        <ele>949.6</ele>
        <time>2021-09-07T14:47:42.000Z</time>
      </trkpt>
      <trkpt lat="43.74919" lon="6.39753">
        <ele>950.4</ele>
        <time>2021-09-07T14:47:45.000Z</time>
      </trkpt>
      <trkpt lat="43.74928" lon="6.39759">
        <ele>950.7</ele>
        <time>2021-09-07T14:47:47.000Z</time>
      </trkpt>
      <trkpt lat="43.7493" lon="6.39761">
        <ele>951</ele>
        <time>2021-09-07T14:47:48.000Z</time>
      </trkpt>
      <trkpt lat="43.74929" lon="6.3976">
        <ele>950.8</ele>
        <time>2021-09-07T14:47:50.000Z</time>
      </trkpt>
      <trkpt lat="43.74931" lon="6.39762">
        <ele>951</ele>
        <time>2021-09-07T14:47:51.000Z</time>
      </trkpt>
      <trkpt lat="43.74935" lon="6.39765">
        <ele>951.3</ele>
        <time>2021-09-07T14:47:51.000Z</time>
      </trkpt>
      <trkpt lat="43.74936" lon="6.39766">
        <ele>951.3</ele>
        <time>2021-09-07T14:47:54.000Z</time>
      </trkpt>
      <trkpt lat="43.74941" lon="6.3977">
        <ele>951.5</ele>
        <time>2021-09-07T14:47:54.000Z</time>
      </trkpt>
      <trkpt lat="43.74943" lon="6.39771">
        <ele>951.7</ele>
        <time>2021-09-07T14:47:55.000Z</time>
      </trkpt>
      <trkpt lat="43.74946" lon="6.39775">
        <ele>952</ele>
        <time>2021-09-07T14:47:57.000Z</time>
      </trkpt>
      <trkpt lat="43.74942" lon="6.3977">
        <ele>951.6</ele>
        <time>2021-09-07T14:47:57.000Z</time>
      </trkpt>
      <trkpt lat="43.74948" lon="6.39777">
        <ele>952.2</ele>
        <time>2021-09-07T14:47:58.000Z</time>
      </trkpt>
      <trkpt lat="43.74944" lon="6.39772">
        <ele>951.8</ele>
        <time>2021-09-07T14:47:58.000Z</time>
      </trkpt>
      <trkpt lat="43.7495" lon="6.39778">
        <ele>952.2</ele>
        <time>2021-09-07T14:47:59.000Z</time>
      </trkpt>
      <trkpt lat="43.74952" lon="6.3978">
        <ele>952.6</ele>
        <time>2021-09-07T14:48:00.000Z</time>
      </trkpt>
      <trkpt lat="43.74947" lon="6.39776">
        <ele>952.2</ele>
        <time>2021-09-07T14:48:00.000Z</time>
      </trkpt>
      <trkpt lat="43.74949" lon="6.39777">
        <ele>952.3</ele>
        <time>2021-09-07T14:48:01.000Z</time>
      </trkpt>
      <trkpt lat="43.74955" lon="6.39784">
        <ele>952.8</ele>
        <time>2021-09-07T14:48:02.000Z</time>
      </trkpt>
      <trkpt lat="43.74951" lon="6.39779">
        <ele>952.4</ele>
        <time>2021-09-07T14:48:02.000Z</time>
      </trkpt>
      <trkpt lat="43.74953" lon="6.39782">
        <ele>952.7</ele>
        <time>2021-09-07T14:48:03.000Z</time>
      </trkpt>
      <trkpt lat="43.74955" lon="6.39785">
        <ele>952.8</ele>
        <time>2021-09-07T14:48:05.000Z</time>
      </trkpt>
      <trkpt lat="43.7496" lon="6.3979">
        <ele>953.1</ele>
        <time>2021-09-07T14:48:05.000Z</time>
      </trkpt>
      <trkpt lat="43.7496" lon="6.3979">
        <ele>953.1</ele>
        <time>2021-09-07T14:48:05.000Z</time>
      </trkpt>
      <trkpt lat="43.74962" lon="6.39792">
        <ele>953.3</ele>
        <time>2021-09-07T14:48:06.000Z</time>
      </trkpt>
      <trkpt lat="43.74966" lon="6.39796">
        <ele>953.4</ele>
        <time>2021-09-07T14:48:08.000Z</time>
      </trkpt>
      <trkpt lat="43.74961" lon="6.39791">
        <ele>953.2</ele>
        <time>2021-09-07T14:48:08.000Z</time>
      </trkpt>
      <trkpt lat="43.74964" lon="6.39794">
        <ele>953.3</ele>
        <time>2021-09-07T14:48:09.000Z</time>
      </trkpt>
      <trkpt lat="43.74969" lon="6.39802">
        <ele>954</ele>
        <time>2021-09-07T14:48:10.000Z</time>
      </trkpt>
      <trkpt lat="43.74967" lon="6.39798">
        <ele>953.7</ele>
        <time>2021-09-07T14:48:11.000Z</time>
      </trkpt>
      <trkpt lat="43.74971" lon="6.39807">
        <ele>954.2</ele>
        <time>2021-09-07T14:48:12.000Z</time>
      </trkpt>
      <trkpt lat="43.7497" lon="6.39804">
        <ele>954.1</ele>
        <time>2021-09-07T14:48:13.000Z</time>
      </trkpt>
      <trkpt lat="43.74972" lon="6.3981">
        <ele>954.2</ele>
        <time>2021-09-07T14:48:13.000Z</time>
      </trkpt>
      <trkpt lat="43.74975" lon="6.39817">
        <ele>954.8</ele>
        <time>2021-09-07T14:48:16.000Z</time>
      </trkpt>
      <trkpt lat="43.74976" lon="6.39819">
        <ele>955</ele>
        <time>2021-09-07T14:48:17.000Z</time>
      </trkpt>
      <trkpt lat="43.74977" lon="6.39821">
        <ele>955.1</ele>
        <time>2021-09-07T14:48:18.000Z</time>
      </trkpt>
      <trkpt lat="43.74974" lon="6.39816">
        <ele>954.5</ele>
        <time>2021-09-07T14:48:18.000Z</time>
      </trkpt>
      <trkpt lat="43.74978" lon="6.39823">
        <ele>955.3</ele>
        <time>2021-09-07T14:48:19.000Z</time>
      </trkpt>
      <trkpt lat="43.74976" lon="6.39818">
        <ele>954.9</ele>
        <time>2021-09-07T14:48:19.000Z</time>
      </trkpt>
      <trkpt lat="43.74977" lon="6.3982">
        <ele>955</ele>
        <time>2021-09-07T14:48:20.000Z</time>
      </trkpt>
      <trkpt lat="43.74978" lon="6.39822">
        <ele>955.2</ele>
        <time>2021-09-07T14:48:21.000Z</time>
      </trkpt>
      <trkpt lat="43.74979" lon="6.39824">
        <ele>955.3</ele>
        <time>2021-09-07T14:48:22.000Z</time>
      </trkpt>
      <trkpt lat="43.74982" lon="6.39828">
        <ele>956.2</ele>
        <time>2021-09-07T14:48:22.000Z</time>
      </trkpt>
      <trkpt lat="43.74983" lon="6.3983">
        <ele>956.2</ele>
        <time>2021-09-07T14:48:23.000Z</time>
      </trkpt>
      <trkpt lat="43.74986" lon="6.39837">
        <ele>956.8</ele>
        <time>2021-09-07T14:48:26.000Z</time>
      </trkpt>
      <trkpt lat="43.74989" lon="6.39841">
        <ele>957</ele>
        <time>2021-09-07T14:48:28.000Z</time>
      </trkpt>
      <trkpt lat="43.74986" lon="6.39836">
        <ele>956.8</ele>
        <time>2021-09-07T14:48:28.000Z</time>
      </trkpt>
      <trkpt lat="43.7499" lon="6.39844">
        <ele>957.3</ele>
        <time>2021-09-07T14:48:29.000Z</time>
      </trkpt>
      <trkpt lat="43.74988" lon="6.39839">
        <ele>956.9</ele>
        <time>2021-09-07T14:48:29.000Z</time>
      </trkpt>
      <trkpt lat="43.7499" lon="6.39843">
        <ele>957.2</ele>
        <time>2021-09-07T14:48:31.000Z</time>
      </trkpt>
      <trkpt lat="43.74991" lon="6.39845">
        <ele>957.5</ele>
        <time>2021-09-07T14:48:32.000Z</time>
      </trkpt>
      <trkpt lat="43.74994" lon="6.39852">
        <ele>958.1</ele>
        <time>2021-09-07T14:48:34.000Z</time>
      </trkpt>
      <trkpt lat="43.74995" lon="6.39854">
        <ele>958.2</ele>
        <time>2021-09-07T14:48:35.000Z</time>
      </trkpt>
      <trkpt lat="43.74996" lon="6.39855">
        <ele>958.1</ele>
        <time>2021-09-07T14:48:36.000Z</time>
      </trkpt>
      <trkpt lat="43.74994" lon="6.39853">
        <ele>958.1</ele>
        <time>2021-09-07T14:48:36.000Z</time>
      </trkpt>
      <trkpt lat="43.74996" lon="6.39855">
        <ele>958.1</ele>
        <time>2021-09-07T14:48:37.000Z</time>
      </trkpt>
      <trkpt lat="43.74997" lon="6.39857">
        <ele>958.4</ele>
        <time>2021-09-07T14:48:38.000Z</time>
      </trkpt>
      <trkpt lat="43.74998" lon="6.39859">
        <ele>958.5</ele>
        <time>2021-09-07T14:48:38.000Z</time>
      </trkpt>
      <trkpt lat="43.74999" lon="6.39862">
        <ele>958.7</ele>
        <time>2021-09-07T14:48:39.000Z</time>
      </trkpt>
      <trkpt lat="43.74998" lon="6.39861">
        <ele>958.5</ele>
        <time>2021-09-07T14:48:40.000Z</time>
      </trkpt>
      <trkpt lat="43.75" lon="6.39863">
        <ele>958.9</ele>
        <time>2021-09-07T14:48:40.000Z</time>
      </trkpt>
      <trkpt lat="43.75002" lon="6.39866">
        <ele>959</ele>
        <time>2021-09-07T14:48:42.000Z</time>
      </trkpt>
      <trkpt lat="43.75004" lon="6.39867">
        <ele>959</ele>
        <time>2021-09-07T14:48:43.000Z</time>
      </trkpt>
      <trkpt lat="43.75005" lon="6.39869">
        <ele>959.7</ele>
        <time>2021-09-07T14:48:44.000Z</time>
      </trkpt>
      <trkpt lat="43.75003" lon="6.39867">
        <ele>958.9</ele>
        <time>2021-09-07T14:48:44.000Z</time>
      </trkpt>
      <trkpt lat="43.75005" lon="6.39869">
        <ele>959.5</ele>
        <time>2021-09-07T14:48:45.000Z</time>
      </trkpt>
      <trkpt lat="43.75006" lon="6.3987">
        <ele>959.6</ele>
        <time>2021-09-07T14:48:46.000Z</time>
      </trkpt>
      <trkpt lat="43.75009" lon="6.39874">
        <ele>960</ele>
        <time>2021-09-07T14:48:47.000Z</time>
      </trkpt>
      <trkpt lat="43.75011" lon="6.39876">
        <ele>959.9</ele>
        <time>2021-09-07T14:48:49.000Z</time>
      </trkpt>
      <trkpt lat="43.75014" lon="6.39878">
        <ele>960.1</ele>
        <time>2021-09-07T14:48:50.000Z</time>
      </trkpt>
      <trkpt lat="43.75015" lon="6.39879">
        <ele>960.1</ele>
        <time>2021-09-07T14:48:52.000Z</time>
      </trkpt>
      <trkpt lat="43.75021" lon="6.39884">
        <ele>960.7</ele>
        <time>2021-09-07T14:48:54.000Z</time>
      </trkpt>
      <trkpt lat="43.75022" lon="6.39885">
        <ele>960.7</ele>
        <time>2021-09-07T14:48:56.000Z</time>
      </trkpt>
      <trkpt lat="43.75023" lon="6.39886">
        <ele>960.6</ele>
        <time>2021-09-07T14:48:56.000Z</time>
      </trkpt>
      <trkpt lat="43.75025" lon="6.39887">
        <ele>960.9</ele>
        <time>2021-09-07T14:48:57.000Z</time>
      </trkpt>
      <trkpt lat="43.75026" lon="6.39888">
        <ele>961.1</ele>
        <time>2021-09-07T14:48:58.000Z</time>
      </trkpt>
      <trkpt lat="43.75024" lon="6.39886">
        <ele>960.8</ele>
        <time>2021-09-07T14:48:58.000Z</time>
      </trkpt>
      <trkpt lat="43.75025" lon="6.39888">
        <ele>961.1</ele>
        <time>2021-09-07T14:48:59.000Z</time>
      </trkpt>
      <trkpt lat="43.75027" lon="6.3989">
        <ele>961.2</ele>
        <time>2021-09-07T14:49:00.000Z</time>
      </trkpt>
      <trkpt lat="43.7503" lon="6.39894">
        <ele>961.6</ele>
        <time>2021-09-07T14:49:01.000Z</time>
      </trkpt>
      <trkpt lat="43.75032" lon="6.39895">
        <ele>961.6</ele>
        <time>2021-09-07T14:49:03.000Z</time>
      </trkpt>
      <trkpt lat="43.75037" lon="6.399">
        <ele>962.6</ele>
        <time>2021-09-07T14:49:06.000Z</time>
      </trkpt>
      <trkpt lat="43.75038" lon="6.39902">
        <ele>962.7</ele>
        <time>2021-09-07T14:49:07.000Z</time>
      </trkpt>
      <trkpt lat="43.75038" lon="6.39902">
        <ele>962.6</ele>
        <time>2021-09-07T14:49:08.000Z</time>
      </trkpt>
      <trkpt lat="43.75039" lon="6.39903">
        <ele>962.7</ele>
        <time>2021-09-07T14:49:09.000Z</time>
      </trkpt>
      <trkpt lat="43.75045" lon="6.39908">
        <ele>962.7</ele>
        <time>2021-09-07T14:49:11.000Z</time>
      </trkpt>
      <trkpt lat="43.75046" lon="6.39909">
        <ele>963</ele>
        <time>2021-09-07T14:49:13.000Z</time>
      </trkpt>
      <trkpt lat="43.7505" lon="6.39915">
        <ele>963.3</ele>
        <time>2021-09-07T14:49:15.000Z</time>
      </trkpt>
      <trkpt lat="43.75051" lon="6.39917">
        <ele>963.6</ele>
        <time>2021-09-07T14:49:16.000Z</time>
      </trkpt>
      <trkpt lat="43.75053" lon="6.39918">
        <ele>963.8</ele>
        <time>2021-09-07T14:49:17.000Z</time>
      </trkpt>
      <trkpt lat="43.7505" lon="6.39916">
        <ele>963.4</ele>
        <time>2021-09-07T14:49:17.000Z</time>
      </trkpt>
      <trkpt lat="43.75052" lon="6.39918">
        <ele>963.7</ele>
        <time>2021-09-07T14:49:18.000Z</time>
      </trkpt>
      <trkpt lat="43.75055" lon="6.39918">
        <ele>963.9</ele>
        <time>2021-09-07T14:49:19.000Z</time>
      </trkpt>
      <trkpt lat="43.75057" lon="6.3992">
        <ele>963.7</ele>
        <time>2021-09-07T14:49:19.000Z</time>
      </trkpt>
      <trkpt lat="43.75059" lon="6.39922">
        <ele>963.8</ele>
        <time>2021-09-07T14:49:21.000Z</time>
      </trkpt>
      <trkpt lat="43.75063" lon="6.39929">
        <ele>964.3</ele>
        <time>2021-09-07T14:49:23.000Z</time>
      </trkpt>
      <trkpt lat="43.75065" lon="6.39931">
        <ele>964.6</ele>
        <time>2021-09-07T14:49:24.000Z</time>
      </trkpt>
      <trkpt lat="43.75067" lon="6.39932">
        <ele>964.6</ele>
        <time>2021-09-07T14:49:25.000Z</time>
      </trkpt>
      <trkpt lat="43.75063" lon="6.3993">
        <ele>964.4</ele>
        <time>2021-09-07T14:49:25.000Z</time>
      </trkpt>
      <trkpt lat="43.75066" lon="6.39932">
        <ele>964.6</ele>
        <time>2021-09-07T14:49:26.000Z</time>
      </trkpt>
      <trkpt lat="43.75068" lon="6.39933">
        <ele>964.8</ele>
        <time>2021-09-07T14:49:26.000Z</time>
      </trkpt>
      <trkpt lat="43.75072" lon="6.39935">
        <ele>965</ele>
        <time>2021-09-07T14:49:28.000Z</time>
      </trkpt>
      <trkpt lat="43.75073" lon="6.39936">
        <ele>965.1</ele>
        <time>2021-09-07T14:49:30.000Z</time>
      </trkpt>
      <trkpt lat="43.75076" lon="6.3994">
        <ele>965.5</ele>
        <time>2021-09-07T14:49:31.000Z</time>
      </trkpt>
      <trkpt lat="43.75078" lon="6.39942">
        <ele>965.7</ele>
        <time>2021-09-07T14:49:32.000Z</time>
      </trkpt>
      <trkpt lat="43.75077" lon="6.39941">
        <ele>965.7</ele>
        <time>2021-09-07T14:49:33.000Z</time>
      </trkpt>
      <trkpt lat="43.75079" lon="6.39944">
        <ele>965.7</ele>
        <time>2021-09-07T14:49:33.000Z</time>
      </trkpt>
      <trkpt lat="43.75082" lon="6.39946">
        <ele>965.8</ele>
        <time>2021-09-07T14:49:35.000Z</time>
      </trkpt>
      <trkpt lat="43.75083" lon="6.39947">
        <ele>965.9</ele>
        <time>2021-09-07T14:49:36.000Z</time>
      </trkpt>
      <trkpt lat="43.75084" lon="6.39949">
        <ele>966.1</ele>
        <time>2021-09-07T14:49:37.000Z</time>
      </trkpt>
      <trkpt lat="43.75082" lon="6.39946">
        <ele>965.9</ele>
        <time>2021-09-07T14:49:37.000Z</time>
      </trkpt>
      <trkpt lat="43.75084" lon="6.39951">
        <ele>966.4</ele>
        <time>2021-09-07T14:49:38.000Z</time>
      </trkpt>
      <trkpt lat="43.75083" lon="6.39948">
        <ele>966.1</ele>
        <time>2021-09-07T14:49:38.000Z</time>
      </trkpt>
      <trkpt lat="43.75084" lon="6.3995">
        <ele>966.3</ele>
        <time>2021-09-07T14:49:39.000Z</time>
      </trkpt>
      <trkpt lat="43.75085" lon="6.39953">
        <ele>966.5</ele>
        <time>2021-09-07T14:49:40.000Z</time>
      </trkpt>
      <trkpt lat="43.7509" lon="6.39956">
        <ele>966.9</ele>
        <time>2021-09-07T14:49:42.000Z</time>
      </trkpt>
      <trkpt lat="43.75091" lon="6.39957">
        <ele>967</ele>
        <time>2021-09-07T14:49:43.000Z</time>
      </trkpt>
      <trkpt lat="43.75092" lon="6.39959">
        <ele>967.3</ele>
        <time>2021-09-07T14:49:44.000Z</time>
      </trkpt>
      <trkpt lat="43.75091" lon="6.39957">
        <ele>967</ele>
        <time>2021-09-07T14:49:44.000Z</time>
      </trkpt>
      <trkpt lat="43.75092" lon="6.39958">
        <ele>967.2</ele>
        <time>2021-09-07T14:49:45.000Z</time>
      </trkpt>
      <trkpt lat="43.75093" lon="6.39961">
        <ele>967.4</ele>
        <time>2021-09-07T14:49:45.000Z</time>
      </trkpt>
      <trkpt lat="43.75096" lon="6.39965">
        <ele>967.7</ele>
        <time>2021-09-07T14:49:47.000Z</time>
      </trkpt>
      <trkpt lat="43.75097" lon="6.39965">
        <ele>967.7</ele>
        <time>2021-09-07T14:49:49.000Z</time>
      </trkpt>
      <trkpt lat="43.751" lon="6.39967">
        <ele>968</ele>
        <time>2021-09-07T14:49:49.000Z</time>
      </trkpt>
      <trkpt lat="43.75101" lon="6.39968">
        <ele>968.1</ele>
        <time>2021-09-07T14:49:51.000Z</time>
      </trkpt>
      <trkpt lat="43.75103" lon="6.39971">
        <ele>968.2</ele>
        <time>2021-09-07T14:49:52.000Z</time>
      </trkpt>
      <trkpt lat="43.75104" lon="6.39973">
        <ele>968.5</ele>
        <time>2021-09-07T14:49:53.000Z</time>
      </trkpt>
      <trkpt lat="43.75104" lon="6.39972">
        <ele>968.3</ele>
        <time>2021-09-07T14:49:54.000Z</time>
      </trkpt>
      <trkpt lat="43.75105" lon="6.39975">
        <ele>968.7</ele>
        <time>2021-09-07T14:49:55.000Z</time>
      </trkpt>
      <trkpt lat="43.75109" lon="6.39982">
        <ele>969.2</ele>
        <time>2021-09-07T14:49:57.000Z</time>
      </trkpt>
      <trkpt lat="43.75109" lon="6.39984">
        <ele>969.4</ele>
        <time>2021-09-07T14:49:58.000Z</time>
      </trkpt>
      <trkpt lat="43.75109" lon="6.39986">
        <ele>969.5</ele>
        <time>2021-09-07T14:49:59.000Z</time>
      </trkpt>
      <trkpt lat="43.7511" lon="6.39988">
        <ele>969.7</ele>
        <time>2021-09-07T14:50:00.000Z</time>
      </trkpt>
      <trkpt lat="43.7511" lon="6.39987">
        <ele>969.6</ele>
        <time>2021-09-07T14:50:01.000Z</time>
      </trkpt>
      <trkpt lat="43.75111" lon="6.3999">
        <ele>969.7</ele>
        <time>2021-09-07T14:50:02.000Z</time>
      </trkpt>
      <trkpt lat="43.75113" lon="6.39995">
        <ele>970.2</ele>
        <time>2021-09-07T14:50:03.000Z</time>
      </trkpt>
      <trkpt lat="43.75113" lon="6.39997">
        <ele>970.4</ele>
        <time>2021-09-07T14:50:04.000Z</time>
      </trkpt>
      <trkpt lat="43.75114" lon="6.40005">
        <ele>971</ele>
        <time>2021-09-07T14:50:07.000Z</time>
      </trkpt>
      <trkpt lat="43.75115" lon="6.40007">
        <ele>971</ele>
        <time>2021-09-07T14:50:08.000Z</time>
      </trkpt>
      <trkpt lat="43.75115" lon="6.40006">
        <ele>971.1</ele>
        <time>2021-09-07T14:50:09.000Z</time>
      </trkpt>
      <trkpt lat="43.75115" lon="6.40009">
        <ele>971</ele>
        <time>2021-09-07T14:50:10.000Z</time>
      </trkpt>
      <trkpt lat="43.75116" lon="6.40012">
        <ele>971.2</ele>
        <time>2021-09-07T14:50:10.000Z</time>
      </trkpt>
      <trkpt lat="43.75116" lon="6.40015">
        <ele>971.2</ele>
        <time>2021-09-07T14:50:11.000Z</time>
      </trkpt>
      <trkpt lat="43.75116" lon="6.40014">
        <ele>971.2</ele>
        <time>2021-09-07T14:50:12.000Z</time>
      </trkpt>
      <trkpt lat="43.75116" lon="6.40017">
        <ele>971.3</ele>
        <time>2021-09-07T14:50:12.000Z</time>
      </trkpt>
      <trkpt lat="43.7512" lon="6.40026">
        <ele>971.7</ele>
        <time>2021-09-07T14:50:16.000Z</time>
      </trkpt>
      <trkpt lat="43.75119" lon="6.40025">
        <ele>971.8</ele>
        <time>2021-09-07T14:50:17.000Z</time>
      </trkpt>
      <trkpt lat="43.7512" lon="6.40028">
        <ele>972.1</ele>
        <time>2021-09-07T14:50:18.000Z</time>
      </trkpt>
      <trkpt lat="43.75121" lon="6.40031">
        <ele>972.6</ele>
        <time>2021-09-07T14:50:18.000Z</time>
      </trkpt>
      <trkpt lat="43.75122" lon="6.40032">
        <ele>972.6</ele>
        <time>2021-09-07T14:50:20.000Z</time>
      </trkpt>
      <trkpt lat="43.75124" lon="6.40036">
        <ele>972.6</ele>
        <time>2021-09-07T14:50:20.000Z</time>
      </trkpt>
      <trkpt lat="43.75125" lon="6.40038">
        <ele>972.7</ele>
        <time>2021-09-07T14:50:21.000Z</time>
      </trkpt>
      <trkpt lat="43.75124" lon="6.40037">
        <ele>972.7</ele>
        <time>2021-09-07T14:50:22.000Z</time>
      </trkpt>
      <trkpt lat="43.75126" lon="6.40039">
        <ele>972.6</ele>
        <time>2021-09-07T14:50:23.000Z</time>
      </trkpt>
      <trkpt lat="43.75131" lon="6.40045">
        <ele>973</ele>
        <time>2021-09-07T14:50:25.000Z</time>
      </trkpt>
      <trkpt lat="43.75133" lon="6.40046">
        <ele>973.2</ele>
        <time>2021-09-07T14:50:26.000Z</time>
      </trkpt>
      <trkpt lat="43.75132" lon="6.40046">
        <ele>973.2</ele>
        <time>2021-09-07T14:50:27.000Z</time>
      </trkpt>
      <trkpt lat="43.75134" lon="6.40048">
        <ele>973.3</ele>
        <time>2021-09-07T14:50:27.000Z</time>
      </trkpt>
      <trkpt lat="43.75135" lon="6.4005">
        <ele>973.6</ele>
        <time>2021-09-07T14:50:28.000Z</time>
      </trkpt>
      <trkpt lat="43.75136" lon="6.40051">
        <ele>973.8</ele>
        <time>2021-09-07T14:50:30.000Z</time>
      </trkpt>
      <trkpt lat="43.75141" lon="6.40055">
        <ele>974</ele>
        <time>2021-09-07T14:50:32.000Z</time>
      </trkpt>
      <trkpt lat="43.75143" lon="6.40056">
        <ele>974.3</ele>
        <time>2021-09-07T14:50:33.000Z</time>
      </trkpt>
      <trkpt lat="43.75142" lon="6.40056">
        <ele>974.2</ele>
        <time>2021-09-07T14:50:34.000Z</time>
      </trkpt>
      <trkpt lat="43.75144" lon="6.40057">
        <ele>974.3</ele>
        <time>2021-09-07T14:50:34.000Z</time>
      </trkpt>
      <trkpt lat="43.75146" lon="6.40058">
        <ele>974.5</ele>
        <time>2021-09-07T14:50:35.000Z</time>
      </trkpt>
      <trkpt lat="43.75148" lon="6.40059">
        <ele>974.6</ele>
        <time>2021-09-07T14:50:36.000Z</time>
      </trkpt>
      <trkpt lat="43.75149" lon="6.4006">
        <ele>975</ele>
        <time>2021-09-07T14:50:37.000Z</time>
      </trkpt>
      <trkpt lat="43.7515" lon="6.40061">
        <ele>974.8</ele>
        <time>2021-09-07T14:50:38.000Z</time>
      </trkpt>
      <trkpt lat="43.75149" lon="6.40059">
        <ele>974.8</ele>
        <time>2021-09-07T14:50:43.000Z</time>
      </trkpt>
      <trkpt lat="43.75149" lon="6.40059">
        <ele>974.9</ele>
        <time>2021-09-07T14:50:45.000Z</time>
      </trkpt>
      <trkpt lat="43.75149" lon="6.40058">
        <ele>974.4</ele>
        <time>2021-09-07T14:50:50.000Z</time>
      </trkpt>
      <trkpt lat="43.75149" lon="6.40058">
        <ele>974.3</ele>
        <time>2021-09-07T14:50:53.000Z</time>
      </trkpt>
      <trkpt lat="43.75149" lon="6.40058">
        <ele>974.5</ele>
        <time>2021-09-07T14:50:54.000Z</time>
      </trkpt>
      <trkpt lat="43.75148" lon="6.40057">
        <ele>974.5</ele>
        <time>2021-09-07T14:50:55.000Z</time>
      </trkpt>
      <trkpt lat="43.75147" lon="6.40056">
        <ele>974.5</ele>
        <time>2021-09-07T14:51:00.000Z</time>
      </trkpt>
      <trkpt lat="43.75147" lon="6.40056">
        <ele>974.3</ele>
        <time>2021-09-07T14:51:02.000Z</time>
      </trkpt>
      <trkpt lat="43.75147" lon="6.40056">
        <ele>974.8</ele>
        <time>2021-09-07T14:51:07.000Z</time>
      </trkpt>
      <trkpt lat="43.75147" lon="6.40056">
        <ele>974</ele>
        <time>2021-09-07T14:51:11.000Z</time>
      </trkpt>
      <trkpt lat="43.75147" lon="6.40057">
        <ele>974.1</ele>
        <time>2021-09-07T14:51:13.000Z</time>
      </trkpt>
      <trkpt lat="43.75147" lon="6.40057">
        <ele>974.6</ele>
        <time>2021-09-07T14:51:18.000Z</time>
      </trkpt>
      <trkpt lat="43.75147" lon="6.40057">
        <ele>974.3</ele>
        <time>2021-09-07T14:51:21.000Z</time>
      </trkpt>
      <trkpt lat="43.75147" lon="6.40057">
        <ele>974.3</ele>
        <time>2021-09-07T14:51:22.000Z</time>
      </trkpt>
      <trkpt lat="43.75147" lon="6.40057">
        <ele>974.7</ele>
        <time>2021-09-07T14:51:27.000Z</time>
      </trkpt>
      <trkpt lat="43.75147" lon="6.40057">
        <ele>974.2</ele>
        <time>2021-09-07T14:51:32.000Z</time>
      </trkpt>
      <trkpt lat="43.75147" lon="6.40057">
        <ele>974.5</ele>
        <time>2021-09-07T14:51:37.000Z</time>
      </trkpt>
      <trkpt lat="43.75147" lon="6.40057">
        <ele>974.5</ele>
        <time>2021-09-07T14:51:42.000Z</time>
      </trkpt>
      <trkpt lat="43.75147" lon="6.40057">
        <ele>974.4</ele>
        <time>2021-09-07T14:51:47.000Z</time>
      </trkpt>
      <trkpt lat="43.75147" lon="6.40057">
        <ele>974.6</ele>
        <time>2021-09-07T14:51:52.000Z</time>
      </trkpt>
      <trkpt lat="43.75147" lon="6.40057">
        <ele>974.8</ele>
        <time>2021-09-07T14:51:54.000Z</time>
      </trkpt>
      <trkpt lat="43.75148" lon="6.40057">
        <ele>974.8</ele>
        <time>2021-09-07T14:51:57.000Z</time>
      </trkpt>
      <trkpt lat="43.7515" lon="6.40057">
        <ele>975</ele>
        <time>2021-09-07T14:51:58.000Z</time>
      </trkpt>
      <trkpt lat="43.75151" lon="6.40058">
        <ele>975.2</ele>
        <time>2021-09-07T14:51:59.000Z</time>
      </trkpt>
      <trkpt lat="43.75153" lon="6.4006">
        <ele>975.2</ele>
        <time>2021-09-07T14:52:01.000Z</time>
      </trkpt>
      <trkpt lat="43.75155" lon="6.40062">
        <ele>975.3</ele>
        <time>2021-09-07T14:52:01.000Z</time>
      </trkpt>
      <trkpt lat="43.75158" lon="6.40063">
        <ele>975.5</ele>
        <time>2021-09-07T14:52:02.000Z</time>
      </trkpt>
      <trkpt lat="43.75157" lon="6.40062">
        <ele>975.3</ele>
        <time>2021-09-07T14:52:03.000Z</time>
      </trkpt>
      <trkpt lat="43.7516" lon="6.40063">
        <ele>975.5</ele>
        <time>2021-09-07T14:52:04.000Z</time>
      </trkpt>
      <trkpt lat="43.75168" lon="6.40071">
        <ele>976.4</ele>
        <time>2021-09-07T14:52:09.000Z</time>
      </trkpt>
      <trkpt lat="43.75173" lon="6.40075">
        <ele>976.7</ele>
        <time>2021-09-07T14:52:11.000Z</time>
      </trkpt>
      <trkpt lat="43.75174" lon="6.40075">
        <ele>976.8</ele>
        <time>2021-09-07T14:52:13.000Z</time>
      </trkpt>
      <trkpt lat="43.75176" lon="6.40076">
        <ele>977</ele>
        <time>2021-09-07T14:52:14.000Z</time>
      </trkpt>
      <trkpt lat="43.75182" lon="6.40083">
        <ele>977.5</ele>
        <time>2021-09-07T14:52:16.000Z</time>
      </trkpt>
      <trkpt lat="43.75183" lon="6.40084">
        <ele>977.6</ele>
        <time>2021-09-07T14:52:17.000Z</time>
      </trkpt>
      <trkpt lat="43.75187" lon="6.40086">
        <ele>977.9</ele>
        <time>2021-09-07T14:52:19.000Z</time>
      </trkpt>
      <trkpt lat="43.75189" lon="6.40087">
        <ele>978.2</ele>
        <time>2021-09-07T14:52:20.000Z</time>
      </trkpt>
      <trkpt lat="43.75189" lon="6.40087">
        <ele>978.1</ele>
        <time>2021-09-07T14:52:21.000Z</time>
      </trkpt>
      <trkpt lat="43.75191" lon="6.40088">
        <ele>978</ele>
        <time>2021-09-07T14:52:21.000Z</time>
      </trkpt>
      <trkpt lat="43.75194" lon="6.40089">
        <ele>978.3</ele>
        <time>2021-09-07T14:52:23.000Z</time>
      </trkpt>
      <trkpt lat="43.75195" lon="6.4009">
        <ele>978.7</ele>
        <time>2021-09-07T14:52:24.000Z</time>
      </trkpt>
      <trkpt lat="43.75199" lon="6.4009">
        <ele>979.4</ele>
        <time>2021-09-07T14:52:26.000Z</time>
      </trkpt>
      <trkpt lat="43.752" lon="6.4009">
        <ele>979.4</ele>
        <time>2021-09-07T14:52:28.000Z</time>
      </trkpt>
      <trkpt lat="43.75205" lon="6.40092">
        <ele>979.6</ele>
        <time>2021-09-07T14:52:29.000Z</time>
      </trkpt>
      <trkpt lat="43.75207" lon="6.40093">
        <ele>979.8</ele>
        <time>2021-09-07T14:52:30.000Z</time>
      </trkpt>
      <trkpt lat="43.7521" lon="6.40094">
        <ele>979.8</ele>
        <time>2021-09-07T14:52:31.000Z</time>
      </trkpt>
      <trkpt lat="43.75206" lon="6.40093">
        <ele>979.6</ele>
        <time>2021-09-07T14:52:31.000Z</time>
      </trkpt>
      <trkpt lat="43.75212" lon="6.40095">
        <ele>979.8</ele>
        <time>2021-09-07T14:52:32.000Z</time>
      </trkpt>
      <trkpt lat="43.75209" lon="6.40094">
        <ele>979.8</ele>
        <time>2021-09-07T14:52:32.000Z</time>
      </trkpt>
      <trkpt lat="43.75211" lon="6.40094">
        <ele>979.8</ele>
        <time>2021-09-07T14:52:33.000Z</time>
      </trkpt>
      <trkpt lat="43.75213" lon="6.40095">
        <ele>979.7</ele>
        <time>2021-09-07T14:52:34.000Z</time>
      </trkpt>
      <trkpt lat="43.75215" lon="6.40097">
        <ele>979.9</ele>
        <time>2021-09-07T14:52:34.000Z</time>
      </trkpt>
      <trkpt lat="43.75217" lon="6.40098">
        <ele>980.3</ele>
        <time>2021-09-07T14:52:35.000Z</time>
      </trkpt>
      <trkpt lat="43.75216" lon="6.40097">
        <ele>980.2</ele>
        <time>2021-09-07T14:52:36.000Z</time>
      </trkpt>
      <trkpt lat="43.75218" lon="6.40101">
        <ele>980.4</ele>
        <time>2021-09-07T14:52:36.000Z</time>
      </trkpt>
      <trkpt lat="43.75219" lon="6.40104">
        <ele>980.3</ele>
        <time>2021-09-07T14:52:37.000Z</time>
      </trkpt>
      <trkpt lat="43.75219" lon="6.40105">
        <ele>980.3</ele>
        <time>2021-09-07T14:52:39.000Z</time>
      </trkpt>
      <trkpt lat="43.75223" lon="6.40111">
        <ele>980.8</ele>
        <time>2021-09-07T14:52:40.000Z</time>
      </trkpt>
      <trkpt lat="43.75225" lon="6.40114">
        <ele>981</ele>
        <time>2021-09-07T14:52:41.000Z</time>
      </trkpt>
      <trkpt lat="43.75224" lon="6.40113">
        <ele>981</ele>
        <time>2021-09-07T14:52:42.000Z</time>
      </trkpt>
      <trkpt lat="43.75226" lon="6.40117">
        <ele>981.2</ele>
        <time>2021-09-07T14:52:42.000Z</time>
      </trkpt>
      <trkpt lat="43.75232" lon="6.40131">
        <ele>982.5</ele>
        <time>2021-09-07T14:52:47.000Z</time>
      </trkpt>
      <trkpt lat="43.75239" lon="6.40143">
        <ele>983.5</ele>
        <time>2021-09-07T14:52:52.000Z</time>
      </trkpt>
      <trkpt lat="43.75247" lon="6.40158">
        <ele>984.6</ele>
        <time>2021-09-07T14:52:57.000Z</time>
      </trkpt>
      <trkpt lat="43.75253" lon="6.40174">
        <ele>985.7</ele>
        <time>2021-09-07T14:53:02.000Z</time>
      </trkpt>
      <trkpt lat="43.75261" lon="6.40188">
        <ele>986.9</ele>
        <time>2021-09-07T14:53:07.000Z</time>
      </trkpt>
      <trkpt lat="43.75267" lon="6.402">
        <ele>987.9</ele>
        <time>2021-09-07T14:53:12.000Z</time>
      </trkpt>
      <trkpt lat="43.75275" lon="6.40216">
        <ele>988.6</ele>
        <time>2021-09-07T14:53:17.000Z</time>
      </trkpt>
      <trkpt lat="43.75283" lon="6.40229">
        <ele>989.7</ele>
        <time>2021-09-07T14:53:22.000Z</time>
      </trkpt>
      <trkpt lat="43.75291" lon="6.40243">
        <ele>990.4</ele>
        <time>2021-09-07T14:53:27.000Z</time>
      </trkpt>
      <trkpt lat="43.753" lon="6.40256">
        <ele>991.1</ele>
        <time>2021-09-07T14:53:32.000Z</time>
      </trkpt>
      <trkpt lat="43.75307" lon="6.40268">
        <ele>991.5</ele>
        <time>2021-09-07T14:53:37.000Z</time>
      </trkpt>
      <trkpt lat="43.75312" lon="6.40283">
        <ele>992.3</ele>
        <time>2021-09-07T14:53:42.000Z</time>
      </trkpt>
      <trkpt lat="43.75314" lon="6.40298">
        <ele>992.1</ele>
        <time>2021-09-07T14:53:47.000Z</time>
      </trkpt>
      <trkpt lat="43.75313" lon="6.40318">
        <ele>992.3</ele>
        <time>2021-09-07T14:53:52.000Z</time>
      </trkpt>
      <trkpt lat="43.75311" lon="6.40342">
        <ele>992.7</ele>
        <time>2021-09-07T14:53:57.000Z</time>
      </trkpt>
      <trkpt lat="43.75308" lon="6.40361">
        <ele>992.9</ele>
        <time>2021-09-07T14:54:02.000Z</time>
      </trkpt>
      <trkpt lat="43.75306" lon="6.40383">
        <ele>993</ele>
        <time>2021-09-07T14:54:07.000Z</time>
      </trkpt>
      <trkpt lat="43.75304" lon="6.40404">
        <ele>992.9</ele>
        <time>2021-09-07T14:54:12.000Z</time>
      </trkpt>
      <trkpt lat="43.75298" lon="6.40429">
        <ele>993.5</ele>
        <time>2021-09-07T14:54:17.000Z</time>
      </trkpt>
      <trkpt lat="43.75291" lon="6.40452">
        <ele>994.3</ele>
        <time>2021-09-07T14:54:22.000Z</time>
      </trkpt>
      <trkpt lat="43.75284" lon="6.40474">
        <ele>995.1</ele>
        <time>2021-09-07T14:54:27.000Z</time>
      </trkpt>
      <trkpt lat="43.75276" lon="6.40493">
        <ele>995.3</ele>
        <time>2021-09-07T14:54:32.000Z</time>
      </trkpt>
      <trkpt lat="43.7527" lon="6.40514">
        <ele>995.8</ele>
        <time>2021-09-07T14:54:37.000Z</time>
      </trkpt>
      <trkpt lat="43.75262" lon="6.40535">
        <ele>996</ele>
        <time>2021-09-07T14:54:42.000Z</time>
      </trkpt>
      <trkpt lat="43.75255" lon="6.40563">
        <ele>996.8</ele>
        <time>2021-09-07T14:54:47.000Z</time>
      </trkpt>
      <trkpt lat="43.75254" lon="6.40592">
        <ele>996.2</ele>
        <time>2021-09-07T14:54:52.000Z</time>
      </trkpt>
      <trkpt lat="43.75255" lon="6.40617">
        <ele>996.9</ele>
        <time>2021-09-07T14:54:57.000Z</time>
      </trkpt>
      <trkpt lat="43.75257" lon="6.40646">
        <ele>997.6</ele>
        <time>2021-09-07T14:55:02.000Z</time>
      </trkpt>
      <trkpt lat="43.75259" lon="6.40677">
        <ele>997.6</ele>
        <time>2021-09-07T14:55:07.000Z</time>
      </trkpt>
      <trkpt lat="43.7526" lon="6.40706">
        <ele>998.1</ele>
        <time>2021-09-07T14:55:12.000Z</time>
      </trkpt>
      <trkpt lat="43.75262" lon="6.40736">
        <ele>998.1</ele>
        <time>2021-09-07T14:55:17.000Z</time>
      </trkpt>
      <trkpt lat="43.75262" lon="6.40762">
        <ele>998.4</ele>
        <time>2021-09-07T14:55:22.000Z</time>
      </trkpt>
      <trkpt lat="43.75265" lon="6.40787">
        <ele>998.6</ele>
        <time>2021-09-07T14:55:27.000Z</time>
      </trkpt>
      <trkpt lat="43.75264" lon="6.40806">
        <ele>998.8</ele>
        <time>2021-09-07T14:55:32.000Z</time>
      </trkpt>
      <trkpt lat="43.75265" lon="6.4083">
        <ele>999.2</ele>
        <time>2021-09-07T14:55:37.000Z</time>
      </trkpt>
      <trkpt lat="43.75259" lon="6.40849">
        <ele>999.8</ele>
        <time>2021-09-07T14:55:42.000Z</time>
      </trkpt>
      <trkpt lat="43.75254" lon="6.40876">
        <ele>1000.9</ele>
        <time>2021-09-07T14:55:47.000Z</time>
      </trkpt>
      <trkpt lat="43.7525" lon="6.40894">
        <ele>1001.4</ele>
        <time>2021-09-07T14:55:52.000Z</time>
      </trkpt>
      <trkpt lat="43.75244" lon="6.40914">
        <ele>1002.7</ele>
        <time>2021-09-07T14:55:57.000Z</time>
      </trkpt>
      <trkpt lat="43.7524" lon="6.40935">
        <ele>1003.6</ele>
        <time>2021-09-07T14:56:02.000Z</time>
      </trkpt>
      <trkpt lat="43.75236" lon="6.40956">
        <ele>1004.7</ele>
        <time>2021-09-07T14:56:07.000Z</time>
      </trkpt>
      <trkpt lat="43.7523" lon="6.40978">
        <ele>1005.6</ele>
        <time>2021-09-07T14:56:12.000Z</time>
      </trkpt>
      <trkpt lat="43.75226" lon="6.41">
        <ele>1006.5</ele>
        <time>2021-09-07T14:56:17.000Z</time>
      </trkpt>
      <trkpt lat="43.75222" lon="6.41022">
        <ele>1007.3</ele>
        <time>2021-09-07T14:56:22.000Z</time>
      </trkpt>
      <trkpt lat="43.75217" lon="6.41045">
        <ele>1008.7</ele>
        <time>2021-09-07T14:56:27.000Z</time>
      </trkpt>
      <trkpt lat="43.75215" lon="6.41066">
        <ele>1009.6</ele>
        <time>2021-09-07T14:56:32.000Z</time>
      </trkpt>
      <trkpt lat="43.75214" lon="6.41089">
        <ele>1010.9</ele>
        <time>2021-09-07T14:56:37.000Z</time>
      </trkpt>
      <trkpt lat="43.75214" lon="6.41111">
        <ele>1012.9</ele>
        <time>2021-09-07T14:56:42.000Z</time>
      </trkpt>
      <trkpt lat="43.75214" lon="6.41131">
        <ele>1013.3</ele>
        <time>2021-09-07T14:56:47.000Z</time>
      </trkpt>
      <trkpt lat="43.75214" lon="6.41153">
        <ele>1014.7</ele>
        <time>2021-09-07T14:56:52.000Z</time>
      </trkpt>
      <trkpt lat="43.75214" lon="6.41175">
        <ele>1015.6</ele>
        <time>2021-09-07T14:56:57.000Z</time>
      </trkpt>
      <trkpt lat="43.75214" lon="6.41198">
        <ele>1017</ele>
        <time>2021-09-07T14:57:02.000Z</time>
      </trkpt>
      <trkpt lat="43.75215" lon="6.4122">
        <ele>1017.1</ele>
        <time>2021-09-07T14:57:07.000Z</time>
      </trkpt>
      <trkpt lat="43.75216" lon="6.41245">
        <ele>1018</ele>
        <time>2021-09-07T14:57:12.000Z</time>
      </trkpt>
      <trkpt lat="43.75216" lon="6.41255">
        <ele>1018.4</ele>
        <time>2021-09-07T14:57:14.000Z</time>
      </trkpt>
      <trkpt lat="43.75216" lon="6.41259">
        <ele>1018.4</ele>
        <time>2021-09-07T14:57:16.000Z</time>
      </trkpt>
      <trkpt lat="43.75217" lon="6.41271">
        <ele>1018.1</ele>
        <time>2021-09-07T14:57:17.000Z</time>
      </trkpt>
      <trkpt lat="43.75217" lon="6.41277">
        <ele>1018.1</ele>
        <time>2021-09-07T14:57:18.000Z</time>
      </trkpt>
      <trkpt lat="43.75217" lon="6.41283">
        <ele>1017.7</ele>
        <time>2021-09-07T14:57:19.000Z</time>
      </trkpt>
      <trkpt lat="43.75217" lon="6.41274">
        <ele>1018.3</ele>
        <time>2021-09-07T14:57:19.000Z</time>
      </trkpt>
      <trkpt lat="43.75217" lon="6.4128">
        <ele>1017.9</ele>
        <time>2021-09-07T14:57:20.000Z</time>
      </trkpt>
      <trkpt lat="43.75217" lon="6.41288">
        <ele>1017.8</ele>
        <time>2021-09-07T14:57:21.000Z</time>
      </trkpt>
      <trkpt lat="43.75218" lon="6.413">
        <ele>1018.1</ele>
        <time>2021-09-07T14:57:22.000Z</time>
      </trkpt>
      <trkpt lat="43.75218" lon="6.41306">
        <ele>1018</ele>
        <time>2021-09-07T14:57:23.000Z</time>
      </trkpt>
      <trkpt lat="43.75218" lon="6.41305">
        <ele>1018.1</ele>
        <time>2021-09-07T14:57:24.000Z</time>
      </trkpt>
      <trkpt lat="43.75218" lon="6.41311">
        <ele>1017.7</ele>
        <time>2021-09-07T14:57:25.000Z</time>
      </trkpt>
      <trkpt lat="43.75218" lon="6.41319">
        <ele>1018.2</ele>
        <time>2021-09-07T14:57:25.000Z</time>
      </trkpt>
      <trkpt lat="43.75218" lon="6.41322">
        <ele>1018.2</ele>
        <time>2021-09-07T14:57:27.000Z</time>
      </trkpt>
      <trkpt lat="43.75216" lon="6.41343">
        <ele>1018.1</ele>
        <time>2021-09-07T14:57:29.000Z</time>
      </trkpt>
      <trkpt lat="43.75215" lon="6.41349">
        <ele>1018.2</ele>
        <time>2021-09-07T14:57:31.000Z</time>
      </trkpt>
      <trkpt lat="43.75213" lon="6.41356">
        <ele>1018.6</ele>
        <time>2021-09-07T14:57:31.000Z</time>
      </trkpt>
      <trkpt lat="43.75212" lon="6.41362">
        <ele>1018.5</ele>
        <time>2021-09-07T14:57:33.000Z</time>
      </trkpt>
      <trkpt lat="43.75203" lon="6.41376">
        <ele>1019.7</ele>
        <time>2021-09-07T14:57:35.000Z</time>
      </trkpt>
      <trkpt lat="43.75199" lon="6.41379">
        <ele>1020</ele>
        <time>2021-09-07T14:57:36.000Z</time>
      </trkpt>
      <trkpt lat="43.75201" lon="6.41377">
        <ele>1019.7</ele>
        <time>2021-09-07T14:57:37.000Z</time>
      </trkpt>
      <trkpt lat="43.75196" lon="6.41382">
        <ele>1020.3</ele>
        <time>2021-09-07T14:57:38.000Z</time>
      </trkpt>
      <trkpt lat="43.75192" lon="6.41384">
        <ele>1020.3</ele>
        <time>2021-09-07T14:57:38.000Z</time>
      </trkpt>
      <trkpt lat="43.75191" lon="6.41385">
        <ele>1020.2</ele>
        <time>2021-09-07T14:57:40.000Z</time>
      </trkpt>
      <trkpt lat="43.75184" lon="6.41389">
        <ele>1020.1</ele>
        <time>2021-09-07T14:57:40.000Z</time>
      </trkpt>
      <trkpt lat="43.7518" lon="6.41392">
        <ele>1020.3</ele>
        <time>2021-09-07T14:57:41.000Z</time>
      </trkpt>
      <trkpt lat="43.75182" lon="6.41391">
        <ele>1020.3</ele>
        <time>2021-09-07T14:57:42.000Z</time>
      </trkpt>
      <trkpt lat="43.75178" lon="6.41393">
        <ele>1020.5</ele>
        <time>2021-09-07T14:57:43.000Z</time>
      </trkpt>
      <trkpt lat="43.75173" lon="6.41396">
        <ele>1020.4</ele>
        <time>2021-09-07T14:57:43.000Z</time>
      </trkpt>
      <trkpt lat="43.75169" lon="6.41399">
        <ele>1020.5</ele>
        <time>2021-09-07T14:57:44.000Z</time>
      </trkpt>
      <trkpt lat="43.75165" lon="6.41402">
        <ele>1020.5</ele>
        <time>2021-09-07T14:57:45.000Z</time>
      </trkpt>
      <trkpt lat="43.7517" lon="6.41398">
        <ele>1020.4</ele>
        <time>2021-09-07T14:57:45.000Z</time>
      </trkpt>
      <trkpt lat="43.75162" lon="6.41405">
        <ele>1020.7</ele>
        <time>2021-09-07T14:57:46.000Z</time>
      </trkpt>
      <trkpt lat="43.75166" lon="6.41401">
        <ele>1020.6</ele>
        <time>2021-09-07T14:57:46.000Z</time>
      </trkpt>
      <trkpt lat="43.75163" lon="6.41404">
        <ele>1020.6</ele>
        <time>2021-09-07T14:57:47.000Z</time>
      </trkpt>
      <trkpt lat="43.75158" lon="6.41408">
        <ele>1020.5</ele>
        <time>2021-09-07T14:57:47.000Z</time>
      </trkpt>
      <trkpt lat="43.75147" lon="6.41419">
        <ele>1021.5</ele>
        <time>2021-09-07T14:57:52.000Z</time>
      </trkpt>
      <trkpt lat="43.75136" lon="6.4144">
        <ele>1022</ele>
        <time>2021-09-07T14:57:55.000Z</time>
      </trkpt>
      <trkpt lat="43.75134" lon="6.41444">
        <ele>1022.2</ele>
        <time>2021-09-07T14:57:56.000Z</time>
      </trkpt>
      <trkpt lat="43.75135" lon="6.41442">
        <ele>1022.1</ele>
        <time>2021-09-07T14:57:57.000Z</time>
      </trkpt>
      <trkpt lat="43.75132" lon="6.41448">
        <ele>1022.4</ele>
        <time>2021-09-07T14:57:57.000Z</time>
      </trkpt>
      <trkpt lat="43.75128" lon="6.4146">
        <ele>1022.8</ele>
        <time>2021-09-07T14:57:59.000Z</time>
      </trkpt>
      <trkpt lat="43.75127" lon="6.41467">
        <ele>1022.3</ele>
        <time>2021-09-07T14:58:00.000Z</time>
      </trkpt>
      <trkpt lat="43.75127" lon="6.41465">
        <ele>1022.4</ele>
        <time>2021-09-07T14:58:01.000Z</time>
      </trkpt>
      <trkpt lat="43.75125" lon="6.41472">
        <ele>1022.4</ele>
        <time>2021-09-07T14:58:01.000Z</time>
      </trkpt>
      <trkpt lat="43.75121" lon="6.4149">
        <ele>1023.1</ele>
        <time>2021-09-07T14:58:04.000Z</time>
      </trkpt>
      <trkpt lat="43.7512" lon="6.41497">
        <ele>1023.6</ele>
        <time>2021-09-07T14:58:05.000Z</time>
      </trkpt>
      <trkpt lat="43.7512" lon="6.41494">
        <ele>1023.4</ele>
        <time>2021-09-07T14:58:06.000Z</time>
      </trkpt>
      <trkpt lat="43.75119" lon="6.41503">
        <ele>1024</ele>
        <time>2021-09-07T14:58:07.000Z</time>
      </trkpt>
      <trkpt lat="43.75119" lon="6.4151">
        <ele>1024.1</ele>
        <time>2021-09-07T14:58:07.000Z</time>
      </trkpt>
      <trkpt lat="43.7512" lon="6.41516">
        <ele>1024.3</ele>
        <time>2021-09-07T14:58:08.000Z</time>
      </trkpt>
      <trkpt lat="43.75119" lon="6.41515">
        <ele>1024.3</ele>
        <time>2021-09-07T14:58:09.000Z</time>
      </trkpt>
      <trkpt lat="43.7512" lon="6.41523">
        <ele>1024.4</ele>
        <time>2021-09-07T14:58:10.000Z</time>
      </trkpt>
      <trkpt lat="43.75123" lon="6.41536">
        <ele>1024.7</ele>
        <time>2021-09-07T14:58:11.000Z</time>
      </trkpt>
      <trkpt lat="43.75126" lon="6.41545">
        <ele>1024.4</ele>
        <time>2021-09-07T14:58:12.000Z</time>
      </trkpt>
      <trkpt lat="43.75125" lon="6.4154">
        <ele>1024.5</ele>
        <time>2021-09-07T14:58:13.000Z</time>
      </trkpt>
      <trkpt lat="43.75129" lon="6.41552">
        <ele>1024.5</ele>
        <time>2021-09-07T14:58:13.000Z</time>
      </trkpt>
      <trkpt lat="43.75148" lon="6.41586">
        <ele>1024.4</ele>
        <time>2021-09-07T14:58:18.000Z</time>
      </trkpt>
      <trkpt lat="43.75168" lon="6.41626">
        <ele>1023.5</ele>
        <time>2021-09-07T14:58:23.000Z</time>
      </trkpt>
      <trkpt lat="43.75182" lon="6.41667">
        <ele>1023.1</ele>
        <time>2021-09-07T14:58:28.000Z</time>
      </trkpt>
      <trkpt lat="43.75185" lon="6.41711">
        <ele>1023.1</ele>
        <time>2021-09-07T14:58:33.000Z</time>
      </trkpt>
      <trkpt lat="43.75187" lon="6.41752">
        <ele>1023.6</ele>
        <time>2021-09-07T14:58:38.000Z</time>
      </trkpt>
      <trkpt lat="43.7518" lon="6.41787">
        <ele>1023.6</ele>
        <time>2021-09-07T14:58:43.000Z</time>
      </trkpt>
      <trkpt lat="43.75167" lon="6.41818">
        <ele>1023.2</ele>
        <time>2021-09-07T14:58:48.000Z</time>
      </trkpt>
      <trkpt lat="43.75153" lon="6.41852">
        <ele>1023.2</ele>
        <time>2021-09-07T14:58:53.000Z</time>
      </trkpt>
      <trkpt lat="43.75142" lon="6.41872">
        <ele>1022.2</ele>
        <time>2021-09-07T14:58:58.000Z</time>
      </trkpt>
      <trkpt lat="43.7513" lon="6.41885">
        <ele>1021.5</ele>
        <time>2021-09-07T14:59:03.000Z</time>
      </trkpt>
      <trkpt lat="43.75113" lon="6.419">
        <ele>1021.5</ele>
        <time>2021-09-07T14:59:08.000Z</time>
      </trkpt>
      <trkpt lat="43.75096" lon="6.41913">
        <ele>1021.6</ele>
        <time>2021-09-07T14:59:13.000Z</time>
      </trkpt>
      <trkpt lat="43.75091" lon="6.41916">
        <ele>1020.9</ele>
        <time>2021-09-07T14:59:18.000Z</time>
      </trkpt>
      <trkpt lat="43.75091" lon="6.41916">
        <ele>1020.7</ele>
        <time>2021-09-07T14:59:19.000Z</time>
      </trkpt>
      <trkpt lat="43.75091" lon="6.41916">
        <ele>1020.8</ele>
        <time>2021-09-07T14:59:24.000Z</time>
      </trkpt>
      <trkpt lat="43.75091" lon="6.41916">
        <ele>1020.8</ele>
        <time>2021-09-07T14:59:29.000Z</time>
      </trkpt>
      <trkpt lat="43.75091" lon="6.41916">
        <ele>1020.7</ele>
        <time>2021-09-07T14:59:34.000Z</time>
      </trkpt>
      <trkpt lat="43.75091" lon="6.41916">
        <ele>1020.9</ele>
        <time>2021-09-07T14:59:39.000Z</time>
      </trkpt>
      <trkpt lat="43.75091" lon="6.41916">
        <ele>1020.9</ele>
        <time>2021-09-07T14:59:44.000Z</time>
      </trkpt>
      <trkpt lat="43.75091" lon="6.41916">
        <ele>1021.1</ele>
        <time>2021-09-07T14:59:49.000Z</time>
      </trkpt>
      <trkpt lat="43.75091" lon="6.41916">
        <ele>1021</ele>
        <time>2021-09-07T14:59:54.000Z</time>
      </trkpt>
      <trkpt lat="43.75091" lon="6.41916">
        <ele>1020.8</ele>
        <time>2021-09-07T14:59:59.000Z</time>
      </trkpt>
      <trkpt lat="43.75091" lon="6.41916">
        <ele>1021.2</ele>
        <time>2021-09-07T15:00:04.000Z</time>
      </trkpt>
      <trkpt lat="43.75091" lon="6.41916">
        <ele>1021.3</ele>
        <time>2021-09-07T15:00:09.000Z</time>
      </trkpt>
      <trkpt lat="43.75091" lon="6.41916">
        <ele>1021.3</ele>
        <time>2021-09-07T15:00:14.000Z</time>
      </trkpt>
      <trkpt lat="43.75091" lon="6.41916">
        <ele>1021.3</ele>
        <time>2021-09-07T15:00:19.000Z</time>
      </trkpt>
      <trkpt lat="43.75091" lon="6.41916">
        <ele>1021.4</ele>
        <time>2021-09-07T15:00:24.000Z</time>
      </trkpt>
      <trkpt lat="43.75091" lon="6.41916">
        <ele>1021.4</ele>
        <time>2021-09-07T15:00:29.000Z</time>
      </trkpt>
      <trkpt lat="43.75091" lon="6.41916">
        <ele>1020.7</ele>
        <time>2021-09-07T15:00:34.000Z</time>
      </trkpt>
      <trkpt lat="43.75093" lon="6.41916">
        <ele>1020.3</ele>
        <time>2021-09-07T15:00:36.000Z</time>
      </trkpt>
      <trkpt lat="43.75094" lon="6.41915">
        <ele>1020.6</ele>
        <time>2021-09-07T15:00:41.000Z</time>
      </trkpt>
      <trkpt lat="43.75095" lon="6.41915">
        <ele>1020.4</ele>
        <time>2021-09-07T15:00:46.000Z</time>
      </trkpt>
      <trkpt lat="43.75095" lon="6.41915">
        <ele>1020.7</ele>
        <time>2021-09-07T15:00:51.000Z</time>
      </trkpt>
      <trkpt lat="43.75095" lon="6.41915">
        <ele>1020.3</ele>
        <time>2021-09-07T15:00:56.000Z</time>
      </trkpt>
      <trkpt lat="43.75095" lon="6.41914">
        <ele>1020.7</ele>
        <time>2021-09-07T15:01:01.000Z</time>
      </trkpt>
      <trkpt lat="43.75095" lon="6.41914">
        <ele>1020.6</ele>
        <time>2021-09-07T15:01:06.000Z</time>
      </trkpt>
      <trkpt lat="43.75095" lon="6.41914">
        <ele>1020.4</ele>
        <time>2021-09-07T15:01:11.000Z</time>
      </trkpt>
      <trkpt lat="43.75095" lon="6.41915">
        <ele>1020.3</ele>
        <time>2021-09-07T15:01:16.000Z</time>
      </trkpt>
      <trkpt lat="43.75095" lon="6.41914">
        <ele>1020.4</ele>
        <time>2021-09-07T15:01:21.000Z</time>
      </trkpt>
      <trkpt lat="43.75095" lon="6.41914">
        <ele>1020.5</ele>
        <time>2021-09-07T15:01:26.000Z</time>
      </trkpt>
      <trkpt lat="43.75095" lon="6.41914">
        <ele>1020.6</ele>
        <time>2021-09-07T15:01:31.000Z</time>
      </trkpt>
      <trkpt lat="43.75095" lon="6.41915">
        <ele>1020.9</ele>
        <time>2021-09-07T15:01:36.000Z</time>
      </trkpt>
      <trkpt lat="43.75095" lon="6.41915">
        <ele>1020.7</ele>
        <time>2021-09-07T15:01:41.000Z</time>
      </trkpt>
      <trkpt lat="43.75095" lon="6.41916">
        <ele>1020.9</ele>
        <time>2021-09-07T15:01:43.000Z</time>
      </trkpt>
      <trkpt lat="43.75085" lon="6.41918">
        <ele>1021.6</ele>
        <time>2021-09-07T15:01:48.000Z</time>
      </trkpt>
      <trkpt lat="43.75068" lon="6.41925">
        <ele>1022</ele>
        <time>2021-09-07T15:01:53.000Z</time>
      </trkpt>
      <trkpt lat="43.75045" lon="6.4193">
        <ele>1021.5</ele>
        <time>2021-09-07T15:01:58.000Z</time>
      </trkpt>
      <trkpt lat="43.75025" lon="6.41932">
        <ele>1021.8</ele>
        <time>2021-09-07T15:02:02.000Z</time>
      </trkpt>
      <trkpt lat="43.75028" lon="6.41932">
        <ele>1021.9</ele>
        <time>2021-09-07T15:02:03.000Z</time>
      </trkpt>
      <trkpt lat="43.75022" lon="6.41932">
        <ele>1021.7</ele>
        <time>2021-09-07T15:02:04.000Z</time>
      </trkpt>
      <trkpt lat="43.75007" lon="6.41933">
        <ele>1021.8</ele>
        <time>2021-09-07T15:02:05.000Z</time>
      </trkpt>
      <trkpt lat="43.75001" lon="6.41933">
        <ele>1021.6</ele>
        <time>2021-09-07T15:02:06.000Z</time>
      </trkpt>
      <trkpt lat="43.74972" lon="6.41934">
        <ele>1021.5</ele>
        <time>2021-09-07T15:02:11.000Z</time>
      </trkpt>
      <trkpt lat="43.74942" lon="6.41929">
        <ele>1021.4</ele>
        <time>2021-09-07T15:02:16.000Z</time>
      </trkpt>
      <trkpt lat="43.7491" lon="6.41917">
        <ele>1021.5</ele>
        <time>2021-09-07T15:02:21.000Z</time>
      </trkpt>
      <trkpt lat="43.74878" lon="6.41894">
        <ele>1020.9</ele>
        <time>2021-09-07T15:02:26.000Z</time>
      </trkpt>
      <trkpt lat="43.74843" lon="6.41878">
        <ele>1021</ele>
        <time>2021-09-07T15:02:31.000Z</time>
      </trkpt>
      <trkpt lat="43.74806" lon="6.41884">
        <ele>1020.9</ele>
        <time>2021-09-07T15:02:36.000Z</time>
      </trkpt>
      <trkpt lat="43.74769" lon="6.41896">
        <ele>1020.1</ele>
        <time>2021-09-07T15:02:41.000Z</time>
      </trkpt>
      <trkpt lat="43.74737" lon="6.41914">
        <ele>1019.1</ele>
        <time>2021-09-07T15:02:46.000Z</time>
      </trkpt>
      <trkpt lat="43.74709" lon="6.41945">
        <ele>1019.2</ele>
        <time>2021-09-07T15:02:51.000Z</time>
      </trkpt>
      <trkpt lat="43.74683" lon="6.41974">
        <ele>1019.1</ele>
        <time>2021-09-07T15:02:56.000Z</time>
      </trkpt>
      <trkpt lat="43.74653" lon="6.41998">
        <ele>1018.6</ele>
        <time>2021-09-07T15:03:01.000Z</time>
      </trkpt>
      <trkpt lat="43.74623" lon="6.42024">
        <ele>1017.7</ele>
        <time>2021-09-07T15:03:06.000Z</time>
      </trkpt>
      <trkpt lat="43.74594" lon="6.4205">
        <ele>1017.4</ele>
        <time>2021-09-07T15:03:11.000Z</time>
      </trkpt>
      <trkpt lat="43.74563" lon="6.42078">
        <ele>1016.2</ele>
        <time>2021-09-07T15:03:16.000Z</time>
      </trkpt>
      <trkpt lat="43.74531" lon="6.42106">
        <ele>1015.8</ele>
        <time>2021-09-07T15:03:21.000Z</time>
      </trkpt>
      <trkpt lat="43.74502" lon="6.42144">
        <ele>1015</ele>
        <time>2021-09-07T15:03:26.000Z</time>
      </trkpt>
      <trkpt lat="43.74481" lon="6.4219">
        <ele>1015</ele>
        <time>2021-09-07T15:03:31.000Z</time>
      </trkpt>
      <trkpt lat="43.74454" lon="6.42227">
        <ele>1013.8</ele>
        <time>2021-09-07T15:03:36.000Z</time>
      </trkpt>
      <trkpt lat="43.74423" lon="6.42254">
        <ele>1014.2</ele>
        <time>2021-09-07T15:03:41.000Z</time>
      </trkpt>
      <trkpt lat="43.7439" lon="6.42265">
        <ele>1012.4</ele>
        <time>2021-09-07T15:03:46.000Z</time>
      </trkpt>
      <trkpt lat="43.74355" lon="6.42273">
        <ele>1012.2</ele>
        <time>2021-09-07T15:03:51.000Z</time>
      </trkpt>
      <trkpt lat="43.74317" lon="6.42274">
        <ele>1011.9</ele>
        <time>2021-09-07T15:03:56.000Z</time>
      </trkpt>
      <trkpt lat="43.74282" lon="6.42289">
        <ele>1010.9</ele>
        <time>2021-09-07T15:04:01.000Z</time>
      </trkpt>
      <trkpt lat="43.74253" lon="6.42325">
        <ele>1010.9</ele>
        <time>2021-09-07T15:04:06.000Z</time>
      </trkpt>
      <trkpt lat="43.7423" lon="6.42366">
        <ele>1010</ele>
        <time>2021-09-07T15:04:11.000Z</time>
      </trkpt>
      <trkpt lat="43.74205" lon="6.42407">
        <ele>1009.6</ele>
        <time>2021-09-07T15:04:16.000Z</time>
      </trkpt>
      <trkpt lat="43.74183" lon="6.42452">
        <ele>1009.5</ele>
        <time>2021-09-07T15:04:21.000Z</time>
      </trkpt>
      <trkpt lat="43.74159" lon="6.42495">
        <ele>1009</ele>
        <time>2021-09-07T15:04:26.000Z</time>
      </trkpt>
      <trkpt lat="43.7413" lon="6.42534">
        <ele>1008.3</ele>
        <time>2021-09-07T15:04:31.000Z</time>
      </trkpt>
      <trkpt lat="43.741" lon="6.42573">
        <ele>1007.8</ele>
        <time>2021-09-07T15:04:36.000Z</time>
      </trkpt>
      <trkpt lat="43.74067" lon="6.42609">
        <ele>1006.9</ele>
        <time>2021-09-07T15:04:41.000Z</time>
      </trkpt>
      <trkpt lat="43.74033" lon="6.42646">
        <ele>1006.2</ele>
        <time>2021-09-07T15:04:46.000Z</time>
      </trkpt>
      <trkpt lat="43.74013" lon="6.42698">
        <ele>1005.6</ele>
        <time>2021-09-07T15:04:51.000Z</time>
      </trkpt>
      <trkpt lat="43.73993" lon="6.42749">
        <ele>1005.2</ele>
        <time>2021-09-07T15:04:56.000Z</time>
      </trkpt>
      <trkpt lat="43.73964" lon="6.42791">
        <ele>1004.3</ele>
        <time>2021-09-07T15:05:01.000Z</time>
      </trkpt>
      <trkpt lat="43.73933" lon="6.42835">
        <ele>1003.2</ele>
        <time>2021-09-07T15:05:06.000Z</time>
      </trkpt>
      <trkpt lat="43.7391" lon="6.42887">
        <ele>1002.5</ele>
        <time>2021-09-07T15:05:11.000Z</time>
      </trkpt>
      <trkpt lat="43.739" lon="6.42949">
        <ele>1002.6</ele>
        <time>2021-09-07T15:05:16.000Z</time>
      </trkpt>
      <trkpt lat="43.73888" lon="6.43009">
        <ele>1002.1</ele>
        <time>2021-09-07T15:05:21.000Z</time>
      </trkpt>
      <trkpt lat="43.73861" lon="6.43058">
        <ele>1001.9</ele>
        <time>2021-09-07T15:05:26.000Z</time>
      </trkpt>
      <trkpt lat="43.73824" lon="6.43097">
        <ele>1001.1</ele>
        <time>2021-09-07T15:05:31.000Z</time>
      </trkpt>
      <trkpt lat="43.73784" lon="6.43124">
        <ele>1000.9</ele>
        <time>2021-09-07T15:05:36.000Z</time>
      </trkpt>
      <trkpt lat="43.73744" lon="6.43152">
        <ele>999.5</ele>
        <time>2021-09-07T15:05:41.000Z</time>
      </trkpt>
      <trkpt lat="43.73708" lon="6.43185">
        <ele>997.4</ele>
        <time>2021-09-07T15:05:46.000Z</time>
      </trkpt>
      <trkpt lat="43.7368" lon="6.43219">
        <ele>996.6</ele>
        <time>2021-09-07T15:05:51.000Z</time>
      </trkpt>
      <trkpt lat="43.73657" lon="6.43262">
        <ele>997.1</ele>
        <time>2021-09-07T15:05:56.000Z</time>
      </trkpt>
      <trkpt lat="43.73648" lon="6.43297">
        <ele>996.7</ele>
        <time>2021-09-07T15:06:01.000Z</time>
      </trkpt>
      <trkpt lat="43.73642" lon="6.43327">
        <ele>996.2</ele>
        <time>2021-09-07T15:06:06.000Z</time>
      </trkpt>
      <trkpt lat="43.73638" lon="6.43355">
        <ele>996.1</ele>
        <time>2021-09-07T15:06:11.000Z</time>
      </trkpt>
      <trkpt lat="43.73638" lon="6.43362">
        <ele>996.2</ele>
        <time>2021-09-07T15:06:13.000Z</time>
      </trkpt>
      <trkpt lat="43.7364" lon="6.43364">
        <ele>996.2</ele>
        <time>2021-09-07T15:06:14.000Z</time>
      </trkpt>
      <trkpt lat="43.73639" lon="6.43363">
        <ele>996.2</ele>
        <time>2021-09-07T15:06:16.000Z</time>
      </trkpt>
      <trkpt lat="43.73642" lon="6.43363">
        <ele>996.2</ele>
        <time>2021-09-07T15:06:17.000Z</time>
      </trkpt>
      <trkpt lat="43.73651" lon="6.43358">
        <ele>995.8</ele>
        <time>2021-09-07T15:06:18.000Z</time>
      </trkpt>
      <trkpt lat="43.73658" lon="6.43363">
        <ele>995.1</ele>
        <time>2021-09-07T15:06:19.000Z</time>
      </trkpt>
      <trkpt lat="43.73663" lon="6.43368">
        <ele>995.1</ele>
        <time>2021-09-07T15:06:20.000Z</time>
      </trkpt>
      <trkpt lat="43.73653" lon="6.43359">
        <ele>995.7</ele>
        <time>2021-09-07T15:06:21.000Z</time>
      </trkpt>
      <trkpt lat="43.73703" lon="6.43405">
        <ele>993.3</ele>
        <time>2021-09-07T15:06:26.000Z</time>
      </trkpt>
      <trkpt lat="43.73746" lon="6.43447">
        <ele>989.4</ele>
        <time>2021-09-07T15:06:31.000Z</time>
      </trkpt>
      <trkpt lat="43.73796" lon="6.43494">
        <ele>984.3</ele>
        <time>2021-09-07T15:06:36.000Z</time>
      </trkpt>
      <trkpt lat="43.73852" lon="6.43546">
        <ele>980.2</ele>
        <time>2021-09-07T15:06:41.000Z</time>
      </trkpt>
      <trkpt lat="43.73916" lon="6.43597">
        <ele>973.5</ele>
        <time>2021-09-07T15:06:46.000Z</time>
      </trkpt>
      <trkpt lat="43.73991" lon="6.43635">
        <ele>967.3</ele>
        <time>2021-09-07T15:06:51.000Z</time>
      </trkpt>
      <trkpt lat="43.74074" lon="6.43659">
        <ele>959.1</ele>
        <time>2021-09-07T15:06:56.000Z</time>
      </trkpt>
      <trkpt lat="43.74154" lon="6.43675">
        <ele>950.5</ele>
        <time>2021-09-07T15:07:01.000Z</time>
      </trkpt>
      <trkpt lat="43.74236" lon="6.4365">
        <ele>943.4</ele>
        <time>2021-09-07T15:07:06.000Z</time>
      </trkpt>
      <trkpt lat="43.74312" lon="6.43641">
        <ele>933.6</ele>
        <time>2021-09-07T15:07:11.000Z</time>
      </trkpt>
      <trkpt lat="43.74358" lon="6.43653">
        <ele>927.3</ele>
        <time>2021-09-07T15:07:16.000Z</time>
      </trkpt>
      <trkpt lat="43.7441" lon="6.43662">
        <ele>923</ele>
        <time>2021-09-07T15:07:21.000Z</time>
      </trkpt>
      <trkpt lat="43.74469" lon="6.43651">
        <ele>918.3</ele>
        <time>2021-09-07T15:07:26.000Z</time>
      </trkpt>
      <trkpt lat="43.74523" lon="6.4361">
        <ele>914</ele>
        <time>2021-09-07T15:07:31.000Z</time>
      </trkpt>
      <trkpt lat="43.74573" lon="6.43561">
        <ele>909.6</ele>
        <time>2021-09-07T15:07:36.000Z</time>
      </trkpt>
      <trkpt lat="43.7459" lon="6.43482">
        <ele>902.4</ele>
        <time>2021-09-07T15:07:41.000Z</time>
      </trkpt>
      <trkpt lat="43.74613" lon="6.43454">
        <ele>899</ele>
        <time>2021-09-07T15:07:46.000Z</time>
      </trkpt>
      <trkpt lat="43.74623" lon="6.43456">
        <ele>898.4</ele>
        <time>2021-09-07T15:07:51.000Z</time>
      </trkpt>
      <trkpt lat="43.74623" lon="6.43456">
        <ele>898</ele>
        <time>2021-09-07T15:07:52.000Z</time>
      </trkpt>
      <trkpt lat="43.74623" lon="6.43456">
        <ele>898.6</ele>
        <time>2021-09-07T15:07:57.000Z</time>
      </trkpt>
      <trkpt lat="43.74625" lon="6.43455">
        <ele>898.4</ele>
        <time>2021-09-07T15:08:00.000Z</time>
      </trkpt>
      <trkpt lat="43.74646" lon="6.43458">
        <ele>898.1</ele>
        <time>2021-09-07T15:08:05.000Z</time>
      </trkpt>
      <trkpt lat="43.74664" lon="6.43468">
        <ele>896.6</ele>
        <time>2021-09-07T15:08:10.000Z</time>
      </trkpt>
      <trkpt lat="43.7467" lon="6.43492">
        <ele>894.5</ele>
        <time>2021-09-07T15:08:15.000Z</time>
      </trkpt>
      <trkpt lat="43.74665" lon="6.43524">
        <ele>892.4</ele>
        <time>2021-09-07T15:08:20.000Z</time>
      </trkpt>
      <trkpt lat="43.74656" lon="6.43563">
        <ele>890.3</ele>
        <time>2021-09-07T15:08:25.000Z</time>
      </trkpt>
      <trkpt lat="43.74668" lon="6.43588">
        <ele>888.1</ele>
        <time>2021-09-07T15:08:30.000Z</time>
      </trkpt>
      <trkpt lat="43.74694" lon="6.43576">
        <ele>885.8</ele>
        <time>2021-09-07T15:08:35.000Z</time>
      </trkpt>
      <trkpt lat="43.74717" lon="6.43546">
        <ele>883.9</ele>
        <time>2021-09-07T15:08:40.000Z</time>
      </trkpt>
      <trkpt lat="43.74743" lon="6.43517">
        <ele>882.4</ele>
        <time>2021-09-07T15:08:45.000Z</time>
      </trkpt>
      <trkpt lat="43.74762" lon="6.43486">
        <ele>880.5</ele>
        <time>2021-09-07T15:08:50.000Z</time>
      </trkpt>
      <trkpt lat="43.74783" lon="6.43457">
        <ele>878.3</ele>
        <time>2021-09-07T15:08:55.000Z</time>
      </trkpt>
      <trkpt lat="43.74803" lon="6.43432">
        <ele>876.4</ele>
        <time>2021-09-07T15:09:00.000Z</time>
      </trkpt>
      <trkpt lat="43.74825" lon="6.43411">
        <ele>874.6</ele>
        <time>2021-09-07T15:09:05.000Z</time>
      </trkpt>
      <trkpt lat="43.74848" lon="6.43398">
        <ele>871.4</ele>
        <time>2021-09-07T15:09:10.000Z</time>
      </trkpt>
      <trkpt lat="43.7487" lon="6.43414">
        <ele>869.7</ele>
        <time>2021-09-07T15:09:15.000Z</time>
      </trkpt>
      <trkpt lat="43.74874" lon="6.4343">
        <ele>868.3</ele>
        <time>2021-09-07T15:09:20.000Z</time>
      </trkpt>
      <trkpt lat="43.74873" lon="6.4343">
        <ele>868.4</ele>
        <time>2021-09-07T15:09:21.000Z</time>
      </trkpt>
      <trkpt lat="43.74873" lon="6.4343">
        <ele>868.5</ele>
        <time>2021-09-07T15:09:22.000Z</time>
      </trkpt>
      <trkpt lat="43.74873" lon="6.4343">
        <ele>868.6</ele>
        <time>2021-09-07T15:09:23.000Z</time>
      </trkpt>
      <trkpt lat="43.74873" lon="6.43429">
        <ele>868.9</ele>
        <time>2021-09-07T15:09:28.000Z</time>
      </trkpt>
      <trkpt lat="43.74874" lon="6.4343">
        <ele>869</ele>
        <time>2021-09-07T15:09:33.000Z</time>
      </trkpt>
      <trkpt lat="43.74874" lon="6.4343">
        <ele>869.1</ele>
        <time>2021-09-07T15:09:38.000Z</time>
      </trkpt>
      <trkpt lat="43.74874" lon="6.4343">
        <ele>868.7</ele>
        <time>2021-09-07T15:09:43.000Z</time>
      </trkpt>
      <trkpt lat="43.74874" lon="6.43429">
        <ele>868.8</ele>
        <time>2021-09-07T15:09:48.000Z</time>
      </trkpt>
      <trkpt lat="43.74873" lon="6.43428">
        <ele>868.6</ele>
        <time>2021-09-07T15:09:51.000Z</time>
      </trkpt>
      <trkpt lat="43.74874" lon="6.43431">
        <ele>868.8</ele>
        <time>2021-09-07T15:09:53.000Z</time>
      </trkpt>
      <trkpt lat="43.74874" lon="6.43431">
        <ele>868.7</ele>
        <time>2021-09-07T15:09:54.000Z</time>
      </trkpt>
      <trkpt lat="43.74874" lon="6.4343">
        <ele>868.7</ele>
        <time>2021-09-07T15:09:55.000Z</time>
      </trkpt>
      <trkpt lat="43.74874" lon="6.43431">
        <ele>868.8</ele>
        <time>2021-09-07T15:09:55.000Z</time>
      </trkpt>
      <trkpt lat="43.74874" lon="6.43431">
        <ele>869.1</ele>
        <time>2021-09-07T15:09:59.000Z</time>
      </trkpt>
      <trkpt lat="43.74874" lon="6.43431">
        <ele>869.2</ele>
        <time>2021-09-07T15:10:00.000Z</time>
      </trkpt>
      <trkpt lat="43.74874" lon="6.43431">
        <ele>869.2</ele>
        <time>2021-09-07T15:10:00.000Z</time>
      </trkpt>
      <trkpt lat="43.74874" lon="6.43429">
        <ele>869</ele>
        <time>2021-09-07T15:10:03.000Z</time>
      </trkpt>
      <trkpt lat="43.74873" lon="6.43428">
        <ele>868.9</ele>
        <time>2021-09-07T15:10:06.000Z</time>
      </trkpt>
      <trkpt lat="43.74873" lon="6.43428">
        <ele>868.8</ele>
        <time>2021-09-07T15:10:11.000Z</time>
      </trkpt>
      <trkpt lat="43.74873" lon="6.43428">
        <ele>868.3</ele>
        <time>2021-09-07T15:10:16.000Z</time>
      </trkpt>
      <trkpt lat="43.74873" lon="6.43428">
        <ele>868.5</ele>
        <time>2021-09-07T15:10:21.000Z</time>
      </trkpt>
      <trkpt lat="43.74873" lon="6.43428">
        <ele>868.4</ele>
        <time>2021-09-07T15:10:26.000Z</time>
      </trkpt>
      <trkpt lat="43.74873" lon="6.43428">
        <ele>868.4</ele>
        <time>2021-09-07T15:10:31.000Z</time>
      </trkpt>
      <trkpt lat="43.74873" lon="6.43428">
        <ele>868.5</ele>
        <time>2021-09-07T15:10:36.000Z</time>
      </trkpt>
      <trkpt lat="43.74873" lon="6.43428">
        <ele>868.3</ele>
        <time>2021-09-07T15:10:41.000Z</time>
      </trkpt>
      <trkpt lat="43.74873" lon="6.43428">
        <ele>868.4</ele>
        <time>2021-09-07T15:10:46.000Z</time>
      </trkpt>
      <trkpt lat="43.74873" lon="6.43428">
        <ele>868.3</ele>
        <time>2021-09-07T15:10:51.000Z</time>
      </trkpt>
      <trkpt lat="43.74873" lon="6.43428">
        <ele>868.7</ele>
        <time>2021-09-07T15:10:56.000Z</time>
      </trkpt>
      <trkpt lat="43.74873" lon="6.43428">
        <ele>868.6</ele>
        <time>2021-09-07T15:11:01.000Z</time>
      </trkpt>
      <trkpt lat="43.74873" lon="6.43428">
        <ele>869</ele>
        <time>2021-09-07T15:11:06.000Z</time>
      </trkpt>
      <trkpt lat="43.74872" lon="6.43434">
        <ele>868.3</ele>
        <time>2021-09-07T15:11:08.000Z</time>
      </trkpt>
      <trkpt lat="43.74872" lon="6.43428">
        <ele>868.5</ele>
        <time>2021-09-07T15:11:09.000Z</time>
      </trkpt>
      <trkpt lat="43.74872" lon="6.43439">
        <ele>868.2</ele>
        <time>2021-09-07T15:11:09.000Z</time>
      </trkpt>
      <trkpt lat="43.7487" lon="6.43455">
        <ele>867.8</ele>
        <time>2021-09-07T15:11:10.000Z</time>
      </trkpt>
      <trkpt lat="43.74868" lon="6.43464">
        <ele>867.4</ele>
        <time>2021-09-07T15:11:11.000Z</time>
      </trkpt>
      <trkpt lat="43.74854" lon="6.43505">
        <ele>865.6</ele>
        <time>2021-09-07T15:11:16.000Z</time>
      </trkpt>
      <trkpt lat="43.74848" lon="6.43551">
        <ele>863.3</ele>
        <time>2021-09-07T15:11:21.000Z</time>
      </trkpt>
      <trkpt lat="43.74851" lon="6.43602">
        <ele>860.6</ele>
        <time>2021-09-07T15:11:26.000Z</time>
      </trkpt>
      <trkpt lat="43.74864" lon="6.43656">
        <ele>857.3</ele>
        <time>2021-09-07T15:11:31.000Z</time>
      </trkpt>
      <trkpt lat="43.74862" lon="6.43707">
        <ele>854.1</ele>
        <time>2021-09-07T15:11:36.000Z</time>
      </trkpt>
      <trkpt lat="43.74876" lon="6.43739">
        <ele>850.7</ele>
        <time>2021-09-07T15:11:41.000Z</time>
      </trkpt>
      <trkpt lat="43.74893" lon="6.43707">
        <ele>849.2</ele>
        <time>2021-09-07T15:11:46.000Z</time>
      </trkpt>
      <trkpt lat="43.74908" lon="6.43661">
        <ele>847.7</ele>
        <time>2021-09-07T15:11:51.000Z</time>
      </trkpt>
      <trkpt lat="43.74934" lon="6.43624">
        <ele>846</ele>
        <time>2021-09-07T15:11:56.000Z</time>
      </trkpt>
      <trkpt lat="43.74965" lon="6.43589">
        <ele>843.5</ele>
        <time>2021-09-07T15:12:01.000Z</time>
      </trkpt>
      <trkpt lat="43.74999" lon="6.43559">
        <ele>840.2</ele>
        <time>2021-09-07T15:12:06.000Z</time>
      </trkpt>
      <trkpt lat="43.75038" lon="6.43547">
        <ele>837.7</ele>
        <time>2021-09-07T15:12:11.000Z</time>
      </trkpt>
      <trkpt lat="43.75074" lon="6.43541">
        <ele>833.3</ele>
        <time>2021-09-07T15:12:16.000Z</time>
      </trkpt>
      <trkpt lat="43.75083" lon="6.43588">
        <ele>829.9</ele>
        <time>2021-09-07T15:12:21.000Z</time>
      </trkpt>
      <trkpt lat="43.75071" lon="6.43631">
        <ele>826.9</ele>
        <time>2021-09-07T15:12:26.000Z</time>
      </trkpt>
      <trkpt lat="43.7508" lon="6.43664">
        <ele>823.1</ele>
        <time>2021-09-07T15:12:31.000Z</time>
      </trkpt>
      <trkpt lat="43.75106" lon="6.43684">
        <ele>819.3</ele>
        <time>2021-09-07T15:12:36.000Z</time>
      </trkpt>
      <trkpt lat="43.75131" lon="6.43705">
        <ele>816.7</ele>
        <time>2021-09-07T15:12:41.000Z</time>
      </trkpt>
      <trkpt lat="43.75155" lon="6.4373">
        <ele>813.6</ele>
        <time>2021-09-07T15:12:46.000Z</time>
      </trkpt>
      <trkpt lat="43.75183" lon="6.43757">
        <ele>811</ele>
        <time>2021-09-07T15:12:51.000Z</time>
      </trkpt>
      <trkpt lat="43.75215" lon="6.43782">
        <ele>807.6</ele>
        <time>2021-09-07T15:12:56.000Z</time>
      </trkpt>
      <trkpt lat="43.7525" lon="6.43804">
        <ele>804.1</ele>
        <time>2021-09-07T15:13:01.000Z</time>
      </trkpt>
      <trkpt lat="43.7529" lon="6.43835">
        <ele>801.7</ele>
        <time>2021-09-07T15:13:06.000Z</time>
      </trkpt>
      <trkpt lat="43.75321" lon="6.43875">
        <ele>799.6</ele>
        <time>2021-09-07T15:13:11.000Z</time>
      </trkpt>
      <trkpt lat="43.75336" lon="6.43923">
        <ele>798</ele>
        <time>2021-09-07T15:13:16.000Z</time>
      </trkpt>
      <trkpt lat="43.75346" lon="6.43982">
        <ele>795.5</ele>
        <time>2021-09-07T15:13:21.000Z</time>
      </trkpt>
      <trkpt lat="43.75372" lon="6.44018">
        <ele>794.7</ele>
        <time>2021-09-07T15:13:26.000Z</time>
      </trkpt>
      <trkpt lat="43.75391" lon="6.44024">
        <ele>795.6</ele>
        <time>2021-09-07T15:13:31.000Z</time>
      </trkpt>
      <trkpt lat="43.75402" lon="6.44027">
        <ele>796.8</ele>
        <time>2021-09-07T15:13:36.000Z</time>
      </trkpt>
      <trkpt lat="43.75412" lon="6.44024">
        <ele>797.6</ele>
        <time>2021-09-07T15:13:41.000Z</time>
      </trkpt>
      <trkpt lat="43.75425" lon="6.44026">
        <ele>798.1</ele>
        <time>2021-09-07T15:13:46.000Z</time>
      </trkpt>
      <trkpt lat="43.75439" lon="6.44023">
        <ele>798.4</ele>
        <time>2021-09-07T15:13:51.000Z</time>
      </trkpt>
      <trkpt lat="43.75451" lon="6.44014">
        <ele>798.7</ele>
        <time>2021-09-07T15:13:56.000Z</time>
      </trkpt>
      <trkpt lat="43.75461" lon="6.44003">
        <ele>799.6</ele>
        <time>2021-09-07T15:14:01.000Z</time>
      </trkpt>
      <trkpt lat="43.75469" lon="6.4399">
        <ele>800.4</ele>
        <time>2021-09-07T15:14:06.000Z</time>
      </trkpt>
      <trkpt lat="43.75479" lon="6.43982">
        <ele>801.3</ele>
        <time>2021-09-07T15:14:11.000Z</time>
      </trkpt>
      <trkpt lat="43.75486" lon="6.43972">
        <ele>801.9</ele>
        <time>2021-09-07T15:14:16.000Z</time>
      </trkpt>
      <trkpt lat="43.75494" lon="6.43967">
        <ele>802.9</ele>
        <time>2021-09-07T15:14:23.000Z</time>
      </trkpt>
      <trkpt lat="43.75497" lon="6.43962">
        <ele>803.4</ele>
        <time>2021-09-07T15:14:23.000Z</time>
      </trkpt>
      <trkpt lat="43.75498" lon="6.43959">
        <ele>803.6</ele>
        <time>2021-09-07T15:14:24.000Z</time>
      </trkpt>
      <trkpt lat="43.755" lon="6.43957">
        <ele>804</ele>
        <time>2021-09-07T15:14:25.000Z</time>
      </trkpt>
      <trkpt lat="43.75498" lon="6.4396">
        <ele>803.5</ele>
        <time>2021-09-07T15:14:26.000Z</time>
      </trkpt>
      <trkpt lat="43.75504" lon="6.43953">
        <ele>804.3</ele>
        <time>2021-09-07T15:14:27.000Z</time>
      </trkpt>
      <trkpt lat="43.75499" lon="6.43958">
        <ele>803.8</ele>
        <time>2021-09-07T15:14:27.000Z</time>
      </trkpt>
      <trkpt lat="43.75505" lon="6.43951">
        <ele>804.3</ele>
        <time>2021-09-07T15:14:28.000Z</time>
      </trkpt>
      <trkpt lat="43.75501" lon="6.43956">
        <ele>804.2</ele>
        <time>2021-09-07T15:14:28.000Z</time>
      </trkpt>
      <trkpt lat="43.75506" lon="6.43949">
        <ele>804.4</ele>
        <time>2021-09-07T15:14:29.000Z</time>
      </trkpt>
      <trkpt lat="43.75508" lon="6.43946">
        <ele>804.7</ele>
        <time>2021-09-07T15:14:30.000Z</time>
      </trkpt>
      <trkpt lat="43.75504" lon="6.43952">
        <ele>804.3</ele>
        <time>2021-09-07T15:14:30.000Z</time>
      </trkpt>
      <trkpt lat="43.75506" lon="6.43949">
        <ele>804.3</ele>
        <time>2021-09-07T15:14:31.000Z</time>
      </trkpt>
      <trkpt lat="43.75507" lon="6.43948">
        <ele>804.5</ele>
        <time>2021-09-07T15:14:32.000Z</time>
      </trkpt>
      <trkpt lat="43.75509" lon="6.43945">
        <ele>804.9</ele>
        <time>2021-09-07T15:14:33.000Z</time>
      </trkpt>
      <trkpt lat="43.75513" lon="6.4394">
        <ele>805.2</ele>
        <time>2021-09-07T15:14:33.000Z</time>
      </trkpt>
      <trkpt lat="43.75515" lon="6.43938">
        <ele>805.3</ele>
        <time>2021-09-07T15:14:36.000Z</time>
      </trkpt>
      <trkpt lat="43.75524" lon="6.43927">
        <ele>806.1</ele>
        <time>2021-09-07T15:14:38.000Z</time>
      </trkpt>
      <trkpt lat="43.75526" lon="6.43924">
        <ele>805.9</ele>
        <time>2021-09-07T15:14:39.000Z</time>
      </trkpt>
      <trkpt lat="43.75528" lon="6.43921">
        <ele>806.2</ele>
        <time>2021-09-07T15:14:40.000Z</time>
      </trkpt>
      <trkpt lat="43.75525" lon="6.43925">
        <ele>805.9</ele>
        <time>2021-09-07T15:14:41.000Z</time>
      </trkpt>
      <trkpt lat="43.75531" lon="6.43916">
        <ele>806.7</ele>
        <time>2021-09-07T15:14:42.000Z</time>
      </trkpt>
      <trkpt lat="43.75536" lon="6.4391">
        <ele>807</ele>
        <time>2021-09-07T15:14:44.000Z</time>
      </trkpt>
      <trkpt lat="43.75538" lon="6.43907">
        <ele>807</ele>
        <time>2021-09-07T15:14:45.000Z</time>
      </trkpt>
      <trkpt lat="43.75533" lon="6.43914">
        <ele>806.7</ele>
        <time>2021-09-07T15:14:45.000Z</time>
      </trkpt>
      <trkpt lat="43.75537" lon="6.43908">
        <ele>807</ele>
        <time>2021-09-07T15:14:47.000Z</time>
      </trkpt>
      <trkpt lat="43.7554" lon="6.43905">
        <ele>806.8</ele>
        <time>2021-09-07T15:14:48.000Z</time>
      </trkpt>
      <trkpt lat="43.75545" lon="6.439">
        <ele>806.7</ele>
        <time>2021-09-07T15:14:48.000Z</time>
      </trkpt>
      <trkpt lat="43.75549" lon="6.43894">
        <ele>806.7</ele>
        <time>2021-09-07T15:14:50.000Z</time>
      </trkpt>
      <trkpt lat="43.75545" lon="6.43899">
        <ele>806.7</ele>
        <time>2021-09-07T15:14:51.000Z</time>
      </trkpt>
      <trkpt lat="43.75553" lon="6.43888">
        <ele>807.2</ele>
        <time>2021-09-07T15:14:52.000Z</time>
      </trkpt>
      <trkpt lat="43.7555" lon="6.43893">
        <ele>806.9</ele>
        <time>2021-09-07T15:14:53.000Z</time>
      </trkpt>
      <trkpt lat="43.75558" lon="6.43883">
        <ele>807.1</ele>
        <time>2021-09-07T15:14:54.000Z</time>
      </trkpt>
      <trkpt lat="43.75554" lon="6.43887">
        <ele>807.1</ele>
        <time>2021-09-07T15:14:55.000Z</time>
      </trkpt>
      <trkpt lat="43.7556" lon="6.4388">
        <ele>807</ele>
        <time>2021-09-07T15:14:55.000Z</time>
      </trkpt>
      <trkpt lat="43.75562" lon="6.43877">
        <ele>806.9</ele>
        <time>2021-09-07T15:14:56.000Z</time>
      </trkpt>
      <trkpt lat="43.75564" lon="6.43874">
        <ele>807</ele>
        <time>2021-09-07T15:14:57.000Z</time>
      </trkpt>
      <trkpt lat="43.75566" lon="6.4387">
        <ele>807.4</ele>
        <time>2021-09-07T15:14:58.000Z</time>
      </trkpt>
      <trkpt lat="43.75563" lon="6.43875">
        <ele>807</ele>
        <time>2021-09-07T15:14:59.000Z</time>
      </trkpt>
      <trkpt lat="43.75565" lon="6.43872">
        <ele>807.1</ele>
        <time>2021-09-07T15:15:00.000Z</time>
      </trkpt>
      <trkpt lat="43.75567" lon="6.43867">
        <ele>807.5</ele>
        <time>2021-09-07T15:15:01.000Z</time>
      </trkpt>
      <trkpt lat="43.75572" lon="6.43846">
        <ele>807.5</ele>
        <time>2021-09-07T15:15:03.000Z</time>
      </trkpt>
      <trkpt lat="43.75572" lon="6.43845">
        <ele>807.5</ele>
        <time>2021-09-07T15:15:06.000Z</time>
      </trkpt>
      <trkpt lat="43.75572" lon="6.43831">
        <ele>807.7</ele>
        <time>2021-09-07T15:15:06.000Z</time>
      </trkpt>
      <trkpt lat="43.75572" lon="6.43827">
        <ele>807.8</ele>
        <time>2021-09-07T15:15:09.000Z</time>
      </trkpt>
      <trkpt lat="43.75572" lon="6.43821">
        <ele>807.7</ele>
        <time>2021-09-07T15:15:10.000Z</time>
      </trkpt>
      <trkpt lat="43.75571" lon="6.4381">
        <ele>808.4</ele>
        <time>2021-09-07T15:15:10.000Z</time>
      </trkpt>
      <trkpt lat="43.75571" lon="6.43804">
        <ele>808.2</ele>
        <time>2021-09-07T15:15:11.000Z</time>
      </trkpt>
      <trkpt lat="43.75571" lon="6.43794">
        <ele>808.2</ele>
        <time>2021-09-07T15:15:13.000Z</time>
      </trkpt>
      <trkpt lat="43.75571" lon="6.43806">
        <ele>808.2</ele>
        <time>2021-09-07T15:15:13.000Z</time>
      </trkpt>
      <trkpt lat="43.75571" lon="6.438">
        <ele>808.3</ele>
        <time>2021-09-07T15:15:14.000Z</time>
      </trkpt>
      <trkpt lat="43.75571" lon="6.43783">
        <ele>807.9</ele>
        <time>2021-09-07T15:15:15.000Z</time>
      </trkpt>
      <trkpt lat="43.75571" lon="6.43789">
        <ele>808.2</ele>
        <time>2021-09-07T15:15:16.000Z</time>
      </trkpt>
      <trkpt lat="43.75571" lon="6.43779">
        <ele>807.7</ele>
        <time>2021-09-07T15:15:18.000Z</time>
      </trkpt>
      <trkpt lat="43.75573" lon="6.43768">
        <ele>808.3</ele>
        <time>2021-09-07T15:15:18.000Z</time>
      </trkpt>
      <trkpt lat="43.75573" lon="6.43764">
        <ele>808.4</ele>
        <time>2021-09-07T15:15:21.000Z</time>
      </trkpt>
      <trkpt lat="43.75577" lon="6.43754">
        <ele>808.9</ele>
        <time>2021-09-07T15:15:21.000Z</time>
      </trkpt>
      <trkpt lat="43.7558" lon="6.43747">
        <ele>809.2</ele>
        <time>2021-09-07T15:15:23.000Z</time>
      </trkpt>
      <trkpt lat="43.75578" lon="6.4375">
        <ele>809.3</ele>
        <time>2021-09-07T15:15:24.000Z</time>
      </trkpt>
      <trkpt lat="43.75581" lon="6.43745">
        <ele>809.4</ele>
        <time>2021-09-07T15:15:24.000Z</time>
      </trkpt>
      <trkpt lat="43.75582" lon="6.43742">
        <ele>809.5</ele>
        <time>2021-09-07T15:15:25.000Z</time>
      </trkpt>
      <trkpt lat="43.75584" lon="6.43739">
        <ele>809.7</ele>
        <time>2021-09-07T15:15:26.000Z</time>
      </trkpt>
      <trkpt lat="43.75583" lon="6.43741">
        <ele>809.6</ele>
        <time>2021-09-07T15:15:28.000Z</time>
      </trkpt>
      <trkpt lat="43.75584" lon="6.43738">
        <ele>809.9</ele>
        <time>2021-09-07T15:15:29.000Z</time>
      </trkpt>
      <trkpt lat="43.75591" lon="6.43726">
        <ele>811.9</ele>
        <time>2021-09-07T15:15:32.000Z</time>
      </trkpt>
      <trkpt lat="43.75593" lon="6.43723">
        <ele>812.3</ele>
        <time>2021-09-07T15:15:34.000Z</time>
      </trkpt>
      <trkpt lat="43.75591" lon="6.43728">
        <ele>811.8</ele>
        <time>2021-09-07T15:15:34.000Z</time>
      </trkpt>
      <trkpt lat="43.75592" lon="6.43725">
        <ele>812.1</ele>
        <time>2021-09-07T15:15:35.000Z</time>
      </trkpt>
      <trkpt lat="43.75594" lon="6.43718">
        <ele>813.2</ele>
        <time>2021-09-07T15:15:36.000Z</time>
      </trkpt>
      <trkpt lat="43.75593" lon="6.43722">
        <ele>812.3</ele>
        <time>2021-09-07T15:15:37.000Z</time>
      </trkpt>
      <trkpt lat="43.75595" lon="6.43714">
        <ele>813.4</ele>
        <time>2021-09-07T15:15:38.000Z</time>
      </trkpt>
      <trkpt lat="43.75597" lon="6.43712">
        <ele>813.7</ele>
        <time>2021-09-07T15:15:39.000Z</time>
      </trkpt>
      <trkpt lat="43.75594" lon="6.43716">
        <ele>813.1</ele>
        <time>2021-09-07T15:15:39.000Z</time>
      </trkpt>
      <trkpt lat="43.75601" lon="6.4371">
        <ele>814.1</ele>
        <time>2021-09-07T15:15:41.000Z</time>
      </trkpt>
      <trkpt lat="43.75595" lon="6.43713">
        <ele>813.5</ele>
        <time>2021-09-07T15:15:41.000Z</time>
      </trkpt>
      <trkpt lat="43.75603" lon="6.4371">
        <ele>814.4</ele>
        <time>2021-09-07T15:15:42.000Z</time>
      </trkpt>
      <trkpt lat="43.75598" lon="6.43711">
        <ele>813.8</ele>
        <time>2021-09-07T15:15:42.000Z</time>
      </trkpt>
      <trkpt lat="43.75606" lon="6.43714">
        <ele>814.2</ele>
        <time>2021-09-07T15:15:44.000Z</time>
      </trkpt>
      <trkpt lat="43.75602" lon="6.4371">
        <ele>814.2</ele>
        <time>2021-09-07T15:15:44.000Z</time>
      </trkpt>
      <trkpt lat="43.75608" lon="6.43715">
        <ele>814.6</ele>
        <time>2021-09-07T15:15:45.000Z</time>
      </trkpt>
      <trkpt lat="43.75604" lon="6.43712">
        <ele>814.3</ele>
        <time>2021-09-07T15:15:45.000Z</time>
      </trkpt>
      <trkpt lat="43.7561" lon="6.43717">
        <ele>815</ele>
        <time>2021-09-07T15:15:46.000Z</time>
      </trkpt>
      <trkpt lat="43.75612" lon="6.43717">
        <ele>815.5</ele>
        <time>2021-09-07T15:15:47.000Z</time>
      </trkpt>
      <trkpt lat="43.75607" lon="6.43715">
        <ele>814.2</ele>
        <time>2021-09-07T15:15:47.000Z</time>
      </trkpt>
      <trkpt lat="43.75609" lon="6.43716">
        <ele>814.9</ele>
        <time>2021-09-07T15:15:48.000Z</time>
      </trkpt>
      <trkpt lat="43.75611" lon="6.43717">
        <ele>815.3</ele>
        <time>2021-09-07T15:15:49.000Z</time>
      </trkpt>
      <trkpt lat="43.75613" lon="6.43716">
        <ele>815.5</ele>
        <time>2021-09-07T15:15:50.000Z</time>
      </trkpt>
      <trkpt lat="43.75618" lon="6.43721">
        <ele>816.5</ele>
        <time>2021-09-07T15:15:51.000Z</time>
      </trkpt>
      <trkpt lat="43.75619" lon="6.43723">
        <ele>816.6</ele>
        <time>2021-09-07T15:15:52.000Z</time>
      </trkpt>
      <trkpt lat="43.7562" lon="6.43727">
        <ele>816.6</ele>
        <time>2021-09-07T15:15:53.000Z</time>
      </trkpt>
      <trkpt lat="43.75618" lon="6.43722">
        <ele>816.5</ele>
        <time>2021-09-07T15:15:54.000Z</time>
      </trkpt>
      <trkpt lat="43.75619" lon="6.43725">
        <ele>816.6</ele>
        <time>2021-09-07T15:15:55.000Z</time>
      </trkpt>
      <trkpt lat="43.7562" lon="6.43729">
        <ele>816.6</ele>
        <time>2021-09-07T15:15:56.000Z</time>
      </trkpt>
      <trkpt lat="43.75623" lon="6.43735">
        <ele>817.4</ele>
        <time>2021-09-07T15:15:56.000Z</time>
      </trkpt>
      <trkpt lat="43.75624" lon="6.43738">
        <ele>817.7</ele>
        <time>2021-09-07T15:15:57.000Z</time>
      </trkpt>
      <trkpt lat="43.75623" lon="6.43741">
        <ele>818</ele>
        <time>2021-09-07T15:15:58.000Z</time>
      </trkpt>
      <trkpt lat="43.75623" lon="6.43743">
        <ele>818.2</ele>
        <time>2021-09-07T15:15:59.000Z</time>
      </trkpt>
      <trkpt lat="43.75622" lon="6.43746">
        <ele>818.4</ele>
        <time>2021-09-07T15:16:00.000Z</time>
      </trkpt>
      <trkpt lat="43.75623" lon="6.43742">
        <ele>818.1</ele>
        <time>2021-09-07T15:16:01.000Z</time>
      </trkpt>
      <trkpt lat="43.75625" lon="6.43751">
        <ele>819.1</ele>
        <time>2021-09-07T15:16:03.000Z</time>
      </trkpt>
      <trkpt lat="43.75626" lon="6.43756">
        <ele>819.5</ele>
        <time>2021-09-07T15:16:05.000Z</time>
      </trkpt>
      <trkpt lat="43.75626" lon="6.43753">
        <ele>819.2</ele>
        <time>2021-09-07T15:16:06.000Z</time>
      </trkpt>
      <trkpt lat="43.75626" lon="6.43759">
        <ele>819.8</ele>
        <time>2021-09-07T15:16:08.000Z</time>
      </trkpt>
      <trkpt lat="43.75624" lon="6.43764">
        <ele>820.2</ele>
        <time>2021-09-07T15:16:08.000Z</time>
      </trkpt>
      <trkpt lat="43.75624" lon="6.43764">
        <ele>820.2</ele>
        <time>2021-09-07T15:16:08.000Z</time>
      </trkpt>
      <trkpt lat="43.75624" lon="6.43766">
        <ele>820.4</ele>
        <time>2021-09-07T15:16:09.000Z</time>
      </trkpt>
      <trkpt lat="43.75624" lon="6.43765">
        <ele>820.4</ele>
        <time>2021-09-07T15:16:11.000Z</time>
      </trkpt>
      <trkpt lat="43.75625" lon="6.43768">
        <ele>820.7</ele>
        <time>2021-09-07T15:16:12.000Z</time>
      </trkpt>
      <trkpt lat="43.75626" lon="6.43773">
        <ele>821</ele>
        <time>2021-09-07T15:16:12.000Z</time>
      </trkpt>
      <trkpt lat="43.75626" lon="6.43779">
        <ele>821.7</ele>
        <time>2021-09-07T15:16:14.000Z</time>
      </trkpt>
      <trkpt lat="43.75626" lon="6.43774">
        <ele>821.1</ele>
        <time>2021-09-07T15:16:15.000Z</time>
      </trkpt>
      <trkpt lat="43.75626" lon="6.43784">
        <ele>821.9</ele>
        <time>2021-09-07T15:16:16.000Z</time>
      </trkpt>
      <trkpt lat="43.75626" lon="6.43782">
        <ele>821.8</ele>
        <time>2021-09-07T15:16:17.000Z</time>
      </trkpt>
      <trkpt lat="43.75627" lon="6.43786">
        <ele>822</ele>
        <time>2021-09-07T15:16:19.000Z</time>
      </trkpt>
      <trkpt lat="43.7563" lon="6.4379">
        <ele>822.2</ele>
        <time>2021-09-07T15:16:19.000Z</time>
      </trkpt>
      <trkpt lat="43.7563" lon="6.43792">
        <ele>822.2</ele>
        <time>2021-09-07T15:16:20.000Z</time>
      </trkpt>
      <trkpt lat="43.7563" lon="6.4379">
        <ele>822.2</ele>
        <time>2021-09-07T15:16:22.000Z</time>
      </trkpt>
      <trkpt lat="43.7563" lon="6.43794">
        <ele>822.2</ele>
        <time>2021-09-07T15:16:23.000Z</time>
      </trkpt>
      <trkpt lat="43.7563" lon="6.43799">
        <ele>822.4</ele>
        <time>2021-09-07T15:16:23.000Z</time>
      </trkpt>
      <trkpt lat="43.75631" lon="6.438">
        <ele>822.4</ele>
        <time>2021-09-07T15:16:26.000Z</time>
      </trkpt>
      <trkpt lat="43.75635" lon="6.43817">
        <ele>823.8</ele>
        <time>2021-09-07T15:16:31.000Z</time>
      </trkpt>
      <trkpt lat="43.7564" lon="6.43828">
        <ele>824.8</ele>
        <time>2021-09-07T15:16:32.000Z</time>
      </trkpt>
      <trkpt lat="43.75641" lon="6.43831">
        <ele>825.1</ele>
        <time>2021-09-07T15:16:33.000Z</time>
      </trkpt>
      <trkpt lat="43.75643" lon="6.43833">
        <ele>825.1</ele>
        <time>2021-09-07T15:16:34.000Z</time>
      </trkpt>
      <trkpt lat="43.75641" lon="6.4383">
        <ele>825.1</ele>
        <time>2021-09-07T15:16:35.000Z</time>
      </trkpt>
      <trkpt lat="43.75645" lon="6.43838">
        <ele>825.4</ele>
        <time>2021-09-07T15:16:36.000Z</time>
      </trkpt>
      <trkpt lat="43.75642" lon="6.43832">
        <ele>825.2</ele>
        <time>2021-09-07T15:16:36.000Z</time>
      </trkpt>
      <trkpt lat="43.75644" lon="6.43836">
        <ele>825.3</ele>
        <time>2021-09-07T15:16:37.000Z</time>
      </trkpt>
      <trkpt lat="43.75647" lon="6.43841">
        <ele>825.8</ele>
        <time>2021-09-07T15:16:37.000Z</time>
      </trkpt>
      <trkpt lat="43.75648" lon="6.43843">
        <ele>826.2</ele>
        <time>2021-09-07T15:16:38.000Z</time>
      </trkpt>
      <trkpt lat="43.7565" lon="6.43845">
        <ele>826.3</ele>
        <time>2021-09-07T15:16:39.000Z</time>
      </trkpt>
      <trkpt lat="43.75651" lon="6.43847">
        <ele>826.5</ele>
        <time>2021-09-07T15:16:40.000Z</time>
      </trkpt>
      <trkpt lat="43.75652" lon="6.4385">
        <ele>826.7</ele>
        <time>2021-09-07T15:16:41.000Z</time>
      </trkpt>
      <trkpt lat="43.75654" lon="6.43852">
        <ele>827</ele>
        <time>2021-09-07T15:16:42.000Z</time>
      </trkpt>
      <trkpt lat="43.75652" lon="6.43849">
        <ele>826.6</ele>
        <time>2021-09-07T15:16:43.000Z</time>
      </trkpt>
      <trkpt lat="43.75656" lon="6.43856">
        <ele>827.3</ele>
        <time>2021-09-07T15:16:44.000Z</time>
      </trkpt>
      <trkpt lat="43.75653" lon="6.43852">
        <ele>826.9</ele>
        <time>2021-09-07T15:16:44.000Z</time>
      </trkpt>
      <trkpt lat="43.75658" lon="6.43857">
        <ele>827.4</ele>
        <time>2021-09-07T15:16:45.000Z</time>
      </trkpt>
      <trkpt lat="43.75654" lon="6.43853">
        <ele>827.1</ele>
        <time>2021-09-07T15:16:45.000Z</time>
      </trkpt>
      <trkpt lat="43.75659" lon="6.4386">
        <ele>827.5</ele>
        <time>2021-09-07T15:16:46.000Z</time>
      </trkpt>
      <trkpt lat="43.75657" lon="6.43857">
        <ele>827.4</ele>
        <time>2021-09-07T15:16:47.000Z</time>
      </trkpt>
      <trkpt lat="43.75661" lon="6.43864">
        <ele>828.2</ele>
        <time>2021-09-07T15:16:48.000Z</time>
      </trkpt>
      <trkpt lat="43.75662" lon="6.43867">
        <ele>828.4</ele>
        <time>2021-09-07T15:16:49.000Z</time>
      </trkpt>
      <trkpt lat="43.75664" lon="6.43869">
        <ele>828.5</ele>
        <time>2021-09-07T15:16:50.000Z</time>
      </trkpt>
      <trkpt lat="43.75665" lon="6.43872">
        <ele>828.5</ele>
        <time>2021-09-07T15:16:51.000Z</time>
      </trkpt>
      <trkpt lat="43.75662" lon="6.43865">
        <ele>828.3</ele>
        <time>2021-09-07T15:16:51.000Z</time>
      </trkpt>
      <trkpt lat="43.75663" lon="6.43868">
        <ele>828.4</ele>
        <time>2021-09-07T15:16:52.000Z</time>
      </trkpt>
      <trkpt lat="43.75669" lon="6.4388">
        <ele>829</ele>
        <time>2021-09-07T15:16:54.000Z</time>
      </trkpt>
      <trkpt lat="43.75671" lon="6.43887">
        <ele>829.2</ele>
        <time>2021-09-07T15:16:56.000Z</time>
      </trkpt>
      <trkpt lat="43.75672" lon="6.4389">
        <ele>829.5</ele>
        <time>2021-09-07T15:16:57.000Z</time>
      </trkpt>
      <trkpt lat="43.7567" lon="6.43882">
        <ele>829.2</ele>
        <time>2021-09-07T15:16:57.000Z</time>
      </trkpt>
      <trkpt lat="43.75674" lon="6.43892">
        <ele>829.7</ele>
        <time>2021-09-07T15:16:58.000Z</time>
      </trkpt>
      <trkpt lat="43.75672" lon="6.43889">
        <ele>829.3</ele>
        <time>2021-09-07T15:16:59.000Z</time>
      </trkpt>
      <trkpt lat="43.75677" lon="6.439">
        <ele>829.9</ele>
        <time>2021-09-07T15:17:01.000Z</time>
      </trkpt>
      <trkpt lat="43.75678" lon="6.43903">
        <ele>830.2</ele>
        <time>2021-09-07T15:17:02.000Z</time>
      </trkpt>
      <trkpt lat="43.75679" lon="6.43906">
        <ele>830.5</ele>
        <time>2021-09-07T15:17:03.000Z</time>
      </trkpt>
      <trkpt lat="43.75677" lon="6.43902">
        <ele>830</ele>
        <time>2021-09-07T15:17:04.000Z</time>
      </trkpt>
      <trkpt lat="43.75684" lon="6.43917">
        <ele>831.8</ele>
        <time>2021-09-07T15:17:07.000Z</time>
      </trkpt>
      <trkpt lat="43.75685" lon="6.4392">
        <ele>831.9</ele>
        <time>2021-09-07T15:17:08.000Z</time>
      </trkpt>
      <trkpt lat="43.75683" lon="6.43916">
        <ele>831.6</ele>
        <time>2021-09-07T15:17:09.000Z</time>
      </trkpt>
      <trkpt lat="43.75684" lon="6.43918">
        <ele>831.8</ele>
        <time>2021-09-07T15:17:10.000Z</time>
      </trkpt>
      <trkpt lat="43.75686" lon="6.43922">
        <ele>832.1</ele>
        <time>2021-09-07T15:17:11.000Z</time>
      </trkpt>
      <trkpt lat="43.75688" lon="6.43929">
        <ele>832.5</ele>
        <time>2021-09-07T15:17:11.000Z</time>
      </trkpt>
      <trkpt lat="43.75689" lon="6.43932">
        <ele>832.7</ele>
        <time>2021-09-07T15:17:12.000Z</time>
      </trkpt>
      <trkpt lat="43.75691" lon="6.43938">
        <ele>833.4</ele>
        <time>2021-09-07T15:17:14.000Z</time>
      </trkpt>
      <trkpt lat="43.75689" lon="6.43931">
        <ele>832.6</ele>
        <time>2021-09-07T15:17:14.000Z</time>
      </trkpt>
      <trkpt lat="43.7569" lon="6.43935">
        <ele>833</ele>
        <time>2021-09-07T15:17:15.000Z</time>
      </trkpt>
      <trkpt lat="43.75692" lon="6.43941">
        <ele>833.7</ele>
        <time>2021-09-07T15:17:17.000Z</time>
      </trkpt>
      <trkpt lat="43.75694" lon="6.43948">
        <ele>834.4</ele>
        <time>2021-09-07T15:17:17.000Z</time>
      </trkpt>
      <trkpt lat="43.75695" lon="6.43951">
        <ele>834.7</ele>
        <time>2021-09-07T15:17:20.000Z</time>
      </trkpt>
      <trkpt lat="43.75698" lon="6.4396">
        <ele>834.8</ele>
        <time>2021-09-07T15:17:20.000Z</time>
      </trkpt>
      <trkpt lat="43.75698" lon="6.43964">
        <ele>835</ele>
        <time>2021-09-07T15:17:21.000Z</time>
      </trkpt>
      <trkpt lat="43.75703" lon="6.43978">
        <ele>836.2</ele>
        <time>2021-09-07T15:17:25.000Z</time>
      </trkpt>
      <trkpt lat="43.75704" lon="6.43982">
        <ele>836.4</ele>
        <time>2021-09-07T15:17:26.000Z</time>
      </trkpt>
      <trkpt lat="43.75702" lon="6.43974">
        <ele>835.9</ele>
        <time>2021-09-07T15:17:26.000Z</time>
      </trkpt>
      <trkpt lat="43.75705" lon="6.43986">
        <ele>836.5</ele>
        <time>2021-09-07T15:17:27.000Z</time>
      </trkpt>
      <trkpt lat="43.75703" lon="6.4398">
        <ele>836.4</ele>
        <time>2021-09-07T15:17:28.000Z</time>
      </trkpt>
      <trkpt lat="43.75707" lon="6.43993">
        <ele>837.3</ele>
        <time>2021-09-07T15:17:29.000Z</time>
      </trkpt>
      <trkpt lat="43.75704" lon="6.43984">
        <ele>836.5</ele>
        <time>2021-09-07T15:17:29.000Z</time>
      </trkpt>
      <trkpt lat="43.75709" lon="6.43997">
        <ele>837.4</ele>
        <time>2021-09-07T15:17:30.000Z</time>
      </trkpt>
      <trkpt lat="43.75706" lon="6.43989">
        <ele>836.8</ele>
        <time>2021-09-07T15:17:30.000Z</time>
      </trkpt>
      <trkpt lat="43.7571" lon="6.44001">
        <ele>837.5</ele>
        <time>2021-09-07T15:17:31.000Z</time>
      </trkpt>
      <trkpt lat="43.75712" lon="6.44005">
        <ele>837.4</ele>
        <time>2021-09-07T15:17:32.000Z</time>
      </trkpt>
      <trkpt lat="43.75708" lon="6.43994">
        <ele>837.4</ele>
        <time>2021-09-07T15:17:32.000Z</time>
      </trkpt>
      <trkpt lat="43.75712" lon="6.44008">
        <ele>837.6</ele>
        <time>2021-09-07T15:17:33.000Z</time>
      </trkpt>
      <trkpt lat="43.75709" lon="6.43998">
        <ele>837.4</ele>
        <time>2021-09-07T15:17:33.000Z</time>
      </trkpt>
      <trkpt lat="43.75711" lon="6.44002">
        <ele>837.5</ele>
        <time>2021-09-07T15:17:34.000Z</time>
      </trkpt>
      <trkpt lat="43.75715" lon="6.44017">
        <ele>837.7</ele>
        <time>2021-09-07T15:17:36.000Z</time>
      </trkpt>
      <trkpt lat="43.75715" lon="6.4402">
        <ele>837.7</ele>
        <time>2021-09-07T15:17:37.000Z</time>
      </trkpt>
      <trkpt lat="43.75716" lon="6.44028">
        <ele>837.7</ele>
        <time>2021-09-07T15:17:41.000Z</time>
      </trkpt>
      <trkpt lat="43.75716" lon="6.44025">
        <ele>837.6</ele>
        <time>2021-09-07T15:17:42.000Z</time>
      </trkpt>
      <trkpt lat="43.75716" lon="6.44031">
        <ele>837.6</ele>
        <time>2021-09-07T15:17:42.000Z</time>
      </trkpt>
      <trkpt lat="43.75716" lon="6.44031">
        <ele>837.6</ele>
        <time>2021-09-07T15:17:43.000Z</time>
      </trkpt>
      <trkpt lat="43.75716" lon="6.44031">
        <ele>837.9</ele>
        <time>2021-09-07T15:17:44.000Z</time>
      </trkpt>
      <trkpt lat="43.75716" lon="6.44029">
        <ele>838</ele>
        <time>2021-09-07T15:17:47.000Z</time>
      </trkpt>
      <trkpt lat="43.75716" lon="6.44029">
        <ele>837.8</ele>
        <time>2021-09-07T15:17:53.000Z</time>
      </trkpt>
      <trkpt lat="43.75716" lon="6.44029">
        <ele>838</ele>
        <time>2021-09-07T15:17:58.000Z</time>
      </trkpt>
      <trkpt lat="43.75716" lon="6.44029">
        <ele>837.1</ele>
        <time>2021-09-07T15:18:03.000Z</time>
      </trkpt>
      <trkpt lat="43.75716" lon="6.44029">
        <ele>837.5</ele>
        <time>2021-09-07T15:18:05.000Z</time>
      </trkpt>
      <trkpt lat="43.75716" lon="6.44028">
        <ele>837.3</ele>
        <time>2021-09-07T15:18:07.000Z</time>
      </trkpt>
      <trkpt lat="43.75716" lon="6.44028">
        <ele>837.4</ele>
        <time>2021-09-07T15:18:12.000Z</time>
      </trkpt>
      <trkpt lat="43.75716" lon="6.44028">
        <ele>837.4</ele>
        <time>2021-09-07T15:18:17.000Z</time>
      </trkpt>
      <trkpt lat="43.75716" lon="6.44028">
        <ele>837.5</ele>
        <time>2021-09-07T15:18:22.000Z</time>
      </trkpt>
      <trkpt lat="43.75716" lon="6.44028">
        <ele>837.4</ele>
        <time>2021-09-07T15:18:27.000Z</time>
      </trkpt>
      <trkpt lat="43.75716" lon="6.4403">
        <ele>837.2</ele>
        <time>2021-09-07T15:18:29.000Z</time>
      </trkpt>
      <trkpt lat="43.75716" lon="6.44031">
        <ele>837.5</ele>
        <time>2021-09-07T15:18:31.000Z</time>
      </trkpt>
      <trkpt lat="43.75717" lon="6.44036">
        <ele>837.5</ele>
        <time>2021-09-07T15:18:33.000Z</time>
      </trkpt>
      <trkpt lat="43.75716" lon="6.44033">
        <ele>837.6</ele>
        <time>2021-09-07T15:18:34.000Z</time>
      </trkpt>
      <trkpt lat="43.75717" lon="6.44037">
        <ele>837.2</ele>
        <time>2021-09-07T15:18:36.000Z</time>
      </trkpt>
      <trkpt lat="43.75719" lon="6.44046">
        <ele>837.1</ele>
        <time>2021-09-07T15:18:36.000Z</time>
      </trkpt>
      <trkpt lat="43.75721" lon="6.44051">
        <ele>836.8</ele>
        <time>2021-09-07T15:18:38.000Z</time>
      </trkpt>
      <trkpt lat="43.7572" lon="6.44048">
        <ele>836.9</ele>
        <time>2021-09-07T15:18:39.000Z</time>
      </trkpt>
      <trkpt lat="43.75722" lon="6.44054">
        <ele>837.1</ele>
        <time>2021-09-07T15:18:39.000Z</time>
      </trkpt>
      <trkpt lat="43.75722" lon="6.44057">
        <ele>836.6</ele>
        <time>2021-09-07T15:18:40.000Z</time>
      </trkpt>
      <trkpt lat="43.75723" lon="6.44065">
        <ele>836.2</ele>
        <time>2021-09-07T15:18:42.000Z</time>
      </trkpt>
      <trkpt lat="43.75722" lon="6.4406">
        <ele>836.4</ele>
        <time>2021-09-07T15:18:43.000Z</time>
      </trkpt>
      <trkpt lat="43.75724" lon="6.44069">
        <ele>836</ele>
        <time>2021-09-07T15:18:43.000Z</time>
      </trkpt>
      <trkpt lat="43.75725" lon="6.44074">
        <ele>835.8</ele>
        <time>2021-09-07T15:18:44.000Z</time>
      </trkpt>
      <trkpt lat="43.75727" lon="6.44079">
        <ele>835.4</ele>
        <time>2021-09-07T15:18:45.000Z</time>
      </trkpt>
      <trkpt lat="43.75729" lon="6.4409">
        <ele>834.8</ele>
        <time>2021-09-07T15:18:47.000Z</time>
      </trkpt>
      <trkpt lat="43.75726" lon="6.44078">
        <ele>835.6</ele>
        <time>2021-09-07T15:18:47.000Z</time>
      </trkpt>
      <trkpt lat="43.7573" lon="6.44096">
        <ele>834</ele>
        <time>2021-09-07T15:18:48.000Z</time>
      </trkpt>
      <trkpt lat="43.75727" lon="6.44084">
        <ele>835</ele>
        <time>2021-09-07T15:18:48.000Z</time>
      </trkpt>
      <trkpt lat="43.75732" lon="6.441">
        <ele>833.2</ele>
        <time>2021-09-07T15:18:49.000Z</time>
      </trkpt>
      <trkpt lat="43.75729" lon="6.44093">
        <ele>834.5</ele>
        <time>2021-09-07T15:18:50.000Z</time>
      </trkpt>
      <trkpt lat="43.75731" lon="6.44099">
        <ele>833.4</ele>
        <time>2021-09-07T15:18:51.000Z</time>
      </trkpt>
      <trkpt lat="43.75734" lon="6.44105">
        <ele>833</ele>
        <time>2021-09-07T15:18:52.000Z</time>
      </trkpt>
      <trkpt lat="43.75745" lon="6.44116">
        <ele>831</ele>
        <time>2021-09-07T15:18:53.000Z</time>
      </trkpt>
      <trkpt lat="43.75747" lon="6.44117">
        <ele>830.8</ele>
        <time>2021-09-07T15:18:56.000Z</time>
      </trkpt>
      <trkpt lat="43.7576" lon="6.44121">
        <ele>829.6</ele>
        <time>2021-09-07T15:18:56.000Z</time>
      </trkpt>
      <trkpt lat="43.75765" lon="6.44122">
        <ele>829.2</ele>
        <time>2021-09-07T15:18:57.000Z</time>
      </trkpt>
      <trkpt lat="43.75778" lon="6.44123">
        <ele>828.4</ele>
        <time>2021-09-07T15:18:59.000Z</time>
      </trkpt>
      <trkpt lat="43.75764" lon="6.44122">
        <ele>829.3</ele>
        <time>2021-09-07T15:18:59.000Z</time>
      </trkpt>
      <trkpt lat="43.75769" lon="6.44123">
        <ele>829.1</ele>
        <time>2021-09-07T15:19:00.000Z</time>
      </trkpt>
      <trkpt lat="43.75784" lon="6.44122">
        <ele>827.4</ele>
        <time>2021-09-07T15:19:00.000Z</time>
      </trkpt>
      <trkpt lat="43.75808" lon="6.44118">
        <ele>824.7</ele>
        <time>2021-09-07T15:19:05.000Z</time>
      </trkpt>
      <trkpt lat="43.75831" lon="6.44113">
        <ele>822</ele>
        <time>2021-09-07T15:19:10.000Z</time>
      </trkpt>
      <trkpt lat="43.75857" lon="6.44108">
        <ele>819.3</ele>
        <time>2021-09-07T15:19:15.000Z</time>
      </trkpt>
      <trkpt lat="43.75882" lon="6.441">
        <ele>816.4</ele>
        <time>2021-09-07T15:19:20.000Z</time>
      </trkpt>
      <trkpt lat="43.75908" lon="6.44096">
        <ele>814.2</ele>
        <time>2021-09-07T15:19:25.000Z</time>
      </trkpt>
      <trkpt lat="43.75934" lon="6.44077">
        <ele>811.9</ele>
        <time>2021-09-07T15:19:30.000Z</time>
      </trkpt>
      <trkpt lat="43.75963" lon="6.44069">
        <ele>810.8</ele>
        <time>2021-09-07T15:19:35.000Z</time>
      </trkpt>
      <trkpt lat="43.75983" lon="6.44076">
        <ele>810.7</ele>
        <time>2021-09-07T15:19:40.000Z</time>
      </trkpt>
      <trkpt lat="43.75996" lon="6.44082">
        <ele>810.4</ele>
        <time>2021-09-07T15:19:45.000Z</time>
      </trkpt>
      <trkpt lat="43.76009" lon="6.44081">
        <ele>810.9</ele>
        <time>2021-09-07T15:19:51.000Z</time>
      </trkpt>
      <trkpt lat="43.76006" lon="6.4408">
        <ele>810.7</ele>
        <time>2021-09-07T15:19:52.000Z</time>
      </trkpt>
      <trkpt lat="43.76015" lon="6.44074">
        <ele>810.9</ele>
        <time>2021-09-07T15:19:53.000Z</time>
      </trkpt>
      <trkpt lat="43.76012" lon="6.44077">
        <ele>811.1</ele>
        <time>2021-09-07T15:19:54.000Z</time>
      </trkpt>
      <trkpt lat="43.76019" lon="6.44072">
        <ele>811.2</ele>
        <time>2021-09-07T15:19:55.000Z</time>
      </trkpt>
      <trkpt lat="43.76016" lon="6.44072">
        <ele>811</ele>
        <time>2021-09-07T15:19:56.000Z</time>
      </trkpt>
      <trkpt lat="43.76022" lon="6.44073">
        <ele>811.3</ele>
        <time>2021-09-07T15:19:56.000Z</time>
      </trkpt>
      <trkpt lat="43.76037" lon="6.44079">
        <ele>812.1</ele>
        <time>2021-09-07T15:20:01.000Z</time>
      </trkpt>
      <trkpt lat="43.76048" lon="6.4409">
        <ele>813.7</ele>
        <time>2021-09-07T15:20:06.000Z</time>
      </trkpt>
      <trkpt lat="43.7606" lon="6.44098">
        <ele>814.7</ele>
        <time>2021-09-07T15:20:11.000Z</time>
      </trkpt>
      <trkpt lat="43.76072" lon="6.44106">
        <ele>815.5</ele>
        <time>2021-09-07T15:20:16.000Z</time>
      </trkpt>
      <trkpt lat="43.76081" lon="6.44115">
        <ele>815.8</ele>
        <time>2021-09-07T15:20:21.000Z</time>
      </trkpt>
      <trkpt lat="43.76088" lon="6.44125">
        <ele>816.8</ele>
        <time>2021-09-07T15:20:25.000Z</time>
      </trkpt>
      <trkpt lat="43.76086" lon="6.44122">
        <ele>816.7</ele>
        <time>2021-09-07T15:20:26.000Z</time>
      </trkpt>
      <trkpt lat="43.76089" lon="6.44128">
        <ele>816.8</ele>
        <time>2021-09-07T15:20:28.000Z</time>
      </trkpt>
      <trkpt lat="43.76096" lon="6.44141">
        <ele>817.2</ele>
        <time>2021-09-07T15:20:31.000Z</time>
      </trkpt>
      <trkpt lat="43.76096" lon="6.44144">
        <ele>817.4</ele>
        <time>2021-09-07T15:20:32.000Z</time>
      </trkpt>
      <trkpt lat="43.76098" lon="6.44148">
        <ele>817.5</ele>
        <time>2021-09-07T15:20:33.000Z</time>
      </trkpt>
      <trkpt lat="43.76099" lon="6.44151">
        <ele>817.4</ele>
        <time>2021-09-07T15:20:34.000Z</time>
      </trkpt>
      <trkpt lat="43.76096" lon="6.44143">
        <ele>817.4</ele>
        <time>2021-09-07T15:20:34.000Z</time>
      </trkpt>
      <trkpt lat="43.761" lon="6.44155">
        <ele>817.2</ele>
        <time>2021-09-07T15:20:35.000Z</time>
      </trkpt>
      <trkpt lat="43.76097" lon="6.44146">
        <ele>817.5</ele>
        <time>2021-09-07T15:20:35.000Z</time>
      </trkpt>
      <trkpt lat="43.76099" lon="6.44149">
        <ele>817.6</ele>
        <time>2021-09-07T15:20:36.000Z</time>
      </trkpt>
      <trkpt lat="43.76102" lon="6.44158">
        <ele>817.2</ele>
        <time>2021-09-07T15:20:36.000Z</time>
      </trkpt>
      <trkpt lat="43.76103" lon="6.44162">
        <ele>817.3</ele>
        <time>2021-09-07T15:20:37.000Z</time>
      </trkpt>
      <trkpt lat="43.76104" lon="6.44165">
        <ele>817.4</ele>
        <time>2021-09-07T15:20:38.000Z</time>
      </trkpt>
      <trkpt lat="43.76103" lon="6.4416">
        <ele>817.2</ele>
        <time>2021-09-07T15:20:39.000Z</time>
      </trkpt>
      <trkpt lat="43.76104" lon="6.44163">
        <ele>817.3</ele>
        <time>2021-09-07T15:20:40.000Z</time>
      </trkpt>
      <trkpt lat="43.76105" lon="6.44167">
        <ele>817.5</ele>
        <time>2021-09-07T15:20:41.000Z</time>
      </trkpt>
      <trkpt lat="43.76108" lon="6.44174">
        <ele>817.6</ele>
        <time>2021-09-07T15:20:41.000Z</time>
      </trkpt>
      <trkpt lat="43.76109" lon="6.44178">
        <ele>817.8</ele>
        <time>2021-09-07T15:20:42.000Z</time>
      </trkpt>
      <trkpt lat="43.76114" lon="6.44191">
        <ele>818.3</ele>
        <time>2021-09-07T15:20:46.000Z</time>
      </trkpt>
      <trkpt lat="43.76114" lon="6.44195">
        <ele>818.3</ele>
        <time>2021-09-07T15:20:47.000Z</time>
      </trkpt>
      <trkpt lat="43.76112" lon="6.44187">
        <ele>818.1</ele>
        <time>2021-09-07T15:20:47.000Z</time>
      </trkpt>
      <trkpt lat="43.76116" lon="6.44202">
        <ele>818.8</ele>
        <time>2021-09-07T15:20:49.000Z</time>
      </trkpt>
      <trkpt lat="43.76114" lon="6.44193">
        <ele>818.3</ele>
        <time>2021-09-07T15:20:49.000Z</time>
      </trkpt>
      <trkpt lat="43.76115" lon="6.44198">
        <ele>818.6</ele>
        <time>2021-09-07T15:20:50.000Z</time>
      </trkpt>
      <trkpt lat="43.76118" lon="6.44209">
        <ele>818.9</ele>
        <time>2021-09-07T15:20:51.000Z</time>
      </trkpt>
      <trkpt lat="43.76117" lon="6.44205">
        <ele>818.9</ele>
        <time>2021-09-07T15:20:52.000Z</time>
      </trkpt>
      <trkpt lat="43.76119" lon="6.44212">
        <ele>819.1</ele>
        <time>2021-09-07T15:20:52.000Z</time>
      </trkpt>
      <trkpt lat="43.76121" lon="6.44218">
        <ele>819.4</ele>
        <time>2021-09-07T15:20:54.000Z</time>
      </trkpt>
      <trkpt lat="43.76122" lon="6.44222">
        <ele>819.6</ele>
        <time>2021-09-07T15:20:55.000Z</time>
      </trkpt>
      <trkpt lat="43.76123" lon="6.44225">
        <ele>819.6</ele>
        <time>2021-09-07T15:20:56.000Z</time>
      </trkpt>
      <trkpt lat="43.76123" lon="6.44228">
        <ele>819.8</ele>
        <time>2021-09-07T15:20:57.000Z</time>
      </trkpt>
      <trkpt lat="43.76121" lon="6.4422">
        <ele>819.5</ele>
        <time>2021-09-07T15:20:57.000Z</time>
      </trkpt>
      <trkpt lat="43.76122" lon="6.44223">
        <ele>819.5</ele>
        <time>2021-09-07T15:20:58.000Z</time>
      </trkpt>
      <trkpt lat="43.76124" lon="6.44234">
        <ele>820.7</ele>
        <time>2021-09-07T15:20:59.000Z</time>
      </trkpt>
      <trkpt lat="43.76124" lon="6.44237">
        <ele>820.7</ele>
        <time>2021-09-07T15:21:00.000Z</time>
      </trkpt>
      <trkpt lat="43.76124" lon="6.44236">
        <ele>820.8</ele>
        <time>2021-09-07T15:21:02.000Z</time>
      </trkpt>
      <trkpt lat="43.76124" lon="6.44239">
        <ele>820.8</ele>
        <time>2021-09-07T15:21:03.000Z</time>
      </trkpt>
      <trkpt lat="43.76125" lon="6.44245">
        <ele>821.4</ele>
        <time>2021-09-07T15:21:03.000Z</time>
      </trkpt>
      <trkpt lat="43.76126" lon="6.44248">
        <ele>821.5</ele>
        <time>2021-09-07T15:21:04.000Z</time>
      </trkpt>
      <trkpt lat="43.76126" lon="6.4425">
        <ele>821.5</ele>
        <time>2021-09-07T15:21:05.000Z</time>
      </trkpt>
      <trkpt lat="43.76127" lon="6.44253">
        <ele>821.5</ele>
        <time>2021-09-07T15:21:06.000Z</time>
      </trkpt>
      <trkpt lat="43.76125" lon="6.44246">
        <ele>821.5</ele>
        <time>2021-09-07T15:21:06.000Z</time>
      </trkpt>
      <trkpt lat="43.76126" lon="6.4425">
        <ele>821.5</ele>
        <time>2021-09-07T15:21:07.000Z</time>
      </trkpt>
      <trkpt lat="43.76127" lon="6.44255">
        <ele>822</ele>
        <time>2021-09-07T15:21:07.000Z</time>
      </trkpt>
      <trkpt lat="43.7613" lon="6.4426">
        <ele>822.7</ele>
        <time>2021-09-07T15:21:09.000Z</time>
      </trkpt>
      <trkpt lat="43.76132" lon="6.44261">
        <ele>822.5</ele>
        <time>2021-09-07T15:21:10.000Z</time>
      </trkpt>
      <trkpt lat="43.76128" lon="6.44256">
        <ele>822.1</ele>
        <time>2021-09-07T15:21:10.000Z</time>
      </trkpt>
      <trkpt lat="43.76133" lon="6.44262">
        <ele>822.8</ele>
        <time>2021-09-07T15:21:11.000Z</time>
      </trkpt>
      <trkpt lat="43.76134" lon="6.44264">
        <ele>823</ele>
        <time>2021-09-07T15:21:12.000Z</time>
      </trkpt>
      <trkpt lat="43.76131" lon="6.44261">
        <ele>822.5</ele>
        <time>2021-09-07T15:21:12.000Z</time>
      </trkpt>
      <trkpt lat="43.76133" lon="6.44261">
        <ele>822.6</ele>
        <time>2021-09-07T15:21:13.000Z</time>
      </trkpt>
      <trkpt lat="43.76135" lon="6.44269">
        <ele>823.3</ele>
        <time>2021-09-07T15:21:14.000Z</time>
      </trkpt>
      <trkpt lat="43.76134" lon="6.44263">
        <ele>822.9</ele>
        <time>2021-09-07T15:21:14.000Z</time>
      </trkpt>
      <trkpt lat="43.76134" lon="6.44271">
        <ele>823</ele>
        <time>2021-09-07T15:21:15.000Z</time>
      </trkpt>
      <trkpt lat="43.76135" lon="6.44266">
        <ele>823.1</ele>
        <time>2021-09-07T15:21:15.000Z</time>
      </trkpt>
      <trkpt lat="43.76133" lon="6.44275">
        <ele>823.2</ele>
        <time>2021-09-07T15:21:17.000Z</time>
      </trkpt>
      <trkpt lat="43.76134" lon="6.4427">
        <ele>823.1</ele>
        <time>2021-09-07T15:21:17.000Z</time>
      </trkpt>
      <trkpt lat="43.76133" lon="6.44272">
        <ele>822.8</ele>
        <time>2021-09-07T15:21:18.000Z</time>
      </trkpt>
      <trkpt lat="43.76134" lon="6.44277">
        <ele>823.6</ele>
        <time>2021-09-07T15:21:18.000Z</time>
      </trkpt>
      <trkpt lat="43.76134" lon="6.44285">
        <ele>824.2</ele>
        <time>2021-09-07T15:21:21.000Z</time>
      </trkpt>
      <trkpt lat="43.76134" lon="6.44287">
        <ele>824.4</ele>
        <time>2021-09-07T15:21:22.000Z</time>
      </trkpt>
      <trkpt lat="43.76134" lon="6.44284">
        <ele>823.9</ele>
        <time>2021-09-07T15:21:23.000Z</time>
      </trkpt>
      <trkpt lat="43.76135" lon="6.44289">
        <ele>824.5</ele>
        <time>2021-09-07T15:21:23.000Z</time>
      </trkpt>
      <trkpt lat="43.76135" lon="6.4429">
        <ele>824.8</ele>
        <time>2021-09-07T15:21:24.000Z</time>
      </trkpt>
      <trkpt lat="43.76136" lon="6.44292">
        <ele>824.8</ele>
        <time>2021-09-07T15:21:25.000Z</time>
      </trkpt>
      <trkpt lat="43.76135" lon="6.44289">
        <ele>824.6</ele>
        <time>2021-09-07T15:21:26.000Z</time>
      </trkpt>
      <trkpt lat="43.76137" lon="6.44296">
        <ele>824.9</ele>
        <time>2021-09-07T15:21:27.000Z</time>
      </trkpt>
      <trkpt lat="43.76136" lon="6.44291">
        <ele>824.7</ele>
        <time>2021-09-07T15:21:27.000Z</time>
      </trkpt>
      <trkpt lat="43.76136" lon="6.44294">
        <ele>824.8</ele>
        <time>2021-09-07T15:21:28.000Z</time>
      </trkpt>
      <trkpt lat="43.76136" lon="6.44297">
        <ele>825</ele>
        <time>2021-09-07T15:21:28.000Z</time>
      </trkpt>
      <trkpt lat="43.76137" lon="6.44296">
        <ele>824.8</ele>
        <time>2021-09-07T15:21:33.000Z</time>
      </trkpt>
      <trkpt lat="43.76137" lon="6.44296">
        <ele>824.7</ele>
        <time>2021-09-07T15:21:34.000Z</time>
      </trkpt>
      <trkpt lat="43.76137" lon="6.44297">
        <ele>825.1</ele>
        <time>2021-09-07T15:21:36.000Z</time>
      </trkpt>
      <trkpt lat="43.76137" lon="6.44297">
        <ele>825</ele>
        <time>2021-09-07T15:21:38.000Z</time>
      </trkpt>
      <trkpt lat="43.76138" lon="6.44296">
        <ele>825.1</ele>
        <time>2021-09-07T15:21:41.000Z</time>
      </trkpt>
      <trkpt lat="43.76138" lon="6.44293">
        <ele>824.9</ele>
        <time>2021-09-07T15:21:41.000Z</time>
      </trkpt>
      <trkpt lat="43.76138" lon="6.44291">
        <ele>824.9</ele>
        <time>2021-09-07T15:21:42.000Z</time>
      </trkpt>
      <trkpt lat="43.76136" lon="6.44278">
        <ele>823.5</ele>
        <time>2021-09-07T15:21:45.000Z</time>
      </trkpt>
      <trkpt lat="43.76135" lon="6.44272">
        <ele>823.1</ele>
        <time>2021-09-07T15:21:46.000Z</time>
      </trkpt>
      <trkpt lat="43.76136" lon="6.44281">
        <ele>823.7</ele>
        <time>2021-09-07T15:21:47.000Z</time>
      </trkpt>
      <trkpt lat="43.76132" lon="6.44262">
        <ele>822.7</ele>
        <time>2021-09-07T15:21:48.000Z</time>
      </trkpt>
      <trkpt lat="43.76135" lon="6.44275">
        <ele>823.3</ele>
        <time>2021-09-07T15:21:48.000Z</time>
      </trkpt>
      <trkpt lat="43.7613" lon="6.44257">
        <ele>822.7</ele>
        <time>2021-09-07T15:21:49.000Z</time>
      </trkpt>
      <trkpt lat="43.76134" lon="6.44268">
        <ele>822.8</ele>
        <time>2021-09-07T15:21:49.000Z</time>
      </trkpt>
      <trkpt lat="43.76128" lon="6.44251">
        <ele>822.3</ele>
        <time>2021-09-07T15:21:50.000Z</time>
      </trkpt>
      <trkpt lat="43.76126" lon="6.44245">
        <ele>821.8</ele>
        <time>2021-09-07T15:21:51.000Z</time>
      </trkpt>
      <trkpt lat="43.76131" lon="6.44259">
        <ele>822.6</ele>
        <time>2021-09-07T15:21:51.000Z</time>
      </trkpt>
      <trkpt lat="43.76125" lon="6.44239">
        <ele>821.2</ele>
        <time>2021-09-07T15:21:52.000Z</time>
      </trkpt>
      <trkpt lat="43.76129" lon="6.44254">
        <ele>822.5</ele>
        <time>2021-09-07T15:21:52.000Z</time>
      </trkpt>
      <trkpt lat="43.76123" lon="6.44232">
        <ele>820.7</ele>
        <time>2021-09-07T15:21:53.000Z</time>
      </trkpt>
      <trkpt lat="43.76127" lon="6.44247">
        <ele>822</ele>
        <time>2021-09-07T15:21:53.000Z</time>
      </trkpt>
      <trkpt lat="43.76126" lon="6.44243">
        <ele>821.6</ele>
        <time>2021-09-07T15:21:54.000Z</time>
      </trkpt>
      <trkpt lat="43.76119" lon="6.44217">
        <ele>819.4</ele>
        <time>2021-09-07T15:21:55.000Z</time>
      </trkpt>
      <trkpt lat="43.76124" lon="6.44236">
        <ele>821</ele>
        <time>2021-09-07T15:21:55.000Z</time>
      </trkpt>
      <trkpt lat="43.76117" lon="6.4421">
        <ele>819.2</ele>
        <time>2021-09-07T15:21:56.000Z</time>
      </trkpt>
      <trkpt lat="43.76121" lon="6.44227">
        <ele>820.2</ele>
        <time>2021-09-07T15:21:56.000Z</time>
      </trkpt>
      <trkpt lat="43.76113" lon="6.44194">
        <ele>819.3</ele>
        <time>2021-09-07T15:21:57.000Z</time>
      </trkpt>
      <trkpt lat="43.7611" lon="6.44184">
        <ele>819.3</ele>
        <time>2021-09-07T15:21:58.000Z</time>
      </trkpt>
      <trkpt lat="43.76118" lon="6.44215">
        <ele>819.1</ele>
        <time>2021-09-07T15:21:58.000Z</time>
      </trkpt>
      <trkpt lat="43.76116" lon="6.44206">
        <ele>819.3</ele>
        <time>2021-09-07T15:21:59.000Z</time>
      </trkpt>
      <trkpt lat="43.76086" lon="6.4413">
        <ele>818.3</ele>
        <time>2021-09-07T15:22:04.000Z</time>
      </trkpt>
      <trkpt lat="43.76065" lon="6.44102">
        <ele>816</ele>
        <time>2021-09-07T15:22:09.000Z</time>
      </trkpt>
      <trkpt lat="43.76046" lon="6.44088">
        <ele>814.3</ele>
        <time>2021-09-07T15:22:14.000Z</time>
      </trkpt>
      <trkpt lat="43.76032" lon="6.44075">
        <ele>812.4</ele>
        <time>2021-09-07T15:22:21.000Z</time>
      </trkpt>
      <trkpt lat="43.76028" lon="6.44071">
        <ele>812.1</ele>
        <time>2021-09-07T15:22:22.000Z</time>
      </trkpt>
      <trkpt lat="43.76022" lon="6.44068">
        <ele>812.1</ele>
        <time>2021-09-07T15:22:23.000Z</time>
      </trkpt>
      <trkpt lat="43.7601" lon="6.4407">
        <ele>812.2</ele>
        <time>2021-09-07T15:22:23.000Z</time>
      </trkpt>
      <trkpt lat="43.76006" lon="6.44074">
        <ele>811.7</ele>
        <time>2021-09-07T15:22:24.000Z</time>
      </trkpt>
      <trkpt lat="43.76004" lon="6.44079">
        <ele>810.9</ele>
        <time>2021-09-07T15:22:25.000Z</time>
      </trkpt>
      <trkpt lat="43.76006" lon="6.44087">
        <ele>809.5</ele>
        <time>2021-09-07T15:22:27.000Z</time>
      </trkpt>
      <trkpt lat="43.76004" lon="6.4408">
        <ele>810.7</ele>
        <time>2021-09-07T15:22:28.000Z</time>
      </trkpt>
      <trkpt lat="43.76008" lon="6.44089">
        <ele>808.8</ele>
        <time>2021-09-07T15:22:28.000Z</time>
      </trkpt>
      <trkpt lat="43.76013" lon="6.44093">
        <ele>807.6</ele>
        <time>2021-09-07T15:22:30.000Z</time>
      </trkpt>
      <trkpt lat="43.76015" lon="6.44097">
        <ele>807</ele>
        <time>2021-09-07T15:22:31.000Z</time>
      </trkpt>
      <trkpt lat="43.76014" lon="6.44096">
        <ele>807.2</ele>
        <time>2021-09-07T15:22:33.000Z</time>
      </trkpt>
      <trkpt lat="43.76017" lon="6.44099">
        <ele>807</ele>
        <time>2021-09-07T15:22:34.000Z</time>
      </trkpt>
      <trkpt lat="43.76021" lon="6.44112">
        <ele>806.6</ele>
        <time>2021-09-07T15:22:35.000Z</time>
      </trkpt>
      <trkpt lat="43.76023" lon="6.44117">
        <ele>806.2</ele>
        <time>2021-09-07T15:22:36.000Z</time>
      </trkpt>
      <trkpt lat="43.76029" lon="6.44133">
        <ele>805.6</ele>
        <time>2021-09-07T15:22:38.000Z</time>
      </trkpt>
      <trkpt lat="43.76022" lon="6.44115">
        <ele>806.4</ele>
        <time>2021-09-07T15:22:38.000Z</time>
      </trkpt>
      <trkpt lat="43.76025" lon="6.44122">
        <ele>805.9</ele>
        <time>2021-09-07T15:22:39.000Z</time>
      </trkpt>
      <trkpt lat="43.76032" lon="6.4414">
        <ele>805.4</ele>
        <time>2021-09-07T15:22:39.000Z</time>
      </trkpt>
      <trkpt lat="43.76047" lon="6.44187">
        <ele>804.1</ele>
        <time>2021-09-07T15:22:44.000Z</time>
      </trkpt>
      <trkpt lat="43.76061" lon="6.44224">
        <ele>804</ele>
        <time>2021-09-07T15:22:49.000Z</time>
      </trkpt>
      <trkpt lat="43.76067" lon="6.44246">
        <ele>805</ele>
        <time>2021-09-07T15:22:54.000Z</time>
      </trkpt>
      <trkpt lat="43.76076" lon="6.44264">
        <ele>805</ele>
        <time>2021-09-07T15:22:59.000Z</time>
      </trkpt>
      <trkpt lat="43.76077" lon="6.44269">
        <ele>805.2</ele>
        <time>2021-09-07T15:23:00.000Z</time>
      </trkpt>
      <trkpt lat="43.76079" lon="6.44273">
        <ele>805.3</ele>
        <time>2021-09-07T15:23:01.000Z</time>
      </trkpt>
      <trkpt lat="43.7608" lon="6.44277">
        <ele>805.5</ele>
        <time>2021-09-07T15:23:02.000Z</time>
      </trkpt>
      <trkpt lat="43.76078" lon="6.44271">
        <ele>805.3</ele>
        <time>2021-09-07T15:23:03.000Z</time>
      </trkpt>
      <trkpt lat="43.76082" lon="6.4428">
        <ele>806</ele>
        <time>2021-09-07T15:23:03.000Z</time>
      </trkpt>
      <trkpt lat="43.76083" lon="6.44282">
        <ele>806.2</ele>
        <time>2021-09-07T15:23:06.000Z</time>
      </trkpt>
      <trkpt lat="43.76084" lon="6.44291">
        <ele>805.8</ele>
        <time>2021-09-07T15:23:07.000Z</time>
      </trkpt>
      <trkpt lat="43.76084" lon="6.44292">
        <ele>805.8</ele>
        <time>2021-09-07T15:23:09.000Z</time>
      </trkpt>
      <trkpt lat="43.76085" lon="6.44301">
        <ele>806.7</ele>
        <time>2021-09-07T15:23:09.000Z</time>
      </trkpt>
      <trkpt lat="43.76086" lon="6.44305">
        <ele>806.8</ele>
        <time>2021-09-07T15:23:10.000Z</time>
      </trkpt>
      <trkpt lat="43.7609" lon="6.44311">
        <ele>808.1</ele>
        <time>2021-09-07T15:23:12.000Z</time>
      </trkpt>
      <trkpt lat="43.76092" lon="6.44315">
        <ele>808.4</ele>
        <time>2021-09-07T15:23:13.000Z</time>
      </trkpt>
      <trkpt lat="43.76092" lon="6.44319">
        <ele>808.7</ele>
        <time>2021-09-07T15:23:14.000Z</time>
      </trkpt>
      <trkpt lat="43.7609" lon="6.44312">
        <ele>808.3</ele>
        <time>2021-09-07T15:23:14.000Z</time>
      </trkpt>
      <trkpt lat="43.76092" lon="6.44317">
        <ele>808.6</ele>
        <time>2021-09-07T15:23:15.000Z</time>
      </trkpt>
      <trkpt lat="43.76092" lon="6.44322">
        <ele>808.9</ele>
        <time>2021-09-07T15:23:16.000Z</time>
      </trkpt>
      <trkpt lat="43.76094" lon="6.44333">
        <ele>808.7</ele>
        <time>2021-09-07T15:23:17.000Z</time>
      </trkpt>
      <trkpt lat="43.76095" lon="6.44336">
        <ele>809.1</ele>
        <time>2021-09-07T15:23:19.000Z</time>
      </trkpt>
      <trkpt lat="43.76098" lon="6.44345">
        <ele>809.9</ele>
        <time>2021-09-07T15:23:19.000Z</time>
      </trkpt>
      <trkpt lat="43.76099" lon="6.44348">
        <ele>810</ele>
        <time>2021-09-07T15:23:21.000Z</time>
      </trkpt>
      <trkpt lat="43.76103" lon="6.44358">
        <ele>810.3</ele>
        <time>2021-09-07T15:23:22.000Z</time>
      </trkpt>
      <trkpt lat="43.76103" lon="6.44362">
        <ele>810.1</ele>
        <time>2021-09-07T15:23:23.000Z</time>
      </trkpt>
      <trkpt lat="43.76103" lon="6.44359">
        <ele>810.2</ele>
        <time>2021-09-07T15:23:24.000Z</time>
      </trkpt>
      <trkpt lat="43.76104" lon="6.44364">
        <ele>810.2</ele>
        <time>2021-09-07T15:23:25.000Z</time>
      </trkpt>
      <trkpt lat="43.76105" lon="6.44375">
        <ele>810.5</ele>
        <time>2021-09-07T15:23:27.000Z</time>
      </trkpt>
      <trkpt lat="43.76105" lon="6.44379">
        <ele>810.9</ele>
        <time>2021-09-07T15:23:28.000Z</time>
      </trkpt>
      <trkpt lat="43.76105" lon="6.44378">
        <ele>810.8</ele>
        <time>2021-09-07T15:23:29.000Z</time>
      </trkpt>
      <trkpt lat="43.76105" lon="6.44381">
        <ele>811</ele>
        <time>2021-09-07T15:23:30.000Z</time>
      </trkpt>
      <trkpt lat="43.76108" lon="6.44393">
        <ele>811.7</ele>
        <time>2021-09-07T15:23:32.000Z</time>
      </trkpt>
      <trkpt lat="43.76108" lon="6.44396">
        <ele>811.8</ele>
        <time>2021-09-07T15:23:34.000Z</time>
      </trkpt>
      <trkpt lat="43.76111" lon="6.44409">
        <ele>812.6</ele>
        <time>2021-09-07T15:23:36.000Z</time>
      </trkpt>
      <trkpt lat="43.76111" lon="6.44411">
        <ele>812.8</ele>
        <time>2021-09-07T15:23:37.000Z</time>
      </trkpt>
      <trkpt lat="43.76111" lon="6.44414">
        <ele>813</ele>
        <time>2021-09-07T15:23:38.000Z</time>
      </trkpt>
      <trkpt lat="43.76111" lon="6.44415">
        <ele>813.1</ele>
        <time>2021-09-07T15:23:39.000Z</time>
      </trkpt>
      <trkpt lat="43.7611" lon="6.44422">
        <ele>813.4</ele>
        <time>2021-09-07T15:23:42.000Z</time>
      </trkpt>
      <trkpt lat="43.76111" lon="6.44425">
        <ele>813.5</ele>
        <time>2021-09-07T15:23:43.000Z</time>
      </trkpt>
      <trkpt lat="43.76111" lon="6.44436">
        <ele>813.6</ele>
        <time>2021-09-07T15:23:48.000Z</time>
      </trkpt>
      <trkpt lat="43.76112" lon="6.4444">
        <ele>813.6</ele>
        <time>2021-09-07T15:23:48.000Z</time>
      </trkpt>
      <trkpt lat="43.76112" lon="6.44442">
        <ele>814.1</ele>
        <time>2021-09-07T15:23:49.000Z</time>
      </trkpt>
      <trkpt lat="43.76112" lon="6.44442">
        <ele>813.9</ele>
        <time>2021-09-07T15:23:50.000Z</time>
      </trkpt>
      <trkpt lat="43.76113" lon="6.44445">
        <ele>814.2</ele>
        <time>2021-09-07T15:23:50.000Z</time>
      </trkpt>
      <trkpt lat="43.76115" lon="6.44456">
        <ele>814.3</ele>
        <time>2021-09-07T15:23:53.000Z</time>
      </trkpt>
      <trkpt lat="43.76116" lon="6.44459">
        <ele>814.5</ele>
        <time>2021-09-07T15:23:54.000Z</time>
      </trkpt>
      <trkpt lat="43.76116" lon="6.44458">
        <ele>814.4</ele>
        <time>2021-09-07T15:23:55.000Z</time>
      </trkpt>
      <trkpt lat="43.76117" lon="6.44462">
        <ele>814.6</ele>
        <time>2021-09-07T15:23:56.000Z</time>
      </trkpt>
      <trkpt lat="43.76121" lon="6.44474">
        <ele>815.7</ele>
        <time>2021-09-07T15:23:59.000Z</time>
      </trkpt>
      <trkpt lat="43.76121" lon="6.44476">
        <ele>815.8</ele>
        <time>2021-09-07T15:24:01.000Z</time>
      </trkpt>
      <trkpt lat="43.76122" lon="6.44483">
        <ele>816.4</ele>
        <time>2021-09-07T15:24:02.000Z</time>
      </trkpt>
      <trkpt lat="43.76123" lon="6.44485">
        <ele>816.3</ele>
        <time>2021-09-07T15:24:03.000Z</time>
      </trkpt>
      <trkpt lat="43.76123" lon="6.44484">
        <ele>816.4</ele>
        <time>2021-09-07T15:24:04.000Z</time>
      </trkpt>
      <trkpt lat="43.76123" lon="6.44488">
        <ele>816.3</ele>
        <time>2021-09-07T15:24:04.000Z</time>
      </trkpt>
      <trkpt lat="43.76125" lon="6.44492">
        <ele>816.1</ele>
        <time>2021-09-07T15:24:06.000Z</time>
      </trkpt>
      <trkpt lat="43.76127" lon="6.44494">
        <ele>816.2</ele>
        <time>2021-09-07T15:24:07.000Z</time>
      </trkpt>
      <trkpt lat="43.76128" lon="6.44496">
        <ele>816.4</ele>
        <time>2021-09-07T15:24:09.000Z</time>
      </trkpt>
      <trkpt lat="43.76128" lon="6.44496">
        <ele>816.4</ele>
        <time>2021-09-07T15:24:11.000Z</time>
      </trkpt>
      <trkpt lat="43.76129" lon="6.44497">
        <ele>816.5</ele>
        <time>2021-09-07T15:24:16.000Z</time>
      </trkpt>
      <trkpt lat="43.76129" lon="6.44497">
        <ele>816.6</ele>
        <time>2021-09-07T15:24:19.000Z</time>
      </trkpt>
      <trkpt lat="43.76129" lon="6.44497">
        <ele>816.6</ele>
        <time>2021-09-07T15:24:20.000Z</time>
      </trkpt>
      <trkpt lat="43.7613" lon="6.44498">
        <ele>816.5</ele>
        <time>2021-09-07T15:24:20.000Z</time>
      </trkpt>
      <trkpt lat="43.7613" lon="6.44498">
        <ele>816.5</ele>
        <time>2021-09-07T15:24:20.000Z</time>
      </trkpt>
      <trkpt lat="43.7613" lon="6.44499">
        <ele>816.3</ele>
        <time>2021-09-07T15:24:21.000Z</time>
      </trkpt>
      <trkpt lat="43.76131" lon="6.445">
        <ele>816.1</ele>
        <time>2021-09-07T15:24:23.000Z</time>
      </trkpt>
      <trkpt lat="43.76137" lon="6.44509">
        <ele>816.2</ele>
        <time>2021-09-07T15:24:25.000Z</time>
      </trkpt>
      <trkpt lat="43.7614" lon="6.44512">
        <ele>816</ele>
        <time>2021-09-07T15:24:26.000Z</time>
      </trkpt>
      <trkpt lat="43.7615" lon="6.44526">
        <ele>815.8</ele>
        <time>2021-09-07T15:24:30.000Z</time>
      </trkpt>
      <trkpt lat="43.76152" lon="6.4453">
        <ele>815.9</ele>
        <time>2021-09-07T15:24:31.000Z</time>
      </trkpt>
      <trkpt lat="43.76149" lon="6.44524">
        <ele>815.8</ele>
        <time>2021-09-07T15:24:31.000Z</time>
      </trkpt>
      <trkpt lat="43.76151" lon="6.44528">
        <ele>815.9</ele>
        <time>2021-09-07T15:24:32.000Z</time>
      </trkpt>
      <trkpt lat="43.76154" lon="6.44531">
        <ele>815.8</ele>
        <time>2021-09-07T15:24:33.000Z</time>
      </trkpt>
      <trkpt lat="43.76159" lon="6.44534">
        <ele>815.2</ele>
        <time>2021-09-07T15:24:33.000Z</time>
      </trkpt>
      <trkpt lat="43.76162" lon="6.44534">
        <ele>815.1</ele>
        <time>2021-09-07T15:24:35.000Z</time>
      </trkpt>
      <trkpt lat="43.76166" lon="6.44535">
        <ele>815.2</ele>
        <time>2021-09-07T15:24:35.000Z</time>
      </trkpt>
      <trkpt lat="43.7617" lon="6.44535">
        <ele>814.9</ele>
        <time>2021-09-07T15:24:36.000Z</time>
      </trkpt>
      <trkpt lat="43.76168" lon="6.44535">
        <ele>815</ele>
        <time>2021-09-07T15:24:37.000Z</time>
      </trkpt>
      <trkpt lat="43.76173" lon="6.44535">
        <ele>815.2</ele>
        <time>2021-09-07T15:24:38.000Z</time>
      </trkpt>
      <trkpt lat="43.76187" lon="6.44529">
        <ele>815.2</ele>
        <time>2021-09-07T15:24:40.000Z</time>
      </trkpt>
      <trkpt lat="43.76191" lon="6.44527">
        <ele>815.5</ele>
        <time>2021-09-07T15:24:42.000Z</time>
      </trkpt>
      <trkpt lat="43.762" lon="6.44524">
        <ele>815.7</ele>
        <time>2021-09-07T15:24:43.000Z</time>
      </trkpt>
      <trkpt lat="43.76202" lon="6.44523">
        <ele>815.6</ele>
        <time>2021-09-07T15:24:45.000Z</time>
      </trkpt>
      <trkpt lat="43.76212" lon="6.44521">
        <ele>815.4</ele>
        <time>2021-09-07T15:24:46.000Z</time>
      </trkpt>
      <trkpt lat="43.76214" lon="6.44522">
        <ele>815.4</ele>
        <time>2021-09-07T15:24:48.000Z</time>
      </trkpt>
      <trkpt lat="43.7622" lon="6.44521">
        <ele>815.6</ele>
        <time>2021-09-07T15:24:49.000Z</time>
      </trkpt>
      <trkpt lat="43.76224" lon="6.44521">
        <ele>815.2</ele>
        <time>2021-09-07T15:24:50.000Z</time>
      </trkpt>
      <trkpt lat="43.76227" lon="6.44521">
        <ele>815.3</ele>
        <time>2021-09-07T15:24:51.000Z</time>
      </trkpt>
      <trkpt lat="43.76222" lon="6.44521">
        <ele>815.3</ele>
        <time>2021-09-07T15:24:51.000Z</time>
      </trkpt>
      <trkpt lat="43.76226" lon="6.44521">
        <ele>815.2</ele>
        <time>2021-09-07T15:24:52.000Z</time>
      </trkpt>
      <trkpt lat="43.7623" lon="6.44521">
        <ele>815.3</ele>
        <time>2021-09-07T15:24:52.000Z</time>
      </trkpt>
      <trkpt lat="43.76249" lon="6.44519">
        <ele>815.6</ele>
        <time>2021-09-07T15:24:56.000Z</time>
      </trkpt>
      <trkpt lat="43.76246" lon="6.44519">
        <ele>815.5</ele>
        <time>2021-09-07T15:24:57.000Z</time>
      </trkpt>
      <trkpt lat="43.76252" lon="6.44519">
        <ele>815.5</ele>
        <time>2021-09-07T15:24:58.000Z</time>
      </trkpt>
      <trkpt lat="43.76264" lon="6.44518">
        <ele>815.6</ele>
        <time>2021-09-07T15:25:00.000Z</time>
      </trkpt>
      <trkpt lat="43.76266" lon="6.44518">
        <ele>815.5</ele>
        <time>2021-09-07T15:25:02.000Z</time>
      </trkpt>
      <trkpt lat="43.7627" lon="6.44518">
        <ele>815.5</ele>
        <time>2021-09-07T15:25:02.000Z</time>
      </trkpt>
      <trkpt lat="43.76273" lon="6.44517">
        <ele>815.4</ele>
        <time>2021-09-07T15:25:03.000Z</time>
      </trkpt>
      <trkpt lat="43.76277" lon="6.44518">
        <ele>815.4</ele>
        <time>2021-09-07T15:25:04.000Z</time>
      </trkpt>
      <trkpt lat="43.76272" lon="6.44518">
        <ele>815.4</ele>
        <time>2021-09-07T15:25:04.000Z</time>
      </trkpt>
      <trkpt lat="43.76275" lon="6.44517">
        <ele>815.4</ele>
        <time>2021-09-07T15:25:05.000Z</time>
      </trkpt>
      <trkpt lat="43.7628" lon="6.44518">
        <ele>815.6</ele>
        <time>2021-09-07T15:25:05.000Z</time>
      </trkpt>
      <trkpt lat="43.76289" lon="6.44514">
        <ele>816.1</ele>
        <time>2021-09-07T15:25:08.000Z</time>
      </trkpt>
      <trkpt lat="43.76291" lon="6.44512">
        <ele>816.2</ele>
        <time>2021-09-07T15:25:09.000Z</time>
      </trkpt>
      <trkpt lat="43.7629" lon="6.44513">
        <ele>816.2</ele>
        <time>2021-09-07T15:25:10.000Z</time>
      </trkpt>
      <trkpt lat="43.76292" lon="6.4451">
        <ele>816.2</ele>
        <time>2021-09-07T15:25:11.000Z</time>
      </trkpt>
      <trkpt lat="43.76295" lon="6.44508">
        <ele>816.2</ele>
        <time>2021-09-07T15:25:11.000Z</time>
      </trkpt>
      <trkpt lat="43.76296" lon="6.44508">
        <ele>815.8</ele>
        <time>2021-09-07T15:25:12.000Z</time>
      </trkpt>
      <trkpt lat="43.76296" lon="6.44508">
        <ele>816.1</ele>
        <time>2021-09-07T15:25:13.000Z</time>
      </trkpt>
      <trkpt lat="43.76298" lon="6.44509">
        <ele>815.6</ele>
        <time>2021-09-07T15:25:13.000Z</time>
      </trkpt>
      <trkpt lat="43.76294" lon="6.4452">
        <ele>814.4</ele>
        <time>2021-09-07T15:25:17.000Z</time>
      </trkpt>
      <trkpt lat="43.76295" lon="6.44518">
        <ele>814.7</ele>
        <time>2021-09-07T15:25:18.000Z</time>
      </trkpt>
      <trkpt lat="43.76291" lon="6.44523">
        <ele>813.8</ele>
        <time>2021-09-07T15:25:19.000Z</time>
      </trkpt>
      <trkpt lat="43.76274" lon="6.4453">
        <ele>811.4</ele>
        <time>2021-09-07T15:25:22.000Z</time>
      </trkpt>
      <trkpt lat="43.7627" lon="6.44532">
        <ele>811.1</ele>
        <time>2021-09-07T15:25:23.000Z</time>
      </trkpt>
      <trkpt lat="43.76272" lon="6.44531">
        <ele>811.3</ele>
        <time>2021-09-07T15:25:24.000Z</time>
      </trkpt>
      <trkpt lat="43.76267" lon="6.44533">
        <ele>811</ele>
        <time>2021-09-07T15:25:25.000Z</time>
      </trkpt>
      <trkpt lat="43.76264" lon="6.44535">
        <ele>811</ele>
        <time>2021-09-07T15:25:25.000Z</time>
      </trkpt>
      <trkpt lat="43.76262" lon="6.44535">
        <ele>810.8</ele>
        <time>2021-09-07T15:25:26.000Z</time>
      </trkpt>
      <trkpt lat="43.76257" lon="6.44538">
        <ele>810.8</ele>
        <time>2021-09-07T15:25:31.000Z</time>
      </trkpt>
      <trkpt lat="43.76261" lon="6.44537">
        <ele>810.9</ele>
        <time>2021-09-07T15:25:35.000Z</time>
      </trkpt>
      <trkpt lat="43.76261" lon="6.44537">
        <ele>810.8</ele>
        <time>2021-09-07T15:25:40.000Z</time>
      </trkpt>
      <trkpt lat="43.76261" lon="6.44537">
        <ele>811</ele>
        <time>2021-09-07T15:25:41.000Z</time>
      </trkpt>
      <trkpt lat="43.76261" lon="6.44538">
        <ele>811.1</ele>
        <time>2021-09-07T15:25:42.000Z</time>
      </trkpt>
      <trkpt lat="43.76261" lon="6.44537">
        <ele>810.8</ele>
        <time>2021-09-07T15:25:44.000Z</time>
      </trkpt>
      <trkpt lat="43.76261" lon="6.44537">
        <ele>811</ele>
        <time>2021-09-07T15:25:45.000Z</time>
      </trkpt>
      <trkpt lat="43.76261" lon="6.44537">
        <ele>811</ele>
        <time>2021-09-07T15:25:50.000Z</time>
      </trkpt>
      <trkpt lat="43.76261" lon="6.44536">
        <ele>810.6</ele>
        <time>2021-09-07T15:25:56.000Z</time>
      </trkpt>
      <trkpt lat="43.76261" lon="6.44536">
        <ele>810.8</ele>
        <time>2021-09-07T15:25:58.000Z</time>
      </trkpt>
      <trkpt lat="43.76261" lon="6.44536">
        <ele>811.1</ele>
        <time>2021-09-07T15:26:01.000Z</time>
      </trkpt>
      <trkpt lat="43.76262" lon="6.44535">
        <ele>810.5</ele>
        <time>2021-09-07T15:26:06.000Z</time>
      </trkpt>
      <trkpt lat="43.76262" lon="6.44536">
        <ele>810.4</ele>
        <time>2021-09-07T15:26:08.000Z</time>
      </trkpt>
      <trkpt lat="43.76262" lon="6.44536">
        <ele>810.3</ele>
        <time>2021-09-07T15:26:09.000Z</time>
      </trkpt>
      <trkpt lat="43.76262" lon="6.44535">
        <ele>810.6</ele>
        <time>2021-09-07T15:26:14.000Z</time>
      </trkpt>
      <trkpt lat="43.76262" lon="6.44535">
        <ele>810.4</ele>
        <time>2021-09-07T15:26:19.000Z</time>
      </trkpt>
      <trkpt lat="43.76262" lon="6.44535">
        <ele>810.6</ele>
        <time>2021-09-07T15:26:24.000Z</time>
      </trkpt>
      <trkpt lat="43.76263" lon="6.44535">
        <ele>810.6</ele>
        <time>2021-09-07T15:26:29.000Z</time>
      </trkpt>
      <trkpt lat="43.76263" lon="6.44535">
        <ele>810.5</ele>
        <time>2021-09-07T15:26:33.000Z</time>
      </trkpt>
      <trkpt lat="43.76263" lon="6.44534">
        <ele>810.6</ele>
        <time>2021-09-07T15:26:35.000Z</time>
      </trkpt>
      <trkpt lat="43.76263" lon="6.44534">
        <ele>810.7</ele>
        <time>2021-09-07T15:26:36.000Z</time>
      </trkpt>
      <trkpt lat="43.76263" lon="6.44534">
        <ele>810.1</ele>
        <time>2021-09-07T15:26:40.000Z</time>
      </trkpt>
      <trkpt lat="43.76262" lon="6.44533">
        <ele>809.8</ele>
        <time>2021-09-07T15:26:41.000Z</time>
      </trkpt>
      <trkpt lat="43.76262" lon="6.44532">
        <ele>810.2</ele>
        <time>2021-09-07T15:26:46.000Z</time>
      </trkpt>
      <trkpt lat="43.76262" lon="6.44532">
        <ele>810.1</ele>
        <time>2021-09-07T15:26:48.000Z</time>
      </trkpt>
      <trkpt lat="43.76262" lon="6.44532">
        <ele>810.5</ele>
        <time>2021-09-07T15:26:50.000Z</time>
      </trkpt>
      <trkpt lat="43.76262" lon="6.44532">
        <ele>810.2</ele>
        <time>2021-09-07T15:26:55.000Z</time>
      </trkpt>
      <trkpt lat="43.76262" lon="6.44532">
        <ele>810.2</ele>
        <time>2021-09-07T15:26:57.000Z</time>
      </trkpt>
      <trkpt lat="43.76262" lon="6.44532">
        <ele>810.3</ele>
        <time>2021-09-07T15:26:57.000Z</time>
      </trkpt>
      <trkpt lat="43.76262" lon="6.44533">
        <ele>810.1</ele>
        <time>2021-09-07T15:27:00.000Z</time>
      </trkpt>
      <trkpt lat="43.76262" lon="6.44533">
        <ele>810.1</ele>
        <time>2021-09-07T15:27:01.000Z</time>
      </trkpt>
      <trkpt lat="43.76262" lon="6.44533">
        <ele>810.1</ele>
        <time>2021-09-07T15:27:03.000Z</time>
      </trkpt>
      <trkpt lat="43.76262" lon="6.44533">
        <ele>810.1</ele>
        <time>2021-09-07T15:27:04.000Z</time>
      </trkpt>
      <trkpt lat="43.76262" lon="6.44533">
        <ele>810.3</ele>
        <time>2021-09-07T15:27:04.000Z</time>
      </trkpt>
      <trkpt lat="43.76263" lon="6.44534">
        <ele>810.3</ele>
        <time>2021-09-07T15:27:07.000Z</time>
      </trkpt>
      <trkpt lat="43.76263" lon="6.44534">
        <ele>810.3</ele>
        <time>2021-09-07T15:27:08.000Z</time>
      </trkpt>
      <trkpt lat="43.76263" lon="6.44534">
        <ele>810.4</ele>
        <time>2021-09-07T15:27:10.000Z</time>
      </trkpt>
      <trkpt lat="43.76263" lon="6.44534">
        <ele>810.4</ele>
        <time>2021-09-07T15:27:15.000Z</time>
      </trkpt>
      <trkpt lat="43.76263" lon="6.44534">
        <ele>810.5</ele>
        <time>2021-09-07T15:27:20.000Z</time>
      </trkpt>
      <trkpt lat="43.76263" lon="6.44534">
        <ele>810.5</ele>
        <time>2021-09-07T15:27:25.000Z</time>
      </trkpt>
      <trkpt lat="43.76263" lon="6.44534">
        <ele>810.5</ele>
        <time>2021-09-07T15:27:27.000Z</time>
      </trkpt>
    </trkseg>
  </trk>
</gpx>